<?xml version="1.0" encoding="UTF-8" standalone="no" ?>
<gpx xmlns="http://www.topografix.com/GPX/1/1" xmlns:xsi="http://www.w3.org/2001/XMLSchema-instance" xsi:schemaLocation="http://www.topografix.com/GPX/1/1 http://www.topografix.com/GPX/1/1/gpx.xsd" version="1.1" creator="VisuGPX - https://www.visugpx.com">
  <metadata>
    <name>Arradon</name>
    <desc><![CDATA[Très belle journée sur le GR34 à Arradon entre deux tempêtes ]]></desc>
  </metadata>
  <trk>
    <name><![CDATA[Tracé 20250128-084410]]></name>
    <extensions>
      <line xmlns="http://www.topografix.com/GPX/gpx_style/0/2">
        <color>0000FF</color>
        <width>4</width>
      </line>
    </extensions>
    <trkseg>
      <trkpt lat="47.62754" lon="-2.83008">
        <ele>21.1</ele>
        <time>2025-01-28T07:44:10Z</time>
      </trkpt>
      <trkpt lat="47.62753" lon="-2.83007">
        <ele>21.1</ele>
        <time>2025-01-28T07:44:11Z</time>
      </trkpt>
      <trkpt lat="47.62753" lon="-2.83006">
        <ele>21.1</ele>
        <time>2025-01-28T07:44:12Z</time>
      </trkpt>
      <trkpt lat="47.62753" lon="-2.83006">
        <ele>21.1</ele>
        <time>2025-01-28T07:44:13Z</time>
      </trkpt>
      <trkpt lat="47.62754" lon="-2.83005">
        <ele>21.1</ele>
        <time>2025-01-28T07:44:14Z</time>
      </trkpt>
      <trkpt lat="47.62754" lon="-2.83005">
        <ele>21.1</ele>
        <time>2025-01-28T07:44:15Z</time>
      </trkpt>
      <trkpt lat="47.62754" lon="-2.83005">
        <ele>21.1</ele>
        <time>2025-01-28T07:44:16Z</time>
      </trkpt>
      <trkpt lat="47.62754" lon="-2.83005">
        <ele>21.1</ele>
        <time>2025-01-28T07:44:17Z</time>
      </trkpt>
      <trkpt lat="47.62754" lon="-2.83005">
        <ele>21.1</ele>
        <time>2025-01-28T07:44:18Z</time>
      </trkpt>
      <trkpt lat="47.62754" lon="-2.83005">
        <ele>21.1</ele>
        <time>2025-01-28T07:44:19Z</time>
      </trkpt>
      <trkpt lat="47.62754" lon="-2.83005">
        <ele>21.1</ele>
        <time>2025-01-28T07:44:20Z</time>
      </trkpt>
      <trkpt lat="47.62754" lon="-2.83005">
        <ele>21.1</ele>
        <time>2025-01-28T07:44:21Z</time>
      </trkpt>
      <trkpt lat="47.62754" lon="-2.83005">
        <ele>21.1</ele>
        <time>2025-01-28T07:44:22Z</time>
      </trkpt>
      <trkpt lat="47.62754" lon="-2.83005">
        <ele>21.1</ele>
        <time>2025-01-28T07:44:23Z</time>
      </trkpt>
      <trkpt lat="47.62754" lon="-2.83005">
        <ele>21.1</ele>
        <time>2025-01-28T07:44:24Z</time>
      </trkpt>
      <trkpt lat="47.62754" lon="-2.83005">
        <ele>21.1</ele>
        <time>2025-01-28T07:44:25Z</time>
      </trkpt>
      <trkpt lat="47.62754" lon="-2.83005">
        <ele>21.1</ele>
        <time>2025-01-28T07:44:26Z</time>
      </trkpt>
      <trkpt lat="47.62754" lon="-2.83004">
        <ele>21.1</ele>
        <time>2025-01-28T07:44:27Z</time>
      </trkpt>
      <trkpt lat="47.62755" lon="-2.83004">
        <ele>21.2</ele>
        <time>2025-01-28T07:44:28Z</time>
      </trkpt>
      <trkpt lat="47.62755" lon="-2.83004">
        <ele>21.2</ele>
        <time>2025-01-28T07:44:29Z</time>
      </trkpt>
      <trkpt lat="47.62755" lon="-2.83004">
        <ele>21.2</ele>
        <time>2025-01-28T07:44:30Z</time>
      </trkpt>
      <trkpt lat="47.62754" lon="-2.83004">
        <ele>21.2</ele>
        <time>2025-01-28T07:44:31Z</time>
      </trkpt>
      <trkpt lat="47.62754" lon="-2.83003">
        <ele>21.1</ele>
        <time>2025-01-28T07:44:32Z</time>
      </trkpt>
      <trkpt lat="47.62754" lon="-2.83004">
        <ele>21.1</ele>
        <time>2025-01-28T07:44:33Z</time>
      </trkpt>
      <trkpt lat="47.62754" lon="-2.83004">
        <ele>21.1</ele>
        <time>2025-01-28T07:44:34Z</time>
      </trkpt>
      <trkpt lat="47.62753" lon="-2.83003">
        <ele>21.1</ele>
        <time>2025-01-28T07:44:35Z</time>
      </trkpt>
      <trkpt lat="47.62753" lon="-2.83003">
        <ele>21.1</ele>
        <time>2025-01-28T07:44:36Z</time>
      </trkpt>
      <trkpt lat="47.62753" lon="-2.83003">
        <ele>21.1</ele>
        <time>2025-01-28T07:44:37Z</time>
      </trkpt>
      <trkpt lat="47.62753" lon="-2.83003">
        <ele>21.1</ele>
        <time>2025-01-28T07:44:38Z</time>
      </trkpt>
      <trkpt lat="47.62753" lon="-2.83003">
        <ele>21.1</ele>
        <time>2025-01-28T07:44:39Z</time>
      </trkpt>
      <trkpt lat="47.62753" lon="-2.83003">
        <ele>21.1</ele>
        <time>2025-01-28T07:44:40Z</time>
      </trkpt>
      <trkpt lat="47.62753" lon="-2.83004">
        <ele>21.1</ele>
        <time>2025-01-28T07:44:41Z</time>
      </trkpt>
      <trkpt lat="47.62752" lon="-2.83004">
        <ele>21.1</ele>
        <time>2025-01-28T07:44:42Z</time>
      </trkpt>
      <trkpt lat="47.62752" lon="-2.83004">
        <ele>21.1</ele>
        <time>2025-01-28T07:44:43Z</time>
      </trkpt>
      <trkpt lat="47.62752" lon="-2.83004">
        <ele>21.1</ele>
        <time>2025-01-28T07:44:44Z</time>
      </trkpt>
      <trkpt lat="47.62752" lon="-2.83004">
        <ele>21.1</ele>
        <time>2025-01-28T07:44:45Z</time>
      </trkpt>
      <trkpt lat="47.62752" lon="-2.83004">
        <ele>21.1</ele>
        <time>2025-01-28T07:44:46Z</time>
      </trkpt>
      <trkpt lat="47.62752" lon="-2.83004">
        <ele>21.1</ele>
        <time>2025-01-28T07:44:47Z</time>
      </trkpt>
      <trkpt lat="47.62752" lon="-2.83004">
        <ele>21.1</ele>
        <time>2025-01-28T07:44:48Z</time>
      </trkpt>
      <trkpt lat="47.62752" lon="-2.83004">
        <ele>21.1</ele>
        <time>2025-01-28T07:44:49Z</time>
      </trkpt>
      <trkpt lat="47.62752" lon="-2.83004">
        <ele>21.1</ele>
        <time>2025-01-28T07:44:50Z</time>
      </trkpt>
      <trkpt lat="47.62752" lon="-2.83004">
        <ele>21.1</ele>
        <time>2025-01-28T07:44:51Z</time>
      </trkpt>
      <trkpt lat="47.62752" lon="-2.83004">
        <ele>21.1</ele>
        <time>2025-01-28T07:44:52Z</time>
      </trkpt>
      <trkpt lat="47.62752" lon="-2.83004">
        <ele>21.1</ele>
        <time>2025-01-28T07:44:53Z</time>
      </trkpt>
      <trkpt lat="47.62752" lon="-2.83005">
        <ele>21.1</ele>
        <time>2025-01-28T07:44:54Z</time>
      </trkpt>
      <trkpt lat="47.62752" lon="-2.83005">
        <ele>21.1</ele>
        <time>2025-01-28T07:44:55Z</time>
      </trkpt>
      <trkpt lat="47.62752" lon="-2.83005">
        <ele>21.1</ele>
        <time>2025-01-28T07:44:56Z</time>
      </trkpt>
      <trkpt lat="47.62752" lon="-2.83006">
        <ele>21.1</ele>
        <time>2025-01-28T07:44:57Z</time>
      </trkpt>
      <trkpt lat="47.62752" lon="-2.83006">
        <ele>21.1</ele>
        <time>2025-01-28T07:44:58Z</time>
      </trkpt>
      <trkpt lat="47.62753" lon="-2.83005">
        <ele>21.1</ele>
        <time>2025-01-28T07:44:59Z</time>
      </trkpt>
      <trkpt lat="47.62753" lon="-2.83005">
        <ele>21.1</ele>
        <time>2025-01-28T07:45:00Z</time>
      </trkpt>
      <trkpt lat="47.62753" lon="-2.83005">
        <ele>21.1</ele>
        <time>2025-01-28T07:45:01Z</time>
      </trkpt>
      <trkpt lat="47.62752" lon="-2.83005">
        <ele>21.1</ele>
        <time>2025-01-28T07:45:02Z</time>
      </trkpt>
      <trkpt lat="47.62752" lon="-2.83005">
        <ele>21.1</ele>
        <time>2025-01-28T07:45:03Z</time>
      </trkpt>
      <trkpt lat="47.62752" lon="-2.83005">
        <ele>21.1</ele>
        <time>2025-01-28T07:45:04Z</time>
      </trkpt>
      <trkpt lat="47.62752" lon="-2.83005">
        <ele>21.1</ele>
        <time>2025-01-28T07:45:05Z</time>
      </trkpt>
      <trkpt lat="47.62752" lon="-2.83005">
        <ele>21.1</ele>
        <time>2025-01-28T07:45:06Z</time>
      </trkpt>
      <trkpt lat="47.62753" lon="-2.83005">
        <ele>21.1</ele>
        <time>2025-01-28T07:45:07Z</time>
      </trkpt>
      <trkpt lat="47.62753" lon="-2.83005">
        <ele>21.1</ele>
        <time>2025-01-28T07:45:08Z</time>
      </trkpt>
      <trkpt lat="47.62753" lon="-2.83005">
        <ele>21.1</ele>
        <time>2025-01-28T07:45:09Z</time>
      </trkpt>
      <trkpt lat="47.62753" lon="-2.83005">
        <ele>21.1</ele>
        <time>2025-01-28T07:45:10Z</time>
      </trkpt>
      <trkpt lat="47.62753" lon="-2.83005">
        <ele>21.1</ele>
        <time>2025-01-28T07:45:11Z</time>
      </trkpt>
      <trkpt lat="47.62753" lon="-2.83005">
        <ele>21.1</ele>
        <time>2025-01-28T07:45:12Z</time>
      </trkpt>
      <trkpt lat="47.62753" lon="-2.83005">
        <ele>21.1</ele>
        <time>2025-01-28T07:45:13Z</time>
      </trkpt>
      <trkpt lat="47.62753" lon="-2.83005">
        <ele>21.1</ele>
        <time>2025-01-28T07:45:14Z</time>
      </trkpt>
      <trkpt lat="47.62753" lon="-2.83005">
        <ele>21.1</ele>
        <time>2025-01-28T07:45:15Z</time>
      </trkpt>
      <trkpt lat="47.62753" lon="-2.83005">
        <ele>21.1</ele>
        <time>2025-01-28T07:45:16Z</time>
      </trkpt>
      <trkpt lat="47.62753" lon="-2.83005">
        <ele>21.1</ele>
        <time>2025-01-28T07:45:17Z</time>
      </trkpt>
      <trkpt lat="47.62753" lon="-2.83005">
        <ele>21.1</ele>
        <time>2025-01-28T07:45:18Z</time>
      </trkpt>
      <trkpt lat="47.62753" lon="-2.83005">
        <ele>21.1</ele>
        <time>2025-01-28T07:45:19Z</time>
      </trkpt>
      <trkpt lat="47.62753" lon="-2.83005">
        <ele>21.1</ele>
        <time>2025-01-28T07:45:20Z</time>
      </trkpt>
      <trkpt lat="47.62753" lon="-2.83005">
        <ele>21.1</ele>
        <time>2025-01-28T07:45:21Z</time>
      </trkpt>
      <trkpt lat="47.62753" lon="-2.83005">
        <ele>21.1</ele>
        <time>2025-01-28T07:45:22Z</time>
      </trkpt>
      <trkpt lat="47.62753" lon="-2.83005">
        <ele>21.1</ele>
        <time>2025-01-28T07:45:23Z</time>
      </trkpt>
      <trkpt lat="47.62753" lon="-2.83005">
        <ele>21.1</ele>
        <time>2025-01-28T07:45:24Z</time>
      </trkpt>
      <trkpt lat="47.62753" lon="-2.83005">
        <ele>21.1</ele>
        <time>2025-01-28T07:45:25Z</time>
      </trkpt>
      <trkpt lat="47.62753" lon="-2.83005">
        <ele>21.1</ele>
        <time>2025-01-28T07:45:26Z</time>
      </trkpt>
      <trkpt lat="47.62753" lon="-2.83005">
        <ele>21.1</ele>
        <time>2025-01-28T07:45:27Z</time>
      </trkpt>
      <trkpt lat="47.62753" lon="-2.83005">
        <ele>21.1</ele>
        <time>2025-01-28T07:45:28Z</time>
      </trkpt>
      <trkpt lat="47.62753" lon="-2.83005">
        <ele>21.1</ele>
        <time>2025-01-28T07:45:29Z</time>
      </trkpt>
      <trkpt lat="47.62753" lon="-2.83005">
        <ele>21.1</ele>
        <time>2025-01-28T07:45:30Z</time>
      </trkpt>
      <trkpt lat="47.62753" lon="-2.83005">
        <ele>21.1</ele>
        <time>2025-01-28T07:45:31Z</time>
      </trkpt>
      <trkpt lat="47.62753" lon="-2.83005">
        <ele>21.1</ele>
        <time>2025-01-28T07:45:32Z</time>
      </trkpt>
      <trkpt lat="47.62753" lon="-2.83005">
        <ele>21.1</ele>
        <time>2025-01-28T07:45:33Z</time>
      </trkpt>
      <trkpt lat="47.62753" lon="-2.83005">
        <ele>21.1</ele>
        <time>2025-01-28T07:45:34Z</time>
      </trkpt>
      <trkpt lat="47.62753" lon="-2.83005">
        <ele>21.1</ele>
        <time>2025-01-28T07:45:35Z</time>
      </trkpt>
      <trkpt lat="47.62753" lon="-2.83005">
        <ele>21.1</ele>
        <time>2025-01-28T07:45:36Z</time>
      </trkpt>
      <trkpt lat="47.62753" lon="-2.83005">
        <ele>21.1</ele>
        <time>2025-01-28T07:45:37Z</time>
      </trkpt>
      <trkpt lat="47.62753" lon="-2.83005">
        <ele>21.1</ele>
        <time>2025-01-28T07:45:38Z</time>
      </trkpt>
      <trkpt lat="47.62753" lon="-2.83005">
        <ele>21.1</ele>
        <time>2025-01-28T07:45:39Z</time>
      </trkpt>
      <trkpt lat="47.62753" lon="-2.83005">
        <ele>21.1</ele>
        <time>2025-01-28T07:45:40Z</time>
      </trkpt>
      <trkpt lat="47.62752" lon="-2.83005">
        <ele>21.1</ele>
        <time>2025-01-28T07:45:41Z</time>
      </trkpt>
      <trkpt lat="47.62752" lon="-2.83006">
        <ele>21.1</ele>
        <time>2025-01-28T07:45:42Z</time>
      </trkpt>
      <trkpt lat="47.62752" lon="-2.83006">
        <ele>21.1</ele>
        <time>2025-01-28T07:45:43Z</time>
      </trkpt>
      <trkpt lat="47.62752" lon="-2.83006">
        <ele>21.1</ele>
        <time>2025-01-28T07:45:44Z</time>
      </trkpt>
      <trkpt lat="47.62752" lon="-2.83006">
        <ele>21.1</ele>
        <time>2025-01-28T07:45:45Z</time>
      </trkpt>
      <trkpt lat="47.62752" lon="-2.83006">
        <ele>21.1</ele>
        <time>2025-01-28T07:45:46Z</time>
      </trkpt>
      <trkpt lat="47.62753" lon="-2.83007">
        <ele>21.1</ele>
        <time>2025-01-28T07:45:47Z</time>
      </trkpt>
      <trkpt lat="47.62754" lon="-2.83007">
        <ele>21.1</ele>
        <time>2025-01-28T07:45:48Z</time>
      </trkpt>
      <trkpt lat="47.62755" lon="-2.83008">
        <ele>21.2</ele>
        <time>2025-01-28T07:45:49Z</time>
      </trkpt>
      <trkpt lat="47.62757" lon="-2.83009">
        <ele>21.2</ele>
        <time>2025-01-28T07:45:50Z</time>
      </trkpt>
      <trkpt lat="47.62758" lon="-2.83011">
        <ele>21.3</ele>
        <time>2025-01-28T07:45:51Z</time>
      </trkpt>
      <trkpt lat="47.62759" lon="-2.83012">
        <ele>21.3</ele>
        <time>2025-01-28T07:45:52Z</time>
      </trkpt>
      <trkpt lat="47.6276" lon="-2.83013">
        <ele>21.4</ele>
        <time>2025-01-28T07:45:53Z</time>
      </trkpt>
      <trkpt lat="47.62761" lon="-2.83013">
        <ele>21.4</ele>
        <time>2025-01-28T07:45:54Z</time>
      </trkpt>
      <trkpt lat="47.62762" lon="-2.83014">
        <ele>21.4</ele>
        <time>2025-01-28T07:45:55Z</time>
      </trkpt>
      <trkpt lat="47.62763" lon="-2.83015">
        <ele>21.5</ele>
        <time>2025-01-28T07:45:56Z</time>
      </trkpt>
      <trkpt lat="47.62764" lon="-2.83016">
        <ele>21.5</ele>
        <time>2025-01-28T07:45:57Z</time>
      </trkpt>
      <trkpt lat="47.62765" lon="-2.83017">
        <ele>21.5</ele>
        <time>2025-01-28T07:45:58Z</time>
      </trkpt>
      <trkpt lat="47.62766" lon="-2.83017">
        <ele>21.6</ele>
        <time>2025-01-28T07:45:59Z</time>
      </trkpt>
      <trkpt lat="47.62767" lon="-2.83017">
        <ele>21.6</ele>
        <time>2025-01-28T07:46:00Z</time>
      </trkpt>
      <trkpt lat="47.62768" lon="-2.83015">
        <ele>21.6</ele>
        <time>2025-01-28T07:46:01Z</time>
      </trkpt>
      <trkpt lat="47.62768" lon="-2.83014">
        <ele>21.7</ele>
        <time>2025-01-28T07:46:02Z</time>
      </trkpt>
      <trkpt lat="47.62768" lon="-2.83011">
        <ele>21.7</ele>
        <time>2025-01-28T07:46:03Z</time>
      </trkpt>
      <trkpt lat="47.62769" lon="-2.8301">
        <ele>21.7</ele>
        <time>2025-01-28T07:46:04Z</time>
      </trkpt>
      <trkpt lat="47.6277" lon="-2.83008">
        <ele>21.7</ele>
        <time>2025-01-28T07:46:05Z</time>
      </trkpt>
      <trkpt lat="47.62771" lon="-2.83007">
        <ele>21.7</ele>
        <time>2025-01-28T07:46:06Z</time>
      </trkpt>
      <trkpt lat="47.62771" lon="-2.83004">
        <ele>21.8</ele>
        <time>2025-01-28T07:46:07Z</time>
      </trkpt>
      <trkpt lat="47.62771" lon="-2.83003">
        <ele>21.8</ele>
        <time>2025-01-28T07:46:08Z</time>
      </trkpt>
      <trkpt lat="47.62772" lon="-2.83001">
        <ele>21.8</ele>
        <time>2025-01-28T07:46:09Z</time>
      </trkpt>
      <trkpt lat="47.62772" lon="-2.83">
        <ele>21.8</ele>
        <time>2025-01-28T07:46:10Z</time>
      </trkpt>
      <trkpt lat="47.62772" lon="-2.82998">
        <ele>21.8</ele>
        <time>2025-01-28T07:46:11Z</time>
      </trkpt>
      <trkpt lat="47.62772" lon="-2.82996">
        <ele>21.8</ele>
        <time>2025-01-28T07:46:12Z</time>
      </trkpt>
      <trkpt lat="47.62773" lon="-2.82995">
        <ele>21.8</ele>
        <time>2025-01-28T07:46:13Z</time>
      </trkpt>
      <trkpt lat="47.62773" lon="-2.82993">
        <ele>21.8</ele>
        <time>2025-01-28T07:46:14Z</time>
      </trkpt>
      <trkpt lat="47.62774" lon="-2.8299">
        <ele>21.8</ele>
        <time>2025-01-28T07:46:15Z</time>
      </trkpt>
      <trkpt lat="47.62773" lon="-2.82988">
        <ele>21.8</ele>
        <time>2025-01-28T07:46:16Z</time>
      </trkpt>
      <trkpt lat="47.62773" lon="-2.82986">
        <ele>21.7</ele>
        <time>2025-01-28T07:46:17Z</time>
      </trkpt>
      <trkpt lat="47.62773" lon="-2.82983">
        <ele>21.7</ele>
        <time>2025-01-28T07:46:18Z</time>
      </trkpt>
      <trkpt lat="47.62773" lon="-2.82981">
        <ele>21.7</ele>
        <time>2025-01-28T07:46:19Z</time>
      </trkpt>
      <trkpt lat="47.62773" lon="-2.82979">
        <ele>21.7</ele>
        <time>2025-01-28T07:46:20Z</time>
      </trkpt>
      <trkpt lat="47.62773" lon="-2.82977">
        <ele>21.7</ele>
        <time>2025-01-28T07:46:21Z</time>
      </trkpt>
      <trkpt lat="47.62773" lon="-2.82974">
        <ele>21.7</ele>
        <time>2025-01-28T07:46:22Z</time>
      </trkpt>
      <trkpt lat="47.62773" lon="-2.82972">
        <ele>21.7</ele>
        <time>2025-01-28T07:46:23Z</time>
      </trkpt>
      <trkpt lat="47.62774" lon="-2.8297">
        <ele>21.7</ele>
        <time>2025-01-28T07:46:24Z</time>
      </trkpt>
      <trkpt lat="47.62774" lon="-2.82969">
        <ele>21.7</ele>
        <time>2025-01-28T07:46:25Z</time>
      </trkpt>
      <trkpt lat="47.62774" lon="-2.8297">
        <ele>21.7</ele>
        <time>2025-01-28T07:46:26Z</time>
      </trkpt>
      <trkpt lat="47.62774" lon="-2.82971">
        <ele>21.7</ele>
        <time>2025-01-28T07:46:27Z</time>
      </trkpt>
      <trkpt lat="47.62775" lon="-2.82969">
        <ele>21.8</ele>
        <time>2025-01-28T07:46:28Z</time>
      </trkpt>
      <trkpt lat="47.62775" lon="-2.82968">
        <ele>21.8</ele>
        <time>2025-01-28T07:46:29Z</time>
      </trkpt>
      <trkpt lat="47.62776" lon="-2.82967">
        <ele>21.8</ele>
        <time>2025-01-28T07:46:30Z</time>
      </trkpt>
      <trkpt lat="47.62776" lon="-2.82965">
        <ele>21.9</ele>
        <time>2025-01-28T07:46:31Z</time>
      </trkpt>
      <trkpt lat="47.62777" lon="-2.82964">
        <ele>21.9</ele>
        <time>2025-01-28T07:46:32Z</time>
      </trkpt>
      <trkpt lat="47.62778" lon="-2.82965">
        <ele>22</ele>
        <time>2025-01-28T07:46:33Z</time>
      </trkpt>
      <trkpt lat="47.62779" lon="-2.82965">
        <ele>22.1</ele>
        <time>2025-01-28T07:46:34Z</time>
      </trkpt>
      <trkpt lat="47.6278" lon="-2.82964">
        <ele>22.2</ele>
        <time>2025-01-28T07:46:35Z</time>
      </trkpt>
      <trkpt lat="47.62781" lon="-2.82964">
        <ele>22.3</ele>
        <time>2025-01-28T07:46:36Z</time>
      </trkpt>
      <trkpt lat="47.62782" lon="-2.82964">
        <ele>22.4</ele>
        <time>2025-01-28T07:46:37Z</time>
      </trkpt>
      <trkpt lat="47.62783" lon="-2.82964">
        <ele>22.4</ele>
        <time>2025-01-28T07:46:38Z</time>
      </trkpt>
      <trkpt lat="47.62784" lon="-2.82964">
        <ele>22.5</ele>
        <time>2025-01-28T07:46:39Z</time>
      </trkpt>
      <trkpt lat="47.62785" lon="-2.82964">
        <ele>22.6</ele>
        <time>2025-01-28T07:46:40Z</time>
      </trkpt>
      <trkpt lat="47.62786" lon="-2.82963">
        <ele>22.7</ele>
        <time>2025-01-28T07:46:41Z</time>
      </trkpt>
      <trkpt lat="47.62787" lon="-2.82963">
        <ele>22.8</ele>
        <time>2025-01-28T07:46:42Z</time>
      </trkpt>
      <trkpt lat="47.62788" lon="-2.82963">
        <ele>22.9</ele>
        <time>2025-01-28T07:46:43Z</time>
      </trkpt>
      <trkpt lat="47.62789" lon="-2.82962">
        <ele>22.9</ele>
        <time>2025-01-28T07:46:44Z</time>
      </trkpt>
      <trkpt lat="47.6279" lon="-2.82962">
        <ele>23</ele>
        <time>2025-01-28T07:46:45Z</time>
      </trkpt>
      <trkpt lat="47.62791" lon="-2.82962">
        <ele>23.1</ele>
        <time>2025-01-28T07:46:46Z</time>
      </trkpt>
      <trkpt lat="47.62793" lon="-2.82962">
        <ele>23.2</ele>
        <time>2025-01-28T07:46:47Z</time>
      </trkpt>
      <trkpt lat="47.62794" lon="-2.82962">
        <ele>23.3</ele>
        <time>2025-01-28T07:46:48Z</time>
      </trkpt>
      <trkpt lat="47.62795" lon="-2.82961">
        <ele>23.4</ele>
        <time>2025-01-28T07:46:49Z</time>
      </trkpt>
      <trkpt lat="47.62796" lon="-2.82961">
        <ele>23.4</ele>
        <time>2025-01-28T07:46:50Z</time>
      </trkpt>
      <trkpt lat="47.62797" lon="-2.82961">
        <ele>23.5</ele>
        <time>2025-01-28T07:46:51Z</time>
      </trkpt>
      <trkpt lat="47.62798" lon="-2.82961">
        <ele>23.5</ele>
        <time>2025-01-28T07:46:52Z</time>
      </trkpt>
      <trkpt lat="47.62799" lon="-2.8296">
        <ele>23.6</ele>
        <time>2025-01-28T07:46:53Z</time>
      </trkpt>
      <trkpt lat="47.628" lon="-2.8296">
        <ele>23.7</ele>
        <time>2025-01-28T07:46:54Z</time>
      </trkpt>
      <trkpt lat="47.62801" lon="-2.8296">
        <ele>23.8</ele>
        <time>2025-01-28T07:46:55Z</time>
      </trkpt>
      <trkpt lat="47.62802" lon="-2.82959">
        <ele>23.8</ele>
        <time>2025-01-28T07:46:56Z</time>
      </trkpt>
      <trkpt lat="47.62803" lon="-2.82958">
        <ele>23.8</ele>
        <time>2025-01-28T07:46:57Z</time>
      </trkpt>
      <trkpt lat="47.62804" lon="-2.82958">
        <ele>23.9</ele>
        <time>2025-01-28T07:46:58Z</time>
      </trkpt>
      <trkpt lat="47.62805" lon="-2.82957">
        <ele>23.9</ele>
        <time>2025-01-28T07:46:59Z</time>
      </trkpt>
      <trkpt lat="47.62806" lon="-2.82956">
        <ele>23.9</ele>
        <time>2025-01-28T07:47:00Z</time>
      </trkpt>
      <trkpt lat="47.62807" lon="-2.82956">
        <ele>24</ele>
        <time>2025-01-28T07:47:01Z</time>
      </trkpt>
      <trkpt lat="47.62808" lon="-2.82956">
        <ele>24</ele>
        <time>2025-01-28T07:47:02Z</time>
      </trkpt>
      <trkpt lat="47.62809" lon="-2.82955">
        <ele>24.1</ele>
        <time>2025-01-28T07:47:03Z</time>
      </trkpt>
      <trkpt lat="47.62811" lon="-2.82955">
        <ele>24.1</ele>
        <time>2025-01-28T07:47:04Z</time>
      </trkpt>
      <trkpt lat="47.62812" lon="-2.82955">
        <ele>24.3</ele>
        <time>2025-01-28T07:47:05Z</time>
      </trkpt>
      <trkpt lat="47.62813" lon="-2.82955">
        <ele>24.3</ele>
        <time>2025-01-28T07:47:06Z</time>
      </trkpt>
      <trkpt lat="47.62814" lon="-2.82955">
        <ele>24.4</ele>
        <time>2025-01-28T07:47:07Z</time>
      </trkpt>
      <trkpt lat="47.62815" lon="-2.82954">
        <ele>24.4</ele>
        <time>2025-01-28T07:47:08Z</time>
      </trkpt>
      <trkpt lat="47.62817" lon="-2.82954">
        <ele>24.5</ele>
        <time>2025-01-28T07:47:09Z</time>
      </trkpt>
      <trkpt lat="47.62818" lon="-2.82954">
        <ele>24.6</ele>
        <time>2025-01-28T07:47:10Z</time>
      </trkpt>
      <trkpt lat="47.62819" lon="-2.82954">
        <ele>24.6</ele>
        <time>2025-01-28T07:47:11Z</time>
      </trkpt>
      <trkpt lat="47.6282" lon="-2.82954">
        <ele>24.7</ele>
        <time>2025-01-28T07:47:12Z</time>
      </trkpt>
      <trkpt lat="47.62821" lon="-2.82953">
        <ele>24.7</ele>
        <time>2025-01-28T07:47:13Z</time>
      </trkpt>
      <trkpt lat="47.62822" lon="-2.82953">
        <ele>24.8</ele>
        <time>2025-01-28T07:47:14Z</time>
      </trkpt>
      <trkpt lat="47.62824" lon="-2.82953">
        <ele>24.9</ele>
        <time>2025-01-28T07:47:15Z</time>
      </trkpt>
      <trkpt lat="47.62825" lon="-2.82952">
        <ele>24.9</ele>
        <time>2025-01-28T07:47:16Z</time>
      </trkpt>
      <trkpt lat="47.62826" lon="-2.82952">
        <ele>25</ele>
        <time>2025-01-28T07:47:17Z</time>
      </trkpt>
      <trkpt lat="47.62827" lon="-2.82951">
        <ele>25</ele>
        <time>2025-01-28T07:47:18Z</time>
      </trkpt>
      <trkpt lat="47.62828" lon="-2.8295">
        <ele>25</ele>
        <time>2025-01-28T07:47:19Z</time>
      </trkpt>
      <trkpt lat="47.62829" lon="-2.8295">
        <ele>25</ele>
        <time>2025-01-28T07:47:20Z</time>
      </trkpt>
      <trkpt lat="47.6283" lon="-2.8295">
        <ele>25.2</ele>
        <time>2025-01-28T07:47:21Z</time>
      </trkpt>
      <trkpt lat="47.62832" lon="-2.8295">
        <ele>25.3</ele>
        <time>2025-01-28T07:47:22Z</time>
      </trkpt>
      <trkpt lat="47.62833" lon="-2.8295">
        <ele>25.3</ele>
        <time>2025-01-28T07:47:23Z</time>
      </trkpt>
      <trkpt lat="47.62834" lon="-2.8295">
        <ele>25.4</ele>
        <time>2025-01-28T07:47:24Z</time>
      </trkpt>
      <trkpt lat="47.62835" lon="-2.82949">
        <ele>25.5</ele>
        <time>2025-01-28T07:47:25Z</time>
      </trkpt>
      <trkpt lat="47.62836" lon="-2.82948">
        <ele>25.6</ele>
        <time>2025-01-28T07:47:26Z</time>
      </trkpt>
      <trkpt lat="47.62838" lon="-2.82948">
        <ele>25.7</ele>
        <time>2025-01-28T07:47:27Z</time>
      </trkpt>
      <trkpt lat="47.62839" lon="-2.82948">
        <ele>25.8</ele>
        <time>2025-01-28T07:47:28Z</time>
      </trkpt>
      <trkpt lat="47.6284" lon="-2.82947">
        <ele>25.9</ele>
        <time>2025-01-28T07:47:29Z</time>
      </trkpt>
      <trkpt lat="47.62841" lon="-2.82947">
        <ele>26</ele>
        <time>2025-01-28T07:47:30Z</time>
      </trkpt>
      <trkpt lat="47.62842" lon="-2.82946">
        <ele>26</ele>
        <time>2025-01-28T07:47:31Z</time>
      </trkpt>
      <trkpt lat="47.62843" lon="-2.82946">
        <ele>26.2</ele>
        <time>2025-01-28T07:47:32Z</time>
      </trkpt>
      <trkpt lat="47.62844" lon="-2.82946">
        <ele>26.3</ele>
        <time>2025-01-28T07:47:33Z</time>
      </trkpt>
      <trkpt lat="47.62846" lon="-2.82946">
        <ele>26.4</ele>
        <time>2025-01-28T07:47:34Z</time>
      </trkpt>
      <trkpt lat="47.62847" lon="-2.82945">
        <ele>26.5</ele>
        <time>2025-01-28T07:47:35Z</time>
      </trkpt>
      <trkpt lat="47.62849" lon="-2.82945">
        <ele>26.7</ele>
        <time>2025-01-28T07:47:36Z</time>
      </trkpt>
      <trkpt lat="47.6285" lon="-2.82944">
        <ele>26.8</ele>
        <time>2025-01-28T07:47:37Z</time>
      </trkpt>
      <trkpt lat="47.62851" lon="-2.82944">
        <ele>26.9</ele>
        <time>2025-01-28T07:47:38Z</time>
      </trkpt>
      <trkpt lat="47.62853" lon="-2.82944">
        <ele>27.1</ele>
        <time>2025-01-28T07:47:39Z</time>
      </trkpt>
      <trkpt lat="47.62854" lon="-2.82943">
        <ele>27.2</ele>
        <time>2025-01-28T07:47:40Z</time>
      </trkpt>
      <trkpt lat="47.62855" lon="-2.82943">
        <ele>27.4</ele>
        <time>2025-01-28T07:47:41Z</time>
      </trkpt>
      <trkpt lat="47.62856" lon="-2.82944">
        <ele>27.5</ele>
        <time>2025-01-28T07:47:42Z</time>
      </trkpt>
      <trkpt lat="47.62855" lon="-2.82944">
        <ele>27.4</ele>
        <time>2025-01-28T07:47:43Z</time>
      </trkpt>
      <trkpt lat="47.62855" lon="-2.82944">
        <ele>27.4</ele>
        <time>2025-01-28T07:47:44Z</time>
      </trkpt>
      <trkpt lat="47.62856" lon="-2.82943">
        <ele>27.5</ele>
        <time>2025-01-28T07:47:45Z</time>
      </trkpt>
      <trkpt lat="47.62858" lon="-2.82942">
        <ele>27.6</ele>
        <time>2025-01-28T07:47:46Z</time>
      </trkpt>
      <trkpt lat="47.62859" lon="-2.82941">
        <ele>27.7</ele>
        <time>2025-01-28T07:47:47Z</time>
      </trkpt>
      <trkpt lat="47.6286" lon="-2.82941">
        <ele>27.9</ele>
        <time>2025-01-28T07:47:48Z</time>
      </trkpt>
      <trkpt lat="47.62861" lon="-2.82941">
        <ele>28</ele>
        <time>2025-01-28T07:47:49Z</time>
      </trkpt>
      <trkpt lat="47.62862" lon="-2.8294">
        <ele>28.1</ele>
        <time>2025-01-28T07:47:50Z</time>
      </trkpt>
      <trkpt lat="47.62863" lon="-2.8294">
        <ele>28.1</ele>
        <time>2025-01-28T07:47:51Z</time>
      </trkpt>
      <trkpt lat="47.62864" lon="-2.8294">
        <ele>28.2</ele>
        <time>2025-01-28T07:47:52Z</time>
      </trkpt>
      <trkpt lat="47.62865" lon="-2.82939">
        <ele>28.3</ele>
        <time>2025-01-28T07:47:53Z</time>
      </trkpt>
      <trkpt lat="47.62867" lon="-2.82938">
        <ele>28.4</ele>
        <time>2025-01-28T07:47:54Z</time>
      </trkpt>
      <trkpt lat="47.62868" lon="-2.82938">
        <ele>28.4</ele>
        <time>2025-01-28T07:47:55Z</time>
      </trkpt>
      <trkpt lat="47.62869" lon="-2.82937">
        <ele>28.5</ele>
        <time>2025-01-28T07:47:56Z</time>
      </trkpt>
      <trkpt lat="47.62871" lon="-2.82936">
        <ele>28.6</ele>
        <time>2025-01-28T07:47:57Z</time>
      </trkpt>
      <trkpt lat="47.62872" lon="-2.82936">
        <ele>28.6</ele>
        <time>2025-01-28T07:47:58Z</time>
      </trkpt>
      <trkpt lat="47.62873" lon="-2.82935">
        <ele>28.7</ele>
        <time>2025-01-28T07:47:59Z</time>
      </trkpt>
      <trkpt lat="47.62874" lon="-2.82934">
        <ele>28.8</ele>
        <time>2025-01-28T07:48:00Z</time>
      </trkpt>
      <trkpt lat="47.62876" lon="-2.82933">
        <ele>28.8</ele>
        <time>2025-01-28T07:48:01Z</time>
      </trkpt>
      <trkpt lat="47.62877" lon="-2.82933">
        <ele>28.9</ele>
        <time>2025-01-28T07:48:02Z</time>
      </trkpt>
      <trkpt lat="47.62878" lon="-2.82932">
        <ele>28.9</ele>
        <time>2025-01-28T07:48:03Z</time>
      </trkpt>
      <trkpt lat="47.62879" lon="-2.82931">
        <ele>29</ele>
        <time>2025-01-28T07:48:04Z</time>
      </trkpt>
      <trkpt lat="47.6288" lon="-2.8293">
        <ele>29</ele>
        <time>2025-01-28T07:48:05Z</time>
      </trkpt>
      <trkpt lat="47.62881" lon="-2.82929">
        <ele>29.1</ele>
        <time>2025-01-28T07:48:06Z</time>
      </trkpt>
      <trkpt lat="47.62883" lon="-2.82929">
        <ele>29.1</ele>
        <time>2025-01-28T07:48:07Z</time>
      </trkpt>
      <trkpt lat="47.62884" lon="-2.82928">
        <ele>29.1</ele>
        <time>2025-01-28T07:48:08Z</time>
      </trkpt>
      <trkpt lat="47.62885" lon="-2.82927">
        <ele>29.2</ele>
        <time>2025-01-28T07:48:09Z</time>
      </trkpt>
      <trkpt lat="47.62886" lon="-2.82926">
        <ele>29.2</ele>
        <time>2025-01-28T07:48:10Z</time>
      </trkpt>
      <trkpt lat="47.62887" lon="-2.82925">
        <ele>29.2</ele>
        <time>2025-01-28T07:48:11Z</time>
      </trkpt>
      <trkpt lat="47.62888" lon="-2.82925">
        <ele>29.3</ele>
        <time>2025-01-28T07:48:12Z</time>
      </trkpt>
      <trkpt lat="47.6289" lon="-2.82924">
        <ele>29.3</ele>
        <time>2025-01-28T07:48:13Z</time>
      </trkpt>
      <trkpt lat="47.62891" lon="-2.82923">
        <ele>29.4</ele>
        <time>2025-01-28T07:48:14Z</time>
      </trkpt>
      <trkpt lat="47.62892" lon="-2.82923">
        <ele>29.4</ele>
        <time>2025-01-28T07:48:15Z</time>
      </trkpt>
      <trkpt lat="47.62893" lon="-2.82922">
        <ele>29.5</ele>
        <time>2025-01-28T07:48:16Z</time>
      </trkpt>
      <trkpt lat="47.62894" lon="-2.82921">
        <ele>29.5</ele>
        <time>2025-01-28T07:48:17Z</time>
      </trkpt>
      <trkpt lat="47.62896" lon="-2.8292">
        <ele>29.6</ele>
        <time>2025-01-28T07:48:18Z</time>
      </trkpt>
      <trkpt lat="47.62897" lon="-2.8292">
        <ele>29.7</ele>
        <time>2025-01-28T07:48:19Z</time>
      </trkpt>
      <trkpt lat="47.62898" lon="-2.82919">
        <ele>29.7</ele>
        <time>2025-01-28T07:48:20Z</time>
      </trkpt>
      <trkpt lat="47.62899" lon="-2.82918">
        <ele>29.7</ele>
        <time>2025-01-28T07:48:21Z</time>
      </trkpt>
      <trkpt lat="47.629" lon="-2.82917">
        <ele>29.8</ele>
        <time>2025-01-28T07:48:22Z</time>
      </trkpt>
      <trkpt lat="47.62901" lon="-2.82916">
        <ele>29.9</ele>
        <time>2025-01-28T07:48:23Z</time>
      </trkpt>
      <trkpt lat="47.62902" lon="-2.82915">
        <ele>30</ele>
        <time>2025-01-28T07:48:24Z</time>
      </trkpt>
      <trkpt lat="47.62903" lon="-2.82915">
        <ele>30.1</ele>
        <time>2025-01-28T07:48:25Z</time>
      </trkpt>
      <trkpt lat="47.62904" lon="-2.82914">
        <ele>30.2</ele>
        <time>2025-01-28T07:48:26Z</time>
      </trkpt>
      <trkpt lat="47.62906" lon="-2.82914">
        <ele>30.3</ele>
        <time>2025-01-28T07:48:27Z</time>
      </trkpt>
      <trkpt lat="47.62907" lon="-2.82913">
        <ele>30.4</ele>
        <time>2025-01-28T07:48:28Z</time>
      </trkpt>
      <trkpt lat="47.62908" lon="-2.82912">
        <ele>30.5</ele>
        <time>2025-01-28T07:48:29Z</time>
      </trkpt>
      <trkpt lat="47.62909" lon="-2.82911">
        <ele>30.6</ele>
        <time>2025-01-28T07:48:30Z</time>
      </trkpt>
      <trkpt lat="47.6291" lon="-2.8291">
        <ele>30.7</ele>
        <time>2025-01-28T07:48:31Z</time>
      </trkpt>
      <trkpt lat="47.62911" lon="-2.8291">
        <ele>30.8</ele>
        <time>2025-01-28T07:48:32Z</time>
      </trkpt>
      <trkpt lat="47.62912" lon="-2.82909">
        <ele>30.9</ele>
        <time>2025-01-28T07:48:33Z</time>
      </trkpt>
      <trkpt lat="47.62914" lon="-2.82909">
        <ele>31.1</ele>
        <time>2025-01-28T07:48:34Z</time>
      </trkpt>
      <trkpt lat="47.62915" lon="-2.82908">
        <ele>31.2</ele>
        <time>2025-01-28T07:48:35Z</time>
      </trkpt>
      <trkpt lat="47.62916" lon="-2.82908">
        <ele>31.3</ele>
        <time>2025-01-28T07:48:36Z</time>
      </trkpt>
      <trkpt lat="47.62917" lon="-2.82908">
        <ele>31.4</ele>
        <time>2025-01-28T07:48:37Z</time>
      </trkpt>
      <trkpt lat="47.62918" lon="-2.82907">
        <ele>31.5</ele>
        <time>2025-01-28T07:48:38Z</time>
      </trkpt>
      <trkpt lat="47.6292" lon="-2.82907">
        <ele>31.6</ele>
        <time>2025-01-28T07:48:39Z</time>
      </trkpt>
      <trkpt lat="47.62921" lon="-2.82907">
        <ele>31.7</ele>
        <time>2025-01-28T07:48:40Z</time>
      </trkpt>
      <trkpt lat="47.62922" lon="-2.82906">
        <ele>31.8</ele>
        <time>2025-01-28T07:48:41Z</time>
      </trkpt>
      <trkpt lat="47.62923" lon="-2.82905">
        <ele>31.9</ele>
        <time>2025-01-28T07:48:42Z</time>
      </trkpt>
      <trkpt lat="47.62924" lon="-2.82904">
        <ele>32</ele>
        <time>2025-01-28T07:48:43Z</time>
      </trkpt>
      <trkpt lat="47.62925" lon="-2.82903">
        <ele>32.1</ele>
        <time>2025-01-28T07:48:44Z</time>
      </trkpt>
      <trkpt lat="47.62926" lon="-2.82902">
        <ele>32.2</ele>
        <time>2025-01-28T07:48:45Z</time>
      </trkpt>
      <trkpt lat="47.62927" lon="-2.82901">
        <ele>32.3</ele>
        <time>2025-01-28T07:48:46Z</time>
      </trkpt>
      <trkpt lat="47.62929" lon="-2.829">
        <ele>32.4</ele>
        <time>2025-01-28T07:48:47Z</time>
      </trkpt>
      <trkpt lat="47.62929" lon="-2.82899">
        <ele>32.4</ele>
        <time>2025-01-28T07:48:48Z</time>
      </trkpt>
      <trkpt lat="47.6293" lon="-2.82898">
        <ele>32.5</ele>
        <time>2025-01-28T07:48:49Z</time>
      </trkpt>
      <trkpt lat="47.62932" lon="-2.82897">
        <ele>32.6</ele>
        <time>2025-01-28T07:48:50Z</time>
      </trkpt>
      <trkpt lat="47.62933" lon="-2.82896">
        <ele>32.6</ele>
        <time>2025-01-28T07:48:51Z</time>
      </trkpt>
      <trkpt lat="47.62934" lon="-2.82895">
        <ele>32.7</ele>
        <time>2025-01-28T07:48:52Z</time>
      </trkpt>
      <trkpt lat="47.62935" lon="-2.82894">
        <ele>32.7</ele>
        <time>2025-01-28T07:48:53Z</time>
      </trkpt>
      <trkpt lat="47.62936" lon="-2.82892">
        <ele>32.7</ele>
        <time>2025-01-28T07:48:54Z</time>
      </trkpt>
      <trkpt lat="47.62936" lon="-2.82891">
        <ele>32.7</ele>
        <time>2025-01-28T07:48:55Z</time>
      </trkpt>
      <trkpt lat="47.62937" lon="-2.8289">
        <ele>32.7</ele>
        <time>2025-01-28T07:48:56Z</time>
      </trkpt>
      <trkpt lat="47.62938" lon="-2.82888">
        <ele>32.8</ele>
        <time>2025-01-28T07:48:57Z</time>
      </trkpt>
      <trkpt lat="47.6294" lon="-2.82888">
        <ele>32.9</ele>
        <time>2025-01-28T07:48:58Z</time>
      </trkpt>
      <trkpt lat="47.62941" lon="-2.82887">
        <ele>33</ele>
        <time>2025-01-28T07:48:59Z</time>
      </trkpt>
      <trkpt lat="47.62942" lon="-2.82886">
        <ele>33.1</ele>
        <time>2025-01-28T07:49:00Z</time>
      </trkpt>
      <trkpt lat="47.62943" lon="-2.82885">
        <ele>33.2</ele>
        <time>2025-01-28T07:49:01Z</time>
      </trkpt>
      <trkpt lat="47.62944" lon="-2.82885">
        <ele>33.3</ele>
        <time>2025-01-28T07:49:02Z</time>
      </trkpt>
      <trkpt lat="47.62946" lon="-2.82884">
        <ele>33.5</ele>
        <time>2025-01-28T07:49:03Z</time>
      </trkpt>
      <trkpt lat="47.62947" lon="-2.82882">
        <ele>33.7</ele>
        <time>2025-01-28T07:49:04Z</time>
      </trkpt>
      <trkpt lat="47.62948" lon="-2.82881">
        <ele>33.9</ele>
        <time>2025-01-28T07:49:05Z</time>
      </trkpt>
      <trkpt lat="47.62949" lon="-2.8288">
        <ele>34.1</ele>
        <time>2025-01-28T07:49:06Z</time>
      </trkpt>
      <trkpt lat="47.6295" lon="-2.82879">
        <ele>34.3</ele>
        <time>2025-01-28T07:49:07Z</time>
      </trkpt>
      <trkpt lat="47.62951" lon="-2.82877">
        <ele>34.4</ele>
        <time>2025-01-28T07:49:08Z</time>
      </trkpt>
      <trkpt lat="47.62952" lon="-2.82876">
        <ele>34.6</ele>
        <time>2025-01-28T07:49:09Z</time>
      </trkpt>
      <trkpt lat="47.62953" lon="-2.82875">
        <ele>34.7</ele>
        <time>2025-01-28T07:49:10Z</time>
      </trkpt>
      <trkpt lat="47.62954" lon="-2.82874">
        <ele>34.9</ele>
        <time>2025-01-28T07:49:11Z</time>
      </trkpt>
      <trkpt lat="47.62955" lon="-2.82873">
        <ele>35</ele>
        <time>2025-01-28T07:49:12Z</time>
      </trkpt>
      <trkpt lat="47.62956" lon="-2.82872">
        <ele>35.1</ele>
        <time>2025-01-28T07:49:13Z</time>
      </trkpt>
      <trkpt lat="47.62957" lon="-2.82871">
        <ele>35.2</ele>
        <time>2025-01-28T07:49:14Z</time>
      </trkpt>
      <trkpt lat="47.62958" lon="-2.8287">
        <ele>35.3</ele>
        <time>2025-01-28T07:49:15Z</time>
      </trkpt>
      <trkpt lat="47.62959" lon="-2.82869">
        <ele>35.4</ele>
        <time>2025-01-28T07:49:16Z</time>
      </trkpt>
      <trkpt lat="47.6296" lon="-2.82868">
        <ele>35.5</ele>
        <time>2025-01-28T07:49:17Z</time>
      </trkpt>
      <trkpt lat="47.62961" lon="-2.82867">
        <ele>35.5</ele>
        <time>2025-01-28T07:49:18Z</time>
      </trkpt>
      <trkpt lat="47.62962" lon="-2.82866">
        <ele>35.6</ele>
        <time>2025-01-28T07:49:19Z</time>
      </trkpt>
      <trkpt lat="47.62963" lon="-2.82866">
        <ele>35.7</ele>
        <time>2025-01-28T07:49:20Z</time>
      </trkpt>
      <trkpt lat="47.62964" lon="-2.82865">
        <ele>35.7</ele>
        <time>2025-01-28T07:49:21Z</time>
      </trkpt>
      <trkpt lat="47.62965" lon="-2.82864">
        <ele>35.8</ele>
        <time>2025-01-28T07:49:22Z</time>
      </trkpt>
      <trkpt lat="47.62966" lon="-2.82863">
        <ele>35.8</ele>
        <time>2025-01-28T07:49:23Z</time>
      </trkpt>
      <trkpt lat="47.62967" lon="-2.82862">
        <ele>35.8</ele>
        <time>2025-01-28T07:49:24Z</time>
      </trkpt>
      <trkpt lat="47.62968" lon="-2.82861">
        <ele>35.8</ele>
        <time>2025-01-28T07:49:25Z</time>
      </trkpt>
      <trkpt lat="47.62969" lon="-2.8286">
        <ele>35.9</ele>
        <time>2025-01-28T07:49:26Z</time>
      </trkpt>
      <trkpt lat="47.6297" lon="-2.82859">
        <ele>35.9</ele>
        <time>2025-01-28T07:49:27Z</time>
      </trkpt>
      <trkpt lat="47.62971" lon="-2.82858">
        <ele>35.9</ele>
        <time>2025-01-28T07:49:28Z</time>
      </trkpt>
      <trkpt lat="47.62972" lon="-2.82857">
        <ele>36</ele>
        <time>2025-01-28T07:49:29Z</time>
      </trkpt>
      <trkpt lat="47.62973" lon="-2.82856">
        <ele>36.1</ele>
        <time>2025-01-28T07:49:30Z</time>
      </trkpt>
      <trkpt lat="47.62974" lon="-2.82855">
        <ele>36.1</ele>
        <time>2025-01-28T07:49:31Z</time>
      </trkpt>
      <trkpt lat="47.62976" lon="-2.82854">
        <ele>36.2</ele>
        <time>2025-01-28T07:49:32Z</time>
      </trkpt>
      <trkpt lat="47.62977" lon="-2.82853">
        <ele>36.3</ele>
        <time>2025-01-28T07:49:33Z</time>
      </trkpt>
      <trkpt lat="47.62978" lon="-2.82851">
        <ele>36.3</ele>
        <time>2025-01-28T07:49:34Z</time>
      </trkpt>
      <trkpt lat="47.62979" lon="-2.8285">
        <ele>36.4</ele>
        <time>2025-01-28T07:49:35Z</time>
      </trkpt>
      <trkpt lat="47.6298" lon="-2.82849">
        <ele>36.4</ele>
        <time>2025-01-28T07:49:36Z</time>
      </trkpt>
      <trkpt lat="47.6298" lon="-2.82847">
        <ele>36.4</ele>
        <time>2025-01-28T07:49:37Z</time>
      </trkpt>
      <trkpt lat="47.62981" lon="-2.82846">
        <ele>36.5</ele>
        <time>2025-01-28T07:49:38Z</time>
      </trkpt>
      <trkpt lat="47.62982" lon="-2.82845">
        <ele>36.5</ele>
        <time>2025-01-28T07:49:39Z</time>
      </trkpt>
      <trkpt lat="47.62983" lon="-2.82844">
        <ele>36.6</ele>
        <time>2025-01-28T07:49:40Z</time>
      </trkpt>
      <trkpt lat="47.62984" lon="-2.82843">
        <ele>36.6</ele>
        <time>2025-01-28T07:49:41Z</time>
      </trkpt>
      <trkpt lat="47.62985" lon="-2.82842">
        <ele>36.6</ele>
        <time>2025-01-28T07:49:42Z</time>
      </trkpt>
      <trkpt lat="47.62987" lon="-2.82841">
        <ele>36.7</ele>
        <time>2025-01-28T07:49:43Z</time>
      </trkpt>
      <trkpt lat="47.62988" lon="-2.8284">
        <ele>36.7</ele>
        <time>2025-01-28T07:49:44Z</time>
      </trkpt>
      <trkpt lat="47.62989" lon="-2.82839">
        <ele>36.7</ele>
        <time>2025-01-28T07:49:45Z</time>
      </trkpt>
      <trkpt lat="47.62989" lon="-2.82838">
        <ele>36.7</ele>
        <time>2025-01-28T07:49:46Z</time>
      </trkpt>
      <trkpt lat="47.6299" lon="-2.82837">
        <ele>36.7</ele>
        <time>2025-01-28T07:49:47Z</time>
      </trkpt>
      <trkpt lat="47.62991" lon="-2.82835">
        <ele>36.7</ele>
        <time>2025-01-28T07:49:48Z</time>
      </trkpt>
      <trkpt lat="47.62992" lon="-2.82834">
        <ele>36.8</ele>
        <time>2025-01-28T07:49:49Z</time>
      </trkpt>
      <trkpt lat="47.62993" lon="-2.82833">
        <ele>36.8</ele>
        <time>2025-01-28T07:49:50Z</time>
      </trkpt>
      <trkpt lat="47.62994" lon="-2.82832">
        <ele>36.8</ele>
        <time>2025-01-28T07:49:51Z</time>
      </trkpt>
      <trkpt lat="47.62995" lon="-2.82831">
        <ele>36.9</ele>
        <time>2025-01-28T07:49:52Z</time>
      </trkpt>
      <trkpt lat="47.62996" lon="-2.8283">
        <ele>37</ele>
        <time>2025-01-28T07:49:53Z</time>
      </trkpt>
      <trkpt lat="47.62997" lon="-2.82828">
        <ele>37.1</ele>
        <time>2025-01-28T07:49:54Z</time>
      </trkpt>
      <trkpt lat="47.62998" lon="-2.82827">
        <ele>37.2</ele>
        <time>2025-01-28T07:49:55Z</time>
      </trkpt>
      <trkpt lat="47.62999" lon="-2.82826">
        <ele>37.2</ele>
        <time>2025-01-28T07:49:56Z</time>
      </trkpt>
      <trkpt lat="47.63" lon="-2.82824">
        <ele>37.3</ele>
        <time>2025-01-28T07:49:57Z</time>
      </trkpt>
      <trkpt lat="47.63001" lon="-2.82823">
        <ele>37.4</ele>
        <time>2025-01-28T07:49:58Z</time>
      </trkpt>
      <trkpt lat="47.63002" lon="-2.82822">
        <ele>37.6</ele>
        <time>2025-01-28T07:49:59Z</time>
      </trkpt>
      <trkpt lat="47.63003" lon="-2.8282">
        <ele>37.7</ele>
        <time>2025-01-28T07:50:00Z</time>
      </trkpt>
      <trkpt lat="47.63004" lon="-2.82819">
        <ele>37.8</ele>
        <time>2025-01-28T07:50:01Z</time>
      </trkpt>
      <trkpt lat="47.63005" lon="-2.82818">
        <ele>38</ele>
        <time>2025-01-28T07:50:02Z</time>
      </trkpt>
      <trkpt lat="47.63005" lon="-2.82817">
        <ele>38.1</ele>
        <time>2025-01-28T07:50:03Z</time>
      </trkpt>
      <trkpt lat="47.63006" lon="-2.82816">
        <ele>38.2</ele>
        <time>2025-01-28T07:50:04Z</time>
      </trkpt>
      <trkpt lat="47.63007" lon="-2.82814">
        <ele>38.3</ele>
        <time>2025-01-28T07:50:05Z</time>
      </trkpt>
      <trkpt lat="47.63008" lon="-2.82813">
        <ele>38.3</ele>
        <time>2025-01-28T07:50:06Z</time>
      </trkpt>
      <trkpt lat="47.63009" lon="-2.82813">
        <ele>38.5</ele>
        <time>2025-01-28T07:50:07Z</time>
      </trkpt>
      <trkpt lat="47.6301" lon="-2.82812">
        <ele>38.6</ele>
        <time>2025-01-28T07:50:08Z</time>
      </trkpt>
      <trkpt lat="47.63011" lon="-2.82811">
        <ele>38.7</ele>
        <time>2025-01-28T07:50:09Z</time>
      </trkpt>
      <trkpt lat="47.63012" lon="-2.8281">
        <ele>38.7</ele>
        <time>2025-01-28T07:50:10Z</time>
      </trkpt>
      <trkpt lat="47.63013" lon="-2.82809">
        <ele>38.8</ele>
        <time>2025-01-28T07:50:11Z</time>
      </trkpt>
      <trkpt lat="47.63014" lon="-2.82809">
        <ele>38.9</ele>
        <time>2025-01-28T07:50:12Z</time>
      </trkpt>
      <trkpt lat="47.63015" lon="-2.82807">
        <ele>39</ele>
        <time>2025-01-28T07:50:13Z</time>
      </trkpt>
      <trkpt lat="47.63016" lon="-2.82806">
        <ele>39.1</ele>
        <time>2025-01-28T07:50:14Z</time>
      </trkpt>
      <trkpt lat="47.63016" lon="-2.82804">
        <ele>39.2</ele>
        <time>2025-01-28T07:50:15Z</time>
      </trkpt>
      <trkpt lat="47.63018" lon="-2.82803">
        <ele>39.3</ele>
        <time>2025-01-28T07:50:16Z</time>
      </trkpt>
      <trkpt lat="47.63019" lon="-2.82802">
        <ele>39.4</ele>
        <time>2025-01-28T07:50:17Z</time>
      </trkpt>
      <trkpt lat="47.6302" lon="-2.82801">
        <ele>39.4</ele>
        <time>2025-01-28T07:50:18Z</time>
      </trkpt>
      <trkpt lat="47.63021" lon="-2.82799">
        <ele>39.5</ele>
        <time>2025-01-28T07:50:19Z</time>
      </trkpt>
      <trkpt lat="47.63022" lon="-2.82798">
        <ele>39.6</ele>
        <time>2025-01-28T07:50:20Z</time>
      </trkpt>
      <trkpt lat="47.63023" lon="-2.82797">
        <ele>39.6</ele>
        <time>2025-01-28T07:50:21Z</time>
      </trkpt>
      <trkpt lat="47.63024" lon="-2.82797">
        <ele>39.7</ele>
        <time>2025-01-28T07:50:22Z</time>
      </trkpt>
      <trkpt lat="47.63025" lon="-2.82796">
        <ele>39.8</ele>
        <time>2025-01-28T07:50:23Z</time>
      </trkpt>
      <trkpt lat="47.63026" lon="-2.82795">
        <ele>39.9</ele>
        <time>2025-01-28T07:50:24Z</time>
      </trkpt>
      <trkpt lat="47.63027" lon="-2.82794">
        <ele>40</ele>
        <time>2025-01-28T07:50:25Z</time>
      </trkpt>
      <trkpt lat="47.63028" lon="-2.82793">
        <ele>40</ele>
        <time>2025-01-28T07:50:26Z</time>
      </trkpt>
      <trkpt lat="47.63029" lon="-2.82792">
        <ele>40.1</ele>
        <time>2025-01-28T07:50:27Z</time>
      </trkpt>
      <trkpt lat="47.6303" lon="-2.8279">
        <ele>40.1</ele>
        <time>2025-01-28T07:50:28Z</time>
      </trkpt>
      <trkpt lat="47.63031" lon="-2.8279">
        <ele>40.2</ele>
        <time>2025-01-28T07:50:29Z</time>
      </trkpt>
      <trkpt lat="47.63032" lon="-2.82789">
        <ele>40.3</ele>
        <time>2025-01-28T07:50:30Z</time>
      </trkpt>
      <trkpt lat="47.63033" lon="-2.82789">
        <ele>40.4</ele>
        <time>2025-01-28T07:50:31Z</time>
      </trkpt>
      <trkpt lat="47.63034" lon="-2.82787">
        <ele>40.5</ele>
        <time>2025-01-28T07:50:32Z</time>
      </trkpt>
      <trkpt lat="47.63035" lon="-2.82786">
        <ele>40.5</ele>
        <time>2025-01-28T07:50:33Z</time>
      </trkpt>
      <trkpt lat="47.63036" lon="-2.82784">
        <ele>40.6</ele>
        <time>2025-01-28T07:50:34Z</time>
      </trkpt>
      <trkpt lat="47.63037" lon="-2.82783">
        <ele>40.7</ele>
        <time>2025-01-28T07:50:35Z</time>
      </trkpt>
      <trkpt lat="47.63038" lon="-2.82782">
        <ele>40.7</ele>
        <time>2025-01-28T07:50:36Z</time>
      </trkpt>
      <trkpt lat="47.63038" lon="-2.8278">
        <ele>40.8</ele>
        <time>2025-01-28T07:50:37Z</time>
      </trkpt>
      <trkpt lat="47.63039" lon="-2.82778">
        <ele>40.8</ele>
        <time>2025-01-28T07:50:38Z</time>
      </trkpt>
      <trkpt lat="47.6304" lon="-2.82777">
        <ele>40.9</ele>
        <time>2025-01-28T07:50:39Z</time>
      </trkpt>
      <trkpt lat="47.63041" lon="-2.82776">
        <ele>41</ele>
        <time>2025-01-28T07:50:40Z</time>
      </trkpt>
      <trkpt lat="47.63042" lon="-2.82774">
        <ele>41</ele>
        <time>2025-01-28T07:50:41Z</time>
      </trkpt>
      <trkpt lat="47.63043" lon="-2.82773">
        <ele>41.1</ele>
        <time>2025-01-28T07:50:42Z</time>
      </trkpt>
      <trkpt lat="47.63044" lon="-2.82772">
        <ele>41.2</ele>
        <time>2025-01-28T07:50:43Z</time>
      </trkpt>
      <trkpt lat="47.63045" lon="-2.8277">
        <ele>41.2</ele>
        <time>2025-01-28T07:50:44Z</time>
      </trkpt>
      <trkpt lat="47.63046" lon="-2.82769">
        <ele>41.3</ele>
        <time>2025-01-28T07:50:45Z</time>
      </trkpt>
      <trkpt lat="47.63047" lon="-2.82768">
        <ele>41.4</ele>
        <time>2025-01-28T07:50:46Z</time>
      </trkpt>
      <trkpt lat="47.63048" lon="-2.82766">
        <ele>41.4</ele>
        <time>2025-01-28T07:50:47Z</time>
      </trkpt>
      <trkpt lat="47.63048" lon="-2.82765">
        <ele>41.5</ele>
        <time>2025-01-28T07:50:48Z</time>
      </trkpt>
      <trkpt lat="47.63049" lon="-2.82763">
        <ele>41.5</ele>
        <time>2025-01-28T07:50:49Z</time>
      </trkpt>
      <trkpt lat="47.6305" lon="-2.82762">
        <ele>41.6</ele>
        <time>2025-01-28T07:50:50Z</time>
      </trkpt>
      <trkpt lat="47.63051" lon="-2.82761">
        <ele>41.7</ele>
        <time>2025-01-28T07:50:51Z</time>
      </trkpt>
      <trkpt lat="47.63053" lon="-2.8276">
        <ele>41.8</ele>
        <time>2025-01-28T07:50:52Z</time>
      </trkpt>
      <trkpt lat="47.63053" lon="-2.82758">
        <ele>41.8</ele>
        <time>2025-01-28T07:50:53Z</time>
      </trkpt>
      <trkpt lat="47.63055" lon="-2.82757">
        <ele>41.9</ele>
        <time>2025-01-28T07:50:54Z</time>
      </trkpt>
      <trkpt lat="47.63056" lon="-2.82756">
        <ele>42</ele>
        <time>2025-01-28T07:50:55Z</time>
      </trkpt>
      <trkpt lat="47.63057" lon="-2.82754">
        <ele>42.1</ele>
        <time>2025-01-28T07:50:56Z</time>
      </trkpt>
      <trkpt lat="47.63058" lon="-2.82752">
        <ele>42.1</ele>
        <time>2025-01-28T07:50:57Z</time>
      </trkpt>
      <trkpt lat="47.63058" lon="-2.82751">
        <ele>42.2</ele>
        <time>2025-01-28T07:50:58Z</time>
      </trkpt>
      <trkpt lat="47.63059" lon="-2.82749">
        <ele>42.3</ele>
        <time>2025-01-28T07:50:59Z</time>
      </trkpt>
      <trkpt lat="47.6306" lon="-2.82748">
        <ele>42.3</ele>
        <time>2025-01-28T07:51:00Z</time>
      </trkpt>
      <trkpt lat="47.63061" lon="-2.82747">
        <ele>42.4</ele>
        <time>2025-01-28T07:51:01Z</time>
      </trkpt>
      <trkpt lat="47.63061" lon="-2.82745">
        <ele>42.4</ele>
        <time>2025-01-28T07:51:02Z</time>
      </trkpt>
      <trkpt lat="47.63062" lon="-2.82743">
        <ele>42.5</ele>
        <time>2025-01-28T07:51:03Z</time>
      </trkpt>
      <trkpt lat="47.63063" lon="-2.82742">
        <ele>42.5</ele>
        <time>2025-01-28T07:51:04Z</time>
      </trkpt>
      <trkpt lat="47.63064" lon="-2.82741">
        <ele>42.6</ele>
        <time>2025-01-28T07:51:05Z</time>
      </trkpt>
      <trkpt lat="47.63065" lon="-2.8274">
        <ele>42.7</ele>
        <time>2025-01-28T07:51:06Z</time>
      </trkpt>
      <trkpt lat="47.63066" lon="-2.82739">
        <ele>42.8</ele>
        <time>2025-01-28T07:51:07Z</time>
      </trkpt>
      <trkpt lat="47.63067" lon="-2.82737">
        <ele>42.8</ele>
        <time>2025-01-28T07:51:08Z</time>
      </trkpt>
      <trkpt lat="47.63068" lon="-2.82736">
        <ele>42.9</ele>
        <time>2025-01-28T07:51:09Z</time>
      </trkpt>
      <trkpt lat="47.63068" lon="-2.82735">
        <ele>42.9</ele>
        <time>2025-01-28T07:51:10Z</time>
      </trkpt>
      <trkpt lat="47.63069" lon="-2.82733">
        <ele>43</ele>
        <time>2025-01-28T07:51:11Z</time>
      </trkpt>
      <trkpt lat="47.6307" lon="-2.82732">
        <ele>43.1</ele>
        <time>2025-01-28T07:51:12Z</time>
      </trkpt>
      <trkpt lat="47.63072" lon="-2.82731">
        <ele>43.2</ele>
        <time>2025-01-28T07:51:13Z</time>
      </trkpt>
      <trkpt lat="47.63073" lon="-2.8273">
        <ele>43.2</ele>
        <time>2025-01-28T07:51:14Z</time>
      </trkpt>
      <trkpt lat="47.63074" lon="-2.8273">
        <ele>43.3</ele>
        <time>2025-01-28T07:51:15Z</time>
      </trkpt>
      <trkpt lat="47.63075" lon="-2.82729">
        <ele>43.4</ele>
        <time>2025-01-28T07:51:16Z</time>
      </trkpt>
      <trkpt lat="47.63076" lon="-2.82727">
        <ele>43.5</ele>
        <time>2025-01-28T07:51:17Z</time>
      </trkpt>
      <trkpt lat="47.63077" lon="-2.82726">
        <ele>43.5</ele>
        <time>2025-01-28T07:51:18Z</time>
      </trkpt>
      <trkpt lat="47.63078" lon="-2.82725">
        <ele>43.6</ele>
        <time>2025-01-28T07:51:19Z</time>
      </trkpt>
      <trkpt lat="47.63079" lon="-2.82724">
        <ele>43.7</ele>
        <time>2025-01-28T07:51:20Z</time>
      </trkpt>
      <trkpt lat="47.6308" lon="-2.82723">
        <ele>43.8</ele>
        <time>2025-01-28T07:51:21Z</time>
      </trkpt>
      <trkpt lat="47.63081" lon="-2.82721">
        <ele>43.8</ele>
        <time>2025-01-28T07:51:22Z</time>
      </trkpt>
      <trkpt lat="47.63082" lon="-2.8272">
        <ele>44</ele>
        <time>2025-01-28T07:51:23Z</time>
      </trkpt>
      <trkpt lat="47.63083" lon="-2.82718">
        <ele>44.1</ele>
        <time>2025-01-28T07:51:24Z</time>
      </trkpt>
      <trkpt lat="47.63083" lon="-2.82717">
        <ele>44.2</ele>
        <time>2025-01-28T07:51:25Z</time>
      </trkpt>
      <trkpt lat="47.63084" lon="-2.82716">
        <ele>44.3</ele>
        <time>2025-01-28T07:51:26Z</time>
      </trkpt>
      <trkpt lat="47.63086" lon="-2.82714">
        <ele>44.4</ele>
        <time>2025-01-28T07:51:27Z</time>
      </trkpt>
      <trkpt lat="47.63087" lon="-2.82714">
        <ele>44.5</ele>
        <time>2025-01-28T07:51:28Z</time>
      </trkpt>
      <trkpt lat="47.63088" lon="-2.82712">
        <ele>44.7</ele>
        <time>2025-01-28T07:51:29Z</time>
      </trkpt>
      <trkpt lat="47.63089" lon="-2.82711">
        <ele>44.8</ele>
        <time>2025-01-28T07:51:30Z</time>
      </trkpt>
      <trkpt lat="47.6309" lon="-2.8271">
        <ele>44.9</ele>
        <time>2025-01-28T07:51:31Z</time>
      </trkpt>
      <trkpt lat="47.63091" lon="-2.82709">
        <ele>45</ele>
        <time>2025-01-28T07:51:32Z</time>
      </trkpt>
      <trkpt lat="47.63092" lon="-2.82708">
        <ele>45.1</ele>
        <time>2025-01-28T07:51:33Z</time>
      </trkpt>
      <trkpt lat="47.63093" lon="-2.82707">
        <ele>45.2</ele>
        <time>2025-01-28T07:51:34Z</time>
      </trkpt>
      <trkpt lat="47.63094" lon="-2.82706">
        <ele>45.3</ele>
        <time>2025-01-28T07:51:35Z</time>
      </trkpt>
      <trkpt lat="47.63095" lon="-2.82705">
        <ele>45.4</ele>
        <time>2025-01-28T07:51:36Z</time>
      </trkpt>
      <trkpt lat="47.63095" lon="-2.82704">
        <ele>45.5</ele>
        <time>2025-01-28T07:51:37Z</time>
      </trkpt>
      <trkpt lat="47.63097" lon="-2.82704">
        <ele>45.6</ele>
        <time>2025-01-28T07:51:38Z</time>
      </trkpt>
      <trkpt lat="47.63098" lon="-2.82703">
        <ele>45.7</ele>
        <time>2025-01-28T07:51:39Z</time>
      </trkpt>
      <trkpt lat="47.63098" lon="-2.82702">
        <ele>45.8</ele>
        <time>2025-01-28T07:51:40Z</time>
      </trkpt>
      <trkpt lat="47.63099" lon="-2.82701">
        <ele>45.9</ele>
        <time>2025-01-28T07:51:41Z</time>
      </trkpt>
      <trkpt lat="47.631" lon="-2.827">
        <ele>46</ele>
        <time>2025-01-28T07:51:42Z</time>
      </trkpt>
      <trkpt lat="47.63101" lon="-2.82699">
        <ele>46.1</ele>
        <time>2025-01-28T07:51:43Z</time>
      </trkpt>
      <trkpt lat="47.63102" lon="-2.82697">
        <ele>46.2</ele>
        <time>2025-01-28T07:51:44Z</time>
      </trkpt>
      <trkpt lat="47.63103" lon="-2.82696">
        <ele>46.4</ele>
        <time>2025-01-28T07:51:45Z</time>
      </trkpt>
      <trkpt lat="47.63104" lon="-2.82694">
        <ele>46.5</ele>
        <time>2025-01-28T07:51:46Z</time>
      </trkpt>
      <trkpt lat="47.63105" lon="-2.82694">
        <ele>46.5</ele>
        <time>2025-01-28T07:51:47Z</time>
      </trkpt>
      <trkpt lat="47.63106" lon="-2.82693">
        <ele>46.6</ele>
        <time>2025-01-28T07:51:48Z</time>
      </trkpt>
      <trkpt lat="47.63106" lon="-2.82691">
        <ele>46.7</ele>
        <time>2025-01-28T07:51:49Z</time>
      </trkpt>
      <trkpt lat="47.63107" lon="-2.8269">
        <ele>46.7</ele>
        <time>2025-01-28T07:51:50Z</time>
      </trkpt>
      <trkpt lat="47.63108" lon="-2.82689">
        <ele>46.8</ele>
        <time>2025-01-28T07:51:51Z</time>
      </trkpt>
      <trkpt lat="47.63109" lon="-2.82688">
        <ele>46.8</ele>
        <time>2025-01-28T07:51:52Z</time>
      </trkpt>
      <trkpt lat="47.6311" lon="-2.82687">
        <ele>46.9</ele>
        <time>2025-01-28T07:51:53Z</time>
      </trkpt>
      <trkpt lat="47.63111" lon="-2.82686">
        <ele>47</ele>
        <time>2025-01-28T07:51:54Z</time>
      </trkpt>
      <trkpt lat="47.63112" lon="-2.82685">
        <ele>47</ele>
        <time>2025-01-28T07:51:55Z</time>
      </trkpt>
      <trkpt lat="47.63112" lon="-2.82683">
        <ele>47.1</ele>
        <time>2025-01-28T07:51:56Z</time>
      </trkpt>
      <trkpt lat="47.63113" lon="-2.82682">
        <ele>47.1</ele>
        <time>2025-01-28T07:51:57Z</time>
      </trkpt>
      <trkpt lat="47.63114" lon="-2.82681">
        <ele>47.2</ele>
        <time>2025-01-28T07:51:58Z</time>
      </trkpt>
      <trkpt lat="47.63115" lon="-2.8268">
        <ele>47.3</ele>
        <time>2025-01-28T07:51:59Z</time>
      </trkpt>
      <trkpt lat="47.63116" lon="-2.82679">
        <ele>47.4</ele>
        <time>2025-01-28T07:52:00Z</time>
      </trkpt>
      <trkpt lat="47.63118" lon="-2.82679">
        <ele>47.5</ele>
        <time>2025-01-28T07:52:01Z</time>
      </trkpt>
      <trkpt lat="47.63119" lon="-2.82678">
        <ele>47.6</ele>
        <time>2025-01-28T07:52:02Z</time>
      </trkpt>
      <trkpt lat="47.6312" lon="-2.82677">
        <ele>47.6</ele>
        <time>2025-01-28T07:52:03Z</time>
      </trkpt>
      <trkpt lat="47.63121" lon="-2.82677">
        <ele>47.7</ele>
        <time>2025-01-28T07:52:04Z</time>
      </trkpt>
      <trkpt lat="47.63122" lon="-2.82677">
        <ele>47.8</ele>
        <time>2025-01-28T07:52:05Z</time>
      </trkpt>
      <trkpt lat="47.63123" lon="-2.82677">
        <ele>47.9</ele>
        <time>2025-01-28T07:52:06Z</time>
      </trkpt>
      <trkpt lat="47.63125" lon="-2.82676">
        <ele>48</ele>
        <time>2025-01-28T07:52:07Z</time>
      </trkpt>
      <trkpt lat="47.63126" lon="-2.82676">
        <ele>48</ele>
        <time>2025-01-28T07:52:08Z</time>
      </trkpt>
      <trkpt lat="47.63127" lon="-2.82675">
        <ele>48.1</ele>
        <time>2025-01-28T07:52:09Z</time>
      </trkpt>
      <trkpt lat="47.63128" lon="-2.82674">
        <ele>48.2</ele>
        <time>2025-01-28T07:52:10Z</time>
      </trkpt>
      <trkpt lat="47.63129" lon="-2.82674">
        <ele>48.3</ele>
        <time>2025-01-28T07:52:11Z</time>
      </trkpt>
      <trkpt lat="47.6313" lon="-2.82673">
        <ele>48.4</ele>
        <time>2025-01-28T07:52:12Z</time>
      </trkpt>
      <trkpt lat="47.63131" lon="-2.82672">
        <ele>48.5</ele>
        <time>2025-01-28T07:52:13Z</time>
      </trkpt>
      <trkpt lat="47.63133" lon="-2.82672">
        <ele>48.6</ele>
        <time>2025-01-28T07:52:14Z</time>
      </trkpt>
      <trkpt lat="47.63134" lon="-2.82671">
        <ele>48.6</ele>
        <time>2025-01-28T07:52:15Z</time>
      </trkpt>
      <trkpt lat="47.63135" lon="-2.82668">
        <ele>48.7</ele>
        <time>2025-01-28T07:52:16Z</time>
      </trkpt>
      <trkpt lat="47.63135" lon="-2.82666">
        <ele>48.7</ele>
        <time>2025-01-28T07:52:17Z</time>
      </trkpt>
      <trkpt lat="47.63136" lon="-2.82665">
        <ele>48.8</ele>
        <time>2025-01-28T07:52:18Z</time>
      </trkpt>
      <trkpt lat="47.63137" lon="-2.82662">
        <ele>48.8</ele>
        <time>2025-01-28T07:52:19Z</time>
      </trkpt>
      <trkpt lat="47.63137" lon="-2.82661">
        <ele>48.9</ele>
        <time>2025-01-28T07:52:20Z</time>
      </trkpt>
      <trkpt lat="47.63138" lon="-2.82659">
        <ele>48.9</ele>
        <time>2025-01-28T07:52:21Z</time>
      </trkpt>
      <trkpt lat="47.63138" lon="-2.82658">
        <ele>49</ele>
        <time>2025-01-28T07:52:22Z</time>
      </trkpt>
      <trkpt lat="47.63139" lon="-2.82656">
        <ele>49</ele>
        <time>2025-01-28T07:52:23Z</time>
      </trkpt>
      <trkpt lat="47.6314" lon="-2.82655">
        <ele>49.1</ele>
        <time>2025-01-28T07:52:24Z</time>
      </trkpt>
      <trkpt lat="47.63141" lon="-2.82654">
        <ele>49.2</ele>
        <time>2025-01-28T07:52:25Z</time>
      </trkpt>
      <trkpt lat="47.63142" lon="-2.82653">
        <ele>49.3</ele>
        <time>2025-01-28T07:52:26Z</time>
      </trkpt>
      <trkpt lat="47.63143" lon="-2.82652">
        <ele>49.3</ele>
        <time>2025-01-28T07:52:27Z</time>
      </trkpt>
      <trkpt lat="47.63143" lon="-2.8265">
        <ele>49.4</ele>
        <time>2025-01-28T07:52:28Z</time>
      </trkpt>
      <trkpt lat="47.63144" lon="-2.82649">
        <ele>49.4</ele>
        <time>2025-01-28T07:52:29Z</time>
      </trkpt>
      <trkpt lat="47.63144" lon="-2.82648">
        <ele>49.5</ele>
        <time>2025-01-28T07:52:30Z</time>
      </trkpt>
      <trkpt lat="47.63145" lon="-2.82646">
        <ele>49.6</ele>
        <time>2025-01-28T07:52:31Z</time>
      </trkpt>
      <trkpt lat="47.63145" lon="-2.82645">
        <ele>49.6</ele>
        <time>2025-01-28T07:52:32Z</time>
      </trkpt>
      <trkpt lat="47.63146" lon="-2.82643">
        <ele>49.7</ele>
        <time>2025-01-28T07:52:33Z</time>
      </trkpt>
      <trkpt lat="47.63147" lon="-2.82643">
        <ele>49.9</ele>
        <time>2025-01-28T07:52:34Z</time>
      </trkpt>
      <trkpt lat="47.63149" lon="-2.82642">
        <ele>50</ele>
        <time>2025-01-28T07:52:35Z</time>
      </trkpt>
      <trkpt lat="47.6315" lon="-2.82641">
        <ele>50.1</ele>
        <time>2025-01-28T07:52:36Z</time>
      </trkpt>
      <trkpt lat="47.6315" lon="-2.8264">
        <ele>50.2</ele>
        <time>2025-01-28T07:52:37Z</time>
      </trkpt>
      <trkpt lat="47.63151" lon="-2.82638">
        <ele>50.3</ele>
        <time>2025-01-28T07:52:38Z</time>
      </trkpt>
      <trkpt lat="47.63152" lon="-2.82637">
        <ele>50.4</ele>
        <time>2025-01-28T07:52:39Z</time>
      </trkpt>
      <trkpt lat="47.63153" lon="-2.82636">
        <ele>50.5</ele>
        <time>2025-01-28T07:52:40Z</time>
      </trkpt>
      <trkpt lat="47.63154" lon="-2.82636">
        <ele>50.6</ele>
        <time>2025-01-28T07:52:41Z</time>
      </trkpt>
      <trkpt lat="47.63154" lon="-2.82635">
        <ele>50.7</ele>
        <time>2025-01-28T07:52:42Z</time>
      </trkpt>
      <trkpt lat="47.63155" lon="-2.82634">
        <ele>50.8</ele>
        <time>2025-01-28T07:52:43Z</time>
      </trkpt>
      <trkpt lat="47.63156" lon="-2.82633">
        <ele>50.9</ele>
        <time>2025-01-28T07:52:44Z</time>
      </trkpt>
      <trkpt lat="47.63157" lon="-2.82632">
        <ele>51</ele>
        <time>2025-01-28T07:52:45Z</time>
      </trkpt>
      <trkpt lat="47.63158" lon="-2.82631">
        <ele>51</ele>
        <time>2025-01-28T07:52:46Z</time>
      </trkpt>
      <trkpt lat="47.63159" lon="-2.8263">
        <ele>51.1</ele>
        <time>2025-01-28T07:52:47Z</time>
      </trkpt>
      <trkpt lat="47.6316" lon="-2.82628">
        <ele>51.2</ele>
        <time>2025-01-28T07:52:48Z</time>
      </trkpt>
      <trkpt lat="47.63161" lon="-2.82627">
        <ele>51.2</ele>
        <time>2025-01-28T07:52:49Z</time>
      </trkpt>
      <trkpt lat="47.63161" lon="-2.82625">
        <ele>51.2</ele>
        <time>2025-01-28T07:52:50Z</time>
      </trkpt>
      <trkpt lat="47.63162" lon="-2.82623">
        <ele>51.2</ele>
        <time>2025-01-28T07:52:51Z</time>
      </trkpt>
      <trkpt lat="47.63163" lon="-2.82622">
        <ele>51.2</ele>
        <time>2025-01-28T07:52:52Z</time>
      </trkpt>
      <trkpt lat="47.63164" lon="-2.82621">
        <ele>51.2</ele>
        <time>2025-01-28T07:52:53Z</time>
      </trkpt>
      <trkpt lat="47.63165" lon="-2.8262">
        <ele>51.2</ele>
        <time>2025-01-28T07:52:54Z</time>
      </trkpt>
      <trkpt lat="47.63166" lon="-2.82619">
        <ele>51.2</ele>
        <time>2025-01-28T07:52:55Z</time>
      </trkpt>
      <trkpt lat="47.63166" lon="-2.82618">
        <ele>51.2</ele>
        <time>2025-01-28T07:52:56Z</time>
      </trkpt>
      <trkpt lat="47.63167" lon="-2.82616">
        <ele>51.3</ele>
        <time>2025-01-28T07:52:57Z</time>
      </trkpt>
      <trkpt lat="47.63168" lon="-2.82616">
        <ele>51.3</ele>
        <time>2025-01-28T07:52:58Z</time>
      </trkpt>
      <trkpt lat="47.63169" lon="-2.82615">
        <ele>51.4</ele>
        <time>2025-01-28T07:52:59Z</time>
      </trkpt>
      <trkpt lat="47.6317" lon="-2.82613">
        <ele>51.4</ele>
        <time>2025-01-28T07:53:00Z</time>
      </trkpt>
      <trkpt lat="47.63171" lon="-2.82612">
        <ele>51.5</ele>
        <time>2025-01-28T07:53:01Z</time>
      </trkpt>
      <trkpt lat="47.63172" lon="-2.8261">
        <ele>51.6</ele>
        <time>2025-01-28T07:53:02Z</time>
      </trkpt>
      <trkpt lat="47.63173" lon="-2.82609">
        <ele>51.7</ele>
        <time>2025-01-28T07:53:03Z</time>
      </trkpt>
      <trkpt lat="47.63173" lon="-2.82607">
        <ele>51.8</ele>
        <time>2025-01-28T07:53:04Z</time>
      </trkpt>
      <trkpt lat="47.63174" lon="-2.82606">
        <ele>52</ele>
        <time>2025-01-28T07:53:05Z</time>
      </trkpt>
      <trkpt lat="47.63175" lon="-2.82604">
        <ele>52.1</ele>
        <time>2025-01-28T07:53:06Z</time>
      </trkpt>
      <trkpt lat="47.63176" lon="-2.82603">
        <ele>52.2</ele>
        <time>2025-01-28T07:53:07Z</time>
      </trkpt>
      <trkpt lat="47.63177" lon="-2.82603">
        <ele>52.3</ele>
        <time>2025-01-28T07:53:08Z</time>
      </trkpt>
      <trkpt lat="47.63179" lon="-2.82602">
        <ele>52.5</ele>
        <time>2025-01-28T07:53:09Z</time>
      </trkpt>
      <trkpt lat="47.6318" lon="-2.82601">
        <ele>52.6</ele>
        <time>2025-01-28T07:53:10Z</time>
      </trkpt>
      <trkpt lat="47.63181" lon="-2.826">
        <ele>52.7</ele>
        <time>2025-01-28T07:53:11Z</time>
      </trkpt>
      <trkpt lat="47.63182" lon="-2.82599">
        <ele>52.9</ele>
        <time>2025-01-28T07:53:12Z</time>
      </trkpt>
      <trkpt lat="47.63183" lon="-2.82598">
        <ele>52.9</ele>
        <time>2025-01-28T07:53:13Z</time>
      </trkpt>
      <trkpt lat="47.63184" lon="-2.82596">
        <ele>53</ele>
        <time>2025-01-28T07:53:14Z</time>
      </trkpt>
      <trkpt lat="47.63184" lon="-2.82594">
        <ele>53.1</ele>
        <time>2025-01-28T07:53:15Z</time>
      </trkpt>
      <trkpt lat="47.63185" lon="-2.82593">
        <ele>53.2</ele>
        <time>2025-01-28T07:53:16Z</time>
      </trkpt>
      <trkpt lat="47.63187" lon="-2.82592">
        <ele>53.3</ele>
        <time>2025-01-28T07:53:17Z</time>
      </trkpt>
      <trkpt lat="47.63188" lon="-2.82591">
        <ele>53.4</ele>
        <time>2025-01-28T07:53:18Z</time>
      </trkpt>
      <trkpt lat="47.63189" lon="-2.8259">
        <ele>53.5</ele>
        <time>2025-01-28T07:53:19Z</time>
      </trkpt>
      <trkpt lat="47.6319" lon="-2.82589">
        <ele>53.6</ele>
        <time>2025-01-28T07:53:20Z</time>
      </trkpt>
      <trkpt lat="47.63191" lon="-2.82587">
        <ele>53.7</ele>
        <time>2025-01-28T07:53:21Z</time>
      </trkpt>
      <trkpt lat="47.63191" lon="-2.82586">
        <ele>53.8</ele>
        <time>2025-01-28T07:53:22Z</time>
      </trkpt>
      <trkpt lat="47.63192" lon="-2.82585">
        <ele>53.8</ele>
        <time>2025-01-28T07:53:23Z</time>
      </trkpt>
      <trkpt lat="47.63193" lon="-2.82583">
        <ele>53.9</ele>
        <time>2025-01-28T07:53:24Z</time>
      </trkpt>
      <trkpt lat="47.63194" lon="-2.82582">
        <ele>53.9</ele>
        <time>2025-01-28T07:53:25Z</time>
      </trkpt>
      <trkpt lat="47.63195" lon="-2.8258">
        <ele>53.8</ele>
        <time>2025-01-28T07:53:26Z</time>
      </trkpt>
      <trkpt lat="47.63197" lon="-2.82579">
        <ele>53.8</ele>
        <time>2025-01-28T07:53:27Z</time>
      </trkpt>
      <trkpt lat="47.63198" lon="-2.82578">
        <ele>53.8</ele>
        <time>2025-01-28T07:53:28Z</time>
      </trkpt>
      <trkpt lat="47.63199" lon="-2.82577">
        <ele>53.7</ele>
        <time>2025-01-28T07:53:29Z</time>
      </trkpt>
      <trkpt lat="47.632" lon="-2.82576">
        <ele>53.7</ele>
        <time>2025-01-28T07:53:30Z</time>
      </trkpt>
      <trkpt lat="47.63201" lon="-2.82575">
        <ele>53.7</ele>
        <time>2025-01-28T07:53:31Z</time>
      </trkpt>
      <trkpt lat="47.63202" lon="-2.82574">
        <ele>53.7</ele>
        <time>2025-01-28T07:53:32Z</time>
      </trkpt>
      <trkpt lat="47.63203" lon="-2.82573">
        <ele>53.7</ele>
        <time>2025-01-28T07:53:33Z</time>
      </trkpt>
      <trkpt lat="47.63204" lon="-2.82571">
        <ele>53.6</ele>
        <time>2025-01-28T07:53:34Z</time>
      </trkpt>
      <trkpt lat="47.63205" lon="-2.8257">
        <ele>53.6</ele>
        <time>2025-01-28T07:53:35Z</time>
      </trkpt>
      <trkpt lat="47.63206" lon="-2.82569">
        <ele>53.6</ele>
        <time>2025-01-28T07:53:36Z</time>
      </trkpt>
      <trkpt lat="47.63207" lon="-2.82567">
        <ele>53.6</ele>
        <time>2025-01-28T07:53:37Z</time>
      </trkpt>
      <trkpt lat="47.63208" lon="-2.82566">
        <ele>53.5</ele>
        <time>2025-01-28T07:53:38Z</time>
      </trkpt>
      <trkpt lat="47.63209" lon="-2.82565">
        <ele>53.5</ele>
        <time>2025-01-28T07:53:39Z</time>
      </trkpt>
      <trkpt lat="47.63209" lon="-2.82563">
        <ele>53.5</ele>
        <time>2025-01-28T07:53:40Z</time>
      </trkpt>
      <trkpt lat="47.6321" lon="-2.82562">
        <ele>53.4</ele>
        <time>2025-01-28T07:53:41Z</time>
      </trkpt>
      <trkpt lat="47.63211" lon="-2.82561">
        <ele>53.5</ele>
        <time>2025-01-28T07:53:42Z</time>
      </trkpt>
      <trkpt lat="47.63212" lon="-2.8256">
        <ele>53.5</ele>
        <time>2025-01-28T07:53:43Z</time>
      </trkpt>
      <trkpt lat="47.63214" lon="-2.82559">
        <ele>53.5</ele>
        <time>2025-01-28T07:53:44Z</time>
      </trkpt>
      <trkpt lat="47.63215" lon="-2.82557">
        <ele>53.5</ele>
        <time>2025-01-28T07:53:45Z</time>
      </trkpt>
      <trkpt lat="47.63216" lon="-2.82555">
        <ele>53.5</ele>
        <time>2025-01-28T07:53:46Z</time>
      </trkpt>
      <trkpt lat="47.63217" lon="-2.82554">
        <ele>53.5</ele>
        <time>2025-01-28T07:53:47Z</time>
      </trkpt>
      <trkpt lat="47.63218" lon="-2.82553">
        <ele>53.5</ele>
        <time>2025-01-28T07:53:48Z</time>
      </trkpt>
      <trkpt lat="47.63219" lon="-2.82552">
        <ele>53.4</ele>
        <time>2025-01-28T07:53:49Z</time>
      </trkpt>
      <trkpt lat="47.6322" lon="-2.82551">
        <ele>53.4</ele>
        <time>2025-01-28T07:53:50Z</time>
      </trkpt>
      <trkpt lat="47.63222" lon="-2.8255">
        <ele>53.3</ele>
        <time>2025-01-28T07:53:51Z</time>
      </trkpt>
      <trkpt lat="47.63223" lon="-2.82549">
        <ele>53.3</ele>
        <time>2025-01-28T07:53:52Z</time>
      </trkpt>
      <trkpt lat="47.63224" lon="-2.82548">
        <ele>53.2</ele>
        <time>2025-01-28T07:53:53Z</time>
      </trkpt>
      <trkpt lat="47.63225" lon="-2.82546">
        <ele>53.1</ele>
        <time>2025-01-28T07:53:54Z</time>
      </trkpt>
      <trkpt lat="47.63226" lon="-2.82545">
        <ele>53</ele>
        <time>2025-01-28T07:53:55Z</time>
      </trkpt>
      <trkpt lat="47.63227" lon="-2.82544">
        <ele>52.9</ele>
        <time>2025-01-28T07:53:56Z</time>
      </trkpt>
      <trkpt lat="47.63228" lon="-2.82543">
        <ele>52.9</ele>
        <time>2025-01-28T07:53:57Z</time>
      </trkpt>
      <trkpt lat="47.63229" lon="-2.82541">
        <ele>52.8</ele>
        <time>2025-01-28T07:53:58Z</time>
      </trkpt>
      <trkpt lat="47.6323" lon="-2.8254">
        <ele>52.7</ele>
        <time>2025-01-28T07:53:59Z</time>
      </trkpt>
      <trkpt lat="47.63231" lon="-2.82538">
        <ele>52.6</ele>
        <time>2025-01-28T07:54:00Z</time>
      </trkpt>
      <trkpt lat="47.63231" lon="-2.82537">
        <ele>52.5</ele>
        <time>2025-01-28T07:54:01Z</time>
      </trkpt>
      <trkpt lat="47.63232" lon="-2.82535">
        <ele>52.4</ele>
        <time>2025-01-28T07:54:02Z</time>
      </trkpt>
      <trkpt lat="47.63233" lon="-2.82534">
        <ele>52.3</ele>
        <time>2025-01-28T07:54:03Z</time>
      </trkpt>
      <trkpt lat="47.63234" lon="-2.82532">
        <ele>52.2</ele>
        <time>2025-01-28T07:54:04Z</time>
      </trkpt>
      <trkpt lat="47.63235" lon="-2.82531">
        <ele>52.2</ele>
        <time>2025-01-28T07:54:05Z</time>
      </trkpt>
      <trkpt lat="47.63236" lon="-2.8253">
        <ele>52.2</ele>
        <time>2025-01-28T07:54:06Z</time>
      </trkpt>
      <trkpt lat="47.63237" lon="-2.82529">
        <ele>52.1</ele>
        <time>2025-01-28T07:54:07Z</time>
      </trkpt>
      <trkpt lat="47.63238" lon="-2.82527">
        <ele>52.1</ele>
        <time>2025-01-28T07:54:08Z</time>
      </trkpt>
      <trkpt lat="47.63239" lon="-2.82526">
        <ele>52.1</ele>
        <time>2025-01-28T07:54:09Z</time>
      </trkpt>
      <trkpt lat="47.63239" lon="-2.82524">
        <ele>52.1</ele>
        <time>2025-01-28T07:54:10Z</time>
      </trkpt>
      <trkpt lat="47.6324" lon="-2.82523">
        <ele>52.1</ele>
        <time>2025-01-28T07:54:11Z</time>
      </trkpt>
      <trkpt lat="47.63241" lon="-2.82522">
        <ele>52.1</ele>
        <time>2025-01-28T07:54:12Z</time>
      </trkpt>
      <trkpt lat="47.63242" lon="-2.8252">
        <ele>52.1</ele>
        <time>2025-01-28T07:54:13Z</time>
      </trkpt>
      <trkpt lat="47.63243" lon="-2.82518">
        <ele>52.1</ele>
        <time>2025-01-28T07:54:14Z</time>
      </trkpt>
      <trkpt lat="47.63244" lon="-2.82517">
        <ele>52</ele>
        <time>2025-01-28T07:54:15Z</time>
      </trkpt>
      <trkpt lat="47.63244" lon="-2.82515">
        <ele>51.9</ele>
        <time>2025-01-28T07:54:16Z</time>
      </trkpt>
      <trkpt lat="47.63245" lon="-2.82513">
        <ele>51.9</ele>
        <time>2025-01-28T07:54:17Z</time>
      </trkpt>
      <trkpt lat="47.63246" lon="-2.82511">
        <ele>51.8</ele>
        <time>2025-01-28T07:54:18Z</time>
      </trkpt>
      <trkpt lat="47.63247" lon="-2.8251">
        <ele>51.7</ele>
        <time>2025-01-28T07:54:19Z</time>
      </trkpt>
      <trkpt lat="47.63248" lon="-2.82509">
        <ele>51.6</ele>
        <time>2025-01-28T07:54:20Z</time>
      </trkpt>
      <trkpt lat="47.63249" lon="-2.82508">
        <ele>51.6</ele>
        <time>2025-01-28T07:54:21Z</time>
      </trkpt>
      <trkpt lat="47.6325" lon="-2.82506">
        <ele>51.5</ele>
        <time>2025-01-28T07:54:22Z</time>
      </trkpt>
      <trkpt lat="47.6325" lon="-2.82505">
        <ele>51.4</ele>
        <time>2025-01-28T07:54:23Z</time>
      </trkpt>
      <trkpt lat="47.63252" lon="-2.82504">
        <ele>51.3</ele>
        <time>2025-01-28T07:54:24Z</time>
      </trkpt>
      <trkpt lat="47.63253" lon="-2.82503">
        <ele>51.2</ele>
        <time>2025-01-28T07:54:25Z</time>
      </trkpt>
      <trkpt lat="47.63253" lon="-2.82501">
        <ele>51.1</ele>
        <time>2025-01-28T07:54:26Z</time>
      </trkpt>
      <trkpt lat="47.63254" lon="-2.825">
        <ele>51</ele>
        <time>2025-01-28T07:54:27Z</time>
      </trkpt>
      <trkpt lat="47.63255" lon="-2.82498">
        <ele>50.9</ele>
        <time>2025-01-28T07:54:28Z</time>
      </trkpt>
      <trkpt lat="47.63256" lon="-2.82496">
        <ele>50.8</ele>
        <time>2025-01-28T07:54:29Z</time>
      </trkpt>
      <trkpt lat="47.63257" lon="-2.82495">
        <ele>50.8</ele>
        <time>2025-01-28T07:54:30Z</time>
      </trkpt>
      <trkpt lat="47.63258" lon="-2.82494">
        <ele>50.7</ele>
        <time>2025-01-28T07:54:31Z</time>
      </trkpt>
      <trkpt lat="47.63259" lon="-2.82493">
        <ele>50.7</ele>
        <time>2025-01-28T07:54:32Z</time>
      </trkpt>
      <trkpt lat="47.6326" lon="-2.82491">
        <ele>50.6</ele>
        <time>2025-01-28T07:54:33Z</time>
      </trkpt>
      <trkpt lat="47.6326" lon="-2.8249">
        <ele>50.5</ele>
        <time>2025-01-28T07:54:34Z</time>
      </trkpt>
      <trkpt lat="47.63261" lon="-2.82489">
        <ele>50.4</ele>
        <time>2025-01-28T07:54:35Z</time>
      </trkpt>
      <trkpt lat="47.63262" lon="-2.82488">
        <ele>50.4</ele>
        <time>2025-01-28T07:54:36Z</time>
      </trkpt>
      <trkpt lat="47.63264" lon="-2.82487">
        <ele>50.3</ele>
        <time>2025-01-28T07:54:37Z</time>
      </trkpt>
      <trkpt lat="47.63265" lon="-2.82487">
        <ele>50.3</ele>
        <time>2025-01-28T07:54:38Z</time>
      </trkpt>
      <trkpt lat="47.63266" lon="-2.82485">
        <ele>50.2</ele>
        <time>2025-01-28T07:54:39Z</time>
      </trkpt>
      <trkpt lat="47.63267" lon="-2.82484">
        <ele>50.1</ele>
        <time>2025-01-28T07:54:40Z</time>
      </trkpt>
      <trkpt lat="47.63268" lon="-2.82483">
        <ele>50</ele>
        <time>2025-01-28T07:54:41Z</time>
      </trkpt>
      <trkpt lat="47.63269" lon="-2.82482">
        <ele>49.9</ele>
        <time>2025-01-28T07:54:42Z</time>
      </trkpt>
      <trkpt lat="47.6327" lon="-2.82481">
        <ele>49.8</ele>
        <time>2025-01-28T07:54:43Z</time>
      </trkpt>
      <trkpt lat="47.63271" lon="-2.8248">
        <ele>49.7</ele>
        <time>2025-01-28T07:54:44Z</time>
      </trkpt>
      <trkpt lat="47.63272" lon="-2.82479">
        <ele>49.6</ele>
        <time>2025-01-28T07:54:45Z</time>
      </trkpt>
      <trkpt lat="47.63274" lon="-2.82478">
        <ele>49.5</ele>
        <time>2025-01-28T07:54:46Z</time>
      </trkpt>
      <trkpt lat="47.63275" lon="-2.82477">
        <ele>49.4</ele>
        <time>2025-01-28T07:54:47Z</time>
      </trkpt>
      <trkpt lat="47.63276" lon="-2.82475">
        <ele>49.3</ele>
        <time>2025-01-28T07:54:48Z</time>
      </trkpt>
      <trkpt lat="47.63277" lon="-2.82474">
        <ele>49.2</ele>
        <time>2025-01-28T07:54:49Z</time>
      </trkpt>
      <trkpt lat="47.63278" lon="-2.82474">
        <ele>49.1</ele>
        <time>2025-01-28T07:54:50Z</time>
      </trkpt>
      <trkpt lat="47.63279" lon="-2.82474">
        <ele>49.1</ele>
        <time>2025-01-28T07:54:51Z</time>
      </trkpt>
      <trkpt lat="47.6328" lon="-2.82473">
        <ele>49</ele>
        <time>2025-01-28T07:54:52Z</time>
      </trkpt>
      <trkpt lat="47.63281" lon="-2.82473">
        <ele>48.9</ele>
        <time>2025-01-28T07:54:53Z</time>
      </trkpt>
      <trkpt lat="47.63282" lon="-2.82472">
        <ele>48.8</ele>
        <time>2025-01-28T07:54:54Z</time>
      </trkpt>
      <trkpt lat="47.63283" lon="-2.82472">
        <ele>48.8</ele>
        <time>2025-01-28T07:54:55Z</time>
      </trkpt>
      <trkpt lat="47.63285" lon="-2.82471">
        <ele>48.7</ele>
        <time>2025-01-28T07:54:56Z</time>
      </trkpt>
      <trkpt lat="47.63286" lon="-2.82471">
        <ele>48.7</ele>
        <time>2025-01-28T07:54:57Z</time>
      </trkpt>
      <trkpt lat="47.63287" lon="-2.8247">
        <ele>48.6</ele>
        <time>2025-01-28T07:54:58Z</time>
      </trkpt>
      <trkpt lat="47.63288" lon="-2.8247">
        <ele>48.5</ele>
        <time>2025-01-28T07:54:59Z</time>
      </trkpt>
      <trkpt lat="47.63289" lon="-2.8247">
        <ele>48.5</ele>
        <time>2025-01-28T07:55:00Z</time>
      </trkpt>
      <trkpt lat="47.63291" lon="-2.82469">
        <ele>48.4</ele>
        <time>2025-01-28T07:55:01Z</time>
      </trkpt>
      <trkpt lat="47.63292" lon="-2.82469">
        <ele>48.4</ele>
        <time>2025-01-28T07:55:02Z</time>
      </trkpt>
      <trkpt lat="47.63293" lon="-2.82467">
        <ele>48.3</ele>
        <time>2025-01-28T07:55:03Z</time>
      </trkpt>
      <trkpt lat="47.63294" lon="-2.82466">
        <ele>48.2</ele>
        <time>2025-01-28T07:55:04Z</time>
      </trkpt>
      <trkpt lat="47.63295" lon="-2.82466">
        <ele>48.1</ele>
        <time>2025-01-28T07:55:05Z</time>
      </trkpt>
      <trkpt lat="47.63297" lon="-2.82465">
        <ele>48.1</ele>
        <time>2025-01-28T07:55:06Z</time>
      </trkpt>
      <trkpt lat="47.63298" lon="-2.82465">
        <ele>48</ele>
        <time>2025-01-28T07:55:07Z</time>
      </trkpt>
      <trkpt lat="47.633" lon="-2.82464">
        <ele>47.9</ele>
        <time>2025-01-28T07:55:08Z</time>
      </trkpt>
      <trkpt lat="47.63301" lon="-2.82464">
        <ele>47.9</ele>
        <time>2025-01-28T07:55:09Z</time>
      </trkpt>
      <trkpt lat="47.63302" lon="-2.82463">
        <ele>47.8</ele>
        <time>2025-01-28T07:55:10Z</time>
      </trkpt>
      <trkpt lat="47.63304" lon="-2.82462">
        <ele>47.7</ele>
        <time>2025-01-28T07:55:11Z</time>
      </trkpt>
      <trkpt lat="47.63305" lon="-2.82462">
        <ele>47.7</ele>
        <time>2025-01-28T07:55:12Z</time>
      </trkpt>
      <trkpt lat="47.63306" lon="-2.82462">
        <ele>47.6</ele>
        <time>2025-01-28T07:55:13Z</time>
      </trkpt>
      <trkpt lat="47.63307" lon="-2.82462">
        <ele>47.6</ele>
        <time>2025-01-28T07:55:14Z</time>
      </trkpt>
      <trkpt lat="47.63309" lon="-2.82463">
        <ele>47.6</ele>
        <time>2025-01-28T07:55:15Z</time>
      </trkpt>
      <trkpt lat="47.6331" lon="-2.82464">
        <ele>47.5</ele>
        <time>2025-01-28T07:55:16Z</time>
      </trkpt>
      <trkpt lat="47.63311" lon="-2.82464">
        <ele>47.5</ele>
        <time>2025-01-28T07:55:17Z</time>
      </trkpt>
      <trkpt lat="47.63313" lon="-2.82464">
        <ele>47.5</ele>
        <time>2025-01-28T07:55:18Z</time>
      </trkpt>
      <trkpt lat="47.63314" lon="-2.82464">
        <ele>47.4</ele>
        <time>2025-01-28T07:55:19Z</time>
      </trkpt>
      <trkpt lat="47.63315" lon="-2.82465">
        <ele>47.4</ele>
        <time>2025-01-28T07:55:20Z</time>
      </trkpt>
      <trkpt lat="47.63317" lon="-2.82464">
        <ele>47.3</ele>
        <time>2025-01-28T07:55:21Z</time>
      </trkpt>
      <trkpt lat="47.63318" lon="-2.82464">
        <ele>47.3</ele>
        <time>2025-01-28T07:55:22Z</time>
      </trkpt>
      <trkpt lat="47.63319" lon="-2.82464">
        <ele>47.2</ele>
        <time>2025-01-28T07:55:23Z</time>
      </trkpt>
      <trkpt lat="47.63321" lon="-2.82465">
        <ele>47.2</ele>
        <time>2025-01-28T07:55:24Z</time>
      </trkpt>
      <trkpt lat="47.63322" lon="-2.82466">
        <ele>47.2</ele>
        <time>2025-01-28T07:55:25Z</time>
      </trkpt>
      <trkpt lat="47.63323" lon="-2.82466">
        <ele>47.1</ele>
        <time>2025-01-28T07:55:26Z</time>
      </trkpt>
      <trkpt lat="47.63325" lon="-2.82466">
        <ele>47.1</ele>
        <time>2025-01-28T07:55:27Z</time>
      </trkpt>
      <trkpt lat="47.63326" lon="-2.82467">
        <ele>47.1</ele>
        <time>2025-01-28T07:55:28Z</time>
      </trkpt>
      <trkpt lat="47.63327" lon="-2.82467">
        <ele>47</ele>
        <time>2025-01-28T07:55:29Z</time>
      </trkpt>
      <trkpt lat="47.63329" lon="-2.82467">
        <ele>47</ele>
        <time>2025-01-28T07:55:30Z</time>
      </trkpt>
      <trkpt lat="47.6333" lon="-2.82467">
        <ele>46.9</ele>
        <time>2025-01-28T07:55:31Z</time>
      </trkpt>
      <trkpt lat="47.63332" lon="-2.82467">
        <ele>46.9</ele>
        <time>2025-01-28T07:55:32Z</time>
      </trkpt>
      <trkpt lat="47.63333" lon="-2.82467">
        <ele>46.8</ele>
        <time>2025-01-28T07:55:33Z</time>
      </trkpt>
      <trkpt lat="47.63334" lon="-2.82467">
        <ele>46.8</ele>
        <time>2025-01-28T07:55:34Z</time>
      </trkpt>
      <trkpt lat="47.63336" lon="-2.82467">
        <ele>46.8</ele>
        <time>2025-01-28T07:55:35Z</time>
      </trkpt>
      <trkpt lat="47.63337" lon="-2.82467">
        <ele>46.8</ele>
        <time>2025-01-28T07:55:36Z</time>
      </trkpt>
      <trkpt lat="47.63338" lon="-2.82467">
        <ele>46.8</ele>
        <time>2025-01-28T07:55:37Z</time>
      </trkpt>
      <trkpt lat="47.6334" lon="-2.82467">
        <ele>46.9</ele>
        <time>2025-01-28T07:55:38Z</time>
      </trkpt>
      <trkpt lat="47.63341" lon="-2.82467">
        <ele>46.9</ele>
        <time>2025-01-28T07:55:39Z</time>
      </trkpt>
      <trkpt lat="47.63343" lon="-2.82468">
        <ele>46.9</ele>
        <time>2025-01-28T07:55:40Z</time>
      </trkpt>
      <trkpt lat="47.63344" lon="-2.82468">
        <ele>46.9</ele>
        <time>2025-01-28T07:55:41Z</time>
      </trkpt>
      <trkpt lat="47.63345" lon="-2.82469">
        <ele>46.9</ele>
        <time>2025-01-28T07:55:42Z</time>
      </trkpt>
      <trkpt lat="47.63347" lon="-2.82469">
        <ele>46.9</ele>
        <time>2025-01-28T07:55:43Z</time>
      </trkpt>
      <trkpt lat="47.63348" lon="-2.82469">
        <ele>46.9</ele>
        <time>2025-01-28T07:55:44Z</time>
      </trkpt>
      <trkpt lat="47.63349" lon="-2.82469">
        <ele>46.9</ele>
        <time>2025-01-28T07:55:45Z</time>
      </trkpt>
      <trkpt lat="47.6335" lon="-2.82468">
        <ele>46.9</ele>
        <time>2025-01-28T07:55:46Z</time>
      </trkpt>
      <trkpt lat="47.63352" lon="-2.82468">
        <ele>46.9</ele>
        <time>2025-01-28T07:55:47Z</time>
      </trkpt>
      <trkpt lat="47.63353" lon="-2.82467">
        <ele>46.9</ele>
        <time>2025-01-28T07:55:48Z</time>
      </trkpt>
      <trkpt lat="47.63354" lon="-2.82465">
        <ele>46.9</ele>
        <time>2025-01-28T07:55:49Z</time>
      </trkpt>
      <trkpt lat="47.63354" lon="-2.82464">
        <ele>46.9</ele>
        <time>2025-01-28T07:55:50Z</time>
      </trkpt>
      <trkpt lat="47.63354" lon="-2.82461">
        <ele>46.9</ele>
        <time>2025-01-28T07:55:51Z</time>
      </trkpt>
      <trkpt lat="47.63353" lon="-2.82459">
        <ele>46.9</ele>
        <time>2025-01-28T07:55:52Z</time>
      </trkpt>
      <trkpt lat="47.63352" lon="-2.82458">
        <ele>46.8</ele>
        <time>2025-01-28T07:55:53Z</time>
      </trkpt>
      <trkpt lat="47.63351" lon="-2.82456">
        <ele>46.8</ele>
        <time>2025-01-28T07:55:54Z</time>
      </trkpt>
      <trkpt lat="47.6335" lon="-2.82455">
        <ele>46.7</ele>
        <time>2025-01-28T07:55:55Z</time>
      </trkpt>
      <trkpt lat="47.63349" lon="-2.82454">
        <ele>46.7</ele>
        <time>2025-01-28T07:55:56Z</time>
      </trkpt>
      <trkpt lat="47.63347" lon="-2.82453">
        <ele>46.7</ele>
        <time>2025-01-28T07:55:57Z</time>
      </trkpt>
      <trkpt lat="47.63346" lon="-2.82452">
        <ele>46.6</ele>
        <time>2025-01-28T07:55:58Z</time>
      </trkpt>
      <trkpt lat="47.63345" lon="-2.82451">
        <ele>46.6</ele>
        <time>2025-01-28T07:55:59Z</time>
      </trkpt>
      <trkpt lat="47.63344" lon="-2.82451">
        <ele>46.5</ele>
        <time>2025-01-28T07:56:00Z</time>
      </trkpt>
      <trkpt lat="47.63342" lon="-2.8245">
        <ele>46.5</ele>
        <time>2025-01-28T07:56:01Z</time>
      </trkpt>
      <trkpt lat="47.63341" lon="-2.8245">
        <ele>46.4</ele>
        <time>2025-01-28T07:56:02Z</time>
      </trkpt>
      <trkpt lat="47.6334" lon="-2.82449">
        <ele>46.4</ele>
        <time>2025-01-28T07:56:03Z</time>
      </trkpt>
      <trkpt lat="47.63339" lon="-2.82448">
        <ele>46.3</ele>
        <time>2025-01-28T07:56:04Z</time>
      </trkpt>
      <trkpt lat="47.63338" lon="-2.82448">
        <ele>46.3</ele>
        <time>2025-01-28T07:56:05Z</time>
      </trkpt>
      <trkpt lat="47.63336" lon="-2.82447">
        <ele>46.2</ele>
        <time>2025-01-28T07:56:06Z</time>
      </trkpt>
      <trkpt lat="47.63335" lon="-2.82446">
        <ele>46.1</ele>
        <time>2025-01-28T07:56:07Z</time>
      </trkpt>
      <trkpt lat="47.63334" lon="-2.82445">
        <ele>46</ele>
        <time>2025-01-28T07:56:08Z</time>
      </trkpt>
      <trkpt lat="47.63333" lon="-2.82444">
        <ele>46</ele>
        <time>2025-01-28T07:56:09Z</time>
      </trkpt>
      <trkpt lat="47.63333" lon="-2.82442">
        <ele>46</ele>
        <time>2025-01-28T07:56:10Z</time>
      </trkpt>
      <trkpt lat="47.63332" lon="-2.82441">
        <ele>46.1</ele>
        <time>2025-01-28T07:56:11Z</time>
      </trkpt>
      <trkpt lat="47.63331" lon="-2.82439">
        <ele>46.1</ele>
        <time>2025-01-28T07:56:12Z</time>
      </trkpt>
      <trkpt lat="47.6333" lon="-2.82437">
        <ele>46.1</ele>
        <time>2025-01-28T07:56:13Z</time>
      </trkpt>
      <trkpt lat="47.6333" lon="-2.82436">
        <ele>46.1</ele>
        <time>2025-01-28T07:56:14Z</time>
      </trkpt>
      <trkpt lat="47.63329" lon="-2.82434">
        <ele>46.1</ele>
        <time>2025-01-28T07:56:15Z</time>
      </trkpt>
      <trkpt lat="47.63328" lon="-2.82432">
        <ele>46.1</ele>
        <time>2025-01-28T07:56:16Z</time>
      </trkpt>
      <trkpt lat="47.63327" lon="-2.82431">
        <ele>46.1</ele>
        <time>2025-01-28T07:56:17Z</time>
      </trkpt>
      <trkpt lat="47.63326" lon="-2.82429">
        <ele>46.1</ele>
        <time>2025-01-28T07:56:18Z</time>
      </trkpt>
      <trkpt lat="47.63325" lon="-2.82428">
        <ele>46.1</ele>
        <time>2025-01-28T07:56:19Z</time>
      </trkpt>
      <trkpt lat="47.63324" lon="-2.82427">
        <ele>46.1</ele>
        <time>2025-01-28T07:56:20Z</time>
      </trkpt>
      <trkpt lat="47.63324" lon="-2.82425">
        <ele>46.1</ele>
        <time>2025-01-28T07:56:21Z</time>
      </trkpt>
      <trkpt lat="47.63323" lon="-2.82423">
        <ele>46.1</ele>
        <time>2025-01-28T07:56:22Z</time>
      </trkpt>
      <trkpt lat="47.63323" lon="-2.82421">
        <ele>46.1</ele>
        <time>2025-01-28T07:56:23Z</time>
      </trkpt>
      <trkpt lat="47.63323" lon="-2.82419">
        <ele>46</ele>
        <time>2025-01-28T07:56:24Z</time>
      </trkpt>
      <trkpt lat="47.63322" lon="-2.82417">
        <ele>46</ele>
        <time>2025-01-28T07:56:25Z</time>
      </trkpt>
      <trkpt lat="47.63322" lon="-2.82415">
        <ele>46</ele>
        <time>2025-01-28T07:56:26Z</time>
      </trkpt>
      <trkpt lat="47.63322" lon="-2.82413">
        <ele>45.9</ele>
        <time>2025-01-28T07:56:27Z</time>
      </trkpt>
      <trkpt lat="47.63322" lon="-2.82411">
        <ele>45.8</ele>
        <time>2025-01-28T07:56:28Z</time>
      </trkpt>
      <trkpt lat="47.63322" lon="-2.82409">
        <ele>45.7</ele>
        <time>2025-01-28T07:56:29Z</time>
      </trkpt>
      <trkpt lat="47.63322" lon="-2.82407">
        <ele>45.7</ele>
        <time>2025-01-28T07:56:30Z</time>
      </trkpt>
      <trkpt lat="47.63322" lon="-2.82405">
        <ele>45.6</ele>
        <time>2025-01-28T07:56:31Z</time>
      </trkpt>
      <trkpt lat="47.63322" lon="-2.82403">
        <ele>45.5</ele>
        <time>2025-01-28T07:56:32Z</time>
      </trkpt>
      <trkpt lat="47.63321" lon="-2.82401">
        <ele>45.4</ele>
        <time>2025-01-28T07:56:33Z</time>
      </trkpt>
      <trkpt lat="47.63321" lon="-2.82399">
        <ele>45.4</ele>
        <time>2025-01-28T07:56:34Z</time>
      </trkpt>
      <trkpt lat="47.63322" lon="-2.82397">
        <ele>45.3</ele>
        <time>2025-01-28T07:56:35Z</time>
      </trkpt>
      <trkpt lat="47.63322" lon="-2.82396">
        <ele>45.2</ele>
        <time>2025-01-28T07:56:36Z</time>
      </trkpt>
      <trkpt lat="47.63323" lon="-2.82394">
        <ele>45.2</ele>
        <time>2025-01-28T07:56:37Z</time>
      </trkpt>
      <trkpt lat="47.63323" lon="-2.82392">
        <ele>45.1</ele>
        <time>2025-01-28T07:56:38Z</time>
      </trkpt>
      <trkpt lat="47.63323" lon="-2.8239">
        <ele>45</ele>
        <time>2025-01-28T07:56:39Z</time>
      </trkpt>
      <trkpt lat="47.63324" lon="-2.82388">
        <ele>45</ele>
        <time>2025-01-28T07:56:40Z</time>
      </trkpt>
      <trkpt lat="47.63324" lon="-2.82387">
        <ele>44.9</ele>
        <time>2025-01-28T07:56:41Z</time>
      </trkpt>
      <trkpt lat="47.63325" lon="-2.82385">
        <ele>44.8</ele>
        <time>2025-01-28T07:56:42Z</time>
      </trkpt>
      <trkpt lat="47.63325" lon="-2.82383">
        <ele>44.8</ele>
        <time>2025-01-28T07:56:43Z</time>
      </trkpt>
      <trkpt lat="47.63326" lon="-2.82382">
        <ele>44.7</ele>
        <time>2025-01-28T07:56:44Z</time>
      </trkpt>
      <trkpt lat="47.63327" lon="-2.8238">
        <ele>44.7</ele>
        <time>2025-01-28T07:56:45Z</time>
      </trkpt>
      <trkpt lat="47.63328" lon="-2.82378">
        <ele>44.6</ele>
        <time>2025-01-28T07:56:46Z</time>
      </trkpt>
      <trkpt lat="47.63329" lon="-2.82376">
        <ele>44.5</ele>
        <time>2025-01-28T07:56:47Z</time>
      </trkpt>
      <trkpt lat="47.6333" lon="-2.82375">
        <ele>44.5</ele>
        <time>2025-01-28T07:56:48Z</time>
      </trkpt>
      <trkpt lat="47.6333" lon="-2.82373">
        <ele>44.4</ele>
        <time>2025-01-28T07:56:49Z</time>
      </trkpt>
      <trkpt lat="47.63331" lon="-2.82372">
        <ele>44.4</ele>
        <time>2025-01-28T07:56:50Z</time>
      </trkpt>
      <trkpt lat="47.63332" lon="-2.8237">
        <ele>44.3</ele>
        <time>2025-01-28T07:56:51Z</time>
      </trkpt>
      <trkpt lat="47.63333" lon="-2.82369">
        <ele>44.3</ele>
        <time>2025-01-28T07:56:52Z</time>
      </trkpt>
      <trkpt lat="47.63334" lon="-2.82367">
        <ele>44.3</ele>
        <time>2025-01-28T07:56:53Z</time>
      </trkpt>
      <trkpt lat="47.63336" lon="-2.82367">
        <ele>44.3</ele>
        <time>2025-01-28T07:56:54Z</time>
      </trkpt>
      <trkpt lat="47.63337" lon="-2.82367">
        <ele>44.4</ele>
        <time>2025-01-28T07:56:55Z</time>
      </trkpt>
      <trkpt lat="47.63338" lon="-2.82366">
        <ele>44.4</ele>
        <time>2025-01-28T07:56:56Z</time>
      </trkpt>
      <trkpt lat="47.63339" lon="-2.82365">
        <ele>44.4</ele>
        <time>2025-01-28T07:56:57Z</time>
      </trkpt>
      <trkpt lat="47.63341" lon="-2.82364">
        <ele>44.4</ele>
        <time>2025-01-28T07:56:58Z</time>
      </trkpt>
      <trkpt lat="47.63342" lon="-2.82364">
        <ele>44.4</ele>
        <time>2025-01-28T07:56:59Z</time>
      </trkpt>
      <trkpt lat="47.63343" lon="-2.82362">
        <ele>44.4</ele>
        <time>2025-01-28T07:57:00Z</time>
      </trkpt>
      <trkpt lat="47.63344" lon="-2.8236">
        <ele>44.3</ele>
        <time>2025-01-28T07:57:01Z</time>
      </trkpt>
      <trkpt lat="47.63344" lon="-2.82358">
        <ele>44.3</ele>
        <time>2025-01-28T07:57:02Z</time>
      </trkpt>
      <trkpt lat="47.63344" lon="-2.82356">
        <ele>44.3</ele>
        <time>2025-01-28T07:57:03Z</time>
      </trkpt>
      <trkpt lat="47.63343" lon="-2.82354">
        <ele>44.2</ele>
        <time>2025-01-28T07:57:04Z</time>
      </trkpt>
      <trkpt lat="47.63342" lon="-2.82352">
        <ele>44.1</ele>
        <time>2025-01-28T07:57:05Z</time>
      </trkpt>
      <trkpt lat="47.63341" lon="-2.8235">
        <ele>44</ele>
        <time>2025-01-28T07:57:06Z</time>
      </trkpt>
      <trkpt lat="47.6334" lon="-2.82348">
        <ele>43.9</ele>
        <time>2025-01-28T07:57:07Z</time>
      </trkpt>
      <trkpt lat="47.6334" lon="-2.82347">
        <ele>43.8</ele>
        <time>2025-01-28T07:57:08Z</time>
      </trkpt>
      <trkpt lat="47.6334" lon="-2.82345">
        <ele>43.8</ele>
        <time>2025-01-28T07:57:09Z</time>
      </trkpt>
      <trkpt lat="47.63339" lon="-2.82343">
        <ele>43.7</ele>
        <time>2025-01-28T07:57:10Z</time>
      </trkpt>
      <trkpt lat="47.63338" lon="-2.82341">
        <ele>43.6</ele>
        <time>2025-01-28T07:57:11Z</time>
      </trkpt>
      <trkpt lat="47.63337" lon="-2.8234">
        <ele>43.5</ele>
        <time>2025-01-28T07:57:12Z</time>
      </trkpt>
      <trkpt lat="47.63337" lon="-2.82338">
        <ele>43.4</ele>
        <time>2025-01-28T07:57:13Z</time>
      </trkpt>
      <trkpt lat="47.63336" lon="-2.82336">
        <ele>43.3</ele>
        <time>2025-01-28T07:57:14Z</time>
      </trkpt>
      <trkpt lat="47.63335" lon="-2.82334">
        <ele>43.2</ele>
        <time>2025-01-28T07:57:15Z</time>
      </trkpt>
      <trkpt lat="47.63334" lon="-2.82333">
        <ele>43.1</ele>
        <time>2025-01-28T07:57:16Z</time>
      </trkpt>
      <trkpt lat="47.63334" lon="-2.82331">
        <ele>43.1</ele>
        <time>2025-01-28T07:57:17Z</time>
      </trkpt>
      <trkpt lat="47.63333" lon="-2.82329">
        <ele>43.2</ele>
        <time>2025-01-28T07:57:18Z</time>
      </trkpt>
      <trkpt lat="47.63333" lon="-2.82327">
        <ele>43.2</ele>
        <time>2025-01-28T07:57:19Z</time>
      </trkpt>
      <trkpt lat="47.63333" lon="-2.82325">
        <ele>43.3</ele>
        <time>2025-01-28T07:57:20Z</time>
      </trkpt>
      <trkpt lat="47.63332" lon="-2.82323">
        <ele>43.3</ele>
        <time>2025-01-28T07:57:21Z</time>
      </trkpt>
      <trkpt lat="47.63331" lon="-2.82322">
        <ele>43.4</ele>
        <time>2025-01-28T07:57:22Z</time>
      </trkpt>
      <trkpt lat="47.63331" lon="-2.8232">
        <ele>43.5</ele>
        <time>2025-01-28T07:57:23Z</time>
      </trkpt>
      <trkpt lat="47.63331" lon="-2.82318">
        <ele>43.5</ele>
        <time>2025-01-28T07:57:24Z</time>
      </trkpt>
      <trkpt lat="47.6333" lon="-2.82316">
        <ele>43.6</ele>
        <time>2025-01-28T07:57:25Z</time>
      </trkpt>
      <trkpt lat="47.6333" lon="-2.82314">
        <ele>43.6</ele>
        <time>2025-01-28T07:57:26Z</time>
      </trkpt>
      <trkpt lat="47.63329" lon="-2.82312">
        <ele>43.7</ele>
        <time>2025-01-28T07:57:27Z</time>
      </trkpt>
      <trkpt lat="47.63329" lon="-2.8231">
        <ele>43.7</ele>
        <time>2025-01-28T07:57:28Z</time>
      </trkpt>
      <trkpt lat="47.63328" lon="-2.82308">
        <ele>43.7</ele>
        <time>2025-01-28T07:57:29Z</time>
      </trkpt>
      <trkpt lat="47.63327" lon="-2.82306">
        <ele>43.8</ele>
        <time>2025-01-28T07:57:30Z</time>
      </trkpt>
      <trkpt lat="47.63327" lon="-2.82304">
        <ele>43.7</ele>
        <time>2025-01-28T07:57:31Z</time>
      </trkpt>
      <trkpt lat="47.63327" lon="-2.82302">
        <ele>43.6</ele>
        <time>2025-01-28T07:57:32Z</time>
      </trkpt>
      <trkpt lat="47.63327" lon="-2.823">
        <ele>43.5</ele>
        <time>2025-01-28T07:57:33Z</time>
      </trkpt>
      <trkpt lat="47.63326" lon="-2.82298">
        <ele>43.5</ele>
        <time>2025-01-28T07:57:34Z</time>
      </trkpt>
      <trkpt lat="47.63325" lon="-2.82296">
        <ele>43.4</ele>
        <time>2025-01-28T07:57:35Z</time>
      </trkpt>
      <trkpt lat="47.63324" lon="-2.82294">
        <ele>43.3</ele>
        <time>2025-01-28T07:57:36Z</time>
      </trkpt>
      <trkpt lat="47.63323" lon="-2.82292">
        <ele>43.2</ele>
        <time>2025-01-28T07:57:37Z</time>
      </trkpt>
      <trkpt lat="47.63323" lon="-2.82291">
        <ele>43.1</ele>
        <time>2025-01-28T07:57:38Z</time>
      </trkpt>
      <trkpt lat="47.63322" lon="-2.82289">
        <ele>43</ele>
        <time>2025-01-28T07:57:39Z</time>
      </trkpt>
      <trkpt lat="47.63321" lon="-2.82288">
        <ele>42.9</ele>
        <time>2025-01-28T07:57:40Z</time>
      </trkpt>
      <trkpt lat="47.6332" lon="-2.82286">
        <ele>42.8</ele>
        <time>2025-01-28T07:57:41Z</time>
      </trkpt>
      <trkpt lat="47.6332" lon="-2.82284">
        <ele>42.7</ele>
        <time>2025-01-28T07:57:42Z</time>
      </trkpt>
      <trkpt lat="47.6332" lon="-2.82282">
        <ele>42.7</ele>
        <time>2025-01-28T07:57:43Z</time>
      </trkpt>
      <trkpt lat="47.63319" lon="-2.8228">
        <ele>42.6</ele>
        <time>2025-01-28T07:57:44Z</time>
      </trkpt>
      <trkpt lat="47.63319" lon="-2.82279">
        <ele>42.5</ele>
        <time>2025-01-28T07:57:45Z</time>
      </trkpt>
      <trkpt lat="47.63318" lon="-2.82277">
        <ele>42.5</ele>
        <time>2025-01-28T07:57:46Z</time>
      </trkpt>
      <trkpt lat="47.63318" lon="-2.82275">
        <ele>42.4</ele>
        <time>2025-01-28T07:57:47Z</time>
      </trkpt>
      <trkpt lat="47.63317" lon="-2.82273">
        <ele>42.4</ele>
        <time>2025-01-28T07:57:48Z</time>
      </trkpt>
      <trkpt lat="47.63317" lon="-2.82272">
        <ele>42.4</ele>
        <time>2025-01-28T07:57:49Z</time>
      </trkpt>
      <trkpt lat="47.63317" lon="-2.8227">
        <ele>42.4</ele>
        <time>2025-01-28T07:57:50Z</time>
      </trkpt>
      <trkpt lat="47.63316" lon="-2.82268">
        <ele>42.4</ele>
        <time>2025-01-28T07:57:51Z</time>
      </trkpt>
      <trkpt lat="47.63316" lon="-2.82266">
        <ele>42.4</ele>
        <time>2025-01-28T07:57:52Z</time>
      </trkpt>
      <trkpt lat="47.63315" lon="-2.82264">
        <ele>42.4</ele>
        <time>2025-01-28T07:57:53Z</time>
      </trkpt>
      <trkpt lat="47.63315" lon="-2.82263">
        <ele>42.3</ele>
        <time>2025-01-28T07:57:54Z</time>
      </trkpt>
      <trkpt lat="47.63314" lon="-2.82261">
        <ele>42.3</ele>
        <time>2025-01-28T07:57:55Z</time>
      </trkpt>
      <trkpt lat="47.63314" lon="-2.8226">
        <ele>42.3</ele>
        <time>2025-01-28T07:57:56Z</time>
      </trkpt>
      <trkpt lat="47.63313" lon="-2.82259">
        <ele>42.3</ele>
        <time>2025-01-28T07:57:57Z</time>
      </trkpt>
      <trkpt lat="47.63312" lon="-2.82257">
        <ele>42.2</ele>
        <time>2025-01-28T07:57:58Z</time>
      </trkpt>
      <trkpt lat="47.63312" lon="-2.82255">
        <ele>42.2</ele>
        <time>2025-01-28T07:57:59Z</time>
      </trkpt>
      <trkpt lat="47.63311" lon="-2.82254">
        <ele>42.2</ele>
        <time>2025-01-28T07:58:00Z</time>
      </trkpt>
      <trkpt lat="47.63311" lon="-2.82252">
        <ele>42.2</ele>
        <time>2025-01-28T07:58:01Z</time>
      </trkpt>
      <trkpt lat="47.63311" lon="-2.8225">
        <ele>42.2</ele>
        <time>2025-01-28T07:58:02Z</time>
      </trkpt>
      <trkpt lat="47.6331" lon="-2.82248">
        <ele>42.2</ele>
        <time>2025-01-28T07:58:03Z</time>
      </trkpt>
      <trkpt lat="47.6331" lon="-2.82246">
        <ele>42.1</ele>
        <time>2025-01-28T07:58:04Z</time>
      </trkpt>
      <trkpt lat="47.63309" lon="-2.82245">
        <ele>42.1</ele>
        <time>2025-01-28T07:58:05Z</time>
      </trkpt>
      <trkpt lat="47.63309" lon="-2.82243">
        <ele>42.1</ele>
        <time>2025-01-28T07:58:06Z</time>
      </trkpt>
      <trkpt lat="47.63308" lon="-2.82241">
        <ele>42.1</ele>
        <time>2025-01-28T07:58:07Z</time>
      </trkpt>
      <trkpt lat="47.63307" lon="-2.82239">
        <ele>42.1</ele>
        <time>2025-01-28T07:58:08Z</time>
      </trkpt>
      <trkpt lat="47.63306" lon="-2.82237">
        <ele>42</ele>
        <time>2025-01-28T07:58:09Z</time>
      </trkpt>
      <trkpt lat="47.63306" lon="-2.82235">
        <ele>42</ele>
        <time>2025-01-28T07:58:10Z</time>
      </trkpt>
      <trkpt lat="47.63305" lon="-2.82234">
        <ele>42</ele>
        <time>2025-01-28T07:58:11Z</time>
      </trkpt>
      <trkpt lat="47.63305" lon="-2.82232">
        <ele>42</ele>
        <time>2025-01-28T07:58:12Z</time>
      </trkpt>
      <trkpt lat="47.63304" lon="-2.8223">
        <ele>42</ele>
        <time>2025-01-28T07:58:13Z</time>
      </trkpt>
      <trkpt lat="47.63303" lon="-2.82229">
        <ele>42</ele>
        <time>2025-01-28T07:58:14Z</time>
      </trkpt>
      <trkpt lat="47.63303" lon="-2.82227">
        <ele>42</ele>
        <time>2025-01-28T07:58:15Z</time>
      </trkpt>
      <trkpt lat="47.63303" lon="-2.82226">
        <ele>42</ele>
        <time>2025-01-28T07:58:16Z</time>
      </trkpt>
      <trkpt lat="47.63303" lon="-2.82224">
        <ele>42</ele>
        <time>2025-01-28T07:58:17Z</time>
      </trkpt>
      <trkpt lat="47.63303" lon="-2.82222">
        <ele>42</ele>
        <time>2025-01-28T07:58:18Z</time>
      </trkpt>
      <trkpt lat="47.63304" lon="-2.8222">
        <ele>42</ele>
        <time>2025-01-28T07:58:19Z</time>
      </trkpt>
      <trkpt lat="47.63304" lon="-2.82218">
        <ele>42</ele>
        <time>2025-01-28T07:58:20Z</time>
      </trkpt>
      <trkpt lat="47.63305" lon="-2.82216">
        <ele>42</ele>
        <time>2025-01-28T07:58:21Z</time>
      </trkpt>
      <trkpt lat="47.63306" lon="-2.82214">
        <ele>42</ele>
        <time>2025-01-28T07:58:22Z</time>
      </trkpt>
      <trkpt lat="47.63306" lon="-2.82213">
        <ele>42</ele>
        <time>2025-01-28T07:58:23Z</time>
      </trkpt>
      <trkpt lat="47.63306" lon="-2.82211">
        <ele>42</ele>
        <time>2025-01-28T07:58:24Z</time>
      </trkpt>
      <trkpt lat="47.63307" lon="-2.82209">
        <ele>42</ele>
        <time>2025-01-28T07:58:25Z</time>
      </trkpt>
      <trkpt lat="47.63307" lon="-2.82207">
        <ele>42</ele>
        <time>2025-01-28T07:58:26Z</time>
      </trkpt>
      <trkpt lat="47.63307" lon="-2.82205">
        <ele>42</ele>
        <time>2025-01-28T07:58:27Z</time>
      </trkpt>
      <trkpt lat="47.63308" lon="-2.82204">
        <ele>42</ele>
        <time>2025-01-28T07:58:28Z</time>
      </trkpt>
      <trkpt lat="47.63308" lon="-2.82202">
        <ele>42</ele>
        <time>2025-01-28T07:58:29Z</time>
      </trkpt>
      <trkpt lat="47.63309" lon="-2.822">
        <ele>42</ele>
        <time>2025-01-28T07:58:30Z</time>
      </trkpt>
      <trkpt lat="47.63309" lon="-2.82198">
        <ele>42</ele>
        <time>2025-01-28T07:58:31Z</time>
      </trkpt>
      <trkpt lat="47.63309" lon="-2.82196">
        <ele>42</ele>
        <time>2025-01-28T07:58:32Z</time>
      </trkpt>
      <trkpt lat="47.6331" lon="-2.82194">
        <ele>42</ele>
        <time>2025-01-28T07:58:33Z</time>
      </trkpt>
      <trkpt lat="47.6331" lon="-2.82192">
        <ele>42</ele>
        <time>2025-01-28T07:58:34Z</time>
      </trkpt>
      <trkpt lat="47.63311" lon="-2.8219">
        <ele>42</ele>
        <time>2025-01-28T07:58:35Z</time>
      </trkpt>
      <trkpt lat="47.63311" lon="-2.82189">
        <ele>42</ele>
        <time>2025-01-28T07:58:36Z</time>
      </trkpt>
      <trkpt lat="47.63311" lon="-2.82187">
        <ele>42</ele>
        <time>2025-01-28T07:58:37Z</time>
      </trkpt>
      <trkpt lat="47.63312" lon="-2.82185">
        <ele>42</ele>
        <time>2025-01-28T07:58:38Z</time>
      </trkpt>
      <trkpt lat="47.63312" lon="-2.82183">
        <ele>42</ele>
        <time>2025-01-28T07:58:39Z</time>
      </trkpt>
      <trkpt lat="47.63312" lon="-2.82181">
        <ele>42</ele>
        <time>2025-01-28T07:58:40Z</time>
      </trkpt>
      <trkpt lat="47.63312" lon="-2.82179">
        <ele>42</ele>
        <time>2025-01-28T07:58:41Z</time>
      </trkpt>
      <trkpt lat="47.63312" lon="-2.82177">
        <ele>42</ele>
        <time>2025-01-28T07:58:42Z</time>
      </trkpt>
      <trkpt lat="47.63312" lon="-2.82175">
        <ele>42</ele>
        <time>2025-01-28T07:58:43Z</time>
      </trkpt>
      <trkpt lat="47.63313" lon="-2.82173">
        <ele>42</ele>
        <time>2025-01-28T07:58:44Z</time>
      </trkpt>
      <trkpt lat="47.63313" lon="-2.82171">
        <ele>42</ele>
        <time>2025-01-28T07:58:45Z</time>
      </trkpt>
      <trkpt lat="47.63314" lon="-2.8217">
        <ele>42</ele>
        <time>2025-01-28T07:58:46Z</time>
      </trkpt>
      <trkpt lat="47.63314" lon="-2.82168">
        <ele>42</ele>
        <time>2025-01-28T07:58:47Z</time>
      </trkpt>
      <trkpt lat="47.63315" lon="-2.82166">
        <ele>42</ele>
        <time>2025-01-28T07:58:48Z</time>
      </trkpt>
      <trkpt lat="47.63315" lon="-2.82164">
        <ele>41.9</ele>
        <time>2025-01-28T07:58:49Z</time>
      </trkpt>
      <trkpt lat="47.63315" lon="-2.82162">
        <ele>41.9</ele>
        <time>2025-01-28T07:58:50Z</time>
      </trkpt>
      <trkpt lat="47.63315" lon="-2.82161">
        <ele>41.9</ele>
        <time>2025-01-28T07:58:51Z</time>
      </trkpt>
      <trkpt lat="47.63316" lon="-2.82159">
        <ele>41.8</ele>
        <time>2025-01-28T07:58:52Z</time>
      </trkpt>
      <trkpt lat="47.63316" lon="-2.82157">
        <ele>41.8</ele>
        <time>2025-01-28T07:58:53Z</time>
      </trkpt>
      <trkpt lat="47.63316" lon="-2.82155">
        <ele>41.7</ele>
        <time>2025-01-28T07:58:54Z</time>
      </trkpt>
      <trkpt lat="47.63316" lon="-2.82154">
        <ele>41.7</ele>
        <time>2025-01-28T07:58:55Z</time>
      </trkpt>
      <trkpt lat="47.63317" lon="-2.82152">
        <ele>41.7</ele>
        <time>2025-01-28T07:58:56Z</time>
      </trkpt>
      <trkpt lat="47.63317" lon="-2.8215">
        <ele>41.6</ele>
        <time>2025-01-28T07:58:57Z</time>
      </trkpt>
      <trkpt lat="47.63318" lon="-2.82148">
        <ele>41.6</ele>
        <time>2025-01-28T07:58:58Z</time>
      </trkpt>
      <trkpt lat="47.63318" lon="-2.82147">
        <ele>41.6</ele>
        <time>2025-01-28T07:58:59Z</time>
      </trkpt>
      <trkpt lat="47.63318" lon="-2.82145">
        <ele>41.6</ele>
        <time>2025-01-28T07:59:00Z</time>
      </trkpt>
      <trkpt lat="47.63319" lon="-2.82143">
        <ele>41.6</ele>
        <time>2025-01-28T07:59:01Z</time>
      </trkpt>
      <trkpt lat="47.63319" lon="-2.82142">
        <ele>41.5</ele>
        <time>2025-01-28T07:59:02Z</time>
      </trkpt>
      <trkpt lat="47.63319" lon="-2.82141">
        <ele>41.5</ele>
        <time>2025-01-28T07:59:03Z</time>
      </trkpt>
      <trkpt lat="47.63319" lon="-2.8214">
        <ele>41.5</ele>
        <time>2025-01-28T07:59:04Z</time>
      </trkpt>
      <trkpt lat="47.6332" lon="-2.82138">
        <ele>41.5</ele>
        <time>2025-01-28T07:59:05Z</time>
      </trkpt>
      <trkpt lat="47.63321" lon="-2.82137">
        <ele>41.5</ele>
        <time>2025-01-28T07:59:06Z</time>
      </trkpt>
      <trkpt lat="47.63321" lon="-2.82136">
        <ele>41.5</ele>
        <time>2025-01-28T07:59:07Z</time>
      </trkpt>
      <trkpt lat="47.63322" lon="-2.82135">
        <ele>41.5</ele>
        <time>2025-01-28T07:59:08Z</time>
      </trkpt>
      <trkpt lat="47.63322" lon="-2.82135">
        <ele>41.5</ele>
        <time>2025-01-28T07:59:09Z</time>
      </trkpt>
      <trkpt lat="47.63323" lon="-2.82134">
        <ele>41.5</ele>
        <time>2025-01-28T07:59:10Z</time>
      </trkpt>
      <trkpt lat="47.63323" lon="-2.82133">
        <ele>41.5</ele>
        <time>2025-01-28T07:59:11Z</time>
      </trkpt>
      <trkpt lat="47.63323" lon="-2.82131">
        <ele>41.5</ele>
        <time>2025-01-28T07:59:12Z</time>
      </trkpt>
      <trkpt lat="47.63323" lon="-2.82129">
        <ele>41.4</ele>
        <time>2025-01-28T07:59:13Z</time>
      </trkpt>
      <trkpt lat="47.63324" lon="-2.82128">
        <ele>41.4</ele>
        <time>2025-01-28T07:59:14Z</time>
      </trkpt>
      <trkpt lat="47.63324" lon="-2.82126">
        <ele>41.4</ele>
        <time>2025-01-28T07:59:15Z</time>
      </trkpt>
      <trkpt lat="47.63325" lon="-2.82125">
        <ele>41.3</ele>
        <time>2025-01-28T07:59:16Z</time>
      </trkpt>
      <trkpt lat="47.63325" lon="-2.82123">
        <ele>41.3</ele>
        <time>2025-01-28T07:59:17Z</time>
      </trkpt>
      <trkpt lat="47.63325" lon="-2.82124">
        <ele>41.3</ele>
        <time>2025-01-28T07:59:18Z</time>
      </trkpt>
      <trkpt lat="47.63325" lon="-2.82125">
        <ele>41.3</ele>
        <time>2025-01-28T07:59:19Z</time>
      </trkpt>
      <trkpt lat="47.63325" lon="-2.82125">
        <ele>41.3</ele>
        <time>2025-01-28T07:59:20Z</time>
      </trkpt>
      <trkpt lat="47.63325" lon="-2.82125">
        <ele>41.3</ele>
        <time>2025-01-28T07:59:21Z</time>
      </trkpt>
      <trkpt lat="47.63325" lon="-2.82125">
        <ele>41.3</ele>
        <time>2025-01-28T07:59:22Z</time>
      </trkpt>
      <trkpt lat="47.63325" lon="-2.82125">
        <ele>41.3</ele>
        <time>2025-01-28T07:59:23Z</time>
      </trkpt>
      <trkpt lat="47.63325" lon="-2.82124">
        <ele>41.3</ele>
        <time>2025-01-28T07:59:24Z</time>
      </trkpt>
      <trkpt lat="47.63325" lon="-2.82124">
        <ele>41.3</ele>
        <time>2025-01-28T07:59:25Z</time>
      </trkpt>
      <trkpt lat="47.63325" lon="-2.82121">
        <ele>41.2</ele>
        <time>2025-01-28T07:59:26Z</time>
      </trkpt>
      <trkpt lat="47.63325" lon="-2.82121">
        <ele>41.3</ele>
        <time>2025-01-28T07:59:27Z</time>
      </trkpt>
      <trkpt lat="47.63326" lon="-2.82124">
        <ele>41.3</ele>
        <time>2025-01-28T07:59:28Z</time>
      </trkpt>
      <trkpt lat="47.63326" lon="-2.82126">
        <ele>41.4</ele>
        <time>2025-01-28T07:59:29Z</time>
      </trkpt>
      <trkpt lat="47.63325" lon="-2.82128">
        <ele>41.4</ele>
        <time>2025-01-28T07:59:30Z</time>
      </trkpt>
      <trkpt lat="47.63324" lon="-2.8213">
        <ele>41.5</ele>
        <time>2025-01-28T07:59:31Z</time>
      </trkpt>
      <trkpt lat="47.63324" lon="-2.82132">
        <ele>41.5</ele>
        <time>2025-01-28T07:59:32Z</time>
      </trkpt>
      <trkpt lat="47.63323" lon="-2.82134">
        <ele>41.5</ele>
        <time>2025-01-28T07:59:33Z</time>
      </trkpt>
      <trkpt lat="47.63322" lon="-2.82135">
        <ele>41.5</ele>
        <time>2025-01-28T07:59:34Z</time>
      </trkpt>
      <trkpt lat="47.63321" lon="-2.82136">
        <ele>41.5</ele>
        <time>2025-01-28T07:59:35Z</time>
      </trkpt>
      <trkpt lat="47.63321" lon="-2.82138">
        <ele>41.5</ele>
        <time>2025-01-28T07:59:36Z</time>
      </trkpt>
      <trkpt lat="47.6332" lon="-2.8214">
        <ele>41.6</ele>
        <time>2025-01-28T07:59:37Z</time>
      </trkpt>
      <trkpt lat="47.6332" lon="-2.82143">
        <ele>41.6</ele>
        <time>2025-01-28T07:59:38Z</time>
      </trkpt>
      <trkpt lat="47.6332" lon="-2.82145">
        <ele>41.6</ele>
        <time>2025-01-28T07:59:39Z</time>
      </trkpt>
      <trkpt lat="47.63319" lon="-2.82147">
        <ele>41.6</ele>
        <time>2025-01-28T07:59:40Z</time>
      </trkpt>
      <trkpt lat="47.63319" lon="-2.82149">
        <ele>41.7</ele>
        <time>2025-01-28T07:59:41Z</time>
      </trkpt>
      <trkpt lat="47.63318" lon="-2.82151">
        <ele>41.7</ele>
        <time>2025-01-28T07:59:42Z</time>
      </trkpt>
      <trkpt lat="47.63318" lon="-2.82152">
        <ele>41.7</ele>
        <time>2025-01-28T07:59:43Z</time>
      </trkpt>
      <trkpt lat="47.63318" lon="-2.82154">
        <ele>41.7</ele>
        <time>2025-01-28T07:59:44Z</time>
      </trkpt>
      <trkpt lat="47.63317" lon="-2.82155">
        <ele>41.8</ele>
        <time>2025-01-28T07:59:45Z</time>
      </trkpt>
      <trkpt lat="47.63316" lon="-2.82156">
        <ele>41.8</ele>
        <time>2025-01-28T07:59:46Z</time>
      </trkpt>
      <trkpt lat="47.63315" lon="-2.82157">
        <ele>41.8</ele>
        <time>2025-01-28T07:59:47Z</time>
      </trkpt>
      <trkpt lat="47.63314" lon="-2.82156">
        <ele>41.7</ele>
        <time>2025-01-28T07:59:48Z</time>
      </trkpt>
      <trkpt lat="47.63313" lon="-2.82155">
        <ele>41.7</ele>
        <time>2025-01-28T07:59:49Z</time>
      </trkpt>
      <trkpt lat="47.63312" lon="-2.82154">
        <ele>41.7</ele>
        <time>2025-01-28T07:59:50Z</time>
      </trkpt>
      <trkpt lat="47.63312" lon="-2.82152">
        <ele>41.6</ele>
        <time>2025-01-28T07:59:51Z</time>
      </trkpt>
      <trkpt lat="47.6331" lon="-2.8215">
        <ele>41.5</ele>
        <time>2025-01-28T07:59:52Z</time>
      </trkpt>
      <trkpt lat="47.6331" lon="-2.82149">
        <ele>41.4</ele>
        <time>2025-01-28T07:59:53Z</time>
      </trkpt>
      <trkpt lat="47.63309" lon="-2.82147">
        <ele>41.4</ele>
        <time>2025-01-28T07:59:54Z</time>
      </trkpt>
      <trkpt lat="47.63307" lon="-2.82145">
        <ele>41.3</ele>
        <time>2025-01-28T07:59:55Z</time>
      </trkpt>
      <trkpt lat="47.63306" lon="-2.82143">
        <ele>41.2</ele>
        <time>2025-01-28T07:59:56Z</time>
      </trkpt>
      <trkpt lat="47.63305" lon="-2.82142">
        <ele>41.1</ele>
        <time>2025-01-28T07:59:57Z</time>
      </trkpt>
      <trkpt lat="47.63304" lon="-2.8214">
        <ele>41</ele>
        <time>2025-01-28T07:59:58Z</time>
      </trkpt>
      <trkpt lat="47.63303" lon="-2.82139">
        <ele>41</ele>
        <time>2025-01-28T07:59:59Z</time>
      </trkpt>
      <trkpt lat="47.63302" lon="-2.82138">
        <ele>41</ele>
        <time>2025-01-28T08:00:00Z</time>
      </trkpt>
      <trkpt lat="47.63301" lon="-2.82136">
        <ele>41</ele>
        <time>2025-01-28T08:00:01Z</time>
      </trkpt>
      <trkpt lat="47.63301" lon="-2.82135">
        <ele>41</ele>
        <time>2025-01-28T08:00:02Z</time>
      </trkpt>
      <trkpt lat="47.633" lon="-2.82132">
        <ele>41</ele>
        <time>2025-01-28T08:00:03Z</time>
      </trkpt>
      <trkpt lat="47.633" lon="-2.8213">
        <ele>41</ele>
        <time>2025-01-28T08:00:04Z</time>
      </trkpt>
      <trkpt lat="47.633" lon="-2.82128">
        <ele>41</ele>
        <time>2025-01-28T08:00:05Z</time>
      </trkpt>
      <trkpt lat="47.633" lon="-2.82127">
        <ele>41</ele>
        <time>2025-01-28T08:00:06Z</time>
      </trkpt>
      <trkpt lat="47.63299" lon="-2.82125">
        <ele>41</ele>
        <time>2025-01-28T08:00:07Z</time>
      </trkpt>
      <trkpt lat="47.63298" lon="-2.82123">
        <ele>41</ele>
        <time>2025-01-28T08:00:08Z</time>
      </trkpt>
      <trkpt lat="47.63297" lon="-2.82121">
        <ele>41</ele>
        <time>2025-01-28T08:00:09Z</time>
      </trkpt>
      <trkpt lat="47.63297" lon="-2.8212">
        <ele>41</ele>
        <time>2025-01-28T08:00:10Z</time>
      </trkpt>
      <trkpt lat="47.63296" lon="-2.82118">
        <ele>41</ele>
        <time>2025-01-28T08:00:11Z</time>
      </trkpt>
      <trkpt lat="47.63296" lon="-2.82116">
        <ele>41</ele>
        <time>2025-01-28T08:00:12Z</time>
      </trkpt>
      <trkpt lat="47.63295" lon="-2.82115">
        <ele>41</ele>
        <time>2025-01-28T08:00:13Z</time>
      </trkpt>
      <trkpt lat="47.63294" lon="-2.82113">
        <ele>41</ele>
        <time>2025-01-28T08:00:14Z</time>
      </trkpt>
      <trkpt lat="47.63293" lon="-2.82111">
        <ele>41</ele>
        <time>2025-01-28T08:00:15Z</time>
      </trkpt>
      <trkpt lat="47.63292" lon="-2.8211">
        <ele>41</ele>
        <time>2025-01-28T08:00:16Z</time>
      </trkpt>
      <trkpt lat="47.63292" lon="-2.82108">
        <ele>41</ele>
        <time>2025-01-28T08:00:17Z</time>
      </trkpt>
      <trkpt lat="47.63291" lon="-2.82107">
        <ele>41</ele>
        <time>2025-01-28T08:00:18Z</time>
      </trkpt>
      <trkpt lat="47.6329" lon="-2.82106">
        <ele>41</ele>
        <time>2025-01-28T08:00:19Z</time>
      </trkpt>
      <trkpt lat="47.63289" lon="-2.82105">
        <ele>41</ele>
        <time>2025-01-28T08:00:20Z</time>
      </trkpt>
      <trkpt lat="47.63289" lon="-2.82104">
        <ele>41</ele>
        <time>2025-01-28T08:00:21Z</time>
      </trkpt>
      <trkpt lat="47.63288" lon="-2.82103">
        <ele>41</ele>
        <time>2025-01-28T08:00:22Z</time>
      </trkpt>
      <trkpt lat="47.63288" lon="-2.82103">
        <ele>41</ele>
        <time>2025-01-28T08:00:23Z</time>
      </trkpt>
      <trkpt lat="47.63287" lon="-2.82102">
        <ele>41</ele>
        <time>2025-01-28T08:00:24Z</time>
      </trkpt>
      <trkpt lat="47.63286" lon="-2.821">
        <ele>41</ele>
        <time>2025-01-28T08:00:25Z</time>
      </trkpt>
      <trkpt lat="47.63286" lon="-2.82098">
        <ele>41</ele>
        <time>2025-01-28T08:00:26Z</time>
      </trkpt>
      <trkpt lat="47.63285" lon="-2.82096">
        <ele>41</ele>
        <time>2025-01-28T08:00:27Z</time>
      </trkpt>
      <trkpt lat="47.63284" lon="-2.82095">
        <ele>41</ele>
        <time>2025-01-28T08:00:28Z</time>
      </trkpt>
      <trkpt lat="47.63284" lon="-2.82093">
        <ele>41</ele>
        <time>2025-01-28T08:00:29Z</time>
      </trkpt>
      <trkpt lat="47.63283" lon="-2.82092">
        <ele>41</ele>
        <time>2025-01-28T08:00:30Z</time>
      </trkpt>
      <trkpt lat="47.63282" lon="-2.8209">
        <ele>41</ele>
        <time>2025-01-28T08:00:31Z</time>
      </trkpt>
      <trkpt lat="47.63282" lon="-2.82089">
        <ele>41</ele>
        <time>2025-01-28T08:00:32Z</time>
      </trkpt>
      <trkpt lat="47.63281" lon="-2.82088">
        <ele>41</ele>
        <time>2025-01-28T08:00:33Z</time>
      </trkpt>
      <trkpt lat="47.6328" lon="-2.82086">
        <ele>41</ele>
        <time>2025-01-28T08:00:34Z</time>
      </trkpt>
      <trkpt lat="47.63279" lon="-2.82084">
        <ele>41</ele>
        <time>2025-01-28T08:00:35Z</time>
      </trkpt>
      <trkpt lat="47.63278" lon="-2.82083">
        <ele>41</ele>
        <time>2025-01-28T08:00:36Z</time>
      </trkpt>
      <trkpt lat="47.63277" lon="-2.82082">
        <ele>40.9</ele>
        <time>2025-01-28T08:00:37Z</time>
      </trkpt>
      <trkpt lat="47.63277" lon="-2.8208">
        <ele>40.8</ele>
        <time>2025-01-28T08:00:38Z</time>
      </trkpt>
      <trkpt lat="47.63276" lon="-2.82079">
        <ele>40.8</ele>
        <time>2025-01-28T08:00:39Z</time>
      </trkpt>
      <trkpt lat="47.63275" lon="-2.82078">
        <ele>40.7</ele>
        <time>2025-01-28T08:00:40Z</time>
      </trkpt>
      <trkpt lat="47.63274" lon="-2.82077">
        <ele>40.7</ele>
        <time>2025-01-28T08:00:41Z</time>
      </trkpt>
      <trkpt lat="47.63274" lon="-2.82076">
        <ele>40.6</ele>
        <time>2025-01-28T08:00:42Z</time>
      </trkpt>
      <trkpt lat="47.63273" lon="-2.82074">
        <ele>40.6</ele>
        <time>2025-01-28T08:00:43Z</time>
      </trkpt>
      <trkpt lat="47.63272" lon="-2.82073">
        <ele>40.5</ele>
        <time>2025-01-28T08:00:44Z</time>
      </trkpt>
      <trkpt lat="47.63271" lon="-2.82072">
        <ele>40.4</ele>
        <time>2025-01-28T08:00:45Z</time>
      </trkpt>
      <trkpt lat="47.6327" lon="-2.8207">
        <ele>40.4</ele>
        <time>2025-01-28T08:00:46Z</time>
      </trkpt>
      <trkpt lat="47.6327" lon="-2.82068">
        <ele>40.3</ele>
        <time>2025-01-28T08:00:47Z</time>
      </trkpt>
      <trkpt lat="47.63269" lon="-2.82067">
        <ele>40.3</ele>
        <time>2025-01-28T08:00:48Z</time>
      </trkpt>
      <trkpt lat="47.63268" lon="-2.82065">
        <ele>40.2</ele>
        <time>2025-01-28T08:00:49Z</time>
      </trkpt>
      <trkpt lat="47.63268" lon="-2.82063">
        <ele>40.2</ele>
        <time>2025-01-28T08:00:50Z</time>
      </trkpt>
      <trkpt lat="47.63267" lon="-2.82062">
        <ele>40.1</ele>
        <time>2025-01-28T08:00:51Z</time>
      </trkpt>
      <trkpt lat="47.63266" lon="-2.82061">
        <ele>40.1</ele>
        <time>2025-01-28T08:00:52Z</time>
      </trkpt>
      <trkpt lat="47.63265" lon="-2.82059">
        <ele>40.1</ele>
        <time>2025-01-28T08:00:53Z</time>
      </trkpt>
      <trkpt lat="47.63264" lon="-2.82058">
        <ele>40</ele>
        <time>2025-01-28T08:00:54Z</time>
      </trkpt>
      <trkpt lat="47.63263" lon="-2.82057">
        <ele>40</ele>
        <time>2025-01-28T08:00:55Z</time>
      </trkpt>
      <trkpt lat="47.63263" lon="-2.82055">
        <ele>40</ele>
        <time>2025-01-28T08:00:56Z</time>
      </trkpt>
      <trkpt lat="47.63262" lon="-2.82053">
        <ele>40</ele>
        <time>2025-01-28T08:00:57Z</time>
      </trkpt>
      <trkpt lat="47.63261" lon="-2.82051">
        <ele>40</ele>
        <time>2025-01-28T08:00:58Z</time>
      </trkpt>
      <trkpt lat="47.63261" lon="-2.82049">
        <ele>40</ele>
        <time>2025-01-28T08:00:59Z</time>
      </trkpt>
      <trkpt lat="47.6326" lon="-2.82048">
        <ele>40</ele>
        <time>2025-01-28T08:01:00Z</time>
      </trkpt>
      <trkpt lat="47.63259" lon="-2.82047">
        <ele>40</ele>
        <time>2025-01-28T08:01:01Z</time>
      </trkpt>
      <trkpt lat="47.63258" lon="-2.82045">
        <ele>40</ele>
        <time>2025-01-28T08:01:02Z</time>
      </trkpt>
      <trkpt lat="47.63257" lon="-2.82044">
        <ele>40</ele>
        <time>2025-01-28T08:01:03Z</time>
      </trkpt>
      <trkpt lat="47.63257" lon="-2.82042">
        <ele>40</ele>
        <time>2025-01-28T08:01:04Z</time>
      </trkpt>
      <trkpt lat="47.63256" lon="-2.82041">
        <ele>40</ele>
        <time>2025-01-28T08:01:05Z</time>
      </trkpt>
      <trkpt lat="47.63255" lon="-2.8204">
        <ele>40</ele>
        <time>2025-01-28T08:01:06Z</time>
      </trkpt>
      <trkpt lat="47.63254" lon="-2.82038">
        <ele>40</ele>
        <time>2025-01-28T08:01:07Z</time>
      </trkpt>
      <trkpt lat="47.63254" lon="-2.82036">
        <ele>40</ele>
        <time>2025-01-28T08:01:08Z</time>
      </trkpt>
      <trkpt lat="47.63253" lon="-2.82035">
        <ele>40</ele>
        <time>2025-01-28T08:01:09Z</time>
      </trkpt>
      <trkpt lat="47.63252" lon="-2.82033">
        <ele>40</ele>
        <time>2025-01-28T08:01:10Z</time>
      </trkpt>
      <trkpt lat="47.63252" lon="-2.82032">
        <ele>40</ele>
        <time>2025-01-28T08:01:11Z</time>
      </trkpt>
      <trkpt lat="47.63251" lon="-2.8203">
        <ele>40</ele>
        <time>2025-01-28T08:01:12Z</time>
      </trkpt>
      <trkpt lat="47.6325" lon="-2.82029">
        <ele>40</ele>
        <time>2025-01-28T08:01:13Z</time>
      </trkpt>
      <trkpt lat="47.63249" lon="-2.82028">
        <ele>40</ele>
        <time>2025-01-28T08:01:14Z</time>
      </trkpt>
      <trkpt lat="47.63249" lon="-2.82026">
        <ele>39.8</ele>
        <time>2025-01-28T08:01:15Z</time>
      </trkpt>
      <trkpt lat="47.63248" lon="-2.82025">
        <ele>39.7</ele>
        <time>2025-01-28T08:01:16Z</time>
      </trkpt>
      <trkpt lat="47.63247" lon="-2.82024">
        <ele>39.6</ele>
        <time>2025-01-28T08:01:17Z</time>
      </trkpt>
      <trkpt lat="47.63247" lon="-2.82022">
        <ele>39.5</ele>
        <time>2025-01-28T08:01:18Z</time>
      </trkpt>
      <trkpt lat="47.63246" lon="-2.82021">
        <ele>39.4</ele>
        <time>2025-01-28T08:01:19Z</time>
      </trkpt>
      <trkpt lat="47.63245" lon="-2.8202">
        <ele>39.3</ele>
        <time>2025-01-28T08:01:20Z</time>
      </trkpt>
      <trkpt lat="47.63244" lon="-2.82018">
        <ele>39.2</ele>
        <time>2025-01-28T08:01:21Z</time>
      </trkpt>
      <trkpt lat="47.63243" lon="-2.82017">
        <ele>39.1</ele>
        <time>2025-01-28T08:01:22Z</time>
      </trkpt>
      <trkpt lat="47.63243" lon="-2.82016">
        <ele>39</ele>
        <time>2025-01-28T08:01:23Z</time>
      </trkpt>
      <trkpt lat="47.63242" lon="-2.82014">
        <ele>38.9</ele>
        <time>2025-01-28T08:01:24Z</time>
      </trkpt>
      <trkpt lat="47.63241" lon="-2.82013">
        <ele>38.8</ele>
        <time>2025-01-28T08:01:25Z</time>
      </trkpt>
      <trkpt lat="47.6324" lon="-2.82011">
        <ele>38.7</ele>
        <time>2025-01-28T08:01:26Z</time>
      </trkpt>
      <trkpt lat="47.63239" lon="-2.8201">
        <ele>38.6</ele>
        <time>2025-01-28T08:01:27Z</time>
      </trkpt>
      <trkpt lat="47.63239" lon="-2.82008">
        <ele>38.5</ele>
        <time>2025-01-28T08:01:28Z</time>
      </trkpt>
      <trkpt lat="47.63238" lon="-2.82007">
        <ele>38.4</ele>
        <time>2025-01-28T08:01:29Z</time>
      </trkpt>
      <trkpt lat="47.63237" lon="-2.82005">
        <ele>38.3</ele>
        <time>2025-01-28T08:01:30Z</time>
      </trkpt>
      <trkpt lat="47.63237" lon="-2.82003">
        <ele>38.2</ele>
        <time>2025-01-28T08:01:31Z</time>
      </trkpt>
      <trkpt lat="47.63236" lon="-2.82002">
        <ele>38.1</ele>
        <time>2025-01-28T08:01:32Z</time>
      </trkpt>
      <trkpt lat="47.63235" lon="-2.82001">
        <ele>38</ele>
        <time>2025-01-28T08:01:33Z</time>
      </trkpt>
      <trkpt lat="47.63235" lon="-2.81999">
        <ele>38</ele>
        <time>2025-01-28T08:01:34Z</time>
      </trkpt>
      <trkpt lat="47.63234" lon="-2.81997">
        <ele>38</ele>
        <time>2025-01-28T08:01:35Z</time>
      </trkpt>
      <trkpt lat="47.63233" lon="-2.81995">
        <ele>38</ele>
        <time>2025-01-28T08:01:36Z</time>
      </trkpt>
      <trkpt lat="47.63232" lon="-2.81994">
        <ele>38.1</ele>
        <time>2025-01-28T08:01:37Z</time>
      </trkpt>
      <trkpt lat="47.63232" lon="-2.81992">
        <ele>38.1</ele>
        <time>2025-01-28T08:01:38Z</time>
      </trkpt>
      <trkpt lat="47.63231" lon="-2.81991">
        <ele>38.1</ele>
        <time>2025-01-28T08:01:39Z</time>
      </trkpt>
      <trkpt lat="47.6323" lon="-2.81989">
        <ele>38.2</ele>
        <time>2025-01-28T08:01:40Z</time>
      </trkpt>
      <trkpt lat="47.63229" lon="-2.81988">
        <ele>38.2</ele>
        <time>2025-01-28T08:01:41Z</time>
      </trkpt>
      <trkpt lat="47.63228" lon="-2.81986">
        <ele>38.3</ele>
        <time>2025-01-28T08:01:42Z</time>
      </trkpt>
      <trkpt lat="47.63228" lon="-2.81984">
        <ele>38.3</ele>
        <time>2025-01-28T08:01:43Z</time>
      </trkpt>
      <trkpt lat="47.63227" lon="-2.81983">
        <ele>38.4</ele>
        <time>2025-01-28T08:01:44Z</time>
      </trkpt>
      <trkpt lat="47.63227" lon="-2.81981">
        <ele>38.5</ele>
        <time>2025-01-28T08:01:45Z</time>
      </trkpt>
      <trkpt lat="47.63227" lon="-2.81979">
        <ele>38.5</ele>
        <time>2025-01-28T08:01:46Z</time>
      </trkpt>
      <trkpt lat="47.63226" lon="-2.81977">
        <ele>38.6</ele>
        <time>2025-01-28T08:01:47Z</time>
      </trkpt>
      <trkpt lat="47.63226" lon="-2.81975">
        <ele>38.7</ele>
        <time>2025-01-28T08:01:48Z</time>
      </trkpt>
      <trkpt lat="47.63225" lon="-2.81974">
        <ele>38.7</ele>
        <time>2025-01-28T08:01:49Z</time>
      </trkpt>
      <trkpt lat="47.63225" lon="-2.81972">
        <ele>38.8</ele>
        <time>2025-01-28T08:01:50Z</time>
      </trkpt>
      <trkpt lat="47.63225" lon="-2.8197">
        <ele>38.7</ele>
        <time>2025-01-28T08:01:51Z</time>
      </trkpt>
      <trkpt lat="47.63224" lon="-2.81968">
        <ele>38.7</ele>
        <time>2025-01-28T08:01:52Z</time>
      </trkpt>
      <trkpt lat="47.63224" lon="-2.81966">
        <ele>38.6</ele>
        <time>2025-01-28T08:01:53Z</time>
      </trkpt>
      <trkpt lat="47.63224" lon="-2.81964">
        <ele>38.6</ele>
        <time>2025-01-28T08:01:54Z</time>
      </trkpt>
      <trkpt lat="47.63223" lon="-2.81962">
        <ele>38.6</ele>
        <time>2025-01-28T08:01:55Z</time>
      </trkpt>
      <trkpt lat="47.63223" lon="-2.81961">
        <ele>38.6</ele>
        <time>2025-01-28T08:01:56Z</time>
      </trkpt>
      <trkpt lat="47.63222" lon="-2.81959">
        <ele>38.5</ele>
        <time>2025-01-28T08:01:57Z</time>
      </trkpt>
      <trkpt lat="47.63222" lon="-2.81957">
        <ele>38.4</ele>
        <time>2025-01-28T08:01:58Z</time>
      </trkpt>
      <trkpt lat="47.63222" lon="-2.81955">
        <ele>38.4</ele>
        <time>2025-01-28T08:01:59Z</time>
      </trkpt>
      <trkpt lat="47.63222" lon="-2.81953">
        <ele>38.3</ele>
        <time>2025-01-28T08:02:00Z</time>
      </trkpt>
      <trkpt lat="47.63221" lon="-2.81951">
        <ele>38.2</ele>
        <time>2025-01-28T08:02:01Z</time>
      </trkpt>
      <trkpt lat="47.63221" lon="-2.81949">
        <ele>38.1</ele>
        <time>2025-01-28T08:02:02Z</time>
      </trkpt>
      <trkpt lat="47.63222" lon="-2.81947">
        <ele>38.1</ele>
        <time>2025-01-28T08:02:03Z</time>
      </trkpt>
      <trkpt lat="47.63222" lon="-2.81946">
        <ele>38</ele>
        <time>2025-01-28T08:02:04Z</time>
      </trkpt>
      <trkpt lat="47.63222" lon="-2.81944">
        <ele>38</ele>
        <time>2025-01-28T08:02:05Z</time>
      </trkpt>
      <trkpt lat="47.63221" lon="-2.81942">
        <ele>38</ele>
        <time>2025-01-28T08:02:06Z</time>
      </trkpt>
      <trkpt lat="47.63221" lon="-2.8194">
        <ele>38.1</ele>
        <time>2025-01-28T08:02:07Z</time>
      </trkpt>
      <trkpt lat="47.63221" lon="-2.81938">
        <ele>38.2</ele>
        <time>2025-01-28T08:02:08Z</time>
      </trkpt>
      <trkpt lat="47.63221" lon="-2.81936">
        <ele>38.2</ele>
        <time>2025-01-28T08:02:09Z</time>
      </trkpt>
      <trkpt lat="47.63221" lon="-2.81934">
        <ele>38.3</ele>
        <time>2025-01-28T08:02:10Z</time>
      </trkpt>
      <trkpt lat="47.6322" lon="-2.81933">
        <ele>38.3</ele>
        <time>2025-01-28T08:02:11Z</time>
      </trkpt>
      <trkpt lat="47.6322" lon="-2.81931">
        <ele>38.4</ele>
        <time>2025-01-28T08:02:12Z</time>
      </trkpt>
      <trkpt lat="47.6322" lon="-2.81929">
        <ele>38.4</ele>
        <time>2025-01-28T08:02:13Z</time>
      </trkpt>
      <trkpt lat="47.6322" lon="-2.81927">
        <ele>38.5</ele>
        <time>2025-01-28T08:02:14Z</time>
      </trkpt>
      <trkpt lat="47.6322" lon="-2.81925">
        <ele>38.6</ele>
        <time>2025-01-28T08:02:15Z</time>
      </trkpt>
      <trkpt lat="47.63219" lon="-2.81923">
        <ele>38.6</ele>
        <time>2025-01-28T08:02:16Z</time>
      </trkpt>
      <trkpt lat="47.63219" lon="-2.81921">
        <ele>38.7</ele>
        <time>2025-01-28T08:02:17Z</time>
      </trkpt>
      <trkpt lat="47.63219" lon="-2.81919">
        <ele>38.8</ele>
        <time>2025-01-28T08:02:18Z</time>
      </trkpt>
      <trkpt lat="47.63219" lon="-2.81918">
        <ele>38.8</ele>
        <time>2025-01-28T08:02:19Z</time>
      </trkpt>
      <trkpt lat="47.63219" lon="-2.81916">
        <ele>38.9</ele>
        <time>2025-01-28T08:02:20Z</time>
      </trkpt>
      <trkpt lat="47.63218" lon="-2.81915">
        <ele>38.9</ele>
        <time>2025-01-28T08:02:21Z</time>
      </trkpt>
      <trkpt lat="47.63219" lon="-2.81913">
        <ele>38.9</ele>
        <time>2025-01-28T08:02:22Z</time>
      </trkpt>
      <trkpt lat="47.63219" lon="-2.81911">
        <ele>38.9</ele>
        <time>2025-01-28T08:02:23Z</time>
      </trkpt>
      <trkpt lat="47.63218" lon="-2.81909">
        <ele>38.9</ele>
        <time>2025-01-28T08:02:24Z</time>
      </trkpt>
      <trkpt lat="47.63218" lon="-2.81907">
        <ele>38.9</ele>
        <time>2025-01-28T08:02:25Z</time>
      </trkpt>
      <trkpt lat="47.63218" lon="-2.81905">
        <ele>38.9</ele>
        <time>2025-01-28T08:02:26Z</time>
      </trkpt>
      <trkpt lat="47.63218" lon="-2.81904">
        <ele>38.9</ele>
        <time>2025-01-28T08:02:27Z</time>
      </trkpt>
      <trkpt lat="47.63218" lon="-2.81902">
        <ele>38.9</ele>
        <time>2025-01-28T08:02:28Z</time>
      </trkpt>
      <trkpt lat="47.63218" lon="-2.819">
        <ele>38.9</ele>
        <time>2025-01-28T08:02:29Z</time>
      </trkpt>
      <trkpt lat="47.63217" lon="-2.81898">
        <ele>38.9</ele>
        <time>2025-01-28T08:02:30Z</time>
      </trkpt>
      <trkpt lat="47.63217" lon="-2.81897">
        <ele>38.9</ele>
        <time>2025-01-28T08:02:31Z</time>
      </trkpt>
      <trkpt lat="47.63217" lon="-2.81895">
        <ele>39</ele>
        <time>2025-01-28T08:02:32Z</time>
      </trkpt>
      <trkpt lat="47.63216" lon="-2.81893">
        <ele>39</ele>
        <time>2025-01-28T08:02:33Z</time>
      </trkpt>
      <trkpt lat="47.63216" lon="-2.81891">
        <ele>39</ele>
        <time>2025-01-28T08:02:34Z</time>
      </trkpt>
      <trkpt lat="47.63216" lon="-2.8189">
        <ele>39</ele>
        <time>2025-01-28T08:02:35Z</time>
      </trkpt>
      <trkpt lat="47.63216" lon="-2.81888">
        <ele>39</ele>
        <time>2025-01-28T08:02:36Z</time>
      </trkpt>
      <trkpt lat="47.63216" lon="-2.81886">
        <ele>39.1</ele>
        <time>2025-01-28T08:02:37Z</time>
      </trkpt>
      <trkpt lat="47.63216" lon="-2.81884">
        <ele>39.1</ele>
        <time>2025-01-28T08:02:38Z</time>
      </trkpt>
      <trkpt lat="47.63216" lon="-2.81882">
        <ele>39.2</ele>
        <time>2025-01-28T08:02:39Z</time>
      </trkpt>
      <trkpt lat="47.63215" lon="-2.8188">
        <ele>39.2</ele>
        <time>2025-01-28T08:02:40Z</time>
      </trkpt>
      <trkpt lat="47.63215" lon="-2.81878">
        <ele>39.3</ele>
        <time>2025-01-28T08:02:41Z</time>
      </trkpt>
      <trkpt lat="47.63215" lon="-2.81876">
        <ele>39.4</ele>
        <time>2025-01-28T08:02:42Z</time>
      </trkpt>
      <trkpt lat="47.63215" lon="-2.81874">
        <ele>39.4</ele>
        <time>2025-01-28T08:02:43Z</time>
      </trkpt>
      <trkpt lat="47.63214" lon="-2.81872">
        <ele>39.4</ele>
        <time>2025-01-28T08:02:44Z</time>
      </trkpt>
      <trkpt lat="47.63214" lon="-2.8187">
        <ele>39.5</ele>
        <time>2025-01-28T08:02:45Z</time>
      </trkpt>
      <trkpt lat="47.63214" lon="-2.81869">
        <ele>39.5</ele>
        <time>2025-01-28T08:02:46Z</time>
      </trkpt>
      <trkpt lat="47.63214" lon="-2.81867">
        <ele>39.5</ele>
        <time>2025-01-28T08:02:47Z</time>
      </trkpt>
      <trkpt lat="47.63213" lon="-2.81865">
        <ele>39.6</ele>
        <time>2025-01-28T08:02:48Z</time>
      </trkpt>
      <trkpt lat="47.63213" lon="-2.81863">
        <ele>39.6</ele>
        <time>2025-01-28T08:02:49Z</time>
      </trkpt>
      <trkpt lat="47.63213" lon="-2.81861">
        <ele>39.7</ele>
        <time>2025-01-28T08:02:50Z</time>
      </trkpt>
      <trkpt lat="47.63213" lon="-2.81859">
        <ele>39.7</ele>
        <time>2025-01-28T08:02:51Z</time>
      </trkpt>
      <trkpt lat="47.63213" lon="-2.81858">
        <ele>39.7</ele>
        <time>2025-01-28T08:02:52Z</time>
      </trkpt>
      <trkpt lat="47.63213" lon="-2.81856">
        <ele>39.7</ele>
        <time>2025-01-28T08:02:53Z</time>
      </trkpt>
      <trkpt lat="47.63213" lon="-2.81854">
        <ele>39.7</ele>
        <time>2025-01-28T08:02:54Z</time>
      </trkpt>
      <trkpt lat="47.63213" lon="-2.81852">
        <ele>39.7</ele>
        <time>2025-01-28T08:02:55Z</time>
      </trkpt>
      <trkpt lat="47.63212" lon="-2.8185">
        <ele>39.6</ele>
        <time>2025-01-28T08:02:56Z</time>
      </trkpt>
      <trkpt lat="47.63212" lon="-2.81849">
        <ele>39.6</ele>
        <time>2025-01-28T08:02:57Z</time>
      </trkpt>
      <trkpt lat="47.63212" lon="-2.81847">
        <ele>39.6</ele>
        <time>2025-01-28T08:02:58Z</time>
      </trkpt>
      <trkpt lat="47.63211" lon="-2.81845">
        <ele>39.6</ele>
        <time>2025-01-28T08:02:59Z</time>
      </trkpt>
      <trkpt lat="47.63211" lon="-2.81844">
        <ele>39.6</ele>
        <time>2025-01-28T08:03:00Z</time>
      </trkpt>
      <trkpt lat="47.63211" lon="-2.81842">
        <ele>39.6</ele>
        <time>2025-01-28T08:03:01Z</time>
      </trkpt>
      <trkpt lat="47.63212" lon="-2.8184">
        <ele>39.6</ele>
        <time>2025-01-28T08:03:02Z</time>
      </trkpt>
      <trkpt lat="47.63213" lon="-2.8184">
        <ele>39.7</ele>
        <time>2025-01-28T08:03:03Z</time>
      </trkpt>
      <trkpt lat="47.63213" lon="-2.8184">
        <ele>39.7</ele>
        <time>2025-01-28T08:03:04Z</time>
      </trkpt>
      <trkpt lat="47.63214" lon="-2.81839">
        <ele>39.7</ele>
        <time>2025-01-28T08:03:05Z</time>
      </trkpt>
      <trkpt lat="47.63214" lon="-2.81838">
        <ele>39.7</ele>
        <time>2025-01-28T08:03:06Z</time>
      </trkpt>
      <trkpt lat="47.63214" lon="-2.81837">
        <ele>39.7</ele>
        <time>2025-01-28T08:03:07Z</time>
      </trkpt>
      <trkpt lat="47.63213" lon="-2.81836">
        <ele>39.7</ele>
        <time>2025-01-28T08:03:08Z</time>
      </trkpt>
      <trkpt lat="47.63213" lon="-2.81835">
        <ele>39.7</ele>
        <time>2025-01-28T08:03:09Z</time>
      </trkpt>
      <trkpt lat="47.63213" lon="-2.81834">
        <ele>39.7</ele>
        <time>2025-01-28T08:03:10Z</time>
      </trkpt>
      <trkpt lat="47.63212" lon="-2.81833">
        <ele>39.6</ele>
        <time>2025-01-28T08:03:11Z</time>
      </trkpt>
      <trkpt lat="47.63212" lon="-2.81832">
        <ele>39.6</ele>
        <time>2025-01-28T08:03:12Z</time>
      </trkpt>
      <trkpt lat="47.63212" lon="-2.81831">
        <ele>39.6</ele>
        <time>2025-01-28T08:03:13Z</time>
      </trkpt>
      <trkpt lat="47.63211" lon="-2.81829">
        <ele>39.6</ele>
        <time>2025-01-28T08:03:14Z</time>
      </trkpt>
      <trkpt lat="47.63211" lon="-2.81827">
        <ele>39.6</ele>
        <time>2025-01-28T08:03:15Z</time>
      </trkpt>
      <trkpt lat="47.63211" lon="-2.81825">
        <ele>39.6</ele>
        <time>2025-01-28T08:03:16Z</time>
      </trkpt>
      <trkpt lat="47.63211" lon="-2.81823">
        <ele>39.6</ele>
        <time>2025-01-28T08:03:17Z</time>
      </trkpt>
      <trkpt lat="47.63211" lon="-2.81821">
        <ele>39.6</ele>
        <time>2025-01-28T08:03:18Z</time>
      </trkpt>
      <trkpt lat="47.63211" lon="-2.8182">
        <ele>39.6</ele>
        <time>2025-01-28T08:03:19Z</time>
      </trkpt>
      <trkpt lat="47.63211" lon="-2.81818">
        <ele>39.6</ele>
        <time>2025-01-28T08:03:20Z</time>
      </trkpt>
      <trkpt lat="47.63211" lon="-2.81816">
        <ele>39.6</ele>
        <time>2025-01-28T08:03:21Z</time>
      </trkpt>
      <trkpt lat="47.63211" lon="-2.81814">
        <ele>39.6</ele>
        <time>2025-01-28T08:03:22Z</time>
      </trkpt>
      <trkpt lat="47.6321" lon="-2.81812">
        <ele>39.6</ele>
        <time>2025-01-28T08:03:23Z</time>
      </trkpt>
      <trkpt lat="47.6321" lon="-2.8181">
        <ele>39.6</ele>
        <time>2025-01-28T08:03:24Z</time>
      </trkpt>
      <trkpt lat="47.6321" lon="-2.81808">
        <ele>39.6</ele>
        <time>2025-01-28T08:03:25Z</time>
      </trkpt>
      <trkpt lat="47.6321" lon="-2.81806">
        <ele>39.6</ele>
        <time>2025-01-28T08:03:26Z</time>
      </trkpt>
      <trkpt lat="47.6321" lon="-2.81803">
        <ele>39.5</ele>
        <time>2025-01-28T08:03:27Z</time>
      </trkpt>
      <trkpt lat="47.6321" lon="-2.81801">
        <ele>39.5</ele>
        <time>2025-01-28T08:03:28Z</time>
      </trkpt>
      <trkpt lat="47.63211" lon="-2.81799">
        <ele>39.5</ele>
        <time>2025-01-28T08:03:29Z</time>
      </trkpt>
      <trkpt lat="47.63211" lon="-2.81798">
        <ele>39.5</ele>
        <time>2025-01-28T08:03:30Z</time>
      </trkpt>
      <trkpt lat="47.63212" lon="-2.81796">
        <ele>39.5</ele>
        <time>2025-01-28T08:03:31Z</time>
      </trkpt>
      <trkpt lat="47.63212" lon="-2.81794">
        <ele>39.5</ele>
        <time>2025-01-28T08:03:32Z</time>
      </trkpt>
      <trkpt lat="47.63213" lon="-2.81792">
        <ele>39.5</ele>
        <time>2025-01-28T08:03:33Z</time>
      </trkpt>
      <trkpt lat="47.63214" lon="-2.81791">
        <ele>39.5</ele>
        <time>2025-01-28T08:03:34Z</time>
      </trkpt>
      <trkpt lat="47.63215" lon="-2.81789">
        <ele>39.6</ele>
        <time>2025-01-28T08:03:35Z</time>
      </trkpt>
      <trkpt lat="47.63216" lon="-2.81788">
        <ele>39.6</ele>
        <time>2025-01-28T08:03:36Z</time>
      </trkpt>
      <trkpt lat="47.63217" lon="-2.81787">
        <ele>39.7</ele>
        <time>2025-01-28T08:03:37Z</time>
      </trkpt>
      <trkpt lat="47.63218" lon="-2.81786">
        <ele>39.8</ele>
        <time>2025-01-28T08:03:38Z</time>
      </trkpt>
      <trkpt lat="47.6322" lon="-2.81784">
        <ele>39.8</ele>
        <time>2025-01-28T08:03:39Z</time>
      </trkpt>
      <trkpt lat="47.63221" lon="-2.81783">
        <ele>39.9</ele>
        <time>2025-01-28T08:03:40Z</time>
      </trkpt>
      <trkpt lat="47.63222" lon="-2.81782">
        <ele>40</ele>
        <time>2025-01-28T08:03:41Z</time>
      </trkpt>
      <trkpt lat="47.63222" lon="-2.8178">
        <ele>40</ele>
        <time>2025-01-28T08:03:42Z</time>
      </trkpt>
      <trkpt lat="47.63223" lon="-2.81779">
        <ele>40</ele>
        <time>2025-01-28T08:03:43Z</time>
      </trkpt>
      <trkpt lat="47.63224" lon="-2.81777">
        <ele>40.1</ele>
        <time>2025-01-28T08:03:44Z</time>
      </trkpt>
      <trkpt lat="47.63225" lon="-2.81776">
        <ele>40.1</ele>
        <time>2025-01-28T08:03:45Z</time>
      </trkpt>
      <trkpt lat="47.63225" lon="-2.81775">
        <ele>40.1</ele>
        <time>2025-01-28T08:03:46Z</time>
      </trkpt>
      <trkpt lat="47.63226" lon="-2.81774">
        <ele>40.1</ele>
        <time>2025-01-28T08:03:47Z</time>
      </trkpt>
      <trkpt lat="47.63227" lon="-2.81773">
        <ele>40.2</ele>
        <time>2025-01-28T08:03:48Z</time>
      </trkpt>
      <trkpt lat="47.63228" lon="-2.81772">
        <ele>40.2</ele>
        <time>2025-01-28T08:03:49Z</time>
      </trkpt>
      <trkpt lat="47.63229" lon="-2.81771">
        <ele>40.2</ele>
        <time>2025-01-28T08:03:50Z</time>
      </trkpt>
      <trkpt lat="47.6323" lon="-2.8177">
        <ele>40.3</ele>
        <time>2025-01-28T08:03:51Z</time>
      </trkpt>
      <trkpt lat="47.63231" lon="-2.81769">
        <ele>40.3</ele>
        <time>2025-01-28T08:03:52Z</time>
      </trkpt>
      <trkpt lat="47.63232" lon="-2.81767">
        <ele>40.3</ele>
        <time>2025-01-28T08:03:53Z</time>
      </trkpt>
      <trkpt lat="47.63232" lon="-2.81766">
        <ele>40.4</ele>
        <time>2025-01-28T08:03:54Z</time>
      </trkpt>
      <trkpt lat="47.63233" lon="-2.81765">
        <ele>40.4</ele>
        <time>2025-01-28T08:03:55Z</time>
      </trkpt>
      <trkpt lat="47.63234" lon="-2.81763">
        <ele>40.4</ele>
        <time>2025-01-28T08:03:56Z</time>
      </trkpt>
      <trkpt lat="47.63235" lon="-2.81762">
        <ele>40.5</ele>
        <time>2025-01-28T08:03:57Z</time>
      </trkpt>
      <trkpt lat="47.63236" lon="-2.81761">
        <ele>40.5</ele>
        <time>2025-01-28T08:03:58Z</time>
      </trkpt>
      <trkpt lat="47.63237" lon="-2.81759">
        <ele>40.5</ele>
        <time>2025-01-28T08:03:59Z</time>
      </trkpt>
      <trkpt lat="47.63238" lon="-2.81758">
        <ele>40.6</ele>
        <time>2025-01-28T08:04:00Z</time>
      </trkpt>
      <trkpt lat="47.63239" lon="-2.81756">
        <ele>40.6</ele>
        <time>2025-01-28T08:04:01Z</time>
      </trkpt>
      <trkpt lat="47.6324" lon="-2.81755">
        <ele>40.6</ele>
        <time>2025-01-28T08:04:02Z</time>
      </trkpt>
      <trkpt lat="47.63241" lon="-2.81754">
        <ele>40.7</ele>
        <time>2025-01-28T08:04:03Z</time>
      </trkpt>
      <trkpt lat="47.63242" lon="-2.81752">
        <ele>40.7</ele>
        <time>2025-01-28T08:04:04Z</time>
      </trkpt>
      <trkpt lat="47.63243" lon="-2.81751">
        <ele>40.7</ele>
        <time>2025-01-28T08:04:05Z</time>
      </trkpt>
      <trkpt lat="47.63244" lon="-2.8175">
        <ele>40.8</ele>
        <time>2025-01-28T08:04:06Z</time>
      </trkpt>
      <trkpt lat="47.63244" lon="-2.81748">
        <ele>40.8</ele>
        <time>2025-01-28T08:04:07Z</time>
      </trkpt>
      <trkpt lat="47.63245" lon="-2.81747">
        <ele>40.8</ele>
        <time>2025-01-28T08:04:08Z</time>
      </trkpt>
      <trkpt lat="47.63246" lon="-2.81746">
        <ele>40.9</ele>
        <time>2025-01-28T08:04:09Z</time>
      </trkpt>
      <trkpt lat="47.63247" lon="-2.81746">
        <ele>40.9</ele>
        <time>2025-01-28T08:04:10Z</time>
      </trkpt>
      <trkpt lat="47.63247" lon="-2.81745">
        <ele>40.9</ele>
        <time>2025-01-28T08:04:11Z</time>
      </trkpt>
      <trkpt lat="47.63248" lon="-2.81744">
        <ele>40.9</ele>
        <time>2025-01-28T08:04:12Z</time>
      </trkpt>
      <trkpt lat="47.63248" lon="-2.81742">
        <ele>40.9</ele>
        <time>2025-01-28T08:04:13Z</time>
      </trkpt>
      <trkpt lat="47.63249" lon="-2.8174">
        <ele>41</ele>
        <time>2025-01-28T08:04:14Z</time>
      </trkpt>
      <trkpt lat="47.6325" lon="-2.81738">
        <ele>41</ele>
        <time>2025-01-28T08:04:15Z</time>
      </trkpt>
      <trkpt lat="47.63251" lon="-2.81736">
        <ele>41</ele>
        <time>2025-01-28T08:04:16Z</time>
      </trkpt>
      <trkpt lat="47.63252" lon="-2.81734">
        <ele>41.1</ele>
        <time>2025-01-28T08:04:17Z</time>
      </trkpt>
      <trkpt lat="47.63252" lon="-2.81732">
        <ele>41.1</ele>
        <time>2025-01-28T08:04:18Z</time>
      </trkpt>
      <trkpt lat="47.63252" lon="-2.81729">
        <ele>41.2</ele>
        <time>2025-01-28T08:04:19Z</time>
      </trkpt>
      <trkpt lat="47.63253" lon="-2.81727">
        <ele>41.2</ele>
        <time>2025-01-28T08:04:20Z</time>
      </trkpt>
      <trkpt lat="47.63253" lon="-2.81725">
        <ele>41.2</ele>
        <time>2025-01-28T08:04:21Z</time>
      </trkpt>
      <trkpt lat="47.63252" lon="-2.81725">
        <ele>41.1</ele>
        <time>2025-01-28T08:04:22Z</time>
      </trkpt>
      <trkpt lat="47.63252" lon="-2.81724">
        <ele>41.2</ele>
        <time>2025-01-28T08:04:23Z</time>
      </trkpt>
      <trkpt lat="47.63253" lon="-2.81723">
        <ele>41.2</ele>
        <time>2025-01-28T08:04:24Z</time>
      </trkpt>
      <trkpt lat="47.63253" lon="-2.81722">
        <ele>41.2</ele>
        <time>2025-01-28T08:04:25Z</time>
      </trkpt>
      <trkpt lat="47.63254" lon="-2.81721">
        <ele>41.3</ele>
        <time>2025-01-28T08:04:26Z</time>
      </trkpt>
      <trkpt lat="47.63255" lon="-2.81721">
        <ele>41.4</ele>
        <time>2025-01-28T08:04:27Z</time>
      </trkpt>
      <trkpt lat="47.63257" lon="-2.8172">
        <ele>41.5</ele>
        <time>2025-01-28T08:04:28Z</time>
      </trkpt>
      <trkpt lat="47.63258" lon="-2.81719">
        <ele>41.5</ele>
        <time>2025-01-28T08:04:29Z</time>
      </trkpt>
      <trkpt lat="47.63258" lon="-2.81718">
        <ele>41.6</ele>
        <time>2025-01-28T08:04:30Z</time>
      </trkpt>
      <trkpt lat="47.63259" lon="-2.81717">
        <ele>41.7</ele>
        <time>2025-01-28T08:04:31Z</time>
      </trkpt>
      <trkpt lat="47.6326" lon="-2.81716">
        <ele>41.7</ele>
        <time>2025-01-28T08:04:32Z</time>
      </trkpt>
      <trkpt lat="47.63261" lon="-2.81715">
        <ele>41.8</ele>
        <time>2025-01-28T08:04:33Z</time>
      </trkpt>
      <trkpt lat="47.63262" lon="-2.81713">
        <ele>41.9</ele>
        <time>2025-01-28T08:04:34Z</time>
      </trkpt>
      <trkpt lat="47.63263" lon="-2.81712">
        <ele>41.9</ele>
        <time>2025-01-28T08:04:35Z</time>
      </trkpt>
      <trkpt lat="47.63263" lon="-2.8171">
        <ele>42</ele>
        <time>2025-01-28T08:04:36Z</time>
      </trkpt>
      <trkpt lat="47.63264" lon="-2.81709">
        <ele>42</ele>
        <time>2025-01-28T08:04:37Z</time>
      </trkpt>
      <trkpt lat="47.63265" lon="-2.81708">
        <ele>42.1</ele>
        <time>2025-01-28T08:04:38Z</time>
      </trkpt>
      <trkpt lat="47.63266" lon="-2.81707">
        <ele>42.2</ele>
        <time>2025-01-28T08:04:39Z</time>
      </trkpt>
      <trkpt lat="47.63268" lon="-2.81706">
        <ele>42.3</ele>
        <time>2025-01-28T08:04:40Z</time>
      </trkpt>
      <trkpt lat="47.63269" lon="-2.81705">
        <ele>42.3</ele>
        <time>2025-01-28T08:04:41Z</time>
      </trkpt>
      <trkpt lat="47.6327" lon="-2.81703">
        <ele>42.4</ele>
        <time>2025-01-28T08:04:42Z</time>
      </trkpt>
      <trkpt lat="47.6327" lon="-2.81702">
        <ele>42.5</ele>
        <time>2025-01-28T08:04:43Z</time>
      </trkpt>
      <trkpt lat="47.63271" lon="-2.81701">
        <ele>42.5</ele>
        <time>2025-01-28T08:04:44Z</time>
      </trkpt>
      <trkpt lat="47.63272" lon="-2.817">
        <ele>42.6</ele>
        <time>2025-01-28T08:04:45Z</time>
      </trkpt>
      <trkpt lat="47.63274" lon="-2.81699">
        <ele>42.7</ele>
        <time>2025-01-28T08:04:46Z</time>
      </trkpt>
      <trkpt lat="47.63275" lon="-2.81698">
        <ele>42.8</ele>
        <time>2025-01-28T08:04:47Z</time>
      </trkpt>
      <trkpt lat="47.63276" lon="-2.81697">
        <ele>42.8</ele>
        <time>2025-01-28T08:04:48Z</time>
      </trkpt>
      <trkpt lat="47.63277" lon="-2.81695">
        <ele>42.9</ele>
        <time>2025-01-28T08:04:49Z</time>
      </trkpt>
      <trkpt lat="47.63277" lon="-2.81694">
        <ele>43</ele>
        <time>2025-01-28T08:04:50Z</time>
      </trkpt>
      <trkpt lat="47.63278" lon="-2.81693">
        <ele>43</ele>
        <time>2025-01-28T08:04:51Z</time>
      </trkpt>
      <trkpt lat="47.63279" lon="-2.81692">
        <ele>42.9</ele>
        <time>2025-01-28T08:04:52Z</time>
      </trkpt>
      <trkpt lat="47.6328" lon="-2.81691">
        <ele>42.9</ele>
        <time>2025-01-28T08:04:53Z</time>
      </trkpt>
      <trkpt lat="47.63281" lon="-2.8169">
        <ele>42.9</ele>
        <time>2025-01-28T08:04:54Z</time>
      </trkpt>
      <trkpt lat="47.63282" lon="-2.81688">
        <ele>42.9</ele>
        <time>2025-01-28T08:04:55Z</time>
      </trkpt>
      <trkpt lat="47.63283" lon="-2.81687">
        <ele>42.8</ele>
        <time>2025-01-28T08:04:56Z</time>
      </trkpt>
      <trkpt lat="47.63283" lon="-2.81685">
        <ele>42.8</ele>
        <time>2025-01-28T08:04:57Z</time>
      </trkpt>
      <trkpt lat="47.63284" lon="-2.81684">
        <ele>42.8</ele>
        <time>2025-01-28T08:04:58Z</time>
      </trkpt>
      <trkpt lat="47.63284" lon="-2.81682">
        <ele>42.7</ele>
        <time>2025-01-28T08:04:59Z</time>
      </trkpt>
      <trkpt lat="47.63283" lon="-2.81679">
        <ele>42.7</ele>
        <time>2025-01-28T08:05:00Z</time>
      </trkpt>
      <trkpt lat="47.63283" lon="-2.81678">
        <ele>42.6</ele>
        <time>2025-01-28T08:05:01Z</time>
      </trkpt>
      <trkpt lat="47.63283" lon="-2.81676">
        <ele>42.6</ele>
        <time>2025-01-28T08:05:02Z</time>
      </trkpt>
      <trkpt lat="47.63282" lon="-2.81674">
        <ele>42.5</ele>
        <time>2025-01-28T08:05:03Z</time>
      </trkpt>
      <trkpt lat="47.63282" lon="-2.81673">
        <ele>42.4</ele>
        <time>2025-01-28T08:05:04Z</time>
      </trkpt>
      <trkpt lat="47.63281" lon="-2.81672">
        <ele>42.4</ele>
        <time>2025-01-28T08:05:05Z</time>
      </trkpt>
      <trkpt lat="47.63281" lon="-2.8167">
        <ele>42.3</ele>
        <time>2025-01-28T08:05:06Z</time>
      </trkpt>
      <trkpt lat="47.63281" lon="-2.81669">
        <ele>42.3</ele>
        <time>2025-01-28T08:05:07Z</time>
      </trkpt>
      <trkpt lat="47.6328" lon="-2.81668">
        <ele>42.2</ele>
        <time>2025-01-28T08:05:08Z</time>
      </trkpt>
      <trkpt lat="47.63279" lon="-2.81667">
        <ele>42.1</ele>
        <time>2025-01-28T08:05:09Z</time>
      </trkpt>
      <trkpt lat="47.63279" lon="-2.81665">
        <ele>42</ele>
        <time>2025-01-28T08:05:10Z</time>
      </trkpt>
      <trkpt lat="47.63279" lon="-2.81663">
        <ele>42</ele>
        <time>2025-01-28T08:05:11Z</time>
      </trkpt>
      <trkpt lat="47.63278" lon="-2.81662">
        <ele>41.9</ele>
        <time>2025-01-28T08:05:12Z</time>
      </trkpt>
      <trkpt lat="47.63278" lon="-2.81661">
        <ele>41.8</ele>
        <time>2025-01-28T08:05:13Z</time>
      </trkpt>
      <trkpt lat="47.63278" lon="-2.81659">
        <ele>41.7</ele>
        <time>2025-01-28T08:05:14Z</time>
      </trkpt>
      <trkpt lat="47.63277" lon="-2.81658">
        <ele>41.7</ele>
        <time>2025-01-28T08:05:15Z</time>
      </trkpt>
      <trkpt lat="47.63277" lon="-2.81657">
        <ele>41.6</ele>
        <time>2025-01-28T08:05:16Z</time>
      </trkpt>
      <trkpt lat="47.63276" lon="-2.81656">
        <ele>41.5</ele>
        <time>2025-01-28T08:05:17Z</time>
      </trkpt>
      <trkpt lat="47.63275" lon="-2.81654">
        <ele>41.5</ele>
        <time>2025-01-28T08:05:18Z</time>
      </trkpt>
      <trkpt lat="47.63275" lon="-2.81653">
        <ele>41.4</ele>
        <time>2025-01-28T08:05:19Z</time>
      </trkpt>
      <trkpt lat="47.63274" lon="-2.81652">
        <ele>41.3</ele>
        <time>2025-01-28T08:05:20Z</time>
      </trkpt>
      <trkpt lat="47.63274" lon="-2.8165">
        <ele>41.3</ele>
        <time>2025-01-28T08:05:21Z</time>
      </trkpt>
      <trkpt lat="47.63273" lon="-2.81649">
        <ele>41.2</ele>
        <time>2025-01-28T08:05:22Z</time>
      </trkpt>
      <trkpt lat="47.63273" lon="-2.81648">
        <ele>41.1</ele>
        <time>2025-01-28T08:05:23Z</time>
      </trkpt>
      <trkpt lat="47.63272" lon="-2.81646">
        <ele>41</ele>
        <time>2025-01-28T08:05:24Z</time>
      </trkpt>
      <trkpt lat="47.63271" lon="-2.81645">
        <ele>41</ele>
        <time>2025-01-28T08:05:25Z</time>
      </trkpt>
      <trkpt lat="47.6327" lon="-2.81643">
        <ele>40.9</ele>
        <time>2025-01-28T08:05:26Z</time>
      </trkpt>
      <trkpt lat="47.6327" lon="-2.81641">
        <ele>40.8</ele>
        <time>2025-01-28T08:05:27Z</time>
      </trkpt>
      <trkpt lat="47.63269" lon="-2.8164">
        <ele>40.7</ele>
        <time>2025-01-28T08:05:28Z</time>
      </trkpt>
      <trkpt lat="47.63268" lon="-2.81638">
        <ele>40.6</ele>
        <time>2025-01-28T08:05:29Z</time>
      </trkpt>
      <trkpt lat="47.63267" lon="-2.81637">
        <ele>40.6</ele>
        <time>2025-01-28T08:05:30Z</time>
      </trkpt>
      <trkpt lat="47.63267" lon="-2.81635">
        <ele>40.6</ele>
        <time>2025-01-28T08:05:31Z</time>
      </trkpt>
      <trkpt lat="47.63267" lon="-2.81633">
        <ele>40.6</ele>
        <time>2025-01-28T08:05:32Z</time>
      </trkpt>
      <trkpt lat="47.63268" lon="-2.81631">
        <ele>40.6</ele>
        <time>2025-01-28T08:05:33Z</time>
      </trkpt>
      <trkpt lat="47.63268" lon="-2.8163">
        <ele>40.7</ele>
        <time>2025-01-28T08:05:34Z</time>
      </trkpt>
      <trkpt lat="47.63268" lon="-2.81627">
        <ele>40.6</ele>
        <time>2025-01-28T08:05:35Z</time>
      </trkpt>
      <trkpt lat="47.63268" lon="-2.81625">
        <ele>40.6</ele>
        <time>2025-01-28T08:05:36Z</time>
      </trkpt>
      <trkpt lat="47.63267" lon="-2.81623">
        <ele>40.6</ele>
        <time>2025-01-28T08:05:37Z</time>
      </trkpt>
      <trkpt lat="47.63267" lon="-2.81621">
        <ele>40.6</ele>
        <time>2025-01-28T08:05:38Z</time>
      </trkpt>
      <trkpt lat="47.63266" lon="-2.81619">
        <ele>40.6</ele>
        <time>2025-01-28T08:05:39Z</time>
      </trkpt>
      <trkpt lat="47.63266" lon="-2.81617">
        <ele>40.6</ele>
        <time>2025-01-28T08:05:40Z</time>
      </trkpt>
      <trkpt lat="47.63265" lon="-2.81616">
        <ele>40.5</ele>
        <time>2025-01-28T08:05:41Z</time>
      </trkpt>
      <trkpt lat="47.63264" lon="-2.81614">
        <ele>40.5</ele>
        <time>2025-01-28T08:05:42Z</time>
      </trkpt>
      <trkpt lat="47.63264" lon="-2.81612">
        <ele>40.5</ele>
        <time>2025-01-28T08:05:43Z</time>
      </trkpt>
      <trkpt lat="47.63263" lon="-2.8161">
        <ele>40.4</ele>
        <time>2025-01-28T08:05:44Z</time>
      </trkpt>
      <trkpt lat="47.63262" lon="-2.81608">
        <ele>40.4</ele>
        <time>2025-01-28T08:05:45Z</time>
      </trkpt>
      <trkpt lat="47.63261" lon="-2.81606">
        <ele>40.3</ele>
        <time>2025-01-28T08:05:46Z</time>
      </trkpt>
      <trkpt lat="47.6326" lon="-2.81605">
        <ele>40.2</ele>
        <time>2025-01-28T08:05:47Z</time>
      </trkpt>
      <trkpt lat="47.6326" lon="-2.81602">
        <ele>40.1</ele>
        <time>2025-01-28T08:05:48Z</time>
      </trkpt>
      <trkpt lat="47.63259" lon="-2.81601">
        <ele>40.1</ele>
        <time>2025-01-28T08:05:49Z</time>
      </trkpt>
      <trkpt lat="47.63259" lon="-2.81599">
        <ele>40</ele>
        <time>2025-01-28T08:05:50Z</time>
      </trkpt>
      <trkpt lat="47.63258" lon="-2.81597">
        <ele>39.9</ele>
        <time>2025-01-28T08:05:51Z</time>
      </trkpt>
      <trkpt lat="47.63258" lon="-2.81594">
        <ele>39.9</ele>
        <time>2025-01-28T08:05:52Z</time>
      </trkpt>
      <trkpt lat="47.63258" lon="-2.81592">
        <ele>39.8</ele>
        <time>2025-01-28T08:05:53Z</time>
      </trkpt>
      <trkpt lat="47.63257" lon="-2.8159">
        <ele>39.7</ele>
        <time>2025-01-28T08:05:54Z</time>
      </trkpt>
      <trkpt lat="47.63257" lon="-2.81588">
        <ele>39.6</ele>
        <time>2025-01-28T08:05:55Z</time>
      </trkpt>
      <trkpt lat="47.63257" lon="-2.81586">
        <ele>39.6</ele>
        <time>2025-01-28T08:05:56Z</time>
      </trkpt>
      <trkpt lat="47.63257" lon="-2.81585">
        <ele>39.5</ele>
        <time>2025-01-28T08:05:57Z</time>
      </trkpt>
      <trkpt lat="47.63258" lon="-2.81583">
        <ele>39.5</ele>
        <time>2025-01-28T08:05:58Z</time>
      </trkpt>
      <trkpt lat="47.63258" lon="-2.81581">
        <ele>39.6</ele>
        <time>2025-01-28T08:05:59Z</time>
      </trkpt>
      <trkpt lat="47.63258" lon="-2.81578">
        <ele>39.5</ele>
        <time>2025-01-28T08:06:00Z</time>
      </trkpt>
      <trkpt lat="47.63258" lon="-2.81576">
        <ele>39.6</ele>
        <time>2025-01-28T08:06:01Z</time>
      </trkpt>
      <trkpt lat="47.63258" lon="-2.81574">
        <ele>39.6</ele>
        <time>2025-01-28T08:06:02Z</time>
      </trkpt>
      <trkpt lat="47.63257" lon="-2.81572">
        <ele>39.5</ele>
        <time>2025-01-28T08:06:03Z</time>
      </trkpt>
      <trkpt lat="47.63258" lon="-2.8157">
        <ele>39.5</ele>
        <time>2025-01-28T08:06:04Z</time>
      </trkpt>
      <trkpt lat="47.63258" lon="-2.81569">
        <ele>39.6</ele>
        <time>2025-01-28T08:06:05Z</time>
      </trkpt>
      <trkpt lat="47.63258" lon="-2.81567">
        <ele>39.6</ele>
        <time>2025-01-28T08:06:06Z</time>
      </trkpt>
      <trkpt lat="47.63258" lon="-2.81565">
        <ele>39.6</ele>
        <time>2025-01-28T08:06:07Z</time>
      </trkpt>
      <trkpt lat="47.63258" lon="-2.81563">
        <ele>39.6</ele>
        <time>2025-01-28T08:06:08Z</time>
      </trkpt>
      <trkpt lat="47.63258" lon="-2.81561">
        <ele>39.6</ele>
        <time>2025-01-28T08:06:09Z</time>
      </trkpt>
      <trkpt lat="47.63258" lon="-2.81559">
        <ele>39.6</ele>
        <time>2025-01-28T08:06:10Z</time>
      </trkpt>
      <trkpt lat="47.63259" lon="-2.81557">
        <ele>39.6</ele>
        <time>2025-01-28T08:06:11Z</time>
      </trkpt>
      <trkpt lat="47.63259" lon="-2.81555">
        <ele>39.6</ele>
        <time>2025-01-28T08:06:12Z</time>
      </trkpt>
      <trkpt lat="47.63259" lon="-2.81553">
        <ele>39.6</ele>
        <time>2025-01-28T08:06:13Z</time>
      </trkpt>
      <trkpt lat="47.63259" lon="-2.81551">
        <ele>39.6</ele>
        <time>2025-01-28T08:06:14Z</time>
      </trkpt>
      <trkpt lat="47.63259" lon="-2.81549">
        <ele>39.6</ele>
        <time>2025-01-28T08:06:15Z</time>
      </trkpt>
      <trkpt lat="47.63259" lon="-2.81547">
        <ele>39.6</ele>
        <time>2025-01-28T08:06:16Z</time>
      </trkpt>
      <trkpt lat="47.63259" lon="-2.81545">
        <ele>39.5</ele>
        <time>2025-01-28T08:06:17Z</time>
      </trkpt>
      <trkpt lat="47.6326" lon="-2.81543">
        <ele>39.5</ele>
        <time>2025-01-28T08:06:18Z</time>
      </trkpt>
      <trkpt lat="47.6326" lon="-2.81541">
        <ele>39.5</ele>
        <time>2025-01-28T08:06:19Z</time>
      </trkpt>
      <trkpt lat="47.6326" lon="-2.81539">
        <ele>39.5</ele>
        <time>2025-01-28T08:06:20Z</time>
      </trkpt>
      <trkpt lat="47.6326" lon="-2.81538">
        <ele>39.5</ele>
        <time>2025-01-28T08:06:21Z</time>
      </trkpt>
      <trkpt lat="47.6326" lon="-2.81536">
        <ele>39.4</ele>
        <time>2025-01-28T08:06:22Z</time>
      </trkpt>
      <trkpt lat="47.6326" lon="-2.81534">
        <ele>39.4</ele>
        <time>2025-01-28T08:06:23Z</time>
      </trkpt>
      <trkpt lat="47.63259" lon="-2.81532">
        <ele>39.4</ele>
        <time>2025-01-28T08:06:24Z</time>
      </trkpt>
      <trkpt lat="47.6326" lon="-2.8153">
        <ele>39.4</ele>
        <time>2025-01-28T08:06:25Z</time>
      </trkpt>
      <trkpt lat="47.6326" lon="-2.81528">
        <ele>39.3</ele>
        <time>2025-01-28T08:06:26Z</time>
      </trkpt>
      <trkpt lat="47.6326" lon="-2.81525">
        <ele>39.3</ele>
        <time>2025-01-28T08:06:27Z</time>
      </trkpt>
      <trkpt lat="47.6326" lon="-2.81523">
        <ele>39.2</ele>
        <time>2025-01-28T08:06:28Z</time>
      </trkpt>
      <trkpt lat="47.6326" lon="-2.81521">
        <ele>39.1</ele>
        <time>2025-01-28T08:06:29Z</time>
      </trkpt>
      <trkpt lat="47.63261" lon="-2.81518">
        <ele>39</ele>
        <time>2025-01-28T08:06:30Z</time>
      </trkpt>
      <trkpt lat="47.6326" lon="-2.81516">
        <ele>39</ele>
        <time>2025-01-28T08:06:31Z</time>
      </trkpt>
      <trkpt lat="47.6326" lon="-2.81515">
        <ele>38.9</ele>
        <time>2025-01-28T08:06:32Z</time>
      </trkpt>
      <trkpt lat="47.6326" lon="-2.81512">
        <ele>38.8</ele>
        <time>2025-01-28T08:06:33Z</time>
      </trkpt>
      <trkpt lat="47.6326" lon="-2.8151">
        <ele>38.7</ele>
        <time>2025-01-28T08:06:34Z</time>
      </trkpt>
      <trkpt lat="47.6326" lon="-2.81509">
        <ele>38.7</ele>
        <time>2025-01-28T08:06:35Z</time>
      </trkpt>
      <trkpt lat="47.63261" lon="-2.81507">
        <ele>38.6</ele>
        <time>2025-01-28T08:06:36Z</time>
      </trkpt>
      <trkpt lat="47.63261" lon="-2.81505">
        <ele>38.6</ele>
        <time>2025-01-28T08:06:37Z</time>
      </trkpt>
      <trkpt lat="47.63261" lon="-2.81503">
        <ele>38.5</ele>
        <time>2025-01-28T08:06:38Z</time>
      </trkpt>
      <trkpt lat="47.63261" lon="-2.81501">
        <ele>38.4</ele>
        <time>2025-01-28T08:06:39Z</time>
      </trkpt>
      <trkpt lat="47.6326" lon="-2.815">
        <ele>38.4</ele>
        <time>2025-01-28T08:06:40Z</time>
      </trkpt>
      <trkpt lat="47.6326" lon="-2.81498">
        <ele>38.4</ele>
        <time>2025-01-28T08:06:41Z</time>
      </trkpt>
      <trkpt lat="47.6326" lon="-2.81496">
        <ele>38.4</ele>
        <time>2025-01-28T08:06:42Z</time>
      </trkpt>
      <trkpt lat="47.6326" lon="-2.81494">
        <ele>38.4</ele>
        <time>2025-01-28T08:06:43Z</time>
      </trkpt>
      <trkpt lat="47.6326" lon="-2.81492">
        <ele>38.4</ele>
        <time>2025-01-28T08:06:44Z</time>
      </trkpt>
      <trkpt lat="47.6326" lon="-2.8149">
        <ele>38.4</ele>
        <time>2025-01-28T08:06:45Z</time>
      </trkpt>
      <trkpt lat="47.63261" lon="-2.81488">
        <ele>38.4</ele>
        <time>2025-01-28T08:06:46Z</time>
      </trkpt>
      <trkpt lat="47.63261" lon="-2.81486">
        <ele>38.4</ele>
        <time>2025-01-28T08:06:47Z</time>
      </trkpt>
      <trkpt lat="47.63261" lon="-2.81484">
        <ele>38.4</ele>
        <time>2025-01-28T08:06:48Z</time>
      </trkpt>
      <trkpt lat="47.63261" lon="-2.81482">
        <ele>38.4</ele>
        <time>2025-01-28T08:06:49Z</time>
      </trkpt>
      <trkpt lat="47.63261" lon="-2.8148">
        <ele>38.4</ele>
        <time>2025-01-28T08:06:50Z</time>
      </trkpt>
      <trkpt lat="47.63262" lon="-2.81479">
        <ele>38.4</ele>
        <time>2025-01-28T08:06:51Z</time>
      </trkpt>
      <trkpt lat="47.63262" lon="-2.81477">
        <ele>38.4</ele>
        <time>2025-01-28T08:06:52Z</time>
      </trkpt>
      <trkpt lat="47.63262" lon="-2.81475">
        <ele>38.4</ele>
        <time>2025-01-28T08:06:53Z</time>
      </trkpt>
      <trkpt lat="47.63262" lon="-2.81473">
        <ele>38.4</ele>
        <time>2025-01-28T08:06:54Z</time>
      </trkpt>
      <trkpt lat="47.63262" lon="-2.81471">
        <ele>38.4</ele>
        <time>2025-01-28T08:06:55Z</time>
      </trkpt>
      <trkpt lat="47.63262" lon="-2.81469">
        <ele>38.4</ele>
        <time>2025-01-28T08:06:56Z</time>
      </trkpt>
      <trkpt lat="47.63263" lon="-2.81468">
        <ele>38.4</ele>
        <time>2025-01-28T08:06:57Z</time>
      </trkpt>
      <trkpt lat="47.63263" lon="-2.81466">
        <ele>38.3</ele>
        <time>2025-01-28T08:06:58Z</time>
      </trkpt>
      <trkpt lat="47.63263" lon="-2.81464">
        <ele>38.3</ele>
        <time>2025-01-28T08:06:59Z</time>
      </trkpt>
      <trkpt lat="47.63263" lon="-2.81462">
        <ele>38.3</ele>
        <time>2025-01-28T08:07:00Z</time>
      </trkpt>
      <trkpt lat="47.63263" lon="-2.8146">
        <ele>38.2</ele>
        <time>2025-01-28T08:07:01Z</time>
      </trkpt>
      <trkpt lat="47.63263" lon="-2.81458">
        <ele>38.2</ele>
        <time>2025-01-28T08:07:02Z</time>
      </trkpt>
      <trkpt lat="47.63263" lon="-2.81456">
        <ele>38.2</ele>
        <time>2025-01-28T08:07:03Z</time>
      </trkpt>
      <trkpt lat="47.63263" lon="-2.81454">
        <ele>38.1</ele>
        <time>2025-01-28T08:07:04Z</time>
      </trkpt>
      <trkpt lat="47.63263" lon="-2.81452">
        <ele>38.1</ele>
        <time>2025-01-28T08:07:05Z</time>
      </trkpt>
      <trkpt lat="47.63262" lon="-2.8145">
        <ele>38</ele>
        <time>2025-01-28T08:07:06Z</time>
      </trkpt>
      <trkpt lat="47.63262" lon="-2.81448">
        <ele>37.9</ele>
        <time>2025-01-28T08:07:07Z</time>
      </trkpt>
      <trkpt lat="47.63262" lon="-2.81447">
        <ele>37.9</ele>
        <time>2025-01-28T08:07:08Z</time>
      </trkpt>
      <trkpt lat="47.63261" lon="-2.81445">
        <ele>37.8</ele>
        <time>2025-01-28T08:07:09Z</time>
      </trkpt>
      <trkpt lat="47.6326" lon="-2.81443">
        <ele>37.7</ele>
        <time>2025-01-28T08:07:10Z</time>
      </trkpt>
      <trkpt lat="47.6326" lon="-2.81441">
        <ele>37.7</ele>
        <time>2025-01-28T08:07:11Z</time>
      </trkpt>
      <trkpt lat="47.63259" lon="-2.8144">
        <ele>37.6</ele>
        <time>2025-01-28T08:07:12Z</time>
      </trkpt>
      <trkpt lat="47.63259" lon="-2.81438">
        <ele>37.5</ele>
        <time>2025-01-28T08:07:13Z</time>
      </trkpt>
      <trkpt lat="47.63258" lon="-2.81436">
        <ele>37.5</ele>
        <time>2025-01-28T08:07:14Z</time>
      </trkpt>
      <trkpt lat="47.63257" lon="-2.81435">
        <ele>37.4</ele>
        <time>2025-01-28T08:07:15Z</time>
      </trkpt>
      <trkpt lat="47.63257" lon="-2.81433">
        <ele>37.4</ele>
        <time>2025-01-28T08:07:16Z</time>
      </trkpt>
      <trkpt lat="47.63257" lon="-2.81431">
        <ele>37.4</ele>
        <time>2025-01-28T08:07:17Z</time>
      </trkpt>
      <trkpt lat="47.63256" lon="-2.81429">
        <ele>37.3</ele>
        <time>2025-01-28T08:07:18Z</time>
      </trkpt>
      <trkpt lat="47.63256" lon="-2.81428">
        <ele>37.3</ele>
        <time>2025-01-28T08:07:19Z</time>
      </trkpt>
      <trkpt lat="47.63255" lon="-2.81426">
        <ele>37.2</ele>
        <time>2025-01-28T08:07:20Z</time>
      </trkpt>
      <trkpt lat="47.63255" lon="-2.81424">
        <ele>37.2</ele>
        <time>2025-01-28T08:07:21Z</time>
      </trkpt>
      <trkpt lat="47.63254" lon="-2.81422">
        <ele>37.2</ele>
        <time>2025-01-28T08:07:22Z</time>
      </trkpt>
      <trkpt lat="47.63253" lon="-2.81421">
        <ele>37.1</ele>
        <time>2025-01-28T08:07:23Z</time>
      </trkpt>
      <trkpt lat="47.63253" lon="-2.81419">
        <ele>37.1</ele>
        <time>2025-01-28T08:07:24Z</time>
      </trkpt>
      <trkpt lat="47.63252" lon="-2.81417">
        <ele>37.1</ele>
        <time>2025-01-28T08:07:25Z</time>
      </trkpt>
      <trkpt lat="47.63252" lon="-2.81416">
        <ele>37.1</ele>
        <time>2025-01-28T08:07:26Z</time>
      </trkpt>
      <trkpt lat="47.63252" lon="-2.81414">
        <ele>37.2</ele>
        <time>2025-01-28T08:07:27Z</time>
      </trkpt>
      <trkpt lat="47.63251" lon="-2.81413">
        <ele>37.3</ele>
        <time>2025-01-28T08:07:28Z</time>
      </trkpt>
      <trkpt lat="47.63251" lon="-2.81412">
        <ele>37.4</ele>
        <time>2025-01-28T08:07:29Z</time>
      </trkpt>
      <trkpt lat="47.6325" lon="-2.8141">
        <ele>37.5</ele>
        <time>2025-01-28T08:07:30Z</time>
      </trkpt>
      <trkpt lat="47.6325" lon="-2.81409">
        <ele>37.6</ele>
        <time>2025-01-28T08:07:31Z</time>
      </trkpt>
      <trkpt lat="47.6325" lon="-2.81407">
        <ele>37.7</ele>
        <time>2025-01-28T08:07:32Z</time>
      </trkpt>
      <trkpt lat="47.6325" lon="-2.81405">
        <ele>37.8</ele>
        <time>2025-01-28T08:07:33Z</time>
      </trkpt>
      <trkpt lat="47.63249" lon="-2.81404">
        <ele>37.9</ele>
        <time>2025-01-28T08:07:34Z</time>
      </trkpt>
      <trkpt lat="47.63249" lon="-2.81402">
        <ele>38</ele>
        <time>2025-01-28T08:07:35Z</time>
      </trkpt>
      <trkpt lat="47.63248" lon="-2.814">
        <ele>38.1</ele>
        <time>2025-01-28T08:07:36Z</time>
      </trkpt>
      <trkpt lat="47.63248" lon="-2.81399">
        <ele>38.2</ele>
        <time>2025-01-28T08:07:37Z</time>
      </trkpt>
      <trkpt lat="47.63247" lon="-2.81398">
        <ele>38.3</ele>
        <time>2025-01-28T08:07:38Z</time>
      </trkpt>
      <trkpt lat="47.63246" lon="-2.81396">
        <ele>38.4</ele>
        <time>2025-01-28T08:07:39Z</time>
      </trkpt>
      <trkpt lat="47.63246" lon="-2.81394">
        <ele>38.5</ele>
        <time>2025-01-28T08:07:40Z</time>
      </trkpt>
      <trkpt lat="47.63245" lon="-2.81393">
        <ele>38.6</ele>
        <time>2025-01-28T08:07:41Z</time>
      </trkpt>
      <trkpt lat="47.63245" lon="-2.81391">
        <ele>38.7</ele>
        <time>2025-01-28T08:07:42Z</time>
      </trkpt>
      <trkpt lat="47.63244" lon="-2.81389">
        <ele>38.8</ele>
        <time>2025-01-28T08:07:43Z</time>
      </trkpt>
      <trkpt lat="47.63244" lon="-2.81387">
        <ele>38.8</ele>
        <time>2025-01-28T08:07:44Z</time>
      </trkpt>
      <trkpt lat="47.63243" lon="-2.81385">
        <ele>38.8</ele>
        <time>2025-01-28T08:07:45Z</time>
      </trkpt>
      <trkpt lat="47.63243" lon="-2.81383">
        <ele>38.7</ele>
        <time>2025-01-28T08:07:46Z</time>
      </trkpt>
      <trkpt lat="47.63242" lon="-2.81382">
        <ele>38.7</ele>
        <time>2025-01-28T08:07:47Z</time>
      </trkpt>
      <trkpt lat="47.63241" lon="-2.8138">
        <ele>38.7</ele>
        <time>2025-01-28T08:07:48Z</time>
      </trkpt>
      <trkpt lat="47.63241" lon="-2.81378">
        <ele>38.7</ele>
        <time>2025-01-28T08:07:49Z</time>
      </trkpt>
      <trkpt lat="47.6324" lon="-2.81376">
        <ele>38.7</ele>
        <time>2025-01-28T08:07:50Z</time>
      </trkpt>
      <trkpt lat="47.6324" lon="-2.81374">
        <ele>38.6</ele>
        <time>2025-01-28T08:07:51Z</time>
      </trkpt>
      <trkpt lat="47.6324" lon="-2.81372">
        <ele>38.6</ele>
        <time>2025-01-28T08:07:52Z</time>
      </trkpt>
      <trkpt lat="47.63239" lon="-2.81371">
        <ele>38.6</ele>
        <time>2025-01-28T08:07:53Z</time>
      </trkpt>
      <trkpt lat="47.63239" lon="-2.81369">
        <ele>38.6</ele>
        <time>2025-01-28T08:07:54Z</time>
      </trkpt>
      <trkpt lat="47.63238" lon="-2.81368">
        <ele>38.6</ele>
        <time>2025-01-28T08:07:55Z</time>
      </trkpt>
      <trkpt lat="47.63237" lon="-2.81366">
        <ele>38.5</ele>
        <time>2025-01-28T08:07:56Z</time>
      </trkpt>
      <trkpt lat="47.63237" lon="-2.81364">
        <ele>38.5</ele>
        <time>2025-01-28T08:07:57Z</time>
      </trkpt>
      <trkpt lat="47.63236" lon="-2.81362">
        <ele>38.5</ele>
        <time>2025-01-28T08:07:58Z</time>
      </trkpt>
      <trkpt lat="47.63236" lon="-2.8136">
        <ele>38.6</ele>
        <time>2025-01-28T08:07:59Z</time>
      </trkpt>
      <trkpt lat="47.63236" lon="-2.81358">
        <ele>38.6</ele>
        <time>2025-01-28T08:08:00Z</time>
      </trkpt>
      <trkpt lat="47.63235" lon="-2.81356">
        <ele>38.6</ele>
        <time>2025-01-28T08:08:01Z</time>
      </trkpt>
      <trkpt lat="47.63235" lon="-2.81355">
        <ele>38.7</ele>
        <time>2025-01-28T08:08:02Z</time>
      </trkpt>
      <trkpt lat="47.63235" lon="-2.81353">
        <ele>38.8</ele>
        <time>2025-01-28T08:08:03Z</time>
      </trkpt>
      <trkpt lat="47.63234" lon="-2.81351">
        <ele>38.8</ele>
        <time>2025-01-28T08:08:04Z</time>
      </trkpt>
      <trkpt lat="47.63234" lon="-2.81349">
        <ele>38.9</ele>
        <time>2025-01-28T08:08:05Z</time>
      </trkpt>
      <trkpt lat="47.63233" lon="-2.81347">
        <ele>38.9</ele>
        <time>2025-01-28T08:08:06Z</time>
      </trkpt>
      <trkpt lat="47.63233" lon="-2.81346">
        <ele>38.9</ele>
        <time>2025-01-28T08:08:07Z</time>
      </trkpt>
      <trkpt lat="47.63232" lon="-2.81344">
        <ele>39</ele>
        <time>2025-01-28T08:08:08Z</time>
      </trkpt>
      <trkpt lat="47.63233" lon="-2.81342">
        <ele>39.1</ele>
        <time>2025-01-28T08:08:09Z</time>
      </trkpt>
      <trkpt lat="47.63233" lon="-2.8134">
        <ele>39.1</ele>
        <time>2025-01-28T08:08:10Z</time>
      </trkpt>
      <trkpt lat="47.63233" lon="-2.81338">
        <ele>39.2</ele>
        <time>2025-01-28T08:08:11Z</time>
      </trkpt>
      <trkpt lat="47.63234" lon="-2.81336">
        <ele>39.3</ele>
        <time>2025-01-28T08:08:12Z</time>
      </trkpt>
      <trkpt lat="47.63235" lon="-2.81334">
        <ele>39.4</ele>
        <time>2025-01-28T08:08:13Z</time>
      </trkpt>
      <trkpt lat="47.63236" lon="-2.81332">
        <ele>39.5</ele>
        <time>2025-01-28T08:08:14Z</time>
      </trkpt>
      <trkpt lat="47.63237" lon="-2.81331">
        <ele>39.7</ele>
        <time>2025-01-28T08:08:15Z</time>
      </trkpt>
      <trkpt lat="47.63238" lon="-2.8133">
        <ele>39.8</ele>
        <time>2025-01-28T08:08:16Z</time>
      </trkpt>
      <trkpt lat="47.63239" lon="-2.81328">
        <ele>39.9</ele>
        <time>2025-01-28T08:08:17Z</time>
      </trkpt>
      <trkpt lat="47.6324" lon="-2.81326">
        <ele>40.1</ele>
        <time>2025-01-28T08:08:18Z</time>
      </trkpt>
      <trkpt lat="47.63241" lon="-2.81324">
        <ele>40.2</ele>
        <time>2025-01-28T08:08:19Z</time>
      </trkpt>
      <trkpt lat="47.63242" lon="-2.81323">
        <ele>40.3</ele>
        <time>2025-01-28T08:08:20Z</time>
      </trkpt>
      <trkpt lat="47.63243" lon="-2.81322">
        <ele>40.5</ele>
        <time>2025-01-28T08:08:21Z</time>
      </trkpt>
      <trkpt lat="47.63245" lon="-2.81322">
        <ele>40.5</ele>
        <time>2025-01-28T08:08:22Z</time>
      </trkpt>
      <trkpt lat="47.63246" lon="-2.81322">
        <ele>40.6</ele>
        <time>2025-01-28T08:08:23Z</time>
      </trkpt>
      <trkpt lat="47.63247" lon="-2.81322">
        <ele>40.7</ele>
        <time>2025-01-28T08:08:24Z</time>
      </trkpt>
      <trkpt lat="47.63249" lon="-2.81323">
        <ele>40.7</ele>
        <time>2025-01-28T08:08:25Z</time>
      </trkpt>
      <trkpt lat="47.6325" lon="-2.81324">
        <ele>40.7</ele>
        <time>2025-01-28T08:08:26Z</time>
      </trkpt>
      <trkpt lat="47.63251" lon="-2.81324">
        <ele>40.7</ele>
        <time>2025-01-28T08:08:27Z</time>
      </trkpt>
      <trkpt lat="47.63253" lon="-2.81325">
        <ele>40.7</ele>
        <time>2025-01-28T08:08:28Z</time>
      </trkpt>
      <trkpt lat="47.63254" lon="-2.81325">
        <ele>40.7</ele>
        <time>2025-01-28T08:08:29Z</time>
      </trkpt>
      <trkpt lat="47.63256" lon="-2.81325">
        <ele>40.8</ele>
        <time>2025-01-28T08:08:30Z</time>
      </trkpt>
      <trkpt lat="47.63257" lon="-2.81325">
        <ele>40.8</ele>
        <time>2025-01-28T08:08:31Z</time>
      </trkpt>
      <trkpt lat="47.63258" lon="-2.81325">
        <ele>40.8</ele>
        <time>2025-01-28T08:08:32Z</time>
      </trkpt>
      <trkpt lat="47.6326" lon="-2.81326">
        <ele>40.8</ele>
        <time>2025-01-28T08:08:33Z</time>
      </trkpt>
      <trkpt lat="47.63261" lon="-2.81325">
        <ele>40.9</ele>
        <time>2025-01-28T08:08:34Z</time>
      </trkpt>
      <trkpt lat="47.63262" lon="-2.81324">
        <ele>40.9</ele>
        <time>2025-01-28T08:08:35Z</time>
      </trkpt>
      <trkpt lat="47.63263" lon="-2.81324">
        <ele>41</ele>
        <time>2025-01-28T08:08:36Z</time>
      </trkpt>
      <trkpt lat="47.63264" lon="-2.81323">
        <ele>41.1</ele>
        <time>2025-01-28T08:08:37Z</time>
      </trkpt>
      <trkpt lat="47.63265" lon="-2.81322">
        <ele>41.1</ele>
        <time>2025-01-28T08:08:38Z</time>
      </trkpt>
      <trkpt lat="47.63266" lon="-2.81321">
        <ele>41.2</ele>
        <time>2025-01-28T08:08:39Z</time>
      </trkpt>
      <trkpt lat="47.63267" lon="-2.81319">
        <ele>41.3</ele>
        <time>2025-01-28T08:08:40Z</time>
      </trkpt>
      <trkpt lat="47.63268" lon="-2.81317">
        <ele>41.4</ele>
        <time>2025-01-28T08:08:41Z</time>
      </trkpt>
      <trkpt lat="47.63268" lon="-2.81315">
        <ele>41.5</ele>
        <time>2025-01-28T08:08:42Z</time>
      </trkpt>
      <trkpt lat="47.63268" lon="-2.81314">
        <ele>41.6</ele>
        <time>2025-01-28T08:08:43Z</time>
      </trkpt>
      <trkpt lat="47.63268" lon="-2.81311">
        <ele>41.7</ele>
        <time>2025-01-28T08:08:44Z</time>
      </trkpt>
      <trkpt lat="47.63268" lon="-2.81309">
        <ele>41.8</ele>
        <time>2025-01-28T08:08:45Z</time>
      </trkpt>
      <trkpt lat="47.63268" lon="-2.81307">
        <ele>41.9</ele>
        <time>2025-01-28T08:08:46Z</time>
      </trkpt>
      <trkpt lat="47.63268" lon="-2.81306">
        <ele>42</ele>
        <time>2025-01-28T08:08:47Z</time>
      </trkpt>
      <trkpt lat="47.63268" lon="-2.81304">
        <ele>42.1</ele>
        <time>2025-01-28T08:08:48Z</time>
      </trkpt>
      <trkpt lat="47.63268" lon="-2.81302">
        <ele>42.1</ele>
        <time>2025-01-28T08:08:49Z</time>
      </trkpt>
      <trkpt lat="47.63267" lon="-2.81301">
        <ele>42.2</ele>
        <time>2025-01-28T08:08:50Z</time>
      </trkpt>
      <trkpt lat="47.63266" lon="-2.813">
        <ele>42.2</ele>
        <time>2025-01-28T08:08:51Z</time>
      </trkpt>
      <trkpt lat="47.63265" lon="-2.81299">
        <ele>42.3</ele>
        <time>2025-01-28T08:08:52Z</time>
      </trkpt>
      <trkpt lat="47.63264" lon="-2.81297">
        <ele>42.3</ele>
        <time>2025-01-28T08:08:53Z</time>
      </trkpt>
      <trkpt lat="47.63263" lon="-2.81296">
        <ele>42.3</ele>
        <time>2025-01-28T08:08:54Z</time>
      </trkpt>
      <trkpt lat="47.63262" lon="-2.81295">
        <ele>42.4</ele>
        <time>2025-01-28T08:08:55Z</time>
      </trkpt>
      <trkpt lat="47.63262" lon="-2.81293">
        <ele>42.4</ele>
        <time>2025-01-28T08:08:56Z</time>
      </trkpt>
      <trkpt lat="47.63261" lon="-2.81292">
        <ele>42.5</ele>
        <time>2025-01-28T08:08:57Z</time>
      </trkpt>
      <trkpt lat="47.6326" lon="-2.81291">
        <ele>42.5</ele>
        <time>2025-01-28T08:08:58Z</time>
      </trkpt>
      <trkpt lat="47.63259" lon="-2.8129">
        <ele>42.6</ele>
        <time>2025-01-28T08:08:59Z</time>
      </trkpt>
      <trkpt lat="47.63258" lon="-2.81288">
        <ele>42.6</ele>
        <time>2025-01-28T08:09:00Z</time>
      </trkpt>
      <trkpt lat="47.63257" lon="-2.81287">
        <ele>42.7</ele>
        <time>2025-01-28T08:09:01Z</time>
      </trkpt>
      <trkpt lat="47.63257" lon="-2.81285">
        <ele>42.7</ele>
        <time>2025-01-28T08:09:02Z</time>
      </trkpt>
      <trkpt lat="47.63256" lon="-2.81283">
        <ele>42.8</ele>
        <time>2025-01-28T08:09:03Z</time>
      </trkpt>
      <trkpt lat="47.63255" lon="-2.81282">
        <ele>42.9</ele>
        <time>2025-01-28T08:09:04Z</time>
      </trkpt>
      <trkpt lat="47.63254" lon="-2.81281">
        <ele>42.9</ele>
        <time>2025-01-28T08:09:05Z</time>
      </trkpt>
      <trkpt lat="47.63254" lon="-2.81279">
        <ele>43</ele>
        <time>2025-01-28T08:09:06Z</time>
      </trkpt>
      <trkpt lat="47.63253" lon="-2.81278">
        <ele>43</ele>
        <time>2025-01-28T08:09:07Z</time>
      </trkpt>
      <trkpt lat="47.63253" lon="-2.81276">
        <ele>43.1</ele>
        <time>2025-01-28T08:09:08Z</time>
      </trkpt>
      <trkpt lat="47.63252" lon="-2.81275">
        <ele>43.1</ele>
        <time>2025-01-28T08:09:09Z</time>
      </trkpt>
      <trkpt lat="47.63251" lon="-2.81273">
        <ele>43.2</ele>
        <time>2025-01-28T08:09:10Z</time>
      </trkpt>
      <trkpt lat="47.6325" lon="-2.81272">
        <ele>43.2</ele>
        <time>2025-01-28T08:09:11Z</time>
      </trkpt>
      <trkpt lat="47.63249" lon="-2.81271">
        <ele>43.2</ele>
        <time>2025-01-28T08:09:12Z</time>
      </trkpt>
      <trkpt lat="47.63248" lon="-2.81269">
        <ele>43.2</ele>
        <time>2025-01-28T08:09:13Z</time>
      </trkpt>
      <trkpt lat="47.63248" lon="-2.81268">
        <ele>43.3</ele>
        <time>2025-01-28T08:09:14Z</time>
      </trkpt>
      <trkpt lat="47.63247" lon="-2.81266">
        <ele>43.3</ele>
        <time>2025-01-28T08:09:15Z</time>
      </trkpt>
      <trkpt lat="47.63246" lon="-2.81264">
        <ele>43.4</ele>
        <time>2025-01-28T08:09:16Z</time>
      </trkpt>
      <trkpt lat="47.63246" lon="-2.81262">
        <ele>43.4</ele>
        <time>2025-01-28T08:09:17Z</time>
      </trkpt>
      <trkpt lat="47.63245" lon="-2.8126">
        <ele>43.5</ele>
        <time>2025-01-28T08:09:18Z</time>
      </trkpt>
      <trkpt lat="47.63245" lon="-2.81258">
        <ele>43.5</ele>
        <time>2025-01-28T08:09:19Z</time>
      </trkpt>
      <trkpt lat="47.63244" lon="-2.81257">
        <ele>43.5</ele>
        <time>2025-01-28T08:09:20Z</time>
      </trkpt>
      <trkpt lat="47.63243" lon="-2.81255">
        <ele>43.6</ele>
        <time>2025-01-28T08:09:21Z</time>
      </trkpt>
      <trkpt lat="47.63243" lon="-2.81254">
        <ele>43.6</ele>
        <time>2025-01-28T08:09:22Z</time>
      </trkpt>
      <trkpt lat="47.63242" lon="-2.81253">
        <ele>43.6</ele>
        <time>2025-01-28T08:09:23Z</time>
      </trkpt>
      <trkpt lat="47.63241" lon="-2.81251">
        <ele>43.6</ele>
        <time>2025-01-28T08:09:24Z</time>
      </trkpt>
      <trkpt lat="47.63241" lon="-2.8125">
        <ele>43.7</ele>
        <time>2025-01-28T08:09:25Z</time>
      </trkpt>
      <trkpt lat="47.6324" lon="-2.81248">
        <ele>43.6</ele>
        <time>2025-01-28T08:09:26Z</time>
      </trkpt>
      <trkpt lat="47.63239" lon="-2.81246">
        <ele>43.6</ele>
        <time>2025-01-28T08:09:27Z</time>
      </trkpt>
      <trkpt lat="47.63239" lon="-2.81245">
        <ele>43.6</ele>
        <time>2025-01-28T08:09:28Z</time>
      </trkpt>
      <trkpt lat="47.63239" lon="-2.81243">
        <ele>43.6</ele>
        <time>2025-01-28T08:09:29Z</time>
      </trkpt>
      <trkpt lat="47.63239" lon="-2.81241">
        <ele>43.6</ele>
        <time>2025-01-28T08:09:30Z</time>
      </trkpt>
      <trkpt lat="47.63238" lon="-2.81239">
        <ele>43.6</ele>
        <time>2025-01-28T08:09:31Z</time>
      </trkpt>
      <trkpt lat="47.63239" lon="-2.81237">
        <ele>43.6</ele>
        <time>2025-01-28T08:09:32Z</time>
      </trkpt>
      <trkpt lat="47.63239" lon="-2.81235">
        <ele>43.6</ele>
        <time>2025-01-28T08:09:33Z</time>
      </trkpt>
      <trkpt lat="47.63238" lon="-2.81233">
        <ele>43.6</ele>
        <time>2025-01-28T08:09:34Z</time>
      </trkpt>
      <trkpt lat="47.63238" lon="-2.8123">
        <ele>43.6</ele>
        <time>2025-01-28T08:09:35Z</time>
      </trkpt>
      <trkpt lat="47.63238" lon="-2.81228">
        <ele>43.6</ele>
        <time>2025-01-28T08:09:36Z</time>
      </trkpt>
      <trkpt lat="47.63237" lon="-2.81226">
        <ele>43.5</ele>
        <time>2025-01-28T08:09:37Z</time>
      </trkpt>
      <trkpt lat="47.63237" lon="-2.81224">
        <ele>43.5</ele>
        <time>2025-01-28T08:09:38Z</time>
      </trkpt>
      <trkpt lat="47.63236" lon="-2.81221">
        <ele>43.5</ele>
        <time>2025-01-28T08:09:39Z</time>
      </trkpt>
      <trkpt lat="47.63236" lon="-2.8122">
        <ele>43.5</ele>
        <time>2025-01-28T08:09:40Z</time>
      </trkpt>
      <trkpt lat="47.63237" lon="-2.81218">
        <ele>43.4</ele>
        <time>2025-01-28T08:09:41Z</time>
      </trkpt>
      <trkpt lat="47.63237" lon="-2.81217">
        <ele>43.4</ele>
        <time>2025-01-28T08:09:42Z</time>
      </trkpt>
      <trkpt lat="47.63237" lon="-2.81215">
        <ele>43.4</ele>
        <time>2025-01-28T08:09:43Z</time>
      </trkpt>
      <trkpt lat="47.63237" lon="-2.81213">
        <ele>43.4</ele>
        <time>2025-01-28T08:09:44Z</time>
      </trkpt>
      <trkpt lat="47.63237" lon="-2.81211">
        <ele>43.3</ele>
        <time>2025-01-28T08:09:45Z</time>
      </trkpt>
      <trkpt lat="47.63237" lon="-2.81209">
        <ele>43.3</ele>
        <time>2025-01-28T08:09:46Z</time>
      </trkpt>
      <trkpt lat="47.63237" lon="-2.81207">
        <ele>43.2</ele>
        <time>2025-01-28T08:09:47Z</time>
      </trkpt>
      <trkpt lat="47.63237" lon="-2.81205">
        <ele>43.2</ele>
        <time>2025-01-28T08:09:48Z</time>
      </trkpt>
      <trkpt lat="47.63237" lon="-2.81203">
        <ele>43.2</ele>
        <time>2025-01-28T08:09:49Z</time>
      </trkpt>
      <trkpt lat="47.63238" lon="-2.81201">
        <ele>43.1</ele>
        <time>2025-01-28T08:09:50Z</time>
      </trkpt>
      <trkpt lat="47.63238" lon="-2.81199">
        <ele>43.1</ele>
        <time>2025-01-28T08:09:51Z</time>
      </trkpt>
      <trkpt lat="47.63238" lon="-2.81197">
        <ele>43.1</ele>
        <time>2025-01-28T08:09:52Z</time>
      </trkpt>
      <trkpt lat="47.63238" lon="-2.81196">
        <ele>43</ele>
        <time>2025-01-28T08:09:53Z</time>
      </trkpt>
      <trkpt lat="47.63238" lon="-2.81194">
        <ele>43</ele>
        <time>2025-01-28T08:09:54Z</time>
      </trkpt>
      <trkpt lat="47.63238" lon="-2.81192">
        <ele>43</ele>
        <time>2025-01-28T08:09:55Z</time>
      </trkpt>
      <trkpt lat="47.63238" lon="-2.8119">
        <ele>42.9</ele>
        <time>2025-01-28T08:09:56Z</time>
      </trkpt>
      <trkpt lat="47.63238" lon="-2.81189">
        <ele>42.9</ele>
        <time>2025-01-28T08:09:57Z</time>
      </trkpt>
      <trkpt lat="47.63238" lon="-2.81187">
        <ele>42.9</ele>
        <time>2025-01-28T08:09:58Z</time>
      </trkpt>
      <trkpt lat="47.63238" lon="-2.81185">
        <ele>42.9</ele>
        <time>2025-01-28T08:09:59Z</time>
      </trkpt>
      <trkpt lat="47.63238" lon="-2.81183">
        <ele>42.8</ele>
        <time>2025-01-28T08:10:00Z</time>
      </trkpt>
      <trkpt lat="47.63239" lon="-2.81181">
        <ele>42.8</ele>
        <time>2025-01-28T08:10:01Z</time>
      </trkpt>
      <trkpt lat="47.63239" lon="-2.81179">
        <ele>42.8</ele>
        <time>2025-01-28T08:10:02Z</time>
      </trkpt>
      <trkpt lat="47.63239" lon="-2.81177">
        <ele>42.7</ele>
        <time>2025-01-28T08:10:03Z</time>
      </trkpt>
      <trkpt lat="47.63238" lon="-2.81174">
        <ele>42.7</ele>
        <time>2025-01-28T08:10:04Z</time>
      </trkpt>
      <trkpt lat="47.6324" lon="-2.81172">
        <ele>42.7</ele>
        <time>2025-01-28T08:10:05Z</time>
      </trkpt>
      <trkpt lat="47.6324" lon="-2.8117">
        <ele>42.7</ele>
        <time>2025-01-28T08:10:06Z</time>
      </trkpt>
      <trkpt lat="47.6324" lon="-2.81168">
        <ele>42.6</ele>
        <time>2025-01-28T08:10:07Z</time>
      </trkpt>
      <trkpt lat="47.63239" lon="-2.81166">
        <ele>42.6</ele>
        <time>2025-01-28T08:10:08Z</time>
      </trkpt>
      <trkpt lat="47.63239" lon="-2.81164">
        <ele>42.6</ele>
        <time>2025-01-28T08:10:09Z</time>
      </trkpt>
      <trkpt lat="47.63239" lon="-2.81162">
        <ele>42.6</ele>
        <time>2025-01-28T08:10:10Z</time>
      </trkpt>
      <trkpt lat="47.63238" lon="-2.8116">
        <ele>42.6</ele>
        <time>2025-01-28T08:10:11Z</time>
      </trkpt>
      <trkpt lat="47.63238" lon="-2.81158">
        <ele>42.6</ele>
        <time>2025-01-28T08:10:12Z</time>
      </trkpt>
      <trkpt lat="47.63239" lon="-2.81155">
        <ele>42.6</ele>
        <time>2025-01-28T08:10:13Z</time>
      </trkpt>
      <trkpt lat="47.63239" lon="-2.81153">
        <ele>42.6</ele>
        <time>2025-01-28T08:10:14Z</time>
      </trkpt>
      <trkpt lat="47.6324" lon="-2.81151">
        <ele>42.6</ele>
        <time>2025-01-28T08:10:15Z</time>
      </trkpt>
      <trkpt lat="47.6324" lon="-2.81149">
        <ele>42.6</ele>
        <time>2025-01-28T08:10:16Z</time>
      </trkpt>
      <trkpt lat="47.6324" lon="-2.81147">
        <ele>42.6</ele>
        <time>2025-01-28T08:10:17Z</time>
      </trkpt>
      <trkpt lat="47.6324" lon="-2.81146">
        <ele>42.7</ele>
        <time>2025-01-28T08:10:18Z</time>
      </trkpt>
      <trkpt lat="47.63241" lon="-2.81144">
        <ele>42.7</ele>
        <time>2025-01-28T08:10:19Z</time>
      </trkpt>
      <trkpt lat="47.63241" lon="-2.81142">
        <ele>42.7</ele>
        <time>2025-01-28T08:10:20Z</time>
      </trkpt>
      <trkpt lat="47.63241" lon="-2.8114">
        <ele>42.7</ele>
        <time>2025-01-28T08:10:21Z</time>
      </trkpt>
      <trkpt lat="47.63241" lon="-2.81138">
        <ele>42.6</ele>
        <time>2025-01-28T08:10:22Z</time>
      </trkpt>
      <trkpt lat="47.63241" lon="-2.81136">
        <ele>42.6</ele>
        <time>2025-01-28T08:10:23Z</time>
      </trkpt>
      <trkpt lat="47.63241" lon="-2.81134">
        <ele>42.5</ele>
        <time>2025-01-28T08:10:24Z</time>
      </trkpt>
      <trkpt lat="47.63241" lon="-2.81132">
        <ele>42.4</ele>
        <time>2025-01-28T08:10:25Z</time>
      </trkpt>
      <trkpt lat="47.63241" lon="-2.8113">
        <ele>42.4</ele>
        <time>2025-01-28T08:10:26Z</time>
      </trkpt>
      <trkpt lat="47.63242" lon="-2.81128">
        <ele>42.3</ele>
        <time>2025-01-28T08:10:27Z</time>
      </trkpt>
      <trkpt lat="47.63242" lon="-2.81126">
        <ele>42.2</ele>
        <time>2025-01-28T08:10:28Z</time>
      </trkpt>
      <trkpt lat="47.63241" lon="-2.81123">
        <ele>42.1</ele>
        <time>2025-01-28T08:10:29Z</time>
      </trkpt>
      <trkpt lat="47.63241" lon="-2.81122">
        <ele>42</ele>
        <time>2025-01-28T08:10:30Z</time>
      </trkpt>
      <trkpt lat="47.63241" lon="-2.8112">
        <ele>42</ele>
        <time>2025-01-28T08:10:31Z</time>
      </trkpt>
      <trkpt lat="47.63241" lon="-2.81118">
        <ele>41.9</ele>
        <time>2025-01-28T08:10:32Z</time>
      </trkpt>
      <trkpt lat="47.63241" lon="-2.81116">
        <ele>41.8</ele>
        <time>2025-01-28T08:10:33Z</time>
      </trkpt>
      <trkpt lat="47.63241" lon="-2.81114">
        <ele>41.8</ele>
        <time>2025-01-28T08:10:34Z</time>
      </trkpt>
      <trkpt lat="47.63241" lon="-2.81112">
        <ele>41.7</ele>
        <time>2025-01-28T08:10:35Z</time>
      </trkpt>
      <trkpt lat="47.63241" lon="-2.8111">
        <ele>41.7</ele>
        <time>2025-01-28T08:10:36Z</time>
      </trkpt>
      <trkpt lat="47.63241" lon="-2.81108">
        <ele>41.7</ele>
        <time>2025-01-28T08:10:37Z</time>
      </trkpt>
      <trkpt lat="47.63241" lon="-2.81106">
        <ele>41.7</ele>
        <time>2025-01-28T08:10:38Z</time>
      </trkpt>
      <trkpt lat="47.63241" lon="-2.81104">
        <ele>41.8</ele>
        <time>2025-01-28T08:10:39Z</time>
      </trkpt>
      <trkpt lat="47.63241" lon="-2.81103">
        <ele>41.8</ele>
        <time>2025-01-28T08:10:40Z</time>
      </trkpt>
      <trkpt lat="47.63241" lon="-2.81101">
        <ele>41.8</ele>
        <time>2025-01-28T08:10:41Z</time>
      </trkpt>
      <trkpt lat="47.6324" lon="-2.81099">
        <ele>41.8</ele>
        <time>2025-01-28T08:10:42Z</time>
      </trkpt>
      <trkpt lat="47.6324" lon="-2.81097">
        <ele>41.8</ele>
        <time>2025-01-28T08:10:43Z</time>
      </trkpt>
      <trkpt lat="47.6324" lon="-2.81095">
        <ele>41.9</ele>
        <time>2025-01-28T08:10:44Z</time>
      </trkpt>
      <trkpt lat="47.6324" lon="-2.81093">
        <ele>41.9</ele>
        <time>2025-01-28T08:10:45Z</time>
      </trkpt>
      <trkpt lat="47.6324" lon="-2.81092">
        <ele>41.9</ele>
        <time>2025-01-28T08:10:46Z</time>
      </trkpt>
      <trkpt lat="47.6324" lon="-2.8109">
        <ele>41.9</ele>
        <time>2025-01-28T08:10:47Z</time>
      </trkpt>
      <trkpt lat="47.6324" lon="-2.81088">
        <ele>41.9</ele>
        <time>2025-01-28T08:10:48Z</time>
      </trkpt>
      <trkpt lat="47.6324" lon="-2.81086">
        <ele>42</ele>
        <time>2025-01-28T08:10:49Z</time>
      </trkpt>
      <trkpt lat="47.6324" lon="-2.81084">
        <ele>42</ele>
        <time>2025-01-28T08:10:50Z</time>
      </trkpt>
      <trkpt lat="47.6324" lon="-2.81082">
        <ele>42</ele>
        <time>2025-01-28T08:10:51Z</time>
      </trkpt>
      <trkpt lat="47.6324" lon="-2.8108">
        <ele>42</ele>
        <time>2025-01-28T08:10:52Z</time>
      </trkpt>
      <trkpt lat="47.6324" lon="-2.81079">
        <ele>41.9</ele>
        <time>2025-01-28T08:10:53Z</time>
      </trkpt>
      <trkpt lat="47.6324" lon="-2.81077">
        <ele>41.9</ele>
        <time>2025-01-28T08:10:54Z</time>
      </trkpt>
      <trkpt lat="47.63239" lon="-2.81075">
        <ele>41.9</ele>
        <time>2025-01-28T08:10:55Z</time>
      </trkpt>
      <trkpt lat="47.6324" lon="-2.81074">
        <ele>41.9</ele>
        <time>2025-01-28T08:10:56Z</time>
      </trkpt>
      <trkpt lat="47.63239" lon="-2.81072">
        <ele>41.8</ele>
        <time>2025-01-28T08:10:57Z</time>
      </trkpt>
      <trkpt lat="47.63238" lon="-2.8107">
        <ele>41.8</ele>
        <time>2025-01-28T08:10:58Z</time>
      </trkpt>
      <trkpt lat="47.63238" lon="-2.81068">
        <ele>41.8</ele>
        <time>2025-01-28T08:10:59Z</time>
      </trkpt>
      <trkpt lat="47.63237" lon="-2.81066">
        <ele>41.7</ele>
        <time>2025-01-28T08:11:00Z</time>
      </trkpt>
      <trkpt lat="47.63237" lon="-2.81064">
        <ele>41.7</ele>
        <time>2025-01-28T08:11:01Z</time>
      </trkpt>
      <trkpt lat="47.63237" lon="-2.81062">
        <ele>41.6</ele>
        <time>2025-01-28T08:11:02Z</time>
      </trkpt>
      <trkpt lat="47.63237" lon="-2.8106">
        <ele>41.6</ele>
        <time>2025-01-28T08:11:03Z</time>
      </trkpt>
      <trkpt lat="47.63237" lon="-2.81058">
        <ele>41.6</ele>
        <time>2025-01-28T08:11:04Z</time>
      </trkpt>
      <trkpt lat="47.63237" lon="-2.81056">
        <ele>41.5</ele>
        <time>2025-01-28T08:11:05Z</time>
      </trkpt>
      <trkpt lat="47.63237" lon="-2.81054">
        <ele>41.5</ele>
        <time>2025-01-28T08:11:06Z</time>
      </trkpt>
      <trkpt lat="47.63237" lon="-2.81052">
        <ele>41.5</ele>
        <time>2025-01-28T08:11:07Z</time>
      </trkpt>
      <trkpt lat="47.63236" lon="-2.81051">
        <ele>41.5</ele>
        <time>2025-01-28T08:11:08Z</time>
      </trkpt>
      <trkpt lat="47.63236" lon="-2.81049">
        <ele>41.5</ele>
        <time>2025-01-28T08:11:09Z</time>
      </trkpt>
      <trkpt lat="47.63236" lon="-2.81047">
        <ele>41.5</ele>
        <time>2025-01-28T08:11:10Z</time>
      </trkpt>
      <trkpt lat="47.63235" lon="-2.81045">
        <ele>41.5</ele>
        <time>2025-01-28T08:11:11Z</time>
      </trkpt>
      <trkpt lat="47.63235" lon="-2.81043">
        <ele>41.4</ele>
        <time>2025-01-28T08:11:12Z</time>
      </trkpt>
      <trkpt lat="47.63234" lon="-2.81042">
        <ele>41.4</ele>
        <time>2025-01-28T08:11:13Z</time>
      </trkpt>
      <trkpt lat="47.63233" lon="-2.8104">
        <ele>41.4</ele>
        <time>2025-01-28T08:11:14Z</time>
      </trkpt>
      <trkpt lat="47.63233" lon="-2.81039">
        <ele>41.4</ele>
        <time>2025-01-28T08:11:15Z</time>
      </trkpt>
      <trkpt lat="47.63232" lon="-2.81037">
        <ele>41.4</ele>
        <time>2025-01-28T08:11:16Z</time>
      </trkpt>
      <trkpt lat="47.63233" lon="-2.81034">
        <ele>41.4</ele>
        <time>2025-01-28T08:11:17Z</time>
      </trkpt>
      <trkpt lat="47.63233" lon="-2.81033">
        <ele>41.4</ele>
        <time>2025-01-28T08:11:18Z</time>
      </trkpt>
      <trkpt lat="47.63233" lon="-2.81031">
        <ele>41.4</ele>
        <time>2025-01-28T08:11:19Z</time>
      </trkpt>
      <trkpt lat="47.63232" lon="-2.81029">
        <ele>41.4</ele>
        <time>2025-01-28T08:11:20Z</time>
      </trkpt>
      <trkpt lat="47.63232" lon="-2.81027">
        <ele>41.3</ele>
        <time>2025-01-28T08:11:21Z</time>
      </trkpt>
      <trkpt lat="47.63232" lon="-2.81026">
        <ele>41.3</ele>
        <time>2025-01-28T08:11:22Z</time>
      </trkpt>
      <trkpt lat="47.63232" lon="-2.81024">
        <ele>41.2</ele>
        <time>2025-01-28T08:11:23Z</time>
      </trkpt>
      <trkpt lat="47.63232" lon="-2.81022">
        <ele>41.1</ele>
        <time>2025-01-28T08:11:24Z</time>
      </trkpt>
      <trkpt lat="47.63231" lon="-2.81021">
        <ele>41.1</ele>
        <time>2025-01-28T08:11:25Z</time>
      </trkpt>
      <trkpt lat="47.63231" lon="-2.81019">
        <ele>41</ele>
        <time>2025-01-28T08:11:26Z</time>
      </trkpt>
      <trkpt lat="47.6323" lon="-2.81017">
        <ele>40.9</ele>
        <time>2025-01-28T08:11:27Z</time>
      </trkpt>
      <trkpt lat="47.6323" lon="-2.81016">
        <ele>40.8</ele>
        <time>2025-01-28T08:11:28Z</time>
      </trkpt>
      <trkpt lat="47.63229" lon="-2.81014">
        <ele>40.8</ele>
        <time>2025-01-28T08:11:29Z</time>
      </trkpt>
      <trkpt lat="47.63229" lon="-2.81012">
        <ele>40.7</ele>
        <time>2025-01-28T08:11:30Z</time>
      </trkpt>
      <trkpt lat="47.63228" lon="-2.81011">
        <ele>40.6</ele>
        <time>2025-01-28T08:11:31Z</time>
      </trkpt>
      <trkpt lat="47.63228" lon="-2.81009">
        <ele>40.5</ele>
        <time>2025-01-28T08:11:32Z</time>
      </trkpt>
      <trkpt lat="47.63228" lon="-2.81007">
        <ele>40.4</ele>
        <time>2025-01-28T08:11:33Z</time>
      </trkpt>
      <trkpt lat="47.63228" lon="-2.81005">
        <ele>40.4</ele>
        <time>2025-01-28T08:11:34Z</time>
      </trkpt>
      <trkpt lat="47.63228" lon="-2.81003">
        <ele>40.3</ele>
        <time>2025-01-28T08:11:35Z</time>
      </trkpt>
      <trkpt lat="47.63228" lon="-2.81001">
        <ele>40.2</ele>
        <time>2025-01-28T08:11:36Z</time>
      </trkpt>
      <trkpt lat="47.63227" lon="-2.80999">
        <ele>40.2</ele>
        <time>2025-01-28T08:11:37Z</time>
      </trkpt>
      <trkpt lat="47.63227" lon="-2.80997">
        <ele>40.2</ele>
        <time>2025-01-28T08:11:38Z</time>
      </trkpt>
      <trkpt lat="47.63226" lon="-2.80996">
        <ele>40.1</ele>
        <time>2025-01-28T08:11:39Z</time>
      </trkpt>
      <trkpt lat="47.63226" lon="-2.80994">
        <ele>40.1</ele>
        <time>2025-01-28T08:11:40Z</time>
      </trkpt>
      <trkpt lat="47.63225" lon="-2.80992">
        <ele>40.1</ele>
        <time>2025-01-28T08:11:41Z</time>
      </trkpt>
      <trkpt lat="47.63225" lon="-2.8099">
        <ele>40.1</ele>
        <time>2025-01-28T08:11:42Z</time>
      </trkpt>
      <trkpt lat="47.63225" lon="-2.80988">
        <ele>40.1</ele>
        <time>2025-01-28T08:11:43Z</time>
      </trkpt>
      <trkpt lat="47.63224" lon="-2.80986">
        <ele>40.1</ele>
        <time>2025-01-28T08:11:44Z</time>
      </trkpt>
      <trkpt lat="47.63224" lon="-2.80985">
        <ele>40.1</ele>
        <time>2025-01-28T08:11:45Z</time>
      </trkpt>
      <trkpt lat="47.63223" lon="-2.80983">
        <ele>40</ele>
        <time>2025-01-28T08:11:46Z</time>
      </trkpt>
      <trkpt lat="47.63223" lon="-2.80982">
        <ele>40</ele>
        <time>2025-01-28T08:11:47Z</time>
      </trkpt>
      <trkpt lat="47.63223" lon="-2.8098">
        <ele>40</ele>
        <time>2025-01-28T08:11:48Z</time>
      </trkpt>
      <trkpt lat="47.63223" lon="-2.80979">
        <ele>40</ele>
        <time>2025-01-28T08:11:49Z</time>
      </trkpt>
      <trkpt lat="47.63223" lon="-2.80977">
        <ele>40</ele>
        <time>2025-01-28T08:11:50Z</time>
      </trkpt>
      <trkpt lat="47.63222" lon="-2.80976">
        <ele>40</ele>
        <time>2025-01-28T08:11:51Z</time>
      </trkpt>
      <trkpt lat="47.63222" lon="-2.80974">
        <ele>40</ele>
        <time>2025-01-28T08:11:52Z</time>
      </trkpt>
      <trkpt lat="47.63222" lon="-2.80973">
        <ele>40</ele>
        <time>2025-01-28T08:11:53Z</time>
      </trkpt>
      <trkpt lat="47.63222" lon="-2.80973">
        <ele>40</ele>
        <time>2025-01-28T08:11:54Z</time>
      </trkpt>
      <trkpt lat="47.63222" lon="-2.80972">
        <ele>40</ele>
        <time>2025-01-28T08:11:55Z</time>
      </trkpt>
      <trkpt lat="47.63222" lon="-2.8097">
        <ele>40</ele>
        <time>2025-01-28T08:11:56Z</time>
      </trkpt>
      <trkpt lat="47.63222" lon="-2.80968">
        <ele>40</ele>
        <time>2025-01-28T08:11:57Z</time>
      </trkpt>
      <trkpt lat="47.63222" lon="-2.80967">
        <ele>40</ele>
        <time>2025-01-28T08:11:58Z</time>
      </trkpt>
      <trkpt lat="47.63222" lon="-2.80965">
        <ele>40</ele>
        <time>2025-01-28T08:11:59Z</time>
      </trkpt>
      <trkpt lat="47.63221" lon="-2.80964">
        <ele>40</ele>
        <time>2025-01-28T08:12:00Z</time>
      </trkpt>
      <trkpt lat="47.63221" lon="-2.80962">
        <ele>40</ele>
        <time>2025-01-28T08:12:01Z</time>
      </trkpt>
      <trkpt lat="47.63221" lon="-2.80961">
        <ele>40</ele>
        <time>2025-01-28T08:12:02Z</time>
      </trkpt>
      <trkpt lat="47.6322" lon="-2.80959">
        <ele>40</ele>
        <time>2025-01-28T08:12:03Z</time>
      </trkpt>
      <trkpt lat="47.6322" lon="-2.80958">
        <ele>40</ele>
        <time>2025-01-28T08:12:04Z</time>
      </trkpt>
      <trkpt lat="47.63219" lon="-2.80956">
        <ele>39.9</ele>
        <time>2025-01-28T08:12:05Z</time>
      </trkpt>
      <trkpt lat="47.63219" lon="-2.80955">
        <ele>39.9</ele>
        <time>2025-01-28T08:12:06Z</time>
      </trkpt>
      <trkpt lat="47.63218" lon="-2.80953">
        <ele>39.9</ele>
        <time>2025-01-28T08:12:07Z</time>
      </trkpt>
      <trkpt lat="47.63218" lon="-2.80952">
        <ele>39.9</ele>
        <time>2025-01-28T08:12:08Z</time>
      </trkpt>
      <trkpt lat="47.63218" lon="-2.8095">
        <ele>39.9</ele>
        <time>2025-01-28T08:12:09Z</time>
      </trkpt>
      <trkpt lat="47.63217" lon="-2.80948">
        <ele>39.8</ele>
        <time>2025-01-28T08:12:10Z</time>
      </trkpt>
      <trkpt lat="47.63217" lon="-2.80947">
        <ele>39.8</ele>
        <time>2025-01-28T08:12:11Z</time>
      </trkpt>
      <trkpt lat="47.63216" lon="-2.80945">
        <ele>39.8</ele>
        <time>2025-01-28T08:12:12Z</time>
      </trkpt>
      <trkpt lat="47.63215" lon="-2.80944">
        <ele>39.8</ele>
        <time>2025-01-28T08:12:13Z</time>
      </trkpt>
      <trkpt lat="47.63215" lon="-2.80942">
        <ele>39.7</ele>
        <time>2025-01-28T08:12:14Z</time>
      </trkpt>
      <trkpt lat="47.63214" lon="-2.80941">
        <ele>39.7</ele>
        <time>2025-01-28T08:12:15Z</time>
      </trkpt>
      <trkpt lat="47.63214" lon="-2.8094">
        <ele>39.7</ele>
        <time>2025-01-28T08:12:16Z</time>
      </trkpt>
      <trkpt lat="47.63213" lon="-2.80938">
        <ele>39.7</ele>
        <time>2025-01-28T08:12:17Z</time>
      </trkpt>
      <trkpt lat="47.63213" lon="-2.80936">
        <ele>39.7</ele>
        <time>2025-01-28T08:12:18Z</time>
      </trkpt>
      <trkpt lat="47.63212" lon="-2.80935">
        <ele>39.6</ele>
        <time>2025-01-28T08:12:19Z</time>
      </trkpt>
      <trkpt lat="47.63212" lon="-2.80933">
        <ele>39.6</ele>
        <time>2025-01-28T08:12:20Z</time>
      </trkpt>
      <trkpt lat="47.63211" lon="-2.80931">
        <ele>39.6</ele>
        <time>2025-01-28T08:12:21Z</time>
      </trkpt>
      <trkpt lat="47.63211" lon="-2.80929">
        <ele>39.6</ele>
        <time>2025-01-28T08:12:22Z</time>
      </trkpt>
      <trkpt lat="47.6321" lon="-2.80928">
        <ele>39.6</ele>
        <time>2025-01-28T08:12:23Z</time>
      </trkpt>
      <trkpt lat="47.6321" lon="-2.80925">
        <ele>39.6</ele>
        <time>2025-01-28T08:12:24Z</time>
      </trkpt>
      <trkpt lat="47.63209" lon="-2.80924">
        <ele>39.5</ele>
        <time>2025-01-28T08:12:25Z</time>
      </trkpt>
      <trkpt lat="47.63208" lon="-2.80921">
        <ele>39.5</ele>
        <time>2025-01-28T08:12:26Z</time>
      </trkpt>
      <trkpt lat="47.63208" lon="-2.8092">
        <ele>39.5</ele>
        <time>2025-01-28T08:12:27Z</time>
      </trkpt>
      <trkpt lat="47.63207" lon="-2.80918">
        <ele>39.5</ele>
        <time>2025-01-28T08:12:28Z</time>
      </trkpt>
      <trkpt lat="47.63207" lon="-2.80916">
        <ele>39.4</ele>
        <time>2025-01-28T08:12:29Z</time>
      </trkpt>
      <trkpt lat="47.63207" lon="-2.80915">
        <ele>39.3</ele>
        <time>2025-01-28T08:12:30Z</time>
      </trkpt>
      <trkpt lat="47.63206" lon="-2.80914">
        <ele>39.3</ele>
        <time>2025-01-28T08:12:31Z</time>
      </trkpt>
      <trkpt lat="47.63206" lon="-2.80912">
        <ele>39.2</ele>
        <time>2025-01-28T08:12:32Z</time>
      </trkpt>
      <trkpt lat="47.63206" lon="-2.8091">
        <ele>39.1</ele>
        <time>2025-01-28T08:12:33Z</time>
      </trkpt>
      <trkpt lat="47.63205" lon="-2.80908">
        <ele>38.9</ele>
        <time>2025-01-28T08:12:34Z</time>
      </trkpt>
      <trkpt lat="47.63205" lon="-2.80906">
        <ele>38.8</ele>
        <time>2025-01-28T08:12:35Z</time>
      </trkpt>
      <trkpt lat="47.63205" lon="-2.80903">
        <ele>38.7</ele>
        <time>2025-01-28T08:12:36Z</time>
      </trkpt>
      <trkpt lat="47.63204" lon="-2.80901">
        <ele>38.6</ele>
        <time>2025-01-28T08:12:37Z</time>
      </trkpt>
      <trkpt lat="47.63204" lon="-2.80899">
        <ele>38.5</ele>
        <time>2025-01-28T08:12:38Z</time>
      </trkpt>
      <trkpt lat="47.63204" lon="-2.80897">
        <ele>38.4</ele>
        <time>2025-01-28T08:12:39Z</time>
      </trkpt>
      <trkpt lat="47.63203" lon="-2.80895">
        <ele>38.3</ele>
        <time>2025-01-28T08:12:40Z</time>
      </trkpt>
      <trkpt lat="47.63203" lon="-2.80893">
        <ele>38.2</ele>
        <time>2025-01-28T08:12:41Z</time>
      </trkpt>
      <trkpt lat="47.63202" lon="-2.80892">
        <ele>38.1</ele>
        <time>2025-01-28T08:12:42Z</time>
      </trkpt>
      <trkpt lat="47.63202" lon="-2.8089">
        <ele>38</ele>
        <time>2025-01-28T08:12:43Z</time>
      </trkpt>
      <trkpt lat="47.63201" lon="-2.80888">
        <ele>38</ele>
        <time>2025-01-28T08:12:44Z</time>
      </trkpt>
      <trkpt lat="47.632" lon="-2.80887">
        <ele>38</ele>
        <time>2025-01-28T08:12:45Z</time>
      </trkpt>
      <trkpt lat="47.632" lon="-2.80884">
        <ele>38</ele>
        <time>2025-01-28T08:12:46Z</time>
      </trkpt>
      <trkpt lat="47.632" lon="-2.80882">
        <ele>38</ele>
        <time>2025-01-28T08:12:47Z</time>
      </trkpt>
      <trkpt lat="47.63199" lon="-2.8088">
        <ele>38</ele>
        <time>2025-01-28T08:12:48Z</time>
      </trkpt>
      <trkpt lat="47.63199" lon="-2.80879">
        <ele>38</ele>
        <time>2025-01-28T08:12:49Z</time>
      </trkpt>
      <trkpt lat="47.63199" lon="-2.80877">
        <ele>38</ele>
        <time>2025-01-28T08:12:50Z</time>
      </trkpt>
      <trkpt lat="47.63198" lon="-2.80875">
        <ele>38</ele>
        <time>2025-01-28T08:12:51Z</time>
      </trkpt>
      <trkpt lat="47.63198" lon="-2.80873">
        <ele>38</ele>
        <time>2025-01-28T08:12:52Z</time>
      </trkpt>
      <trkpt lat="47.63197" lon="-2.80871">
        <ele>38</ele>
        <time>2025-01-28T08:12:53Z</time>
      </trkpt>
      <trkpt lat="47.63196" lon="-2.8087">
        <ele>38</ele>
        <time>2025-01-28T08:12:54Z</time>
      </trkpt>
      <trkpt lat="47.63195" lon="-2.80868">
        <ele>38</ele>
        <time>2025-01-28T08:12:55Z</time>
      </trkpt>
      <trkpt lat="47.63195" lon="-2.80866">
        <ele>38</ele>
        <time>2025-01-28T08:12:56Z</time>
      </trkpt>
      <trkpt lat="47.63195" lon="-2.80864">
        <ele>38</ele>
        <time>2025-01-28T08:12:57Z</time>
      </trkpt>
      <trkpt lat="47.63195" lon="-2.80863">
        <ele>38</ele>
        <time>2025-01-28T08:12:58Z</time>
      </trkpt>
      <trkpt lat="47.63194" lon="-2.80861">
        <ele>38</ele>
        <time>2025-01-28T08:12:59Z</time>
      </trkpt>
      <trkpt lat="47.63194" lon="-2.80859">
        <ele>37.9</ele>
        <time>2025-01-28T08:13:00Z</time>
      </trkpt>
      <trkpt lat="47.63194" lon="-2.80857">
        <ele>37.8</ele>
        <time>2025-01-28T08:13:01Z</time>
      </trkpt>
      <trkpt lat="47.63194" lon="-2.80856">
        <ele>37.8</ele>
        <time>2025-01-28T08:13:02Z</time>
      </trkpt>
      <trkpt lat="47.63194" lon="-2.80854">
        <ele>37.7</ele>
        <time>2025-01-28T08:13:03Z</time>
      </trkpt>
      <trkpt lat="47.63194" lon="-2.80852">
        <ele>37.7</ele>
        <time>2025-01-28T08:13:04Z</time>
      </trkpt>
      <trkpt lat="47.63193" lon="-2.8085">
        <ele>37.6</ele>
        <time>2025-01-28T08:13:05Z</time>
      </trkpt>
      <trkpt lat="47.63192" lon="-2.80849">
        <ele>37.5</ele>
        <time>2025-01-28T08:13:06Z</time>
      </trkpt>
      <trkpt lat="47.63192" lon="-2.80847">
        <ele>37.4</ele>
        <time>2025-01-28T08:13:07Z</time>
      </trkpt>
      <trkpt lat="47.63191" lon="-2.80845">
        <ele>37.4</ele>
        <time>2025-01-28T08:13:08Z</time>
      </trkpt>
      <trkpt lat="47.63191" lon="-2.80843">
        <ele>37.3</ele>
        <time>2025-01-28T08:13:09Z</time>
      </trkpt>
      <trkpt lat="47.6319" lon="-2.80842">
        <ele>37.2</ele>
        <time>2025-01-28T08:13:10Z</time>
      </trkpt>
      <trkpt lat="47.6319" lon="-2.8084">
        <ele>37.2</ele>
        <time>2025-01-28T08:13:11Z</time>
      </trkpt>
      <trkpt lat="47.6319" lon="-2.80838">
        <ele>37.1</ele>
        <time>2025-01-28T08:13:12Z</time>
      </trkpt>
      <trkpt lat="47.63189" lon="-2.80836">
        <ele>37.1</ele>
        <time>2025-01-28T08:13:13Z</time>
      </trkpt>
      <trkpt lat="47.63189" lon="-2.80835">
        <ele>37</ele>
        <time>2025-01-28T08:13:14Z</time>
      </trkpt>
      <trkpt lat="47.63189" lon="-2.80833">
        <ele>37</ele>
        <time>2025-01-28T08:13:15Z</time>
      </trkpt>
      <trkpt lat="47.63188" lon="-2.80831">
        <ele>37</ele>
        <time>2025-01-28T08:13:16Z</time>
      </trkpt>
      <trkpt lat="47.63188" lon="-2.8083">
        <ele>37</ele>
        <time>2025-01-28T08:13:17Z</time>
      </trkpt>
      <trkpt lat="47.63187" lon="-2.80828">
        <ele>37</ele>
        <time>2025-01-28T08:13:18Z</time>
      </trkpt>
      <trkpt lat="47.63187" lon="-2.80826">
        <ele>37</ele>
        <time>2025-01-28T08:13:19Z</time>
      </trkpt>
      <trkpt lat="47.63187" lon="-2.80824">
        <ele>37</ele>
        <time>2025-01-28T08:13:20Z</time>
      </trkpt>
      <trkpt lat="47.63186" lon="-2.80822">
        <ele>37</ele>
        <time>2025-01-28T08:13:21Z</time>
      </trkpt>
      <trkpt lat="47.63186" lon="-2.8082">
        <ele>37</ele>
        <time>2025-01-28T08:13:22Z</time>
      </trkpt>
      <trkpt lat="47.63185" lon="-2.80818">
        <ele>37</ele>
        <time>2025-01-28T08:13:23Z</time>
      </trkpt>
      <trkpt lat="47.63184" lon="-2.80817">
        <ele>37</ele>
        <time>2025-01-28T08:13:24Z</time>
      </trkpt>
      <trkpt lat="47.63184" lon="-2.80815">
        <ele>37</ele>
        <time>2025-01-28T08:13:25Z</time>
      </trkpt>
      <trkpt lat="47.63184" lon="-2.80813">
        <ele>37</ele>
        <time>2025-01-28T08:13:26Z</time>
      </trkpt>
      <trkpt lat="47.63184" lon="-2.80811">
        <ele>37</ele>
        <time>2025-01-28T08:13:27Z</time>
      </trkpt>
      <trkpt lat="47.63184" lon="-2.80809">
        <ele>37</ele>
        <time>2025-01-28T08:13:28Z</time>
      </trkpt>
      <trkpt lat="47.63183" lon="-2.80807">
        <ele>37</ele>
        <time>2025-01-28T08:13:29Z</time>
      </trkpt>
      <trkpt lat="47.63183" lon="-2.80805">
        <ele>37</ele>
        <time>2025-01-28T08:13:30Z</time>
      </trkpt>
      <trkpt lat="47.63182" lon="-2.80804">
        <ele>37</ele>
        <time>2025-01-28T08:13:31Z</time>
      </trkpt>
      <trkpt lat="47.63182" lon="-2.80802">
        <ele>37</ele>
        <time>2025-01-28T08:13:32Z</time>
      </trkpt>
      <trkpt lat="47.63182" lon="-2.808">
        <ele>37</ele>
        <time>2025-01-28T08:13:33Z</time>
      </trkpt>
      <trkpt lat="47.63181" lon="-2.80798">
        <ele>37</ele>
        <time>2025-01-28T08:13:34Z</time>
      </trkpt>
      <trkpt lat="47.63181" lon="-2.80796">
        <ele>37</ele>
        <time>2025-01-28T08:13:35Z</time>
      </trkpt>
      <trkpt lat="47.6318" lon="-2.80795">
        <ele>37</ele>
        <time>2025-01-28T08:13:36Z</time>
      </trkpt>
      <trkpt lat="47.6318" lon="-2.80793">
        <ele>37</ele>
        <time>2025-01-28T08:13:37Z</time>
      </trkpt>
      <trkpt lat="47.63179" lon="-2.80791">
        <ele>37</ele>
        <time>2025-01-28T08:13:38Z</time>
      </trkpt>
      <trkpt lat="47.63179" lon="-2.80789">
        <ele>37</ele>
        <time>2025-01-28T08:13:39Z</time>
      </trkpt>
      <trkpt lat="47.63178" lon="-2.80787">
        <ele>37</ele>
        <time>2025-01-28T08:13:40Z</time>
      </trkpt>
      <trkpt lat="47.63178" lon="-2.80785">
        <ele>37</ele>
        <time>2025-01-28T08:13:41Z</time>
      </trkpt>
      <trkpt lat="47.63177" lon="-2.80783">
        <ele>37</ele>
        <time>2025-01-28T08:13:42Z</time>
      </trkpt>
      <trkpt lat="47.63177" lon="-2.80781">
        <ele>37</ele>
        <time>2025-01-28T08:13:43Z</time>
      </trkpt>
      <trkpt lat="47.63176" lon="-2.80779">
        <ele>37</ele>
        <time>2025-01-28T08:13:44Z</time>
      </trkpt>
      <trkpt lat="47.63176" lon="-2.80778">
        <ele>37</ele>
        <time>2025-01-28T08:13:45Z</time>
      </trkpt>
      <trkpt lat="47.63176" lon="-2.80776">
        <ele>37</ele>
        <time>2025-01-28T08:13:46Z</time>
      </trkpt>
      <trkpt lat="47.63175" lon="-2.80774">
        <ele>37</ele>
        <time>2025-01-28T08:13:47Z</time>
      </trkpt>
      <trkpt lat="47.63175" lon="-2.80772">
        <ele>36.9</ele>
        <time>2025-01-28T08:13:48Z</time>
      </trkpt>
      <trkpt lat="47.63174" lon="-2.8077">
        <ele>36.9</ele>
        <time>2025-01-28T08:13:49Z</time>
      </trkpt>
      <trkpt lat="47.63174" lon="-2.80768">
        <ele>36.9</ele>
        <time>2025-01-28T08:13:50Z</time>
      </trkpt>
      <trkpt lat="47.63174" lon="-2.80767">
        <ele>36.9</ele>
        <time>2025-01-28T08:13:51Z</time>
      </trkpt>
      <trkpt lat="47.63173" lon="-2.80765">
        <ele>36.9</ele>
        <time>2025-01-28T08:13:52Z</time>
      </trkpt>
      <trkpt lat="47.63173" lon="-2.80763">
        <ele>36.9</ele>
        <time>2025-01-28T08:13:53Z</time>
      </trkpt>
      <trkpt lat="47.63172" lon="-2.80762">
        <ele>36.9</ele>
        <time>2025-01-28T08:13:54Z</time>
      </trkpt>
      <trkpt lat="47.63172" lon="-2.8076">
        <ele>36.9</ele>
        <time>2025-01-28T08:13:55Z</time>
      </trkpt>
      <trkpt lat="47.63172" lon="-2.80758">
        <ele>36.9</ele>
        <time>2025-01-28T08:13:56Z</time>
      </trkpt>
      <trkpt lat="47.63171" lon="-2.80756">
        <ele>36.9</ele>
        <time>2025-01-28T08:13:57Z</time>
      </trkpt>
      <trkpt lat="47.63171" lon="-2.80754">
        <ele>36.9</ele>
        <time>2025-01-28T08:13:58Z</time>
      </trkpt>
      <trkpt lat="47.6317" lon="-2.80752">
        <ele>36.9</ele>
        <time>2025-01-28T08:13:59Z</time>
      </trkpt>
      <trkpt lat="47.6317" lon="-2.8075">
        <ele>36.9</ele>
        <time>2025-01-28T08:14:00Z</time>
      </trkpt>
      <trkpt lat="47.6317" lon="-2.80748">
        <ele>36.9</ele>
        <time>2025-01-28T08:14:01Z</time>
      </trkpt>
      <trkpt lat="47.63169" lon="-2.80746">
        <ele>36.9</ele>
        <time>2025-01-28T08:14:02Z</time>
      </trkpt>
      <trkpt lat="47.63169" lon="-2.80744">
        <ele>36.9</ele>
        <time>2025-01-28T08:14:03Z</time>
      </trkpt>
      <trkpt lat="47.63168" lon="-2.80742">
        <ele>36.9</ele>
        <time>2025-01-28T08:14:04Z</time>
      </trkpt>
      <trkpt lat="47.63168" lon="-2.80741">
        <ele>37</ele>
        <time>2025-01-28T08:14:05Z</time>
      </trkpt>
      <trkpt lat="47.63167" lon="-2.80739">
        <ele>37</ele>
        <time>2025-01-28T08:14:06Z</time>
      </trkpt>
      <trkpt lat="47.63167" lon="-2.80738">
        <ele>37</ele>
        <time>2025-01-28T08:14:07Z</time>
      </trkpt>
      <trkpt lat="47.63166" lon="-2.80736">
        <ele>37</ele>
        <time>2025-01-28T08:14:08Z</time>
      </trkpt>
      <trkpt lat="47.63166" lon="-2.80734">
        <ele>37</ele>
        <time>2025-01-28T08:14:09Z</time>
      </trkpt>
      <trkpt lat="47.63165" lon="-2.80732">
        <ele>37</ele>
        <time>2025-01-28T08:14:10Z</time>
      </trkpt>
      <trkpt lat="47.63165" lon="-2.8073">
        <ele>37.1</ele>
        <time>2025-01-28T08:14:11Z</time>
      </trkpt>
      <trkpt lat="47.63164" lon="-2.80729">
        <ele>37.1</ele>
        <time>2025-01-28T08:14:12Z</time>
      </trkpt>
      <trkpt lat="47.63163" lon="-2.80727">
        <ele>37.1</ele>
        <time>2025-01-28T08:14:13Z</time>
      </trkpt>
      <trkpt lat="47.63163" lon="-2.80725">
        <ele>37.1</ele>
        <time>2025-01-28T08:14:14Z</time>
      </trkpt>
      <trkpt lat="47.63163" lon="-2.80723">
        <ele>37.1</ele>
        <time>2025-01-28T08:14:15Z</time>
      </trkpt>
      <trkpt lat="47.63163" lon="-2.80721">
        <ele>37.2</ele>
        <time>2025-01-28T08:14:16Z</time>
      </trkpt>
      <trkpt lat="47.63162" lon="-2.80719">
        <ele>37.2</ele>
        <time>2025-01-28T08:14:17Z</time>
      </trkpt>
      <trkpt lat="47.63162" lon="-2.80718">
        <ele>37.2</ele>
        <time>2025-01-28T08:14:18Z</time>
      </trkpt>
      <trkpt lat="47.63162" lon="-2.80716">
        <ele>37.2</ele>
        <time>2025-01-28T08:14:19Z</time>
      </trkpt>
      <trkpt lat="47.63161" lon="-2.80713">
        <ele>37.2</ele>
        <time>2025-01-28T08:14:20Z</time>
      </trkpt>
      <trkpt lat="47.63161" lon="-2.80711">
        <ele>37.2</ele>
        <time>2025-01-28T08:14:21Z</time>
      </trkpt>
      <trkpt lat="47.63161" lon="-2.8071">
        <ele>37.2</ele>
        <time>2025-01-28T08:14:22Z</time>
      </trkpt>
      <trkpt lat="47.6316" lon="-2.80708">
        <ele>37.2</ele>
        <time>2025-01-28T08:14:23Z</time>
      </trkpt>
      <trkpt lat="47.6316" lon="-2.80706">
        <ele>37.3</ele>
        <time>2025-01-28T08:14:24Z</time>
      </trkpt>
      <trkpt lat="47.63159" lon="-2.80705">
        <ele>37.3</ele>
        <time>2025-01-28T08:14:25Z</time>
      </trkpt>
      <trkpt lat="47.63158" lon="-2.80703">
        <ele>37.3</ele>
        <time>2025-01-28T08:14:26Z</time>
      </trkpt>
      <trkpt lat="47.63158" lon="-2.80701">
        <ele>37.3</ele>
        <time>2025-01-28T08:14:27Z</time>
      </trkpt>
      <trkpt lat="47.63157" lon="-2.80699">
        <ele>37.3</ele>
        <time>2025-01-28T08:14:28Z</time>
      </trkpt>
      <trkpt lat="47.63157" lon="-2.80697">
        <ele>37.3</ele>
        <time>2025-01-28T08:14:29Z</time>
      </trkpt>
      <trkpt lat="47.63157" lon="-2.80695">
        <ele>37.4</ele>
        <time>2025-01-28T08:14:30Z</time>
      </trkpt>
      <trkpt lat="47.63157" lon="-2.80693">
        <ele>37.4</ele>
        <time>2025-01-28T08:14:31Z</time>
      </trkpt>
      <trkpt lat="47.63156" lon="-2.80692">
        <ele>37.4</ele>
        <time>2025-01-28T08:14:32Z</time>
      </trkpt>
      <trkpt lat="47.63156" lon="-2.8069">
        <ele>37.4</ele>
        <time>2025-01-28T08:14:33Z</time>
      </trkpt>
      <trkpt lat="47.63155" lon="-2.80688">
        <ele>37.4</ele>
        <time>2025-01-28T08:14:34Z</time>
      </trkpt>
      <trkpt lat="47.63155" lon="-2.80686">
        <ele>37.4</ele>
        <time>2025-01-28T08:14:35Z</time>
      </trkpt>
      <trkpt lat="47.63155" lon="-2.80685">
        <ele>37.4</ele>
        <time>2025-01-28T08:14:36Z</time>
      </trkpt>
      <trkpt lat="47.63154" lon="-2.80683">
        <ele>37.4</ele>
        <time>2025-01-28T08:14:37Z</time>
      </trkpt>
      <trkpt lat="47.63154" lon="-2.80681">
        <ele>37.5</ele>
        <time>2025-01-28T08:14:38Z</time>
      </trkpt>
      <trkpt lat="47.63154" lon="-2.8068">
        <ele>37.5</ele>
        <time>2025-01-28T08:14:39Z</time>
      </trkpt>
      <trkpt lat="47.63153" lon="-2.80678">
        <ele>37.5</ele>
        <time>2025-01-28T08:14:40Z</time>
      </trkpt>
      <trkpt lat="47.63153" lon="-2.80676">
        <ele>37.5</ele>
        <time>2025-01-28T08:14:41Z</time>
      </trkpt>
      <trkpt lat="47.63152" lon="-2.80675">
        <ele>37.5</ele>
        <time>2025-01-28T08:14:42Z</time>
      </trkpt>
      <trkpt lat="47.63152" lon="-2.80673">
        <ele>37.5</ele>
        <time>2025-01-28T08:14:43Z</time>
      </trkpt>
      <trkpt lat="47.63151" lon="-2.80671">
        <ele>37.6</ele>
        <time>2025-01-28T08:14:44Z</time>
      </trkpt>
      <trkpt lat="47.6315" lon="-2.80669">
        <ele>37.6</ele>
        <time>2025-01-28T08:14:45Z</time>
      </trkpt>
      <trkpt lat="47.6315" lon="-2.80667">
        <ele>37.6</ele>
        <time>2025-01-28T08:14:46Z</time>
      </trkpt>
      <trkpt lat="47.6315" lon="-2.80665">
        <ele>37.6</ele>
        <time>2025-01-28T08:14:47Z</time>
      </trkpt>
      <trkpt lat="47.63149" lon="-2.80663">
        <ele>37.5</ele>
        <time>2025-01-28T08:14:48Z</time>
      </trkpt>
      <trkpt lat="47.63149" lon="-2.80661">
        <ele>37.5</ele>
        <time>2025-01-28T08:14:49Z</time>
      </trkpt>
      <trkpt lat="47.63148" lon="-2.8066">
        <ele>37.5</ele>
        <time>2025-01-28T08:14:50Z</time>
      </trkpt>
      <trkpt lat="47.63148" lon="-2.80658">
        <ele>37.5</ele>
        <time>2025-01-28T08:14:51Z</time>
      </trkpt>
      <trkpt lat="47.63148" lon="-2.80656">
        <ele>37.4</ele>
        <time>2025-01-28T08:14:52Z</time>
      </trkpt>
      <trkpt lat="47.63147" lon="-2.80654">
        <ele>37.4</ele>
        <time>2025-01-28T08:14:53Z</time>
      </trkpt>
      <trkpt lat="47.63147" lon="-2.80653">
        <ele>37.4</ele>
        <time>2025-01-28T08:14:54Z</time>
      </trkpt>
      <trkpt lat="47.63146" lon="-2.80651">
        <ele>37.3</ele>
        <time>2025-01-28T08:14:55Z</time>
      </trkpt>
      <trkpt lat="47.63146" lon="-2.80649">
        <ele>37.3</ele>
        <time>2025-01-28T08:14:56Z</time>
      </trkpt>
      <trkpt lat="47.63146" lon="-2.80647">
        <ele>37.2</ele>
        <time>2025-01-28T08:14:57Z</time>
      </trkpt>
      <trkpt lat="47.63145" lon="-2.80645">
        <ele>37.2</ele>
        <time>2025-01-28T08:14:58Z</time>
      </trkpt>
      <trkpt lat="47.63145" lon="-2.80644">
        <ele>37.1</ele>
        <time>2025-01-28T08:14:59Z</time>
      </trkpt>
      <trkpt lat="47.63144" lon="-2.80642">
        <ele>37.1</ele>
        <time>2025-01-28T08:15:00Z</time>
      </trkpt>
      <trkpt lat="47.63144" lon="-2.8064">
        <ele>37</ele>
        <time>2025-01-28T08:15:01Z</time>
      </trkpt>
      <trkpt lat="47.63143" lon="-2.80638">
        <ele>37</ele>
        <time>2025-01-28T08:15:02Z</time>
      </trkpt>
      <trkpt lat="47.63143" lon="-2.80636">
        <ele>36.9</ele>
        <time>2025-01-28T08:15:03Z</time>
      </trkpt>
      <trkpt lat="47.63143" lon="-2.80634">
        <ele>36.8</ele>
        <time>2025-01-28T08:15:04Z</time>
      </trkpt>
      <trkpt lat="47.63142" lon="-2.80633">
        <ele>36.8</ele>
        <time>2025-01-28T08:15:05Z</time>
      </trkpt>
      <trkpt lat="47.63141" lon="-2.80631">
        <ele>36.7</ele>
        <time>2025-01-28T08:15:06Z</time>
      </trkpt>
      <trkpt lat="47.63141" lon="-2.80629">
        <ele>36.6</ele>
        <time>2025-01-28T08:15:07Z</time>
      </trkpt>
      <trkpt lat="47.6314" lon="-2.80627">
        <ele>36.6</ele>
        <time>2025-01-28T08:15:08Z</time>
      </trkpt>
      <trkpt lat="47.6314" lon="-2.80625">
        <ele>36.5</ele>
        <time>2025-01-28T08:15:09Z</time>
      </trkpt>
      <trkpt lat="47.6314" lon="-2.80623">
        <ele>36.4</ele>
        <time>2025-01-28T08:15:10Z</time>
      </trkpt>
      <trkpt lat="47.6314" lon="-2.80621">
        <ele>36.4</ele>
        <time>2025-01-28T08:15:11Z</time>
      </trkpt>
      <trkpt lat="47.63139" lon="-2.80619">
        <ele>36.3</ele>
        <time>2025-01-28T08:15:12Z</time>
      </trkpt>
      <trkpt lat="47.63139" lon="-2.80617">
        <ele>36.2</ele>
        <time>2025-01-28T08:15:13Z</time>
      </trkpt>
      <trkpt lat="47.63138" lon="-2.80616">
        <ele>36.2</ele>
        <time>2025-01-28T08:15:14Z</time>
      </trkpt>
      <trkpt lat="47.63138" lon="-2.80614">
        <ele>36.1</ele>
        <time>2025-01-28T08:15:15Z</time>
      </trkpt>
      <trkpt lat="47.63137" lon="-2.80612">
        <ele>36</ele>
        <time>2025-01-28T08:15:16Z</time>
      </trkpt>
      <trkpt lat="47.63137" lon="-2.80611">
        <ele>36</ele>
        <time>2025-01-28T08:15:17Z</time>
      </trkpt>
      <trkpt lat="47.63136" lon="-2.80609">
        <ele>35.9</ele>
        <time>2025-01-28T08:15:18Z</time>
      </trkpt>
      <trkpt lat="47.63135" lon="-2.80608">
        <ele>35.9</ele>
        <time>2025-01-28T08:15:19Z</time>
      </trkpt>
      <trkpt lat="47.63135" lon="-2.80606">
        <ele>35.8</ele>
        <time>2025-01-28T08:15:20Z</time>
      </trkpt>
      <trkpt lat="47.63134" lon="-2.80604">
        <ele>35.7</ele>
        <time>2025-01-28T08:15:21Z</time>
      </trkpt>
      <trkpt lat="47.63134" lon="-2.80602">
        <ele>35.7</ele>
        <time>2025-01-28T08:15:22Z</time>
      </trkpt>
      <trkpt lat="47.63134" lon="-2.806">
        <ele>35.6</ele>
        <time>2025-01-28T08:15:23Z</time>
      </trkpt>
      <trkpt lat="47.63133" lon="-2.80598">
        <ele>35.5</ele>
        <time>2025-01-28T08:15:24Z</time>
      </trkpt>
      <trkpt lat="47.63133" lon="-2.80597">
        <ele>35.5</ele>
        <time>2025-01-28T08:15:25Z</time>
      </trkpt>
      <trkpt lat="47.63132" lon="-2.80595">
        <ele>35.4</ele>
        <time>2025-01-28T08:15:26Z</time>
      </trkpt>
      <trkpt lat="47.63132" lon="-2.80593">
        <ele>35.3</ele>
        <time>2025-01-28T08:15:27Z</time>
      </trkpt>
      <trkpt lat="47.63131" lon="-2.80591">
        <ele>35.3</ele>
        <time>2025-01-28T08:15:28Z</time>
      </trkpt>
      <trkpt lat="47.63131" lon="-2.80589">
        <ele>35.2</ele>
        <time>2025-01-28T08:15:29Z</time>
      </trkpt>
      <trkpt lat="47.63131" lon="-2.80588">
        <ele>35.2</ele>
        <time>2025-01-28T08:15:30Z</time>
      </trkpt>
      <trkpt lat="47.63131" lon="-2.80586">
        <ele>35.1</ele>
        <time>2025-01-28T08:15:31Z</time>
      </trkpt>
      <trkpt lat="47.63131" lon="-2.80584">
        <ele>35</ele>
        <time>2025-01-28T08:15:32Z</time>
      </trkpt>
      <trkpt lat="47.6313" lon="-2.80582">
        <ele>35</ele>
        <time>2025-01-28T08:15:33Z</time>
      </trkpt>
      <trkpt lat="47.6313" lon="-2.80581">
        <ele>34.9</ele>
        <time>2025-01-28T08:15:34Z</time>
      </trkpt>
      <trkpt lat="47.63129" lon="-2.80579">
        <ele>34.9</ele>
        <time>2025-01-28T08:15:35Z</time>
      </trkpt>
      <trkpt lat="47.63128" lon="-2.80577">
        <ele>34.9</ele>
        <time>2025-01-28T08:15:36Z</time>
      </trkpt>
      <trkpt lat="47.63128" lon="-2.80575">
        <ele>34.8</ele>
        <time>2025-01-28T08:15:37Z</time>
      </trkpt>
      <trkpt lat="47.63128" lon="-2.80573">
        <ele>34.8</ele>
        <time>2025-01-28T08:15:38Z</time>
      </trkpt>
      <trkpt lat="47.63128" lon="-2.80572">
        <ele>34.7</ele>
        <time>2025-01-28T08:15:39Z</time>
      </trkpt>
      <trkpt lat="47.63128" lon="-2.8057">
        <ele>34.7</ele>
        <time>2025-01-28T08:15:40Z</time>
      </trkpt>
      <trkpt lat="47.63127" lon="-2.80568">
        <ele>34.7</ele>
        <time>2025-01-28T08:15:41Z</time>
      </trkpt>
      <trkpt lat="47.63127" lon="-2.80566">
        <ele>34.7</ele>
        <time>2025-01-28T08:15:42Z</time>
      </trkpt>
      <trkpt lat="47.63126" lon="-2.80565">
        <ele>34.6</ele>
        <time>2025-01-28T08:15:43Z</time>
      </trkpt>
      <trkpt lat="47.63126" lon="-2.80563">
        <ele>34.6</ele>
        <time>2025-01-28T08:15:44Z</time>
      </trkpt>
      <trkpt lat="47.63125" lon="-2.80561">
        <ele>34.6</ele>
        <time>2025-01-28T08:15:45Z</time>
      </trkpt>
      <trkpt lat="47.63125" lon="-2.80559">
        <ele>34.6</ele>
        <time>2025-01-28T08:15:46Z</time>
      </trkpt>
      <trkpt lat="47.63124" lon="-2.80557">
        <ele>34.6</ele>
        <time>2025-01-28T08:15:47Z</time>
      </trkpt>
      <trkpt lat="47.63124" lon="-2.80556">
        <ele>34.5</ele>
        <time>2025-01-28T08:15:48Z</time>
      </trkpt>
      <trkpt lat="47.63123" lon="-2.80554">
        <ele>34.5</ele>
        <time>2025-01-28T08:15:49Z</time>
      </trkpt>
      <trkpt lat="47.63123" lon="-2.80552">
        <ele>34.5</ele>
        <time>2025-01-28T08:15:50Z</time>
      </trkpt>
      <trkpt lat="47.63123" lon="-2.8055">
        <ele>34.5</ele>
        <time>2025-01-28T08:15:51Z</time>
      </trkpt>
      <trkpt lat="47.63122" lon="-2.80548">
        <ele>34.5</ele>
        <time>2025-01-28T08:15:52Z</time>
      </trkpt>
      <trkpt lat="47.63122" lon="-2.80546">
        <ele>34.5</ele>
        <time>2025-01-28T08:15:53Z</time>
      </trkpt>
      <trkpt lat="47.63122" lon="-2.80545">
        <ele>34.5</ele>
        <time>2025-01-28T08:15:54Z</time>
      </trkpt>
      <trkpt lat="47.63121" lon="-2.80543">
        <ele>34.5</ele>
        <time>2025-01-28T08:15:55Z</time>
      </trkpt>
      <trkpt lat="47.63121" lon="-2.80542">
        <ele>34.5</ele>
        <time>2025-01-28T08:15:56Z</time>
      </trkpt>
      <trkpt lat="47.63121" lon="-2.8054">
        <ele>34.5</ele>
        <time>2025-01-28T08:15:57Z</time>
      </trkpt>
      <trkpt lat="47.6312" lon="-2.80538">
        <ele>34.5</ele>
        <time>2025-01-28T08:15:58Z</time>
      </trkpt>
      <trkpt lat="47.63119" lon="-2.80537">
        <ele>34.5</ele>
        <time>2025-01-28T08:15:59Z</time>
      </trkpt>
      <trkpt lat="47.63119" lon="-2.80536">
        <ele>34.5</ele>
        <time>2025-01-28T08:16:00Z</time>
      </trkpt>
      <trkpt lat="47.63118" lon="-2.80534">
        <ele>34.5</ele>
        <time>2025-01-28T08:16:01Z</time>
      </trkpt>
      <trkpt lat="47.63118" lon="-2.80532">
        <ele>34.5</ele>
        <time>2025-01-28T08:16:02Z</time>
      </trkpt>
      <trkpt lat="47.63118" lon="-2.8053">
        <ele>34.5</ele>
        <time>2025-01-28T08:16:03Z</time>
      </trkpt>
      <trkpt lat="47.63118" lon="-2.80529">
        <ele>34.5</ele>
        <time>2025-01-28T08:16:04Z</time>
      </trkpt>
      <trkpt lat="47.63117" lon="-2.80527">
        <ele>34.6</ele>
        <time>2025-01-28T08:16:05Z</time>
      </trkpt>
      <trkpt lat="47.63116" lon="-2.80526">
        <ele>34.6</ele>
        <time>2025-01-28T08:16:06Z</time>
      </trkpt>
      <trkpt lat="47.63116" lon="-2.80524">
        <ele>34.5</ele>
        <time>2025-01-28T08:16:07Z</time>
      </trkpt>
      <trkpt lat="47.63116" lon="-2.80522">
        <ele>34.5</ele>
        <time>2025-01-28T08:16:08Z</time>
      </trkpt>
      <trkpt lat="47.63116" lon="-2.8052">
        <ele>34.4</ele>
        <time>2025-01-28T08:16:09Z</time>
      </trkpt>
      <trkpt lat="47.63115" lon="-2.80518">
        <ele>34.4</ele>
        <time>2025-01-28T08:16:10Z</time>
      </trkpt>
      <trkpt lat="47.63115" lon="-2.80517">
        <ele>34.4</ele>
        <time>2025-01-28T08:16:11Z</time>
      </trkpt>
      <trkpt lat="47.63114" lon="-2.80515">
        <ele>34.4</ele>
        <time>2025-01-28T08:16:12Z</time>
      </trkpt>
      <trkpt lat="47.63114" lon="-2.80513">
        <ele>34.3</ele>
        <time>2025-01-28T08:16:13Z</time>
      </trkpt>
      <trkpt lat="47.63113" lon="-2.80512">
        <ele>34.3</ele>
        <time>2025-01-28T08:16:14Z</time>
      </trkpt>
      <trkpt lat="47.63113" lon="-2.8051">
        <ele>34.3</ele>
        <time>2025-01-28T08:16:15Z</time>
      </trkpt>
      <trkpt lat="47.63112" lon="-2.80508">
        <ele>34.2</ele>
        <time>2025-01-28T08:16:16Z</time>
      </trkpt>
      <trkpt lat="47.63112" lon="-2.80506">
        <ele>34.2</ele>
        <time>2025-01-28T08:16:17Z</time>
      </trkpt>
      <trkpt lat="47.63112" lon="-2.80504">
        <ele>34.1</ele>
        <time>2025-01-28T08:16:18Z</time>
      </trkpt>
      <trkpt lat="47.63111" lon="-2.80502">
        <ele>34.1</ele>
        <time>2025-01-28T08:16:19Z</time>
      </trkpt>
      <trkpt lat="47.63111" lon="-2.805">
        <ele>34</ele>
        <time>2025-01-28T08:16:20Z</time>
      </trkpt>
      <trkpt lat="47.6311" lon="-2.80498">
        <ele>34</ele>
        <time>2025-01-28T08:16:21Z</time>
      </trkpt>
      <trkpt lat="47.6311" lon="-2.80496">
        <ele>33.9</ele>
        <time>2025-01-28T08:16:22Z</time>
      </trkpt>
      <trkpt lat="47.6311" lon="-2.80494">
        <ele>33.9</ele>
        <time>2025-01-28T08:16:23Z</time>
      </trkpt>
      <trkpt lat="47.6311" lon="-2.80492">
        <ele>33.8</ele>
        <time>2025-01-28T08:16:24Z</time>
      </trkpt>
      <trkpt lat="47.63109" lon="-2.80491">
        <ele>33.8</ele>
        <time>2025-01-28T08:16:25Z</time>
      </trkpt>
      <trkpt lat="47.63109" lon="-2.80489">
        <ele>33.7</ele>
        <time>2025-01-28T08:16:26Z</time>
      </trkpt>
      <trkpt lat="47.63108" lon="-2.80487">
        <ele>33.7</ele>
        <time>2025-01-28T08:16:27Z</time>
      </trkpt>
      <trkpt lat="47.63108" lon="-2.80485">
        <ele>33.7</ele>
        <time>2025-01-28T08:16:28Z</time>
      </trkpt>
      <trkpt lat="47.63107" lon="-2.80483">
        <ele>33.6</ele>
        <time>2025-01-28T08:16:29Z</time>
      </trkpt>
      <trkpt lat="47.63106" lon="-2.80482">
        <ele>33.6</ele>
        <time>2025-01-28T08:16:30Z</time>
      </trkpt>
      <trkpt lat="47.63106" lon="-2.8048">
        <ele>33.6</ele>
        <time>2025-01-28T08:16:31Z</time>
      </trkpt>
      <trkpt lat="47.63105" lon="-2.80478">
        <ele>33.6</ele>
        <time>2025-01-28T08:16:32Z</time>
      </trkpt>
      <trkpt lat="47.63105" lon="-2.80476">
        <ele>33.5</ele>
        <time>2025-01-28T08:16:33Z</time>
      </trkpt>
      <trkpt lat="47.63105" lon="-2.80475">
        <ele>33.5</ele>
        <time>2025-01-28T08:16:34Z</time>
      </trkpt>
      <trkpt lat="47.63104" lon="-2.80473">
        <ele>33.5</ele>
        <time>2025-01-28T08:16:35Z</time>
      </trkpt>
      <trkpt lat="47.63104" lon="-2.80471">
        <ele>33.5</ele>
        <time>2025-01-28T08:16:36Z</time>
      </trkpt>
      <trkpt lat="47.63104" lon="-2.80469">
        <ele>33.5</ele>
        <time>2025-01-28T08:16:37Z</time>
      </trkpt>
      <trkpt lat="47.63103" lon="-2.80467">
        <ele>33.5</ele>
        <time>2025-01-28T08:16:38Z</time>
      </trkpt>
      <trkpt lat="47.63103" lon="-2.80465">
        <ele>33.5</ele>
        <time>2025-01-28T08:16:39Z</time>
      </trkpt>
      <trkpt lat="47.63103" lon="-2.80464">
        <ele>33.5</ele>
        <time>2025-01-28T08:16:40Z</time>
      </trkpt>
      <trkpt lat="47.63102" lon="-2.80462">
        <ele>33.5</ele>
        <time>2025-01-28T08:16:41Z</time>
      </trkpt>
      <trkpt lat="47.63102" lon="-2.8046">
        <ele>33.5</ele>
        <time>2025-01-28T08:16:42Z</time>
      </trkpt>
      <trkpt lat="47.63102" lon="-2.80458">
        <ele>33.5</ele>
        <time>2025-01-28T08:16:43Z</time>
      </trkpt>
      <trkpt lat="47.63101" lon="-2.80456">
        <ele>33.5</ele>
        <time>2025-01-28T08:16:44Z</time>
      </trkpt>
      <trkpt lat="47.63101" lon="-2.80455">
        <ele>33.5</ele>
        <time>2025-01-28T08:16:45Z</time>
      </trkpt>
      <trkpt lat="47.631" lon="-2.80453">
        <ele>33.5</ele>
        <time>2025-01-28T08:16:46Z</time>
      </trkpt>
      <trkpt lat="47.631" lon="-2.80451">
        <ele>33.5</ele>
        <time>2025-01-28T08:16:47Z</time>
      </trkpt>
      <trkpt lat="47.63099" lon="-2.80449">
        <ele>33.5</ele>
        <time>2025-01-28T08:16:48Z</time>
      </trkpt>
      <trkpt lat="47.63099" lon="-2.80447">
        <ele>33.5</ele>
        <time>2025-01-28T08:16:49Z</time>
      </trkpt>
      <trkpt lat="47.63098" lon="-2.80446">
        <ele>33.5</ele>
        <time>2025-01-28T08:16:50Z</time>
      </trkpt>
      <trkpt lat="47.63098" lon="-2.80444">
        <ele>33.5</ele>
        <time>2025-01-28T08:16:51Z</time>
      </trkpt>
      <trkpt lat="47.63098" lon="-2.80442">
        <ele>33.4</ele>
        <time>2025-01-28T08:16:52Z</time>
      </trkpt>
      <trkpt lat="47.63097" lon="-2.8044">
        <ele>33.4</ele>
        <time>2025-01-28T08:16:53Z</time>
      </trkpt>
      <trkpt lat="47.63097" lon="-2.80438">
        <ele>33.4</ele>
        <time>2025-01-28T08:16:54Z</time>
      </trkpt>
      <trkpt lat="47.63096" lon="-2.80436">
        <ele>33.4</ele>
        <time>2025-01-28T08:16:55Z</time>
      </trkpt>
      <trkpt lat="47.63096" lon="-2.80434">
        <ele>33.4</ele>
        <time>2025-01-28T08:16:56Z</time>
      </trkpt>
      <trkpt lat="47.63095" lon="-2.80433">
        <ele>33.4</ele>
        <time>2025-01-28T08:16:57Z</time>
      </trkpt>
      <trkpt lat="47.63094" lon="-2.80431">
        <ele>33.4</ele>
        <time>2025-01-28T08:16:58Z</time>
      </trkpt>
      <trkpt lat="47.63094" lon="-2.80429">
        <ele>33.4</ele>
        <time>2025-01-28T08:16:59Z</time>
      </trkpt>
      <trkpt lat="47.63094" lon="-2.80427">
        <ele>33.4</ele>
        <time>2025-01-28T08:17:00Z</time>
      </trkpt>
      <trkpt lat="47.63093" lon="-2.80426">
        <ele>33.4</ele>
        <time>2025-01-28T08:17:01Z</time>
      </trkpt>
      <trkpt lat="47.63093" lon="-2.80424">
        <ele>33.4</ele>
        <time>2025-01-28T08:17:02Z</time>
      </trkpt>
      <trkpt lat="47.63092" lon="-2.80422">
        <ele>33.4</ele>
        <time>2025-01-28T08:17:03Z</time>
      </trkpt>
      <trkpt lat="47.63092" lon="-2.80421">
        <ele>33.5</ele>
        <time>2025-01-28T08:17:04Z</time>
      </trkpt>
      <trkpt lat="47.63091" lon="-2.80419">
        <ele>33.5</ele>
        <time>2025-01-28T08:17:05Z</time>
      </trkpt>
      <trkpt lat="47.63091" lon="-2.80417">
        <ele>33.5</ele>
        <time>2025-01-28T08:17:06Z</time>
      </trkpt>
      <trkpt lat="47.63091" lon="-2.80416">
        <ele>33.5</ele>
        <time>2025-01-28T08:17:07Z</time>
      </trkpt>
      <trkpt lat="47.6309" lon="-2.80414">
        <ele>33.5</ele>
        <time>2025-01-28T08:17:08Z</time>
      </trkpt>
      <trkpt lat="47.6309" lon="-2.80412">
        <ele>33.5</ele>
        <time>2025-01-28T08:17:09Z</time>
      </trkpt>
      <trkpt lat="47.6309" lon="-2.8041">
        <ele>33.5</ele>
        <time>2025-01-28T08:17:10Z</time>
      </trkpt>
      <trkpt lat="47.6309" lon="-2.80409">
        <ele>33.5</ele>
        <time>2025-01-28T08:17:11Z</time>
      </trkpt>
      <trkpt lat="47.63089" lon="-2.80407">
        <ele>33.6</ele>
        <time>2025-01-28T08:17:12Z</time>
      </trkpt>
      <trkpt lat="47.63089" lon="-2.80405">
        <ele>33.6</ele>
        <time>2025-01-28T08:17:13Z</time>
      </trkpt>
      <trkpt lat="47.63088" lon="-2.80403">
        <ele>33.6</ele>
        <time>2025-01-28T08:17:14Z</time>
      </trkpt>
      <trkpt lat="47.63088" lon="-2.80401">
        <ele>33.6</ele>
        <time>2025-01-28T08:17:15Z</time>
      </trkpt>
      <trkpt lat="47.63088" lon="-2.804">
        <ele>33.7</ele>
        <time>2025-01-28T08:17:16Z</time>
      </trkpt>
      <trkpt lat="47.63087" lon="-2.80398">
        <ele>33.7</ele>
        <time>2025-01-28T08:17:17Z</time>
      </trkpt>
      <trkpt lat="47.63086" lon="-2.80396">
        <ele>33.8</ele>
        <time>2025-01-28T08:17:18Z</time>
      </trkpt>
      <trkpt lat="47.63086" lon="-2.80395">
        <ele>33.8</ele>
        <time>2025-01-28T08:17:19Z</time>
      </trkpt>
      <trkpt lat="47.63086" lon="-2.80393">
        <ele>33.8</ele>
        <time>2025-01-28T08:17:20Z</time>
      </trkpt>
      <trkpt lat="47.63085" lon="-2.80391">
        <ele>33.9</ele>
        <time>2025-01-28T08:17:21Z</time>
      </trkpt>
      <trkpt lat="47.63085" lon="-2.80389">
        <ele>33.9</ele>
        <time>2025-01-28T08:17:22Z</time>
      </trkpt>
      <trkpt lat="47.63084" lon="-2.80387">
        <ele>33.9</ele>
        <time>2025-01-28T08:17:23Z</time>
      </trkpt>
      <trkpt lat="47.63084" lon="-2.80385">
        <ele>34</ele>
        <time>2025-01-28T08:17:24Z</time>
      </trkpt>
      <trkpt lat="47.63084" lon="-2.80383">
        <ele>34</ele>
        <time>2025-01-28T08:17:25Z</time>
      </trkpt>
      <trkpt lat="47.63083" lon="-2.80381">
        <ele>34</ele>
        <time>2025-01-28T08:17:26Z</time>
      </trkpt>
      <trkpt lat="47.63083" lon="-2.80379">
        <ele>34</ele>
        <time>2025-01-28T08:17:27Z</time>
      </trkpt>
      <trkpt lat="47.63083" lon="-2.80378">
        <ele>34</ele>
        <time>2025-01-28T08:17:28Z</time>
      </trkpt>
      <trkpt lat="47.63082" lon="-2.80376">
        <ele>34</ele>
        <time>2025-01-28T08:17:29Z</time>
      </trkpt>
      <trkpt lat="47.63082" lon="-2.80374">
        <ele>34</ele>
        <time>2025-01-28T08:17:30Z</time>
      </trkpt>
      <trkpt lat="47.63082" lon="-2.80372">
        <ele>34.1</ele>
        <time>2025-01-28T08:17:31Z</time>
      </trkpt>
      <trkpt lat="47.63081" lon="-2.8037">
        <ele>34.1</ele>
        <time>2025-01-28T08:17:32Z</time>
      </trkpt>
      <trkpt lat="47.63081" lon="-2.80369">
        <ele>34.1</ele>
        <time>2025-01-28T08:17:33Z</time>
      </trkpt>
      <trkpt lat="47.6308" lon="-2.80367">
        <ele>34.1</ele>
        <time>2025-01-28T08:17:34Z</time>
      </trkpt>
      <trkpt lat="47.6308" lon="-2.80365">
        <ele>34.1</ele>
        <time>2025-01-28T08:17:35Z</time>
      </trkpt>
      <trkpt lat="47.63079" lon="-2.80363">
        <ele>34.1</ele>
        <time>2025-01-28T08:17:36Z</time>
      </trkpt>
      <trkpt lat="47.63079" lon="-2.80362">
        <ele>34.2</ele>
        <time>2025-01-28T08:17:37Z</time>
      </trkpt>
      <trkpt lat="47.63079" lon="-2.8036">
        <ele>34.2</ele>
        <time>2025-01-28T08:17:38Z</time>
      </trkpt>
      <trkpt lat="47.63078" lon="-2.80358">
        <ele>34.2</ele>
        <time>2025-01-28T08:17:39Z</time>
      </trkpt>
      <trkpt lat="47.63078" lon="-2.80356">
        <ele>34.2</ele>
        <time>2025-01-28T08:17:40Z</time>
      </trkpt>
      <trkpt lat="47.63077" lon="-2.80354">
        <ele>34.2</ele>
        <time>2025-01-28T08:17:41Z</time>
      </trkpt>
      <trkpt lat="47.63077" lon="-2.80352">
        <ele>34.2</ele>
        <time>2025-01-28T08:17:42Z</time>
      </trkpt>
      <trkpt lat="47.63076" lon="-2.80351">
        <ele>34.3</ele>
        <time>2025-01-28T08:17:43Z</time>
      </trkpt>
      <trkpt lat="47.63076" lon="-2.80349">
        <ele>34.3</ele>
        <time>2025-01-28T08:17:44Z</time>
      </trkpt>
      <trkpt lat="47.63076" lon="-2.80347">
        <ele>34.3</ele>
        <time>2025-01-28T08:17:45Z</time>
      </trkpt>
      <trkpt lat="47.63075" lon="-2.80345">
        <ele>34.3</ele>
        <time>2025-01-28T08:17:46Z</time>
      </trkpt>
      <trkpt lat="47.63074" lon="-2.80343">
        <ele>34.3</ele>
        <time>2025-01-28T08:17:47Z</time>
      </trkpt>
      <trkpt lat="47.63074" lon="-2.80342">
        <ele>34.3</ele>
        <time>2025-01-28T08:17:48Z</time>
      </trkpt>
      <trkpt lat="47.63074" lon="-2.8034">
        <ele>34.3</ele>
        <time>2025-01-28T08:17:49Z</time>
      </trkpt>
      <trkpt lat="47.63073" lon="-2.80338">
        <ele>34.4</ele>
        <time>2025-01-28T08:17:50Z</time>
      </trkpt>
      <trkpt lat="47.63073" lon="-2.80336">
        <ele>34.4</ele>
        <time>2025-01-28T08:17:51Z</time>
      </trkpt>
      <trkpt lat="47.63072" lon="-2.80334">
        <ele>34.4</ele>
        <time>2025-01-28T08:17:52Z</time>
      </trkpt>
      <trkpt lat="47.63072" lon="-2.80332">
        <ele>34.4</ele>
        <time>2025-01-28T08:17:53Z</time>
      </trkpt>
      <trkpt lat="47.63072" lon="-2.8033">
        <ele>34.5</ele>
        <time>2025-01-28T08:17:54Z</time>
      </trkpt>
      <trkpt lat="47.63072" lon="-2.80328">
        <ele>34.6</ele>
        <time>2025-01-28T08:17:55Z</time>
      </trkpt>
      <trkpt lat="47.63071" lon="-2.80326">
        <ele>34.7</ele>
        <time>2025-01-28T08:17:56Z</time>
      </trkpt>
      <trkpt lat="47.63071" lon="-2.80325">
        <ele>34.8</ele>
        <time>2025-01-28T08:17:57Z</time>
      </trkpt>
      <trkpt lat="47.63071" lon="-2.80323">
        <ele>34.8</ele>
        <time>2025-01-28T08:17:58Z</time>
      </trkpt>
      <trkpt lat="47.6307" lon="-2.80321">
        <ele>34.9</ele>
        <time>2025-01-28T08:17:59Z</time>
      </trkpt>
      <trkpt lat="47.6307" lon="-2.80319">
        <ele>35</ele>
        <time>2025-01-28T08:18:00Z</time>
      </trkpt>
      <trkpt lat="47.63069" lon="-2.80318">
        <ele>35.1</ele>
        <time>2025-01-28T08:18:01Z</time>
      </trkpt>
      <trkpt lat="47.63069" lon="-2.80316">
        <ele>35.2</ele>
        <time>2025-01-28T08:18:02Z</time>
      </trkpt>
      <trkpt lat="47.63068" lon="-2.80315">
        <ele>35.2</ele>
        <time>2025-01-28T08:18:03Z</time>
      </trkpt>
      <trkpt lat="47.63068" lon="-2.80313">
        <ele>35.3</ele>
        <time>2025-01-28T08:18:04Z</time>
      </trkpt>
      <trkpt lat="47.63067" lon="-2.80311">
        <ele>35.4</ele>
        <time>2025-01-28T08:18:05Z</time>
      </trkpt>
      <trkpt lat="47.63067" lon="-2.80309">
        <ele>35.5</ele>
        <time>2025-01-28T08:18:06Z</time>
      </trkpt>
      <trkpt lat="47.63067" lon="-2.80307">
        <ele>35.5</ele>
        <time>2025-01-28T08:18:07Z</time>
      </trkpt>
      <trkpt lat="47.63066" lon="-2.80306">
        <ele>35.6</ele>
        <time>2025-01-28T08:18:08Z</time>
      </trkpt>
      <trkpt lat="47.63066" lon="-2.80304">
        <ele>35.6</ele>
        <time>2025-01-28T08:18:09Z</time>
      </trkpt>
      <trkpt lat="47.63065" lon="-2.80302">
        <ele>35.6</ele>
        <time>2025-01-28T08:18:10Z</time>
      </trkpt>
      <trkpt lat="47.63065" lon="-2.80301">
        <ele>35.7</ele>
        <time>2025-01-28T08:18:11Z</time>
      </trkpt>
      <trkpt lat="47.63065" lon="-2.80299">
        <ele>35.7</ele>
        <time>2025-01-28T08:18:12Z</time>
      </trkpt>
      <trkpt lat="47.63064" lon="-2.80297">
        <ele>35.7</ele>
        <time>2025-01-28T08:18:13Z</time>
      </trkpt>
      <trkpt lat="47.63064" lon="-2.80295">
        <ele>35.7</ele>
        <time>2025-01-28T08:18:14Z</time>
      </trkpt>
      <trkpt lat="47.63063" lon="-2.80294">
        <ele>35.7</ele>
        <time>2025-01-28T08:18:15Z</time>
      </trkpt>
      <trkpt lat="47.63062" lon="-2.80292">
        <ele>35.8</ele>
        <time>2025-01-28T08:18:16Z</time>
      </trkpt>
      <trkpt lat="47.63062" lon="-2.8029">
        <ele>35.8</ele>
        <time>2025-01-28T08:18:17Z</time>
      </trkpt>
      <trkpt lat="47.63062" lon="-2.80288">
        <ele>35.8</ele>
        <time>2025-01-28T08:18:18Z</time>
      </trkpt>
      <trkpt lat="47.63062" lon="-2.80286">
        <ele>35.8</ele>
        <time>2025-01-28T08:18:19Z</time>
      </trkpt>
      <trkpt lat="47.63062" lon="-2.80284">
        <ele>35.8</ele>
        <time>2025-01-28T08:18:20Z</time>
      </trkpt>
      <trkpt lat="47.63061" lon="-2.80282">
        <ele>35.8</ele>
        <time>2025-01-28T08:18:21Z</time>
      </trkpt>
      <trkpt lat="47.63061" lon="-2.8028">
        <ele>35.8</ele>
        <time>2025-01-28T08:18:22Z</time>
      </trkpt>
      <trkpt lat="47.6306" lon="-2.80279">
        <ele>35.8</ele>
        <time>2025-01-28T08:18:23Z</time>
      </trkpt>
      <trkpt lat="47.63059" lon="-2.80278">
        <ele>35.9</ele>
        <time>2025-01-28T08:18:24Z</time>
      </trkpt>
      <trkpt lat="47.63059" lon="-2.80276">
        <ele>35.9</ele>
        <time>2025-01-28T08:18:25Z</time>
      </trkpt>
      <trkpt lat="47.63058" lon="-2.80274">
        <ele>35.9</ele>
        <time>2025-01-28T08:18:26Z</time>
      </trkpt>
      <trkpt lat="47.63058" lon="-2.80272">
        <ele>35.9</ele>
        <time>2025-01-28T08:18:27Z</time>
      </trkpt>
      <trkpt lat="47.63057" lon="-2.80271">
        <ele>36</ele>
        <time>2025-01-28T08:18:28Z</time>
      </trkpt>
      <trkpt lat="47.63056" lon="-2.80269">
        <ele>36</ele>
        <time>2025-01-28T08:18:29Z</time>
      </trkpt>
      <trkpt lat="47.63056" lon="-2.80267">
        <ele>36</ele>
        <time>2025-01-28T08:18:30Z</time>
      </trkpt>
      <trkpt lat="47.63055" lon="-2.80265">
        <ele>36</ele>
        <time>2025-01-28T08:18:31Z</time>
      </trkpt>
      <trkpt lat="47.63055" lon="-2.80263">
        <ele>36</ele>
        <time>2025-01-28T08:18:32Z</time>
      </trkpt>
      <trkpt lat="47.63055" lon="-2.80261">
        <ele>36</ele>
        <time>2025-01-28T08:18:33Z</time>
      </trkpt>
      <trkpt lat="47.63054" lon="-2.80259">
        <ele>36</ele>
        <time>2025-01-28T08:18:34Z</time>
      </trkpt>
      <trkpt lat="47.63054" lon="-2.80257">
        <ele>36.1</ele>
        <time>2025-01-28T08:18:35Z</time>
      </trkpt>
      <trkpt lat="47.63054" lon="-2.80255">
        <ele>36.1</ele>
        <time>2025-01-28T08:18:36Z</time>
      </trkpt>
      <trkpt lat="47.63053" lon="-2.80253">
        <ele>36.1</ele>
        <time>2025-01-28T08:18:37Z</time>
      </trkpt>
      <trkpt lat="47.63053" lon="-2.80251">
        <ele>36.1</ele>
        <time>2025-01-28T08:18:38Z</time>
      </trkpt>
      <trkpt lat="47.63053" lon="-2.80249">
        <ele>36.1</ele>
        <time>2025-01-28T08:18:39Z</time>
      </trkpt>
      <trkpt lat="47.63053" lon="-2.80247">
        <ele>36.1</ele>
        <time>2025-01-28T08:18:40Z</time>
      </trkpt>
      <trkpt lat="47.63052" lon="-2.80246">
        <ele>36.1</ele>
        <time>2025-01-28T08:18:41Z</time>
      </trkpt>
      <trkpt lat="47.63052" lon="-2.80244">
        <ele>36.1</ele>
        <time>2025-01-28T08:18:42Z</time>
      </trkpt>
      <trkpt lat="47.63051" lon="-2.80242">
        <ele>36.2</ele>
        <time>2025-01-28T08:18:43Z</time>
      </trkpt>
      <trkpt lat="47.6305" lon="-2.8024">
        <ele>36.2</ele>
        <time>2025-01-28T08:18:44Z</time>
      </trkpt>
      <trkpt lat="47.6305" lon="-2.80239">
        <ele>36.2</ele>
        <time>2025-01-28T08:18:45Z</time>
      </trkpt>
      <trkpt lat="47.63049" lon="-2.80237">
        <ele>36.2</ele>
        <time>2025-01-28T08:18:46Z</time>
      </trkpt>
      <trkpt lat="47.63049" lon="-2.80235">
        <ele>36.2</ele>
        <time>2025-01-28T08:18:47Z</time>
      </trkpt>
      <trkpt lat="47.63049" lon="-2.80233">
        <ele>36.3</ele>
        <time>2025-01-28T08:18:48Z</time>
      </trkpt>
      <trkpt lat="47.63048" lon="-2.80231">
        <ele>36.3</ele>
        <time>2025-01-28T08:18:49Z</time>
      </trkpt>
      <trkpt lat="47.63048" lon="-2.80229">
        <ele>36.3</ele>
        <time>2025-01-28T08:18:50Z</time>
      </trkpt>
      <trkpt lat="47.63047" lon="-2.80228">
        <ele>36.3</ele>
        <time>2025-01-28T08:18:51Z</time>
      </trkpt>
      <trkpt lat="47.63047" lon="-2.80226">
        <ele>36.3</ele>
        <time>2025-01-28T08:18:52Z</time>
      </trkpt>
      <trkpt lat="47.63047" lon="-2.80224">
        <ele>36.3</ele>
        <time>2025-01-28T08:18:53Z</time>
      </trkpt>
      <trkpt lat="47.63046" lon="-2.80223">
        <ele>36.3</ele>
        <time>2025-01-28T08:18:54Z</time>
      </trkpt>
      <trkpt lat="47.63046" lon="-2.80221">
        <ele>36.4</ele>
        <time>2025-01-28T08:18:55Z</time>
      </trkpt>
      <trkpt lat="47.63046" lon="-2.80219">
        <ele>36.5</ele>
        <time>2025-01-28T08:18:56Z</time>
      </trkpt>
      <trkpt lat="47.63046" lon="-2.80217">
        <ele>36.5</ele>
        <time>2025-01-28T08:18:57Z</time>
      </trkpt>
      <trkpt lat="47.63047" lon="-2.80215">
        <ele>36.6</ele>
        <time>2025-01-28T08:18:58Z</time>
      </trkpt>
      <trkpt lat="47.63048" lon="-2.80213">
        <ele>36.6</ele>
        <time>2025-01-28T08:18:59Z</time>
      </trkpt>
      <trkpt lat="47.63049" lon="-2.80211">
        <ele>36.6</ele>
        <time>2025-01-28T08:19:00Z</time>
      </trkpt>
      <trkpt lat="47.6305" lon="-2.8021">
        <ele>36.6</ele>
        <time>2025-01-28T08:19:01Z</time>
      </trkpt>
      <trkpt lat="47.63051" lon="-2.80209">
        <ele>36.6</ele>
        <time>2025-01-28T08:19:02Z</time>
      </trkpt>
      <trkpt lat="47.63052" lon="-2.80208">
        <ele>36.6</ele>
        <time>2025-01-28T08:19:03Z</time>
      </trkpt>
      <trkpt lat="47.63054" lon="-2.80208">
        <ele>36.6</ele>
        <time>2025-01-28T08:19:04Z</time>
      </trkpt>
      <trkpt lat="47.63055" lon="-2.80207">
        <ele>36.6</ele>
        <time>2025-01-28T08:19:05Z</time>
      </trkpt>
      <trkpt lat="47.63057" lon="-2.80207">
        <ele>36.5</ele>
        <time>2025-01-28T08:19:06Z</time>
      </trkpt>
      <trkpt lat="47.63058" lon="-2.80207">
        <ele>36.4</ele>
        <time>2025-01-28T08:19:07Z</time>
      </trkpt>
      <trkpt lat="47.63059" lon="-2.80208">
        <ele>36.3</ele>
        <time>2025-01-28T08:19:08Z</time>
      </trkpt>
      <trkpt lat="47.63061" lon="-2.80209">
        <ele>36.2</ele>
        <time>2025-01-28T08:19:09Z</time>
      </trkpt>
      <trkpt lat="47.63062" lon="-2.80209">
        <ele>36.1</ele>
        <time>2025-01-28T08:19:10Z</time>
      </trkpt>
      <trkpt lat="47.63064" lon="-2.80211">
        <ele>36</ele>
        <time>2025-01-28T08:19:11Z</time>
      </trkpt>
      <trkpt lat="47.63065" lon="-2.80212">
        <ele>35.9</ele>
        <time>2025-01-28T08:19:12Z</time>
      </trkpt>
      <trkpt lat="47.63066" lon="-2.80212">
        <ele>35.8</ele>
        <time>2025-01-28T08:19:13Z</time>
      </trkpt>
      <trkpt lat="47.63068" lon="-2.80213">
        <ele>35.8</ele>
        <time>2025-01-28T08:19:14Z</time>
      </trkpt>
      <trkpt lat="47.63069" lon="-2.80214">
        <ele>35.7</ele>
        <time>2025-01-28T08:19:15Z</time>
      </trkpt>
      <trkpt lat="47.6307" lon="-2.80214">
        <ele>35.6</ele>
        <time>2025-01-28T08:19:16Z</time>
      </trkpt>
      <trkpt lat="47.63071" lon="-2.80215">
        <ele>35.6</ele>
        <time>2025-01-28T08:19:17Z</time>
      </trkpt>
      <trkpt lat="47.63072" lon="-2.80215">
        <ele>35.5</ele>
        <time>2025-01-28T08:19:18Z</time>
      </trkpt>
      <trkpt lat="47.63073" lon="-2.80216">
        <ele>35.4</ele>
        <time>2025-01-28T08:19:19Z</time>
      </trkpt>
      <trkpt lat="47.63075" lon="-2.80216">
        <ele>35.4</ele>
        <time>2025-01-28T08:19:20Z</time>
      </trkpt>
      <trkpt lat="47.63076" lon="-2.80216">
        <ele>35.3</ele>
        <time>2025-01-28T08:19:21Z</time>
      </trkpt>
      <trkpt lat="47.63077" lon="-2.80216">
        <ele>35.3</ele>
        <time>2025-01-28T08:19:22Z</time>
      </trkpt>
      <trkpt lat="47.63078" lon="-2.80216">
        <ele>35.2</ele>
        <time>2025-01-28T08:19:23Z</time>
      </trkpt>
      <trkpt lat="47.6308" lon="-2.80216">
        <ele>35.2</ele>
        <time>2025-01-28T08:19:24Z</time>
      </trkpt>
      <trkpt lat="47.63081" lon="-2.80216">
        <ele>35.1</ele>
        <time>2025-01-28T08:19:25Z</time>
      </trkpt>
      <trkpt lat="47.63082" lon="-2.80216">
        <ele>35.1</ele>
        <time>2025-01-28T08:19:26Z</time>
      </trkpt>
      <trkpt lat="47.63084" lon="-2.80216">
        <ele>35</ele>
        <time>2025-01-28T08:19:27Z</time>
      </trkpt>
      <trkpt lat="47.63085" lon="-2.80216">
        <ele>34.9</ele>
        <time>2025-01-28T08:19:28Z</time>
      </trkpt>
      <trkpt lat="47.63086" lon="-2.80216">
        <ele>34.8</ele>
        <time>2025-01-28T08:19:29Z</time>
      </trkpt>
      <trkpt lat="47.63088" lon="-2.80216">
        <ele>34.7</ele>
        <time>2025-01-28T08:19:30Z</time>
      </trkpt>
      <trkpt lat="47.63089" lon="-2.80216">
        <ele>34.6</ele>
        <time>2025-01-28T08:19:31Z</time>
      </trkpt>
      <trkpt lat="47.6309" lon="-2.80217">
        <ele>34.5</ele>
        <time>2025-01-28T08:19:32Z</time>
      </trkpt>
      <trkpt lat="47.63092" lon="-2.80217">
        <ele>34.4</ele>
        <time>2025-01-28T08:19:33Z</time>
      </trkpt>
      <trkpt lat="47.63093" lon="-2.80216">
        <ele>34.3</ele>
        <time>2025-01-28T08:19:34Z</time>
      </trkpt>
      <trkpt lat="47.63094" lon="-2.80217">
        <ele>34.2</ele>
        <time>2025-01-28T08:19:35Z</time>
      </trkpt>
      <trkpt lat="47.63096" lon="-2.80217">
        <ele>34.1</ele>
        <time>2025-01-28T08:19:36Z</time>
      </trkpt>
      <trkpt lat="47.63097" lon="-2.80216">
        <ele>34</ele>
        <time>2025-01-28T08:19:37Z</time>
      </trkpt>
      <trkpt lat="47.63098" lon="-2.80216">
        <ele>33.9</ele>
        <time>2025-01-28T08:19:38Z</time>
      </trkpt>
      <trkpt lat="47.631" lon="-2.80216">
        <ele>33.8</ele>
        <time>2025-01-28T08:19:39Z</time>
      </trkpt>
      <trkpt lat="47.63101" lon="-2.80216">
        <ele>33.7</ele>
        <time>2025-01-28T08:19:40Z</time>
      </trkpt>
      <trkpt lat="47.63102" lon="-2.80216">
        <ele>33.6</ele>
        <time>2025-01-28T08:19:41Z</time>
      </trkpt>
      <trkpt lat="47.63104" lon="-2.80216">
        <ele>33.5</ele>
        <time>2025-01-28T08:19:42Z</time>
      </trkpt>
      <trkpt lat="47.63105" lon="-2.80216">
        <ele>33.4</ele>
        <time>2025-01-28T08:19:43Z</time>
      </trkpt>
      <trkpt lat="47.63106" lon="-2.80216">
        <ele>33.3</ele>
        <time>2025-01-28T08:19:44Z</time>
      </trkpt>
      <trkpt lat="47.63108" lon="-2.80215">
        <ele>33.3</ele>
        <time>2025-01-28T08:19:45Z</time>
      </trkpt>
      <trkpt lat="47.63109" lon="-2.80215">
        <ele>33.2</ele>
        <time>2025-01-28T08:19:46Z</time>
      </trkpt>
      <trkpt lat="47.6311" lon="-2.80215">
        <ele>33.1</ele>
        <time>2025-01-28T08:19:47Z</time>
      </trkpt>
      <trkpt lat="47.63111" lon="-2.80214">
        <ele>33</ele>
        <time>2025-01-28T08:19:48Z</time>
      </trkpt>
      <trkpt lat="47.63112" lon="-2.80214">
        <ele>32.9</ele>
        <time>2025-01-28T08:19:49Z</time>
      </trkpt>
      <trkpt lat="47.63114" lon="-2.80215">
        <ele>32.9</ele>
        <time>2025-01-28T08:19:50Z</time>
      </trkpt>
      <trkpt lat="47.63115" lon="-2.80215">
        <ele>32.8</ele>
        <time>2025-01-28T08:19:51Z</time>
      </trkpt>
      <trkpt lat="47.63116" lon="-2.80215">
        <ele>32.7</ele>
        <time>2025-01-28T08:19:52Z</time>
      </trkpt>
      <trkpt lat="47.63118" lon="-2.80215">
        <ele>32.6</ele>
        <time>2025-01-28T08:19:53Z</time>
      </trkpt>
      <trkpt lat="47.63119" lon="-2.80215">
        <ele>32.5</ele>
        <time>2025-01-28T08:19:54Z</time>
      </trkpt>
      <trkpt lat="47.6312" lon="-2.80214">
        <ele>32.5</ele>
        <time>2025-01-28T08:19:55Z</time>
      </trkpt>
      <trkpt lat="47.63121" lon="-2.80214">
        <ele>32.4</ele>
        <time>2025-01-28T08:19:56Z</time>
      </trkpt>
      <trkpt lat="47.63123" lon="-2.80213">
        <ele>32.3</ele>
        <time>2025-01-28T08:19:57Z</time>
      </trkpt>
      <trkpt lat="47.63124" lon="-2.80213">
        <ele>32.2</ele>
        <time>2025-01-28T08:19:58Z</time>
      </trkpt>
      <trkpt lat="47.63125" lon="-2.80213">
        <ele>32.1</ele>
        <time>2025-01-28T08:19:59Z</time>
      </trkpt>
      <trkpt lat="47.63127" lon="-2.80212">
        <ele>32.1</ele>
        <time>2025-01-28T08:20:00Z</time>
      </trkpt>
      <trkpt lat="47.63128" lon="-2.80212">
        <ele>32</ele>
        <time>2025-01-28T08:20:01Z</time>
      </trkpt>
      <trkpt lat="47.6313" lon="-2.80212">
        <ele>31.9</ele>
        <time>2025-01-28T08:20:02Z</time>
      </trkpt>
      <trkpt lat="47.63131" lon="-2.80211">
        <ele>31.8</ele>
        <time>2025-01-28T08:20:03Z</time>
      </trkpt>
      <trkpt lat="47.63132" lon="-2.80211">
        <ele>31.8</ele>
        <time>2025-01-28T08:20:04Z</time>
      </trkpt>
      <trkpt lat="47.63134" lon="-2.80211">
        <ele>31.7</ele>
        <time>2025-01-28T08:20:05Z</time>
      </trkpt>
      <trkpt lat="47.63135" lon="-2.8021">
        <ele>31.6</ele>
        <time>2025-01-28T08:20:06Z</time>
      </trkpt>
      <trkpt lat="47.63137" lon="-2.8021">
        <ele>31.6</ele>
        <time>2025-01-28T08:20:07Z</time>
      </trkpt>
      <trkpt lat="47.63138" lon="-2.8021">
        <ele>31.5</ele>
        <time>2025-01-28T08:20:08Z</time>
      </trkpt>
      <trkpt lat="47.63139" lon="-2.80209">
        <ele>31.5</ele>
        <time>2025-01-28T08:20:09Z</time>
      </trkpt>
      <trkpt lat="47.63141" lon="-2.80209">
        <ele>31.4</ele>
        <time>2025-01-28T08:20:10Z</time>
      </trkpt>
      <trkpt lat="47.63142" lon="-2.80208">
        <ele>31.3</ele>
        <time>2025-01-28T08:20:11Z</time>
      </trkpt>
      <trkpt lat="47.63143" lon="-2.80208">
        <ele>31.3</ele>
        <time>2025-01-28T08:20:12Z</time>
      </trkpt>
      <trkpt lat="47.63145" lon="-2.80208">
        <ele>31.2</ele>
        <time>2025-01-28T08:20:13Z</time>
      </trkpt>
      <trkpt lat="47.63146" lon="-2.80207">
        <ele>31.2</ele>
        <time>2025-01-28T08:20:14Z</time>
      </trkpt>
      <trkpt lat="47.63147" lon="-2.80206">
        <ele>31.1</ele>
        <time>2025-01-28T08:20:15Z</time>
      </trkpt>
      <trkpt lat="47.63148" lon="-2.80206">
        <ele>31.1</ele>
        <time>2025-01-28T08:20:16Z</time>
      </trkpt>
      <trkpt lat="47.63149" lon="-2.80205">
        <ele>31</ele>
        <time>2025-01-28T08:20:17Z</time>
      </trkpt>
      <trkpt lat="47.6315" lon="-2.80204">
        <ele>31</ele>
        <time>2025-01-28T08:20:18Z</time>
      </trkpt>
      <trkpt lat="47.63151" lon="-2.80202">
        <ele>31</ele>
        <time>2025-01-28T08:20:19Z</time>
      </trkpt>
      <trkpt lat="47.63152" lon="-2.80202">
        <ele>30.9</ele>
        <time>2025-01-28T08:20:20Z</time>
      </trkpt>
      <trkpt lat="47.63153" lon="-2.802">
        <ele>30.9</ele>
        <time>2025-01-28T08:20:21Z</time>
      </trkpt>
      <trkpt lat="47.63154" lon="-2.802">
        <ele>30.8</ele>
        <time>2025-01-28T08:20:22Z</time>
      </trkpt>
      <trkpt lat="47.63155" lon="-2.802">
        <ele>30.8</ele>
        <time>2025-01-28T08:20:23Z</time>
      </trkpt>
      <trkpt lat="47.63157" lon="-2.80199">
        <ele>30.7</ele>
        <time>2025-01-28T08:20:24Z</time>
      </trkpt>
      <trkpt lat="47.63158" lon="-2.80199">
        <ele>30.6</ele>
        <time>2025-01-28T08:20:25Z</time>
      </trkpt>
      <trkpt lat="47.63159" lon="-2.80199">
        <ele>30.5</ele>
        <time>2025-01-28T08:20:26Z</time>
      </trkpt>
      <trkpt lat="47.6316" lon="-2.80198">
        <ele>30.4</ele>
        <time>2025-01-28T08:20:27Z</time>
      </trkpt>
      <trkpt lat="47.63162" lon="-2.80198">
        <ele>30.3</ele>
        <time>2025-01-28T08:20:28Z</time>
      </trkpt>
      <trkpt lat="47.63163" lon="-2.80197">
        <ele>30.3</ele>
        <time>2025-01-28T08:20:29Z</time>
      </trkpt>
      <trkpt lat="47.63164" lon="-2.80197">
        <ele>30.2</ele>
        <time>2025-01-28T08:20:30Z</time>
      </trkpt>
      <trkpt lat="47.63165" lon="-2.80196">
        <ele>30.1</ele>
        <time>2025-01-28T08:20:31Z</time>
      </trkpt>
      <trkpt lat="47.63166" lon="-2.80195">
        <ele>30</ele>
        <time>2025-01-28T08:20:32Z</time>
      </trkpt>
      <trkpt lat="47.63167" lon="-2.80195">
        <ele>30</ele>
        <time>2025-01-28T08:20:33Z</time>
      </trkpt>
      <trkpt lat="47.63169" lon="-2.80194">
        <ele>29.9</ele>
        <time>2025-01-28T08:20:34Z</time>
      </trkpt>
      <trkpt lat="47.6317" lon="-2.80193">
        <ele>29.9</ele>
        <time>2025-01-28T08:20:35Z</time>
      </trkpt>
      <trkpt lat="47.63171" lon="-2.80193">
        <ele>29.9</ele>
        <time>2025-01-28T08:20:36Z</time>
      </trkpt>
      <trkpt lat="47.63172" lon="-2.80193">
        <ele>29.8</ele>
        <time>2025-01-28T08:20:37Z</time>
      </trkpt>
      <trkpt lat="47.63174" lon="-2.80192">
        <ele>29.8</ele>
        <time>2025-01-28T08:20:38Z</time>
      </trkpt>
      <trkpt lat="47.63175" lon="-2.80192">
        <ele>29.8</ele>
        <time>2025-01-28T08:20:39Z</time>
      </trkpt>
      <trkpt lat="47.63177" lon="-2.80191">
        <ele>29.7</ele>
        <time>2025-01-28T08:20:40Z</time>
      </trkpt>
      <trkpt lat="47.63178" lon="-2.80191">
        <ele>29.7</ele>
        <time>2025-01-28T08:20:41Z</time>
      </trkpt>
      <trkpt lat="47.63179" lon="-2.80191">
        <ele>29.6</ele>
        <time>2025-01-28T08:20:42Z</time>
      </trkpt>
      <trkpt lat="47.6318" lon="-2.80191">
        <ele>29.6</ele>
        <time>2025-01-28T08:20:43Z</time>
      </trkpt>
      <trkpt lat="47.63182" lon="-2.8019">
        <ele>29.5</ele>
        <time>2025-01-28T08:20:44Z</time>
      </trkpt>
      <trkpt lat="47.63183" lon="-2.8019">
        <ele>29.5</ele>
        <time>2025-01-28T08:20:45Z</time>
      </trkpt>
      <trkpt lat="47.63184" lon="-2.80189">
        <ele>29.4</ele>
        <time>2025-01-28T08:20:46Z</time>
      </trkpt>
      <trkpt lat="47.63185" lon="-2.80188">
        <ele>29.4</ele>
        <time>2025-01-28T08:20:47Z</time>
      </trkpt>
      <trkpt lat="47.63186" lon="-2.80188">
        <ele>29.4</ele>
        <time>2025-01-28T08:20:48Z</time>
      </trkpt>
      <trkpt lat="47.63188" lon="-2.80188">
        <ele>29.3</ele>
        <time>2025-01-28T08:20:49Z</time>
      </trkpt>
      <trkpt lat="47.63189" lon="-2.80188">
        <ele>29.3</ele>
        <time>2025-01-28T08:20:50Z</time>
      </trkpt>
      <trkpt lat="47.6319" lon="-2.80188">
        <ele>29.2</ele>
        <time>2025-01-28T08:20:51Z</time>
      </trkpt>
      <trkpt lat="47.63191" lon="-2.80188">
        <ele>29.1</ele>
        <time>2025-01-28T08:20:52Z</time>
      </trkpt>
      <trkpt lat="47.63193" lon="-2.80188">
        <ele>29.1</ele>
        <time>2025-01-28T08:20:53Z</time>
      </trkpt>
      <trkpt lat="47.63194" lon="-2.80187">
        <ele>29</ele>
        <time>2025-01-28T08:20:54Z</time>
      </trkpt>
      <trkpt lat="47.63195" lon="-2.80187">
        <ele>29</ele>
        <time>2025-01-28T08:20:55Z</time>
      </trkpt>
      <trkpt lat="47.63196" lon="-2.80187">
        <ele>29</ele>
        <time>2025-01-28T08:20:56Z</time>
      </trkpt>
      <trkpt lat="47.63198" lon="-2.80187">
        <ele>28.9</ele>
        <time>2025-01-28T08:20:57Z</time>
      </trkpt>
      <trkpt lat="47.63199" lon="-2.80187">
        <ele>28.9</ele>
        <time>2025-01-28T08:20:58Z</time>
      </trkpt>
      <trkpt lat="47.632" lon="-2.80187">
        <ele>28.8</ele>
        <time>2025-01-28T08:20:59Z</time>
      </trkpt>
      <trkpt lat="47.63201" lon="-2.80188">
        <ele>28.8</ele>
        <time>2025-01-28T08:21:00Z</time>
      </trkpt>
      <trkpt lat="47.63203" lon="-2.80188">
        <ele>28.8</ele>
        <time>2025-01-28T08:21:01Z</time>
      </trkpt>
      <trkpt lat="47.63204" lon="-2.80188">
        <ele>28.7</ele>
        <time>2025-01-28T08:21:02Z</time>
      </trkpt>
      <trkpt lat="47.63205" lon="-2.80187">
        <ele>28.7</ele>
        <time>2025-01-28T08:21:03Z</time>
      </trkpt>
      <trkpt lat="47.63206" lon="-2.80187">
        <ele>28.7</ele>
        <time>2025-01-28T08:21:04Z</time>
      </trkpt>
      <trkpt lat="47.63207" lon="-2.80187">
        <ele>28.7</ele>
        <time>2025-01-28T08:21:05Z</time>
      </trkpt>
      <trkpt lat="47.63209" lon="-2.80187">
        <ele>28.6</ele>
        <time>2025-01-28T08:21:06Z</time>
      </trkpt>
      <trkpt lat="47.6321" lon="-2.80186">
        <ele>28.6</ele>
        <time>2025-01-28T08:21:07Z</time>
      </trkpt>
      <trkpt lat="47.63211" lon="-2.80187">
        <ele>28.6</ele>
        <time>2025-01-28T08:21:08Z</time>
      </trkpt>
      <trkpt lat="47.63212" lon="-2.80186">
        <ele>28.6</ele>
        <time>2025-01-28T08:21:09Z</time>
      </trkpt>
      <trkpt lat="47.63213" lon="-2.80185">
        <ele>28.6</ele>
        <time>2025-01-28T08:21:10Z</time>
      </trkpt>
      <trkpt lat="47.63214" lon="-2.80184">
        <ele>28.6</ele>
        <time>2025-01-28T08:21:11Z</time>
      </trkpt>
      <trkpt lat="47.63215" lon="-2.80183">
        <ele>28.6</ele>
        <time>2025-01-28T08:21:12Z</time>
      </trkpt>
      <trkpt lat="47.63215" lon="-2.80182">
        <ele>28.6</ele>
        <time>2025-01-28T08:21:13Z</time>
      </trkpt>
      <trkpt lat="47.63216" lon="-2.8018">
        <ele>28.6</ele>
        <time>2025-01-28T08:21:14Z</time>
      </trkpt>
      <trkpt lat="47.63216" lon="-2.80179">
        <ele>28.7</ele>
        <time>2025-01-28T08:21:15Z</time>
      </trkpt>
      <trkpt lat="47.63215" lon="-2.80178">
        <ele>28.7</ele>
        <time>2025-01-28T08:21:16Z</time>
      </trkpt>
      <trkpt lat="47.63215" lon="-2.80176">
        <ele>28.7</ele>
        <time>2025-01-28T08:21:17Z</time>
      </trkpt>
      <trkpt lat="47.63214" lon="-2.80175">
        <ele>28.8</ele>
        <time>2025-01-28T08:21:18Z</time>
      </trkpt>
      <trkpt lat="47.63214" lon="-2.80173">
        <ele>28.8</ele>
        <time>2025-01-28T08:21:19Z</time>
      </trkpt>
      <trkpt lat="47.63214" lon="-2.80172">
        <ele>28.9</ele>
        <time>2025-01-28T08:21:20Z</time>
      </trkpt>
      <trkpt lat="47.63213" lon="-2.80171">
        <ele>28.9</ele>
        <time>2025-01-28T08:21:21Z</time>
      </trkpt>
      <trkpt lat="47.63213" lon="-2.8017">
        <ele>28.9</ele>
        <time>2025-01-28T08:21:22Z</time>
      </trkpt>
      <trkpt lat="47.63212" lon="-2.80168">
        <ele>29</ele>
        <time>2025-01-28T08:21:23Z</time>
      </trkpt>
      <trkpt lat="47.63212" lon="-2.80167">
        <ele>29</ele>
        <time>2025-01-28T08:21:24Z</time>
      </trkpt>
      <trkpt lat="47.63212" lon="-2.80165">
        <ele>29</ele>
        <time>2025-01-28T08:21:25Z</time>
      </trkpt>
      <trkpt lat="47.63211" lon="-2.80163">
        <ele>29</ele>
        <time>2025-01-28T08:21:26Z</time>
      </trkpt>
      <trkpt lat="47.63211" lon="-2.80161">
        <ele>29.1</ele>
        <time>2025-01-28T08:21:27Z</time>
      </trkpt>
      <trkpt lat="47.6321" lon="-2.80159">
        <ele>29.1</ele>
        <time>2025-01-28T08:21:28Z</time>
      </trkpt>
      <trkpt lat="47.6321" lon="-2.80158">
        <ele>29.1</ele>
        <time>2025-01-28T08:21:29Z</time>
      </trkpt>
      <trkpt lat="47.6321" lon="-2.80156">
        <ele>29.2</ele>
        <time>2025-01-28T08:21:30Z</time>
      </trkpt>
      <trkpt lat="47.6321" lon="-2.80158">
        <ele>29.1</ele>
        <time>2025-01-28T08:21:31Z</time>
      </trkpt>
      <trkpt lat="47.6321" lon="-2.80158">
        <ele>29.1</ele>
        <time>2025-01-28T08:21:32Z</time>
      </trkpt>
      <trkpt lat="47.6321" lon="-2.80158">
        <ele>29.1</ele>
        <time>2025-01-28T08:21:33Z</time>
      </trkpt>
      <trkpt lat="47.6321" lon="-2.80158">
        <ele>29.1</ele>
        <time>2025-01-28T08:21:34Z</time>
      </trkpt>
      <trkpt lat="47.6321" lon="-2.80158">
        <ele>29.1</ele>
        <time>2025-01-28T08:21:35Z</time>
      </trkpt>
      <trkpt lat="47.6321" lon="-2.80158">
        <ele>29.1</ele>
        <time>2025-01-28T08:21:36Z</time>
      </trkpt>
      <trkpt lat="47.6321" lon="-2.80158">
        <ele>29.1</ele>
        <time>2025-01-28T08:21:37Z</time>
      </trkpt>
      <trkpt lat="47.6321" lon="-2.80158">
        <ele>29.1</ele>
        <time>2025-01-28T08:21:38Z</time>
      </trkpt>
      <trkpt lat="47.6321" lon="-2.80158">
        <ele>29.1</ele>
        <time>2025-01-28T08:21:39Z</time>
      </trkpt>
      <trkpt lat="47.6321" lon="-2.80158">
        <ele>29.1</ele>
        <time>2025-01-28T08:21:40Z</time>
      </trkpt>
      <trkpt lat="47.6321" lon="-2.80158">
        <ele>29.1</ele>
        <time>2025-01-28T08:21:41Z</time>
      </trkpt>
      <trkpt lat="47.6321" lon="-2.80156">
        <ele>29.2</ele>
        <time>2025-01-28T08:21:42Z</time>
      </trkpt>
      <trkpt lat="47.63211" lon="-2.80155">
        <ele>29.2</ele>
        <time>2025-01-28T08:21:43Z</time>
      </trkpt>
      <trkpt lat="47.63211" lon="-2.80153">
        <ele>29.2</ele>
        <time>2025-01-28T08:21:44Z</time>
      </trkpt>
      <trkpt lat="47.63211" lon="-2.80151">
        <ele>29.2</ele>
        <time>2025-01-28T08:21:45Z</time>
      </trkpt>
      <trkpt lat="47.63211" lon="-2.8015">
        <ele>29.3</ele>
        <time>2025-01-28T08:21:46Z</time>
      </trkpt>
      <trkpt lat="47.63211" lon="-2.80149">
        <ele>29.3</ele>
        <time>2025-01-28T08:21:47Z</time>
      </trkpt>
      <trkpt lat="47.6321" lon="-2.80148">
        <ele>29.3</ele>
        <time>2025-01-28T08:21:48Z</time>
      </trkpt>
      <trkpt lat="47.6321" lon="-2.80147">
        <ele>29.3</ele>
        <time>2025-01-28T08:21:49Z</time>
      </trkpt>
      <trkpt lat="47.6321" lon="-2.80146">
        <ele>29.3</ele>
        <time>2025-01-28T08:21:50Z</time>
      </trkpt>
      <trkpt lat="47.6321" lon="-2.80145">
        <ele>29.3</ele>
        <time>2025-01-28T08:21:51Z</time>
      </trkpt>
      <trkpt lat="47.6321" lon="-2.80145">
        <ele>29.3</ele>
        <time>2025-01-28T08:21:52Z</time>
      </trkpt>
      <trkpt lat="47.6321" lon="-2.80145">
        <ele>29.3</ele>
        <time>2025-01-28T08:21:53Z</time>
      </trkpt>
      <trkpt lat="47.6321" lon="-2.80145">
        <ele>29.3</ele>
        <time>2025-01-28T08:21:54Z</time>
      </trkpt>
      <trkpt lat="47.6321" lon="-2.80145">
        <ele>29.3</ele>
        <time>2025-01-28T08:21:55Z</time>
      </trkpt>
      <trkpt lat="47.6321" lon="-2.80145">
        <ele>29.3</ele>
        <time>2025-01-28T08:21:56Z</time>
      </trkpt>
      <trkpt lat="47.6321" lon="-2.80145">
        <ele>29.3</ele>
        <time>2025-01-28T08:21:57Z</time>
      </trkpt>
      <trkpt lat="47.6321" lon="-2.80145">
        <ele>29.3</ele>
        <time>2025-01-28T08:21:58Z</time>
      </trkpt>
      <trkpt lat="47.6321" lon="-2.80146">
        <ele>29.3</ele>
        <time>2025-01-28T08:21:59Z</time>
      </trkpt>
      <trkpt lat="47.6321" lon="-2.80146">
        <ele>29.3</ele>
        <time>2025-01-28T08:22:00Z</time>
      </trkpt>
      <trkpt lat="47.6321" lon="-2.80147">
        <ele>29.3</ele>
        <time>2025-01-28T08:22:01Z</time>
      </trkpt>
      <trkpt lat="47.6321" lon="-2.80148">
        <ele>29.3</ele>
        <time>2025-01-28T08:22:02Z</time>
      </trkpt>
      <trkpt lat="47.6321" lon="-2.8015">
        <ele>29.3</ele>
        <time>2025-01-28T08:22:03Z</time>
      </trkpt>
      <trkpt lat="47.63211" lon="-2.80151">
        <ele>29.2</ele>
        <time>2025-01-28T08:22:04Z</time>
      </trkpt>
      <trkpt lat="47.63211" lon="-2.80153">
        <ele>29.2</ele>
        <time>2025-01-28T08:22:05Z</time>
      </trkpt>
      <trkpt lat="47.63211" lon="-2.80154">
        <ele>29.2</ele>
        <time>2025-01-28T08:22:06Z</time>
      </trkpt>
      <trkpt lat="47.63211" lon="-2.80155">
        <ele>29.2</ele>
        <time>2025-01-28T08:22:07Z</time>
      </trkpt>
      <trkpt lat="47.63211" lon="-2.80157">
        <ele>29.1</ele>
        <time>2025-01-28T08:22:08Z</time>
      </trkpt>
      <trkpt lat="47.63212" lon="-2.80158">
        <ele>29.1</ele>
        <time>2025-01-28T08:22:09Z</time>
      </trkpt>
      <trkpt lat="47.63212" lon="-2.8016">
        <ele>29.1</ele>
        <time>2025-01-28T08:22:10Z</time>
      </trkpt>
      <trkpt lat="47.63212" lon="-2.80162">
        <ele>29.1</ele>
        <time>2025-01-28T08:22:11Z</time>
      </trkpt>
      <trkpt lat="47.63213" lon="-2.80163">
        <ele>29</ele>
        <time>2025-01-28T08:22:12Z</time>
      </trkpt>
      <trkpt lat="47.63213" lon="-2.80165">
        <ele>29</ele>
        <time>2025-01-28T08:22:13Z</time>
      </trkpt>
      <trkpt lat="47.63214" lon="-2.80167">
        <ele>29</ele>
        <time>2025-01-28T08:22:14Z</time>
      </trkpt>
      <trkpt lat="47.63214" lon="-2.80168">
        <ele>29</ele>
        <time>2025-01-28T08:22:15Z</time>
      </trkpt>
      <trkpt lat="47.63214" lon="-2.8017">
        <ele>28.9</ele>
        <time>2025-01-28T08:22:16Z</time>
      </trkpt>
      <trkpt lat="47.63214" lon="-2.80172">
        <ele>28.9</ele>
        <time>2025-01-28T08:22:17Z</time>
      </trkpt>
      <trkpt lat="47.63215" lon="-2.80174">
        <ele>28.8</ele>
        <time>2025-01-28T08:22:18Z</time>
      </trkpt>
      <trkpt lat="47.63215" lon="-2.80175">
        <ele>28.8</ele>
        <time>2025-01-28T08:22:19Z</time>
      </trkpt>
      <trkpt lat="47.63216" lon="-2.80177">
        <ele>28.7</ele>
        <time>2025-01-28T08:22:20Z</time>
      </trkpt>
      <trkpt lat="47.63216" lon="-2.80178">
        <ele>28.7</ele>
        <time>2025-01-28T08:22:21Z</time>
      </trkpt>
      <trkpt lat="47.63217" lon="-2.8018">
        <ele>28.6</ele>
        <time>2025-01-28T08:22:22Z</time>
      </trkpt>
      <trkpt lat="47.63217" lon="-2.80181">
        <ele>28.6</ele>
        <time>2025-01-28T08:22:23Z</time>
      </trkpt>
      <trkpt lat="47.63217" lon="-2.80183">
        <ele>28.5</ele>
        <time>2025-01-28T08:22:24Z</time>
      </trkpt>
      <trkpt lat="47.63217" lon="-2.80184">
        <ele>28.5</ele>
        <time>2025-01-28T08:22:25Z</time>
      </trkpt>
      <trkpt lat="47.63218" lon="-2.80186">
        <ele>28.4</ele>
        <time>2025-01-28T08:22:26Z</time>
      </trkpt>
      <trkpt lat="47.63218" lon="-2.80187">
        <ele>28.4</ele>
        <time>2025-01-28T08:22:27Z</time>
      </trkpt>
      <trkpt lat="47.63218" lon="-2.80188">
        <ele>28.3</ele>
        <time>2025-01-28T08:22:28Z</time>
      </trkpt>
      <trkpt lat="47.63219" lon="-2.8019">
        <ele>28.3</ele>
        <time>2025-01-28T08:22:29Z</time>
      </trkpt>
      <trkpt lat="47.63219" lon="-2.80191">
        <ele>28.2</ele>
        <time>2025-01-28T08:22:30Z</time>
      </trkpt>
      <trkpt lat="47.6322" lon="-2.80192">
        <ele>28.2</ele>
        <time>2025-01-28T08:22:31Z</time>
      </trkpt>
      <trkpt lat="47.63219" lon="-2.80191">
        <ele>28.2</ele>
        <time>2025-01-28T08:22:32Z</time>
      </trkpt>
      <trkpt lat="47.63219" lon="-2.8019">
        <ele>28.2</ele>
        <time>2025-01-28T08:22:33Z</time>
      </trkpt>
      <trkpt lat="47.63219" lon="-2.8019">
        <ele>28.3</ele>
        <time>2025-01-28T08:22:34Z</time>
      </trkpt>
      <trkpt lat="47.63219" lon="-2.80191">
        <ele>28.2</ele>
        <time>2025-01-28T08:22:35Z</time>
      </trkpt>
      <trkpt lat="47.63219" lon="-2.80192">
        <ele>28.2</ele>
        <time>2025-01-28T08:22:36Z</time>
      </trkpt>
      <trkpt lat="47.63219" lon="-2.80194">
        <ele>28.1</ele>
        <time>2025-01-28T08:22:37Z</time>
      </trkpt>
      <trkpt lat="47.6322" lon="-2.80195">
        <ele>28.1</ele>
        <time>2025-01-28T08:22:38Z</time>
      </trkpt>
      <trkpt lat="47.6322" lon="-2.80197">
        <ele>28</ele>
        <time>2025-01-28T08:22:39Z</time>
      </trkpt>
      <trkpt lat="47.63221" lon="-2.80199">
        <ele>27.9</ele>
        <time>2025-01-28T08:22:40Z</time>
      </trkpt>
      <trkpt lat="47.63221" lon="-2.802">
        <ele>27.8</ele>
        <time>2025-01-28T08:22:41Z</time>
      </trkpt>
      <trkpt lat="47.63221" lon="-2.80202">
        <ele>27.8</ele>
        <time>2025-01-28T08:22:42Z</time>
      </trkpt>
      <trkpt lat="47.63222" lon="-2.80203">
        <ele>27.7</ele>
        <time>2025-01-28T08:22:43Z</time>
      </trkpt>
      <trkpt lat="47.63223" lon="-2.80206">
        <ele>27.6</ele>
        <time>2025-01-28T08:22:44Z</time>
      </trkpt>
      <trkpt lat="47.63223" lon="-2.80208">
        <ele>27.5</ele>
        <time>2025-01-28T08:22:45Z</time>
      </trkpt>
      <trkpt lat="47.63224" lon="-2.8021">
        <ele>27.4</ele>
        <time>2025-01-28T08:22:46Z</time>
      </trkpt>
      <trkpt lat="47.63225" lon="-2.80212">
        <ele>27.3</ele>
        <time>2025-01-28T08:22:47Z</time>
      </trkpt>
      <trkpt lat="47.63226" lon="-2.80213">
        <ele>27.2</ele>
        <time>2025-01-28T08:22:48Z</time>
      </trkpt>
      <trkpt lat="47.63227" lon="-2.80214">
        <ele>27.1</ele>
        <time>2025-01-28T08:22:49Z</time>
      </trkpt>
      <trkpt lat="47.63227" lon="-2.80216">
        <ele>27</ele>
        <time>2025-01-28T08:22:50Z</time>
      </trkpt>
      <trkpt lat="47.63228" lon="-2.80217">
        <ele>27</ele>
        <time>2025-01-28T08:22:51Z</time>
      </trkpt>
      <trkpt lat="47.63228" lon="-2.80219">
        <ele>26.9</ele>
        <time>2025-01-28T08:22:52Z</time>
      </trkpt>
      <trkpt lat="47.63228" lon="-2.80222">
        <ele>26.8</ele>
        <time>2025-01-28T08:22:53Z</time>
      </trkpt>
      <trkpt lat="47.63228" lon="-2.80224">
        <ele>26.7</ele>
        <time>2025-01-28T08:22:54Z</time>
      </trkpt>
      <trkpt lat="47.63229" lon="-2.80226">
        <ele>26.7</ele>
        <time>2025-01-28T08:22:55Z</time>
      </trkpt>
      <trkpt lat="47.63228" lon="-2.80227">
        <ele>26.6</ele>
        <time>2025-01-28T08:22:56Z</time>
      </trkpt>
      <trkpt lat="47.63229" lon="-2.80229">
        <ele>26.5</ele>
        <time>2025-01-28T08:22:57Z</time>
      </trkpt>
      <trkpt lat="47.63229" lon="-2.80231">
        <ele>26.4</ele>
        <time>2025-01-28T08:22:58Z</time>
      </trkpt>
      <trkpt lat="47.63229" lon="-2.80233">
        <ele>26.4</ele>
        <time>2025-01-28T08:22:59Z</time>
      </trkpt>
      <trkpt lat="47.6323" lon="-2.80235">
        <ele>26.3</ele>
        <time>2025-01-28T08:23:00Z</time>
      </trkpt>
      <trkpt lat="47.63231" lon="-2.80237">
        <ele>26.2</ele>
        <time>2025-01-28T08:23:01Z</time>
      </trkpt>
      <trkpt lat="47.63232" lon="-2.80239">
        <ele>26.1</ele>
        <time>2025-01-28T08:23:02Z</time>
      </trkpt>
      <trkpt lat="47.63233" lon="-2.8024">
        <ele>26</ele>
        <time>2025-01-28T08:23:03Z</time>
      </trkpt>
      <trkpt lat="47.63234" lon="-2.80242">
        <ele>25.9</ele>
        <time>2025-01-28T08:23:04Z</time>
      </trkpt>
      <trkpt lat="47.63234" lon="-2.80245">
        <ele>25.8</ele>
        <time>2025-01-28T08:23:05Z</time>
      </trkpt>
      <trkpt lat="47.63234" lon="-2.80247">
        <ele>25.7</ele>
        <time>2025-01-28T08:23:06Z</time>
      </trkpt>
      <trkpt lat="47.63234" lon="-2.80249">
        <ele>25.6</ele>
        <time>2025-01-28T08:23:07Z</time>
      </trkpt>
      <trkpt lat="47.63235" lon="-2.80251">
        <ele>25.6</ele>
        <time>2025-01-28T08:23:08Z</time>
      </trkpt>
      <trkpt lat="47.63236" lon="-2.80253">
        <ele>25.6</ele>
        <time>2025-01-28T08:23:09Z</time>
      </trkpt>
      <trkpt lat="47.63236" lon="-2.80254">
        <ele>25.6</ele>
        <time>2025-01-28T08:23:10Z</time>
      </trkpt>
      <trkpt lat="47.63237" lon="-2.80256">
        <ele>25.6</ele>
        <time>2025-01-28T08:23:11Z</time>
      </trkpt>
      <trkpt lat="47.63238" lon="-2.80258">
        <ele>25.6</ele>
        <time>2025-01-28T08:23:12Z</time>
      </trkpt>
      <trkpt lat="47.63239" lon="-2.8026">
        <ele>25.6</ele>
        <time>2025-01-28T08:23:13Z</time>
      </trkpt>
      <trkpt lat="47.63239" lon="-2.80262">
        <ele>25.5</ele>
        <time>2025-01-28T08:23:14Z</time>
      </trkpt>
      <trkpt lat="47.6324" lon="-2.80263">
        <ele>25.5</ele>
        <time>2025-01-28T08:23:15Z</time>
      </trkpt>
      <trkpt lat="47.63241" lon="-2.80265">
        <ele>25.5</ele>
        <time>2025-01-28T08:23:16Z</time>
      </trkpt>
      <trkpt lat="47.63242" lon="-2.80267">
        <ele>25.5</ele>
        <time>2025-01-28T08:23:17Z</time>
      </trkpt>
      <trkpt lat="47.63243" lon="-2.80268">
        <ele>25.4</ele>
        <time>2025-01-28T08:23:18Z</time>
      </trkpt>
      <trkpt lat="47.63244" lon="-2.80269">
        <ele>25.4</ele>
        <time>2025-01-28T08:23:19Z</time>
      </trkpt>
      <trkpt lat="47.63244" lon="-2.80271">
        <ele>25.4</ele>
        <time>2025-01-28T08:23:20Z</time>
      </trkpt>
      <trkpt lat="47.63245" lon="-2.80273">
        <ele>25.3</ele>
        <time>2025-01-28T08:23:21Z</time>
      </trkpt>
      <trkpt lat="47.63245" lon="-2.80276">
        <ele>25.3</ele>
        <time>2025-01-28T08:23:22Z</time>
      </trkpt>
      <trkpt lat="47.63246" lon="-2.80278">
        <ele>25.3</ele>
        <time>2025-01-28T08:23:23Z</time>
      </trkpt>
      <trkpt lat="47.63247" lon="-2.80279">
        <ele>25.2</ele>
        <time>2025-01-28T08:23:24Z</time>
      </trkpt>
      <trkpt lat="47.63248" lon="-2.8028">
        <ele>25.2</ele>
        <time>2025-01-28T08:23:25Z</time>
      </trkpt>
      <trkpt lat="47.63248" lon="-2.80282">
        <ele>25.2</ele>
        <time>2025-01-28T08:23:26Z</time>
      </trkpt>
      <trkpt lat="47.63248" lon="-2.80284">
        <ele>25.2</ele>
        <time>2025-01-28T08:23:27Z</time>
      </trkpt>
      <trkpt lat="47.63248" lon="-2.80286">
        <ele>25.2</ele>
        <time>2025-01-28T08:23:28Z</time>
      </trkpt>
      <trkpt lat="47.63248" lon="-2.80288">
        <ele>25.2</ele>
        <time>2025-01-28T08:23:29Z</time>
      </trkpt>
      <trkpt lat="47.63248" lon="-2.8029">
        <ele>25.1</ele>
        <time>2025-01-28T08:23:30Z</time>
      </trkpt>
      <trkpt lat="47.63249" lon="-2.80291">
        <ele>25.1</ele>
        <time>2025-01-28T08:23:31Z</time>
      </trkpt>
      <trkpt lat="47.6325" lon="-2.80293">
        <ele>25</ele>
        <time>2025-01-28T08:23:32Z</time>
      </trkpt>
      <trkpt lat="47.63251" lon="-2.80294">
        <ele>25</ele>
        <time>2025-01-28T08:23:33Z</time>
      </trkpt>
      <trkpt lat="47.63251" lon="-2.80295">
        <ele>24.9</ele>
        <time>2025-01-28T08:23:34Z</time>
      </trkpt>
      <trkpt lat="47.63252" lon="-2.80297">
        <ele>24.9</ele>
        <time>2025-01-28T08:23:35Z</time>
      </trkpt>
      <trkpt lat="47.63252" lon="-2.80299">
        <ele>24.9</ele>
        <time>2025-01-28T08:23:36Z</time>
      </trkpt>
      <trkpt lat="47.63252" lon="-2.80301">
        <ele>24.9</ele>
        <time>2025-01-28T08:23:37Z</time>
      </trkpt>
      <trkpt lat="47.63253" lon="-2.80302">
        <ele>24.9</ele>
        <time>2025-01-28T08:23:38Z</time>
      </trkpt>
      <trkpt lat="47.63254" lon="-2.80304">
        <ele>24.9</ele>
        <time>2025-01-28T08:23:39Z</time>
      </trkpt>
      <trkpt lat="47.63254" lon="-2.80305">
        <ele>24.8</ele>
        <time>2025-01-28T08:23:40Z</time>
      </trkpt>
      <trkpt lat="47.63255" lon="-2.80307">
        <ele>24.9</ele>
        <time>2025-01-28T08:23:41Z</time>
      </trkpt>
      <trkpt lat="47.63255" lon="-2.80309">
        <ele>24.9</ele>
        <time>2025-01-28T08:23:42Z</time>
      </trkpt>
      <trkpt lat="47.63256" lon="-2.8031">
        <ele>25</ele>
        <time>2025-01-28T08:23:43Z</time>
      </trkpt>
      <trkpt lat="47.63256" lon="-2.80312">
        <ele>25</ele>
        <time>2025-01-28T08:23:44Z</time>
      </trkpt>
      <trkpt lat="47.63257" lon="-2.80314">
        <ele>25.1</ele>
        <time>2025-01-28T08:23:45Z</time>
      </trkpt>
      <trkpt lat="47.63258" lon="-2.80316">
        <ele>25.1</ele>
        <time>2025-01-28T08:23:46Z</time>
      </trkpt>
      <trkpt lat="47.63259" lon="-2.80317">
        <ele>25.1</ele>
        <time>2025-01-28T08:23:47Z</time>
      </trkpt>
      <trkpt lat="47.6326" lon="-2.80319">
        <ele>25.1</ele>
        <time>2025-01-28T08:23:48Z</time>
      </trkpt>
      <trkpt lat="47.6326" lon="-2.80321">
        <ele>25.2</ele>
        <time>2025-01-28T08:23:49Z</time>
      </trkpt>
      <trkpt lat="47.63261" lon="-2.80322">
        <ele>25.2</ele>
        <time>2025-01-28T08:23:50Z</time>
      </trkpt>
      <trkpt lat="47.63262" lon="-2.80324">
        <ele>25.2</ele>
        <time>2025-01-28T08:23:51Z</time>
      </trkpt>
      <trkpt lat="47.63263" lon="-2.80326">
        <ele>25.3</ele>
        <time>2025-01-28T08:23:52Z</time>
      </trkpt>
      <trkpt lat="47.63263" lon="-2.80327">
        <ele>25.3</ele>
        <time>2025-01-28T08:23:53Z</time>
      </trkpt>
      <trkpt lat="47.63264" lon="-2.80329">
        <ele>25.3</ele>
        <time>2025-01-28T08:23:54Z</time>
      </trkpt>
      <trkpt lat="47.63265" lon="-2.8033">
        <ele>25.3</ele>
        <time>2025-01-28T08:23:55Z</time>
      </trkpt>
      <trkpt lat="47.63266" lon="-2.80331">
        <ele>25.3</ele>
        <time>2025-01-28T08:23:56Z</time>
      </trkpt>
      <trkpt lat="47.63267" lon="-2.80332">
        <ele>25.3</ele>
        <time>2025-01-28T08:23:57Z</time>
      </trkpt>
      <trkpt lat="47.63269" lon="-2.80333">
        <ele>25.3</ele>
        <time>2025-01-28T08:23:58Z</time>
      </trkpt>
      <trkpt lat="47.63269" lon="-2.80334">
        <ele>25.4</ele>
        <time>2025-01-28T08:23:59Z</time>
      </trkpt>
      <trkpt lat="47.63271" lon="-2.80335">
        <ele>25.4</ele>
        <time>2025-01-28T08:24:00Z</time>
      </trkpt>
      <trkpt lat="47.63272" lon="-2.80336">
        <ele>25.4</ele>
        <time>2025-01-28T08:24:01Z</time>
      </trkpt>
      <trkpt lat="47.63273" lon="-2.80337">
        <ele>25.4</ele>
        <time>2025-01-28T08:24:02Z</time>
      </trkpt>
      <trkpt lat="47.63274" lon="-2.80338">
        <ele>25.4</ele>
        <time>2025-01-28T08:24:03Z</time>
      </trkpt>
      <trkpt lat="47.63276" lon="-2.80339">
        <ele>25.5</ele>
        <time>2025-01-28T08:24:04Z</time>
      </trkpt>
      <trkpt lat="47.63277" lon="-2.8034">
        <ele>25.5</ele>
        <time>2025-01-28T08:24:05Z</time>
      </trkpt>
      <trkpt lat="47.63278" lon="-2.80341">
        <ele>25.6</ele>
        <time>2025-01-28T08:24:06Z</time>
      </trkpt>
      <trkpt lat="47.63279" lon="-2.80343">
        <ele>25.7</ele>
        <time>2025-01-28T08:24:07Z</time>
      </trkpt>
      <trkpt lat="47.6328" lon="-2.80344">
        <ele>25.7</ele>
        <time>2025-01-28T08:24:08Z</time>
      </trkpt>
      <trkpt lat="47.63281" lon="-2.80345">
        <ele>25.8</ele>
        <time>2025-01-28T08:24:09Z</time>
      </trkpt>
      <trkpt lat="47.63282" lon="-2.80346">
        <ele>25.8</ele>
        <time>2025-01-28T08:24:10Z</time>
      </trkpt>
      <trkpt lat="47.63283" lon="-2.80346">
        <ele>25.9</ele>
        <time>2025-01-28T08:24:11Z</time>
      </trkpt>
      <trkpt lat="47.63284" lon="-2.80347">
        <ele>25.9</ele>
        <time>2025-01-28T08:24:12Z</time>
      </trkpt>
      <trkpt lat="47.63285" lon="-2.80348">
        <ele>25.9</ele>
        <time>2025-01-28T08:24:13Z</time>
      </trkpt>
      <trkpt lat="47.63286" lon="-2.80349">
        <ele>25.9</ele>
        <time>2025-01-28T08:24:14Z</time>
      </trkpt>
      <trkpt lat="47.63286" lon="-2.8035">
        <ele>26</ele>
        <time>2025-01-28T08:24:15Z</time>
      </trkpt>
      <trkpt lat="47.63287" lon="-2.80351">
        <ele>26.1</ele>
        <time>2025-01-28T08:24:16Z</time>
      </trkpt>
      <trkpt lat="47.63288" lon="-2.80352">
        <ele>26.1</ele>
        <time>2025-01-28T08:24:17Z</time>
      </trkpt>
      <trkpt lat="47.63289" lon="-2.80353">
        <ele>26.1</ele>
        <time>2025-01-28T08:24:18Z</time>
      </trkpt>
      <trkpt lat="47.63291" lon="-2.80353">
        <ele>26.1</ele>
        <time>2025-01-28T08:24:19Z</time>
      </trkpt>
      <trkpt lat="47.63292" lon="-2.80353">
        <ele>26</ele>
        <time>2025-01-28T08:24:20Z</time>
      </trkpt>
      <trkpt lat="47.63294" lon="-2.80353">
        <ele>26</ele>
        <time>2025-01-28T08:24:21Z</time>
      </trkpt>
      <trkpt lat="47.63295" lon="-2.80353">
        <ele>26</ele>
        <time>2025-01-28T08:24:22Z</time>
      </trkpt>
      <trkpt lat="47.63297" lon="-2.80354">
        <ele>26</ele>
        <time>2025-01-28T08:24:23Z</time>
      </trkpt>
      <trkpt lat="47.63298" lon="-2.80354">
        <ele>26</ele>
        <time>2025-01-28T08:24:24Z</time>
      </trkpt>
      <trkpt lat="47.63299" lon="-2.80355">
        <ele>26</ele>
        <time>2025-01-28T08:24:25Z</time>
      </trkpt>
      <trkpt lat="47.633" lon="-2.80357">
        <ele>26</ele>
        <time>2025-01-28T08:24:26Z</time>
      </trkpt>
      <trkpt lat="47.63302" lon="-2.80358">
        <ele>26</ele>
        <time>2025-01-28T08:24:27Z</time>
      </trkpt>
      <trkpt lat="47.63303" lon="-2.80359">
        <ele>26</ele>
        <time>2025-01-28T08:24:28Z</time>
      </trkpt>
      <trkpt lat="47.63305" lon="-2.80359">
        <ele>26</ele>
        <time>2025-01-28T08:24:29Z</time>
      </trkpt>
      <trkpt lat="47.63306" lon="-2.8036">
        <ele>26</ele>
        <time>2025-01-28T08:24:30Z</time>
      </trkpt>
      <trkpt lat="47.63307" lon="-2.80362">
        <ele>26</ele>
        <time>2025-01-28T08:24:31Z</time>
      </trkpt>
      <trkpt lat="47.63308" lon="-2.80363">
        <ele>26.1</ele>
        <time>2025-01-28T08:24:32Z</time>
      </trkpt>
      <trkpt lat="47.63309" lon="-2.80363">
        <ele>26.2</ele>
        <time>2025-01-28T08:24:33Z</time>
      </trkpt>
      <trkpt lat="47.6331" lon="-2.80364">
        <ele>26.2</ele>
        <time>2025-01-28T08:24:34Z</time>
      </trkpt>
      <trkpt lat="47.63312" lon="-2.80364">
        <ele>26.2</ele>
        <time>2025-01-28T08:24:35Z</time>
      </trkpt>
      <trkpt lat="47.63313" lon="-2.80366">
        <ele>26.3</ele>
        <time>2025-01-28T08:24:36Z</time>
      </trkpt>
      <trkpt lat="47.63314" lon="-2.80366">
        <ele>26.3</ele>
        <time>2025-01-28T08:24:37Z</time>
      </trkpt>
      <trkpt lat="47.63315" lon="-2.80365">
        <ele>26.3</ele>
        <time>2025-01-28T08:24:38Z</time>
      </trkpt>
      <trkpt lat="47.63317" lon="-2.80365">
        <ele>26.2</ele>
        <time>2025-01-28T08:24:39Z</time>
      </trkpt>
      <trkpt lat="47.63318" lon="-2.80365">
        <ele>26.2</ele>
        <time>2025-01-28T08:24:40Z</time>
      </trkpt>
      <trkpt lat="47.63319" lon="-2.80366">
        <ele>26.2</ele>
        <time>2025-01-28T08:24:41Z</time>
      </trkpt>
      <trkpt lat="47.63321" lon="-2.80366">
        <ele>26.3</ele>
        <time>2025-01-28T08:24:42Z</time>
      </trkpt>
      <trkpt lat="47.63322" lon="-2.80367">
        <ele>26.3</ele>
        <time>2025-01-28T08:24:43Z</time>
      </trkpt>
      <trkpt lat="47.63323" lon="-2.80366">
        <ele>26.3</ele>
        <time>2025-01-28T08:24:44Z</time>
      </trkpt>
      <trkpt lat="47.63325" lon="-2.80367">
        <ele>26.3</ele>
        <time>2025-01-28T08:24:45Z</time>
      </trkpt>
      <trkpt lat="47.63326" lon="-2.80367">
        <ele>26.3</ele>
        <time>2025-01-28T08:24:46Z</time>
      </trkpt>
      <trkpt lat="47.63328" lon="-2.80368">
        <ele>26.3</ele>
        <time>2025-01-28T08:24:47Z</time>
      </trkpt>
      <trkpt lat="47.63329" lon="-2.80367">
        <ele>26.3</ele>
        <time>2025-01-28T08:24:48Z</time>
      </trkpt>
      <trkpt lat="47.63331" lon="-2.80367">
        <ele>26.2</ele>
        <time>2025-01-28T08:24:49Z</time>
      </trkpt>
      <trkpt lat="47.63332" lon="-2.80367">
        <ele>26.2</ele>
        <time>2025-01-28T08:24:50Z</time>
      </trkpt>
      <trkpt lat="47.63333" lon="-2.80368">
        <ele>26.2</ele>
        <time>2025-01-28T08:24:51Z</time>
      </trkpt>
      <trkpt lat="47.63332" lon="-2.80367">
        <ele>26.2</ele>
        <time>2025-01-28T08:24:52Z</time>
      </trkpt>
      <trkpt lat="47.63333" lon="-2.80363">
        <ele>26.1</ele>
        <time>2025-01-28T08:24:53Z</time>
      </trkpt>
      <trkpt lat="47.63334" lon="-2.80362">
        <ele>26</ele>
        <time>2025-01-28T08:24:54Z</time>
      </trkpt>
      <trkpt lat="47.63336" lon="-2.80362">
        <ele>26</ele>
        <time>2025-01-28T08:24:55Z</time>
      </trkpt>
      <trkpt lat="47.63337" lon="-2.80363">
        <ele>25.9</ele>
        <time>2025-01-28T08:24:56Z</time>
      </trkpt>
      <trkpt lat="47.63338" lon="-2.80363">
        <ele>25.9</ele>
        <time>2025-01-28T08:24:57Z</time>
      </trkpt>
      <trkpt lat="47.63339" lon="-2.80363">
        <ele>25.8</ele>
        <time>2025-01-28T08:24:58Z</time>
      </trkpt>
      <trkpt lat="47.63341" lon="-2.80363">
        <ele>25.8</ele>
        <time>2025-01-28T08:24:59Z</time>
      </trkpt>
      <trkpt lat="47.63342" lon="-2.80362">
        <ele>25.7</ele>
        <time>2025-01-28T08:25:00Z</time>
      </trkpt>
      <trkpt lat="47.63343" lon="-2.80362">
        <ele>25.7</ele>
        <time>2025-01-28T08:25:01Z</time>
      </trkpt>
      <trkpt lat="47.63344" lon="-2.80362">
        <ele>25.7</ele>
        <time>2025-01-28T08:25:02Z</time>
      </trkpt>
      <trkpt lat="47.63345" lon="-2.80362">
        <ele>25.6</ele>
        <time>2025-01-28T08:25:03Z</time>
      </trkpt>
      <trkpt lat="47.63347" lon="-2.80362">
        <ele>25.6</ele>
        <time>2025-01-28T08:25:04Z</time>
      </trkpt>
      <trkpt lat="47.63348" lon="-2.80362">
        <ele>25.5</ele>
        <time>2025-01-28T08:25:05Z</time>
      </trkpt>
      <trkpt lat="47.63349" lon="-2.80362">
        <ele>25.5</ele>
        <time>2025-01-28T08:25:06Z</time>
      </trkpt>
      <trkpt lat="47.63351" lon="-2.80362">
        <ele>25.4</ele>
        <time>2025-01-28T08:25:07Z</time>
      </trkpt>
      <trkpt lat="47.63352" lon="-2.80362">
        <ele>25.4</ele>
        <time>2025-01-28T08:25:08Z</time>
      </trkpt>
      <trkpt lat="47.63353" lon="-2.80361">
        <ele>25.3</ele>
        <time>2025-01-28T08:25:09Z</time>
      </trkpt>
      <trkpt lat="47.63354" lon="-2.80361">
        <ele>25.3</ele>
        <time>2025-01-28T08:25:10Z</time>
      </trkpt>
      <trkpt lat="47.63355" lon="-2.80361">
        <ele>25.2</ele>
        <time>2025-01-28T08:25:11Z</time>
      </trkpt>
      <trkpt lat="47.63357" lon="-2.80361">
        <ele>25.2</ele>
        <time>2025-01-28T08:25:12Z</time>
      </trkpt>
      <trkpt lat="47.63358" lon="-2.80361">
        <ele>25.1</ele>
        <time>2025-01-28T08:25:13Z</time>
      </trkpt>
      <trkpt lat="47.63359" lon="-2.80361">
        <ele>25.1</ele>
        <time>2025-01-28T08:25:14Z</time>
      </trkpt>
      <trkpt lat="47.6336" lon="-2.8036">
        <ele>25</ele>
        <time>2025-01-28T08:25:15Z</time>
      </trkpt>
      <trkpt lat="47.63361" lon="-2.8036">
        <ele>25</ele>
        <time>2025-01-28T08:25:16Z</time>
      </trkpt>
      <trkpt lat="47.63363" lon="-2.8036">
        <ele>25</ele>
        <time>2025-01-28T08:25:17Z</time>
      </trkpt>
      <trkpt lat="47.63364" lon="-2.80359">
        <ele>25</ele>
        <time>2025-01-28T08:25:18Z</time>
      </trkpt>
      <trkpt lat="47.63365" lon="-2.80359">
        <ele>25</ele>
        <time>2025-01-28T08:25:19Z</time>
      </trkpt>
      <trkpt lat="47.63366" lon="-2.80359">
        <ele>25</ele>
        <time>2025-01-28T08:25:20Z</time>
      </trkpt>
      <trkpt lat="47.63368" lon="-2.80359">
        <ele>25</ele>
        <time>2025-01-28T08:25:21Z</time>
      </trkpt>
      <trkpt lat="47.63369" lon="-2.80359">
        <ele>25</ele>
        <time>2025-01-28T08:25:22Z</time>
      </trkpt>
      <trkpt lat="47.6337" lon="-2.80358">
        <ele>25</ele>
        <time>2025-01-28T08:25:23Z</time>
      </trkpt>
      <trkpt lat="47.63371" lon="-2.80357">
        <ele>25</ele>
        <time>2025-01-28T08:25:24Z</time>
      </trkpt>
      <trkpt lat="47.63372" lon="-2.80357">
        <ele>25</ele>
        <time>2025-01-28T08:25:25Z</time>
      </trkpt>
      <trkpt lat="47.63374" lon="-2.80356">
        <ele>25</ele>
        <time>2025-01-28T08:25:26Z</time>
      </trkpt>
      <trkpt lat="47.63375" lon="-2.80356">
        <ele>25</ele>
        <time>2025-01-28T08:25:27Z</time>
      </trkpt>
      <trkpt lat="47.63376" lon="-2.80356">
        <ele>25</ele>
        <time>2025-01-28T08:25:28Z</time>
      </trkpt>
      <trkpt lat="47.63377" lon="-2.80356">
        <ele>25</ele>
        <time>2025-01-28T08:25:29Z</time>
      </trkpt>
      <trkpt lat="47.63379" lon="-2.80356">
        <ele>25</ele>
        <time>2025-01-28T08:25:30Z</time>
      </trkpt>
      <trkpt lat="47.6338" lon="-2.80356">
        <ele>25</ele>
        <time>2025-01-28T08:25:31Z</time>
      </trkpt>
      <trkpt lat="47.63381" lon="-2.80356">
        <ele>25</ele>
        <time>2025-01-28T08:25:32Z</time>
      </trkpt>
      <trkpt lat="47.63382" lon="-2.80356">
        <ele>25</ele>
        <time>2025-01-28T08:25:33Z</time>
      </trkpt>
      <trkpt lat="47.63383" lon="-2.80355">
        <ele>25</ele>
        <time>2025-01-28T08:25:34Z</time>
      </trkpt>
      <trkpt lat="47.63384" lon="-2.80355">
        <ele>25</ele>
        <time>2025-01-28T08:25:35Z</time>
      </trkpt>
      <trkpt lat="47.63386" lon="-2.80354">
        <ele>25</ele>
        <time>2025-01-28T08:25:36Z</time>
      </trkpt>
      <trkpt lat="47.63387" lon="-2.80354">
        <ele>25</ele>
        <time>2025-01-28T08:25:37Z</time>
      </trkpt>
      <trkpt lat="47.63388" lon="-2.80354">
        <ele>25</ele>
        <time>2025-01-28T08:25:38Z</time>
      </trkpt>
      <trkpt lat="47.63389" lon="-2.80354">
        <ele>25</ele>
        <time>2025-01-28T08:25:39Z</time>
      </trkpt>
      <trkpt lat="47.6339" lon="-2.80354">
        <ele>25.1</ele>
        <time>2025-01-28T08:25:40Z</time>
      </trkpt>
      <trkpt lat="47.63391" lon="-2.80354">
        <ele>25.2</ele>
        <time>2025-01-28T08:25:41Z</time>
      </trkpt>
      <trkpt lat="47.63393" lon="-2.80354">
        <ele>25.3</ele>
        <time>2025-01-28T08:25:42Z</time>
      </trkpt>
      <trkpt lat="47.63394" lon="-2.80354">
        <ele>25.4</ele>
        <time>2025-01-28T08:25:43Z</time>
      </trkpt>
      <trkpt lat="47.63395" lon="-2.80354">
        <ele>25.4</ele>
        <time>2025-01-28T08:25:44Z</time>
      </trkpt>
      <trkpt lat="47.63396" lon="-2.80354">
        <ele>25.5</ele>
        <time>2025-01-28T08:25:45Z</time>
      </trkpt>
      <trkpt lat="47.63397" lon="-2.80354">
        <ele>25.6</ele>
        <time>2025-01-28T08:25:46Z</time>
      </trkpt>
      <trkpt lat="47.63398" lon="-2.80354">
        <ele>25.7</ele>
        <time>2025-01-28T08:25:47Z</time>
      </trkpt>
      <trkpt lat="47.634" lon="-2.80353">
        <ele>25.8</ele>
        <time>2025-01-28T08:25:48Z</time>
      </trkpt>
      <trkpt lat="47.63401" lon="-2.80352">
        <ele>25.9</ele>
        <time>2025-01-28T08:25:49Z</time>
      </trkpt>
      <trkpt lat="47.63402" lon="-2.80351">
        <ele>25.9</ele>
        <time>2025-01-28T08:25:50Z</time>
      </trkpt>
      <trkpt lat="47.63403" lon="-2.80351">
        <ele>26</ele>
        <time>2025-01-28T08:25:51Z</time>
      </trkpt>
      <trkpt lat="47.63404" lon="-2.8035">
        <ele>26.1</ele>
        <time>2025-01-28T08:25:52Z</time>
      </trkpt>
      <trkpt lat="47.63405" lon="-2.8035">
        <ele>26.2</ele>
        <time>2025-01-28T08:25:53Z</time>
      </trkpt>
      <trkpt lat="47.63406" lon="-2.8035">
        <ele>26.2</ele>
        <time>2025-01-28T08:25:54Z</time>
      </trkpt>
      <trkpt lat="47.63407" lon="-2.8035">
        <ele>26.3</ele>
        <time>2025-01-28T08:25:55Z</time>
      </trkpt>
      <trkpt lat="47.63409" lon="-2.80349">
        <ele>26.4</ele>
        <time>2025-01-28T08:25:56Z</time>
      </trkpt>
      <trkpt lat="47.6341" lon="-2.80348">
        <ele>26.5</ele>
        <time>2025-01-28T08:25:57Z</time>
      </trkpt>
      <trkpt lat="47.63411" lon="-2.80348">
        <ele>26.6</ele>
        <time>2025-01-28T08:25:58Z</time>
      </trkpt>
      <trkpt lat="47.63412" lon="-2.80347">
        <ele>26.7</ele>
        <time>2025-01-28T08:25:59Z</time>
      </trkpt>
      <trkpt lat="47.63413" lon="-2.80347">
        <ele>26.8</ele>
        <time>2025-01-28T08:26:00Z</time>
      </trkpt>
      <trkpt lat="47.63415" lon="-2.80347">
        <ele>26.8</ele>
        <time>2025-01-28T08:26:01Z</time>
      </trkpt>
      <trkpt lat="47.63416" lon="-2.80347">
        <ele>26.9</ele>
        <time>2025-01-28T08:26:02Z</time>
      </trkpt>
      <trkpt lat="47.63417" lon="-2.80347">
        <ele>27</ele>
        <time>2025-01-28T08:26:03Z</time>
      </trkpt>
      <trkpt lat="47.63418" lon="-2.80346">
        <ele>27.1</ele>
        <time>2025-01-28T08:26:04Z</time>
      </trkpt>
      <trkpt lat="47.63419" lon="-2.80346">
        <ele>27.1</ele>
        <time>2025-01-28T08:26:05Z</time>
      </trkpt>
      <trkpt lat="47.63421" lon="-2.80345">
        <ele>27.1</ele>
        <time>2025-01-28T08:26:06Z</time>
      </trkpt>
      <trkpt lat="47.63422" lon="-2.80345">
        <ele>27.2</ele>
        <time>2025-01-28T08:26:07Z</time>
      </trkpt>
      <trkpt lat="47.63423" lon="-2.80344">
        <ele>27.2</ele>
        <time>2025-01-28T08:26:08Z</time>
      </trkpt>
      <trkpt lat="47.63424" lon="-2.80344">
        <ele>27.3</ele>
        <time>2025-01-28T08:26:09Z</time>
      </trkpt>
      <trkpt lat="47.63425" lon="-2.80344">
        <ele>27.3</ele>
        <time>2025-01-28T08:26:10Z</time>
      </trkpt>
      <trkpt lat="47.63425" lon="-2.80345">
        <ele>27.3</ele>
        <time>2025-01-28T08:26:11Z</time>
      </trkpt>
      <trkpt lat="47.63425" lon="-2.80345">
        <ele>27.3</ele>
        <time>2025-01-28T08:26:12Z</time>
      </trkpt>
      <trkpt lat="47.63425" lon="-2.80345">
        <ele>27.3</ele>
        <time>2025-01-28T08:26:13Z</time>
      </trkpt>
      <trkpt lat="47.63425" lon="-2.80345">
        <ele>27.3</ele>
        <time>2025-01-28T08:26:14Z</time>
      </trkpt>
      <trkpt lat="47.63425" lon="-2.80345">
        <ele>27.3</ele>
        <time>2025-01-28T08:26:15Z</time>
      </trkpt>
      <trkpt lat="47.63425" lon="-2.80345">
        <ele>27.3</ele>
        <time>2025-01-28T08:26:16Z</time>
      </trkpt>
      <trkpt lat="47.63425" lon="-2.80345">
        <ele>27.3</ele>
        <time>2025-01-28T08:26:17Z</time>
      </trkpt>
      <trkpt lat="47.63425" lon="-2.80345">
        <ele>27.3</ele>
        <time>2025-01-28T08:26:18Z</time>
      </trkpt>
      <trkpt lat="47.63425" lon="-2.80345">
        <ele>27.3</ele>
        <time>2025-01-28T08:26:19Z</time>
      </trkpt>
      <trkpt lat="47.63425" lon="-2.80345">
        <ele>27.3</ele>
        <time>2025-01-28T08:26:20Z</time>
      </trkpt>
      <trkpt lat="47.63425" lon="-2.80345">
        <ele>27.3</ele>
        <time>2025-01-28T08:26:21Z</time>
      </trkpt>
      <trkpt lat="47.63425" lon="-2.80345">
        <ele>27.3</ele>
        <time>2025-01-28T08:26:22Z</time>
      </trkpt>
      <trkpt lat="47.63425" lon="-2.80345">
        <ele>27.3</ele>
        <time>2025-01-28T08:26:23Z</time>
      </trkpt>
      <trkpt lat="47.63426" lon="-2.80344">
        <ele>27.4</ele>
        <time>2025-01-28T08:26:24Z</time>
      </trkpt>
      <trkpt lat="47.63428" lon="-2.80344">
        <ele>27.4</ele>
        <time>2025-01-28T08:26:25Z</time>
      </trkpt>
      <trkpt lat="47.63429" lon="-2.80344">
        <ele>27.4</ele>
        <time>2025-01-28T08:26:26Z</time>
      </trkpt>
      <trkpt lat="47.6343" lon="-2.80344">
        <ele>27.5</ele>
        <time>2025-01-28T08:26:27Z</time>
      </trkpt>
      <trkpt lat="47.63431" lon="-2.80343">
        <ele>27.5</ele>
        <time>2025-01-28T08:26:28Z</time>
      </trkpt>
      <trkpt lat="47.63432" lon="-2.80343">
        <ele>27.6</ele>
        <time>2025-01-28T08:26:29Z</time>
      </trkpt>
      <trkpt lat="47.63433" lon="-2.80343">
        <ele>27.6</ele>
        <time>2025-01-28T08:26:30Z</time>
      </trkpt>
      <trkpt lat="47.63435" lon="-2.80343">
        <ele>27.6</ele>
        <time>2025-01-28T08:26:31Z</time>
      </trkpt>
      <trkpt lat="47.63436" lon="-2.80343">
        <ele>27.7</ele>
        <time>2025-01-28T08:26:32Z</time>
      </trkpt>
      <trkpt lat="47.63437" lon="-2.80342">
        <ele>27.7</ele>
        <time>2025-01-28T08:26:33Z</time>
      </trkpt>
      <trkpt lat="47.63438" lon="-2.80342">
        <ele>27.8</ele>
        <time>2025-01-28T08:26:34Z</time>
      </trkpt>
      <trkpt lat="47.63439" lon="-2.80341">
        <ele>27.8</ele>
        <time>2025-01-28T08:26:35Z</time>
      </trkpt>
      <trkpt lat="47.6344" lon="-2.80341">
        <ele>27.9</ele>
        <time>2025-01-28T08:26:36Z</time>
      </trkpt>
      <trkpt lat="47.63442" lon="-2.8034">
        <ele>27.9</ele>
        <time>2025-01-28T08:26:37Z</time>
      </trkpt>
      <trkpt lat="47.63443" lon="-2.80339">
        <ele>27.9</ele>
        <time>2025-01-28T08:26:38Z</time>
      </trkpt>
      <trkpt lat="47.63444" lon="-2.80339">
        <ele>28</ele>
        <time>2025-01-28T08:26:39Z</time>
      </trkpt>
      <trkpt lat="47.63445" lon="-2.80339">
        <ele>28</ele>
        <time>2025-01-28T08:26:40Z</time>
      </trkpt>
      <trkpt lat="47.63446" lon="-2.80338">
        <ele>28.1</ele>
        <time>2025-01-28T08:26:41Z</time>
      </trkpt>
      <trkpt lat="47.63447" lon="-2.80338">
        <ele>28.1</ele>
        <time>2025-01-28T08:26:42Z</time>
      </trkpt>
      <trkpt lat="47.63448" lon="-2.80337">
        <ele>28.1</ele>
        <time>2025-01-28T08:26:43Z</time>
      </trkpt>
      <trkpt lat="47.6345" lon="-2.80337">
        <ele>28.2</ele>
        <time>2025-01-28T08:26:44Z</time>
      </trkpt>
      <trkpt lat="47.63451" lon="-2.80337">
        <ele>28.2</ele>
        <time>2025-01-28T08:26:45Z</time>
      </trkpt>
      <trkpt lat="47.63452" lon="-2.80336">
        <ele>28.3</ele>
        <time>2025-01-28T08:26:46Z</time>
      </trkpt>
      <trkpt lat="47.63453" lon="-2.80336">
        <ele>28.3</ele>
        <time>2025-01-28T08:26:47Z</time>
      </trkpt>
      <trkpt lat="47.63454" lon="-2.80335">
        <ele>28.3</ele>
        <time>2025-01-28T08:26:48Z</time>
      </trkpt>
      <trkpt lat="47.63457" lon="-2.80334">
        <ele>28.4</ele>
        <time>2025-01-28T08:26:49Z</time>
      </trkpt>
      <trkpt lat="47.63458" lon="-2.80335">
        <ele>28.5</ele>
        <time>2025-01-28T08:26:50Z</time>
      </trkpt>
      <trkpt lat="47.6346" lon="-2.80336">
        <ele>28.5</ele>
        <time>2025-01-28T08:26:51Z</time>
      </trkpt>
      <trkpt lat="47.63461" lon="-2.80335">
        <ele>28.6</ele>
        <time>2025-01-28T08:26:52Z</time>
      </trkpt>
      <trkpt lat="47.63461" lon="-2.80334">
        <ele>28.6</ele>
        <time>2025-01-28T08:26:53Z</time>
      </trkpt>
      <trkpt lat="47.63462" lon="-2.80334">
        <ele>28.6</ele>
        <time>2025-01-28T08:26:54Z</time>
      </trkpt>
      <trkpt lat="47.63464" lon="-2.80334">
        <ele>28.7</ele>
        <time>2025-01-28T08:26:55Z</time>
      </trkpt>
      <trkpt lat="47.63465" lon="-2.80333">
        <ele>28.7</ele>
        <time>2025-01-28T08:26:56Z</time>
      </trkpt>
      <trkpt lat="47.63466" lon="-2.80332">
        <ele>28.7</ele>
        <time>2025-01-28T08:26:57Z</time>
      </trkpt>
      <trkpt lat="47.63467" lon="-2.80332">
        <ele>28.8</ele>
        <time>2025-01-28T08:26:58Z</time>
      </trkpt>
      <trkpt lat="47.63468" lon="-2.80331">
        <ele>28.8</ele>
        <time>2025-01-28T08:26:59Z</time>
      </trkpt>
      <trkpt lat="47.63469" lon="-2.80329">
        <ele>28.8</ele>
        <time>2025-01-28T08:27:00Z</time>
      </trkpt>
      <trkpt lat="47.6347" lon="-2.80328">
        <ele>28.8</ele>
        <time>2025-01-28T08:27:01Z</time>
      </trkpt>
      <trkpt lat="47.63471" lon="-2.80328">
        <ele>28.8</ele>
        <time>2025-01-28T08:27:02Z</time>
      </trkpt>
      <trkpt lat="47.63472" lon="-2.80327">
        <ele>28.8</ele>
        <time>2025-01-28T08:27:03Z</time>
      </trkpt>
      <trkpt lat="47.63473" lon="-2.80327">
        <ele>28.8</ele>
        <time>2025-01-28T08:27:04Z</time>
      </trkpt>
      <trkpt lat="47.63474" lon="-2.80326">
        <ele>28.8</ele>
        <time>2025-01-28T08:27:05Z</time>
      </trkpt>
      <trkpt lat="47.63475" lon="-2.80326">
        <ele>28.8</ele>
        <time>2025-01-28T08:27:06Z</time>
      </trkpt>
      <trkpt lat="47.63476" lon="-2.80326">
        <ele>28.8</ele>
        <time>2025-01-28T08:27:07Z</time>
      </trkpt>
      <trkpt lat="47.63477" lon="-2.80325">
        <ele>28.8</ele>
        <time>2025-01-28T08:27:08Z</time>
      </trkpt>
      <trkpt lat="47.63478" lon="-2.80325">
        <ele>28.8</ele>
        <time>2025-01-28T08:27:09Z</time>
      </trkpt>
      <trkpt lat="47.63479" lon="-2.80324">
        <ele>28.8</ele>
        <time>2025-01-28T08:27:10Z</time>
      </trkpt>
      <trkpt lat="47.6348" lon="-2.80323">
        <ele>28.7</ele>
        <time>2025-01-28T08:27:11Z</time>
      </trkpt>
      <trkpt lat="47.63481" lon="-2.80322">
        <ele>28.7</ele>
        <time>2025-01-28T08:27:12Z</time>
      </trkpt>
      <trkpt lat="47.63483" lon="-2.80321">
        <ele>28.7</ele>
        <time>2025-01-28T08:27:13Z</time>
      </trkpt>
      <trkpt lat="47.63484" lon="-2.80321">
        <ele>28.7</ele>
        <time>2025-01-28T08:27:14Z</time>
      </trkpt>
      <trkpt lat="47.63485" lon="-2.8032">
        <ele>28.8</ele>
        <time>2025-01-28T08:27:15Z</time>
      </trkpt>
      <trkpt lat="47.63487" lon="-2.80319">
        <ele>28.8</ele>
        <time>2025-01-28T08:27:16Z</time>
      </trkpt>
      <trkpt lat="47.63488" lon="-2.80319">
        <ele>28.8</ele>
        <time>2025-01-28T08:27:17Z</time>
      </trkpt>
      <trkpt lat="47.63489" lon="-2.80318">
        <ele>28.8</ele>
        <time>2025-01-28T08:27:18Z</time>
      </trkpt>
      <trkpt lat="47.63491" lon="-2.80318">
        <ele>28.8</ele>
        <time>2025-01-28T08:27:19Z</time>
      </trkpt>
      <trkpt lat="47.63492" lon="-2.80317">
        <ele>28.8</ele>
        <time>2025-01-28T08:27:20Z</time>
      </trkpt>
      <trkpt lat="47.63492" lon="-2.80315">
        <ele>28.8</ele>
        <time>2025-01-28T08:27:21Z</time>
      </trkpt>
      <trkpt lat="47.63493" lon="-2.80314">
        <ele>28.8</ele>
        <time>2025-01-28T08:27:22Z</time>
      </trkpt>
      <trkpt lat="47.63494" lon="-2.80313">
        <ele>28.8</ele>
        <time>2025-01-28T08:27:23Z</time>
      </trkpt>
      <trkpt lat="47.63496" lon="-2.80312">
        <ele>28.9</ele>
        <time>2025-01-28T08:27:24Z</time>
      </trkpt>
      <trkpt lat="47.63497" lon="-2.80311">
        <ele>28.9</ele>
        <time>2025-01-28T08:27:25Z</time>
      </trkpt>
      <trkpt lat="47.63498" lon="-2.8031">
        <ele>28.9</ele>
        <time>2025-01-28T08:27:26Z</time>
      </trkpt>
      <trkpt lat="47.635" lon="-2.80309">
        <ele>29</ele>
        <time>2025-01-28T08:27:27Z</time>
      </trkpt>
      <trkpt lat="47.63501" lon="-2.80308">
        <ele>29</ele>
        <time>2025-01-28T08:27:28Z</time>
      </trkpt>
      <trkpt lat="47.63502" lon="-2.80307">
        <ele>29</ele>
        <time>2025-01-28T08:27:29Z</time>
      </trkpt>
      <trkpt lat="47.63504" lon="-2.80306">
        <ele>29</ele>
        <time>2025-01-28T08:27:30Z</time>
      </trkpt>
      <trkpt lat="47.63505" lon="-2.80305">
        <ele>29</ele>
        <time>2025-01-28T08:27:31Z</time>
      </trkpt>
      <trkpt lat="47.63506" lon="-2.80304">
        <ele>28.9</ele>
        <time>2025-01-28T08:27:32Z</time>
      </trkpt>
      <trkpt lat="47.63507" lon="-2.80303">
        <ele>28.9</ele>
        <time>2025-01-28T08:27:33Z</time>
      </trkpt>
      <trkpt lat="47.63508" lon="-2.80302">
        <ele>28.9</ele>
        <time>2025-01-28T08:27:34Z</time>
      </trkpt>
      <trkpt lat="47.63509" lon="-2.80301">
        <ele>28.9</ele>
        <time>2025-01-28T08:27:35Z</time>
      </trkpt>
      <trkpt lat="47.6351" lon="-2.803">
        <ele>28.8</ele>
        <time>2025-01-28T08:27:36Z</time>
      </trkpt>
      <trkpt lat="47.63511" lon="-2.80299">
        <ele>28.8</ele>
        <time>2025-01-28T08:27:37Z</time>
      </trkpt>
      <trkpt lat="47.63512" lon="-2.80298">
        <ele>28.7</ele>
        <time>2025-01-28T08:27:38Z</time>
      </trkpt>
      <trkpt lat="47.63513" lon="-2.80297">
        <ele>28.7</ele>
        <time>2025-01-28T08:27:39Z</time>
      </trkpt>
      <trkpt lat="47.63514" lon="-2.80296">
        <ele>28.6</ele>
        <time>2025-01-28T08:27:40Z</time>
      </trkpt>
      <trkpt lat="47.63516" lon="-2.80295">
        <ele>28.6</ele>
        <time>2025-01-28T08:27:41Z</time>
      </trkpt>
      <trkpt lat="47.63517" lon="-2.80294">
        <ele>28.6</ele>
        <time>2025-01-28T08:27:42Z</time>
      </trkpt>
      <trkpt lat="47.63518" lon="-2.80293">
        <ele>28.5</ele>
        <time>2025-01-28T08:27:43Z</time>
      </trkpt>
      <trkpt lat="47.63519" lon="-2.80291">
        <ele>28.5</ele>
        <time>2025-01-28T08:27:44Z</time>
      </trkpt>
      <trkpt lat="47.6352" lon="-2.8029">
        <ele>28.5</ele>
        <time>2025-01-28T08:27:45Z</time>
      </trkpt>
      <trkpt lat="47.63521" lon="-2.80289">
        <ele>28.4</ele>
        <time>2025-01-28T08:27:46Z</time>
      </trkpt>
      <trkpt lat="47.63522" lon="-2.80287">
        <ele>28.3</ele>
        <time>2025-01-28T08:27:47Z</time>
      </trkpt>
      <trkpt lat="47.63522" lon="-2.80286">
        <ele>28.3</ele>
        <time>2025-01-28T08:27:48Z</time>
      </trkpt>
      <trkpt lat="47.63523" lon="-2.80285">
        <ele>28.3</ele>
        <time>2025-01-28T08:27:49Z</time>
      </trkpt>
      <trkpt lat="47.63524" lon="-2.80284">
        <ele>28.2</ele>
        <time>2025-01-28T08:27:50Z</time>
      </trkpt>
      <trkpt lat="47.63525" lon="-2.80282">
        <ele>28.2</ele>
        <time>2025-01-28T08:27:51Z</time>
      </trkpt>
      <trkpt lat="47.63526" lon="-2.80281">
        <ele>28.1</ele>
        <time>2025-01-28T08:27:52Z</time>
      </trkpt>
      <trkpt lat="47.63528" lon="-2.80281">
        <ele>28.1</ele>
        <time>2025-01-28T08:27:53Z</time>
      </trkpt>
      <trkpt lat="47.63529" lon="-2.8028">
        <ele>28.1</ele>
        <time>2025-01-28T08:27:54Z</time>
      </trkpt>
      <trkpt lat="47.6353" lon="-2.80279">
        <ele>28</ele>
        <time>2025-01-28T08:27:55Z</time>
      </trkpt>
      <trkpt lat="47.63531" lon="-2.80277">
        <ele>28</ele>
        <time>2025-01-28T08:27:56Z</time>
      </trkpt>
      <trkpt lat="47.63531" lon="-2.80276">
        <ele>28</ele>
        <time>2025-01-28T08:27:57Z</time>
      </trkpt>
      <trkpt lat="47.63532" lon="-2.80275">
        <ele>28</ele>
        <time>2025-01-28T08:27:58Z</time>
      </trkpt>
      <trkpt lat="47.63533" lon="-2.80274">
        <ele>28</ele>
        <time>2025-01-28T08:27:59Z</time>
      </trkpt>
      <trkpt lat="47.63534" lon="-2.80272">
        <ele>28</ele>
        <time>2025-01-28T08:28:00Z</time>
      </trkpt>
      <trkpt lat="47.63535" lon="-2.8027">
        <ele>28</ele>
        <time>2025-01-28T08:28:01Z</time>
      </trkpt>
      <trkpt lat="47.63536" lon="-2.80268">
        <ele>28</ele>
        <time>2025-01-28T08:28:02Z</time>
      </trkpt>
      <trkpt lat="47.63536" lon="-2.80267">
        <ele>28</ele>
        <time>2025-01-28T08:28:03Z</time>
      </trkpt>
      <trkpt lat="47.63537" lon="-2.80265">
        <ele>28</ele>
        <time>2025-01-28T08:28:04Z</time>
      </trkpt>
      <trkpt lat="47.63537" lon="-2.80263">
        <ele>28</ele>
        <time>2025-01-28T08:28:05Z</time>
      </trkpt>
      <trkpt lat="47.63538" lon="-2.80261">
        <ele>28</ele>
        <time>2025-01-28T08:28:06Z</time>
      </trkpt>
      <trkpt lat="47.63538" lon="-2.80259">
        <ele>28</ele>
        <time>2025-01-28T08:28:07Z</time>
      </trkpt>
      <trkpt lat="47.63539" lon="-2.80258">
        <ele>28</ele>
        <time>2025-01-28T08:28:08Z</time>
      </trkpt>
      <trkpt lat="47.63541" lon="-2.80256">
        <ele>28</ele>
        <time>2025-01-28T08:28:09Z</time>
      </trkpt>
      <trkpt lat="47.63542" lon="-2.80254">
        <ele>28</ele>
        <time>2025-01-28T08:28:10Z</time>
      </trkpt>
      <trkpt lat="47.63542" lon="-2.80253">
        <ele>28</ele>
        <time>2025-01-28T08:28:11Z</time>
      </trkpt>
      <trkpt lat="47.63543" lon="-2.80251">
        <ele>28</ele>
        <time>2025-01-28T08:28:12Z</time>
      </trkpt>
      <trkpt lat="47.63543" lon="-2.80249">
        <ele>28</ele>
        <time>2025-01-28T08:28:13Z</time>
      </trkpt>
      <trkpt lat="47.63544" lon="-2.80247">
        <ele>28</ele>
        <time>2025-01-28T08:28:14Z</time>
      </trkpt>
      <trkpt lat="47.63545" lon="-2.80246">
        <ele>27.9</ele>
        <time>2025-01-28T08:28:15Z</time>
      </trkpt>
      <trkpt lat="47.63546" lon="-2.80245">
        <ele>27.9</ele>
        <time>2025-01-28T08:28:16Z</time>
      </trkpt>
      <trkpt lat="47.63546" lon="-2.80243">
        <ele>27.9</ele>
        <time>2025-01-28T08:28:17Z</time>
      </trkpt>
      <trkpt lat="47.63547" lon="-2.80241">
        <ele>27.9</ele>
        <time>2025-01-28T08:28:18Z</time>
      </trkpt>
      <trkpt lat="47.63547" lon="-2.8024">
        <ele>27.9</ele>
        <time>2025-01-28T08:28:19Z</time>
      </trkpt>
      <trkpt lat="47.63548" lon="-2.80238">
        <ele>27.9</ele>
        <time>2025-01-28T08:28:20Z</time>
      </trkpt>
      <trkpt lat="47.63549" lon="-2.80237">
        <ele>27.9</ele>
        <time>2025-01-28T08:28:21Z</time>
      </trkpt>
      <trkpt lat="47.6355" lon="-2.80235">
        <ele>27.9</ele>
        <time>2025-01-28T08:28:22Z</time>
      </trkpt>
      <trkpt lat="47.6355" lon="-2.80234">
        <ele>27.9</ele>
        <time>2025-01-28T08:28:23Z</time>
      </trkpt>
      <trkpt lat="47.63551" lon="-2.80232">
        <ele>27.9</ele>
        <time>2025-01-28T08:28:24Z</time>
      </trkpt>
      <trkpt lat="47.63551" lon="-2.8023">
        <ele>27.9</ele>
        <time>2025-01-28T08:28:25Z</time>
      </trkpt>
      <trkpt lat="47.63552" lon="-2.80229">
        <ele>27.9</ele>
        <time>2025-01-28T08:28:26Z</time>
      </trkpt>
      <trkpt lat="47.63552" lon="-2.80227">
        <ele>27.9</ele>
        <time>2025-01-28T08:28:27Z</time>
      </trkpt>
      <trkpt lat="47.63553" lon="-2.80226">
        <ele>27.9</ele>
        <time>2025-01-28T08:28:28Z</time>
      </trkpt>
      <trkpt lat="47.63555" lon="-2.80225">
        <ele>28</ele>
        <time>2025-01-28T08:28:29Z</time>
      </trkpt>
      <trkpt lat="47.63556" lon="-2.80223">
        <ele>28</ele>
        <time>2025-01-28T08:28:30Z</time>
      </trkpt>
      <trkpt lat="47.63557" lon="-2.80222">
        <ele>28</ele>
        <time>2025-01-28T08:28:31Z</time>
      </trkpt>
      <trkpt lat="47.63557" lon="-2.8022">
        <ele>27.9</ele>
        <time>2025-01-28T08:28:32Z</time>
      </trkpt>
      <trkpt lat="47.63558" lon="-2.80219">
        <ele>27.9</ele>
        <time>2025-01-28T08:28:33Z</time>
      </trkpt>
      <trkpt lat="47.63558" lon="-2.80217">
        <ele>27.8</ele>
        <time>2025-01-28T08:28:34Z</time>
      </trkpt>
      <trkpt lat="47.63558" lon="-2.80215">
        <ele>27.7</ele>
        <time>2025-01-28T08:28:35Z</time>
      </trkpt>
      <trkpt lat="47.63559" lon="-2.80214">
        <ele>27.7</ele>
        <time>2025-01-28T08:28:36Z</time>
      </trkpt>
      <trkpt lat="47.6356" lon="-2.80212">
        <ele>27.6</ele>
        <time>2025-01-28T08:28:37Z</time>
      </trkpt>
      <trkpt lat="47.6356" lon="-2.8021">
        <ele>27.6</ele>
        <time>2025-01-28T08:28:38Z</time>
      </trkpt>
      <trkpt lat="47.63561" lon="-2.80208">
        <ele>27.5</ele>
        <time>2025-01-28T08:28:39Z</time>
      </trkpt>
      <trkpt lat="47.63561" lon="-2.80207">
        <ele>27.4</ele>
        <time>2025-01-28T08:28:40Z</time>
      </trkpt>
      <trkpt lat="47.63562" lon="-2.80204">
        <ele>27.4</ele>
        <time>2025-01-28T08:28:41Z</time>
      </trkpt>
      <trkpt lat="47.63562" lon="-2.80202">
        <ele>27.3</ele>
        <time>2025-01-28T08:28:42Z</time>
      </trkpt>
      <trkpt lat="47.63563" lon="-2.80201">
        <ele>27.2</ele>
        <time>2025-01-28T08:28:43Z</time>
      </trkpt>
      <trkpt lat="47.63564" lon="-2.80199">
        <ele>27.2</ele>
        <time>2025-01-28T08:28:44Z</time>
      </trkpt>
      <trkpt lat="47.63565" lon="-2.80198">
        <ele>27.1</ele>
        <time>2025-01-28T08:28:45Z</time>
      </trkpt>
      <trkpt lat="47.63566" lon="-2.80197">
        <ele>27.1</ele>
        <time>2025-01-28T08:28:46Z</time>
      </trkpt>
      <trkpt lat="47.63567" lon="-2.80196">
        <ele>27</ele>
        <time>2025-01-28T08:28:47Z</time>
      </trkpt>
      <trkpt lat="47.63569" lon="-2.80196">
        <ele>27</ele>
        <time>2025-01-28T08:28:48Z</time>
      </trkpt>
      <trkpt lat="47.6357" lon="-2.80196">
        <ele>27</ele>
        <time>2025-01-28T08:28:49Z</time>
      </trkpt>
      <trkpt lat="47.63572" lon="-2.80196">
        <ele>27.1</ele>
        <time>2025-01-28T08:28:50Z</time>
      </trkpt>
      <trkpt lat="47.63573" lon="-2.80196">
        <ele>27.1</ele>
        <time>2025-01-28T08:28:51Z</time>
      </trkpt>
      <trkpt lat="47.63574" lon="-2.80197">
        <ele>27.1</ele>
        <time>2025-01-28T08:28:52Z</time>
      </trkpt>
      <trkpt lat="47.63576" lon="-2.80198">
        <ele>27.1</ele>
        <time>2025-01-28T08:28:53Z</time>
      </trkpt>
      <trkpt lat="47.63577" lon="-2.802">
        <ele>27.2</ele>
        <time>2025-01-28T08:28:54Z</time>
      </trkpt>
      <trkpt lat="47.63578" lon="-2.80201">
        <ele>27.2</ele>
        <time>2025-01-28T08:28:55Z</time>
      </trkpt>
      <trkpt lat="47.6358" lon="-2.80202">
        <ele>27.3</ele>
        <time>2025-01-28T08:28:56Z</time>
      </trkpt>
      <trkpt lat="47.63581" lon="-2.80204">
        <ele>27.3</ele>
        <time>2025-01-28T08:28:57Z</time>
      </trkpt>
      <trkpt lat="47.63582" lon="-2.80205">
        <ele>27.4</ele>
        <time>2025-01-28T08:28:58Z</time>
      </trkpt>
      <trkpt lat="47.63583" lon="-2.80207">
        <ele>27.4</ele>
        <time>2025-01-28T08:28:59Z</time>
      </trkpt>
      <trkpt lat="47.63583" lon="-2.80209">
        <ele>27.5</ele>
        <time>2025-01-28T08:29:00Z</time>
      </trkpt>
      <trkpt lat="47.63584" lon="-2.80211">
        <ele>27.6</ele>
        <time>2025-01-28T08:29:01Z</time>
      </trkpt>
      <trkpt lat="47.63585" lon="-2.80213">
        <ele>27.7</ele>
        <time>2025-01-28T08:29:02Z</time>
      </trkpt>
      <trkpt lat="47.63586" lon="-2.80214">
        <ele>27.7</ele>
        <time>2025-01-28T08:29:03Z</time>
      </trkpt>
      <trkpt lat="47.63587" lon="-2.80215">
        <ele>27.8</ele>
        <time>2025-01-28T08:29:04Z</time>
      </trkpt>
      <trkpt lat="47.63588" lon="-2.80216">
        <ele>27.8</ele>
        <time>2025-01-28T08:29:05Z</time>
      </trkpt>
      <trkpt lat="47.6359" lon="-2.80217">
        <ele>27.9</ele>
        <time>2025-01-28T08:29:06Z</time>
      </trkpt>
      <trkpt lat="47.6359" lon="-2.80219">
        <ele>27.9</ele>
        <time>2025-01-28T08:29:07Z</time>
      </trkpt>
      <trkpt lat="47.63591" lon="-2.80221">
        <ele>28</ele>
        <time>2025-01-28T08:29:08Z</time>
      </trkpt>
      <trkpt lat="47.63592" lon="-2.80222">
        <ele>28</ele>
        <time>2025-01-28T08:29:09Z</time>
      </trkpt>
      <trkpt lat="47.63593" lon="-2.80224">
        <ele>28</ele>
        <time>2025-01-28T08:29:10Z</time>
      </trkpt>
      <trkpt lat="47.63593" lon="-2.80226">
        <ele>28</ele>
        <time>2025-01-28T08:29:11Z</time>
      </trkpt>
      <trkpt lat="47.63594" lon="-2.80227">
        <ele>28.1</ele>
        <time>2025-01-28T08:29:12Z</time>
      </trkpt>
      <trkpt lat="47.63595" lon="-2.80229">
        <ele>28.1</ele>
        <time>2025-01-28T08:29:13Z</time>
      </trkpt>
      <trkpt lat="47.63596" lon="-2.8023">
        <ele>28.1</ele>
        <time>2025-01-28T08:29:14Z</time>
      </trkpt>
      <trkpt lat="47.63597" lon="-2.80231">
        <ele>28.2</ele>
        <time>2025-01-28T08:29:15Z</time>
      </trkpt>
      <trkpt lat="47.63598" lon="-2.80233">
        <ele>28.2</ele>
        <time>2025-01-28T08:29:16Z</time>
      </trkpt>
      <trkpt lat="47.63599" lon="-2.80234">
        <ele>28.2</ele>
        <time>2025-01-28T08:29:17Z</time>
      </trkpt>
      <trkpt lat="47.63601" lon="-2.80235">
        <ele>28.3</ele>
        <time>2025-01-28T08:29:18Z</time>
      </trkpt>
      <trkpt lat="47.63602" lon="-2.80236">
        <ele>28.3</ele>
        <time>2025-01-28T08:29:19Z</time>
      </trkpt>
      <trkpt lat="47.63603" lon="-2.80236">
        <ele>28.4</ele>
        <time>2025-01-28T08:29:20Z</time>
      </trkpt>
      <trkpt lat="47.63604" lon="-2.80237">
        <ele>28.4</ele>
        <time>2025-01-28T08:29:21Z</time>
      </trkpt>
      <trkpt lat="47.63605" lon="-2.80238">
        <ele>28.4</ele>
        <time>2025-01-28T08:29:22Z</time>
      </trkpt>
      <trkpt lat="47.63607" lon="-2.80239">
        <ele>28.5</ele>
        <time>2025-01-28T08:29:23Z</time>
      </trkpt>
      <trkpt lat="47.63608" lon="-2.80239">
        <ele>28.5</ele>
        <time>2025-01-28T08:29:24Z</time>
      </trkpt>
      <trkpt lat="47.63609" lon="-2.80239">
        <ele>28.6</ele>
        <time>2025-01-28T08:29:25Z</time>
      </trkpt>
      <trkpt lat="47.63611" lon="-2.80239">
        <ele>28.6</ele>
        <time>2025-01-28T08:29:26Z</time>
      </trkpt>
      <trkpt lat="47.63612" lon="-2.8024">
        <ele>28.6</ele>
        <time>2025-01-28T08:29:27Z</time>
      </trkpt>
      <trkpt lat="47.63613" lon="-2.8024">
        <ele>28.7</ele>
        <time>2025-01-28T08:29:28Z</time>
      </trkpt>
      <trkpt lat="47.63615" lon="-2.8024">
        <ele>28.7</ele>
        <time>2025-01-28T08:29:29Z</time>
      </trkpt>
      <trkpt lat="47.63617" lon="-2.8024">
        <ele>28.7</ele>
        <time>2025-01-28T08:29:30Z</time>
      </trkpt>
      <trkpt lat="47.63618" lon="-2.80239">
        <ele>28.7</ele>
        <time>2025-01-28T08:29:31Z</time>
      </trkpt>
      <trkpt lat="47.63619" lon="-2.80239">
        <ele>28.7</ele>
        <time>2025-01-28T08:29:32Z</time>
      </trkpt>
      <trkpt lat="47.6362" lon="-2.80238">
        <ele>28.7</ele>
        <time>2025-01-28T08:29:33Z</time>
      </trkpt>
      <trkpt lat="47.63621" lon="-2.80238">
        <ele>28.7</ele>
        <time>2025-01-28T08:29:34Z</time>
      </trkpt>
      <trkpt lat="47.63622" lon="-2.80237">
        <ele>28.7</ele>
        <time>2025-01-28T08:29:35Z</time>
      </trkpt>
      <trkpt lat="47.63623" lon="-2.80237">
        <ele>28.7</ele>
        <time>2025-01-28T08:29:36Z</time>
      </trkpt>
      <trkpt lat="47.63625" lon="-2.80238">
        <ele>28.8</ele>
        <time>2025-01-28T08:29:37Z</time>
      </trkpt>
      <trkpt lat="47.63626" lon="-2.80239">
        <ele>28.8</ele>
        <time>2025-01-28T08:29:38Z</time>
      </trkpt>
      <trkpt lat="47.63627" lon="-2.80239">
        <ele>28.8</ele>
        <time>2025-01-28T08:29:39Z</time>
      </trkpt>
      <trkpt lat="47.63628" lon="-2.80239">
        <ele>28.9</ele>
        <time>2025-01-28T08:29:40Z</time>
      </trkpt>
      <trkpt lat="47.63629" lon="-2.8024">
        <ele>28.9</ele>
        <time>2025-01-28T08:29:41Z</time>
      </trkpt>
      <trkpt lat="47.63629" lon="-2.80241">
        <ele>28.9</ele>
        <time>2025-01-28T08:29:42Z</time>
      </trkpt>
      <trkpt lat="47.63629" lon="-2.8024">
        <ele>28.9</ele>
        <time>2025-01-28T08:29:43Z</time>
      </trkpt>
      <trkpt lat="47.6363" lon="-2.8024">
        <ele>28.9</ele>
        <time>2025-01-28T08:29:44Z</time>
      </trkpt>
      <trkpt lat="47.63632" lon="-2.8024">
        <ele>28.9</ele>
        <time>2025-01-28T08:29:45Z</time>
      </trkpt>
      <trkpt lat="47.63633" lon="-2.8024">
        <ele>28.9</ele>
        <time>2025-01-28T08:29:46Z</time>
      </trkpt>
      <trkpt lat="47.63635" lon="-2.8024">
        <ele>28.9</ele>
        <time>2025-01-28T08:29:47Z</time>
      </trkpt>
      <trkpt lat="47.63636" lon="-2.8024">
        <ele>29</ele>
        <time>2025-01-28T08:29:48Z</time>
      </trkpt>
      <trkpt lat="47.63637" lon="-2.80241">
        <ele>29</ele>
        <time>2025-01-28T08:29:49Z</time>
      </trkpt>
      <trkpt lat="47.63638" lon="-2.80239">
        <ele>29</ele>
        <time>2025-01-28T08:29:50Z</time>
      </trkpt>
      <trkpt lat="47.63639" lon="-2.80239">
        <ele>29</ele>
        <time>2025-01-28T08:29:51Z</time>
      </trkpt>
      <trkpt lat="47.6364" lon="-2.80239">
        <ele>29</ele>
        <time>2025-01-28T08:29:52Z</time>
      </trkpt>
      <trkpt lat="47.63641" lon="-2.80239">
        <ele>29</ele>
        <time>2025-01-28T08:29:53Z</time>
      </trkpt>
      <trkpt lat="47.63642" lon="-2.80239">
        <ele>28.9</ele>
        <time>2025-01-28T08:29:54Z</time>
      </trkpt>
      <trkpt lat="47.63644" lon="-2.8024">
        <ele>28.9</ele>
        <time>2025-01-28T08:29:55Z</time>
      </trkpt>
      <trkpt lat="47.63645" lon="-2.8024">
        <ele>28.9</ele>
        <time>2025-01-28T08:29:56Z</time>
      </trkpt>
      <trkpt lat="47.63647" lon="-2.8024">
        <ele>28.8</ele>
        <time>2025-01-28T08:29:57Z</time>
      </trkpt>
      <trkpt lat="47.63648" lon="-2.80239">
        <ele>28.8</ele>
        <time>2025-01-28T08:29:58Z</time>
      </trkpt>
      <trkpt lat="47.63649" lon="-2.8024">
        <ele>28.8</ele>
        <time>2025-01-28T08:29:59Z</time>
      </trkpt>
      <trkpt lat="47.6365" lon="-2.8024">
        <ele>28.7</ele>
        <time>2025-01-28T08:30:00Z</time>
      </trkpt>
      <trkpt lat="47.63651" lon="-2.8024">
        <ele>28.7</ele>
        <time>2025-01-28T08:30:01Z</time>
      </trkpt>
      <trkpt lat="47.63652" lon="-2.8024">
        <ele>28.7</ele>
        <time>2025-01-28T08:30:02Z</time>
      </trkpt>
      <trkpt lat="47.63653" lon="-2.80241">
        <ele>28.7</ele>
        <time>2025-01-28T08:30:03Z</time>
      </trkpt>
      <trkpt lat="47.63654" lon="-2.8024">
        <ele>28.6</ele>
        <time>2025-01-28T08:30:04Z</time>
      </trkpt>
      <trkpt lat="47.63656" lon="-2.80241">
        <ele>28.6</ele>
        <time>2025-01-28T08:30:05Z</time>
      </trkpt>
      <trkpt lat="47.63658" lon="-2.8024">
        <ele>28.6</ele>
        <time>2025-01-28T08:30:06Z</time>
      </trkpt>
      <trkpt lat="47.63659" lon="-2.8024">
        <ele>28.5</ele>
        <time>2025-01-28T08:30:07Z</time>
      </trkpt>
      <trkpt lat="47.6366" lon="-2.8024">
        <ele>28.5</ele>
        <time>2025-01-28T08:30:08Z</time>
      </trkpt>
      <trkpt lat="47.63662" lon="-2.80239">
        <ele>28.5</ele>
        <time>2025-01-28T08:30:09Z</time>
      </trkpt>
      <trkpt lat="47.63663" lon="-2.80239">
        <ele>28.5</ele>
        <time>2025-01-28T08:30:10Z</time>
      </trkpt>
      <trkpt lat="47.63664" lon="-2.80239">
        <ele>28.4</ele>
        <time>2025-01-28T08:30:11Z</time>
      </trkpt>
      <trkpt lat="47.63665" lon="-2.80241">
        <ele>28.4</ele>
        <time>2025-01-28T08:30:12Z</time>
      </trkpt>
      <trkpt lat="47.63665" lon="-2.80242">
        <ele>28.3</ele>
        <time>2025-01-28T08:30:13Z</time>
      </trkpt>
      <trkpt lat="47.63667" lon="-2.80242">
        <ele>28.3</ele>
        <time>2025-01-28T08:30:14Z</time>
      </trkpt>
      <trkpt lat="47.63668" lon="-2.80241">
        <ele>28.2</ele>
        <time>2025-01-28T08:30:15Z</time>
      </trkpt>
      <trkpt lat="47.63669" lon="-2.80241">
        <ele>28.2</ele>
        <time>2025-01-28T08:30:16Z</time>
      </trkpt>
      <trkpt lat="47.63672" lon="-2.80241">
        <ele>28.1</ele>
        <time>2025-01-28T08:30:17Z</time>
      </trkpt>
      <trkpt lat="47.63674" lon="-2.80241">
        <ele>28</ele>
        <time>2025-01-28T08:30:18Z</time>
      </trkpt>
      <trkpt lat="47.63675" lon="-2.80241">
        <ele>27.9</ele>
        <time>2025-01-28T08:30:19Z</time>
      </trkpt>
      <trkpt lat="47.63677" lon="-2.80241">
        <ele>27.8</ele>
        <time>2025-01-28T08:30:20Z</time>
      </trkpt>
      <trkpt lat="47.63679" lon="-2.80242">
        <ele>27.7</ele>
        <time>2025-01-28T08:30:21Z</time>
      </trkpt>
      <trkpt lat="47.6368" lon="-2.80242">
        <ele>27.7</ele>
        <time>2025-01-28T08:30:22Z</time>
      </trkpt>
      <trkpt lat="47.63681" lon="-2.80241">
        <ele>27.6</ele>
        <time>2025-01-28T08:30:23Z</time>
      </trkpt>
      <trkpt lat="47.63683" lon="-2.8024">
        <ele>27.6</ele>
        <time>2025-01-28T08:30:24Z</time>
      </trkpt>
      <trkpt lat="47.63684" lon="-2.80239">
        <ele>27.6</ele>
        <time>2025-01-28T08:30:25Z</time>
      </trkpt>
      <trkpt lat="47.63685" lon="-2.80238">
        <ele>27.5</ele>
        <time>2025-01-28T08:30:26Z</time>
      </trkpt>
      <trkpt lat="47.63685" lon="-2.80238">
        <ele>27.5</ele>
        <time>2025-01-28T08:30:27Z</time>
      </trkpt>
      <trkpt lat="47.63687" lon="-2.80237">
        <ele>27.4</ele>
        <time>2025-01-28T08:30:28Z</time>
      </trkpt>
      <trkpt lat="47.63688" lon="-2.80236">
        <ele>27.4</ele>
        <time>2025-01-28T08:30:29Z</time>
      </trkpt>
      <trkpt lat="47.6369" lon="-2.80237">
        <ele>27.3</ele>
        <time>2025-01-28T08:30:30Z</time>
      </trkpt>
      <trkpt lat="47.63691" lon="-2.80237">
        <ele>27.2</ele>
        <time>2025-01-28T08:30:31Z</time>
      </trkpt>
      <trkpt lat="47.63692" lon="-2.80237">
        <ele>27.1</ele>
        <time>2025-01-28T08:30:32Z</time>
      </trkpt>
      <trkpt lat="47.63694" lon="-2.80237">
        <ele>27</ele>
        <time>2025-01-28T08:30:33Z</time>
      </trkpt>
      <trkpt lat="47.63695" lon="-2.80236">
        <ele>26.9</ele>
        <time>2025-01-28T08:30:34Z</time>
      </trkpt>
      <trkpt lat="47.63697" lon="-2.80237">
        <ele>26.8</ele>
        <time>2025-01-28T08:30:35Z</time>
      </trkpt>
      <trkpt lat="47.63698" lon="-2.80238">
        <ele>26.7</ele>
        <time>2025-01-28T08:30:36Z</time>
      </trkpt>
      <trkpt lat="47.637" lon="-2.80238">
        <ele>26.6</ele>
        <time>2025-01-28T08:30:37Z</time>
      </trkpt>
      <trkpt lat="47.63701" lon="-2.80239">
        <ele>26.5</ele>
        <time>2025-01-28T08:30:38Z</time>
      </trkpt>
      <trkpt lat="47.63703" lon="-2.80239">
        <ele>26.4</ele>
        <time>2025-01-28T08:30:39Z</time>
      </trkpt>
      <trkpt lat="47.63705" lon="-2.80238">
        <ele>26.3</ele>
        <time>2025-01-28T08:30:40Z</time>
      </trkpt>
      <trkpt lat="47.63705" lon="-2.80238">
        <ele>26.2</ele>
        <time>2025-01-28T08:30:41Z</time>
      </trkpt>
      <trkpt lat="47.63706" lon="-2.80238">
        <ele>26.2</ele>
        <time>2025-01-28T08:30:42Z</time>
      </trkpt>
      <trkpt lat="47.63707" lon="-2.80238">
        <ele>26.1</ele>
        <time>2025-01-28T08:30:43Z</time>
      </trkpt>
      <trkpt lat="47.63708" lon="-2.80238">
        <ele>26</ele>
        <time>2025-01-28T08:30:44Z</time>
      </trkpt>
      <trkpt lat="47.6371" lon="-2.80238">
        <ele>25.9</ele>
        <time>2025-01-28T08:30:45Z</time>
      </trkpt>
      <trkpt lat="47.63711" lon="-2.80239">
        <ele>25.8</ele>
        <time>2025-01-28T08:30:46Z</time>
      </trkpt>
      <trkpt lat="47.63712" lon="-2.80239">
        <ele>25.8</ele>
        <time>2025-01-28T08:30:47Z</time>
      </trkpt>
      <trkpt lat="47.63713" lon="-2.80238">
        <ele>25.6</ele>
        <time>2025-01-28T08:30:48Z</time>
      </trkpt>
      <trkpt lat="47.63715" lon="-2.80238">
        <ele>25.6</ele>
        <time>2025-01-28T08:30:49Z</time>
      </trkpt>
      <trkpt lat="47.63716" lon="-2.80238">
        <ele>25.5</ele>
        <time>2025-01-28T08:30:50Z</time>
      </trkpt>
      <trkpt lat="47.63717" lon="-2.80239">
        <ele>25.4</ele>
        <time>2025-01-28T08:30:51Z</time>
      </trkpt>
      <trkpt lat="47.63718" lon="-2.80239">
        <ele>25.3</ele>
        <time>2025-01-28T08:30:52Z</time>
      </trkpt>
      <trkpt lat="47.63719" lon="-2.80239">
        <ele>25.2</ele>
        <time>2025-01-28T08:30:53Z</time>
      </trkpt>
      <trkpt lat="47.6372" lon="-2.80239">
        <ele>25.2</ele>
        <time>2025-01-28T08:30:54Z</time>
      </trkpt>
      <trkpt lat="47.63721" lon="-2.80238">
        <ele>25.1</ele>
        <time>2025-01-28T08:30:55Z</time>
      </trkpt>
      <trkpt lat="47.63723" lon="-2.80238">
        <ele>25</ele>
        <time>2025-01-28T08:30:56Z</time>
      </trkpt>
      <trkpt lat="47.63724" lon="-2.80239">
        <ele>25</ele>
        <time>2025-01-28T08:30:57Z</time>
      </trkpt>
      <trkpt lat="47.63725" lon="-2.80238">
        <ele>24.9</ele>
        <time>2025-01-28T08:30:58Z</time>
      </trkpt>
      <trkpt lat="47.63725" lon="-2.80237">
        <ele>24.9</ele>
        <time>2025-01-28T08:30:59Z</time>
      </trkpt>
      <trkpt lat="47.63726" lon="-2.80236">
        <ele>24.9</ele>
        <time>2025-01-28T08:31:00Z</time>
      </trkpt>
      <trkpt lat="47.63726" lon="-2.80236">
        <ele>24.9</ele>
        <time>2025-01-28T08:31:01Z</time>
      </trkpt>
      <trkpt lat="47.63728" lon="-2.80238">
        <ele>24.8</ele>
        <time>2025-01-28T08:31:02Z</time>
      </trkpt>
      <trkpt lat="47.63728" lon="-2.8024">
        <ele>24.8</ele>
        <time>2025-01-28T08:31:03Z</time>
      </trkpt>
      <trkpt lat="47.63728" lon="-2.80243">
        <ele>24.8</ele>
        <time>2025-01-28T08:31:04Z</time>
      </trkpt>
      <trkpt lat="47.63725" lon="-2.80242">
        <ele>24.9</ele>
        <time>2025-01-28T08:31:05Z</time>
      </trkpt>
      <trkpt lat="47.63724" lon="-2.80242">
        <ele>24.9</ele>
        <time>2025-01-28T08:31:06Z</time>
      </trkpt>
      <trkpt lat="47.63724" lon="-2.80242">
        <ele>24.9</ele>
        <time>2025-01-28T08:31:07Z</time>
      </trkpt>
      <trkpt lat="47.63724" lon="-2.80242">
        <ele>24.9</ele>
        <time>2025-01-28T08:31:08Z</time>
      </trkpt>
      <trkpt lat="47.63724" lon="-2.80242">
        <ele>24.9</ele>
        <time>2025-01-28T08:31:09Z</time>
      </trkpt>
      <trkpt lat="47.63724" lon="-2.80242">
        <ele>24.9</ele>
        <time>2025-01-28T08:31:10Z</time>
      </trkpt>
      <trkpt lat="47.63724" lon="-2.80242">
        <ele>24.9</ele>
        <time>2025-01-28T08:31:11Z</time>
      </trkpt>
      <trkpt lat="47.63724" lon="-2.80242">
        <ele>24.9</ele>
        <time>2025-01-28T08:31:12Z</time>
      </trkpt>
      <trkpt lat="47.63724" lon="-2.80243">
        <ele>24.9</ele>
        <time>2025-01-28T08:31:13Z</time>
      </trkpt>
      <trkpt lat="47.63724" lon="-2.80243">
        <ele>24.9</ele>
        <time>2025-01-28T08:31:14Z</time>
      </trkpt>
      <trkpt lat="47.63724" lon="-2.80243">
        <ele>24.9</ele>
        <time>2025-01-28T08:31:15Z</time>
      </trkpt>
      <trkpt lat="47.63724" lon="-2.80243">
        <ele>24.9</ele>
        <time>2025-01-28T08:31:16Z</time>
      </trkpt>
      <trkpt lat="47.63724" lon="-2.80243">
        <ele>24.9</ele>
        <time>2025-01-28T08:31:17Z</time>
      </trkpt>
      <trkpt lat="47.63724" lon="-2.80243">
        <ele>24.9</ele>
        <time>2025-01-28T08:31:18Z</time>
      </trkpt>
      <trkpt lat="47.63724" lon="-2.80243">
        <ele>24.9</ele>
        <time>2025-01-28T08:31:19Z</time>
      </trkpt>
      <trkpt lat="47.63724" lon="-2.80243">
        <ele>24.9</ele>
        <time>2025-01-28T08:31:20Z</time>
      </trkpt>
      <trkpt lat="47.63724" lon="-2.80243">
        <ele>24.9</ele>
        <time>2025-01-28T08:31:21Z</time>
      </trkpt>
      <trkpt lat="47.63724" lon="-2.80243">
        <ele>24.9</ele>
        <time>2025-01-28T08:31:22Z</time>
      </trkpt>
      <trkpt lat="47.63724" lon="-2.80243">
        <ele>24.9</ele>
        <time>2025-01-28T08:31:23Z</time>
      </trkpt>
      <trkpt lat="47.63724" lon="-2.80243">
        <ele>24.9</ele>
        <time>2025-01-28T08:31:24Z</time>
      </trkpt>
      <trkpt lat="47.63724" lon="-2.80243">
        <ele>24.9</ele>
        <time>2025-01-28T08:31:25Z</time>
      </trkpt>
      <trkpt lat="47.63724" lon="-2.80243">
        <ele>24.9</ele>
        <time>2025-01-28T08:31:26Z</time>
      </trkpt>
      <trkpt lat="47.63724" lon="-2.80243">
        <ele>24.9</ele>
        <time>2025-01-28T08:31:27Z</time>
      </trkpt>
      <trkpt lat="47.63724" lon="-2.80243">
        <ele>24.9</ele>
        <time>2025-01-28T08:31:28Z</time>
      </trkpt>
      <trkpt lat="47.63724" lon="-2.80243">
        <ele>24.9</ele>
        <time>2025-01-28T08:31:29Z</time>
      </trkpt>
      <trkpt lat="47.63724" lon="-2.80243">
        <ele>24.9</ele>
        <time>2025-01-28T08:31:30Z</time>
      </trkpt>
      <trkpt lat="47.63724" lon="-2.80243">
        <ele>24.9</ele>
        <time>2025-01-28T08:31:31Z</time>
      </trkpt>
      <trkpt lat="47.63724" lon="-2.80243">
        <ele>24.9</ele>
        <time>2025-01-28T08:31:32Z</time>
      </trkpt>
      <trkpt lat="47.63724" lon="-2.80243">
        <ele>24.9</ele>
        <time>2025-01-28T08:31:33Z</time>
      </trkpt>
      <trkpt lat="47.63724" lon="-2.80243">
        <ele>24.9</ele>
        <time>2025-01-28T08:31:34Z</time>
      </trkpt>
      <trkpt lat="47.63724" lon="-2.80243">
        <ele>24.9</ele>
        <time>2025-01-28T08:31:35Z</time>
      </trkpt>
      <trkpt lat="47.63724" lon="-2.80243">
        <ele>24.9</ele>
        <time>2025-01-28T08:31:36Z</time>
      </trkpt>
      <trkpt lat="47.63724" lon="-2.80243">
        <ele>24.9</ele>
        <time>2025-01-28T08:31:37Z</time>
      </trkpt>
      <trkpt lat="47.63724" lon="-2.80243">
        <ele>24.9</ele>
        <time>2025-01-28T08:31:38Z</time>
      </trkpt>
      <trkpt lat="47.63724" lon="-2.80243">
        <ele>24.9</ele>
        <time>2025-01-28T08:31:39Z</time>
      </trkpt>
      <trkpt lat="47.63724" lon="-2.80243">
        <ele>24.9</ele>
        <time>2025-01-28T08:31:40Z</time>
      </trkpt>
      <trkpt lat="47.63724" lon="-2.80243">
        <ele>24.9</ele>
        <time>2025-01-28T08:31:41Z</time>
      </trkpt>
      <trkpt lat="47.63724" lon="-2.80243">
        <ele>24.9</ele>
        <time>2025-01-28T08:31:42Z</time>
      </trkpt>
      <trkpt lat="47.63724" lon="-2.80243">
        <ele>24.9</ele>
        <time>2025-01-28T08:31:43Z</time>
      </trkpt>
      <trkpt lat="47.63724" lon="-2.80243">
        <ele>24.9</ele>
        <time>2025-01-28T08:31:44Z</time>
      </trkpt>
      <trkpt lat="47.63724" lon="-2.80243">
        <ele>24.9</ele>
        <time>2025-01-28T08:31:45Z</time>
      </trkpt>
      <trkpt lat="47.63724" lon="-2.80243">
        <ele>24.9</ele>
        <time>2025-01-28T08:31:46Z</time>
      </trkpt>
      <trkpt lat="47.63724" lon="-2.80243">
        <ele>24.9</ele>
        <time>2025-01-28T08:31:47Z</time>
      </trkpt>
      <trkpt lat="47.63724" lon="-2.80243">
        <ele>24.9</ele>
        <time>2025-01-28T08:31:48Z</time>
      </trkpt>
      <trkpt lat="47.63724" lon="-2.80243">
        <ele>24.9</ele>
        <time>2025-01-28T08:31:49Z</time>
      </trkpt>
      <trkpt lat="47.63724" lon="-2.80243">
        <ele>24.9</ele>
        <time>2025-01-28T08:31:50Z</time>
      </trkpt>
      <trkpt lat="47.63724" lon="-2.80243">
        <ele>24.9</ele>
        <time>2025-01-28T08:31:51Z</time>
      </trkpt>
      <trkpt lat="47.63724" lon="-2.80243">
        <ele>24.9</ele>
        <time>2025-01-28T08:31:52Z</time>
      </trkpt>
      <trkpt lat="47.63724" lon="-2.80243">
        <ele>24.9</ele>
        <time>2025-01-28T08:31:53Z</time>
      </trkpt>
      <trkpt lat="47.63724" lon="-2.80243">
        <ele>24.9</ele>
        <time>2025-01-28T08:31:54Z</time>
      </trkpt>
      <trkpt lat="47.63724" lon="-2.80243">
        <ele>24.9</ele>
        <time>2025-01-28T08:31:55Z</time>
      </trkpt>
      <trkpt lat="47.63724" lon="-2.80243">
        <ele>24.9</ele>
        <time>2025-01-28T08:31:56Z</time>
      </trkpt>
      <trkpt lat="47.63724" lon="-2.80243">
        <ele>24.9</ele>
        <time>2025-01-28T08:31:57Z</time>
      </trkpt>
      <trkpt lat="47.63724" lon="-2.80243">
        <ele>24.9</ele>
        <time>2025-01-28T08:31:58Z</time>
      </trkpt>
      <trkpt lat="47.63724" lon="-2.80243">
        <ele>24.9</ele>
        <time>2025-01-28T08:31:59Z</time>
      </trkpt>
      <trkpt lat="47.63724" lon="-2.80243">
        <ele>24.9</ele>
        <time>2025-01-28T08:32:00Z</time>
      </trkpt>
      <trkpt lat="47.63724" lon="-2.80243">
        <ele>24.9</ele>
        <time>2025-01-28T08:32:01Z</time>
      </trkpt>
      <trkpt lat="47.63724" lon="-2.80243">
        <ele>24.9</ele>
        <time>2025-01-28T08:32:02Z</time>
      </trkpt>
      <trkpt lat="47.63724" lon="-2.80243">
        <ele>24.9</ele>
        <time>2025-01-28T08:32:03Z</time>
      </trkpt>
      <trkpt lat="47.63724" lon="-2.80244">
        <ele>24.9</ele>
        <time>2025-01-28T08:32:04Z</time>
      </trkpt>
      <trkpt lat="47.63725" lon="-2.80244">
        <ele>24.9</ele>
        <time>2025-01-28T08:32:05Z</time>
      </trkpt>
      <trkpt lat="47.63725" lon="-2.80243">
        <ele>24.9</ele>
        <time>2025-01-28T08:32:06Z</time>
      </trkpt>
      <trkpt lat="47.63725" lon="-2.80243">
        <ele>24.9</ele>
        <time>2025-01-28T08:32:07Z</time>
      </trkpt>
      <trkpt lat="47.63726" lon="-2.80243">
        <ele>24.9</ele>
        <time>2025-01-28T08:32:08Z</time>
      </trkpt>
      <trkpt lat="47.63727" lon="-2.80241">
        <ele>24.8</ele>
        <time>2025-01-28T08:32:09Z</time>
      </trkpt>
      <trkpt lat="47.63728" lon="-2.80239">
        <ele>24.8</ele>
        <time>2025-01-28T08:32:10Z</time>
      </trkpt>
      <trkpt lat="47.63729" lon="-2.80239">
        <ele>24.8</ele>
        <time>2025-01-28T08:32:11Z</time>
      </trkpt>
      <trkpt lat="47.6373" lon="-2.80238">
        <ele>24.7</ele>
        <time>2025-01-28T08:32:12Z</time>
      </trkpt>
      <trkpt lat="47.6373" lon="-2.80237">
        <ele>24.7</ele>
        <time>2025-01-28T08:32:13Z</time>
      </trkpt>
      <trkpt lat="47.63731" lon="-2.80237">
        <ele>24.7</ele>
        <time>2025-01-28T08:32:14Z</time>
      </trkpt>
      <trkpt lat="47.63732" lon="-2.80236">
        <ele>24.6</ele>
        <time>2025-01-28T08:32:15Z</time>
      </trkpt>
      <trkpt lat="47.63733" lon="-2.80236">
        <ele>24.6</ele>
        <time>2025-01-28T08:32:16Z</time>
      </trkpt>
      <trkpt lat="47.63734" lon="-2.80235">
        <ele>24.6</ele>
        <time>2025-01-28T08:32:17Z</time>
      </trkpt>
      <trkpt lat="47.63735" lon="-2.80235">
        <ele>24.5</ele>
        <time>2025-01-28T08:32:18Z</time>
      </trkpt>
      <trkpt lat="47.63737" lon="-2.80235">
        <ele>24.5</ele>
        <time>2025-01-28T08:32:19Z</time>
      </trkpt>
      <trkpt lat="47.63738" lon="-2.80235">
        <ele>24.4</ele>
        <time>2025-01-28T08:32:20Z</time>
      </trkpt>
      <trkpt lat="47.63739" lon="-2.80236">
        <ele>24.4</ele>
        <time>2025-01-28T08:32:21Z</time>
      </trkpt>
      <trkpt lat="47.6374" lon="-2.80237">
        <ele>24.4</ele>
        <time>2025-01-28T08:32:22Z</time>
      </trkpt>
      <trkpt lat="47.63741" lon="-2.80238">
        <ele>24.3</ele>
        <time>2025-01-28T08:32:23Z</time>
      </trkpt>
      <trkpt lat="47.63742" lon="-2.80239">
        <ele>24.3</ele>
        <time>2025-01-28T08:32:24Z</time>
      </trkpt>
      <trkpt lat="47.63743" lon="-2.8024">
        <ele>24.3</ele>
        <time>2025-01-28T08:32:25Z</time>
      </trkpt>
      <trkpt lat="47.63743" lon="-2.80242">
        <ele>24.2</ele>
        <time>2025-01-28T08:32:26Z</time>
      </trkpt>
      <trkpt lat="47.63744" lon="-2.80243">
        <ele>24.2</ele>
        <time>2025-01-28T08:32:27Z</time>
      </trkpt>
      <trkpt lat="47.63745" lon="-2.80243">
        <ele>24.2</ele>
        <time>2025-01-28T08:32:28Z</time>
      </trkpt>
      <trkpt lat="47.63746" lon="-2.80243">
        <ele>24.1</ele>
        <time>2025-01-28T08:32:29Z</time>
      </trkpt>
      <trkpt lat="47.63747" lon="-2.80244">
        <ele>24.1</ele>
        <time>2025-01-28T08:32:30Z</time>
      </trkpt>
      <trkpt lat="47.63748" lon="-2.80244">
        <ele>24.1</ele>
        <time>2025-01-28T08:32:31Z</time>
      </trkpt>
      <trkpt lat="47.63749" lon="-2.80244">
        <ele>24</ele>
        <time>2025-01-28T08:32:32Z</time>
      </trkpt>
      <trkpt lat="47.63751" lon="-2.80244">
        <ele>24</ele>
        <time>2025-01-28T08:32:33Z</time>
      </trkpt>
      <trkpt lat="47.63752" lon="-2.80245">
        <ele>23.9</ele>
        <time>2025-01-28T08:32:34Z</time>
      </trkpt>
      <trkpt lat="47.63753" lon="-2.80245">
        <ele>23.8</ele>
        <time>2025-01-28T08:32:35Z</time>
      </trkpt>
      <trkpt lat="47.63754" lon="-2.80245">
        <ele>23.7</ele>
        <time>2025-01-28T08:32:36Z</time>
      </trkpt>
      <trkpt lat="47.63756" lon="-2.80245">
        <ele>23.6</ele>
        <time>2025-01-28T08:32:37Z</time>
      </trkpt>
      <trkpt lat="47.63757" lon="-2.80246">
        <ele>23.5</ele>
        <time>2025-01-28T08:32:38Z</time>
      </trkpt>
      <trkpt lat="47.63759" lon="-2.80245">
        <ele>23.4</ele>
        <time>2025-01-28T08:32:39Z</time>
      </trkpt>
      <trkpt lat="47.6376" lon="-2.80245">
        <ele>23.3</ele>
        <time>2025-01-28T08:32:40Z</time>
      </trkpt>
      <trkpt lat="47.63761" lon="-2.80245">
        <ele>23.2</ele>
        <time>2025-01-28T08:32:41Z</time>
      </trkpt>
      <trkpt lat="47.63762" lon="-2.80244">
        <ele>23.1</ele>
        <time>2025-01-28T08:32:42Z</time>
      </trkpt>
      <trkpt lat="47.63763" lon="-2.80244">
        <ele>23.1</ele>
        <time>2025-01-28T08:32:43Z</time>
      </trkpt>
      <trkpt lat="47.63764" lon="-2.80244">
        <ele>23</ele>
        <time>2025-01-28T08:32:44Z</time>
      </trkpt>
      <trkpt lat="47.63765" lon="-2.80245">
        <ele>22.9</ele>
        <time>2025-01-28T08:32:45Z</time>
      </trkpt>
      <trkpt lat="47.63766" lon="-2.80245">
        <ele>22.8</ele>
        <time>2025-01-28T08:32:46Z</time>
      </trkpt>
      <trkpt lat="47.63768" lon="-2.80245">
        <ele>22.7</ele>
        <time>2025-01-28T08:32:47Z</time>
      </trkpt>
      <trkpt lat="47.63769" lon="-2.80245">
        <ele>22.7</ele>
        <time>2025-01-28T08:32:48Z</time>
      </trkpt>
      <trkpt lat="47.6377" lon="-2.80246">
        <ele>22.6</ele>
        <time>2025-01-28T08:32:49Z</time>
      </trkpt>
      <trkpt lat="47.63771" lon="-2.80246">
        <ele>22.5</ele>
        <time>2025-01-28T08:32:50Z</time>
      </trkpt>
      <trkpt lat="47.63772" lon="-2.80245">
        <ele>22.4</ele>
        <time>2025-01-28T08:32:51Z</time>
      </trkpt>
      <trkpt lat="47.63773" lon="-2.80245">
        <ele>22.3</ele>
        <time>2025-01-28T08:32:52Z</time>
      </trkpt>
      <trkpt lat="47.63774" lon="-2.80246">
        <ele>22.2</ele>
        <time>2025-01-28T08:32:53Z</time>
      </trkpt>
      <trkpt lat="47.63776" lon="-2.80246">
        <ele>22.2</ele>
        <time>2025-01-28T08:32:54Z</time>
      </trkpt>
      <trkpt lat="47.63777" lon="-2.80246">
        <ele>22</ele>
        <time>2025-01-28T08:32:55Z</time>
      </trkpt>
      <trkpt lat="47.63779" lon="-2.80245">
        <ele>22</ele>
        <time>2025-01-28T08:32:56Z</time>
      </trkpt>
      <trkpt lat="47.6378" lon="-2.80245">
        <ele>21.9</ele>
        <time>2025-01-28T08:32:57Z</time>
      </trkpt>
      <trkpt lat="47.63782" lon="-2.80244">
        <ele>21.9</ele>
        <time>2025-01-28T08:32:58Z</time>
      </trkpt>
      <trkpt lat="47.63783" lon="-2.80244">
        <ele>21.8</ele>
        <time>2025-01-28T08:32:59Z</time>
      </trkpt>
      <trkpt lat="47.63784" lon="-2.80245">
        <ele>21.8</ele>
        <time>2025-01-28T08:33:00Z</time>
      </trkpt>
      <trkpt lat="47.63785" lon="-2.80244">
        <ele>21.7</ele>
        <time>2025-01-28T08:33:01Z</time>
      </trkpt>
      <trkpt lat="47.63787" lon="-2.80245">
        <ele>21.7</ele>
        <time>2025-01-28T08:33:02Z</time>
      </trkpt>
      <trkpt lat="47.63788" lon="-2.80245">
        <ele>21.6</ele>
        <time>2025-01-28T08:33:03Z</time>
      </trkpt>
      <trkpt lat="47.63789" lon="-2.80245">
        <ele>21.6</ele>
        <time>2025-01-28T08:33:04Z</time>
      </trkpt>
      <trkpt lat="47.6379" lon="-2.80246">
        <ele>21.5</ele>
        <time>2025-01-28T08:33:05Z</time>
      </trkpt>
      <trkpt lat="47.63791" lon="-2.80245">
        <ele>21.5</ele>
        <time>2025-01-28T08:33:06Z</time>
      </trkpt>
      <trkpt lat="47.63792" lon="-2.80245">
        <ele>21.5</ele>
        <time>2025-01-28T08:33:07Z</time>
      </trkpt>
      <trkpt lat="47.63794" lon="-2.80245">
        <ele>21.4</ele>
        <time>2025-01-28T08:33:08Z</time>
      </trkpt>
      <trkpt lat="47.63796" lon="-2.80244">
        <ele>21.4</ele>
        <time>2025-01-28T08:33:09Z</time>
      </trkpt>
      <trkpt lat="47.63797" lon="-2.80244">
        <ele>21.3</ele>
        <time>2025-01-28T08:33:10Z</time>
      </trkpt>
      <trkpt lat="47.63798" lon="-2.80244">
        <ele>21.3</ele>
        <time>2025-01-28T08:33:11Z</time>
      </trkpt>
      <trkpt lat="47.63799" lon="-2.80245">
        <ele>21.2</ele>
        <time>2025-01-28T08:33:12Z</time>
      </trkpt>
      <trkpt lat="47.638" lon="-2.80245">
        <ele>21.2</ele>
        <time>2025-01-28T08:33:13Z</time>
      </trkpt>
      <trkpt lat="47.63801" lon="-2.80246">
        <ele>21.2</ele>
        <time>2025-01-28T08:33:14Z</time>
      </trkpt>
      <trkpt lat="47.63802" lon="-2.80246">
        <ele>21.1</ele>
        <time>2025-01-28T08:33:15Z</time>
      </trkpt>
      <trkpt lat="47.63803" lon="-2.80245">
        <ele>21.1</ele>
        <time>2025-01-28T08:33:16Z</time>
      </trkpt>
      <trkpt lat="47.63804" lon="-2.80245">
        <ele>21</ele>
        <time>2025-01-28T08:33:17Z</time>
      </trkpt>
      <trkpt lat="47.63806" lon="-2.80245">
        <ele>21</ele>
        <time>2025-01-28T08:33:18Z</time>
      </trkpt>
      <trkpt lat="47.63807" lon="-2.80245">
        <ele>20.9</ele>
        <time>2025-01-28T08:33:19Z</time>
      </trkpt>
      <trkpt lat="47.63808" lon="-2.80244">
        <ele>20.9</ele>
        <time>2025-01-28T08:33:20Z</time>
      </trkpt>
      <trkpt lat="47.63809" lon="-2.80244">
        <ele>20.9</ele>
        <time>2025-01-28T08:33:21Z</time>
      </trkpt>
      <trkpt lat="47.6381" lon="-2.80243">
        <ele>20.8</ele>
        <time>2025-01-28T08:33:22Z</time>
      </trkpt>
      <trkpt lat="47.63811" lon="-2.80243">
        <ele>20.8</ele>
        <time>2025-01-28T08:33:23Z</time>
      </trkpt>
      <trkpt lat="47.63812" lon="-2.80243">
        <ele>20.8</ele>
        <time>2025-01-28T08:33:24Z</time>
      </trkpt>
      <trkpt lat="47.63814" lon="-2.80243">
        <ele>20.7</ele>
        <time>2025-01-28T08:33:25Z</time>
      </trkpt>
      <trkpt lat="47.63815" lon="-2.80242">
        <ele>20.7</ele>
        <time>2025-01-28T08:33:26Z</time>
      </trkpt>
      <trkpt lat="47.63816" lon="-2.80242">
        <ele>20.6</ele>
        <time>2025-01-28T08:33:27Z</time>
      </trkpt>
      <trkpt lat="47.63817" lon="-2.80242">
        <ele>20.6</ele>
        <time>2025-01-28T08:33:28Z</time>
      </trkpt>
      <trkpt lat="47.63818" lon="-2.80241">
        <ele>20.5</ele>
        <time>2025-01-28T08:33:29Z</time>
      </trkpt>
      <trkpt lat="47.6382" lon="-2.80241">
        <ele>20.5</ele>
        <time>2025-01-28T08:33:30Z</time>
      </trkpt>
      <trkpt lat="47.63821" lon="-2.8024">
        <ele>20.4</ele>
        <time>2025-01-28T08:33:31Z</time>
      </trkpt>
      <trkpt lat="47.63822" lon="-2.8024">
        <ele>20.4</ele>
        <time>2025-01-28T08:33:32Z</time>
      </trkpt>
      <trkpt lat="47.63824" lon="-2.8024">
        <ele>20.4</ele>
        <time>2025-01-28T08:33:33Z</time>
      </trkpt>
      <trkpt lat="47.63825" lon="-2.8024">
        <ele>20.3</ele>
        <time>2025-01-28T08:33:34Z</time>
      </trkpt>
      <trkpt lat="47.63826" lon="-2.80239">
        <ele>20.3</ele>
        <time>2025-01-28T08:33:35Z</time>
      </trkpt>
      <trkpt lat="47.63828" lon="-2.8024">
        <ele>20.2</ele>
        <time>2025-01-28T08:33:36Z</time>
      </trkpt>
      <trkpt lat="47.63829" lon="-2.80239">
        <ele>20.2</ele>
        <time>2025-01-28T08:33:37Z</time>
      </trkpt>
      <trkpt lat="47.6383" lon="-2.80239">
        <ele>20.1</ele>
        <time>2025-01-28T08:33:38Z</time>
      </trkpt>
      <trkpt lat="47.63831" lon="-2.80239">
        <ele>20.1</ele>
        <time>2025-01-28T08:33:39Z</time>
      </trkpt>
      <trkpt lat="47.63832" lon="-2.80239">
        <ele>20</ele>
        <time>2025-01-28T08:33:40Z</time>
      </trkpt>
      <trkpt lat="47.63834" lon="-2.80239">
        <ele>20</ele>
        <time>2025-01-28T08:33:41Z</time>
      </trkpt>
      <trkpt lat="47.63835" lon="-2.80238">
        <ele>20</ele>
        <time>2025-01-28T08:33:42Z</time>
      </trkpt>
      <trkpt lat="47.63836" lon="-2.80238">
        <ele>19.9</ele>
        <time>2025-01-28T08:33:43Z</time>
      </trkpt>
      <trkpt lat="47.63837" lon="-2.80237">
        <ele>19.9</ele>
        <time>2025-01-28T08:33:44Z</time>
      </trkpt>
      <trkpt lat="47.63838" lon="-2.80237">
        <ele>19.8</ele>
        <time>2025-01-28T08:33:45Z</time>
      </trkpt>
      <trkpt lat="47.63839" lon="-2.80236">
        <ele>19.8</ele>
        <time>2025-01-28T08:33:46Z</time>
      </trkpt>
      <trkpt lat="47.63841" lon="-2.80236">
        <ele>19.7</ele>
        <time>2025-01-28T08:33:47Z</time>
      </trkpt>
      <trkpt lat="47.63842" lon="-2.80236">
        <ele>19.7</ele>
        <time>2025-01-28T08:33:48Z</time>
      </trkpt>
      <trkpt lat="47.63843" lon="-2.80235">
        <ele>19.6</ele>
        <time>2025-01-28T08:33:49Z</time>
      </trkpt>
      <trkpt lat="47.63845" lon="-2.80235">
        <ele>19.6</ele>
        <time>2025-01-28T08:33:50Z</time>
      </trkpt>
      <trkpt lat="47.63846" lon="-2.80235">
        <ele>19.6</ele>
        <time>2025-01-28T08:33:51Z</time>
      </trkpt>
      <trkpt lat="47.63847" lon="-2.80234">
        <ele>19.5</ele>
        <time>2025-01-28T08:33:52Z</time>
      </trkpt>
      <trkpt lat="47.63848" lon="-2.80234">
        <ele>19.5</ele>
        <time>2025-01-28T08:33:53Z</time>
      </trkpt>
      <trkpt lat="47.6385" lon="-2.80234">
        <ele>19.4</ele>
        <time>2025-01-28T08:33:54Z</time>
      </trkpt>
      <trkpt lat="47.63851" lon="-2.80233">
        <ele>19.4</ele>
        <time>2025-01-28T08:33:55Z</time>
      </trkpt>
      <trkpt lat="47.63852" lon="-2.80233">
        <ele>19.3</ele>
        <time>2025-01-28T08:33:56Z</time>
      </trkpt>
      <trkpt lat="47.63854" lon="-2.80233">
        <ele>19.3</ele>
        <time>2025-01-28T08:33:57Z</time>
      </trkpt>
      <trkpt lat="47.63855" lon="-2.80232">
        <ele>19.2</ele>
        <time>2025-01-28T08:33:58Z</time>
      </trkpt>
      <trkpt lat="47.63856" lon="-2.80232">
        <ele>19.2</ele>
        <time>2025-01-28T08:33:59Z</time>
      </trkpt>
      <trkpt lat="47.63857" lon="-2.80231">
        <ele>19.1</ele>
        <time>2025-01-28T08:34:00Z</time>
      </trkpt>
      <trkpt lat="47.63859" lon="-2.80231">
        <ele>19.1</ele>
        <time>2025-01-28T08:34:01Z</time>
      </trkpt>
      <trkpt lat="47.6386" lon="-2.80231">
        <ele>19</ele>
        <time>2025-01-28T08:34:02Z</time>
      </trkpt>
      <trkpt lat="47.63861" lon="-2.8023">
        <ele>19</ele>
        <time>2025-01-28T08:34:03Z</time>
      </trkpt>
      <trkpt lat="47.63862" lon="-2.8023">
        <ele>19</ele>
        <time>2025-01-28T08:34:04Z</time>
      </trkpt>
      <trkpt lat="47.63864" lon="-2.80229">
        <ele>18.9</ele>
        <time>2025-01-28T08:34:05Z</time>
      </trkpt>
      <trkpt lat="47.63865" lon="-2.80229">
        <ele>18.9</ele>
        <time>2025-01-28T08:34:06Z</time>
      </trkpt>
      <trkpt lat="47.63866" lon="-2.80228">
        <ele>18.9</ele>
        <time>2025-01-28T08:34:07Z</time>
      </trkpt>
      <trkpt lat="47.63867" lon="-2.80227">
        <ele>18.8</ele>
        <time>2025-01-28T08:34:08Z</time>
      </trkpt>
      <trkpt lat="47.63869" lon="-2.80227">
        <ele>18.8</ele>
        <time>2025-01-28T08:34:09Z</time>
      </trkpt>
      <trkpt lat="47.6387" lon="-2.80227">
        <ele>18.8</ele>
        <time>2025-01-28T08:34:10Z</time>
      </trkpt>
      <trkpt lat="47.63871" lon="-2.80227">
        <ele>18.7</ele>
        <time>2025-01-28T08:34:11Z</time>
      </trkpt>
      <trkpt lat="47.63872" lon="-2.80227">
        <ele>18.7</ele>
        <time>2025-01-28T08:34:12Z</time>
      </trkpt>
      <trkpt lat="47.63873" lon="-2.80227">
        <ele>18.7</ele>
        <time>2025-01-28T08:34:13Z</time>
      </trkpt>
      <trkpt lat="47.63874" lon="-2.80227">
        <ele>18.6</ele>
        <time>2025-01-28T08:34:14Z</time>
      </trkpt>
      <trkpt lat="47.63875" lon="-2.80226">
        <ele>18.6</ele>
        <time>2025-01-28T08:34:15Z</time>
      </trkpt>
      <trkpt lat="47.63876" lon="-2.80225">
        <ele>18.5</ele>
        <time>2025-01-28T08:34:16Z</time>
      </trkpt>
      <trkpt lat="47.63877" lon="-2.80225">
        <ele>18.5</ele>
        <time>2025-01-28T08:34:17Z</time>
      </trkpt>
      <trkpt lat="47.63878" lon="-2.80224">
        <ele>18.4</ele>
        <time>2025-01-28T08:34:18Z</time>
      </trkpt>
      <trkpt lat="47.6388" lon="-2.80225">
        <ele>18.4</ele>
        <time>2025-01-28T08:34:19Z</time>
      </trkpt>
      <trkpt lat="47.63881" lon="-2.80225">
        <ele>18.4</ele>
        <time>2025-01-28T08:34:20Z</time>
      </trkpt>
      <trkpt lat="47.63882" lon="-2.80224">
        <ele>18.3</ele>
        <time>2025-01-28T08:34:21Z</time>
      </trkpt>
      <trkpt lat="47.63883" lon="-2.80224">
        <ele>18.3</ele>
        <time>2025-01-28T08:34:22Z</time>
      </trkpt>
      <trkpt lat="47.63884" lon="-2.80224">
        <ele>18.2</ele>
        <time>2025-01-28T08:34:23Z</time>
      </trkpt>
      <trkpt lat="47.63885" lon="-2.80224">
        <ele>18.2</ele>
        <time>2025-01-28T08:34:24Z</time>
      </trkpt>
      <trkpt lat="47.63886" lon="-2.80223">
        <ele>18.1</ele>
        <time>2025-01-28T08:34:25Z</time>
      </trkpt>
      <trkpt lat="47.63888" lon="-2.80223">
        <ele>18.1</ele>
        <time>2025-01-28T08:34:26Z</time>
      </trkpt>
      <trkpt lat="47.63889" lon="-2.80222">
        <ele>18</ele>
        <time>2025-01-28T08:34:27Z</time>
      </trkpt>
      <trkpt lat="47.6389" lon="-2.80221">
        <ele>18</ele>
        <time>2025-01-28T08:34:28Z</time>
      </trkpt>
      <trkpt lat="47.63891" lon="-2.80221">
        <ele>18</ele>
        <time>2025-01-28T08:34:29Z</time>
      </trkpt>
      <trkpt lat="47.63892" lon="-2.80221">
        <ele>18</ele>
        <time>2025-01-28T08:34:30Z</time>
      </trkpt>
      <trkpt lat="47.63893" lon="-2.8022">
        <ele>18</ele>
        <time>2025-01-28T08:34:31Z</time>
      </trkpt>
      <trkpt lat="47.63894" lon="-2.80219">
        <ele>18</ele>
        <time>2025-01-28T08:34:32Z</time>
      </trkpt>
      <trkpt lat="47.63896" lon="-2.80219">
        <ele>18</ele>
        <time>2025-01-28T08:34:33Z</time>
      </trkpt>
      <trkpt lat="47.63897" lon="-2.80218">
        <ele>18</ele>
        <time>2025-01-28T08:34:34Z</time>
      </trkpt>
      <trkpt lat="47.63898" lon="-2.80218">
        <ele>18</ele>
        <time>2025-01-28T08:34:35Z</time>
      </trkpt>
      <trkpt lat="47.639" lon="-2.80218">
        <ele>17.9</ele>
        <time>2025-01-28T08:34:36Z</time>
      </trkpt>
      <trkpt lat="47.63901" lon="-2.80217">
        <ele>17.9</ele>
        <time>2025-01-28T08:34:37Z</time>
      </trkpt>
      <trkpt lat="47.63903" lon="-2.80217">
        <ele>17.9</ele>
        <time>2025-01-28T08:34:38Z</time>
      </trkpt>
      <trkpt lat="47.63904" lon="-2.80216">
        <ele>17.9</ele>
        <time>2025-01-28T08:34:39Z</time>
      </trkpt>
      <trkpt lat="47.63905" lon="-2.80215">
        <ele>17.8</ele>
        <time>2025-01-28T08:34:40Z</time>
      </trkpt>
      <trkpt lat="47.63906" lon="-2.80214">
        <ele>17.8</ele>
        <time>2025-01-28T08:34:41Z</time>
      </trkpt>
      <trkpt lat="47.63908" lon="-2.80214">
        <ele>17.8</ele>
        <time>2025-01-28T08:34:42Z</time>
      </trkpt>
      <trkpt lat="47.63909" lon="-2.80213">
        <ele>17.8</ele>
        <time>2025-01-28T08:34:43Z</time>
      </trkpt>
      <trkpt lat="47.6391" lon="-2.80213">
        <ele>17.7</ele>
        <time>2025-01-28T08:34:44Z</time>
      </trkpt>
      <trkpt lat="47.63911" lon="-2.80212">
        <ele>17.7</ele>
        <time>2025-01-28T08:34:45Z</time>
      </trkpt>
      <trkpt lat="47.63912" lon="-2.80212">
        <ele>17.7</ele>
        <time>2025-01-28T08:34:46Z</time>
      </trkpt>
      <trkpt lat="47.63914" lon="-2.80212">
        <ele>17.7</ele>
        <time>2025-01-28T08:34:47Z</time>
      </trkpt>
      <trkpt lat="47.63915" lon="-2.80212">
        <ele>17.7</ele>
        <time>2025-01-28T08:34:48Z</time>
      </trkpt>
      <trkpt lat="47.63916" lon="-2.80212">
        <ele>17.6</ele>
        <time>2025-01-28T08:34:49Z</time>
      </trkpt>
      <trkpt lat="47.63918" lon="-2.80211">
        <ele>17.6</ele>
        <time>2025-01-28T08:34:50Z</time>
      </trkpt>
      <trkpt lat="47.63919" lon="-2.80211">
        <ele>17.5</ele>
        <time>2025-01-28T08:34:51Z</time>
      </trkpt>
      <trkpt lat="47.6392" lon="-2.80211">
        <ele>17.5</ele>
        <time>2025-01-28T08:34:52Z</time>
      </trkpt>
      <trkpt lat="47.63921" lon="-2.8021">
        <ele>17.4</ele>
        <time>2025-01-28T08:34:53Z</time>
      </trkpt>
      <trkpt lat="47.63922" lon="-2.8021">
        <ele>17.4</ele>
        <time>2025-01-28T08:34:54Z</time>
      </trkpt>
      <trkpt lat="47.63924" lon="-2.8021">
        <ele>17.3</ele>
        <time>2025-01-28T08:34:55Z</time>
      </trkpt>
      <trkpt lat="47.63925" lon="-2.80209">
        <ele>17.2</ele>
        <time>2025-01-28T08:34:56Z</time>
      </trkpt>
      <trkpt lat="47.63926" lon="-2.80208">
        <ele>17.2</ele>
        <time>2025-01-28T08:34:57Z</time>
      </trkpt>
      <trkpt lat="47.63927" lon="-2.80207">
        <ele>17.1</ele>
        <time>2025-01-28T08:34:58Z</time>
      </trkpt>
      <trkpt lat="47.63928" lon="-2.80206">
        <ele>17</ele>
        <time>2025-01-28T08:34:59Z</time>
      </trkpt>
      <trkpt lat="47.63929" lon="-2.80206">
        <ele>17</ele>
        <time>2025-01-28T08:35:00Z</time>
      </trkpt>
      <trkpt lat="47.63931" lon="-2.80206">
        <ele>16.9</ele>
        <time>2025-01-28T08:35:01Z</time>
      </trkpt>
      <trkpt lat="47.63932" lon="-2.80206">
        <ele>16.9</ele>
        <time>2025-01-28T08:35:02Z</time>
      </trkpt>
      <trkpt lat="47.63933" lon="-2.80206">
        <ele>16.8</ele>
        <time>2025-01-28T08:35:03Z</time>
      </trkpt>
      <trkpt lat="47.63934" lon="-2.80205">
        <ele>16.7</ele>
        <time>2025-01-28T08:35:04Z</time>
      </trkpt>
      <trkpt lat="47.63936" lon="-2.80205">
        <ele>16.7</ele>
        <time>2025-01-28T08:35:05Z</time>
      </trkpt>
      <trkpt lat="47.63937" lon="-2.80204">
        <ele>16.6</ele>
        <time>2025-01-28T08:35:06Z</time>
      </trkpt>
      <trkpt lat="47.63938" lon="-2.80203">
        <ele>16.5</ele>
        <time>2025-01-28T08:35:07Z</time>
      </trkpt>
      <trkpt lat="47.63939" lon="-2.80202">
        <ele>16.5</ele>
        <time>2025-01-28T08:35:08Z</time>
      </trkpt>
      <trkpt lat="47.6394" lon="-2.80202">
        <ele>16.4</ele>
        <time>2025-01-28T08:35:09Z</time>
      </trkpt>
      <trkpt lat="47.63942" lon="-2.80202">
        <ele>16.4</ele>
        <time>2025-01-28T08:35:10Z</time>
      </trkpt>
      <trkpt lat="47.63943" lon="-2.80201">
        <ele>16.3</ele>
        <time>2025-01-28T08:35:11Z</time>
      </trkpt>
      <trkpt lat="47.63944" lon="-2.80201">
        <ele>16.3</ele>
        <time>2025-01-28T08:35:12Z</time>
      </trkpt>
      <trkpt lat="47.63945" lon="-2.802">
        <ele>16.2</ele>
        <time>2025-01-28T08:35:13Z</time>
      </trkpt>
      <trkpt lat="47.63946" lon="-2.802">
        <ele>16.2</ele>
        <time>2025-01-28T08:35:14Z</time>
      </trkpt>
      <trkpt lat="47.63947" lon="-2.802">
        <ele>16.2</ele>
        <time>2025-01-28T08:35:15Z</time>
      </trkpt>
      <trkpt lat="47.63948" lon="-2.80199">
        <ele>16.2</ele>
        <time>2025-01-28T08:35:16Z</time>
      </trkpt>
      <trkpt lat="47.63949" lon="-2.80199">
        <ele>16.2</ele>
        <time>2025-01-28T08:35:17Z</time>
      </trkpt>
      <trkpt lat="47.63951" lon="-2.80199">
        <ele>16.2</ele>
        <time>2025-01-28T08:35:18Z</time>
      </trkpt>
      <trkpt lat="47.63952" lon="-2.80199">
        <ele>16.2</ele>
        <time>2025-01-28T08:35:19Z</time>
      </trkpt>
      <trkpt lat="47.63953" lon="-2.80198">
        <ele>16.1</ele>
        <time>2025-01-28T08:35:20Z</time>
      </trkpt>
      <trkpt lat="47.63954" lon="-2.80198">
        <ele>16.1</ele>
        <time>2025-01-28T08:35:21Z</time>
      </trkpt>
      <trkpt lat="47.63956" lon="-2.80197">
        <ele>16.1</ele>
        <time>2025-01-28T08:35:22Z</time>
      </trkpt>
      <trkpt lat="47.63957" lon="-2.80197">
        <ele>16.1</ele>
        <time>2025-01-28T08:35:23Z</time>
      </trkpt>
      <trkpt lat="47.63958" lon="-2.80197">
        <ele>16.1</ele>
        <time>2025-01-28T08:35:24Z</time>
      </trkpt>
      <trkpt lat="47.63959" lon="-2.80197">
        <ele>16.1</ele>
        <time>2025-01-28T08:35:25Z</time>
      </trkpt>
      <trkpt lat="47.6396" lon="-2.80196">
        <ele>16.1</ele>
        <time>2025-01-28T08:35:26Z</time>
      </trkpt>
      <trkpt lat="47.63961" lon="-2.80196">
        <ele>16.1</ele>
        <time>2025-01-28T08:35:27Z</time>
      </trkpt>
      <trkpt lat="47.63963" lon="-2.80196">
        <ele>16</ele>
        <time>2025-01-28T08:35:28Z</time>
      </trkpt>
      <trkpt lat="47.63964" lon="-2.80196">
        <ele>16</ele>
        <time>2025-01-28T08:35:29Z</time>
      </trkpt>
      <trkpt lat="47.63965" lon="-2.80196">
        <ele>16</ele>
        <time>2025-01-28T08:35:30Z</time>
      </trkpt>
      <trkpt lat="47.63966" lon="-2.80195">
        <ele>16</ele>
        <time>2025-01-28T08:35:31Z</time>
      </trkpt>
      <trkpt lat="47.63967" lon="-2.80194">
        <ele>16</ele>
        <time>2025-01-28T08:35:32Z</time>
      </trkpt>
      <trkpt lat="47.63968" lon="-2.80194">
        <ele>16</ele>
        <time>2025-01-28T08:35:33Z</time>
      </trkpt>
      <trkpt lat="47.6397" lon="-2.80194">
        <ele>16</ele>
        <time>2025-01-28T08:35:34Z</time>
      </trkpt>
      <trkpt lat="47.63971" lon="-2.80193">
        <ele>16</ele>
        <time>2025-01-28T08:35:35Z</time>
      </trkpt>
      <trkpt lat="47.63972" lon="-2.80193">
        <ele>16</ele>
        <time>2025-01-28T08:35:36Z</time>
      </trkpt>
      <trkpt lat="47.63973" lon="-2.80193">
        <ele>15.9</ele>
        <time>2025-01-28T08:35:37Z</time>
      </trkpt>
      <trkpt lat="47.63974" lon="-2.80192">
        <ele>15.8</ele>
        <time>2025-01-28T08:35:38Z</time>
      </trkpt>
      <trkpt lat="47.63975" lon="-2.80192">
        <ele>15.7</ele>
        <time>2025-01-28T08:35:39Z</time>
      </trkpt>
      <trkpt lat="47.63976" lon="-2.80192">
        <ele>15.6</ele>
        <time>2025-01-28T08:35:40Z</time>
      </trkpt>
      <trkpt lat="47.63978" lon="-2.80192">
        <ele>15.5</ele>
        <time>2025-01-28T08:35:41Z</time>
      </trkpt>
      <trkpt lat="47.63979" lon="-2.80191">
        <ele>15.4</ele>
        <time>2025-01-28T08:35:42Z</time>
      </trkpt>
      <trkpt lat="47.6398" lon="-2.8019">
        <ele>15.3</ele>
        <time>2025-01-28T08:35:43Z</time>
      </trkpt>
      <trkpt lat="47.63981" lon="-2.8019">
        <ele>15.2</ele>
        <time>2025-01-28T08:35:44Z</time>
      </trkpt>
      <trkpt lat="47.63982" lon="-2.80189">
        <ele>15.2</ele>
        <time>2025-01-28T08:35:45Z</time>
      </trkpt>
      <trkpt lat="47.63984" lon="-2.80189">
        <ele>15.1</ele>
        <time>2025-01-28T08:35:46Z</time>
      </trkpt>
      <trkpt lat="47.63985" lon="-2.80188">
        <ele>15</ele>
        <time>2025-01-28T08:35:47Z</time>
      </trkpt>
      <trkpt lat="47.63986" lon="-2.80188">
        <ele>14.9</ele>
        <time>2025-01-28T08:35:48Z</time>
      </trkpt>
      <trkpt lat="47.63988" lon="-2.80187">
        <ele>14.8</ele>
        <time>2025-01-28T08:35:49Z</time>
      </trkpt>
      <trkpt lat="47.63989" lon="-2.80187">
        <ele>14.7</ele>
        <time>2025-01-28T08:35:50Z</time>
      </trkpt>
      <trkpt lat="47.63991" lon="-2.80186">
        <ele>14.6</ele>
        <time>2025-01-28T08:35:51Z</time>
      </trkpt>
      <trkpt lat="47.63992" lon="-2.80186">
        <ele>14.5</ele>
        <time>2025-01-28T08:35:52Z</time>
      </trkpt>
      <trkpt lat="47.63994" lon="-2.80186">
        <ele>14.4</ele>
        <time>2025-01-28T08:35:53Z</time>
      </trkpt>
      <trkpt lat="47.63995" lon="-2.80185">
        <ele>14.3</ele>
        <time>2025-01-28T08:35:54Z</time>
      </trkpt>
      <trkpt lat="47.63996" lon="-2.80184">
        <ele>14.2</ele>
        <time>2025-01-28T08:35:55Z</time>
      </trkpt>
      <trkpt lat="47.63997" lon="-2.80184">
        <ele>14.2</ele>
        <time>2025-01-28T08:35:56Z</time>
      </trkpt>
      <trkpt lat="47.63999" lon="-2.80184">
        <ele>14.1</ele>
        <time>2025-01-28T08:35:57Z</time>
      </trkpt>
      <trkpt lat="47.64" lon="-2.80184">
        <ele>14</ele>
        <time>2025-01-28T08:35:58Z</time>
      </trkpt>
      <trkpt lat="47.64001" lon="-2.80183">
        <ele>13.9</ele>
        <time>2025-01-28T08:35:59Z</time>
      </trkpt>
      <trkpt lat="47.64002" lon="-2.80183">
        <ele>13.8</ele>
        <time>2025-01-28T08:36:00Z</time>
      </trkpt>
      <trkpt lat="47.64004" lon="-2.80183">
        <ele>13.7</ele>
        <time>2025-01-28T08:36:01Z</time>
      </trkpt>
      <trkpt lat="47.64005" lon="-2.80183">
        <ele>13.6</ele>
        <time>2025-01-28T08:36:02Z</time>
      </trkpt>
      <trkpt lat="47.64006" lon="-2.80182">
        <ele>13.6</ele>
        <time>2025-01-28T08:36:03Z</time>
      </trkpt>
      <trkpt lat="47.64007" lon="-2.80181">
        <ele>13.5</ele>
        <time>2025-01-28T08:36:04Z</time>
      </trkpt>
      <trkpt lat="47.64008" lon="-2.8018">
        <ele>13.4</ele>
        <time>2025-01-28T08:36:05Z</time>
      </trkpt>
      <trkpt lat="47.6401" lon="-2.8018">
        <ele>13.3</ele>
        <time>2025-01-28T08:36:06Z</time>
      </trkpt>
      <trkpt lat="47.64011" lon="-2.80179">
        <ele>13.2</ele>
        <time>2025-01-28T08:36:07Z</time>
      </trkpt>
      <trkpt lat="47.64012" lon="-2.80179">
        <ele>13.1</ele>
        <time>2025-01-28T08:36:08Z</time>
      </trkpt>
      <trkpt lat="47.64014" lon="-2.80179">
        <ele>13</ele>
        <time>2025-01-28T08:36:09Z</time>
      </trkpt>
      <trkpt lat="47.64015" lon="-2.80179">
        <ele>12.9</ele>
        <time>2025-01-28T08:36:10Z</time>
      </trkpt>
      <trkpt lat="47.64016" lon="-2.80178">
        <ele>12.8</ele>
        <time>2025-01-28T08:36:11Z</time>
      </trkpt>
      <trkpt lat="47.64017" lon="-2.80178">
        <ele>12.8</ele>
        <time>2025-01-28T08:36:12Z</time>
      </trkpt>
      <trkpt lat="47.64019" lon="-2.80178">
        <ele>12.7</ele>
        <time>2025-01-28T08:36:13Z</time>
      </trkpt>
      <trkpt lat="47.6402" lon="-2.80178">
        <ele>12.5</ele>
        <time>2025-01-28T08:36:14Z</time>
      </trkpt>
      <trkpt lat="47.64022" lon="-2.80178">
        <ele>12.4</ele>
        <time>2025-01-28T08:36:15Z</time>
      </trkpt>
      <trkpt lat="47.64023" lon="-2.80178">
        <ele>12.3</ele>
        <time>2025-01-28T08:36:16Z</time>
      </trkpt>
      <trkpt lat="47.64024" lon="-2.80177">
        <ele>12.2</ele>
        <time>2025-01-28T08:36:17Z</time>
      </trkpt>
      <trkpt lat="47.64026" lon="-2.80177">
        <ele>12.1</ele>
        <time>2025-01-28T08:36:18Z</time>
      </trkpt>
      <trkpt lat="47.64027" lon="-2.80177">
        <ele>12.1</ele>
        <time>2025-01-28T08:36:19Z</time>
      </trkpt>
      <trkpt lat="47.64028" lon="-2.80176">
        <ele>12</ele>
        <time>2025-01-28T08:36:20Z</time>
      </trkpt>
      <trkpt lat="47.6403" lon="-2.80176">
        <ele>11.9</ele>
        <time>2025-01-28T08:36:21Z</time>
      </trkpt>
      <trkpt lat="47.64031" lon="-2.80176">
        <ele>11.8</ele>
        <time>2025-01-28T08:36:22Z</time>
      </trkpt>
      <trkpt lat="47.64032" lon="-2.80177">
        <ele>11.8</ele>
        <time>2025-01-28T08:36:23Z</time>
      </trkpt>
      <trkpt lat="47.64033" lon="-2.80177">
        <ele>11.7</ele>
        <time>2025-01-28T08:36:24Z</time>
      </trkpt>
      <trkpt lat="47.64034" lon="-2.80177">
        <ele>11.7</ele>
        <time>2025-01-28T08:36:25Z</time>
      </trkpt>
      <trkpt lat="47.64036" lon="-2.80177">
        <ele>11.6</ele>
        <time>2025-01-28T08:36:26Z</time>
      </trkpt>
      <trkpt lat="47.64037" lon="-2.80177">
        <ele>11.5</ele>
        <time>2025-01-28T08:36:27Z</time>
      </trkpt>
      <trkpt lat="47.64038" lon="-2.80177">
        <ele>11.5</ele>
        <time>2025-01-28T08:36:28Z</time>
      </trkpt>
      <trkpt lat="47.6404" lon="-2.80177">
        <ele>11.4</ele>
        <time>2025-01-28T08:36:29Z</time>
      </trkpt>
      <trkpt lat="47.64041" lon="-2.80176">
        <ele>11.4</ele>
        <time>2025-01-28T08:36:30Z</time>
      </trkpt>
      <trkpt lat="47.64043" lon="-2.80176">
        <ele>11.3</ele>
        <time>2025-01-28T08:36:31Z</time>
      </trkpt>
      <trkpt lat="47.64044" lon="-2.80176">
        <ele>11.2</ele>
        <time>2025-01-28T08:36:32Z</time>
      </trkpt>
      <trkpt lat="47.64046" lon="-2.80176">
        <ele>11.1</ele>
        <time>2025-01-28T08:36:33Z</time>
      </trkpt>
      <trkpt lat="47.64047" lon="-2.80176">
        <ele>11.1</ele>
        <time>2025-01-28T08:36:34Z</time>
      </trkpt>
      <trkpt lat="47.64049" lon="-2.80177">
        <ele>11</ele>
        <time>2025-01-28T08:36:35Z</time>
      </trkpt>
      <trkpt lat="47.6405" lon="-2.80178">
        <ele>10.9</ele>
        <time>2025-01-28T08:36:36Z</time>
      </trkpt>
      <trkpt lat="47.64051" lon="-2.80178">
        <ele>10.8</ele>
        <time>2025-01-28T08:36:37Z</time>
      </trkpt>
      <trkpt lat="47.64053" lon="-2.80178">
        <ele>10.7</ele>
        <time>2025-01-28T08:36:38Z</time>
      </trkpt>
      <trkpt lat="47.64054" lon="-2.80177">
        <ele>10.7</ele>
        <time>2025-01-28T08:36:39Z</time>
      </trkpt>
      <trkpt lat="47.64055" lon="-2.80177">
        <ele>10.7</ele>
        <time>2025-01-28T08:36:40Z</time>
      </trkpt>
      <trkpt lat="47.64056" lon="-2.80177">
        <ele>10.6</ele>
        <time>2025-01-28T08:36:41Z</time>
      </trkpt>
      <trkpt lat="47.64057" lon="-2.80178">
        <ele>10.6</ele>
        <time>2025-01-28T08:36:42Z</time>
      </trkpt>
      <trkpt lat="47.64058" lon="-2.80179">
        <ele>10.5</ele>
        <time>2025-01-28T08:36:43Z</time>
      </trkpt>
      <trkpt lat="47.64059" lon="-2.80179">
        <ele>10.5</ele>
        <time>2025-01-28T08:36:44Z</time>
      </trkpt>
      <trkpt lat="47.64061" lon="-2.80179">
        <ele>10.5</ele>
        <time>2025-01-28T08:36:45Z</time>
      </trkpt>
      <trkpt lat="47.64062" lon="-2.80179">
        <ele>10.4</ele>
        <time>2025-01-28T08:36:46Z</time>
      </trkpt>
      <trkpt lat="47.64063" lon="-2.80178">
        <ele>10.4</ele>
        <time>2025-01-28T08:36:47Z</time>
      </trkpt>
      <trkpt lat="47.64064" lon="-2.80179">
        <ele>10.4</ele>
        <time>2025-01-28T08:36:48Z</time>
      </trkpt>
      <trkpt lat="47.64065" lon="-2.8018">
        <ele>10.3</ele>
        <time>2025-01-28T08:36:49Z</time>
      </trkpt>
      <trkpt lat="47.64066" lon="-2.8018">
        <ele>10.3</ele>
        <time>2025-01-28T08:36:50Z</time>
      </trkpt>
      <trkpt lat="47.64068" lon="-2.8018">
        <ele>10.3</ele>
        <time>2025-01-28T08:36:51Z</time>
      </trkpt>
      <trkpt lat="47.64069" lon="-2.8018">
        <ele>10.3</ele>
        <time>2025-01-28T08:36:52Z</time>
      </trkpt>
      <trkpt lat="47.6407" lon="-2.8018">
        <ele>10.2</ele>
        <time>2025-01-28T08:36:53Z</time>
      </trkpt>
      <trkpt lat="47.64071" lon="-2.8018">
        <ele>10.2</ele>
        <time>2025-01-28T08:36:54Z</time>
      </trkpt>
      <trkpt lat="47.64073" lon="-2.8018">
        <ele>10.2</ele>
        <time>2025-01-28T08:36:55Z</time>
      </trkpt>
      <trkpt lat="47.64074" lon="-2.80181">
        <ele>10.2</ele>
        <time>2025-01-28T08:36:56Z</time>
      </trkpt>
      <trkpt lat="47.64075" lon="-2.80181">
        <ele>10.1</ele>
        <time>2025-01-28T08:36:57Z</time>
      </trkpt>
      <trkpt lat="47.64076" lon="-2.80181">
        <ele>10.1</ele>
        <time>2025-01-28T08:36:58Z</time>
      </trkpt>
      <trkpt lat="47.64077" lon="-2.80181">
        <ele>10.1</ele>
        <time>2025-01-28T08:36:59Z</time>
      </trkpt>
      <trkpt lat="47.64079" lon="-2.80181">
        <ele>10.1</ele>
        <time>2025-01-28T08:37:00Z</time>
      </trkpt>
      <trkpt lat="47.6408" lon="-2.80181">
        <ele>10.1</ele>
        <time>2025-01-28T08:37:01Z</time>
      </trkpt>
      <trkpt lat="47.64081" lon="-2.80182">
        <ele>10</ele>
        <time>2025-01-28T08:37:02Z</time>
      </trkpt>
      <trkpt lat="47.64082" lon="-2.80181">
        <ele>10</ele>
        <time>2025-01-28T08:37:03Z</time>
      </trkpt>
      <trkpt lat="47.64083" lon="-2.8018">
        <ele>10</ele>
        <time>2025-01-28T08:37:04Z</time>
      </trkpt>
      <trkpt lat="47.64084" lon="-2.8018">
        <ele>10</ele>
        <time>2025-01-28T08:37:05Z</time>
      </trkpt>
      <trkpt lat="47.64086" lon="-2.8018">
        <ele>10</ele>
        <time>2025-01-28T08:37:06Z</time>
      </trkpt>
      <trkpt lat="47.64087" lon="-2.80181">
        <ele>10</ele>
        <time>2025-01-28T08:37:07Z</time>
      </trkpt>
      <trkpt lat="47.64089" lon="-2.80181">
        <ele>10</ele>
        <time>2025-01-28T08:37:08Z</time>
      </trkpt>
      <trkpt lat="47.6409" lon="-2.80181">
        <ele>10</ele>
        <time>2025-01-28T08:37:09Z</time>
      </trkpt>
      <trkpt lat="47.64091" lon="-2.80181">
        <ele>10</ele>
        <time>2025-01-28T08:37:10Z</time>
      </trkpt>
      <trkpt lat="47.64093" lon="-2.80181">
        <ele>10</ele>
        <time>2025-01-28T08:37:11Z</time>
      </trkpt>
      <trkpt lat="47.64095" lon="-2.80181">
        <ele>10</ele>
        <time>2025-01-28T08:37:12Z</time>
      </trkpt>
      <trkpt lat="47.64096" lon="-2.80181">
        <ele>10</ele>
        <time>2025-01-28T08:37:13Z</time>
      </trkpt>
      <trkpt lat="47.64097" lon="-2.80182">
        <ele>10</ele>
        <time>2025-01-28T08:37:14Z</time>
      </trkpt>
      <trkpt lat="47.64098" lon="-2.80183">
        <ele>10</ele>
        <time>2025-01-28T08:37:15Z</time>
      </trkpt>
      <trkpt lat="47.641" lon="-2.80184">
        <ele>10</ele>
        <time>2025-01-28T08:37:16Z</time>
      </trkpt>
      <trkpt lat="47.64101" lon="-2.80184">
        <ele>10</ele>
        <time>2025-01-28T08:37:17Z</time>
      </trkpt>
      <trkpt lat="47.64102" lon="-2.80185">
        <ele>10</ele>
        <time>2025-01-28T08:37:18Z</time>
      </trkpt>
      <trkpt lat="47.64104" lon="-2.80185">
        <ele>10</ele>
        <time>2025-01-28T08:37:19Z</time>
      </trkpt>
      <trkpt lat="47.64105" lon="-2.80186">
        <ele>10</ele>
        <time>2025-01-28T08:37:20Z</time>
      </trkpt>
      <trkpt lat="47.64107" lon="-2.80187">
        <ele>10</ele>
        <time>2025-01-28T08:37:21Z</time>
      </trkpt>
      <trkpt lat="47.64108" lon="-2.80187">
        <ele>10</ele>
        <time>2025-01-28T08:37:22Z</time>
      </trkpt>
      <trkpt lat="47.64109" lon="-2.80187">
        <ele>10</ele>
        <time>2025-01-28T08:37:23Z</time>
      </trkpt>
      <trkpt lat="47.64111" lon="-2.80188">
        <ele>10</ele>
        <time>2025-01-28T08:37:24Z</time>
      </trkpt>
      <trkpt lat="47.64112" lon="-2.80188">
        <ele>10</ele>
        <time>2025-01-28T08:37:25Z</time>
      </trkpt>
      <trkpt lat="47.64114" lon="-2.80189">
        <ele>10</ele>
        <time>2025-01-28T08:37:26Z</time>
      </trkpt>
      <trkpt lat="47.64115" lon="-2.80189">
        <ele>10</ele>
        <time>2025-01-28T08:37:27Z</time>
      </trkpt>
      <trkpt lat="47.64116" lon="-2.80189">
        <ele>10</ele>
        <time>2025-01-28T08:37:28Z</time>
      </trkpt>
      <trkpt lat="47.64113" lon="-2.80188">
        <ele>10</ele>
        <time>2025-01-28T08:37:29Z</time>
      </trkpt>
      <trkpt lat="47.64112" lon="-2.80188">
        <ele>10</ele>
        <time>2025-01-28T08:37:30Z</time>
      </trkpt>
      <trkpt lat="47.64113" lon="-2.80188">
        <ele>10</ele>
        <time>2025-01-28T08:37:31Z</time>
      </trkpt>
      <trkpt lat="47.64114" lon="-2.80187">
        <ele>10</ele>
        <time>2025-01-28T08:37:32Z</time>
      </trkpt>
      <trkpt lat="47.64115" lon="-2.80187">
        <ele>10</ele>
        <time>2025-01-28T08:37:33Z</time>
      </trkpt>
      <trkpt lat="47.64116" lon="-2.80187">
        <ele>10</ele>
        <time>2025-01-28T08:37:34Z</time>
      </trkpt>
      <trkpt lat="47.64117" lon="-2.80187">
        <ele>10</ele>
        <time>2025-01-28T08:37:35Z</time>
      </trkpt>
      <trkpt lat="47.64119" lon="-2.80186">
        <ele>10</ele>
        <time>2025-01-28T08:37:36Z</time>
      </trkpt>
      <trkpt lat="47.6412" lon="-2.80186">
        <ele>10</ele>
        <time>2025-01-28T08:37:37Z</time>
      </trkpt>
      <trkpt lat="47.64121" lon="-2.80184">
        <ele>10</ele>
        <time>2025-01-28T08:37:38Z</time>
      </trkpt>
      <trkpt lat="47.64121" lon="-2.80183">
        <ele>10</ele>
        <time>2025-01-28T08:37:39Z</time>
      </trkpt>
      <trkpt lat="47.64121" lon="-2.80182">
        <ele>10</ele>
        <time>2025-01-28T08:37:40Z</time>
      </trkpt>
      <trkpt lat="47.64122" lon="-2.8018">
        <ele>10</ele>
        <time>2025-01-28T08:37:41Z</time>
      </trkpt>
      <trkpt lat="47.64122" lon="-2.80179">
        <ele>10</ele>
        <time>2025-01-28T08:37:42Z</time>
      </trkpt>
      <trkpt lat="47.64124" lon="-2.80178">
        <ele>10</ele>
        <time>2025-01-28T08:37:43Z</time>
      </trkpt>
      <trkpt lat="47.64125" lon="-2.80178">
        <ele>10</ele>
        <time>2025-01-28T08:37:44Z</time>
      </trkpt>
      <trkpt lat="47.64126" lon="-2.80176">
        <ele>10</ele>
        <time>2025-01-28T08:37:45Z</time>
      </trkpt>
      <trkpt lat="47.64127" lon="-2.80175">
        <ele>10</ele>
        <time>2025-01-28T08:37:46Z</time>
      </trkpt>
      <trkpt lat="47.64127" lon="-2.80174">
        <ele>10</ele>
        <time>2025-01-28T08:37:47Z</time>
      </trkpt>
      <trkpt lat="47.64128" lon="-2.80173">
        <ele>10</ele>
        <time>2025-01-28T08:37:48Z</time>
      </trkpt>
      <trkpt lat="47.64129" lon="-2.80172">
        <ele>10</ele>
        <time>2025-01-28T08:37:49Z</time>
      </trkpt>
      <trkpt lat="47.6413" lon="-2.80171">
        <ele>10</ele>
        <time>2025-01-28T08:37:50Z</time>
      </trkpt>
      <trkpt lat="47.64131" lon="-2.8017">
        <ele>10</ele>
        <time>2025-01-28T08:37:51Z</time>
      </trkpt>
      <trkpt lat="47.64132" lon="-2.80169">
        <ele>10</ele>
        <time>2025-01-28T08:37:52Z</time>
      </trkpt>
      <trkpt lat="47.64133" lon="-2.80168">
        <ele>10</ele>
        <time>2025-01-28T08:37:53Z</time>
      </trkpt>
      <trkpt lat="47.64132" lon="-2.80169">
        <ele>10</ele>
        <time>2025-01-28T08:37:54Z</time>
      </trkpt>
      <trkpt lat="47.64132" lon="-2.80169">
        <ele>10</ele>
        <time>2025-01-28T08:37:55Z</time>
      </trkpt>
      <trkpt lat="47.64132" lon="-2.80169">
        <ele>10</ele>
        <time>2025-01-28T08:37:56Z</time>
      </trkpt>
      <trkpt lat="47.64132" lon="-2.80169">
        <ele>10</ele>
        <time>2025-01-28T08:37:57Z</time>
      </trkpt>
      <trkpt lat="47.64132" lon="-2.80169">
        <ele>10</ele>
        <time>2025-01-28T08:37:58Z</time>
      </trkpt>
      <trkpt lat="47.64132" lon="-2.80169">
        <ele>10</ele>
        <time>2025-01-28T08:37:59Z</time>
      </trkpt>
      <trkpt lat="47.64132" lon="-2.80169">
        <ele>10</ele>
        <time>2025-01-28T08:38:00Z</time>
      </trkpt>
      <trkpt lat="47.64132" lon="-2.80169">
        <ele>10</ele>
        <time>2025-01-28T08:38:01Z</time>
      </trkpt>
      <trkpt lat="47.64132" lon="-2.80169">
        <ele>10</ele>
        <time>2025-01-28T08:38:02Z</time>
      </trkpt>
      <trkpt lat="47.64132" lon="-2.80169">
        <ele>10</ele>
        <time>2025-01-28T08:38:03Z</time>
      </trkpt>
      <trkpt lat="47.64132" lon="-2.80169">
        <ele>10</ele>
        <time>2025-01-28T08:38:04Z</time>
      </trkpt>
      <trkpt lat="47.64132" lon="-2.80169">
        <ele>10</ele>
        <time>2025-01-28T08:38:05Z</time>
      </trkpt>
      <trkpt lat="47.64132" lon="-2.80169">
        <ele>10</ele>
        <time>2025-01-28T08:38:06Z</time>
      </trkpt>
      <trkpt lat="47.64131" lon="-2.80169">
        <ele>10</ele>
        <time>2025-01-28T08:38:07Z</time>
      </trkpt>
      <trkpt lat="47.64131" lon="-2.80169">
        <ele>10</ele>
        <time>2025-01-28T08:38:08Z</time>
      </trkpt>
      <trkpt lat="47.64131" lon="-2.80169">
        <ele>10</ele>
        <time>2025-01-28T08:38:09Z</time>
      </trkpt>
      <trkpt lat="47.64131" lon="-2.80168">
        <ele>10</ele>
        <time>2025-01-28T08:38:10Z</time>
      </trkpt>
      <trkpt lat="47.64131" lon="-2.80168">
        <ele>10</ele>
        <time>2025-01-28T08:38:11Z</time>
      </trkpt>
      <trkpt lat="47.6413" lon="-2.80167">
        <ele>10</ele>
        <time>2025-01-28T08:38:12Z</time>
      </trkpt>
      <trkpt lat="47.6413" lon="-2.80167">
        <ele>10</ele>
        <time>2025-01-28T08:38:13Z</time>
      </trkpt>
      <trkpt lat="47.6413" lon="-2.80167">
        <ele>10</ele>
        <time>2025-01-28T08:38:14Z</time>
      </trkpt>
      <trkpt lat="47.6413" lon="-2.80167">
        <ele>10</ele>
        <time>2025-01-28T08:38:15Z</time>
      </trkpt>
      <trkpt lat="47.6413" lon="-2.80167">
        <ele>10</ele>
        <time>2025-01-28T08:38:16Z</time>
      </trkpt>
      <trkpt lat="47.6413" lon="-2.80167">
        <ele>10</ele>
        <time>2025-01-28T08:38:17Z</time>
      </trkpt>
      <trkpt lat="47.6413" lon="-2.80167">
        <ele>10</ele>
        <time>2025-01-28T08:38:18Z</time>
      </trkpt>
      <trkpt lat="47.6413" lon="-2.80167">
        <ele>10</ele>
        <time>2025-01-28T08:38:19Z</time>
      </trkpt>
      <trkpt lat="47.6413" lon="-2.80167">
        <ele>10</ele>
        <time>2025-01-28T08:38:20Z</time>
      </trkpt>
      <trkpt lat="47.6413" lon="-2.80167">
        <ele>10</ele>
        <time>2025-01-28T08:38:21Z</time>
      </trkpt>
      <trkpt lat="47.64131" lon="-2.80167">
        <ele>10</ele>
        <time>2025-01-28T08:38:22Z</time>
      </trkpt>
      <trkpt lat="47.64131" lon="-2.80166">
        <ele>10</ele>
        <time>2025-01-28T08:38:23Z</time>
      </trkpt>
      <trkpt lat="47.64132" lon="-2.80166">
        <ele>10</ele>
        <time>2025-01-28T08:38:24Z</time>
      </trkpt>
      <trkpt lat="47.64133" lon="-2.80164">
        <ele>10</ele>
        <time>2025-01-28T08:38:25Z</time>
      </trkpt>
      <trkpt lat="47.64133" lon="-2.80164">
        <ele>10</ele>
        <time>2025-01-28T08:38:26Z</time>
      </trkpt>
      <trkpt lat="47.64133" lon="-2.80164">
        <ele>10</ele>
        <time>2025-01-28T08:38:27Z</time>
      </trkpt>
      <trkpt lat="47.64133" lon="-2.80164">
        <ele>10</ele>
        <time>2025-01-28T08:38:28Z</time>
      </trkpt>
      <trkpt lat="47.64134" lon="-2.80163">
        <ele>10</ele>
        <time>2025-01-28T08:38:29Z</time>
      </trkpt>
      <trkpt lat="47.64134" lon="-2.80163">
        <ele>10</ele>
        <time>2025-01-28T08:38:30Z</time>
      </trkpt>
      <trkpt lat="47.64134" lon="-2.80162">
        <ele>10</ele>
        <time>2025-01-28T08:38:31Z</time>
      </trkpt>
      <trkpt lat="47.64134" lon="-2.80162">
        <ele>10</ele>
        <time>2025-01-28T08:38:32Z</time>
      </trkpt>
      <trkpt lat="47.64134" lon="-2.80161">
        <ele>10</ele>
        <time>2025-01-28T08:38:33Z</time>
      </trkpt>
      <trkpt lat="47.64134" lon="-2.80162">
        <ele>10</ele>
        <time>2025-01-28T08:38:34Z</time>
      </trkpt>
      <trkpt lat="47.64134" lon="-2.80162">
        <ele>10</ele>
        <time>2025-01-28T08:38:35Z</time>
      </trkpt>
      <trkpt lat="47.64134" lon="-2.80162">
        <ele>10</ele>
        <time>2025-01-28T08:38:36Z</time>
      </trkpt>
      <trkpt lat="47.64134" lon="-2.80162">
        <ele>10</ele>
        <time>2025-01-28T08:38:37Z</time>
      </trkpt>
      <trkpt lat="47.64135" lon="-2.80162">
        <ele>10</ele>
        <time>2025-01-28T08:38:38Z</time>
      </trkpt>
      <trkpt lat="47.64137" lon="-2.80161">
        <ele>10</ele>
        <time>2025-01-28T08:38:39Z</time>
      </trkpt>
      <trkpt lat="47.64138" lon="-2.80161">
        <ele>10</ele>
        <time>2025-01-28T08:38:40Z</time>
      </trkpt>
      <trkpt lat="47.64139" lon="-2.8016">
        <ele>10</ele>
        <time>2025-01-28T08:38:41Z</time>
      </trkpt>
      <trkpt lat="47.6414" lon="-2.80159">
        <ele>10</ele>
        <time>2025-01-28T08:38:42Z</time>
      </trkpt>
      <trkpt lat="47.64142" lon="-2.80159">
        <ele>10.1</ele>
        <time>2025-01-28T08:38:43Z</time>
      </trkpt>
      <trkpt lat="47.64143" lon="-2.80159">
        <ele>10.1</ele>
        <time>2025-01-28T08:38:44Z</time>
      </trkpt>
      <trkpt lat="47.64144" lon="-2.80158">
        <ele>10.1</ele>
        <time>2025-01-28T08:38:45Z</time>
      </trkpt>
      <trkpt lat="47.64145" lon="-2.80158">
        <ele>10.1</ele>
        <time>2025-01-28T08:38:46Z</time>
      </trkpt>
      <trkpt lat="47.64146" lon="-2.80157">
        <ele>10.2</ele>
        <time>2025-01-28T08:38:47Z</time>
      </trkpt>
      <trkpt lat="47.64147" lon="-2.80156">
        <ele>10.2</ele>
        <time>2025-01-28T08:38:48Z</time>
      </trkpt>
      <trkpt lat="47.64148" lon="-2.80157">
        <ele>10.2</ele>
        <time>2025-01-28T08:38:49Z</time>
      </trkpt>
      <trkpt lat="47.64149" lon="-2.80157">
        <ele>10.2</ele>
        <time>2025-01-28T08:38:50Z</time>
      </trkpt>
      <trkpt lat="47.64149" lon="-2.80158">
        <ele>10.3</ele>
        <time>2025-01-28T08:38:51Z</time>
      </trkpt>
      <trkpt lat="47.6415" lon="-2.80159">
        <ele>10.3</ele>
        <time>2025-01-28T08:38:52Z</time>
      </trkpt>
      <trkpt lat="47.64151" lon="-2.80159">
        <ele>10.3</ele>
        <time>2025-01-28T08:38:53Z</time>
      </trkpt>
      <trkpt lat="47.64152" lon="-2.80158">
        <ele>10.3</ele>
        <time>2025-01-28T08:38:54Z</time>
      </trkpt>
      <trkpt lat="47.64153" lon="-2.80157">
        <ele>10.3</ele>
        <time>2025-01-28T08:38:55Z</time>
      </trkpt>
      <trkpt lat="47.64153" lon="-2.80156">
        <ele>10.3</ele>
        <time>2025-01-28T08:38:56Z</time>
      </trkpt>
      <trkpt lat="47.64154" lon="-2.80156">
        <ele>10.3</ele>
        <time>2025-01-28T08:38:57Z</time>
      </trkpt>
      <trkpt lat="47.64155" lon="-2.80156">
        <ele>10.3</ele>
        <time>2025-01-28T08:38:58Z</time>
      </trkpt>
      <trkpt lat="47.64156" lon="-2.80155">
        <ele>10.4</ele>
        <time>2025-01-28T08:38:59Z</time>
      </trkpt>
      <trkpt lat="47.64156" lon="-2.80155">
        <ele>10.4</ele>
        <time>2025-01-28T08:39:00Z</time>
      </trkpt>
      <trkpt lat="47.64157" lon="-2.80155">
        <ele>10.4</ele>
        <time>2025-01-28T08:39:01Z</time>
      </trkpt>
      <trkpt lat="47.64158" lon="-2.80155">
        <ele>10.4</ele>
        <time>2025-01-28T08:39:02Z</time>
      </trkpt>
      <trkpt lat="47.64158" lon="-2.80155">
        <ele>10.4</ele>
        <time>2025-01-28T08:39:03Z</time>
      </trkpt>
      <trkpt lat="47.64159" lon="-2.80155">
        <ele>10.4</ele>
        <time>2025-01-28T08:39:04Z</time>
      </trkpt>
      <trkpt lat="47.64159" lon="-2.80155">
        <ele>10.4</ele>
        <time>2025-01-28T08:39:05Z</time>
      </trkpt>
      <trkpt lat="47.6416" lon="-2.80154">
        <ele>10.4</ele>
        <time>2025-01-28T08:39:06Z</time>
      </trkpt>
      <trkpt lat="47.64161" lon="-2.80154">
        <ele>10.4</ele>
        <time>2025-01-28T08:39:07Z</time>
      </trkpt>
      <trkpt lat="47.64162" lon="-2.80154">
        <ele>10.4</ele>
        <time>2025-01-28T08:39:08Z</time>
      </trkpt>
      <trkpt lat="47.64163" lon="-2.80153">
        <ele>10.4</ele>
        <time>2025-01-28T08:39:09Z</time>
      </trkpt>
      <trkpt lat="47.64163" lon="-2.80153">
        <ele>10.4</ele>
        <time>2025-01-28T08:39:10Z</time>
      </trkpt>
      <trkpt lat="47.64164" lon="-2.80152">
        <ele>10.4</ele>
        <time>2025-01-28T08:39:11Z</time>
      </trkpt>
      <trkpt lat="47.64165" lon="-2.80151">
        <ele>10.4</ele>
        <time>2025-01-28T08:39:12Z</time>
      </trkpt>
      <trkpt lat="47.64166" lon="-2.8015">
        <ele>10.4</ele>
        <time>2025-01-28T08:39:13Z</time>
      </trkpt>
      <trkpt lat="47.64166" lon="-2.8015">
        <ele>10.4</ele>
        <time>2025-01-28T08:39:14Z</time>
      </trkpt>
      <trkpt lat="47.64166" lon="-2.80149">
        <ele>10.3</ele>
        <time>2025-01-28T08:39:15Z</time>
      </trkpt>
      <trkpt lat="47.64168" lon="-2.80148">
        <ele>10.4</ele>
        <time>2025-01-28T08:39:16Z</time>
      </trkpt>
      <trkpt lat="47.64168" lon="-2.80147">
        <ele>10.4</ele>
        <time>2025-01-28T08:39:17Z</time>
      </trkpt>
      <trkpt lat="47.64169" lon="-2.80147">
        <ele>10.4</ele>
        <time>2025-01-28T08:39:18Z</time>
      </trkpt>
      <trkpt lat="47.64169" lon="-2.80148">
        <ele>10.5</ele>
        <time>2025-01-28T08:39:19Z</time>
      </trkpt>
      <trkpt lat="47.6417" lon="-2.80148">
        <ele>10.5</ele>
        <time>2025-01-28T08:39:20Z</time>
      </trkpt>
      <trkpt lat="47.6417" lon="-2.80148">
        <ele>10.5</ele>
        <time>2025-01-28T08:39:21Z</time>
      </trkpt>
      <trkpt lat="47.64171" lon="-2.80148">
        <ele>10.6</ele>
        <time>2025-01-28T08:39:22Z</time>
      </trkpt>
      <trkpt lat="47.64172" lon="-2.80147">
        <ele>10.6</ele>
        <time>2025-01-28T08:39:23Z</time>
      </trkpt>
      <trkpt lat="47.64171" lon="-2.80147">
        <ele>10.6</ele>
        <time>2025-01-28T08:39:24Z</time>
      </trkpt>
      <trkpt lat="47.64171" lon="-2.80147">
        <ele>10.6</ele>
        <time>2025-01-28T08:39:25Z</time>
      </trkpt>
      <trkpt lat="47.64171" lon="-2.80147">
        <ele>10.6</ele>
        <time>2025-01-28T08:39:26Z</time>
      </trkpt>
      <trkpt lat="47.64172" lon="-2.80147">
        <ele>10.6</ele>
        <time>2025-01-28T08:39:27Z</time>
      </trkpt>
      <trkpt lat="47.64173" lon="-2.80146">
        <ele>10.7</ele>
        <time>2025-01-28T08:39:28Z</time>
      </trkpt>
      <trkpt lat="47.64172" lon="-2.80143">
        <ele>10.5</ele>
        <time>2025-01-28T08:39:29Z</time>
      </trkpt>
      <trkpt lat="47.64175" lon="-2.80137">
        <ele>10.7</ele>
        <time>2025-01-28T08:39:30Z</time>
      </trkpt>
      <trkpt lat="47.64177" lon="-2.80135">
        <ele>10.9</ele>
        <time>2025-01-28T08:39:31Z</time>
      </trkpt>
      <trkpt lat="47.64179" lon="-2.80135">
        <ele>11</ele>
        <time>2025-01-28T08:39:32Z</time>
      </trkpt>
      <trkpt lat="47.6418" lon="-2.80137">
        <ele>11</ele>
        <time>2025-01-28T08:39:33Z</time>
      </trkpt>
      <trkpt lat="47.64181" lon="-2.80138">
        <ele>11</ele>
        <time>2025-01-28T08:39:34Z</time>
      </trkpt>
      <trkpt lat="47.64181" lon="-2.80138">
        <ele>11.1</ele>
        <time>2025-01-28T08:39:35Z</time>
      </trkpt>
      <trkpt lat="47.64181" lon="-2.80139">
        <ele>11</ele>
        <time>2025-01-28T08:39:36Z</time>
      </trkpt>
      <trkpt lat="47.64181" lon="-2.80141">
        <ele>11.1</ele>
        <time>2025-01-28T08:39:37Z</time>
      </trkpt>
      <trkpt lat="47.64182" lon="-2.8014">
        <ele>11.1</ele>
        <time>2025-01-28T08:39:38Z</time>
      </trkpt>
      <trkpt lat="47.64183" lon="-2.8014">
        <ele>11.2</ele>
        <time>2025-01-28T08:39:39Z</time>
      </trkpt>
      <trkpt lat="47.6418" lon="-2.8014">
        <ele>11</ele>
        <time>2025-01-28T08:39:40Z</time>
      </trkpt>
      <trkpt lat="47.64179" lon="-2.8014">
        <ele>10.9</ele>
        <time>2025-01-28T08:39:41Z</time>
      </trkpt>
      <trkpt lat="47.64179" lon="-2.8014">
        <ele>10.9</ele>
        <time>2025-01-28T08:39:42Z</time>
      </trkpt>
      <trkpt lat="47.64179" lon="-2.8014">
        <ele>10.9</ele>
        <time>2025-01-28T08:39:43Z</time>
      </trkpt>
      <trkpt lat="47.64179" lon="-2.8014">
        <ele>10.9</ele>
        <time>2025-01-28T08:39:44Z</time>
      </trkpt>
      <trkpt lat="47.64179" lon="-2.8014">
        <ele>10.9</ele>
        <time>2025-01-28T08:39:45Z</time>
      </trkpt>
      <trkpt lat="47.64179" lon="-2.8014">
        <ele>10.9</ele>
        <time>2025-01-28T08:39:46Z</time>
      </trkpt>
      <trkpt lat="47.64179" lon="-2.8014">
        <ele>10.9</ele>
        <time>2025-01-28T08:39:47Z</time>
      </trkpt>
      <trkpt lat="47.64179" lon="-2.8014">
        <ele>10.9</ele>
        <time>2025-01-28T08:39:48Z</time>
      </trkpt>
      <trkpt lat="47.64179" lon="-2.8014">
        <ele>10.9</ele>
        <time>2025-01-28T08:39:49Z</time>
      </trkpt>
      <trkpt lat="47.64179" lon="-2.8014">
        <ele>10.9</ele>
        <time>2025-01-28T08:39:50Z</time>
      </trkpt>
      <trkpt lat="47.64179" lon="-2.8014">
        <ele>10.9</ele>
        <time>2025-01-28T08:39:51Z</time>
      </trkpt>
      <trkpt lat="47.64179" lon="-2.8014">
        <ele>10.9</ele>
        <time>2025-01-28T08:39:52Z</time>
      </trkpt>
      <trkpt lat="47.64179" lon="-2.8014">
        <ele>10.9</ele>
        <time>2025-01-28T08:39:53Z</time>
      </trkpt>
      <trkpt lat="47.64179" lon="-2.8014">
        <ele>10.9</ele>
        <time>2025-01-28T08:39:54Z</time>
      </trkpt>
      <trkpt lat="47.64179" lon="-2.8014">
        <ele>10.9</ele>
        <time>2025-01-28T08:39:55Z</time>
      </trkpt>
      <trkpt lat="47.64179" lon="-2.8014">
        <ele>10.9</ele>
        <time>2025-01-28T08:39:56Z</time>
      </trkpt>
      <trkpt lat="47.64179" lon="-2.8014">
        <ele>10.9</ele>
        <time>2025-01-28T08:39:57Z</time>
      </trkpt>
      <trkpt lat="47.64179" lon="-2.8014">
        <ele>10.9</ele>
        <time>2025-01-28T08:39:58Z</time>
      </trkpt>
      <trkpt lat="47.64179" lon="-2.8014">
        <ele>10.9</ele>
        <time>2025-01-28T08:39:59Z</time>
      </trkpt>
      <trkpt lat="47.64179" lon="-2.8014">
        <ele>10.9</ele>
        <time>2025-01-28T08:40:00Z</time>
      </trkpt>
      <trkpt lat="47.64179" lon="-2.8014">
        <ele>10.9</ele>
        <time>2025-01-28T08:40:01Z</time>
      </trkpt>
      <trkpt lat="47.64179" lon="-2.8014">
        <ele>10.9</ele>
        <time>2025-01-28T08:40:02Z</time>
      </trkpt>
      <trkpt lat="47.64179" lon="-2.80141">
        <ele>10.9</ele>
        <time>2025-01-28T08:40:03Z</time>
      </trkpt>
      <trkpt lat="47.64178" lon="-2.80142">
        <ele>10.9</ele>
        <time>2025-01-28T08:40:04Z</time>
      </trkpt>
      <trkpt lat="47.64178" lon="-2.80142">
        <ele>10.9</ele>
        <time>2025-01-28T08:40:05Z</time>
      </trkpt>
      <trkpt lat="47.64178" lon="-2.80143">
        <ele>10.9</ele>
        <time>2025-01-28T08:40:06Z</time>
      </trkpt>
      <trkpt lat="47.64178" lon="-2.80143">
        <ele>10.9</ele>
        <time>2025-01-28T08:40:07Z</time>
      </trkpt>
      <trkpt lat="47.64178" lon="-2.80143">
        <ele>10.9</ele>
        <time>2025-01-28T08:40:08Z</time>
      </trkpt>
      <trkpt lat="47.64178" lon="-2.80143">
        <ele>10.9</ele>
        <time>2025-01-28T08:40:09Z</time>
      </trkpt>
      <trkpt lat="47.64177" lon="-2.80142">
        <ele>10.8</ele>
        <time>2025-01-28T08:40:10Z</time>
      </trkpt>
      <trkpt lat="47.64177" lon="-2.80141">
        <ele>10.8</ele>
        <time>2025-01-28T08:40:11Z</time>
      </trkpt>
      <trkpt lat="47.64177" lon="-2.80141">
        <ele>10.8</ele>
        <time>2025-01-28T08:40:12Z</time>
      </trkpt>
      <trkpt lat="47.64177" lon="-2.80141">
        <ele>10.8</ele>
        <time>2025-01-28T08:40:13Z</time>
      </trkpt>
      <trkpt lat="47.64177" lon="-2.80141">
        <ele>10.8</ele>
        <time>2025-01-28T08:40:14Z</time>
      </trkpt>
      <trkpt lat="47.64177" lon="-2.80141">
        <ele>10.8</ele>
        <time>2025-01-28T08:40:15Z</time>
      </trkpt>
      <trkpt lat="47.64177" lon="-2.80141">
        <ele>10.8</ele>
        <time>2025-01-28T08:40:16Z</time>
      </trkpt>
      <trkpt lat="47.64177" lon="-2.80141">
        <ele>10.8</ele>
        <time>2025-01-28T08:40:17Z</time>
      </trkpt>
      <trkpt lat="47.64177" lon="-2.80141">
        <ele>10.8</ele>
        <time>2025-01-28T08:40:18Z</time>
      </trkpt>
      <trkpt lat="47.64177" lon="-2.80141">
        <ele>10.8</ele>
        <time>2025-01-28T08:40:19Z</time>
      </trkpt>
      <trkpt lat="47.64177" lon="-2.80141">
        <ele>10.8</ele>
        <time>2025-01-28T08:40:20Z</time>
      </trkpt>
      <trkpt lat="47.64177" lon="-2.80141">
        <ele>10.8</ele>
        <time>2025-01-28T08:40:21Z</time>
      </trkpt>
      <trkpt lat="47.64177" lon="-2.80141">
        <ele>10.8</ele>
        <time>2025-01-28T08:40:22Z</time>
      </trkpt>
      <trkpt lat="47.64177" lon="-2.80141">
        <ele>10.8</ele>
        <time>2025-01-28T08:40:23Z</time>
      </trkpt>
      <trkpt lat="47.64177" lon="-2.80141">
        <ele>10.8</ele>
        <time>2025-01-28T08:40:24Z</time>
      </trkpt>
      <trkpt lat="47.64177" lon="-2.80141">
        <ele>10.8</ele>
        <time>2025-01-28T08:40:25Z</time>
      </trkpt>
      <trkpt lat="47.64177" lon="-2.80141">
        <ele>10.8</ele>
        <time>2025-01-28T08:40:26Z</time>
      </trkpt>
      <trkpt lat="47.64177" lon="-2.80141">
        <ele>10.8</ele>
        <time>2025-01-28T08:40:27Z</time>
      </trkpt>
      <trkpt lat="47.64177" lon="-2.80141">
        <ele>10.8</ele>
        <time>2025-01-28T08:40:28Z</time>
      </trkpt>
      <trkpt lat="47.64177" lon="-2.80141">
        <ele>10.8</ele>
        <time>2025-01-28T08:40:29Z</time>
      </trkpt>
      <trkpt lat="47.64177" lon="-2.80141">
        <ele>10.8</ele>
        <time>2025-01-28T08:40:30Z</time>
      </trkpt>
      <trkpt lat="47.64177" lon="-2.80141">
        <ele>10.8</ele>
        <time>2025-01-28T08:40:31Z</time>
      </trkpt>
      <trkpt lat="47.64177" lon="-2.80141">
        <ele>10.8</ele>
        <time>2025-01-28T08:40:32Z</time>
      </trkpt>
      <trkpt lat="47.64177" lon="-2.80141">
        <ele>10.8</ele>
        <time>2025-01-28T08:40:33Z</time>
      </trkpt>
      <trkpt lat="47.64177" lon="-2.80141">
        <ele>10.8</ele>
        <time>2025-01-28T08:40:34Z</time>
      </trkpt>
      <trkpt lat="47.64177" lon="-2.80141">
        <ele>10.8</ele>
        <time>2025-01-28T08:40:35Z</time>
      </trkpt>
      <trkpt lat="47.64177" lon="-2.80142">
        <ele>10.8</ele>
        <time>2025-01-28T08:40:36Z</time>
      </trkpt>
      <trkpt lat="47.64178" lon="-2.80142">
        <ele>10.9</ele>
        <time>2025-01-28T08:40:37Z</time>
      </trkpt>
      <trkpt lat="47.64178" lon="-2.80143">
        <ele>10.9</ele>
        <time>2025-01-28T08:40:38Z</time>
      </trkpt>
      <trkpt lat="47.64178" lon="-2.80143">
        <ele>10.9</ele>
        <time>2025-01-28T08:40:39Z</time>
      </trkpt>
      <trkpt lat="47.64178" lon="-2.80143">
        <ele>10.9</ele>
        <time>2025-01-28T08:40:40Z</time>
      </trkpt>
      <trkpt lat="47.64177" lon="-2.80143">
        <ele>10.8</ele>
        <time>2025-01-28T08:40:41Z</time>
      </trkpt>
      <trkpt lat="47.64176" lon="-2.80143">
        <ele>10.7</ele>
        <time>2025-01-28T08:40:42Z</time>
      </trkpt>
      <trkpt lat="47.64175" lon="-2.80142">
        <ele>10.7</ele>
        <time>2025-01-28T08:40:43Z</time>
      </trkpt>
      <trkpt lat="47.64175" lon="-2.80142">
        <ele>10.7</ele>
        <time>2025-01-28T08:40:44Z</time>
      </trkpt>
      <trkpt lat="47.64175" lon="-2.80142">
        <ele>10.7</ele>
        <time>2025-01-28T08:40:45Z</time>
      </trkpt>
      <trkpt lat="47.64175" lon="-2.80141">
        <ele>10.7</ele>
        <time>2025-01-28T08:40:46Z</time>
      </trkpt>
      <trkpt lat="47.64175" lon="-2.80141">
        <ele>10.7</ele>
        <time>2025-01-28T08:40:47Z</time>
      </trkpt>
      <trkpt lat="47.64176" lon="-2.80141">
        <ele>10.7</ele>
        <time>2025-01-28T08:40:48Z</time>
      </trkpt>
      <trkpt lat="47.64176" lon="-2.80141">
        <ele>10.7</ele>
        <time>2025-01-28T08:40:49Z</time>
      </trkpt>
      <trkpt lat="47.64176" lon="-2.80141">
        <ele>10.8</ele>
        <time>2025-01-28T08:40:50Z</time>
      </trkpt>
      <trkpt lat="47.64177" lon="-2.80141">
        <ele>10.8</ele>
        <time>2025-01-28T08:40:51Z</time>
      </trkpt>
      <trkpt lat="47.64179" lon="-2.80142">
        <ele>10.9</ele>
        <time>2025-01-28T08:40:52Z</time>
      </trkpt>
      <trkpt lat="47.6418" lon="-2.80143">
        <ele>11.1</ele>
        <time>2025-01-28T08:40:53Z</time>
      </trkpt>
      <trkpt lat="47.64181" lon="-2.80143">
        <ele>11.1</ele>
        <time>2025-01-28T08:40:54Z</time>
      </trkpt>
      <trkpt lat="47.64182" lon="-2.80143">
        <ele>11.2</ele>
        <time>2025-01-28T08:40:55Z</time>
      </trkpt>
      <trkpt lat="47.64183" lon="-2.80145">
        <ele>11.3</ele>
        <time>2025-01-28T08:40:56Z</time>
      </trkpt>
      <trkpt lat="47.64183" lon="-2.80146">
        <ele>11.3</ele>
        <time>2025-01-28T08:40:57Z</time>
      </trkpt>
      <trkpt lat="47.64184" lon="-2.80147">
        <ele>11.4</ele>
        <time>2025-01-28T08:40:58Z</time>
      </trkpt>
      <trkpt lat="47.64185" lon="-2.80147">
        <ele>11.4</ele>
        <time>2025-01-28T08:40:59Z</time>
      </trkpt>
      <trkpt lat="47.64185" lon="-2.80146">
        <ele>11.4</ele>
        <time>2025-01-28T08:41:00Z</time>
      </trkpt>
      <trkpt lat="47.64186" lon="-2.80147">
        <ele>11.5</ele>
        <time>2025-01-28T08:41:01Z</time>
      </trkpt>
      <trkpt lat="47.64187" lon="-2.80147">
        <ele>11.5</ele>
        <time>2025-01-28T08:41:02Z</time>
      </trkpt>
      <trkpt lat="47.64188" lon="-2.80147">
        <ele>11.6</ele>
        <time>2025-01-28T08:41:03Z</time>
      </trkpt>
      <trkpt lat="47.64189" lon="-2.80148">
        <ele>11.6</ele>
        <time>2025-01-28T08:41:04Z</time>
      </trkpt>
      <trkpt lat="47.6419" lon="-2.80148">
        <ele>11.7</ele>
        <time>2025-01-28T08:41:05Z</time>
      </trkpt>
      <trkpt lat="47.64191" lon="-2.80149">
        <ele>11.8</ele>
        <time>2025-01-28T08:41:06Z</time>
      </trkpt>
      <trkpt lat="47.64193" lon="-2.8015">
        <ele>11.9</ele>
        <time>2025-01-28T08:41:07Z</time>
      </trkpt>
      <trkpt lat="47.64194" lon="-2.8015">
        <ele>12</ele>
        <time>2025-01-28T08:41:08Z</time>
      </trkpt>
      <trkpt lat="47.64195" lon="-2.8015">
        <ele>12</ele>
        <time>2025-01-28T08:41:09Z</time>
      </trkpt>
      <trkpt lat="47.64196" lon="-2.80151">
        <ele>12.1</ele>
        <time>2025-01-28T08:41:10Z</time>
      </trkpt>
      <trkpt lat="47.64196" lon="-2.80151">
        <ele>12.1</ele>
        <time>2025-01-28T08:41:11Z</time>
      </trkpt>
      <trkpt lat="47.64197" lon="-2.80151">
        <ele>12.1</ele>
        <time>2025-01-28T08:41:12Z</time>
      </trkpt>
      <trkpt lat="47.64198" lon="-2.80151">
        <ele>12.1</ele>
        <time>2025-01-28T08:41:13Z</time>
      </trkpt>
      <trkpt lat="47.64198" lon="-2.8015">
        <ele>12.1</ele>
        <time>2025-01-28T08:41:14Z</time>
      </trkpt>
      <trkpt lat="47.64198" lon="-2.8015">
        <ele>12.1</ele>
        <time>2025-01-28T08:41:15Z</time>
      </trkpt>
      <trkpt lat="47.64198" lon="-2.8015">
        <ele>12.1</ele>
        <time>2025-01-28T08:41:16Z</time>
      </trkpt>
      <trkpt lat="47.642" lon="-2.80149">
        <ele>12.2</ele>
        <time>2025-01-28T08:41:17Z</time>
      </trkpt>
      <trkpt lat="47.64202" lon="-2.80147">
        <ele>12.3</ele>
        <time>2025-01-28T08:41:18Z</time>
      </trkpt>
      <trkpt lat="47.64202" lon="-2.80147">
        <ele>12.3</ele>
        <time>2025-01-28T08:41:19Z</time>
      </trkpt>
      <trkpt lat="47.64203" lon="-2.80146">
        <ele>12.3</ele>
        <time>2025-01-28T08:41:20Z</time>
      </trkpt>
      <trkpt lat="47.64203" lon="-2.80145">
        <ele>12.3</ele>
        <time>2025-01-28T08:41:21Z</time>
      </trkpt>
      <trkpt lat="47.64204" lon="-2.80143">
        <ele>12.4</ele>
        <time>2025-01-28T08:41:22Z</time>
      </trkpt>
      <trkpt lat="47.64206" lon="-2.80144">
        <ele>12.4</ele>
        <time>2025-01-28T08:41:23Z</time>
      </trkpt>
      <trkpt lat="47.64208" lon="-2.80143">
        <ele>12.5</ele>
        <time>2025-01-28T08:41:24Z</time>
      </trkpt>
      <trkpt lat="47.64209" lon="-2.80144">
        <ele>12.5</ele>
        <time>2025-01-28T08:41:25Z</time>
      </trkpt>
      <trkpt lat="47.64209" lon="-2.80144">
        <ele>12.5</ele>
        <time>2025-01-28T08:41:26Z</time>
      </trkpt>
      <trkpt lat="47.6421" lon="-2.80143">
        <ele>12.6</ele>
        <time>2025-01-28T08:41:27Z</time>
      </trkpt>
      <trkpt lat="47.64211" lon="-2.80143">
        <ele>12.6</ele>
        <time>2025-01-28T08:41:28Z</time>
      </trkpt>
      <trkpt lat="47.64212" lon="-2.80142">
        <ele>12.6</ele>
        <time>2025-01-28T08:41:29Z</time>
      </trkpt>
      <trkpt lat="47.64212" lon="-2.80143">
        <ele>12.6</ele>
        <time>2025-01-28T08:41:30Z</time>
      </trkpt>
      <trkpt lat="47.64209" lon="-2.80141">
        <ele>12.5</ele>
        <time>2025-01-28T08:41:31Z</time>
      </trkpt>
      <trkpt lat="47.64209" lon="-2.80143">
        <ele>12.5</ele>
        <time>2025-01-28T08:41:32Z</time>
      </trkpt>
      <trkpt lat="47.6421" lon="-2.80143">
        <ele>12.6</ele>
        <time>2025-01-28T08:41:33Z</time>
      </trkpt>
      <trkpt lat="47.64211" lon="-2.80143">
        <ele>12.6</ele>
        <time>2025-01-28T08:41:34Z</time>
      </trkpt>
      <trkpt lat="47.64212" lon="-2.80143">
        <ele>12.6</ele>
        <time>2025-01-28T08:41:35Z</time>
      </trkpt>
      <trkpt lat="47.64213" lon="-2.80143">
        <ele>12.7</ele>
        <time>2025-01-28T08:41:36Z</time>
      </trkpt>
      <trkpt lat="47.64214" lon="-2.80143">
        <ele>12.7</ele>
        <time>2025-01-28T08:41:37Z</time>
      </trkpt>
      <trkpt lat="47.64215" lon="-2.80143">
        <ele>12.7</ele>
        <time>2025-01-28T08:41:38Z</time>
      </trkpt>
      <trkpt lat="47.64215" lon="-2.80142">
        <ele>12.8</ele>
        <time>2025-01-28T08:41:39Z</time>
      </trkpt>
      <trkpt lat="47.64216" lon="-2.80142">
        <ele>12.8</ele>
        <time>2025-01-28T08:41:40Z</time>
      </trkpt>
      <trkpt lat="47.64215" lon="-2.80141">
        <ele>12.7</ele>
        <time>2025-01-28T08:41:41Z</time>
      </trkpt>
      <trkpt lat="47.64216" lon="-2.8014">
        <ele>12.8</ele>
        <time>2025-01-28T08:41:42Z</time>
      </trkpt>
      <trkpt lat="47.64217" lon="-2.8014">
        <ele>12.8</ele>
        <time>2025-01-28T08:41:43Z</time>
      </trkpt>
      <trkpt lat="47.64219" lon="-2.80139">
        <ele>12.9</ele>
        <time>2025-01-28T08:41:44Z</time>
      </trkpt>
      <trkpt lat="47.64219" lon="-2.80139">
        <ele>12.9</ele>
        <time>2025-01-28T08:41:45Z</time>
      </trkpt>
      <trkpt lat="47.6422" lon="-2.80138">
        <ele>13</ele>
        <time>2025-01-28T08:41:46Z</time>
      </trkpt>
      <trkpt lat="47.6422" lon="-2.80136">
        <ele>13</ele>
        <time>2025-01-28T08:41:47Z</time>
      </trkpt>
      <trkpt lat="47.64221" lon="-2.80136">
        <ele>13.1</ele>
        <time>2025-01-28T08:41:48Z</time>
      </trkpt>
      <trkpt lat="47.64221" lon="-2.80135">
        <ele>13.1</ele>
        <time>2025-01-28T08:41:49Z</time>
      </trkpt>
      <trkpt lat="47.6422" lon="-2.80135">
        <ele>13.1</ele>
        <time>2025-01-28T08:41:50Z</time>
      </trkpt>
      <trkpt lat="47.64221" lon="-2.80137">
        <ele>13</ele>
        <time>2025-01-28T08:41:51Z</time>
      </trkpt>
      <trkpt lat="47.64222" lon="-2.80137">
        <ele>13.1</ele>
        <time>2025-01-28T08:41:52Z</time>
      </trkpt>
      <trkpt lat="47.64223" lon="-2.80137">
        <ele>13.1</ele>
        <time>2025-01-28T08:41:53Z</time>
      </trkpt>
      <trkpt lat="47.64223" lon="-2.80138">
        <ele>13.1</ele>
        <time>2025-01-28T08:41:54Z</time>
      </trkpt>
      <trkpt lat="47.64224" lon="-2.80137">
        <ele>13.1</ele>
        <time>2025-01-28T08:41:55Z</time>
      </trkpt>
      <trkpt lat="47.64226" lon="-2.80137">
        <ele>13.2</ele>
        <time>2025-01-28T08:41:56Z</time>
      </trkpt>
      <trkpt lat="47.64227" lon="-2.80138">
        <ele>13.2</ele>
        <time>2025-01-28T08:41:57Z</time>
      </trkpt>
      <trkpt lat="47.64228" lon="-2.80137">
        <ele>13.3</ele>
        <time>2025-01-28T08:41:58Z</time>
      </trkpt>
      <trkpt lat="47.64229" lon="-2.80135">
        <ele>13.3</ele>
        <time>2025-01-28T08:41:59Z</time>
      </trkpt>
      <trkpt lat="47.6423" lon="-2.80135">
        <ele>13.4</ele>
        <time>2025-01-28T08:42:00Z</time>
      </trkpt>
      <trkpt lat="47.64231" lon="-2.80134">
        <ele>13.4</ele>
        <time>2025-01-28T08:42:01Z</time>
      </trkpt>
      <trkpt lat="47.64231" lon="-2.80133">
        <ele>13.5</ele>
        <time>2025-01-28T08:42:02Z</time>
      </trkpt>
      <trkpt lat="47.64232" lon="-2.80133">
        <ele>13.5</ele>
        <time>2025-01-28T08:42:03Z</time>
      </trkpt>
      <trkpt lat="47.64232" lon="-2.80132">
        <ele>13.5</ele>
        <time>2025-01-28T08:42:04Z</time>
      </trkpt>
      <trkpt lat="47.64233" lon="-2.80131">
        <ele>13.6</ele>
        <time>2025-01-28T08:42:05Z</time>
      </trkpt>
      <trkpt lat="47.64234" lon="-2.80131">
        <ele>13.6</ele>
        <time>2025-01-28T08:42:06Z</time>
      </trkpt>
      <trkpt lat="47.64235" lon="-2.8013">
        <ele>13.6</ele>
        <time>2025-01-28T08:42:07Z</time>
      </trkpt>
      <trkpt lat="47.64236" lon="-2.80129">
        <ele>13.7</ele>
        <time>2025-01-28T08:42:08Z</time>
      </trkpt>
      <trkpt lat="47.64237" lon="-2.80128">
        <ele>13.7</ele>
        <time>2025-01-28T08:42:09Z</time>
      </trkpt>
      <trkpt lat="47.64239" lon="-2.80126">
        <ele>13.8</ele>
        <time>2025-01-28T08:42:10Z</time>
      </trkpt>
      <trkpt lat="47.6424" lon="-2.80125">
        <ele>13.8</ele>
        <time>2025-01-28T08:42:11Z</time>
      </trkpt>
      <trkpt lat="47.64241" lon="-2.80124">
        <ele>13.9</ele>
        <time>2025-01-28T08:42:12Z</time>
      </trkpt>
      <trkpt lat="47.64242" lon="-2.80123">
        <ele>13.9</ele>
        <time>2025-01-28T08:42:13Z</time>
      </trkpt>
      <trkpt lat="47.64243" lon="-2.80122">
        <ele>13.9</ele>
        <time>2025-01-28T08:42:14Z</time>
      </trkpt>
      <trkpt lat="47.64244" lon="-2.80121">
        <ele>13.9</ele>
        <time>2025-01-28T08:42:15Z</time>
      </trkpt>
      <trkpt lat="47.64245" lon="-2.8012">
        <ele>13.9</ele>
        <time>2025-01-28T08:42:16Z</time>
      </trkpt>
      <trkpt lat="47.64246" lon="-2.8012">
        <ele>14</ele>
        <time>2025-01-28T08:42:17Z</time>
      </trkpt>
      <trkpt lat="47.64247" lon="-2.80118">
        <ele>14</ele>
        <time>2025-01-28T08:42:18Z</time>
      </trkpt>
      <trkpt lat="47.64248" lon="-2.80116">
        <ele>14</ele>
        <time>2025-01-28T08:42:19Z</time>
      </trkpt>
      <trkpt lat="47.64249" lon="-2.80116">
        <ele>14</ele>
        <time>2025-01-28T08:42:20Z</time>
      </trkpt>
      <trkpt lat="47.6425" lon="-2.80117">
        <ele>14</ele>
        <time>2025-01-28T08:42:21Z</time>
      </trkpt>
      <trkpt lat="47.64251" lon="-2.80116">
        <ele>14.1</ele>
        <time>2025-01-28T08:42:22Z</time>
      </trkpt>
      <trkpt lat="47.64253" lon="-2.80116">
        <ele>14.2</ele>
        <time>2025-01-28T08:42:23Z</time>
      </trkpt>
      <trkpt lat="47.64254" lon="-2.80114">
        <ele>14.2</ele>
        <time>2025-01-28T08:42:24Z</time>
      </trkpt>
      <trkpt lat="47.64255" lon="-2.80114">
        <ele>14.3</ele>
        <time>2025-01-28T08:42:25Z</time>
      </trkpt>
      <trkpt lat="47.64256" lon="-2.80113">
        <ele>14.4</ele>
        <time>2025-01-28T08:42:26Z</time>
      </trkpt>
      <trkpt lat="47.64257" lon="-2.80112">
        <ele>14.5</ele>
        <time>2025-01-28T08:42:27Z</time>
      </trkpt>
      <trkpt lat="47.64257" lon="-2.80112">
        <ele>14.5</ele>
        <time>2025-01-28T08:42:28Z</time>
      </trkpt>
      <trkpt lat="47.64259" lon="-2.80111">
        <ele>14.6</ele>
        <time>2025-01-28T08:42:29Z</time>
      </trkpt>
      <trkpt lat="47.6426" lon="-2.80111">
        <ele>14.7</ele>
        <time>2025-01-28T08:42:30Z</time>
      </trkpt>
      <trkpt lat="47.64261" lon="-2.8011">
        <ele>14.8</ele>
        <time>2025-01-28T08:42:31Z</time>
      </trkpt>
      <trkpt lat="47.64262" lon="-2.8011">
        <ele>14.9</ele>
        <time>2025-01-28T08:42:32Z</time>
      </trkpt>
      <trkpt lat="47.64262" lon="-2.80109">
        <ele>15</ele>
        <time>2025-01-28T08:42:33Z</time>
      </trkpt>
      <trkpt lat="47.64263" lon="-2.8011">
        <ele>15</ele>
        <time>2025-01-28T08:42:34Z</time>
      </trkpt>
      <trkpt lat="47.64264" lon="-2.80109">
        <ele>15.1</ele>
        <time>2025-01-28T08:42:35Z</time>
      </trkpt>
      <trkpt lat="47.64265" lon="-2.80108">
        <ele>15.2</ele>
        <time>2025-01-28T08:42:36Z</time>
      </trkpt>
      <trkpt lat="47.64266" lon="-2.80108">
        <ele>15.3</ele>
        <time>2025-01-28T08:42:37Z</time>
      </trkpt>
      <trkpt lat="47.64267" lon="-2.80107">
        <ele>15.4</ele>
        <time>2025-01-28T08:42:38Z</time>
      </trkpt>
      <trkpt lat="47.64268" lon="-2.80107">
        <ele>15.5</ele>
        <time>2025-01-28T08:42:39Z</time>
      </trkpt>
      <trkpt lat="47.64269" lon="-2.80107">
        <ele>15.6</ele>
        <time>2025-01-28T08:42:40Z</time>
      </trkpt>
      <trkpt lat="47.64271" lon="-2.80106">
        <ele>15.7</ele>
        <time>2025-01-28T08:42:41Z</time>
      </trkpt>
      <trkpt lat="47.64272" lon="-2.80106">
        <ele>15.8</ele>
        <time>2025-01-28T08:42:42Z</time>
      </trkpt>
      <trkpt lat="47.64273" lon="-2.80106">
        <ele>15.8</ele>
        <time>2025-01-28T08:42:43Z</time>
      </trkpt>
      <trkpt lat="47.64273" lon="-2.80107">
        <ele>15.9</ele>
        <time>2025-01-28T08:42:44Z</time>
      </trkpt>
      <trkpt lat="47.64275" lon="-2.80106">
        <ele>16</ele>
        <time>2025-01-28T08:42:45Z</time>
      </trkpt>
      <trkpt lat="47.64276" lon="-2.80107">
        <ele>16</ele>
        <time>2025-01-28T08:42:46Z</time>
      </trkpt>
      <trkpt lat="47.64277" lon="-2.80107">
        <ele>16.1</ele>
        <time>2025-01-28T08:42:47Z</time>
      </trkpt>
      <trkpt lat="47.64278" lon="-2.80107">
        <ele>16.1</ele>
        <time>2025-01-28T08:42:48Z</time>
      </trkpt>
      <trkpt lat="47.64279" lon="-2.80107">
        <ele>16.2</ele>
        <time>2025-01-28T08:42:49Z</time>
      </trkpt>
      <trkpt lat="47.6428" lon="-2.80106">
        <ele>16.2</ele>
        <time>2025-01-28T08:42:50Z</time>
      </trkpt>
      <trkpt lat="47.64281" lon="-2.80105">
        <ele>16.3</ele>
        <time>2025-01-28T08:42:51Z</time>
      </trkpt>
      <trkpt lat="47.64282" lon="-2.80105">
        <ele>16.3</ele>
        <time>2025-01-28T08:42:52Z</time>
      </trkpt>
      <trkpt lat="47.64283" lon="-2.80104">
        <ele>16.4</ele>
        <time>2025-01-28T08:42:53Z</time>
      </trkpt>
      <trkpt lat="47.64285" lon="-2.80103">
        <ele>16.5</ele>
        <time>2025-01-28T08:42:54Z</time>
      </trkpt>
      <trkpt lat="47.64286" lon="-2.80101">
        <ele>16.6</ele>
        <time>2025-01-28T08:42:55Z</time>
      </trkpt>
      <trkpt lat="47.64288" lon="-2.80101">
        <ele>16.6</ele>
        <time>2025-01-28T08:42:56Z</time>
      </trkpt>
      <trkpt lat="47.64289" lon="-2.80101">
        <ele>16.6</ele>
        <time>2025-01-28T08:42:57Z</time>
      </trkpt>
      <trkpt lat="47.6429" lon="-2.801">
        <ele>16.7</ele>
        <time>2025-01-28T08:42:58Z</time>
      </trkpt>
      <trkpt lat="47.64291" lon="-2.801">
        <ele>16.7</ele>
        <time>2025-01-28T08:42:59Z</time>
      </trkpt>
      <trkpt lat="47.64291" lon="-2.801">
        <ele>16.7</ele>
        <time>2025-01-28T08:43:00Z</time>
      </trkpt>
      <trkpt lat="47.64292" lon="-2.80098">
        <ele>16.7</ele>
        <time>2025-01-28T08:43:01Z</time>
      </trkpt>
      <trkpt lat="47.64294" lon="-2.80098">
        <ele>16.8</ele>
        <time>2025-01-28T08:43:02Z</time>
      </trkpt>
      <trkpt lat="47.64295" lon="-2.80097">
        <ele>16.8</ele>
        <time>2025-01-28T08:43:03Z</time>
      </trkpt>
      <trkpt lat="47.64296" lon="-2.80096">
        <ele>16.8</ele>
        <time>2025-01-28T08:43:04Z</time>
      </trkpt>
      <trkpt lat="47.64297" lon="-2.80095">
        <ele>16.9</ele>
        <time>2025-01-28T08:43:05Z</time>
      </trkpt>
      <trkpt lat="47.64298" lon="-2.80094">
        <ele>16.9</ele>
        <time>2025-01-28T08:43:06Z</time>
      </trkpt>
      <trkpt lat="47.64299" lon="-2.80094">
        <ele>16.9</ele>
        <time>2025-01-28T08:43:07Z</time>
      </trkpt>
      <trkpt lat="47.643" lon="-2.80092">
        <ele>16.9</ele>
        <time>2025-01-28T08:43:08Z</time>
      </trkpt>
      <trkpt lat="47.64301" lon="-2.8009">
        <ele>17</ele>
        <time>2025-01-28T08:43:09Z</time>
      </trkpt>
      <trkpt lat="47.64302" lon="-2.8009">
        <ele>17</ele>
        <time>2025-01-28T08:43:10Z</time>
      </trkpt>
      <trkpt lat="47.64304" lon="-2.80089">
        <ele>17</ele>
        <time>2025-01-28T08:43:11Z</time>
      </trkpt>
      <trkpt lat="47.64304" lon="-2.80088">
        <ele>17</ele>
        <time>2025-01-28T08:43:12Z</time>
      </trkpt>
      <trkpt lat="47.64305" lon="-2.80086">
        <ele>17</ele>
        <time>2025-01-28T08:43:13Z</time>
      </trkpt>
      <trkpt lat="47.64307" lon="-2.80085">
        <ele>17.1</ele>
        <time>2025-01-28T08:43:14Z</time>
      </trkpt>
      <trkpt lat="47.64308" lon="-2.80085">
        <ele>17.2</ele>
        <time>2025-01-28T08:43:15Z</time>
      </trkpt>
      <trkpt lat="47.64309" lon="-2.80084">
        <ele>17.3</ele>
        <time>2025-01-28T08:43:16Z</time>
      </trkpt>
      <trkpt lat="47.6431" lon="-2.80084">
        <ele>17.4</ele>
        <time>2025-01-28T08:43:17Z</time>
      </trkpt>
      <trkpt lat="47.64311" lon="-2.80083">
        <ele>17.6</ele>
        <time>2025-01-28T08:43:18Z</time>
      </trkpt>
      <trkpt lat="47.64312" lon="-2.80082">
        <ele>17.7</ele>
        <time>2025-01-28T08:43:19Z</time>
      </trkpt>
      <trkpt lat="47.64312" lon="-2.80081">
        <ele>17.8</ele>
        <time>2025-01-28T08:43:20Z</time>
      </trkpt>
      <trkpt lat="47.64313" lon="-2.80081">
        <ele>17.9</ele>
        <time>2025-01-28T08:43:21Z</time>
      </trkpt>
      <trkpt lat="47.64313" lon="-2.80081">
        <ele>17.9</ele>
        <time>2025-01-28T08:43:22Z</time>
      </trkpt>
      <trkpt lat="47.64314" lon="-2.8008">
        <ele>18.1</ele>
        <time>2025-01-28T08:43:23Z</time>
      </trkpt>
      <trkpt lat="47.64316" lon="-2.80078">
        <ele>18.3</ele>
        <time>2025-01-28T08:43:24Z</time>
      </trkpt>
      <trkpt lat="47.64317" lon="-2.80076">
        <ele>18.5</ele>
        <time>2025-01-28T08:43:25Z</time>
      </trkpt>
      <trkpt lat="47.64319" lon="-2.80075">
        <ele>18.6</ele>
        <time>2025-01-28T08:43:26Z</time>
      </trkpt>
      <trkpt lat="47.64319" lon="-2.80074">
        <ele>18.7</ele>
        <time>2025-01-28T08:43:27Z</time>
      </trkpt>
      <trkpt lat="47.6432" lon="-2.80073">
        <ele>18.7</ele>
        <time>2025-01-28T08:43:28Z</time>
      </trkpt>
      <trkpt lat="47.64321" lon="-2.80073">
        <ele>18.8</ele>
        <time>2025-01-28T08:43:29Z</time>
      </trkpt>
      <trkpt lat="47.64322" lon="-2.80071">
        <ele>18.9</ele>
        <time>2025-01-28T08:43:30Z</time>
      </trkpt>
      <trkpt lat="47.64323" lon="-2.8007">
        <ele>18.9</ele>
        <time>2025-01-28T08:43:31Z</time>
      </trkpt>
      <trkpt lat="47.64324" lon="-2.80069">
        <ele>19</ele>
        <time>2025-01-28T08:43:32Z</time>
      </trkpt>
      <trkpt lat="47.64325" lon="-2.80067">
        <ele>19</ele>
        <time>2025-01-28T08:43:33Z</time>
      </trkpt>
      <trkpt lat="47.64326" lon="-2.80066">
        <ele>19.1</ele>
        <time>2025-01-28T08:43:34Z</time>
      </trkpt>
      <trkpt lat="47.64327" lon="-2.80065">
        <ele>19.1</ele>
        <time>2025-01-28T08:43:35Z</time>
      </trkpt>
      <trkpt lat="47.64328" lon="-2.80065">
        <ele>19.1</ele>
        <time>2025-01-28T08:43:36Z</time>
      </trkpt>
      <trkpt lat="47.64329" lon="-2.80063">
        <ele>19.1</ele>
        <time>2025-01-28T08:43:37Z</time>
      </trkpt>
      <trkpt lat="47.6433" lon="-2.80063">
        <ele>19.2</ele>
        <time>2025-01-28T08:43:38Z</time>
      </trkpt>
      <trkpt lat="47.64329" lon="-2.80062">
        <ele>19.1</ele>
        <time>2025-01-28T08:43:39Z</time>
      </trkpt>
      <trkpt lat="47.64327" lon="-2.80061">
        <ele>19.1</ele>
        <time>2025-01-28T08:43:40Z</time>
      </trkpt>
      <trkpt lat="47.64327" lon="-2.80061">
        <ele>19.1</ele>
        <time>2025-01-28T08:43:41Z</time>
      </trkpt>
      <trkpt lat="47.64327" lon="-2.80061">
        <ele>19.1</ele>
        <time>2025-01-28T08:43:42Z</time>
      </trkpt>
      <trkpt lat="47.64327" lon="-2.80061">
        <ele>19.1</ele>
        <time>2025-01-28T08:43:43Z</time>
      </trkpt>
      <trkpt lat="47.64327" lon="-2.80061">
        <ele>19.1</ele>
        <time>2025-01-28T08:43:44Z</time>
      </trkpt>
      <trkpt lat="47.64327" lon="-2.80061">
        <ele>19.1</ele>
        <time>2025-01-28T08:43:45Z</time>
      </trkpt>
      <trkpt lat="47.64327" lon="-2.80061">
        <ele>19.1</ele>
        <time>2025-01-28T08:43:46Z</time>
      </trkpt>
      <trkpt lat="47.64327" lon="-2.80061">
        <ele>19.1</ele>
        <time>2025-01-28T08:43:47Z</time>
      </trkpt>
      <trkpt lat="47.64327" lon="-2.80061">
        <ele>19.1</ele>
        <time>2025-01-28T08:43:48Z</time>
      </trkpt>
      <trkpt lat="47.64327" lon="-2.80061">
        <ele>19.1</ele>
        <time>2025-01-28T08:43:49Z</time>
      </trkpt>
      <trkpt lat="47.64327" lon="-2.80061">
        <ele>19.1</ele>
        <time>2025-01-28T08:43:50Z</time>
      </trkpt>
      <trkpt lat="47.64327" lon="-2.80061">
        <ele>19.1</ele>
        <time>2025-01-28T08:43:51Z</time>
      </trkpt>
      <trkpt lat="47.64328" lon="-2.80061">
        <ele>19.1</ele>
        <time>2025-01-28T08:43:52Z</time>
      </trkpt>
      <trkpt lat="47.64328" lon="-2.8006">
        <ele>19.1</ele>
        <time>2025-01-28T08:43:53Z</time>
      </trkpt>
      <trkpt lat="47.64329" lon="-2.8006">
        <ele>19.1</ele>
        <time>2025-01-28T08:43:54Z</time>
      </trkpt>
      <trkpt lat="47.64329" lon="-2.80059">
        <ele>19.1</ele>
        <time>2025-01-28T08:43:55Z</time>
      </trkpt>
      <trkpt lat="47.6433" lon="-2.80058">
        <ele>19.1</ele>
        <time>2025-01-28T08:43:56Z</time>
      </trkpt>
      <trkpt lat="47.64331" lon="-2.80057">
        <ele>19</ele>
        <time>2025-01-28T08:43:57Z</time>
      </trkpt>
      <trkpt lat="47.64332" lon="-2.80056">
        <ele>19</ele>
        <time>2025-01-28T08:43:58Z</time>
      </trkpt>
      <trkpt lat="47.64333" lon="-2.80055">
        <ele>19</ele>
        <time>2025-01-28T08:43:59Z</time>
      </trkpt>
      <trkpt lat="47.64334" lon="-2.80053">
        <ele>19.1</ele>
        <time>2025-01-28T08:44:00Z</time>
      </trkpt>
      <trkpt lat="47.64336" lon="-2.80053">
        <ele>19.2</ele>
        <time>2025-01-28T08:44:01Z</time>
      </trkpt>
      <trkpt lat="47.64337" lon="-2.80052">
        <ele>19.4</ele>
        <time>2025-01-28T08:44:02Z</time>
      </trkpt>
      <trkpt lat="47.64338" lon="-2.80051">
        <ele>19.5</ele>
        <time>2025-01-28T08:44:03Z</time>
      </trkpt>
      <trkpt lat="47.6434" lon="-2.8005">
        <ele>19.6</ele>
        <time>2025-01-28T08:44:04Z</time>
      </trkpt>
      <trkpt lat="47.64341" lon="-2.80049">
        <ele>19.7</ele>
        <time>2025-01-28T08:44:05Z</time>
      </trkpt>
      <trkpt lat="47.64342" lon="-2.80048">
        <ele>19.8</ele>
        <time>2025-01-28T08:44:06Z</time>
      </trkpt>
      <trkpt lat="47.64344" lon="-2.80047">
        <ele>19.9</ele>
        <time>2025-01-28T08:44:07Z</time>
      </trkpt>
      <trkpt lat="47.64345" lon="-2.80047">
        <ele>20</ele>
        <time>2025-01-28T08:44:08Z</time>
      </trkpt>
      <trkpt lat="47.64346" lon="-2.80047">
        <ele>20.1</ele>
        <time>2025-01-28T08:44:09Z</time>
      </trkpt>
      <trkpt lat="47.64347" lon="-2.80046">
        <ele>20.2</ele>
        <time>2025-01-28T08:44:10Z</time>
      </trkpt>
      <trkpt lat="47.64348" lon="-2.80045">
        <ele>20.2</ele>
        <time>2025-01-28T08:44:11Z</time>
      </trkpt>
      <trkpt lat="47.64347" lon="-2.80046">
        <ele>20.2</ele>
        <time>2025-01-28T08:44:12Z</time>
      </trkpt>
      <trkpt lat="47.64349" lon="-2.80046">
        <ele>20.3</ele>
        <time>2025-01-28T08:44:13Z</time>
      </trkpt>
      <trkpt lat="47.64351" lon="-2.80045">
        <ele>20.4</ele>
        <time>2025-01-28T08:44:14Z</time>
      </trkpt>
      <trkpt lat="47.64352" lon="-2.80044">
        <ele>20.5</ele>
        <time>2025-01-28T08:44:15Z</time>
      </trkpt>
      <trkpt lat="47.64353" lon="-2.80043">
        <ele>20.5</ele>
        <time>2025-01-28T08:44:16Z</time>
      </trkpt>
      <trkpt lat="47.64354" lon="-2.80043">
        <ele>20.6</ele>
        <time>2025-01-28T08:44:17Z</time>
      </trkpt>
      <trkpt lat="47.64355" lon="-2.80042">
        <ele>20.6</ele>
        <time>2025-01-28T08:44:18Z</time>
      </trkpt>
      <trkpt lat="47.64356" lon="-2.80041">
        <ele>20.7</ele>
        <time>2025-01-28T08:44:19Z</time>
      </trkpt>
      <trkpt lat="47.64357" lon="-2.80041">
        <ele>20.8</ele>
        <time>2025-01-28T08:44:20Z</time>
      </trkpt>
      <trkpt lat="47.64358" lon="-2.8004">
        <ele>20.8</ele>
        <time>2025-01-28T08:44:21Z</time>
      </trkpt>
      <trkpt lat="47.64359" lon="-2.80039">
        <ele>20.9</ele>
        <time>2025-01-28T08:44:22Z</time>
      </trkpt>
      <trkpt lat="47.6436" lon="-2.80039">
        <ele>20.9</ele>
        <time>2025-01-28T08:44:23Z</time>
      </trkpt>
      <trkpt lat="47.64361" lon="-2.80038">
        <ele>21</ele>
        <time>2025-01-28T08:44:24Z</time>
      </trkpt>
      <trkpt lat="47.64362" lon="-2.80037">
        <ele>21</ele>
        <time>2025-01-28T08:44:25Z</time>
      </trkpt>
      <trkpt lat="47.64363" lon="-2.80037">
        <ele>21.1</ele>
        <time>2025-01-28T08:44:26Z</time>
      </trkpt>
      <trkpt lat="47.64363" lon="-2.80036">
        <ele>21.1</ele>
        <time>2025-01-28T08:44:27Z</time>
      </trkpt>
      <trkpt lat="47.64364" lon="-2.80035">
        <ele>21.2</ele>
        <time>2025-01-28T08:44:28Z</time>
      </trkpt>
      <trkpt lat="47.64365" lon="-2.80034">
        <ele>21.2</ele>
        <time>2025-01-28T08:44:29Z</time>
      </trkpt>
      <trkpt lat="47.64365" lon="-2.80034">
        <ele>21.3</ele>
        <time>2025-01-28T08:44:30Z</time>
      </trkpt>
      <trkpt lat="47.64366" lon="-2.80033">
        <ele>21.3</ele>
        <time>2025-01-28T08:44:31Z</time>
      </trkpt>
      <trkpt lat="47.64366" lon="-2.80033">
        <ele>21.3</ele>
        <time>2025-01-28T08:44:32Z</time>
      </trkpt>
      <trkpt lat="47.64367" lon="-2.80032">
        <ele>21.4</ele>
        <time>2025-01-28T08:44:33Z</time>
      </trkpt>
      <trkpt lat="47.64368" lon="-2.80032">
        <ele>21.5</ele>
        <time>2025-01-28T08:44:34Z</time>
      </trkpt>
      <trkpt lat="47.6437" lon="-2.80031">
        <ele>21.6</ele>
        <time>2025-01-28T08:44:35Z</time>
      </trkpt>
      <trkpt lat="47.6437" lon="-2.80031">
        <ele>21.6</ele>
        <time>2025-01-28T08:44:36Z</time>
      </trkpt>
      <trkpt lat="47.64371" lon="-2.8003">
        <ele>21.7</ele>
        <time>2025-01-28T08:44:37Z</time>
      </trkpt>
      <trkpt lat="47.64371" lon="-2.8003">
        <ele>21.7</ele>
        <time>2025-01-28T08:44:38Z</time>
      </trkpt>
      <trkpt lat="47.64372" lon="-2.80031">
        <ele>21.7</ele>
        <time>2025-01-28T08:44:39Z</time>
      </trkpt>
      <trkpt lat="47.64372" lon="-2.80031">
        <ele>21.7</ele>
        <time>2025-01-28T08:44:40Z</time>
      </trkpt>
      <trkpt lat="47.64373" lon="-2.80032">
        <ele>21.8</ele>
        <time>2025-01-28T08:44:41Z</time>
      </trkpt>
      <trkpt lat="47.64374" lon="-2.80032">
        <ele>21.8</ele>
        <time>2025-01-28T08:44:42Z</time>
      </trkpt>
      <trkpt lat="47.64375" lon="-2.80031">
        <ele>21.9</ele>
        <time>2025-01-28T08:44:43Z</time>
      </trkpt>
      <trkpt lat="47.64377" lon="-2.8003">
        <ele>22.1</ele>
        <time>2025-01-28T08:44:44Z</time>
      </trkpt>
      <trkpt lat="47.64377" lon="-2.8003">
        <ele>22.1</ele>
        <time>2025-01-28T08:44:45Z</time>
      </trkpt>
      <trkpt lat="47.6438" lon="-2.80031">
        <ele>22.3</ele>
        <time>2025-01-28T08:44:46Z</time>
      </trkpt>
      <trkpt lat="47.64381" lon="-2.80031">
        <ele>22.4</ele>
        <time>2025-01-28T08:44:47Z</time>
      </trkpt>
      <trkpt lat="47.64383" lon="-2.80031">
        <ele>22.5</ele>
        <time>2025-01-28T08:44:48Z</time>
      </trkpt>
      <trkpt lat="47.64384" lon="-2.8003">
        <ele>22.6</ele>
        <time>2025-01-28T08:44:49Z</time>
      </trkpt>
      <trkpt lat="47.64385" lon="-2.8003">
        <ele>22.7</ele>
        <time>2025-01-28T08:44:50Z</time>
      </trkpt>
      <trkpt lat="47.64386" lon="-2.8003">
        <ele>22.7</ele>
        <time>2025-01-28T08:44:51Z</time>
      </trkpt>
      <trkpt lat="47.64388" lon="-2.8003">
        <ele>22.8</ele>
        <time>2025-01-28T08:44:52Z</time>
      </trkpt>
      <trkpt lat="47.64389" lon="-2.8003">
        <ele>22.9</ele>
        <time>2025-01-28T08:44:53Z</time>
      </trkpt>
      <trkpt lat="47.6439" lon="-2.8003">
        <ele>23</ele>
        <time>2025-01-28T08:44:54Z</time>
      </trkpt>
      <trkpt lat="47.64391" lon="-2.80029">
        <ele>23</ele>
        <time>2025-01-28T08:44:55Z</time>
      </trkpt>
      <trkpt lat="47.64392" lon="-2.80028">
        <ele>23.1</ele>
        <time>2025-01-28T08:44:56Z</time>
      </trkpt>
      <trkpt lat="47.64393" lon="-2.80028">
        <ele>23.1</ele>
        <time>2025-01-28T08:44:57Z</time>
      </trkpt>
      <trkpt lat="47.64394" lon="-2.80028">
        <ele>23.2</ele>
        <time>2025-01-28T08:44:58Z</time>
      </trkpt>
      <trkpt lat="47.64395" lon="-2.80028">
        <ele>23.2</ele>
        <time>2025-01-28T08:44:59Z</time>
      </trkpt>
      <trkpt lat="47.64396" lon="-2.80028">
        <ele>23.3</ele>
        <time>2025-01-28T08:45:00Z</time>
      </trkpt>
      <trkpt lat="47.64397" lon="-2.80027">
        <ele>23.3</ele>
        <time>2025-01-28T08:45:01Z</time>
      </trkpt>
      <trkpt lat="47.64398" lon="-2.80027">
        <ele>23.3</ele>
        <time>2025-01-28T08:45:02Z</time>
      </trkpt>
      <trkpt lat="47.64399" lon="-2.80027">
        <ele>23.4</ele>
        <time>2025-01-28T08:45:03Z</time>
      </trkpt>
      <trkpt lat="47.644" lon="-2.80027">
        <ele>23.4</ele>
        <time>2025-01-28T08:45:04Z</time>
      </trkpt>
      <trkpt lat="47.64401" lon="-2.80026">
        <ele>23.5</ele>
        <time>2025-01-28T08:45:05Z</time>
      </trkpt>
      <trkpt lat="47.64402" lon="-2.80026">
        <ele>23.6</ele>
        <time>2025-01-28T08:45:06Z</time>
      </trkpt>
      <trkpt lat="47.64403" lon="-2.80026">
        <ele>23.6</ele>
        <time>2025-01-28T08:45:07Z</time>
      </trkpt>
      <trkpt lat="47.64404" lon="-2.80025">
        <ele>23.6</ele>
        <time>2025-01-28T08:45:08Z</time>
      </trkpt>
      <trkpt lat="47.64404" lon="-2.80024">
        <ele>23.7</ele>
        <time>2025-01-28T08:45:09Z</time>
      </trkpt>
      <trkpt lat="47.64406" lon="-2.80024">
        <ele>23.7</ele>
        <time>2025-01-28T08:45:10Z</time>
      </trkpt>
      <trkpt lat="47.64407" lon="-2.80024">
        <ele>23.8</ele>
        <time>2025-01-28T08:45:11Z</time>
      </trkpt>
      <trkpt lat="47.64408" lon="-2.80023">
        <ele>23.8</ele>
        <time>2025-01-28T08:45:12Z</time>
      </trkpt>
      <trkpt lat="47.64409" lon="-2.80023">
        <ele>23.9</ele>
        <time>2025-01-28T08:45:13Z</time>
      </trkpt>
      <trkpt lat="47.6441" lon="-2.80021">
        <ele>24</ele>
        <time>2025-01-28T08:45:14Z</time>
      </trkpt>
      <trkpt lat="47.64411" lon="-2.80021">
        <ele>24.1</ele>
        <time>2025-01-28T08:45:15Z</time>
      </trkpt>
      <trkpt lat="47.64412" lon="-2.8002">
        <ele>24.1</ele>
        <time>2025-01-28T08:45:16Z</time>
      </trkpt>
      <trkpt lat="47.64413" lon="-2.8002">
        <ele>24.2</ele>
        <time>2025-01-28T08:45:17Z</time>
      </trkpt>
      <trkpt lat="47.64414" lon="-2.8002">
        <ele>24.2</ele>
        <time>2025-01-28T08:45:18Z</time>
      </trkpt>
      <trkpt lat="47.64415" lon="-2.80019">
        <ele>24.2</ele>
        <time>2025-01-28T08:45:19Z</time>
      </trkpt>
      <trkpt lat="47.64416" lon="-2.80019">
        <ele>24.3</ele>
        <time>2025-01-28T08:45:20Z</time>
      </trkpt>
      <trkpt lat="47.64417" lon="-2.80018">
        <ele>24.4</ele>
        <time>2025-01-28T08:45:21Z</time>
      </trkpt>
      <trkpt lat="47.64418" lon="-2.80017">
        <ele>24.4</ele>
        <time>2025-01-28T08:45:22Z</time>
      </trkpt>
      <trkpt lat="47.64419" lon="-2.80017">
        <ele>24.4</ele>
        <time>2025-01-28T08:45:23Z</time>
      </trkpt>
      <trkpt lat="47.6442" lon="-2.80017">
        <ele>24.4</ele>
        <time>2025-01-28T08:45:24Z</time>
      </trkpt>
      <trkpt lat="47.64421" lon="-2.80017">
        <ele>24.5</ele>
        <time>2025-01-28T08:45:25Z</time>
      </trkpt>
      <trkpt lat="47.64422" lon="-2.80015">
        <ele>24.5</ele>
        <time>2025-01-28T08:45:26Z</time>
      </trkpt>
      <trkpt lat="47.64422" lon="-2.80014">
        <ele>24.6</ele>
        <time>2025-01-28T08:45:27Z</time>
      </trkpt>
      <trkpt lat="47.64424" lon="-2.80014">
        <ele>24.6</ele>
        <time>2025-01-28T08:45:28Z</time>
      </trkpt>
      <trkpt lat="47.64424" lon="-2.80014">
        <ele>24.6</ele>
        <time>2025-01-28T08:45:29Z</time>
      </trkpt>
      <trkpt lat="47.64426" lon="-2.80013">
        <ele>24.7</ele>
        <time>2025-01-28T08:45:30Z</time>
      </trkpt>
      <trkpt lat="47.64427" lon="-2.80013">
        <ele>24.7</ele>
        <time>2025-01-28T08:45:31Z</time>
      </trkpt>
      <trkpt lat="47.64428" lon="-2.80012">
        <ele>24.7</ele>
        <time>2025-01-28T08:45:32Z</time>
      </trkpt>
      <trkpt lat="47.64429" lon="-2.80012">
        <ele>24.8</ele>
        <time>2025-01-28T08:45:33Z</time>
      </trkpt>
      <trkpt lat="47.6443" lon="-2.80011">
        <ele>24.8</ele>
        <time>2025-01-28T08:45:34Z</time>
      </trkpt>
      <trkpt lat="47.64431" lon="-2.80011">
        <ele>24.8</ele>
        <time>2025-01-28T08:45:35Z</time>
      </trkpt>
      <trkpt lat="47.64432" lon="-2.80011">
        <ele>24.8</ele>
        <time>2025-01-28T08:45:36Z</time>
      </trkpt>
      <trkpt lat="47.64433" lon="-2.8001">
        <ele>24.9</ele>
        <time>2025-01-28T08:45:37Z</time>
      </trkpt>
      <trkpt lat="47.64434" lon="-2.8001">
        <ele>24.9</ele>
        <time>2025-01-28T08:45:38Z</time>
      </trkpt>
      <trkpt lat="47.64436" lon="-2.80009">
        <ele>24.9</ele>
        <time>2025-01-28T08:45:39Z</time>
      </trkpt>
      <trkpt lat="47.64437" lon="-2.80008">
        <ele>24.9</ele>
        <time>2025-01-28T08:45:40Z</time>
      </trkpt>
      <trkpt lat="47.64438" lon="-2.80008">
        <ele>24.9</ele>
        <time>2025-01-28T08:45:41Z</time>
      </trkpt>
      <trkpt lat="47.64439" lon="-2.80008">
        <ele>24.9</ele>
        <time>2025-01-28T08:45:42Z</time>
      </trkpt>
      <trkpt lat="47.6444" lon="-2.80007">
        <ele>25</ele>
        <time>2025-01-28T08:45:43Z</time>
      </trkpt>
      <trkpt lat="47.64441" lon="-2.80006">
        <ele>25</ele>
        <time>2025-01-28T08:45:44Z</time>
      </trkpt>
      <trkpt lat="47.64442" lon="-2.80006">
        <ele>25</ele>
        <time>2025-01-28T08:45:45Z</time>
      </trkpt>
      <trkpt lat="47.64443" lon="-2.80006">
        <ele>25</ele>
        <time>2025-01-28T08:45:46Z</time>
      </trkpt>
      <trkpt lat="47.64444" lon="-2.80005">
        <ele>25</ele>
        <time>2025-01-28T08:45:47Z</time>
      </trkpt>
      <trkpt lat="47.64445" lon="-2.80005">
        <ele>25</ele>
        <time>2025-01-28T08:45:48Z</time>
      </trkpt>
      <trkpt lat="47.64447" lon="-2.80004">
        <ele>25.1</ele>
        <time>2025-01-28T08:45:49Z</time>
      </trkpt>
      <trkpt lat="47.64448" lon="-2.80004">
        <ele>25.1</ele>
        <time>2025-01-28T08:45:50Z</time>
      </trkpt>
      <trkpt lat="47.64449" lon="-2.80003">
        <ele>25.2</ele>
        <time>2025-01-28T08:45:51Z</time>
      </trkpt>
      <trkpt lat="47.6445" lon="-2.80002">
        <ele>25.2</ele>
        <time>2025-01-28T08:45:52Z</time>
      </trkpt>
      <trkpt lat="47.64451" lon="-2.80001">
        <ele>25.3</ele>
        <time>2025-01-28T08:45:53Z</time>
      </trkpt>
      <trkpt lat="47.64452" lon="-2.8">
        <ele>25.3</ele>
        <time>2025-01-28T08:45:54Z</time>
      </trkpt>
      <trkpt lat="47.64454" lon="-2.79999">
        <ele>25.3</ele>
        <time>2025-01-28T08:45:55Z</time>
      </trkpt>
      <trkpt lat="47.64455" lon="-2.79999">
        <ele>25.4</ele>
        <time>2025-01-28T08:45:56Z</time>
      </trkpt>
      <trkpt lat="47.64456" lon="-2.79998">
        <ele>25.5</ele>
        <time>2025-01-28T08:45:57Z</time>
      </trkpt>
      <trkpt lat="47.64456" lon="-2.79997">
        <ele>25.5</ele>
        <time>2025-01-28T08:45:58Z</time>
      </trkpt>
      <trkpt lat="47.64458" lon="-2.79997">
        <ele>25.5</ele>
        <time>2025-01-28T08:45:59Z</time>
      </trkpt>
      <trkpt lat="47.64459" lon="-2.79997">
        <ele>25.6</ele>
        <time>2025-01-28T08:46:00Z</time>
      </trkpt>
      <trkpt lat="47.6446" lon="-2.79996">
        <ele>25.6</ele>
        <time>2025-01-28T08:46:01Z</time>
      </trkpt>
      <trkpt lat="47.64461" lon="-2.79995">
        <ele>25.7</ele>
        <time>2025-01-28T08:46:02Z</time>
      </trkpt>
      <trkpt lat="47.64462" lon="-2.79994">
        <ele>25.7</ele>
        <time>2025-01-28T08:46:03Z</time>
      </trkpt>
      <trkpt lat="47.64463" lon="-2.79993">
        <ele>25.7</ele>
        <time>2025-01-28T08:46:04Z</time>
      </trkpt>
      <trkpt lat="47.64464" lon="-2.79992">
        <ele>25.8</ele>
        <time>2025-01-28T08:46:05Z</time>
      </trkpt>
      <trkpt lat="47.64466" lon="-2.79992">
        <ele>25.8</ele>
        <time>2025-01-28T08:46:06Z</time>
      </trkpt>
      <trkpt lat="47.64467" lon="-2.79992">
        <ele>25.9</ele>
        <time>2025-01-28T08:46:07Z</time>
      </trkpt>
      <trkpt lat="47.64468" lon="-2.7999">
        <ele>25.9</ele>
        <time>2025-01-28T08:46:08Z</time>
      </trkpt>
      <trkpt lat="47.64469" lon="-2.7999">
        <ele>25.9</ele>
        <time>2025-01-28T08:46:09Z</time>
      </trkpt>
      <trkpt lat="47.6447" lon="-2.79989">
        <ele>26</ele>
        <time>2025-01-28T08:46:10Z</time>
      </trkpt>
      <trkpt lat="47.64472" lon="-2.79988">
        <ele>26</ele>
        <time>2025-01-28T08:46:11Z</time>
      </trkpt>
      <trkpt lat="47.64473" lon="-2.79988">
        <ele>26</ele>
        <time>2025-01-28T08:46:12Z</time>
      </trkpt>
      <trkpt lat="47.64473" lon="-2.79986">
        <ele>26</ele>
        <time>2025-01-28T08:46:13Z</time>
      </trkpt>
      <trkpt lat="47.64474" lon="-2.79985">
        <ele>26.1</ele>
        <time>2025-01-28T08:46:14Z</time>
      </trkpt>
      <trkpt lat="47.64475" lon="-2.79984">
        <ele>26.1</ele>
        <time>2025-01-28T08:46:15Z</time>
      </trkpt>
      <trkpt lat="47.64476" lon="-2.79984">
        <ele>26.1</ele>
        <time>2025-01-28T08:46:16Z</time>
      </trkpt>
      <trkpt lat="47.64477" lon="-2.79983">
        <ele>26.2</ele>
        <time>2025-01-28T08:46:17Z</time>
      </trkpt>
      <trkpt lat="47.64478" lon="-2.79982">
        <ele>26.2</ele>
        <time>2025-01-28T08:46:18Z</time>
      </trkpt>
      <trkpt lat="47.6448" lon="-2.79983">
        <ele>26.3</ele>
        <time>2025-01-28T08:46:19Z</time>
      </trkpt>
      <trkpt lat="47.64481" lon="-2.79982">
        <ele>26.3</ele>
        <time>2025-01-28T08:46:20Z</time>
      </trkpt>
      <trkpt lat="47.64482" lon="-2.79981">
        <ele>26.3</ele>
        <time>2025-01-28T08:46:21Z</time>
      </trkpt>
      <trkpt lat="47.64483" lon="-2.79981">
        <ele>26.4</ele>
        <time>2025-01-28T08:46:22Z</time>
      </trkpt>
      <trkpt lat="47.64484" lon="-2.7998">
        <ele>26.4</ele>
        <time>2025-01-28T08:46:23Z</time>
      </trkpt>
      <trkpt lat="47.64485" lon="-2.7998">
        <ele>26.5</ele>
        <time>2025-01-28T08:46:24Z</time>
      </trkpt>
      <trkpt lat="47.64486" lon="-2.79979">
        <ele>26.5</ele>
        <time>2025-01-28T08:46:25Z</time>
      </trkpt>
      <trkpt lat="47.64488" lon="-2.7998">
        <ele>26.5</ele>
        <time>2025-01-28T08:46:26Z</time>
      </trkpt>
      <trkpt lat="47.64489" lon="-2.7998">
        <ele>26.6</ele>
        <time>2025-01-28T08:46:27Z</time>
      </trkpt>
      <trkpt lat="47.6449" lon="-2.79979">
        <ele>26.6</ele>
        <time>2025-01-28T08:46:28Z</time>
      </trkpt>
      <trkpt lat="47.64491" lon="-2.79978">
        <ele>26.7</ele>
        <time>2025-01-28T08:46:29Z</time>
      </trkpt>
      <trkpt lat="47.64492" lon="-2.79978">
        <ele>26.7</ele>
        <time>2025-01-28T08:46:30Z</time>
      </trkpt>
      <trkpt lat="47.64493" lon="-2.79977">
        <ele>26.8</ele>
        <time>2025-01-28T08:46:31Z</time>
      </trkpt>
      <trkpt lat="47.64494" lon="-2.79977">
        <ele>26.8</ele>
        <time>2025-01-28T08:46:32Z</time>
      </trkpt>
      <trkpt lat="47.64495" lon="-2.79977">
        <ele>26.8</ele>
        <time>2025-01-28T08:46:33Z</time>
      </trkpt>
      <trkpt lat="47.64497" lon="-2.79977">
        <ele>26.9</ele>
        <time>2025-01-28T08:46:34Z</time>
      </trkpt>
      <trkpt lat="47.64498" lon="-2.79977">
        <ele>26.9</ele>
        <time>2025-01-28T08:46:35Z</time>
      </trkpt>
      <trkpt lat="47.64498" lon="-2.79977">
        <ele>26.9</ele>
        <time>2025-01-28T08:46:36Z</time>
      </trkpt>
      <trkpt lat="47.64498" lon="-2.79977">
        <ele>26.9</ele>
        <time>2025-01-28T08:46:37Z</time>
      </trkpt>
      <trkpt lat="47.64498" lon="-2.79977">
        <ele>26.9</ele>
        <time>2025-01-28T08:46:38Z</time>
      </trkpt>
      <trkpt lat="47.64498" lon="-2.79977">
        <ele>26.9</ele>
        <time>2025-01-28T08:46:39Z</time>
      </trkpt>
      <trkpt lat="47.64498" lon="-2.79977">
        <ele>26.9</ele>
        <time>2025-01-28T08:46:40Z</time>
      </trkpt>
      <trkpt lat="47.64498" lon="-2.79977">
        <ele>26.9</ele>
        <time>2025-01-28T08:46:41Z</time>
      </trkpt>
      <trkpt lat="47.64498" lon="-2.79977">
        <ele>26.9</ele>
        <time>2025-01-28T08:46:42Z</time>
      </trkpt>
      <trkpt lat="47.64498" lon="-2.79977">
        <ele>26.9</ele>
        <time>2025-01-28T08:46:43Z</time>
      </trkpt>
      <trkpt lat="47.64498" lon="-2.79977">
        <ele>26.9</ele>
        <time>2025-01-28T08:46:44Z</time>
      </trkpt>
      <trkpt lat="47.64498" lon="-2.79977">
        <ele>26.9</ele>
        <time>2025-01-28T08:46:45Z</time>
      </trkpt>
      <trkpt lat="47.64499" lon="-2.79977">
        <ele>26.9</ele>
        <time>2025-01-28T08:46:46Z</time>
      </trkpt>
      <trkpt lat="47.64499" lon="-2.79977">
        <ele>27</ele>
        <time>2025-01-28T08:46:47Z</time>
      </trkpt>
      <trkpt lat="47.64499" lon="-2.79977">
        <ele>27</ele>
        <time>2025-01-28T08:46:48Z</time>
      </trkpt>
      <trkpt lat="47.64499" lon="-2.79977">
        <ele>27</ele>
        <time>2025-01-28T08:46:49Z</time>
      </trkpt>
      <trkpt lat="47.64499" lon="-2.79977">
        <ele>27</ele>
        <time>2025-01-28T08:46:50Z</time>
      </trkpt>
      <trkpt lat="47.64499" lon="-2.79977">
        <ele>26.9</ele>
        <time>2025-01-28T08:46:51Z</time>
      </trkpt>
      <trkpt lat="47.64498" lon="-2.79975">
        <ele>26.9</ele>
        <time>2025-01-28T08:46:52Z</time>
      </trkpt>
      <trkpt lat="47.64498" lon="-2.79974">
        <ele>26.9</ele>
        <time>2025-01-28T08:46:53Z</time>
      </trkpt>
      <trkpt lat="47.645" lon="-2.79974">
        <ele>27</ele>
        <time>2025-01-28T08:46:54Z</time>
      </trkpt>
      <trkpt lat="47.645" lon="-2.79973">
        <ele>27</ele>
        <time>2025-01-28T08:46:55Z</time>
      </trkpt>
      <trkpt lat="47.64501" lon="-2.79972">
        <ele>27</ele>
        <time>2025-01-28T08:46:56Z</time>
      </trkpt>
      <trkpt lat="47.645" lon="-2.79972">
        <ele>27</ele>
        <time>2025-01-28T08:46:57Z</time>
      </trkpt>
      <trkpt lat="47.645" lon="-2.79972">
        <ele>27</ele>
        <time>2025-01-28T08:46:58Z</time>
      </trkpt>
      <trkpt lat="47.64499" lon="-2.79973">
        <ele>27</ele>
        <time>2025-01-28T08:46:59Z</time>
      </trkpt>
      <trkpt lat="47.64499" lon="-2.79973">
        <ele>27</ele>
        <time>2025-01-28T08:47:00Z</time>
      </trkpt>
      <trkpt lat="47.64499" lon="-2.79973">
        <ele>27</ele>
        <time>2025-01-28T08:47:01Z</time>
      </trkpt>
      <trkpt lat="47.64499" lon="-2.79973">
        <ele>27</ele>
        <time>2025-01-28T08:47:02Z</time>
      </trkpt>
      <trkpt lat="47.64499" lon="-2.79973">
        <ele>27</ele>
        <time>2025-01-28T08:47:03Z</time>
      </trkpt>
      <trkpt lat="47.64499" lon="-2.79973">
        <ele>27</ele>
        <time>2025-01-28T08:47:04Z</time>
      </trkpt>
      <trkpt lat="47.64499" lon="-2.79973">
        <ele>27</ele>
        <time>2025-01-28T08:47:05Z</time>
      </trkpt>
      <trkpt lat="47.64499" lon="-2.79973">
        <ele>27</ele>
        <time>2025-01-28T08:47:06Z</time>
      </trkpt>
      <trkpt lat="47.64499" lon="-2.79973">
        <ele>27</ele>
        <time>2025-01-28T08:47:07Z</time>
      </trkpt>
      <trkpt lat="47.64499" lon="-2.79973">
        <ele>26.9</ele>
        <time>2025-01-28T08:47:08Z</time>
      </trkpt>
      <trkpt lat="47.64499" lon="-2.79973">
        <ele>26.9</ele>
        <time>2025-01-28T08:47:09Z</time>
      </trkpt>
      <trkpt lat="47.64499" lon="-2.79973">
        <ele>26.9</ele>
        <time>2025-01-28T08:47:10Z</time>
      </trkpt>
      <trkpt lat="47.64499" lon="-2.79973">
        <ele>26.9</ele>
        <time>2025-01-28T08:47:11Z</time>
      </trkpt>
      <trkpt lat="47.64499" lon="-2.79973">
        <ele>26.9</ele>
        <time>2025-01-28T08:47:12Z</time>
      </trkpt>
      <trkpt lat="47.64499" lon="-2.79973">
        <ele>26.9</ele>
        <time>2025-01-28T08:47:13Z</time>
      </trkpt>
      <trkpt lat="47.64499" lon="-2.79973">
        <ele>26.9</ele>
        <time>2025-01-28T08:47:14Z</time>
      </trkpt>
      <trkpt lat="47.64499" lon="-2.79973">
        <ele>26.9</ele>
        <time>2025-01-28T08:47:15Z</time>
      </trkpt>
      <trkpt lat="47.64499" lon="-2.79973">
        <ele>26.9</ele>
        <time>2025-01-28T08:47:16Z</time>
      </trkpt>
      <trkpt lat="47.64499" lon="-2.79973">
        <ele>26.9</ele>
        <time>2025-01-28T08:47:17Z</time>
      </trkpt>
      <trkpt lat="47.64499" lon="-2.79973">
        <ele>26.9</ele>
        <time>2025-01-28T08:47:18Z</time>
      </trkpt>
      <trkpt lat="47.64499" lon="-2.79973">
        <ele>26.9</ele>
        <time>2025-01-28T08:47:19Z</time>
      </trkpt>
      <trkpt lat="47.64499" lon="-2.79973">
        <ele>26.9</ele>
        <time>2025-01-28T08:47:20Z</time>
      </trkpt>
      <trkpt lat="47.64499" lon="-2.79973">
        <ele>26.9</ele>
        <time>2025-01-28T08:47:21Z</time>
      </trkpt>
      <trkpt lat="47.64499" lon="-2.79973">
        <ele>26.9</ele>
        <time>2025-01-28T08:47:22Z</time>
      </trkpt>
      <trkpt lat="47.64499" lon="-2.79973">
        <ele>26.9</ele>
        <time>2025-01-28T08:47:23Z</time>
      </trkpt>
      <trkpt lat="47.64499" lon="-2.79973">
        <ele>26.9</ele>
        <time>2025-01-28T08:47:24Z</time>
      </trkpt>
      <trkpt lat="47.64499" lon="-2.79973">
        <ele>26.9</ele>
        <time>2025-01-28T08:47:25Z</time>
      </trkpt>
      <trkpt lat="47.64499" lon="-2.79973">
        <ele>26.9</ele>
        <time>2025-01-28T08:47:26Z</time>
      </trkpt>
      <trkpt lat="47.64499" lon="-2.79973">
        <ele>26.9</ele>
        <time>2025-01-28T08:47:27Z</time>
      </trkpt>
      <trkpt lat="47.64499" lon="-2.79973">
        <ele>26.9</ele>
        <time>2025-01-28T08:47:28Z</time>
      </trkpt>
      <trkpt lat="47.64499" lon="-2.79973">
        <ele>26.9</ele>
        <time>2025-01-28T08:47:29Z</time>
      </trkpt>
      <trkpt lat="47.64499" lon="-2.79973">
        <ele>26.9</ele>
        <time>2025-01-28T08:47:30Z</time>
      </trkpt>
      <trkpt lat="47.64499" lon="-2.79973">
        <ele>26.9</ele>
        <time>2025-01-28T08:47:31Z</time>
      </trkpt>
      <trkpt lat="47.64499" lon="-2.79973">
        <ele>26.9</ele>
        <time>2025-01-28T08:47:32Z</time>
      </trkpt>
      <trkpt lat="47.64499" lon="-2.79973">
        <ele>26.9</ele>
        <time>2025-01-28T08:47:33Z</time>
      </trkpt>
      <trkpt lat="47.64499" lon="-2.79973">
        <ele>26.9</ele>
        <time>2025-01-28T08:47:34Z</time>
      </trkpt>
      <trkpt lat="47.64499" lon="-2.79973">
        <ele>26.9</ele>
        <time>2025-01-28T08:47:35Z</time>
      </trkpt>
      <trkpt lat="47.64498" lon="-2.79973">
        <ele>26.9</ele>
        <time>2025-01-28T08:47:36Z</time>
      </trkpt>
      <trkpt lat="47.64497" lon="-2.79973">
        <ele>26.9</ele>
        <time>2025-01-28T08:47:37Z</time>
      </trkpt>
      <trkpt lat="47.64497" lon="-2.79973">
        <ele>26.9</ele>
        <time>2025-01-28T08:47:38Z</time>
      </trkpt>
      <trkpt lat="47.64497" lon="-2.79973">
        <ele>26.9</ele>
        <time>2025-01-28T08:47:39Z</time>
      </trkpt>
      <trkpt lat="47.64497" lon="-2.79973">
        <ele>26.9</ele>
        <time>2025-01-28T08:47:40Z</time>
      </trkpt>
      <trkpt lat="47.64497" lon="-2.79973">
        <ele>26.9</ele>
        <time>2025-01-28T08:47:41Z</time>
      </trkpt>
      <trkpt lat="47.64497" lon="-2.79973">
        <ele>26.9</ele>
        <time>2025-01-28T08:47:42Z</time>
      </trkpt>
      <trkpt lat="47.64497" lon="-2.79973">
        <ele>26.9</ele>
        <time>2025-01-28T08:47:43Z</time>
      </trkpt>
      <trkpt lat="47.64497" lon="-2.79973">
        <ele>26.9</ele>
        <time>2025-01-28T08:47:44Z</time>
      </trkpt>
      <trkpt lat="47.64497" lon="-2.79973">
        <ele>26.9</ele>
        <time>2025-01-28T08:47:45Z</time>
      </trkpt>
      <trkpt lat="47.64497" lon="-2.79973">
        <ele>26.9</ele>
        <time>2025-01-28T08:47:46Z</time>
      </trkpt>
      <trkpt lat="47.64497" lon="-2.79973">
        <ele>26.9</ele>
        <time>2025-01-28T08:47:47Z</time>
      </trkpt>
      <trkpt lat="47.64497" lon="-2.79973">
        <ele>26.9</ele>
        <time>2025-01-28T08:47:48Z</time>
      </trkpt>
      <trkpt lat="47.64497" lon="-2.79973">
        <ele>26.9</ele>
        <time>2025-01-28T08:47:49Z</time>
      </trkpt>
      <trkpt lat="47.64497" lon="-2.79973">
        <ele>26.9</ele>
        <time>2025-01-28T08:47:50Z</time>
      </trkpt>
      <trkpt lat="47.64497" lon="-2.79973">
        <ele>26.9</ele>
        <time>2025-01-28T08:47:51Z</time>
      </trkpt>
      <trkpt lat="47.64497" lon="-2.79973">
        <ele>26.9</ele>
        <time>2025-01-28T08:47:52Z</time>
      </trkpt>
      <trkpt lat="47.64497" lon="-2.79973">
        <ele>26.9</ele>
        <time>2025-01-28T08:47:53Z</time>
      </trkpt>
      <trkpt lat="47.64497" lon="-2.79973">
        <ele>26.9</ele>
        <time>2025-01-28T08:47:54Z</time>
      </trkpt>
      <trkpt lat="47.64497" lon="-2.79973">
        <ele>26.9</ele>
        <time>2025-01-28T08:47:55Z</time>
      </trkpt>
      <trkpt lat="47.64497" lon="-2.79973">
        <ele>26.9</ele>
        <time>2025-01-28T08:47:56Z</time>
      </trkpt>
      <trkpt lat="47.64497" lon="-2.79973">
        <ele>26.9</ele>
        <time>2025-01-28T08:47:57Z</time>
      </trkpt>
      <trkpt lat="47.64497" lon="-2.79973">
        <ele>26.9</ele>
        <time>2025-01-28T08:47:58Z</time>
      </trkpt>
      <trkpt lat="47.64497" lon="-2.79973">
        <ele>26.9</ele>
        <time>2025-01-28T08:47:59Z</time>
      </trkpt>
      <trkpt lat="47.64497" lon="-2.79973">
        <ele>26.9</ele>
        <time>2025-01-28T08:48:00Z</time>
      </trkpt>
      <trkpt lat="47.64497" lon="-2.79973">
        <ele>26.9</ele>
        <time>2025-01-28T08:48:01Z</time>
      </trkpt>
      <trkpt lat="47.64496" lon="-2.79973">
        <ele>26.9</ele>
        <time>2025-01-28T08:48:02Z</time>
      </trkpt>
      <trkpt lat="47.64496" lon="-2.79973">
        <ele>26.9</ele>
        <time>2025-01-28T08:48:03Z</time>
      </trkpt>
      <trkpt lat="47.64496" lon="-2.79973">
        <ele>26.9</ele>
        <time>2025-01-28T08:48:04Z</time>
      </trkpt>
      <trkpt lat="47.64496" lon="-2.79973">
        <ele>26.9</ele>
        <time>2025-01-28T08:48:05Z</time>
      </trkpt>
      <trkpt lat="47.64496" lon="-2.79973">
        <ele>26.9</ele>
        <time>2025-01-28T08:48:06Z</time>
      </trkpt>
      <trkpt lat="47.64496" lon="-2.79973">
        <ele>26.9</ele>
        <time>2025-01-28T08:48:07Z</time>
      </trkpt>
      <trkpt lat="47.64496" lon="-2.79973">
        <ele>26.9</ele>
        <time>2025-01-28T08:48:08Z</time>
      </trkpt>
      <trkpt lat="47.64496" lon="-2.79973">
        <ele>26.9</ele>
        <time>2025-01-28T08:48:09Z</time>
      </trkpt>
      <trkpt lat="47.64496" lon="-2.79973">
        <ele>26.9</ele>
        <time>2025-01-28T08:48:10Z</time>
      </trkpt>
      <trkpt lat="47.64496" lon="-2.79973">
        <ele>26.9</ele>
        <time>2025-01-28T08:48:11Z</time>
      </trkpt>
      <trkpt lat="47.64496" lon="-2.79973">
        <ele>26.9</ele>
        <time>2025-01-28T08:48:12Z</time>
      </trkpt>
      <trkpt lat="47.64496" lon="-2.79973">
        <ele>26.9</ele>
        <time>2025-01-28T08:48:13Z</time>
      </trkpt>
      <trkpt lat="47.64496" lon="-2.79973">
        <ele>26.9</ele>
        <time>2025-01-28T08:48:14Z</time>
      </trkpt>
      <trkpt lat="47.64496" lon="-2.79973">
        <ele>26.9</ele>
        <time>2025-01-28T08:48:15Z</time>
      </trkpt>
      <trkpt lat="47.64496" lon="-2.79973">
        <ele>26.9</ele>
        <time>2025-01-28T08:48:16Z</time>
      </trkpt>
      <trkpt lat="47.64496" lon="-2.79973">
        <ele>26.9</ele>
        <time>2025-01-28T08:48:17Z</time>
      </trkpt>
      <trkpt lat="47.64496" lon="-2.79973">
        <ele>26.9</ele>
        <time>2025-01-28T08:48:18Z</time>
      </trkpt>
      <trkpt lat="47.64496" lon="-2.79972">
        <ele>26.9</ele>
        <time>2025-01-28T08:48:19Z</time>
      </trkpt>
      <trkpt lat="47.64496" lon="-2.79972">
        <ele>26.9</ele>
        <time>2025-01-28T08:48:20Z</time>
      </trkpt>
      <trkpt lat="47.64496" lon="-2.79972">
        <ele>26.9</ele>
        <time>2025-01-28T08:48:21Z</time>
      </trkpt>
      <trkpt lat="47.64496" lon="-2.79972">
        <ele>26.9</ele>
        <time>2025-01-28T08:48:22Z</time>
      </trkpt>
      <trkpt lat="47.64496" lon="-2.79972">
        <ele>26.9</ele>
        <time>2025-01-28T08:48:23Z</time>
      </trkpt>
      <trkpt lat="47.64496" lon="-2.79972">
        <ele>26.9</ele>
        <time>2025-01-28T08:48:24Z</time>
      </trkpt>
      <trkpt lat="47.64496" lon="-2.79972">
        <ele>26.9</ele>
        <time>2025-01-28T08:48:25Z</time>
      </trkpt>
      <trkpt lat="47.64496" lon="-2.79972">
        <ele>26.9</ele>
        <time>2025-01-28T08:48:26Z</time>
      </trkpt>
      <trkpt lat="47.64496" lon="-2.79972">
        <ele>26.9</ele>
        <time>2025-01-28T08:48:27Z</time>
      </trkpt>
      <trkpt lat="47.64496" lon="-2.79972">
        <ele>26.9</ele>
        <time>2025-01-28T08:48:28Z</time>
      </trkpt>
      <trkpt lat="47.64496" lon="-2.79972">
        <ele>26.9</ele>
        <time>2025-01-28T08:48:29Z</time>
      </trkpt>
      <trkpt lat="47.64496" lon="-2.79972">
        <ele>26.9</ele>
        <time>2025-01-28T08:48:30Z</time>
      </trkpt>
      <trkpt lat="47.64496" lon="-2.79972">
        <ele>26.9</ele>
        <time>2025-01-28T08:48:31Z</time>
      </trkpt>
      <trkpt lat="47.64496" lon="-2.79972">
        <ele>26.9</ele>
        <time>2025-01-28T08:48:32Z</time>
      </trkpt>
      <trkpt lat="47.64496" lon="-2.79973">
        <ele>26.9</ele>
        <time>2025-01-28T08:48:33Z</time>
      </trkpt>
      <trkpt lat="47.64496" lon="-2.79973">
        <ele>26.9</ele>
        <time>2025-01-28T08:48:34Z</time>
      </trkpt>
      <trkpt lat="47.64496" lon="-2.79973">
        <ele>26.9</ele>
        <time>2025-01-28T08:48:35Z</time>
      </trkpt>
      <trkpt lat="47.64496" lon="-2.79973">
        <ele>26.9</ele>
        <time>2025-01-28T08:48:36Z</time>
      </trkpt>
      <trkpt lat="47.64496" lon="-2.79973">
        <ele>26.9</ele>
        <time>2025-01-28T08:48:37Z</time>
      </trkpt>
      <trkpt lat="47.64496" lon="-2.79973">
        <ele>26.9</ele>
        <time>2025-01-28T08:48:38Z</time>
      </trkpt>
      <trkpt lat="47.64496" lon="-2.79973">
        <ele>26.9</ele>
        <time>2025-01-28T08:48:39Z</time>
      </trkpt>
      <trkpt lat="47.64496" lon="-2.79973">
        <ele>26.9</ele>
        <time>2025-01-28T08:48:40Z</time>
      </trkpt>
      <trkpt lat="47.64496" lon="-2.79973">
        <ele>26.9</ele>
        <time>2025-01-28T08:48:41Z</time>
      </trkpt>
      <trkpt lat="47.64496" lon="-2.79973">
        <ele>26.9</ele>
        <time>2025-01-28T08:48:42Z</time>
      </trkpt>
      <trkpt lat="47.64496" lon="-2.79973">
        <ele>26.9</ele>
        <time>2025-01-28T08:48:43Z</time>
      </trkpt>
      <trkpt lat="47.64496" lon="-2.79973">
        <ele>26.9</ele>
        <time>2025-01-28T08:48:44Z</time>
      </trkpt>
      <trkpt lat="47.64496" lon="-2.79973">
        <ele>26.9</ele>
        <time>2025-01-28T08:48:45Z</time>
      </trkpt>
      <trkpt lat="47.64496" lon="-2.79973">
        <ele>26.9</ele>
        <time>2025-01-28T08:48:46Z</time>
      </trkpt>
      <trkpt lat="47.64496" lon="-2.79973">
        <ele>26.9</ele>
        <time>2025-01-28T08:48:47Z</time>
      </trkpt>
      <trkpt lat="47.64496" lon="-2.79973">
        <ele>26.9</ele>
        <time>2025-01-28T08:48:48Z</time>
      </trkpt>
      <trkpt lat="47.64496" lon="-2.79973">
        <ele>26.9</ele>
        <time>2025-01-28T08:48:49Z</time>
      </trkpt>
      <trkpt lat="47.64496" lon="-2.79973">
        <ele>26.9</ele>
        <time>2025-01-28T08:48:50Z</time>
      </trkpt>
      <trkpt lat="47.64496" lon="-2.79973">
        <ele>26.9</ele>
        <time>2025-01-28T08:48:51Z</time>
      </trkpt>
      <trkpt lat="47.64496" lon="-2.79973">
        <ele>26.9</ele>
        <time>2025-01-28T08:48:52Z</time>
      </trkpt>
      <trkpt lat="47.64496" lon="-2.79973">
        <ele>26.9</ele>
        <time>2025-01-28T08:48:53Z</time>
      </trkpt>
      <trkpt lat="47.64496" lon="-2.79973">
        <ele>26.9</ele>
        <time>2025-01-28T08:48:54Z</time>
      </trkpt>
      <trkpt lat="47.64496" lon="-2.79973">
        <ele>26.9</ele>
        <time>2025-01-28T08:48:55Z</time>
      </trkpt>
      <trkpt lat="47.64496" lon="-2.79973">
        <ele>26.9</ele>
        <time>2025-01-28T08:48:56Z</time>
      </trkpt>
      <trkpt lat="47.64496" lon="-2.79973">
        <ele>26.9</ele>
        <time>2025-01-28T08:48:57Z</time>
      </trkpt>
      <trkpt lat="47.64496" lon="-2.79973">
        <ele>26.9</ele>
        <time>2025-01-28T08:48:58Z</time>
      </trkpt>
      <trkpt lat="47.64496" lon="-2.79973">
        <ele>26.9</ele>
        <time>2025-01-28T08:48:59Z</time>
      </trkpt>
      <trkpt lat="47.64496" lon="-2.79973">
        <ele>26.9</ele>
        <time>2025-01-28T08:49:00Z</time>
      </trkpt>
      <trkpt lat="47.64496" lon="-2.79973">
        <ele>26.9</ele>
        <time>2025-01-28T08:49:01Z</time>
      </trkpt>
      <trkpt lat="47.64496" lon="-2.79973">
        <ele>26.9</ele>
        <time>2025-01-28T08:49:02Z</time>
      </trkpt>
      <trkpt lat="47.64496" lon="-2.79973">
        <ele>26.9</ele>
        <time>2025-01-28T08:49:03Z</time>
      </trkpt>
      <trkpt lat="47.64496" lon="-2.79973">
        <ele>26.9</ele>
        <time>2025-01-28T08:49:04Z</time>
      </trkpt>
      <trkpt lat="47.64496" lon="-2.79973">
        <ele>26.9</ele>
        <time>2025-01-28T08:49:05Z</time>
      </trkpt>
      <trkpt lat="47.64496" lon="-2.79973">
        <ele>26.9</ele>
        <time>2025-01-28T08:49:06Z</time>
      </trkpt>
      <trkpt lat="47.64496" lon="-2.79973">
        <ele>26.9</ele>
        <time>2025-01-28T08:49:07Z</time>
      </trkpt>
      <trkpt lat="47.64496" lon="-2.79973">
        <ele>26.9</ele>
        <time>2025-01-28T08:49:08Z</time>
      </trkpt>
      <trkpt lat="47.64496" lon="-2.79973">
        <ele>26.9</ele>
        <time>2025-01-28T08:49:09Z</time>
      </trkpt>
      <trkpt lat="47.64496" lon="-2.79973">
        <ele>26.9</ele>
        <time>2025-01-28T08:49:10Z</time>
      </trkpt>
      <trkpt lat="47.64496" lon="-2.79973">
        <ele>26.9</ele>
        <time>2025-01-28T08:49:11Z</time>
      </trkpt>
      <trkpt lat="47.64496" lon="-2.79973">
        <ele>26.9</ele>
        <time>2025-01-28T08:49:12Z</time>
      </trkpt>
      <trkpt lat="47.64496" lon="-2.79973">
        <ele>26.9</ele>
        <time>2025-01-28T08:49:13Z</time>
      </trkpt>
      <trkpt lat="47.64496" lon="-2.79973">
        <ele>26.9</ele>
        <time>2025-01-28T08:49:14Z</time>
      </trkpt>
      <trkpt lat="47.64496" lon="-2.79973">
        <ele>26.9</ele>
        <time>2025-01-28T08:49:15Z</time>
      </trkpt>
      <trkpt lat="47.64496" lon="-2.79973">
        <ele>26.9</ele>
        <time>2025-01-28T08:49:16Z</time>
      </trkpt>
      <trkpt lat="47.64496" lon="-2.79973">
        <ele>26.9</ele>
        <time>2025-01-28T08:49:17Z</time>
      </trkpt>
      <trkpt lat="47.64496" lon="-2.79973">
        <ele>26.9</ele>
        <time>2025-01-28T08:49:18Z</time>
      </trkpt>
      <trkpt lat="47.64496" lon="-2.79973">
        <ele>26.9</ele>
        <time>2025-01-28T08:49:19Z</time>
      </trkpt>
      <trkpt lat="47.64496" lon="-2.79973">
        <ele>26.9</ele>
        <time>2025-01-28T08:49:20Z</time>
      </trkpt>
      <trkpt lat="47.64496" lon="-2.79973">
        <ele>26.9</ele>
        <time>2025-01-28T08:49:21Z</time>
      </trkpt>
      <trkpt lat="47.64496" lon="-2.79973">
        <ele>26.9</ele>
        <time>2025-01-28T08:49:22Z</time>
      </trkpt>
      <trkpt lat="47.64496" lon="-2.79973">
        <ele>26.9</ele>
        <time>2025-01-28T08:49:23Z</time>
      </trkpt>
      <trkpt lat="47.64496" lon="-2.79974">
        <ele>26.9</ele>
        <time>2025-01-28T08:49:24Z</time>
      </trkpt>
      <trkpt lat="47.64496" lon="-2.79974">
        <ele>26.9</ele>
        <time>2025-01-28T08:49:25Z</time>
      </trkpt>
      <trkpt lat="47.64496" lon="-2.79975">
        <ele>26.8</ele>
        <time>2025-01-28T08:49:26Z</time>
      </trkpt>
      <trkpt lat="47.64495" lon="-2.79975">
        <ele>26.8</ele>
        <time>2025-01-28T08:49:27Z</time>
      </trkpt>
      <trkpt lat="47.64495" lon="-2.79975">
        <ele>26.8</ele>
        <time>2025-01-28T08:49:28Z</time>
      </trkpt>
      <trkpt lat="47.64495" lon="-2.79975">
        <ele>26.8</ele>
        <time>2025-01-28T08:49:29Z</time>
      </trkpt>
      <trkpt lat="47.64495" lon="-2.79975">
        <ele>26.8</ele>
        <time>2025-01-28T08:49:30Z</time>
      </trkpt>
      <trkpt lat="47.64495" lon="-2.79975">
        <ele>26.8</ele>
        <time>2025-01-28T08:49:31Z</time>
      </trkpt>
      <trkpt lat="47.64495" lon="-2.79975">
        <ele>26.8</ele>
        <time>2025-01-28T08:49:32Z</time>
      </trkpt>
      <trkpt lat="47.64495" lon="-2.79975">
        <ele>26.8</ele>
        <time>2025-01-28T08:49:33Z</time>
      </trkpt>
      <trkpt lat="47.64495" lon="-2.79975">
        <ele>26.8</ele>
        <time>2025-01-28T08:49:34Z</time>
      </trkpt>
      <trkpt lat="47.64495" lon="-2.79975">
        <ele>26.8</ele>
        <time>2025-01-28T08:49:35Z</time>
      </trkpt>
      <trkpt lat="47.64495" lon="-2.79975">
        <ele>26.8</ele>
        <time>2025-01-28T08:49:36Z</time>
      </trkpt>
      <trkpt lat="47.64495" lon="-2.79975">
        <ele>26.8</ele>
        <time>2025-01-28T08:49:37Z</time>
      </trkpt>
      <trkpt lat="47.64495" lon="-2.79975">
        <ele>26.8</ele>
        <time>2025-01-28T08:49:38Z</time>
      </trkpt>
      <trkpt lat="47.64495" lon="-2.79975">
        <ele>26.8</ele>
        <time>2025-01-28T08:49:39Z</time>
      </trkpt>
      <trkpt lat="47.64495" lon="-2.79975">
        <ele>26.8</ele>
        <time>2025-01-28T08:49:40Z</time>
      </trkpt>
      <trkpt lat="47.64495" lon="-2.79975">
        <ele>26.8</ele>
        <time>2025-01-28T08:49:41Z</time>
      </trkpt>
      <trkpt lat="47.64495" lon="-2.79975">
        <ele>26.8</ele>
        <time>2025-01-28T08:49:42Z</time>
      </trkpt>
      <trkpt lat="47.64495" lon="-2.79974">
        <ele>26.8</ele>
        <time>2025-01-28T08:49:43Z</time>
      </trkpt>
      <trkpt lat="47.64495" lon="-2.79974">
        <ele>26.8</ele>
        <time>2025-01-28T08:49:44Z</time>
      </trkpt>
      <trkpt lat="47.64495" lon="-2.79974">
        <ele>26.8</ele>
        <time>2025-01-28T08:49:45Z</time>
      </trkpt>
      <trkpt lat="47.64495" lon="-2.79974">
        <ele>26.8</ele>
        <time>2025-01-28T08:49:46Z</time>
      </trkpt>
      <trkpt lat="47.64495" lon="-2.79974">
        <ele>26.8</ele>
        <time>2025-01-28T08:49:47Z</time>
      </trkpt>
      <trkpt lat="47.64495" lon="-2.79974">
        <ele>26.8</ele>
        <time>2025-01-28T08:49:48Z</time>
      </trkpt>
      <trkpt lat="47.64495" lon="-2.79974">
        <ele>26.8</ele>
        <time>2025-01-28T08:49:49Z</time>
      </trkpt>
      <trkpt lat="47.64495" lon="-2.79974">
        <ele>26.8</ele>
        <time>2025-01-28T08:49:50Z</time>
      </trkpt>
      <trkpt lat="47.64495" lon="-2.79974">
        <ele>26.8</ele>
        <time>2025-01-28T08:49:51Z</time>
      </trkpt>
      <trkpt lat="47.64495" lon="-2.79974">
        <ele>26.8</ele>
        <time>2025-01-28T08:49:52Z</time>
      </trkpt>
      <trkpt lat="47.64495" lon="-2.79974">
        <ele>26.8</ele>
        <time>2025-01-28T08:49:53Z</time>
      </trkpt>
      <trkpt lat="47.64495" lon="-2.79974">
        <ele>26.8</ele>
        <time>2025-01-28T08:49:54Z</time>
      </trkpt>
      <trkpt lat="47.64495" lon="-2.79974">
        <ele>26.8</ele>
        <time>2025-01-28T08:49:55Z</time>
      </trkpt>
      <trkpt lat="47.64495" lon="-2.79974">
        <ele>26.8</ele>
        <time>2025-01-28T08:49:56Z</time>
      </trkpt>
      <trkpt lat="47.64495" lon="-2.79974">
        <ele>26.8</ele>
        <time>2025-01-28T08:49:57Z</time>
      </trkpt>
      <trkpt lat="47.64495" lon="-2.79974">
        <ele>26.8</ele>
        <time>2025-01-28T08:49:58Z</time>
      </trkpt>
      <trkpt lat="47.64494" lon="-2.79975">
        <ele>26.8</ele>
        <time>2025-01-28T08:49:59Z</time>
      </trkpt>
      <trkpt lat="47.64494" lon="-2.79975">
        <ele>26.8</ele>
        <time>2025-01-28T08:50:00Z</time>
      </trkpt>
      <trkpt lat="47.64494" lon="-2.79975">
        <ele>26.8</ele>
        <time>2025-01-28T08:50:01Z</time>
      </trkpt>
      <trkpt lat="47.64494" lon="-2.79975">
        <ele>26.8</ele>
        <time>2025-01-28T08:50:02Z</time>
      </trkpt>
      <trkpt lat="47.64494" lon="-2.79975">
        <ele>26.8</ele>
        <time>2025-01-28T08:50:03Z</time>
      </trkpt>
      <trkpt lat="47.64494" lon="-2.79975">
        <ele>26.8</ele>
        <time>2025-01-28T08:50:04Z</time>
      </trkpt>
      <trkpt lat="47.64494" lon="-2.79975">
        <ele>26.8</ele>
        <time>2025-01-28T08:50:05Z</time>
      </trkpt>
      <trkpt lat="47.64494" lon="-2.79975">
        <ele>26.8</ele>
        <time>2025-01-28T08:50:06Z</time>
      </trkpt>
      <trkpt lat="47.64494" lon="-2.79975">
        <ele>26.8</ele>
        <time>2025-01-28T08:50:07Z</time>
      </trkpt>
      <trkpt lat="47.64493" lon="-2.79975">
        <ele>26.8</ele>
        <time>2025-01-28T08:50:08Z</time>
      </trkpt>
      <trkpt lat="47.64494" lon="-2.79975">
        <ele>26.8</ele>
        <time>2025-01-28T08:50:09Z</time>
      </trkpt>
      <trkpt lat="47.64494" lon="-2.79975">
        <ele>26.8</ele>
        <time>2025-01-28T08:50:10Z</time>
      </trkpt>
      <trkpt lat="47.64494" lon="-2.79975">
        <ele>26.8</ele>
        <time>2025-01-28T08:50:11Z</time>
      </trkpt>
      <trkpt lat="47.64494" lon="-2.79975">
        <ele>26.8</ele>
        <time>2025-01-28T08:50:12Z</time>
      </trkpt>
      <trkpt lat="47.64494" lon="-2.79975">
        <ele>26.8</ele>
        <time>2025-01-28T08:50:13Z</time>
      </trkpt>
      <trkpt lat="47.64494" lon="-2.79975">
        <ele>26.8</ele>
        <time>2025-01-28T08:50:14Z</time>
      </trkpt>
      <trkpt lat="47.64494" lon="-2.79975">
        <ele>26.8</ele>
        <time>2025-01-28T08:50:15Z</time>
      </trkpt>
      <trkpt lat="47.64494" lon="-2.79975">
        <ele>26.8</ele>
        <time>2025-01-28T08:50:16Z</time>
      </trkpt>
      <trkpt lat="47.64494" lon="-2.79975">
        <ele>26.8</ele>
        <time>2025-01-28T08:50:17Z</time>
      </trkpt>
      <trkpt lat="47.64494" lon="-2.79975">
        <ele>26.8</ele>
        <time>2025-01-28T08:50:18Z</time>
      </trkpt>
      <trkpt lat="47.64494" lon="-2.79975">
        <ele>26.8</ele>
        <time>2025-01-28T08:50:19Z</time>
      </trkpt>
      <trkpt lat="47.64494" lon="-2.79975">
        <ele>26.8</ele>
        <time>2025-01-28T08:50:20Z</time>
      </trkpt>
      <trkpt lat="47.64494" lon="-2.79975">
        <ele>26.8</ele>
        <time>2025-01-28T08:50:21Z</time>
      </trkpt>
      <trkpt lat="47.64494" lon="-2.79975">
        <ele>26.8</ele>
        <time>2025-01-28T08:50:22Z</time>
      </trkpt>
      <trkpt lat="47.64494" lon="-2.79975">
        <ele>26.8</ele>
        <time>2025-01-28T08:50:23Z</time>
      </trkpt>
      <trkpt lat="47.64494" lon="-2.79975">
        <ele>26.8</ele>
        <time>2025-01-28T08:50:24Z</time>
      </trkpt>
      <trkpt lat="47.64495" lon="-2.79974">
        <ele>26.8</ele>
        <time>2025-01-28T08:50:25Z</time>
      </trkpt>
      <trkpt lat="47.64495" lon="-2.79974">
        <ele>26.8</ele>
        <time>2025-01-28T08:50:26Z</time>
      </trkpt>
      <trkpt lat="47.64495" lon="-2.79975">
        <ele>26.8</ele>
        <time>2025-01-28T08:50:27Z</time>
      </trkpt>
      <trkpt lat="47.64494" lon="-2.79975">
        <ele>26.8</ele>
        <time>2025-01-28T08:50:28Z</time>
      </trkpt>
      <trkpt lat="47.64494" lon="-2.79976">
        <ele>26.8</ele>
        <time>2025-01-28T08:50:29Z</time>
      </trkpt>
      <trkpt lat="47.64494" lon="-2.79975">
        <ele>26.8</ele>
        <time>2025-01-28T08:50:30Z</time>
      </trkpt>
      <trkpt lat="47.64495" lon="-2.79975">
        <ele>26.8</ele>
        <time>2025-01-28T08:50:31Z</time>
      </trkpt>
      <trkpt lat="47.64495" lon="-2.79975">
        <ele>26.8</ele>
        <time>2025-01-28T08:50:32Z</time>
      </trkpt>
      <trkpt lat="47.64495" lon="-2.79975">
        <ele>26.8</ele>
        <time>2025-01-28T08:50:33Z</time>
      </trkpt>
      <trkpt lat="47.64495" lon="-2.79975">
        <ele>26.8</ele>
        <time>2025-01-28T08:50:34Z</time>
      </trkpt>
      <trkpt lat="47.64495" lon="-2.79975">
        <ele>26.8</ele>
        <time>2025-01-28T08:50:35Z</time>
      </trkpt>
      <trkpt lat="47.64494" lon="-2.79975">
        <ele>26.8</ele>
        <time>2025-01-28T08:50:36Z</time>
      </trkpt>
      <trkpt lat="47.64494" lon="-2.79975">
        <ele>26.8</ele>
        <time>2025-01-28T08:50:37Z</time>
      </trkpt>
      <trkpt lat="47.64494" lon="-2.79975">
        <ele>26.8</ele>
        <time>2025-01-28T08:50:38Z</time>
      </trkpt>
      <trkpt lat="47.64494" lon="-2.79975">
        <ele>26.8</ele>
        <time>2025-01-28T08:50:39Z</time>
      </trkpt>
      <trkpt lat="47.64495" lon="-2.79975">
        <ele>26.8</ele>
        <time>2025-01-28T08:50:40Z</time>
      </trkpt>
      <trkpt lat="47.64495" lon="-2.79975">
        <ele>26.8</ele>
        <time>2025-01-28T08:50:41Z</time>
      </trkpt>
      <trkpt lat="47.64495" lon="-2.79974">
        <ele>26.8</ele>
        <time>2025-01-28T08:50:42Z</time>
      </trkpt>
      <trkpt lat="47.64494" lon="-2.79974">
        <ele>26.8</ele>
        <time>2025-01-28T08:50:43Z</time>
      </trkpt>
      <trkpt lat="47.64494" lon="-2.79974">
        <ele>26.8</ele>
        <time>2025-01-28T08:50:44Z</time>
      </trkpt>
      <trkpt lat="47.64494" lon="-2.79974">
        <ele>26.8</ele>
        <time>2025-01-28T08:50:45Z</time>
      </trkpt>
      <trkpt lat="47.64494" lon="-2.79974">
        <ele>26.8</ele>
        <time>2025-01-28T08:50:46Z</time>
      </trkpt>
      <trkpt lat="47.64494" lon="-2.79974">
        <ele>26.8</ele>
        <time>2025-01-28T08:50:47Z</time>
      </trkpt>
      <trkpt lat="47.64494" lon="-2.79974">
        <ele>26.8</ele>
        <time>2025-01-28T08:50:48Z</time>
      </trkpt>
      <trkpt lat="47.64494" lon="-2.79974">
        <ele>26.8</ele>
        <time>2025-01-28T08:50:49Z</time>
      </trkpt>
      <trkpt lat="47.64495" lon="-2.79975">
        <ele>26.8</ele>
        <time>2025-01-28T08:50:50Z</time>
      </trkpt>
      <trkpt lat="47.64495" lon="-2.79975">
        <ele>26.8</ele>
        <time>2025-01-28T08:50:51Z</time>
      </trkpt>
      <trkpt lat="47.64495" lon="-2.79975">
        <ele>26.8</ele>
        <time>2025-01-28T08:50:52Z</time>
      </trkpt>
      <trkpt lat="47.64494" lon="-2.79975">
        <ele>26.8</ele>
        <time>2025-01-28T08:50:53Z</time>
      </trkpt>
      <trkpt lat="47.64494" lon="-2.79975">
        <ele>26.8</ele>
        <time>2025-01-28T08:50:54Z</time>
      </trkpt>
      <trkpt lat="47.64494" lon="-2.79975">
        <ele>26.8</ele>
        <time>2025-01-28T08:50:55Z</time>
      </trkpt>
      <trkpt lat="47.64494" lon="-2.79975">
        <ele>26.8</ele>
        <time>2025-01-28T08:50:56Z</time>
      </trkpt>
      <trkpt lat="47.64494" lon="-2.79975">
        <ele>26.8</ele>
        <time>2025-01-28T08:50:57Z</time>
      </trkpt>
      <trkpt lat="47.64494" lon="-2.79975">
        <ele>26.8</ele>
        <time>2025-01-28T08:50:58Z</time>
      </trkpt>
      <trkpt lat="47.64494" lon="-2.79975">
        <ele>26.8</ele>
        <time>2025-01-28T08:50:59Z</time>
      </trkpt>
      <trkpt lat="47.64494" lon="-2.79975">
        <ele>26.8</ele>
        <time>2025-01-28T08:51:00Z</time>
      </trkpt>
      <trkpt lat="47.64494" lon="-2.79975">
        <ele>26.8</ele>
        <time>2025-01-28T08:51:01Z</time>
      </trkpt>
      <trkpt lat="47.64494" lon="-2.79975">
        <ele>26.8</ele>
        <time>2025-01-28T08:51:02Z</time>
      </trkpt>
      <trkpt lat="47.64494" lon="-2.79975">
        <ele>26.8</ele>
        <time>2025-01-28T08:51:03Z</time>
      </trkpt>
      <trkpt lat="47.64494" lon="-2.79976">
        <ele>26.8</ele>
        <time>2025-01-28T08:51:04Z</time>
      </trkpt>
      <trkpt lat="47.64494" lon="-2.79976">
        <ele>26.8</ele>
        <time>2025-01-28T08:51:05Z</time>
      </trkpt>
      <trkpt lat="47.64494" lon="-2.79976">
        <ele>26.8</ele>
        <time>2025-01-28T08:51:06Z</time>
      </trkpt>
      <trkpt lat="47.64494" lon="-2.79976">
        <ele>26.8</ele>
        <time>2025-01-28T08:51:07Z</time>
      </trkpt>
      <trkpt lat="47.64494" lon="-2.79976">
        <ele>26.8</ele>
        <time>2025-01-28T08:51:08Z</time>
      </trkpt>
      <trkpt lat="47.64494" lon="-2.79976">
        <ele>26.8</ele>
        <time>2025-01-28T08:51:09Z</time>
      </trkpt>
      <trkpt lat="47.64494" lon="-2.79976">
        <ele>26.8</ele>
        <time>2025-01-28T08:51:10Z</time>
      </trkpt>
      <trkpt lat="47.64494" lon="-2.79976">
        <ele>26.8</ele>
        <time>2025-01-28T08:51:11Z</time>
      </trkpt>
      <trkpt lat="47.64494" lon="-2.79976">
        <ele>26.8</ele>
        <time>2025-01-28T08:51:12Z</time>
      </trkpt>
      <trkpt lat="47.64494" lon="-2.79976">
        <ele>26.8</ele>
        <time>2025-01-28T08:51:13Z</time>
      </trkpt>
      <trkpt lat="47.64494" lon="-2.79976">
        <ele>26.8</ele>
        <time>2025-01-28T08:51:14Z</time>
      </trkpt>
      <trkpt lat="47.64494" lon="-2.79976">
        <ele>26.8</ele>
        <time>2025-01-28T08:51:15Z</time>
      </trkpt>
      <trkpt lat="47.64494" lon="-2.79976">
        <ele>26.8</ele>
        <time>2025-01-28T08:51:16Z</time>
      </trkpt>
      <trkpt lat="47.64494" lon="-2.79976">
        <ele>26.8</ele>
        <time>2025-01-28T08:51:17Z</time>
      </trkpt>
      <trkpt lat="47.64494" lon="-2.79976">
        <ele>26.8</ele>
        <time>2025-01-28T08:51:18Z</time>
      </trkpt>
      <trkpt lat="47.64494" lon="-2.79976">
        <ele>26.8</ele>
        <time>2025-01-28T08:51:19Z</time>
      </trkpt>
      <trkpt lat="47.64494" lon="-2.79976">
        <ele>26.8</ele>
        <time>2025-01-28T08:51:20Z</time>
      </trkpt>
      <trkpt lat="47.64495" lon="-2.79976">
        <ele>26.8</ele>
        <time>2025-01-28T08:51:21Z</time>
      </trkpt>
      <trkpt lat="47.64494" lon="-2.79976">
        <ele>26.8</ele>
        <time>2025-01-28T08:51:22Z</time>
      </trkpt>
      <trkpt lat="47.64494" lon="-2.79977">
        <ele>26.8</ele>
        <time>2025-01-28T08:51:23Z</time>
      </trkpt>
      <trkpt lat="47.64494" lon="-2.79977">
        <ele>26.8</ele>
        <time>2025-01-28T08:51:24Z</time>
      </trkpt>
      <trkpt lat="47.64493" lon="-2.79977">
        <ele>26.8</ele>
        <time>2025-01-28T08:51:25Z</time>
      </trkpt>
      <trkpt lat="47.64493" lon="-2.79977">
        <ele>26.7</ele>
        <time>2025-01-28T08:51:26Z</time>
      </trkpt>
      <trkpt lat="47.64493" lon="-2.79977">
        <ele>26.7</ele>
        <time>2025-01-28T08:51:27Z</time>
      </trkpt>
      <trkpt lat="47.64492" lon="-2.79977">
        <ele>26.7</ele>
        <time>2025-01-28T08:51:28Z</time>
      </trkpt>
      <trkpt lat="47.64492" lon="-2.79977">
        <ele>26.7</ele>
        <time>2025-01-28T08:51:29Z</time>
      </trkpt>
      <trkpt lat="47.64492" lon="-2.79977">
        <ele>26.7</ele>
        <time>2025-01-28T08:51:30Z</time>
      </trkpt>
      <trkpt lat="47.64492" lon="-2.79977">
        <ele>26.7</ele>
        <time>2025-01-28T08:51:31Z</time>
      </trkpt>
      <trkpt lat="47.64492" lon="-2.79977">
        <ele>26.7</ele>
        <time>2025-01-28T08:51:32Z</time>
      </trkpt>
      <trkpt lat="47.64492" lon="-2.79977">
        <ele>26.7</ele>
        <time>2025-01-28T08:51:33Z</time>
      </trkpt>
      <trkpt lat="47.64492" lon="-2.79977">
        <ele>26.7</ele>
        <time>2025-01-28T08:51:34Z</time>
      </trkpt>
      <trkpt lat="47.64492" lon="-2.79977">
        <ele>26.7</ele>
        <time>2025-01-28T08:51:35Z</time>
      </trkpt>
      <trkpt lat="47.64492" lon="-2.79977">
        <ele>26.7</ele>
        <time>2025-01-28T08:51:36Z</time>
      </trkpt>
      <trkpt lat="47.64492" lon="-2.79978">
        <ele>26.7</ele>
        <time>2025-01-28T08:51:37Z</time>
      </trkpt>
      <trkpt lat="47.64492" lon="-2.79978">
        <ele>26.7</ele>
        <time>2025-01-28T08:51:38Z</time>
      </trkpt>
      <trkpt lat="47.64492" lon="-2.79978">
        <ele>26.7</ele>
        <time>2025-01-28T08:51:39Z</time>
      </trkpt>
      <trkpt lat="47.64492" lon="-2.79978">
        <ele>26.7</ele>
        <time>2025-01-28T08:51:40Z</time>
      </trkpt>
      <trkpt lat="47.64492" lon="-2.79977">
        <ele>26.7</ele>
        <time>2025-01-28T08:51:41Z</time>
      </trkpt>
      <trkpt lat="47.64492" lon="-2.79977">
        <ele>26.7</ele>
        <time>2025-01-28T08:51:42Z</time>
      </trkpt>
      <trkpt lat="47.64492" lon="-2.79977">
        <ele>26.7</ele>
        <time>2025-01-28T08:51:43Z</time>
      </trkpt>
      <trkpt lat="47.64492" lon="-2.79978">
        <ele>26.7</ele>
        <time>2025-01-28T08:51:44Z</time>
      </trkpt>
      <trkpt lat="47.64492" lon="-2.79978">
        <ele>26.7</ele>
        <time>2025-01-28T08:51:45Z</time>
      </trkpt>
      <trkpt lat="47.64492" lon="-2.79978">
        <ele>26.7</ele>
        <time>2025-01-28T08:51:46Z</time>
      </trkpt>
      <trkpt lat="47.64492" lon="-2.79978">
        <ele>26.7</ele>
        <time>2025-01-28T08:51:47Z</time>
      </trkpt>
      <trkpt lat="47.64492" lon="-2.79978">
        <ele>26.7</ele>
        <time>2025-01-28T08:51:48Z</time>
      </trkpt>
      <trkpt lat="47.64492" lon="-2.79978">
        <ele>26.7</ele>
        <time>2025-01-28T08:51:49Z</time>
      </trkpt>
      <trkpt lat="47.64492" lon="-2.79978">
        <ele>26.7</ele>
        <time>2025-01-28T08:51:50Z</time>
      </trkpt>
      <trkpt lat="47.64492" lon="-2.79978">
        <ele>26.7</ele>
        <time>2025-01-28T08:51:51Z</time>
      </trkpt>
      <trkpt lat="47.64492" lon="-2.79978">
        <ele>26.7</ele>
        <time>2025-01-28T08:51:52Z</time>
      </trkpt>
      <trkpt lat="47.64492" lon="-2.79978">
        <ele>26.7</ele>
        <time>2025-01-28T08:51:53Z</time>
      </trkpt>
      <trkpt lat="47.64492" lon="-2.79978">
        <ele>26.7</ele>
        <time>2025-01-28T08:51:54Z</time>
      </trkpt>
      <trkpt lat="47.64492" lon="-2.79978">
        <ele>26.7</ele>
        <time>2025-01-28T08:51:55Z</time>
      </trkpt>
      <trkpt lat="47.64492" lon="-2.79978">
        <ele>26.7</ele>
        <time>2025-01-28T08:51:56Z</time>
      </trkpt>
      <trkpt lat="47.64492" lon="-2.79978">
        <ele>26.7</ele>
        <time>2025-01-28T08:51:57Z</time>
      </trkpt>
      <trkpt lat="47.64492" lon="-2.79978">
        <ele>26.7</ele>
        <time>2025-01-28T08:51:58Z</time>
      </trkpt>
      <trkpt lat="47.64492" lon="-2.79978">
        <ele>26.7</ele>
        <time>2025-01-28T08:51:59Z</time>
      </trkpt>
      <trkpt lat="47.64492" lon="-2.79978">
        <ele>26.7</ele>
        <time>2025-01-28T08:52:00Z</time>
      </trkpt>
      <trkpt lat="47.64492" lon="-2.79978">
        <ele>26.7</ele>
        <time>2025-01-28T08:52:01Z</time>
      </trkpt>
      <trkpt lat="47.64492" lon="-2.79978">
        <ele>26.7</ele>
        <time>2025-01-28T08:52:02Z</time>
      </trkpt>
      <trkpt lat="47.64492" lon="-2.79978">
        <ele>26.7</ele>
        <time>2025-01-28T08:52:03Z</time>
      </trkpt>
      <trkpt lat="47.64492" lon="-2.79978">
        <ele>26.7</ele>
        <time>2025-01-28T08:52:04Z</time>
      </trkpt>
      <trkpt lat="47.64492" lon="-2.79978">
        <ele>26.7</ele>
        <time>2025-01-28T08:52:05Z</time>
      </trkpt>
      <trkpt lat="47.64492" lon="-2.79978">
        <ele>26.7</ele>
        <time>2025-01-28T08:52:06Z</time>
      </trkpt>
      <trkpt lat="47.64492" lon="-2.79978">
        <ele>26.7</ele>
        <time>2025-01-28T08:52:07Z</time>
      </trkpt>
      <trkpt lat="47.64492" lon="-2.79978">
        <ele>26.7</ele>
        <time>2025-01-28T08:52:08Z</time>
      </trkpt>
      <trkpt lat="47.64492" lon="-2.79978">
        <ele>26.7</ele>
        <time>2025-01-28T08:52:09Z</time>
      </trkpt>
      <trkpt lat="47.64492" lon="-2.79978">
        <ele>26.7</ele>
        <time>2025-01-28T08:52:10Z</time>
      </trkpt>
      <trkpt lat="47.64492" lon="-2.79978">
        <ele>26.7</ele>
        <time>2025-01-28T08:52:11Z</time>
      </trkpt>
      <trkpt lat="47.64492" lon="-2.79978">
        <ele>26.7</ele>
        <time>2025-01-28T08:52:12Z</time>
      </trkpt>
      <trkpt lat="47.64492" lon="-2.79978">
        <ele>26.7</ele>
        <time>2025-01-28T08:52:13Z</time>
      </trkpt>
      <trkpt lat="47.64492" lon="-2.79978">
        <ele>26.7</ele>
        <time>2025-01-28T08:52:14Z</time>
      </trkpt>
      <trkpt lat="47.64492" lon="-2.79978">
        <ele>26.7</ele>
        <time>2025-01-28T08:52:15Z</time>
      </trkpt>
      <trkpt lat="47.64492" lon="-2.79978">
        <ele>26.7</ele>
        <time>2025-01-28T08:52:16Z</time>
      </trkpt>
      <trkpt lat="47.64492" lon="-2.79978">
        <ele>26.7</ele>
        <time>2025-01-28T08:52:17Z</time>
      </trkpt>
      <trkpt lat="47.64492" lon="-2.79978">
        <ele>26.7</ele>
        <time>2025-01-28T08:52:18Z</time>
      </trkpt>
      <trkpt lat="47.64492" lon="-2.79978">
        <ele>26.7</ele>
        <time>2025-01-28T08:52:19Z</time>
      </trkpt>
      <trkpt lat="47.64492" lon="-2.79978">
        <ele>26.7</ele>
        <time>2025-01-28T08:52:20Z</time>
      </trkpt>
      <trkpt lat="47.64492" lon="-2.79978">
        <ele>26.7</ele>
        <time>2025-01-28T08:52:21Z</time>
      </trkpt>
      <trkpt lat="47.64492" lon="-2.79978">
        <ele>26.7</ele>
        <time>2025-01-28T08:52:22Z</time>
      </trkpt>
      <trkpt lat="47.64492" lon="-2.79978">
        <ele>26.7</ele>
        <time>2025-01-28T08:52:23Z</time>
      </trkpt>
      <trkpt lat="47.64492" lon="-2.79978">
        <ele>26.7</ele>
        <time>2025-01-28T08:52:24Z</time>
      </trkpt>
      <trkpt lat="47.64492" lon="-2.79978">
        <ele>26.7</ele>
        <time>2025-01-28T08:52:25Z</time>
      </trkpt>
      <trkpt lat="47.64492" lon="-2.79978">
        <ele>26.7</ele>
        <time>2025-01-28T08:52:26Z</time>
      </trkpt>
      <trkpt lat="47.64492" lon="-2.79978">
        <ele>26.7</ele>
        <time>2025-01-28T08:52:27Z</time>
      </trkpt>
      <trkpt lat="47.64492" lon="-2.79978">
        <ele>26.7</ele>
        <time>2025-01-28T08:52:28Z</time>
      </trkpt>
      <trkpt lat="47.64492" lon="-2.79978">
        <ele>26.7</ele>
        <time>2025-01-28T08:52:29Z</time>
      </trkpt>
      <trkpt lat="47.64492" lon="-2.79978">
        <ele>26.7</ele>
        <time>2025-01-28T08:52:30Z</time>
      </trkpt>
      <trkpt lat="47.64492" lon="-2.79978">
        <ele>26.7</ele>
        <time>2025-01-28T08:52:31Z</time>
      </trkpt>
      <trkpt lat="47.64492" lon="-2.79978">
        <ele>26.7</ele>
        <time>2025-01-28T08:52:32Z</time>
      </trkpt>
      <trkpt lat="47.64492" lon="-2.79978">
        <ele>26.7</ele>
        <time>2025-01-28T08:52:33Z</time>
      </trkpt>
      <trkpt lat="47.64492" lon="-2.79978">
        <ele>26.7</ele>
        <time>2025-01-28T08:52:34Z</time>
      </trkpt>
      <trkpt lat="47.64492" lon="-2.79978">
        <ele>26.7</ele>
        <time>2025-01-28T08:52:35Z</time>
      </trkpt>
      <trkpt lat="47.64492" lon="-2.79978">
        <ele>26.7</ele>
        <time>2025-01-28T08:52:36Z</time>
      </trkpt>
      <trkpt lat="47.64492" lon="-2.79978">
        <ele>26.7</ele>
        <time>2025-01-28T08:52:37Z</time>
      </trkpt>
      <trkpt lat="47.64492" lon="-2.79978">
        <ele>26.7</ele>
        <time>2025-01-28T08:52:38Z</time>
      </trkpt>
      <trkpt lat="47.64492" lon="-2.79978">
        <ele>26.7</ele>
        <time>2025-01-28T08:52:39Z</time>
      </trkpt>
      <trkpt lat="47.64492" lon="-2.79978">
        <ele>26.7</ele>
        <time>2025-01-28T08:52:40Z</time>
      </trkpt>
      <trkpt lat="47.64492" lon="-2.79978">
        <ele>26.7</ele>
        <time>2025-01-28T08:52:41Z</time>
      </trkpt>
      <trkpt lat="47.64492" lon="-2.79978">
        <ele>26.7</ele>
        <time>2025-01-28T08:52:42Z</time>
      </trkpt>
      <trkpt lat="47.64492" lon="-2.79978">
        <ele>26.7</ele>
        <time>2025-01-28T08:52:43Z</time>
      </trkpt>
      <trkpt lat="47.64492" lon="-2.79978">
        <ele>26.7</ele>
        <time>2025-01-28T08:52:44Z</time>
      </trkpt>
      <trkpt lat="47.64492" lon="-2.79978">
        <ele>26.7</ele>
        <time>2025-01-28T08:52:45Z</time>
      </trkpt>
      <trkpt lat="47.64492" lon="-2.79978">
        <ele>26.7</ele>
        <time>2025-01-28T08:52:46Z</time>
      </trkpt>
      <trkpt lat="47.64492" lon="-2.79978">
        <ele>26.7</ele>
        <time>2025-01-28T08:52:47Z</time>
      </trkpt>
      <trkpt lat="47.64492" lon="-2.79978">
        <ele>26.7</ele>
        <time>2025-01-28T08:52:48Z</time>
      </trkpt>
      <trkpt lat="47.64492" lon="-2.79978">
        <ele>26.7</ele>
        <time>2025-01-28T08:52:49Z</time>
      </trkpt>
      <trkpt lat="47.64492" lon="-2.79978">
        <ele>26.7</ele>
        <time>2025-01-28T08:52:50Z</time>
      </trkpt>
      <trkpt lat="47.64492" lon="-2.79978">
        <ele>26.7</ele>
        <time>2025-01-28T08:52:51Z</time>
      </trkpt>
      <trkpt lat="47.64492" lon="-2.79978">
        <ele>26.7</ele>
        <time>2025-01-28T08:52:52Z</time>
      </trkpt>
      <trkpt lat="47.64492" lon="-2.79978">
        <ele>26.7</ele>
        <time>2025-01-28T08:52:53Z</time>
      </trkpt>
      <trkpt lat="47.64492" lon="-2.79978">
        <ele>26.7</ele>
        <time>2025-01-28T08:52:54Z</time>
      </trkpt>
      <trkpt lat="47.64492" lon="-2.79978">
        <ele>26.7</ele>
        <time>2025-01-28T08:52:55Z</time>
      </trkpt>
      <trkpt lat="47.64492" lon="-2.79978">
        <ele>26.7</ele>
        <time>2025-01-28T08:52:56Z</time>
      </trkpt>
      <trkpt lat="47.64492" lon="-2.79978">
        <ele>26.7</ele>
        <time>2025-01-28T08:52:57Z</time>
      </trkpt>
      <trkpt lat="47.64492" lon="-2.79978">
        <ele>26.7</ele>
        <time>2025-01-28T08:52:58Z</time>
      </trkpt>
      <trkpt lat="47.64492" lon="-2.79978">
        <ele>26.7</ele>
        <time>2025-01-28T08:52:59Z</time>
      </trkpt>
      <trkpt lat="47.64492" lon="-2.79978">
        <ele>26.7</ele>
        <time>2025-01-28T08:53:00Z</time>
      </trkpt>
      <trkpt lat="47.64492" lon="-2.79978">
        <ele>26.7</ele>
        <time>2025-01-28T08:53:01Z</time>
      </trkpt>
      <trkpt lat="47.64492" lon="-2.79978">
        <ele>26.7</ele>
        <time>2025-01-28T08:53:02Z</time>
      </trkpt>
      <trkpt lat="47.64492" lon="-2.79978">
        <ele>26.7</ele>
        <time>2025-01-28T08:53:03Z</time>
      </trkpt>
      <trkpt lat="47.64492" lon="-2.79978">
        <ele>26.7</ele>
        <time>2025-01-28T08:53:04Z</time>
      </trkpt>
      <trkpt lat="47.64492" lon="-2.79978">
        <ele>26.7</ele>
        <time>2025-01-28T08:53:05Z</time>
      </trkpt>
      <trkpt lat="47.64492" lon="-2.79978">
        <ele>26.7</ele>
        <time>2025-01-28T08:53:06Z</time>
      </trkpt>
      <trkpt lat="47.64492" lon="-2.79978">
        <ele>26.7</ele>
        <time>2025-01-28T08:53:07Z</time>
      </trkpt>
      <trkpt lat="47.64492" lon="-2.79978">
        <ele>26.7</ele>
        <time>2025-01-28T08:53:08Z</time>
      </trkpt>
      <trkpt lat="47.64492" lon="-2.79978">
        <ele>26.7</ele>
        <time>2025-01-28T08:53:09Z</time>
      </trkpt>
      <trkpt lat="47.64492" lon="-2.79978">
        <ele>26.7</ele>
        <time>2025-01-28T08:53:10Z</time>
      </trkpt>
      <trkpt lat="47.64492" lon="-2.79978">
        <ele>26.7</ele>
        <time>2025-01-28T08:53:11Z</time>
      </trkpt>
      <trkpt lat="47.64492" lon="-2.79978">
        <ele>26.7</ele>
        <time>2025-01-28T08:53:12Z</time>
      </trkpt>
      <trkpt lat="47.64492" lon="-2.79978">
        <ele>26.7</ele>
        <time>2025-01-28T08:53:13Z</time>
      </trkpt>
      <trkpt lat="47.64492" lon="-2.79978">
        <ele>26.7</ele>
        <time>2025-01-28T08:53:14Z</time>
      </trkpt>
      <trkpt lat="47.64492" lon="-2.79978">
        <ele>26.7</ele>
        <time>2025-01-28T08:53:15Z</time>
      </trkpt>
      <trkpt lat="47.64492" lon="-2.79978">
        <ele>26.7</ele>
        <time>2025-01-28T08:53:16Z</time>
      </trkpt>
      <trkpt lat="47.64492" lon="-2.79978">
        <ele>26.7</ele>
        <time>2025-01-28T08:53:17Z</time>
      </trkpt>
      <trkpt lat="47.64492" lon="-2.79978">
        <ele>26.7</ele>
        <time>2025-01-28T08:53:18Z</time>
      </trkpt>
      <trkpt lat="47.64492" lon="-2.79978">
        <ele>26.7</ele>
        <time>2025-01-28T08:53:19Z</time>
      </trkpt>
      <trkpt lat="47.64492" lon="-2.79978">
        <ele>26.7</ele>
        <time>2025-01-28T08:53:20Z</time>
      </trkpt>
      <trkpt lat="47.64492" lon="-2.79978">
        <ele>26.7</ele>
        <time>2025-01-28T08:53:21Z</time>
      </trkpt>
      <trkpt lat="47.64492" lon="-2.79978">
        <ele>26.7</ele>
        <time>2025-01-28T08:53:22Z</time>
      </trkpt>
      <trkpt lat="47.64492" lon="-2.79978">
        <ele>26.7</ele>
        <time>2025-01-28T08:53:23Z</time>
      </trkpt>
      <trkpt lat="47.64492" lon="-2.79978">
        <ele>26.7</ele>
        <time>2025-01-28T08:53:24Z</time>
      </trkpt>
      <trkpt lat="47.64492" lon="-2.79978">
        <ele>26.7</ele>
        <time>2025-01-28T08:53:25Z</time>
      </trkpt>
      <trkpt lat="47.64492" lon="-2.79978">
        <ele>26.7</ele>
        <time>2025-01-28T08:53:26Z</time>
      </trkpt>
      <trkpt lat="47.64492" lon="-2.79978">
        <ele>26.7</ele>
        <time>2025-01-28T08:53:27Z</time>
      </trkpt>
      <trkpt lat="47.64492" lon="-2.79978">
        <ele>26.7</ele>
        <time>2025-01-28T08:53:28Z</time>
      </trkpt>
      <trkpt lat="47.64492" lon="-2.79978">
        <ele>26.7</ele>
        <time>2025-01-28T08:53:29Z</time>
      </trkpt>
      <trkpt lat="47.64492" lon="-2.79978">
        <ele>26.7</ele>
        <time>2025-01-28T08:53:30Z</time>
      </trkpt>
      <trkpt lat="47.64492" lon="-2.79978">
        <ele>26.7</ele>
        <time>2025-01-28T08:53:31Z</time>
      </trkpt>
      <trkpt lat="47.64492" lon="-2.79978">
        <ele>26.7</ele>
        <time>2025-01-28T08:53:32Z</time>
      </trkpt>
      <trkpt lat="47.64492" lon="-2.79978">
        <ele>26.7</ele>
        <time>2025-01-28T08:53:33Z</time>
      </trkpt>
      <trkpt lat="47.64492" lon="-2.79978">
        <ele>26.7</ele>
        <time>2025-01-28T08:53:34Z</time>
      </trkpt>
      <trkpt lat="47.64492" lon="-2.79978">
        <ele>26.7</ele>
        <time>2025-01-28T08:53:35Z</time>
      </trkpt>
      <trkpt lat="47.64492" lon="-2.79978">
        <ele>26.7</ele>
        <time>2025-01-28T08:53:36Z</time>
      </trkpt>
      <trkpt lat="47.64492" lon="-2.79978">
        <ele>26.7</ele>
        <time>2025-01-28T08:53:37Z</time>
      </trkpt>
      <trkpt lat="47.64492" lon="-2.79978">
        <ele>26.7</ele>
        <time>2025-01-28T08:53:38Z</time>
      </trkpt>
      <trkpt lat="47.64492" lon="-2.79978">
        <ele>26.7</ele>
        <time>2025-01-28T08:53:39Z</time>
      </trkpt>
      <trkpt lat="47.64492" lon="-2.79978">
        <ele>26.7</ele>
        <time>2025-01-28T08:53:40Z</time>
      </trkpt>
      <trkpt lat="47.64492" lon="-2.79978">
        <ele>26.7</ele>
        <time>2025-01-28T08:53:41Z</time>
      </trkpt>
      <trkpt lat="47.64492" lon="-2.79978">
        <ele>26.7</ele>
        <time>2025-01-28T08:53:42Z</time>
      </trkpt>
      <trkpt lat="47.64492" lon="-2.79978">
        <ele>26.7</ele>
        <time>2025-01-28T08:53:43Z</time>
      </trkpt>
      <trkpt lat="47.64492" lon="-2.79978">
        <ele>26.7</ele>
        <time>2025-01-28T08:53:44Z</time>
      </trkpt>
      <trkpt lat="47.64492" lon="-2.79978">
        <ele>26.7</ele>
        <time>2025-01-28T08:53:45Z</time>
      </trkpt>
      <trkpt lat="47.64492" lon="-2.79978">
        <ele>26.7</ele>
        <time>2025-01-28T08:53:46Z</time>
      </trkpt>
      <trkpt lat="47.64492" lon="-2.79978">
        <ele>26.7</ele>
        <time>2025-01-28T08:53:47Z</time>
      </trkpt>
      <trkpt lat="47.64492" lon="-2.79978">
        <ele>26.7</ele>
        <time>2025-01-28T08:53:48Z</time>
      </trkpt>
      <trkpt lat="47.64492" lon="-2.79978">
        <ele>26.7</ele>
        <time>2025-01-28T08:53:49Z</time>
      </trkpt>
      <trkpt lat="47.64492" lon="-2.79978">
        <ele>26.7</ele>
        <time>2025-01-28T08:53:50Z</time>
      </trkpt>
      <trkpt lat="47.64492" lon="-2.79978">
        <ele>26.7</ele>
        <time>2025-01-28T08:53:51Z</time>
      </trkpt>
      <trkpt lat="47.64492" lon="-2.79978">
        <ele>26.7</ele>
        <time>2025-01-28T08:53:52Z</time>
      </trkpt>
      <trkpt lat="47.64492" lon="-2.79978">
        <ele>26.7</ele>
        <time>2025-01-28T08:53:53Z</time>
      </trkpt>
      <trkpt lat="47.64492" lon="-2.79978">
        <ele>26.7</ele>
        <time>2025-01-28T08:53:54Z</time>
      </trkpt>
      <trkpt lat="47.64492" lon="-2.79978">
        <ele>26.7</ele>
        <time>2025-01-28T08:53:55Z</time>
      </trkpt>
      <trkpt lat="47.64492" lon="-2.79978">
        <ele>26.7</ele>
        <time>2025-01-28T08:53:56Z</time>
      </trkpt>
      <trkpt lat="47.64492" lon="-2.79978">
        <ele>26.7</ele>
        <time>2025-01-28T08:53:57Z</time>
      </trkpt>
      <trkpt lat="47.64492" lon="-2.79978">
        <ele>26.7</ele>
        <time>2025-01-28T08:53:58Z</time>
      </trkpt>
      <trkpt lat="47.64492" lon="-2.79978">
        <ele>26.7</ele>
        <time>2025-01-28T08:53:59Z</time>
      </trkpt>
      <trkpt lat="47.64492" lon="-2.79978">
        <ele>26.7</ele>
        <time>2025-01-28T08:54:00Z</time>
      </trkpt>
      <trkpt lat="47.64492" lon="-2.79978">
        <ele>26.7</ele>
        <time>2025-01-28T08:54:01Z</time>
      </trkpt>
      <trkpt lat="47.64492" lon="-2.79978">
        <ele>26.7</ele>
        <time>2025-01-28T08:54:02Z</time>
      </trkpt>
      <trkpt lat="47.64492" lon="-2.79978">
        <ele>26.7</ele>
        <time>2025-01-28T08:54:03Z</time>
      </trkpt>
      <trkpt lat="47.64492" lon="-2.79978">
        <ele>26.7</ele>
        <time>2025-01-28T08:54:04Z</time>
      </trkpt>
      <trkpt lat="47.64492" lon="-2.79978">
        <ele>26.7</ele>
        <time>2025-01-28T08:54:05Z</time>
      </trkpt>
      <trkpt lat="47.64492" lon="-2.79978">
        <ele>26.7</ele>
        <time>2025-01-28T08:54:06Z</time>
      </trkpt>
      <trkpt lat="47.64493" lon="-2.79977">
        <ele>26.7</ele>
        <time>2025-01-28T08:54:07Z</time>
      </trkpt>
      <trkpt lat="47.64493" lon="-2.79977">
        <ele>26.7</ele>
        <time>2025-01-28T08:54:08Z</time>
      </trkpt>
      <trkpt lat="47.64493" lon="-2.79977">
        <ele>26.7</ele>
        <time>2025-01-28T08:54:09Z</time>
      </trkpt>
      <trkpt lat="47.64492" lon="-2.79977">
        <ele>26.7</ele>
        <time>2025-01-28T08:54:10Z</time>
      </trkpt>
      <trkpt lat="47.64492" lon="-2.79978">
        <ele>26.7</ele>
        <time>2025-01-28T08:54:11Z</time>
      </trkpt>
      <trkpt lat="47.64492" lon="-2.79978">
        <ele>26.7</ele>
        <time>2025-01-28T08:54:12Z</time>
      </trkpt>
      <trkpt lat="47.64492" lon="-2.79978">
        <ele>26.7</ele>
        <time>2025-01-28T08:54:13Z</time>
      </trkpt>
      <trkpt lat="47.64492" lon="-2.79978">
        <ele>26.7</ele>
        <time>2025-01-28T08:54:14Z</time>
      </trkpt>
      <trkpt lat="47.64492" lon="-2.79978">
        <ele>26.7</ele>
        <time>2025-01-28T08:54:15Z</time>
      </trkpt>
      <trkpt lat="47.64492" lon="-2.79978">
        <ele>26.7</ele>
        <time>2025-01-28T08:54:16Z</time>
      </trkpt>
      <trkpt lat="47.64492" lon="-2.79978">
        <ele>26.7</ele>
        <time>2025-01-28T08:54:17Z</time>
      </trkpt>
      <trkpt lat="47.64492" lon="-2.79978">
        <ele>26.7</ele>
        <time>2025-01-28T08:54:18Z</time>
      </trkpt>
      <trkpt lat="47.64492" lon="-2.79978">
        <ele>26.7</ele>
        <time>2025-01-28T08:54:19Z</time>
      </trkpt>
      <trkpt lat="47.64492" lon="-2.79978">
        <ele>26.7</ele>
        <time>2025-01-28T08:54:20Z</time>
      </trkpt>
      <trkpt lat="47.64492" lon="-2.79978">
        <ele>26.7</ele>
        <time>2025-01-28T08:54:21Z</time>
      </trkpt>
      <trkpt lat="47.64492" lon="-2.79977">
        <ele>26.7</ele>
        <time>2025-01-28T08:54:22Z</time>
      </trkpt>
      <trkpt lat="47.64492" lon="-2.79977">
        <ele>26.7</ele>
        <time>2025-01-28T08:54:23Z</time>
      </trkpt>
      <trkpt lat="47.64492" lon="-2.79977">
        <ele>26.7</ele>
        <time>2025-01-28T08:54:24Z</time>
      </trkpt>
      <trkpt lat="47.64492" lon="-2.79977">
        <ele>26.7</ele>
        <time>2025-01-28T08:54:25Z</time>
      </trkpt>
      <trkpt lat="47.64492" lon="-2.79977">
        <ele>26.7</ele>
        <time>2025-01-28T08:54:26Z</time>
      </trkpt>
      <trkpt lat="47.64492" lon="-2.79977">
        <ele>26.7</ele>
        <time>2025-01-28T08:54:27Z</time>
      </trkpt>
      <trkpt lat="47.64492" lon="-2.79977">
        <ele>26.7</ele>
        <time>2025-01-28T08:54:28Z</time>
      </trkpt>
      <trkpt lat="47.64492" lon="-2.79977">
        <ele>26.7</ele>
        <time>2025-01-28T08:54:29Z</time>
      </trkpt>
      <trkpt lat="47.64492" lon="-2.79977">
        <ele>26.7</ele>
        <time>2025-01-28T08:54:30Z</time>
      </trkpt>
      <trkpt lat="47.64492" lon="-2.79977">
        <ele>26.7</ele>
        <time>2025-01-28T08:54:31Z</time>
      </trkpt>
      <trkpt lat="47.64492" lon="-2.79977">
        <ele>26.7</ele>
        <time>2025-01-28T08:54:32Z</time>
      </trkpt>
      <trkpt lat="47.64492" lon="-2.79977">
        <ele>26.7</ele>
        <time>2025-01-28T08:54:33Z</time>
      </trkpt>
      <trkpt lat="47.64492" lon="-2.79977">
        <ele>26.7</ele>
        <time>2025-01-28T08:54:34Z</time>
      </trkpt>
      <trkpt lat="47.64492" lon="-2.79977">
        <ele>26.7</ele>
        <time>2025-01-28T08:54:35Z</time>
      </trkpt>
      <trkpt lat="47.64492" lon="-2.79977">
        <ele>26.7</ele>
        <time>2025-01-28T08:54:36Z</time>
      </trkpt>
      <trkpt lat="47.64492" lon="-2.79977">
        <ele>26.7</ele>
        <time>2025-01-28T08:54:37Z</time>
      </trkpt>
      <trkpt lat="47.64492" lon="-2.79977">
        <ele>26.7</ele>
        <time>2025-01-28T08:54:38Z</time>
      </trkpt>
      <trkpt lat="47.64492" lon="-2.79977">
        <ele>26.7</ele>
        <time>2025-01-28T08:54:39Z</time>
      </trkpt>
      <trkpt lat="47.64492" lon="-2.79977">
        <ele>26.7</ele>
        <time>2025-01-28T08:54:40Z</time>
      </trkpt>
      <trkpt lat="47.64492" lon="-2.79977">
        <ele>26.7</ele>
        <time>2025-01-28T08:54:41Z</time>
      </trkpt>
      <trkpt lat="47.64492" lon="-2.79977">
        <ele>26.7</ele>
        <time>2025-01-28T08:54:42Z</time>
      </trkpt>
      <trkpt lat="47.64492" lon="-2.79977">
        <ele>26.7</ele>
        <time>2025-01-28T08:54:43Z</time>
      </trkpt>
      <trkpt lat="47.64492" lon="-2.79977">
        <ele>26.7</ele>
        <time>2025-01-28T08:54:44Z</time>
      </trkpt>
      <trkpt lat="47.64492" lon="-2.79977">
        <ele>26.7</ele>
        <time>2025-01-28T08:54:45Z</time>
      </trkpt>
      <trkpt lat="47.64492" lon="-2.79977">
        <ele>26.7</ele>
        <time>2025-01-28T08:54:46Z</time>
      </trkpt>
      <trkpt lat="47.64492" lon="-2.79977">
        <ele>26.7</ele>
        <time>2025-01-28T08:54:47Z</time>
      </trkpt>
      <trkpt lat="47.64492" lon="-2.79977">
        <ele>26.7</ele>
        <time>2025-01-28T08:54:48Z</time>
      </trkpt>
      <trkpt lat="47.64492" lon="-2.79977">
        <ele>26.7</ele>
        <time>2025-01-28T08:54:49Z</time>
      </trkpt>
      <trkpt lat="47.64492" lon="-2.79977">
        <ele>26.7</ele>
        <time>2025-01-28T08:54:50Z</time>
      </trkpt>
      <trkpt lat="47.64492" lon="-2.79977">
        <ele>26.7</ele>
        <time>2025-01-28T08:54:51Z</time>
      </trkpt>
      <trkpt lat="47.64492" lon="-2.79977">
        <ele>26.7</ele>
        <time>2025-01-28T08:54:52Z</time>
      </trkpt>
      <trkpt lat="47.64492" lon="-2.79977">
        <ele>26.7</ele>
        <time>2025-01-28T08:54:53Z</time>
      </trkpt>
      <trkpt lat="47.64492" lon="-2.79977">
        <ele>26.7</ele>
        <time>2025-01-28T08:54:54Z</time>
      </trkpt>
      <trkpt lat="47.64492" lon="-2.79977">
        <ele>26.7</ele>
        <time>2025-01-28T08:54:55Z</time>
      </trkpt>
      <trkpt lat="47.64492" lon="-2.79977">
        <ele>26.7</ele>
        <time>2025-01-28T08:54:56Z</time>
      </trkpt>
      <trkpt lat="47.64492" lon="-2.79977">
        <ele>26.7</ele>
        <time>2025-01-28T08:54:57Z</time>
      </trkpt>
      <trkpt lat="47.64492" lon="-2.79977">
        <ele>26.7</ele>
        <time>2025-01-28T08:54:58Z</time>
      </trkpt>
      <trkpt lat="47.64492" lon="-2.79977">
        <ele>26.7</ele>
        <time>2025-01-28T08:54:59Z</time>
      </trkpt>
      <trkpt lat="47.64492" lon="-2.79977">
        <ele>26.7</ele>
        <time>2025-01-28T08:55:00Z</time>
      </trkpt>
      <trkpt lat="47.64492" lon="-2.79977">
        <ele>26.7</ele>
        <time>2025-01-28T08:55:01Z</time>
      </trkpt>
      <trkpt lat="47.64492" lon="-2.79977">
        <ele>26.7</ele>
        <time>2025-01-28T08:55:02Z</time>
      </trkpt>
      <trkpt lat="47.64492" lon="-2.79977">
        <ele>26.7</ele>
        <time>2025-01-28T08:55:03Z</time>
      </trkpt>
      <trkpt lat="47.64492" lon="-2.79977">
        <ele>26.7</ele>
        <time>2025-01-28T08:55:04Z</time>
      </trkpt>
      <trkpt lat="47.64492" lon="-2.79977">
        <ele>26.7</ele>
        <time>2025-01-28T08:55:05Z</time>
      </trkpt>
      <trkpt lat="47.64492" lon="-2.79977">
        <ele>26.7</ele>
        <time>2025-01-28T08:55:06Z</time>
      </trkpt>
      <trkpt lat="47.64492" lon="-2.79977">
        <ele>26.7</ele>
        <time>2025-01-28T08:55:07Z</time>
      </trkpt>
      <trkpt lat="47.64492" lon="-2.79977">
        <ele>26.7</ele>
        <time>2025-01-28T08:55:08Z</time>
      </trkpt>
      <trkpt lat="47.64492" lon="-2.79977">
        <ele>26.7</ele>
        <time>2025-01-28T08:55:09Z</time>
      </trkpt>
      <trkpt lat="47.64492" lon="-2.79977">
        <ele>26.7</ele>
        <time>2025-01-28T08:55:10Z</time>
      </trkpt>
      <trkpt lat="47.64492" lon="-2.79977">
        <ele>26.7</ele>
        <time>2025-01-28T08:55:11Z</time>
      </trkpt>
      <trkpt lat="47.64492" lon="-2.79977">
        <ele>26.7</ele>
        <time>2025-01-28T08:55:12Z</time>
      </trkpt>
      <trkpt lat="47.64492" lon="-2.79977">
        <ele>26.7</ele>
        <time>2025-01-28T08:55:13Z</time>
      </trkpt>
      <trkpt lat="47.64492" lon="-2.79977">
        <ele>26.7</ele>
        <time>2025-01-28T08:55:14Z</time>
      </trkpt>
      <trkpt lat="47.64492" lon="-2.79977">
        <ele>26.7</ele>
        <time>2025-01-28T08:55:15Z</time>
      </trkpt>
      <trkpt lat="47.64492" lon="-2.79977">
        <ele>26.7</ele>
        <time>2025-01-28T08:55:16Z</time>
      </trkpt>
      <trkpt lat="47.64492" lon="-2.79977">
        <ele>26.7</ele>
        <time>2025-01-28T08:55:17Z</time>
      </trkpt>
      <trkpt lat="47.64492" lon="-2.79977">
        <ele>26.7</ele>
        <time>2025-01-28T08:55:18Z</time>
      </trkpt>
      <trkpt lat="47.64492" lon="-2.79977">
        <ele>26.7</ele>
        <time>2025-01-28T08:55:19Z</time>
      </trkpt>
      <trkpt lat="47.64492" lon="-2.79977">
        <ele>26.7</ele>
        <time>2025-01-28T08:55:20Z</time>
      </trkpt>
      <trkpt lat="47.64492" lon="-2.79977">
        <ele>26.7</ele>
        <time>2025-01-28T08:55:21Z</time>
      </trkpt>
      <trkpt lat="47.64492" lon="-2.79977">
        <ele>26.7</ele>
        <time>2025-01-28T08:55:22Z</time>
      </trkpt>
      <trkpt lat="47.64492" lon="-2.79977">
        <ele>26.7</ele>
        <time>2025-01-28T08:55:23Z</time>
      </trkpt>
      <trkpt lat="47.64492" lon="-2.79977">
        <ele>26.7</ele>
        <time>2025-01-28T08:55:24Z</time>
      </trkpt>
      <trkpt lat="47.64492" lon="-2.79977">
        <ele>26.7</ele>
        <time>2025-01-28T08:55:25Z</time>
      </trkpt>
      <trkpt lat="47.64492" lon="-2.79977">
        <ele>26.7</ele>
        <time>2025-01-28T08:55:26Z</time>
      </trkpt>
      <trkpt lat="47.64492" lon="-2.79977">
        <ele>26.7</ele>
        <time>2025-01-28T08:55:27Z</time>
      </trkpt>
      <trkpt lat="47.64492" lon="-2.79977">
        <ele>26.7</ele>
        <time>2025-01-28T08:55:28Z</time>
      </trkpt>
      <trkpt lat="47.64492" lon="-2.79977">
        <ele>26.7</ele>
        <time>2025-01-28T08:55:29Z</time>
      </trkpt>
      <trkpt lat="47.64492" lon="-2.79977">
        <ele>26.7</ele>
        <time>2025-01-28T08:55:30Z</time>
      </trkpt>
      <trkpt lat="47.64492" lon="-2.79977">
        <ele>26.7</ele>
        <time>2025-01-28T08:55:31Z</time>
      </trkpt>
      <trkpt lat="47.64492" lon="-2.79977">
        <ele>26.7</ele>
        <time>2025-01-28T08:55:32Z</time>
      </trkpt>
      <trkpt lat="47.64492" lon="-2.79977">
        <ele>26.7</ele>
        <time>2025-01-28T08:55:33Z</time>
      </trkpt>
      <trkpt lat="47.64492" lon="-2.79977">
        <ele>26.7</ele>
        <time>2025-01-28T08:55:34Z</time>
      </trkpt>
      <trkpt lat="47.64492" lon="-2.79977">
        <ele>26.7</ele>
        <time>2025-01-28T08:55:35Z</time>
      </trkpt>
      <trkpt lat="47.64492" lon="-2.79977">
        <ele>26.7</ele>
        <time>2025-01-28T08:55:36Z</time>
      </trkpt>
      <trkpt lat="47.64492" lon="-2.79977">
        <ele>26.7</ele>
        <time>2025-01-28T08:55:37Z</time>
      </trkpt>
      <trkpt lat="47.64492" lon="-2.79977">
        <ele>26.7</ele>
        <time>2025-01-28T08:55:38Z</time>
      </trkpt>
      <trkpt lat="47.64492" lon="-2.79977">
        <ele>26.7</ele>
        <time>2025-01-28T08:55:39Z</time>
      </trkpt>
      <trkpt lat="47.64492" lon="-2.79977">
        <ele>26.7</ele>
        <time>2025-01-28T08:55:40Z</time>
      </trkpt>
      <trkpt lat="47.64492" lon="-2.79977">
        <ele>26.7</ele>
        <time>2025-01-28T08:55:41Z</time>
      </trkpt>
      <trkpt lat="47.64492" lon="-2.79977">
        <ele>26.7</ele>
        <time>2025-01-28T08:55:42Z</time>
      </trkpt>
      <trkpt lat="47.64492" lon="-2.79977">
        <ele>26.7</ele>
        <time>2025-01-28T08:55:43Z</time>
      </trkpt>
      <trkpt lat="47.64492" lon="-2.79977">
        <ele>26.7</ele>
        <time>2025-01-28T08:55:44Z</time>
      </trkpt>
      <trkpt lat="47.64492" lon="-2.79977">
        <ele>26.7</ele>
        <time>2025-01-28T08:55:45Z</time>
      </trkpt>
      <trkpt lat="47.64492" lon="-2.79977">
        <ele>26.7</ele>
        <time>2025-01-28T08:55:46Z</time>
      </trkpt>
      <trkpt lat="47.64492" lon="-2.79977">
        <ele>26.7</ele>
        <time>2025-01-28T08:55:47Z</time>
      </trkpt>
      <trkpt lat="47.64492" lon="-2.79977">
        <ele>26.7</ele>
        <time>2025-01-28T08:55:48Z</time>
      </trkpt>
      <trkpt lat="47.64492" lon="-2.79977">
        <ele>26.7</ele>
        <time>2025-01-28T08:55:49Z</time>
      </trkpt>
      <trkpt lat="47.64492" lon="-2.79977">
        <ele>26.7</ele>
        <time>2025-01-28T08:55:50Z</time>
      </trkpt>
      <trkpt lat="47.64492" lon="-2.79977">
        <ele>26.7</ele>
        <time>2025-01-28T08:55:51Z</time>
      </trkpt>
      <trkpt lat="47.64492" lon="-2.79977">
        <ele>26.7</ele>
        <time>2025-01-28T08:55:52Z</time>
      </trkpt>
      <trkpt lat="47.64492" lon="-2.79977">
        <ele>26.7</ele>
        <time>2025-01-28T08:55:53Z</time>
      </trkpt>
      <trkpt lat="47.64492" lon="-2.79977">
        <ele>26.7</ele>
        <time>2025-01-28T08:55:54Z</time>
      </trkpt>
      <trkpt lat="47.64492" lon="-2.79977">
        <ele>26.7</ele>
        <time>2025-01-28T08:55:55Z</time>
      </trkpt>
      <trkpt lat="47.64492" lon="-2.79977">
        <ele>26.7</ele>
        <time>2025-01-28T08:55:56Z</time>
      </trkpt>
      <trkpt lat="47.64492" lon="-2.79977">
        <ele>26.7</ele>
        <time>2025-01-28T08:55:57Z</time>
      </trkpt>
      <trkpt lat="47.64492" lon="-2.79977">
        <ele>26.7</ele>
        <time>2025-01-28T08:55:58Z</time>
      </trkpt>
      <trkpt lat="47.64492" lon="-2.79977">
        <ele>26.7</ele>
        <time>2025-01-28T08:55:59Z</time>
      </trkpt>
      <trkpt lat="47.64492" lon="-2.79977">
        <ele>26.7</ele>
        <time>2025-01-28T08:56:00Z</time>
      </trkpt>
      <trkpt lat="47.64492" lon="-2.79977">
        <ele>26.7</ele>
        <time>2025-01-28T08:56:01Z</time>
      </trkpt>
      <trkpt lat="47.64492" lon="-2.79977">
        <ele>26.7</ele>
        <time>2025-01-28T08:56:02Z</time>
      </trkpt>
      <trkpt lat="47.64492" lon="-2.79977">
        <ele>26.7</ele>
        <time>2025-01-28T08:56:03Z</time>
      </trkpt>
      <trkpt lat="47.64492" lon="-2.79977">
        <ele>26.7</ele>
        <time>2025-01-28T08:56:04Z</time>
      </trkpt>
      <trkpt lat="47.64492" lon="-2.79977">
        <ele>26.7</ele>
        <time>2025-01-28T08:56:05Z</time>
      </trkpt>
      <trkpt lat="47.64492" lon="-2.79977">
        <ele>26.7</ele>
        <time>2025-01-28T08:56:06Z</time>
      </trkpt>
      <trkpt lat="47.64492" lon="-2.79977">
        <ele>26.7</ele>
        <time>2025-01-28T08:56:07Z</time>
      </trkpt>
      <trkpt lat="47.64492" lon="-2.79977">
        <ele>26.7</ele>
        <time>2025-01-28T08:56:08Z</time>
      </trkpt>
      <trkpt lat="47.64492" lon="-2.79977">
        <ele>26.7</ele>
        <time>2025-01-28T08:56:09Z</time>
      </trkpt>
      <trkpt lat="47.64492" lon="-2.79977">
        <ele>26.7</ele>
        <time>2025-01-28T08:56:10Z</time>
      </trkpt>
      <trkpt lat="47.64492" lon="-2.79977">
        <ele>26.7</ele>
        <time>2025-01-28T08:56:11Z</time>
      </trkpt>
      <trkpt lat="47.64492" lon="-2.79977">
        <ele>26.7</ele>
        <time>2025-01-28T08:56:12Z</time>
      </trkpt>
      <trkpt lat="47.64492" lon="-2.79977">
        <ele>26.7</ele>
        <time>2025-01-28T08:56:13Z</time>
      </trkpt>
      <trkpt lat="47.64492" lon="-2.79977">
        <ele>26.7</ele>
        <time>2025-01-28T08:56:14Z</time>
      </trkpt>
      <trkpt lat="47.64492" lon="-2.79977">
        <ele>26.7</ele>
        <time>2025-01-28T08:56:15Z</time>
      </trkpt>
      <trkpt lat="47.64492" lon="-2.79977">
        <ele>26.7</ele>
        <time>2025-01-28T08:56:16Z</time>
      </trkpt>
      <trkpt lat="47.64492" lon="-2.79977">
        <ele>26.7</ele>
        <time>2025-01-28T08:56:17Z</time>
      </trkpt>
      <trkpt lat="47.64492" lon="-2.79977">
        <ele>26.7</ele>
        <time>2025-01-28T08:56:18Z</time>
      </trkpt>
      <trkpt lat="47.64492" lon="-2.79977">
        <ele>26.7</ele>
        <time>2025-01-28T08:56:19Z</time>
      </trkpt>
      <trkpt lat="47.64492" lon="-2.79977">
        <ele>26.7</ele>
        <time>2025-01-28T08:56:20Z</time>
      </trkpt>
      <trkpt lat="47.64492" lon="-2.79977">
        <ele>26.7</ele>
        <time>2025-01-28T08:56:21Z</time>
      </trkpt>
      <trkpt lat="47.64492" lon="-2.79977">
        <ele>26.7</ele>
        <time>2025-01-28T08:56:22Z</time>
      </trkpt>
      <trkpt lat="47.64492" lon="-2.79977">
        <ele>26.7</ele>
        <time>2025-01-28T08:56:23Z</time>
      </trkpt>
      <trkpt lat="47.64492" lon="-2.79977">
        <ele>26.7</ele>
        <time>2025-01-28T08:56:24Z</time>
      </trkpt>
      <trkpt lat="47.64492" lon="-2.79977">
        <ele>26.7</ele>
        <time>2025-01-28T08:56:25Z</time>
      </trkpt>
      <trkpt lat="47.64492" lon="-2.79977">
        <ele>26.7</ele>
        <time>2025-01-28T08:56:26Z</time>
      </trkpt>
      <trkpt lat="47.64492" lon="-2.79977">
        <ele>26.7</ele>
        <time>2025-01-28T08:56:27Z</time>
      </trkpt>
      <trkpt lat="47.64492" lon="-2.79977">
        <ele>26.7</ele>
        <time>2025-01-28T08:56:28Z</time>
      </trkpt>
      <trkpt lat="47.64492" lon="-2.79977">
        <ele>26.7</ele>
        <time>2025-01-28T08:56:29Z</time>
      </trkpt>
      <trkpt lat="47.64492" lon="-2.79977">
        <ele>26.7</ele>
        <time>2025-01-28T08:56:30Z</time>
      </trkpt>
      <trkpt lat="47.64492" lon="-2.79977">
        <ele>26.7</ele>
        <time>2025-01-28T08:56:31Z</time>
      </trkpt>
      <trkpt lat="47.64492" lon="-2.79977">
        <ele>26.7</ele>
        <time>2025-01-28T08:56:32Z</time>
      </trkpt>
      <trkpt lat="47.64492" lon="-2.79977">
        <ele>26.7</ele>
        <time>2025-01-28T08:56:33Z</time>
      </trkpt>
      <trkpt lat="47.64492" lon="-2.79976">
        <ele>26.7</ele>
        <time>2025-01-28T08:56:34Z</time>
      </trkpt>
      <trkpt lat="47.64493" lon="-2.79975">
        <ele>26.7</ele>
        <time>2025-01-28T08:56:35Z</time>
      </trkpt>
      <trkpt lat="47.64493" lon="-2.79974">
        <ele>26.7</ele>
        <time>2025-01-28T08:56:36Z</time>
      </trkpt>
      <trkpt lat="47.64493" lon="-2.79974">
        <ele>26.8</ele>
        <time>2025-01-28T08:56:37Z</time>
      </trkpt>
      <trkpt lat="47.64493" lon="-2.79974">
        <ele>26.8</ele>
        <time>2025-01-28T08:56:38Z</time>
      </trkpt>
      <trkpt lat="47.64493" lon="-2.79974">
        <ele>26.8</ele>
        <time>2025-01-28T08:56:39Z</time>
      </trkpt>
      <trkpt lat="47.64493" lon="-2.79974">
        <ele>26.8</ele>
        <time>2025-01-28T08:56:40Z</time>
      </trkpt>
      <trkpt lat="47.64493" lon="-2.79974">
        <ele>26.8</ele>
        <time>2025-01-28T08:56:41Z</time>
      </trkpt>
      <trkpt lat="47.64494" lon="-2.79974">
        <ele>26.8</ele>
        <time>2025-01-28T08:56:42Z</time>
      </trkpt>
      <trkpt lat="47.64494" lon="-2.79973">
        <ele>26.8</ele>
        <time>2025-01-28T08:56:43Z</time>
      </trkpt>
      <trkpt lat="47.64494" lon="-2.79973">
        <ele>26.8</ele>
        <time>2025-01-28T08:56:44Z</time>
      </trkpt>
      <trkpt lat="47.64494" lon="-2.79973">
        <ele>26.8</ele>
        <time>2025-01-28T08:56:45Z</time>
      </trkpt>
      <trkpt lat="47.64494" lon="-2.79973">
        <ele>26.8</ele>
        <time>2025-01-28T08:56:46Z</time>
      </trkpt>
      <trkpt lat="47.64494" lon="-2.79973">
        <ele>26.8</ele>
        <time>2025-01-28T08:56:47Z</time>
      </trkpt>
      <trkpt lat="47.64494" lon="-2.79973">
        <ele>26.8</ele>
        <time>2025-01-28T08:56:48Z</time>
      </trkpt>
      <trkpt lat="47.64494" lon="-2.79973">
        <ele>26.8</ele>
        <time>2025-01-28T08:56:49Z</time>
      </trkpt>
      <trkpt lat="47.64494" lon="-2.79973">
        <ele>26.8</ele>
        <time>2025-01-28T08:56:50Z</time>
      </trkpt>
      <trkpt lat="47.64494" lon="-2.79973">
        <ele>26.8</ele>
        <time>2025-01-28T08:56:51Z</time>
      </trkpt>
      <trkpt lat="47.64494" lon="-2.79973">
        <ele>26.8</ele>
        <time>2025-01-28T08:56:52Z</time>
      </trkpt>
      <trkpt lat="47.64494" lon="-2.79973">
        <ele>26.8</ele>
        <time>2025-01-28T08:56:53Z</time>
      </trkpt>
      <trkpt lat="47.64494" lon="-2.79973">
        <ele>26.8</ele>
        <time>2025-01-28T08:56:54Z</time>
      </trkpt>
      <trkpt lat="47.64494" lon="-2.79973">
        <ele>26.8</ele>
        <time>2025-01-28T08:56:55Z</time>
      </trkpt>
      <trkpt lat="47.64494" lon="-2.79973">
        <ele>26.8</ele>
        <time>2025-01-28T08:56:56Z</time>
      </trkpt>
      <trkpt lat="47.64494" lon="-2.79973">
        <ele>26.8</ele>
        <time>2025-01-28T08:56:57Z</time>
      </trkpt>
      <trkpt lat="47.64494" lon="-2.79973">
        <ele>26.8</ele>
        <time>2025-01-28T08:56:58Z</time>
      </trkpt>
      <trkpt lat="47.64494" lon="-2.79973">
        <ele>26.8</ele>
        <time>2025-01-28T08:56:59Z</time>
      </trkpt>
      <trkpt lat="47.64494" lon="-2.79973">
        <ele>26.8</ele>
        <time>2025-01-28T08:57:00Z</time>
      </trkpt>
      <trkpt lat="47.64494" lon="-2.79973">
        <ele>26.8</ele>
        <time>2025-01-28T08:57:01Z</time>
      </trkpt>
      <trkpt lat="47.64494" lon="-2.79973">
        <ele>26.8</ele>
        <time>2025-01-28T08:57:02Z</time>
      </trkpt>
      <trkpt lat="47.64494" lon="-2.79973">
        <ele>26.8</ele>
        <time>2025-01-28T08:57:03Z</time>
      </trkpt>
      <trkpt lat="47.64494" lon="-2.79973">
        <ele>26.8</ele>
        <time>2025-01-28T08:57:04Z</time>
      </trkpt>
      <trkpt lat="47.64494" lon="-2.79973">
        <ele>26.8</ele>
        <time>2025-01-28T08:57:05Z</time>
      </trkpt>
      <trkpt lat="47.64494" lon="-2.79973">
        <ele>26.8</ele>
        <time>2025-01-28T08:57:06Z</time>
      </trkpt>
      <trkpt lat="47.64494" lon="-2.79973">
        <ele>26.8</ele>
        <time>2025-01-28T08:57:07Z</time>
      </trkpt>
      <trkpt lat="47.64494" lon="-2.79973">
        <ele>26.8</ele>
        <time>2025-01-28T08:57:08Z</time>
      </trkpt>
      <trkpt lat="47.64494" lon="-2.79973">
        <ele>26.8</ele>
        <time>2025-01-28T08:57:09Z</time>
      </trkpt>
      <trkpt lat="47.64494" lon="-2.79973">
        <ele>26.8</ele>
        <time>2025-01-28T08:57:10Z</time>
      </trkpt>
      <trkpt lat="47.64494" lon="-2.79973">
        <ele>26.8</ele>
        <time>2025-01-28T08:57:11Z</time>
      </trkpt>
      <trkpt lat="47.64494" lon="-2.79973">
        <ele>26.8</ele>
        <time>2025-01-28T08:57:12Z</time>
      </trkpt>
      <trkpt lat="47.64494" lon="-2.79973">
        <ele>26.8</ele>
        <time>2025-01-28T08:57:13Z</time>
      </trkpt>
      <trkpt lat="47.64494" lon="-2.79973">
        <ele>26.8</ele>
        <time>2025-01-28T08:57:14Z</time>
      </trkpt>
      <trkpt lat="47.64493" lon="-2.79973">
        <ele>26.8</ele>
        <time>2025-01-28T08:57:15Z</time>
      </trkpt>
      <trkpt lat="47.64493" lon="-2.79973">
        <ele>26.8</ele>
        <time>2025-01-28T08:57:16Z</time>
      </trkpt>
      <trkpt lat="47.64493" lon="-2.79974">
        <ele>26.8</ele>
        <time>2025-01-28T08:57:17Z</time>
      </trkpt>
      <trkpt lat="47.64493" lon="-2.79974">
        <ele>26.8</ele>
        <time>2025-01-28T08:57:18Z</time>
      </trkpt>
      <trkpt lat="47.64493" lon="-2.79974">
        <ele>26.8</ele>
        <time>2025-01-28T08:57:19Z</time>
      </trkpt>
      <trkpt lat="47.64493" lon="-2.79974">
        <ele>26.8</ele>
        <time>2025-01-28T08:57:20Z</time>
      </trkpt>
      <trkpt lat="47.64493" lon="-2.79974">
        <ele>26.8</ele>
        <time>2025-01-28T08:57:21Z</time>
      </trkpt>
      <trkpt lat="47.64493" lon="-2.79974">
        <ele>26.8</ele>
        <time>2025-01-28T08:57:22Z</time>
      </trkpt>
      <trkpt lat="47.64493" lon="-2.79974">
        <ele>26.8</ele>
        <time>2025-01-28T08:57:23Z</time>
      </trkpt>
      <trkpt lat="47.64493" lon="-2.79974">
        <ele>26.8</ele>
        <time>2025-01-28T08:57:24Z</time>
      </trkpt>
      <trkpt lat="47.64493" lon="-2.79974">
        <ele>26.8</ele>
        <time>2025-01-28T08:57:25Z</time>
      </trkpt>
      <trkpt lat="47.64493" lon="-2.79973">
        <ele>26.8</ele>
        <time>2025-01-28T08:57:26Z</time>
      </trkpt>
      <trkpt lat="47.64493" lon="-2.79973">
        <ele>26.8</ele>
        <time>2025-01-28T08:57:27Z</time>
      </trkpt>
      <trkpt lat="47.64493" lon="-2.79974">
        <ele>26.8</ele>
        <time>2025-01-28T08:57:28Z</time>
      </trkpt>
      <trkpt lat="47.64493" lon="-2.79974">
        <ele>26.8</ele>
        <time>2025-01-28T08:57:29Z</time>
      </trkpt>
      <trkpt lat="47.64493" lon="-2.79974">
        <ele>26.8</ele>
        <time>2025-01-28T08:57:30Z</time>
      </trkpt>
      <trkpt lat="47.64493" lon="-2.79974">
        <ele>26.8</ele>
        <time>2025-01-28T08:57:31Z</time>
      </trkpt>
      <trkpt lat="47.64493" lon="-2.79974">
        <ele>26.8</ele>
        <time>2025-01-28T08:57:32Z</time>
      </trkpt>
      <trkpt lat="47.64493" lon="-2.79974">
        <ele>26.8</ele>
        <time>2025-01-28T08:57:33Z</time>
      </trkpt>
      <trkpt lat="47.64493" lon="-2.79974">
        <ele>26.8</ele>
        <time>2025-01-28T08:57:34Z</time>
      </trkpt>
      <trkpt lat="47.64493" lon="-2.79974">
        <ele>26.8</ele>
        <time>2025-01-28T08:57:35Z</time>
      </trkpt>
      <trkpt lat="47.64493" lon="-2.79974">
        <ele>26.8</ele>
        <time>2025-01-28T08:57:36Z</time>
      </trkpt>
      <trkpt lat="47.64493" lon="-2.79974">
        <ele>26.8</ele>
        <time>2025-01-28T08:57:37Z</time>
      </trkpt>
      <trkpt lat="47.64493" lon="-2.79974">
        <ele>26.8</ele>
        <time>2025-01-28T08:57:38Z</time>
      </trkpt>
      <trkpt lat="47.64493" lon="-2.79974">
        <ele>26.8</ele>
        <time>2025-01-28T08:57:39Z</time>
      </trkpt>
      <trkpt lat="47.64493" lon="-2.79974">
        <ele>26.8</ele>
        <time>2025-01-28T08:57:40Z</time>
      </trkpt>
      <trkpt lat="47.64493" lon="-2.79974">
        <ele>26.8</ele>
        <time>2025-01-28T08:57:41Z</time>
      </trkpt>
      <trkpt lat="47.64493" lon="-2.79974">
        <ele>26.8</ele>
        <time>2025-01-28T08:57:42Z</time>
      </trkpt>
      <trkpt lat="47.64493" lon="-2.79974">
        <ele>26.8</ele>
        <time>2025-01-28T08:57:43Z</time>
      </trkpt>
      <trkpt lat="47.64493" lon="-2.79974">
        <ele>26.8</ele>
        <time>2025-01-28T08:57:44Z</time>
      </trkpt>
      <trkpt lat="47.64493" lon="-2.79974">
        <ele>26.8</ele>
        <time>2025-01-28T08:57:45Z</time>
      </trkpt>
      <trkpt lat="47.64493" lon="-2.79974">
        <ele>26.8</ele>
        <time>2025-01-28T08:57:46Z</time>
      </trkpt>
      <trkpt lat="47.64493" lon="-2.79974">
        <ele>26.8</ele>
        <time>2025-01-28T08:57:47Z</time>
      </trkpt>
      <trkpt lat="47.64493" lon="-2.79974">
        <ele>26.8</ele>
        <time>2025-01-28T08:57:48Z</time>
      </trkpt>
      <trkpt lat="47.64493" lon="-2.79974">
        <ele>26.8</ele>
        <time>2025-01-28T08:57:49Z</time>
      </trkpt>
      <trkpt lat="47.64493" lon="-2.79974">
        <ele>26.8</ele>
        <time>2025-01-28T08:57:50Z</time>
      </trkpt>
      <trkpt lat="47.64493" lon="-2.79974">
        <ele>26.7</ele>
        <time>2025-01-28T08:57:51Z</time>
      </trkpt>
      <trkpt lat="47.64493" lon="-2.79974">
        <ele>26.7</ele>
        <time>2025-01-28T08:57:52Z</time>
      </trkpt>
      <trkpt lat="47.64493" lon="-2.79974">
        <ele>26.7</ele>
        <time>2025-01-28T08:57:53Z</time>
      </trkpt>
      <trkpt lat="47.64493" lon="-2.79974">
        <ele>26.7</ele>
        <time>2025-01-28T08:57:54Z</time>
      </trkpt>
      <trkpt lat="47.64493" lon="-2.79974">
        <ele>26.7</ele>
        <time>2025-01-28T08:57:55Z</time>
      </trkpt>
      <trkpt lat="47.64493" lon="-2.79974">
        <ele>26.7</ele>
        <time>2025-01-28T08:57:56Z</time>
      </trkpt>
      <trkpt lat="47.64493" lon="-2.79974">
        <ele>26.7</ele>
        <time>2025-01-28T08:57:57Z</time>
      </trkpt>
      <trkpt lat="47.64493" lon="-2.79974">
        <ele>26.7</ele>
        <time>2025-01-28T08:57:58Z</time>
      </trkpt>
      <trkpt lat="47.64493" lon="-2.79974">
        <ele>26.7</ele>
        <time>2025-01-28T08:57:59Z</time>
      </trkpt>
      <trkpt lat="47.64493" lon="-2.79974">
        <ele>26.7</ele>
        <time>2025-01-28T08:58:00Z</time>
      </trkpt>
      <trkpt lat="47.64493" lon="-2.79974">
        <ele>26.7</ele>
        <time>2025-01-28T08:58:01Z</time>
      </trkpt>
      <trkpt lat="47.64493" lon="-2.79974">
        <ele>26.7</ele>
        <time>2025-01-28T08:58:02Z</time>
      </trkpt>
      <trkpt lat="47.64493" lon="-2.79974">
        <ele>26.7</ele>
        <time>2025-01-28T08:58:03Z</time>
      </trkpt>
      <trkpt lat="47.64493" lon="-2.79974">
        <ele>26.7</ele>
        <time>2025-01-28T08:58:04Z</time>
      </trkpt>
      <trkpt lat="47.64493" lon="-2.79974">
        <ele>26.7</ele>
        <time>2025-01-28T08:58:05Z</time>
      </trkpt>
      <trkpt lat="47.64493" lon="-2.79974">
        <ele>26.7</ele>
        <time>2025-01-28T08:58:06Z</time>
      </trkpt>
      <trkpt lat="47.64493" lon="-2.79974">
        <ele>26.7</ele>
        <time>2025-01-28T08:58:07Z</time>
      </trkpt>
      <trkpt lat="47.64493" lon="-2.79974">
        <ele>26.7</ele>
        <time>2025-01-28T08:58:08Z</time>
      </trkpt>
      <trkpt lat="47.64493" lon="-2.79974">
        <ele>26.7</ele>
        <time>2025-01-28T08:58:09Z</time>
      </trkpt>
      <trkpt lat="47.64493" lon="-2.79974">
        <ele>26.8</ele>
        <time>2025-01-28T08:58:10Z</time>
      </trkpt>
      <trkpt lat="47.64493" lon="-2.79974">
        <ele>26.8</ele>
        <time>2025-01-28T08:58:11Z</time>
      </trkpt>
      <trkpt lat="47.64493" lon="-2.79974">
        <ele>26.8</ele>
        <time>2025-01-28T08:58:12Z</time>
      </trkpt>
      <trkpt lat="47.64493" lon="-2.79974">
        <ele>26.8</ele>
        <time>2025-01-28T08:58:13Z</time>
      </trkpt>
      <trkpt lat="47.64493" lon="-2.79974">
        <ele>26.8</ele>
        <time>2025-01-28T08:58:14Z</time>
      </trkpt>
      <trkpt lat="47.64493" lon="-2.79974">
        <ele>26.8</ele>
        <time>2025-01-28T08:58:15Z</time>
      </trkpt>
      <trkpt lat="47.64493" lon="-2.79974">
        <ele>26.8</ele>
        <time>2025-01-28T08:58:16Z</time>
      </trkpt>
      <trkpt lat="47.64493" lon="-2.79974">
        <ele>26.8</ele>
        <time>2025-01-28T08:58:17Z</time>
      </trkpt>
      <trkpt lat="47.64493" lon="-2.79974">
        <ele>26.8</ele>
        <time>2025-01-28T08:58:18Z</time>
      </trkpt>
      <trkpt lat="47.64493" lon="-2.79974">
        <ele>26.8</ele>
        <time>2025-01-28T08:58:19Z</time>
      </trkpt>
      <trkpt lat="47.64493" lon="-2.79974">
        <ele>26.8</ele>
        <time>2025-01-28T08:58:20Z</time>
      </trkpt>
      <trkpt lat="47.64493" lon="-2.79974">
        <ele>26.8</ele>
        <time>2025-01-28T08:58:21Z</time>
      </trkpt>
      <trkpt lat="47.64493" lon="-2.79974">
        <ele>26.8</ele>
        <time>2025-01-28T08:58:22Z</time>
      </trkpt>
      <trkpt lat="47.64493" lon="-2.79974">
        <ele>26.8</ele>
        <time>2025-01-28T08:58:23Z</time>
      </trkpt>
      <trkpt lat="47.64493" lon="-2.79974">
        <ele>26.8</ele>
        <time>2025-01-28T08:58:24Z</time>
      </trkpt>
      <trkpt lat="47.64493" lon="-2.79974">
        <ele>26.8</ele>
        <time>2025-01-28T08:58:25Z</time>
      </trkpt>
      <trkpt lat="47.64493" lon="-2.79974">
        <ele>26.8</ele>
        <time>2025-01-28T08:58:26Z</time>
      </trkpt>
      <trkpt lat="47.64493" lon="-2.79974">
        <ele>26.8</ele>
        <time>2025-01-28T08:58:27Z</time>
      </trkpt>
      <trkpt lat="47.64493" lon="-2.79974">
        <ele>26.8</ele>
        <time>2025-01-28T08:58:28Z</time>
      </trkpt>
      <trkpt lat="47.64493" lon="-2.79974">
        <ele>26.8</ele>
        <time>2025-01-28T08:58:29Z</time>
      </trkpt>
      <trkpt lat="47.64494" lon="-2.79973">
        <ele>26.8</ele>
        <time>2025-01-28T08:58:30Z</time>
      </trkpt>
      <trkpt lat="47.64494" lon="-2.79973">
        <ele>26.8</ele>
        <time>2025-01-28T08:58:31Z</time>
      </trkpt>
      <trkpt lat="47.64494" lon="-2.79972">
        <ele>26.8</ele>
        <time>2025-01-28T08:58:32Z</time>
      </trkpt>
      <trkpt lat="47.64494" lon="-2.79972">
        <ele>26.8</ele>
        <time>2025-01-28T08:58:33Z</time>
      </trkpt>
      <trkpt lat="47.64495" lon="-2.79973">
        <ele>26.8</ele>
        <time>2025-01-28T08:58:34Z</time>
      </trkpt>
      <trkpt lat="47.64496" lon="-2.79974">
        <ele>26.9</ele>
        <time>2025-01-28T08:58:35Z</time>
      </trkpt>
      <trkpt lat="47.64497" lon="-2.79977">
        <ele>26.9</ele>
        <time>2025-01-28T08:58:36Z</time>
      </trkpt>
      <trkpt lat="47.64498" lon="-2.79978">
        <ele>26.9</ele>
        <time>2025-01-28T08:58:37Z</time>
      </trkpt>
      <trkpt lat="47.64499" lon="-2.79979">
        <ele>27</ele>
        <time>2025-01-28T08:58:38Z</time>
      </trkpt>
      <trkpt lat="47.645" lon="-2.7998">
        <ele>27</ele>
        <time>2025-01-28T08:58:39Z</time>
      </trkpt>
      <trkpt lat="47.645" lon="-2.79981">
        <ele>27</ele>
        <time>2025-01-28T08:58:40Z</time>
      </trkpt>
      <trkpt lat="47.64499" lon="-2.7998">
        <ele>26.9</ele>
        <time>2025-01-28T08:58:41Z</time>
      </trkpt>
      <trkpt lat="47.64498" lon="-2.7998">
        <ele>26.9</ele>
        <time>2025-01-28T08:58:42Z</time>
      </trkpt>
      <trkpt lat="47.64498" lon="-2.7998">
        <ele>26.9</ele>
        <time>2025-01-28T08:58:43Z</time>
      </trkpt>
      <trkpt lat="47.64498" lon="-2.7998">
        <ele>26.9</ele>
        <time>2025-01-28T08:58:44Z</time>
      </trkpt>
      <trkpt lat="47.64498" lon="-2.7998">
        <ele>26.9</ele>
        <time>2025-01-28T08:58:45Z</time>
      </trkpt>
      <trkpt lat="47.64498" lon="-2.7998">
        <ele>26.9</ele>
        <time>2025-01-28T08:58:46Z</time>
      </trkpt>
      <trkpt lat="47.64498" lon="-2.7998">
        <ele>26.9</ele>
        <time>2025-01-28T08:58:47Z</time>
      </trkpt>
      <trkpt lat="47.64498" lon="-2.7998">
        <ele>26.9</ele>
        <time>2025-01-28T08:58:48Z</time>
      </trkpt>
      <trkpt lat="47.64498" lon="-2.79981">
        <ele>26.9</ele>
        <time>2025-01-28T08:58:49Z</time>
      </trkpt>
      <trkpt lat="47.64498" lon="-2.79982">
        <ele>26.9</ele>
        <time>2025-01-28T08:58:50Z</time>
      </trkpt>
      <trkpt lat="47.64498" lon="-2.79982">
        <ele>26.9</ele>
        <time>2025-01-28T08:58:51Z</time>
      </trkpt>
      <trkpt lat="47.64497" lon="-2.79982">
        <ele>26.9</ele>
        <time>2025-01-28T08:58:52Z</time>
      </trkpt>
      <trkpt lat="47.64497" lon="-2.79982">
        <ele>26.9</ele>
        <time>2025-01-28T08:58:53Z</time>
      </trkpt>
      <trkpt lat="47.64496" lon="-2.79982">
        <ele>26.9</ele>
        <time>2025-01-28T08:58:54Z</time>
      </trkpt>
      <trkpt lat="47.64497" lon="-2.79982">
        <ele>26.9</ele>
        <time>2025-01-28T08:58:55Z</time>
      </trkpt>
      <trkpt lat="47.64497" lon="-2.79983">
        <ele>26.9</ele>
        <time>2025-01-28T08:58:56Z</time>
      </trkpt>
      <trkpt lat="47.64498" lon="-2.79983">
        <ele>26.9</ele>
        <time>2025-01-28T08:58:57Z</time>
      </trkpt>
      <trkpt lat="47.645" lon="-2.79982">
        <ele>27</ele>
        <time>2025-01-28T08:58:58Z</time>
      </trkpt>
      <trkpt lat="47.64501" lon="-2.79982">
        <ele>27</ele>
        <time>2025-01-28T08:58:59Z</time>
      </trkpt>
      <trkpt lat="47.64502" lon="-2.79981">
        <ele>27</ele>
        <time>2025-01-28T08:59:00Z</time>
      </trkpt>
      <trkpt lat="47.64503" lon="-2.7998">
        <ele>27</ele>
        <time>2025-01-28T08:59:01Z</time>
      </trkpt>
      <trkpt lat="47.64504" lon="-2.79979">
        <ele>27</ele>
        <time>2025-01-28T08:59:02Z</time>
      </trkpt>
      <trkpt lat="47.64504" lon="-2.79977">
        <ele>27</ele>
        <time>2025-01-28T08:59:03Z</time>
      </trkpt>
      <trkpt lat="47.64505" lon="-2.79975">
        <ele>27</ele>
        <time>2025-01-28T08:59:04Z</time>
      </trkpt>
      <trkpt lat="47.64506" lon="-2.79975">
        <ele>27</ele>
        <time>2025-01-28T08:59:05Z</time>
      </trkpt>
      <trkpt lat="47.64508" lon="-2.79973">
        <ele>27</ele>
        <time>2025-01-28T08:59:06Z</time>
      </trkpt>
      <trkpt lat="47.64509" lon="-2.79971">
        <ele>27</ele>
        <time>2025-01-28T08:59:07Z</time>
      </trkpt>
      <trkpt lat="47.64509" lon="-2.79969">
        <ele>27</ele>
        <time>2025-01-28T08:59:08Z</time>
      </trkpt>
      <trkpt lat="47.64509" lon="-2.79968">
        <ele>27</ele>
        <time>2025-01-28T08:59:09Z</time>
      </trkpt>
      <trkpt lat="47.64509" lon="-2.79967">
        <ele>27</ele>
        <time>2025-01-28T08:59:10Z</time>
      </trkpt>
      <trkpt lat="47.64511" lon="-2.79966">
        <ele>27</ele>
        <time>2025-01-28T08:59:11Z</time>
      </trkpt>
      <trkpt lat="47.64512" lon="-2.79966">
        <ele>27</ele>
        <time>2025-01-28T08:59:12Z</time>
      </trkpt>
      <trkpt lat="47.64514" lon="-2.79965">
        <ele>27</ele>
        <time>2025-01-28T08:59:13Z</time>
      </trkpt>
      <trkpt lat="47.64515" lon="-2.79963">
        <ele>27</ele>
        <time>2025-01-28T08:59:14Z</time>
      </trkpt>
      <trkpt lat="47.64515" lon="-2.79962">
        <ele>27</ele>
        <time>2025-01-28T08:59:15Z</time>
      </trkpt>
      <trkpt lat="47.64516" lon="-2.79961">
        <ele>27</ele>
        <time>2025-01-28T08:59:16Z</time>
      </trkpt>
      <trkpt lat="47.64518" lon="-2.7996">
        <ele>27</ele>
        <time>2025-01-28T08:59:17Z</time>
      </trkpt>
      <trkpt lat="47.64519" lon="-2.7996">
        <ele>27</ele>
        <time>2025-01-28T08:59:18Z</time>
      </trkpt>
      <trkpt lat="47.6452" lon="-2.7996">
        <ele>27</ele>
        <time>2025-01-28T08:59:19Z</time>
      </trkpt>
      <trkpt lat="47.64521" lon="-2.79959">
        <ele>27</ele>
        <time>2025-01-28T08:59:20Z</time>
      </trkpt>
      <trkpt lat="47.64522" lon="-2.79959">
        <ele>27</ele>
        <time>2025-01-28T08:59:21Z</time>
      </trkpt>
      <trkpt lat="47.64523" lon="-2.79959">
        <ele>27</ele>
        <time>2025-01-28T08:59:22Z</time>
      </trkpt>
      <trkpt lat="47.64524" lon="-2.79958">
        <ele>27</ele>
        <time>2025-01-28T08:59:23Z</time>
      </trkpt>
      <trkpt lat="47.64525" lon="-2.79957">
        <ele>27</ele>
        <time>2025-01-28T08:59:24Z</time>
      </trkpt>
      <trkpt lat="47.64526" lon="-2.79957">
        <ele>27</ele>
        <time>2025-01-28T08:59:25Z</time>
      </trkpt>
      <trkpt lat="47.64527" lon="-2.79956">
        <ele>27</ele>
        <time>2025-01-28T08:59:26Z</time>
      </trkpt>
      <trkpt lat="47.64528" lon="-2.79956">
        <ele>27</ele>
        <time>2025-01-28T08:59:27Z</time>
      </trkpt>
      <trkpt lat="47.64529" lon="-2.79955">
        <ele>27</ele>
        <time>2025-01-28T08:59:28Z</time>
      </trkpt>
      <trkpt lat="47.64531" lon="-2.79954">
        <ele>27</ele>
        <time>2025-01-28T08:59:29Z</time>
      </trkpt>
      <trkpt lat="47.64532" lon="-2.79953">
        <ele>27</ele>
        <time>2025-01-28T08:59:30Z</time>
      </trkpt>
      <trkpt lat="47.64533" lon="-2.79953">
        <ele>27</ele>
        <time>2025-01-28T08:59:31Z</time>
      </trkpt>
      <trkpt lat="47.64534" lon="-2.79952">
        <ele>27</ele>
        <time>2025-01-28T08:59:32Z</time>
      </trkpt>
      <trkpt lat="47.64536" lon="-2.79952">
        <ele>27</ele>
        <time>2025-01-28T08:59:33Z</time>
      </trkpt>
      <trkpt lat="47.64537" lon="-2.79953">
        <ele>27</ele>
        <time>2025-01-28T08:59:34Z</time>
      </trkpt>
      <trkpt lat="47.64538" lon="-2.79953">
        <ele>27</ele>
        <time>2025-01-28T08:59:35Z</time>
      </trkpt>
      <trkpt lat="47.64539" lon="-2.79951">
        <ele>27</ele>
        <time>2025-01-28T08:59:36Z</time>
      </trkpt>
      <trkpt lat="47.6454" lon="-2.7995">
        <ele>27</ele>
        <time>2025-01-28T08:59:37Z</time>
      </trkpt>
      <trkpt lat="47.64541" lon="-2.7995">
        <ele>27</ele>
        <time>2025-01-28T08:59:38Z</time>
      </trkpt>
      <trkpt lat="47.64542" lon="-2.79949">
        <ele>27</ele>
        <time>2025-01-28T08:59:39Z</time>
      </trkpt>
      <trkpt lat="47.64544" lon="-2.79949">
        <ele>27</ele>
        <time>2025-01-28T08:59:40Z</time>
      </trkpt>
      <trkpt lat="47.64545" lon="-2.79947">
        <ele>27</ele>
        <time>2025-01-28T08:59:41Z</time>
      </trkpt>
      <trkpt lat="47.64546" lon="-2.79946">
        <ele>27</ele>
        <time>2025-01-28T08:59:42Z</time>
      </trkpt>
      <trkpt lat="47.64548" lon="-2.79946">
        <ele>27</ele>
        <time>2025-01-28T08:59:43Z</time>
      </trkpt>
      <trkpt lat="47.64549" lon="-2.79944">
        <ele>27</ele>
        <time>2025-01-28T08:59:44Z</time>
      </trkpt>
      <trkpt lat="47.6455" lon="-2.79943">
        <ele>27</ele>
        <time>2025-01-28T08:59:45Z</time>
      </trkpt>
      <trkpt lat="47.64552" lon="-2.79943">
        <ele>27</ele>
        <time>2025-01-28T08:59:46Z</time>
      </trkpt>
      <trkpt lat="47.64554" lon="-2.79942">
        <ele>27</ele>
        <time>2025-01-28T08:59:47Z</time>
      </trkpt>
      <trkpt lat="47.64555" lon="-2.79943">
        <ele>27</ele>
        <time>2025-01-28T08:59:48Z</time>
      </trkpt>
      <trkpt lat="47.64556" lon="-2.79942">
        <ele>27</ele>
        <time>2025-01-28T08:59:49Z</time>
      </trkpt>
      <trkpt lat="47.64557" lon="-2.79942">
        <ele>27</ele>
        <time>2025-01-28T08:59:50Z</time>
      </trkpt>
      <trkpt lat="47.64558" lon="-2.79941">
        <ele>27</ele>
        <time>2025-01-28T08:59:51Z</time>
      </trkpt>
      <trkpt lat="47.6456" lon="-2.7994">
        <ele>27</ele>
        <time>2025-01-28T08:59:52Z</time>
      </trkpt>
      <trkpt lat="47.64561" lon="-2.79939">
        <ele>27</ele>
        <time>2025-01-28T08:59:53Z</time>
      </trkpt>
      <trkpt lat="47.64562" lon="-2.7994">
        <ele>27</ele>
        <time>2025-01-28T08:59:54Z</time>
      </trkpt>
      <trkpt lat="47.64564" lon="-2.7994">
        <ele>27</ele>
        <time>2025-01-28T08:59:55Z</time>
      </trkpt>
      <trkpt lat="47.64565" lon="-2.79939">
        <ele>26.9</ele>
        <time>2025-01-28T08:59:56Z</time>
      </trkpt>
      <trkpt lat="47.64566" lon="-2.79937">
        <ele>26.9</ele>
        <time>2025-01-28T08:59:57Z</time>
      </trkpt>
      <trkpt lat="47.64568" lon="-2.79935">
        <ele>26.9</ele>
        <time>2025-01-28T08:59:58Z</time>
      </trkpt>
      <trkpt lat="47.64569" lon="-2.79934">
        <ele>26.8</ele>
        <time>2025-01-28T08:59:59Z</time>
      </trkpt>
      <trkpt lat="47.6457" lon="-2.79934">
        <ele>26.8</ele>
        <time>2025-01-28T09:00:00Z</time>
      </trkpt>
      <trkpt lat="47.64571" lon="-2.79933">
        <ele>26.8</ele>
        <time>2025-01-28T09:00:01Z</time>
      </trkpt>
      <trkpt lat="47.64572" lon="-2.79933">
        <ele>26.7</ele>
        <time>2025-01-28T09:00:02Z</time>
      </trkpt>
      <trkpt lat="47.64573" lon="-2.79932">
        <ele>26.7</ele>
        <time>2025-01-28T09:00:03Z</time>
      </trkpt>
      <trkpt lat="47.64574" lon="-2.79931">
        <ele>26.7</ele>
        <time>2025-01-28T09:00:04Z</time>
      </trkpt>
      <trkpt lat="47.64576" lon="-2.7993">
        <ele>26.6</ele>
        <time>2025-01-28T09:00:05Z</time>
      </trkpt>
      <trkpt lat="47.64577" lon="-2.79931">
        <ele>26.6</ele>
        <time>2025-01-28T09:00:06Z</time>
      </trkpt>
      <trkpt lat="47.64578" lon="-2.7993">
        <ele>26.6</ele>
        <time>2025-01-28T09:00:07Z</time>
      </trkpt>
      <trkpt lat="47.64579" lon="-2.79931">
        <ele>26.6</ele>
        <time>2025-01-28T09:00:08Z</time>
      </trkpt>
      <trkpt lat="47.6458" lon="-2.79931">
        <ele>26.6</ele>
        <time>2025-01-28T09:00:09Z</time>
      </trkpt>
      <trkpt lat="47.6458" lon="-2.79932">
        <ele>26.6</ele>
        <time>2025-01-28T09:00:10Z</time>
      </trkpt>
      <trkpt lat="47.64581" lon="-2.79932">
        <ele>26.6</ele>
        <time>2025-01-28T09:00:11Z</time>
      </trkpt>
      <trkpt lat="47.64582" lon="-2.79933">
        <ele>26.6</ele>
        <time>2025-01-28T09:00:12Z</time>
      </trkpt>
      <trkpt lat="47.64583" lon="-2.79933">
        <ele>26.6</ele>
        <time>2025-01-28T09:00:13Z</time>
      </trkpt>
      <trkpt lat="47.64584" lon="-2.79933">
        <ele>26.6</ele>
        <time>2025-01-28T09:00:14Z</time>
      </trkpt>
      <trkpt lat="47.64586" lon="-2.79934">
        <ele>26.6</ele>
        <time>2025-01-28T09:00:15Z</time>
      </trkpt>
      <trkpt lat="47.64586" lon="-2.79935">
        <ele>26.6</ele>
        <time>2025-01-28T09:00:16Z</time>
      </trkpt>
      <trkpt lat="47.64588" lon="-2.79935">
        <ele>26.7</ele>
        <time>2025-01-28T09:00:17Z</time>
      </trkpt>
      <trkpt lat="47.64589" lon="-2.79935">
        <ele>26.6</ele>
        <time>2025-01-28T09:00:18Z</time>
      </trkpt>
      <trkpt lat="47.6459" lon="-2.79934">
        <ele>26.6</ele>
        <time>2025-01-28T09:00:19Z</time>
      </trkpt>
      <trkpt lat="47.64592" lon="-2.79934">
        <ele>26.6</ele>
        <time>2025-01-28T09:00:20Z</time>
      </trkpt>
      <trkpt lat="47.64593" lon="-2.79935">
        <ele>26.6</ele>
        <time>2025-01-28T09:00:21Z</time>
      </trkpt>
      <trkpt lat="47.64594" lon="-2.79935">
        <ele>26.6</ele>
        <time>2025-01-28T09:00:22Z</time>
      </trkpt>
      <trkpt lat="47.64595" lon="-2.79935">
        <ele>26.6</ele>
        <time>2025-01-28T09:00:23Z</time>
      </trkpt>
      <trkpt lat="47.64596" lon="-2.79935">
        <ele>26.6</ele>
        <time>2025-01-28T09:00:24Z</time>
      </trkpt>
      <trkpt lat="47.64597" lon="-2.79934">
        <ele>26.6</ele>
        <time>2025-01-28T09:00:25Z</time>
      </trkpt>
      <trkpt lat="47.64599" lon="-2.79933">
        <ele>26.6</ele>
        <time>2025-01-28T09:00:26Z</time>
      </trkpt>
      <trkpt lat="47.646" lon="-2.79933">
        <ele>26.6</ele>
        <time>2025-01-28T09:00:27Z</time>
      </trkpt>
      <trkpt lat="47.64601" lon="-2.79933">
        <ele>26.6</ele>
        <time>2025-01-28T09:00:28Z</time>
      </trkpt>
      <trkpt lat="47.64602" lon="-2.79934">
        <ele>26.6</ele>
        <time>2025-01-28T09:00:29Z</time>
      </trkpt>
      <trkpt lat="47.64604" lon="-2.79934">
        <ele>26.6</ele>
        <time>2025-01-28T09:00:30Z</time>
      </trkpt>
      <trkpt lat="47.64605" lon="-2.79934">
        <ele>26.6</ele>
        <time>2025-01-28T09:00:31Z</time>
      </trkpt>
      <trkpt lat="47.64606" lon="-2.79934">
        <ele>26.6</ele>
        <time>2025-01-28T09:00:32Z</time>
      </trkpt>
      <trkpt lat="47.64607" lon="-2.79934">
        <ele>26.6</ele>
        <time>2025-01-28T09:00:33Z</time>
      </trkpt>
      <trkpt lat="47.64608" lon="-2.79933">
        <ele>26.6</ele>
        <time>2025-01-28T09:00:34Z</time>
      </trkpt>
      <trkpt lat="47.64609" lon="-2.79933">
        <ele>26.6</ele>
        <time>2025-01-28T09:00:35Z</time>
      </trkpt>
      <trkpt lat="47.6461" lon="-2.79932">
        <ele>26.6</ele>
        <time>2025-01-28T09:00:36Z</time>
      </trkpt>
      <trkpt lat="47.64611" lon="-2.79932">
        <ele>26.5</ele>
        <time>2025-01-28T09:00:37Z</time>
      </trkpt>
      <trkpt lat="47.64612" lon="-2.79932">
        <ele>26.5</ele>
        <time>2025-01-28T09:00:38Z</time>
      </trkpt>
      <trkpt lat="47.64613" lon="-2.79932">
        <ele>26.5</ele>
        <time>2025-01-28T09:00:39Z</time>
      </trkpt>
      <trkpt lat="47.64614" lon="-2.79932">
        <ele>26.5</ele>
        <time>2025-01-28T09:00:40Z</time>
      </trkpt>
      <trkpt lat="47.64616" lon="-2.79931">
        <ele>26.5</ele>
        <time>2025-01-28T09:00:41Z</time>
      </trkpt>
      <trkpt lat="47.64617" lon="-2.79932">
        <ele>26.5</ele>
        <time>2025-01-28T09:00:42Z</time>
      </trkpt>
      <trkpt lat="47.64618" lon="-2.79932">
        <ele>26.5</ele>
        <time>2025-01-28T09:00:43Z</time>
      </trkpt>
      <trkpt lat="47.64619" lon="-2.79932">
        <ele>26.5</ele>
        <time>2025-01-28T09:00:44Z</time>
      </trkpt>
      <trkpt lat="47.6462" lon="-2.79932">
        <ele>26.5</ele>
        <time>2025-01-28T09:00:45Z</time>
      </trkpt>
      <trkpt lat="47.64621" lon="-2.79932">
        <ele>26.5</ele>
        <time>2025-01-28T09:00:46Z</time>
      </trkpt>
      <trkpt lat="47.64622" lon="-2.79932">
        <ele>26.5</ele>
        <time>2025-01-28T09:00:47Z</time>
      </trkpt>
      <trkpt lat="47.64624" lon="-2.79932">
        <ele>26.6</ele>
        <time>2025-01-28T09:00:48Z</time>
      </trkpt>
      <trkpt lat="47.64625" lon="-2.79931">
        <ele>26.5</ele>
        <time>2025-01-28T09:00:49Z</time>
      </trkpt>
      <trkpt lat="47.64626" lon="-2.79931">
        <ele>26.5</ele>
        <time>2025-01-28T09:00:50Z</time>
      </trkpt>
      <trkpt lat="47.64627" lon="-2.7993">
        <ele>26.5</ele>
        <time>2025-01-28T09:00:51Z</time>
      </trkpt>
      <trkpt lat="47.64629" lon="-2.7993">
        <ele>26.5</ele>
        <time>2025-01-28T09:00:52Z</time>
      </trkpt>
      <trkpt lat="47.6463" lon="-2.7993">
        <ele>26.5</ele>
        <time>2025-01-28T09:00:53Z</time>
      </trkpt>
      <trkpt lat="47.64631" lon="-2.79929">
        <ele>26.4</ele>
        <time>2025-01-28T09:00:54Z</time>
      </trkpt>
      <trkpt lat="47.64632" lon="-2.79928">
        <ele>26.4</ele>
        <time>2025-01-28T09:00:55Z</time>
      </trkpt>
      <trkpt lat="47.64633" lon="-2.79927">
        <ele>26.4</ele>
        <time>2025-01-28T09:00:56Z</time>
      </trkpt>
      <trkpt lat="47.64634" lon="-2.79926">
        <ele>26.3</ele>
        <time>2025-01-28T09:00:57Z</time>
      </trkpt>
      <trkpt lat="47.64635" lon="-2.79925">
        <ele>26.3</ele>
        <time>2025-01-28T09:00:58Z</time>
      </trkpt>
      <trkpt lat="47.64636" lon="-2.79925">
        <ele>26.3</ele>
        <time>2025-01-28T09:00:59Z</time>
      </trkpt>
      <trkpt lat="47.64637" lon="-2.79924">
        <ele>26.3</ele>
        <time>2025-01-28T09:01:00Z</time>
      </trkpt>
      <trkpt lat="47.64638" lon="-2.79924">
        <ele>26.3</ele>
        <time>2025-01-28T09:01:01Z</time>
      </trkpt>
      <trkpt lat="47.64639" lon="-2.79923">
        <ele>26.2</ele>
        <time>2025-01-28T09:01:02Z</time>
      </trkpt>
      <trkpt lat="47.6464" lon="-2.79922">
        <ele>26.2</ele>
        <time>2025-01-28T09:01:03Z</time>
      </trkpt>
      <trkpt lat="47.64641" lon="-2.7992">
        <ele>26.1</ele>
        <time>2025-01-28T09:01:04Z</time>
      </trkpt>
      <trkpt lat="47.64642" lon="-2.79918">
        <ele>26.1</ele>
        <time>2025-01-28T09:01:05Z</time>
      </trkpt>
      <trkpt lat="47.64643" lon="-2.79918">
        <ele>26</ele>
        <time>2025-01-28T09:01:06Z</time>
      </trkpt>
      <trkpt lat="47.64644" lon="-2.79917">
        <ele>26</ele>
        <time>2025-01-28T09:01:07Z</time>
      </trkpt>
      <trkpt lat="47.64645" lon="-2.79915">
        <ele>25.9</ele>
        <time>2025-01-28T09:01:08Z</time>
      </trkpt>
      <trkpt lat="47.64645" lon="-2.79914">
        <ele>25.9</ele>
        <time>2025-01-28T09:01:09Z</time>
      </trkpt>
      <trkpt lat="47.64647" lon="-2.79913">
        <ele>25.8</ele>
        <time>2025-01-28T09:01:10Z</time>
      </trkpt>
      <trkpt lat="47.64648" lon="-2.79912">
        <ele>25.8</ele>
        <time>2025-01-28T09:01:11Z</time>
      </trkpt>
      <trkpt lat="47.64648" lon="-2.7991">
        <ele>25.7</ele>
        <time>2025-01-28T09:01:12Z</time>
      </trkpt>
      <trkpt lat="47.64649" lon="-2.79909">
        <ele>25.6</ele>
        <time>2025-01-28T09:01:13Z</time>
      </trkpt>
      <trkpt lat="47.6465" lon="-2.79908">
        <ele>25.6</ele>
        <time>2025-01-28T09:01:14Z</time>
      </trkpt>
      <trkpt lat="47.64651" lon="-2.79907">
        <ele>25.5</ele>
        <time>2025-01-28T09:01:15Z</time>
      </trkpt>
      <trkpt lat="47.64652" lon="-2.79907">
        <ele>25.5</ele>
        <time>2025-01-28T09:01:16Z</time>
      </trkpt>
      <trkpt lat="47.64654" lon="-2.79906">
        <ele>25.4</ele>
        <time>2025-01-28T09:01:17Z</time>
      </trkpt>
      <trkpt lat="47.64654" lon="-2.79905">
        <ele>25.3</ele>
        <time>2025-01-28T09:01:18Z</time>
      </trkpt>
      <trkpt lat="47.64655" lon="-2.79904">
        <ele>25.3</ele>
        <time>2025-01-28T09:01:19Z</time>
      </trkpt>
      <trkpt lat="47.64657" lon="-2.79903">
        <ele>25.2</ele>
        <time>2025-01-28T09:01:20Z</time>
      </trkpt>
      <trkpt lat="47.64658" lon="-2.79903">
        <ele>25.1</ele>
        <time>2025-01-28T09:01:21Z</time>
      </trkpt>
      <trkpt lat="47.64658" lon="-2.79901">
        <ele>25</ele>
        <time>2025-01-28T09:01:22Z</time>
      </trkpt>
      <trkpt lat="47.64659" lon="-2.799">
        <ele>25</ele>
        <time>2025-01-28T09:01:23Z</time>
      </trkpt>
      <trkpt lat="47.6466" lon="-2.79899">
        <ele>24.9</ele>
        <time>2025-01-28T09:01:24Z</time>
      </trkpt>
      <trkpt lat="47.64661" lon="-2.79898">
        <ele>24.8</ele>
        <time>2025-01-28T09:01:25Z</time>
      </trkpt>
      <trkpt lat="47.64661" lon="-2.79897">
        <ele>24.7</ele>
        <time>2025-01-28T09:01:26Z</time>
      </trkpt>
      <trkpt lat="47.64662" lon="-2.79896">
        <ele>24.6</ele>
        <time>2025-01-28T09:01:27Z</time>
      </trkpt>
      <trkpt lat="47.64663" lon="-2.79895">
        <ele>24.5</ele>
        <time>2025-01-28T09:01:28Z</time>
      </trkpt>
      <trkpt lat="47.64665" lon="-2.79895">
        <ele>24.5</ele>
        <time>2025-01-28T09:01:29Z</time>
      </trkpt>
      <trkpt lat="47.64666" lon="-2.79894">
        <ele>24.4</ele>
        <time>2025-01-28T09:01:30Z</time>
      </trkpt>
      <trkpt lat="47.64667" lon="-2.79894">
        <ele>24.4</ele>
        <time>2025-01-28T09:01:31Z</time>
      </trkpt>
      <trkpt lat="47.64668" lon="-2.79893">
        <ele>24.2</ele>
        <time>2025-01-28T09:01:32Z</time>
      </trkpt>
      <trkpt lat="47.64669" lon="-2.79892">
        <ele>24.1</ele>
        <time>2025-01-28T09:01:33Z</time>
      </trkpt>
      <trkpt lat="47.6467" lon="-2.79891">
        <ele>23.9</ele>
        <time>2025-01-28T09:01:34Z</time>
      </trkpt>
      <trkpt lat="47.64671" lon="-2.7989">
        <ele>23.7</ele>
        <time>2025-01-28T09:01:35Z</time>
      </trkpt>
      <trkpt lat="47.64672" lon="-2.79889">
        <ele>23.6</ele>
        <time>2025-01-28T09:01:36Z</time>
      </trkpt>
      <trkpt lat="47.64673" lon="-2.79889">
        <ele>23.5</ele>
        <time>2025-01-28T09:01:37Z</time>
      </trkpt>
      <trkpt lat="47.64674" lon="-2.79888">
        <ele>23.4</ele>
        <time>2025-01-28T09:01:38Z</time>
      </trkpt>
      <trkpt lat="47.64675" lon="-2.79887">
        <ele>23.2</ele>
        <time>2025-01-28T09:01:39Z</time>
      </trkpt>
      <trkpt lat="47.64676" lon="-2.79886">
        <ele>23.1</ele>
        <time>2025-01-28T09:01:40Z</time>
      </trkpt>
      <trkpt lat="47.64677" lon="-2.79885">
        <ele>22.9</ele>
        <time>2025-01-28T09:01:41Z</time>
      </trkpt>
      <trkpt lat="47.64678" lon="-2.79884">
        <ele>22.8</ele>
        <time>2025-01-28T09:01:42Z</time>
      </trkpt>
      <trkpt lat="47.6468" lon="-2.79884">
        <ele>22.7</ele>
        <time>2025-01-28T09:01:43Z</time>
      </trkpt>
      <trkpt lat="47.64681" lon="-2.79883">
        <ele>22.5</ele>
        <time>2025-01-28T09:01:44Z</time>
      </trkpt>
      <trkpt lat="47.64682" lon="-2.79881">
        <ele>22.4</ele>
        <time>2025-01-28T09:01:45Z</time>
      </trkpt>
      <trkpt lat="47.64683" lon="-2.79881">
        <ele>22.2</ele>
        <time>2025-01-28T09:01:46Z</time>
      </trkpt>
      <trkpt lat="47.64685" lon="-2.7988">
        <ele>22</ele>
        <time>2025-01-28T09:01:47Z</time>
      </trkpt>
      <trkpt lat="47.64686" lon="-2.79878">
        <ele>21.9</ele>
        <time>2025-01-28T09:01:48Z</time>
      </trkpt>
      <trkpt lat="47.64687" lon="-2.79877">
        <ele>21.7</ele>
        <time>2025-01-28T09:01:49Z</time>
      </trkpt>
      <trkpt lat="47.64687" lon="-2.79875">
        <ele>21.6</ele>
        <time>2025-01-28T09:01:50Z</time>
      </trkpt>
      <trkpt lat="47.64688" lon="-2.79874">
        <ele>21.4</ele>
        <time>2025-01-28T09:01:51Z</time>
      </trkpt>
      <trkpt lat="47.64689" lon="-2.79873">
        <ele>21.3</ele>
        <time>2025-01-28T09:01:52Z</time>
      </trkpt>
      <trkpt lat="47.64689" lon="-2.79872">
        <ele>21.2</ele>
        <time>2025-01-28T09:01:53Z</time>
      </trkpt>
      <trkpt lat="47.64691" lon="-2.79872">
        <ele>21</ele>
        <time>2025-01-28T09:01:54Z</time>
      </trkpt>
      <trkpt lat="47.64692" lon="-2.79872">
        <ele>21</ele>
        <time>2025-01-28T09:01:55Z</time>
      </trkpt>
      <trkpt lat="47.64693" lon="-2.79873">
        <ele>20.9</ele>
        <time>2025-01-28T09:01:56Z</time>
      </trkpt>
      <trkpt lat="47.64695" lon="-2.79873">
        <ele>20.8</ele>
        <time>2025-01-28T09:01:57Z</time>
      </trkpt>
      <trkpt lat="47.64696" lon="-2.79872">
        <ele>20.6</ele>
        <time>2025-01-28T09:01:58Z</time>
      </trkpt>
      <trkpt lat="47.64697" lon="-2.79872">
        <ele>20.5</ele>
        <time>2025-01-28T09:01:59Z</time>
      </trkpt>
      <trkpt lat="47.64698" lon="-2.79872">
        <ele>20.4</ele>
        <time>2025-01-28T09:02:00Z</time>
      </trkpt>
      <trkpt lat="47.64699" lon="-2.79872">
        <ele>20.3</ele>
        <time>2025-01-28T09:02:01Z</time>
      </trkpt>
      <trkpt lat="47.64701" lon="-2.79872">
        <ele>20.1</ele>
        <time>2025-01-28T09:02:02Z</time>
      </trkpt>
      <trkpt lat="47.64702" lon="-2.79872">
        <ele>20</ele>
        <time>2025-01-28T09:02:03Z</time>
      </trkpt>
      <trkpt lat="47.64703" lon="-2.79873">
        <ele>19.9</ele>
        <time>2025-01-28T09:02:04Z</time>
      </trkpt>
      <trkpt lat="47.64705" lon="-2.79873">
        <ele>19.8</ele>
        <time>2025-01-28T09:02:05Z</time>
      </trkpt>
      <trkpt lat="47.64705" lon="-2.79872">
        <ele>19.6</ele>
        <time>2025-01-28T09:02:06Z</time>
      </trkpt>
      <trkpt lat="47.64707" lon="-2.79873">
        <ele>19.5</ele>
        <time>2025-01-28T09:02:07Z</time>
      </trkpt>
      <trkpt lat="47.64708" lon="-2.79873">
        <ele>19.4</ele>
        <time>2025-01-28T09:02:08Z</time>
      </trkpt>
      <trkpt lat="47.64709" lon="-2.79873">
        <ele>19.3</ele>
        <time>2025-01-28T09:02:09Z</time>
      </trkpt>
      <trkpt lat="47.6471" lon="-2.79873">
        <ele>19.1</ele>
        <time>2025-01-28T09:02:10Z</time>
      </trkpt>
      <trkpt lat="47.64712" lon="-2.79873">
        <ele>19</ele>
        <time>2025-01-28T09:02:11Z</time>
      </trkpt>
      <trkpt lat="47.64713" lon="-2.79873">
        <ele>18.8</ele>
        <time>2025-01-28T09:02:12Z</time>
      </trkpt>
      <trkpt lat="47.64714" lon="-2.79872">
        <ele>18.7</ele>
        <time>2025-01-28T09:02:13Z</time>
      </trkpt>
      <trkpt lat="47.64716" lon="-2.79872">
        <ele>18.5</ele>
        <time>2025-01-28T09:02:14Z</time>
      </trkpt>
      <trkpt lat="47.64717" lon="-2.79872">
        <ele>18.4</ele>
        <time>2025-01-28T09:02:15Z</time>
      </trkpt>
      <trkpt lat="47.64718" lon="-2.79872">
        <ele>18.2</ele>
        <time>2025-01-28T09:02:16Z</time>
      </trkpt>
      <trkpt lat="47.6472" lon="-2.79871">
        <ele>18</ele>
        <time>2025-01-28T09:02:17Z</time>
      </trkpt>
      <trkpt lat="47.64721" lon="-2.7987">
        <ele>17.8</ele>
        <time>2025-01-28T09:02:18Z</time>
      </trkpt>
      <trkpt lat="47.64722" lon="-2.79871">
        <ele>17.7</ele>
        <time>2025-01-28T09:02:19Z</time>
      </trkpt>
      <trkpt lat="47.64723" lon="-2.79871">
        <ele>17.7</ele>
        <time>2025-01-28T09:02:20Z</time>
      </trkpt>
      <trkpt lat="47.64724" lon="-2.79871">
        <ele>17.6</ele>
        <time>2025-01-28T09:02:21Z</time>
      </trkpt>
      <trkpt lat="47.64725" lon="-2.7987">
        <ele>17.4</ele>
        <time>2025-01-28T09:02:22Z</time>
      </trkpt>
      <trkpt lat="47.64727" lon="-2.7987">
        <ele>17.3</ele>
        <time>2025-01-28T09:02:23Z</time>
      </trkpt>
      <trkpt lat="47.64728" lon="-2.79869">
        <ele>17.1</ele>
        <time>2025-01-28T09:02:24Z</time>
      </trkpt>
      <trkpt lat="47.64729" lon="-2.79868">
        <ele>17</ele>
        <time>2025-01-28T09:02:25Z</time>
      </trkpt>
      <trkpt lat="47.6473" lon="-2.79868">
        <ele>16.9</ele>
        <time>2025-01-28T09:02:26Z</time>
      </trkpt>
      <trkpt lat="47.64731" lon="-2.79868">
        <ele>16.8</ele>
        <time>2025-01-28T09:02:27Z</time>
      </trkpt>
      <trkpt lat="47.64732" lon="-2.79867">
        <ele>16.7</ele>
        <time>2025-01-28T09:02:28Z</time>
      </trkpt>
      <trkpt lat="47.64733" lon="-2.79866">
        <ele>16.6</ele>
        <time>2025-01-28T09:02:29Z</time>
      </trkpt>
      <trkpt lat="47.64734" lon="-2.79865">
        <ele>16.4</ele>
        <time>2025-01-28T09:02:30Z</time>
      </trkpt>
      <trkpt lat="47.64736" lon="-2.79865">
        <ele>16.3</ele>
        <time>2025-01-28T09:02:31Z</time>
      </trkpt>
      <trkpt lat="47.64737" lon="-2.79865">
        <ele>16.2</ele>
        <time>2025-01-28T09:02:32Z</time>
      </trkpt>
      <trkpt lat="47.64738" lon="-2.79865">
        <ele>16.1</ele>
        <time>2025-01-28T09:02:33Z</time>
      </trkpt>
      <trkpt lat="47.64739" lon="-2.79865">
        <ele>16.1</ele>
        <time>2025-01-28T09:02:34Z</time>
      </trkpt>
      <trkpt lat="47.64741" lon="-2.79865">
        <ele>16</ele>
        <time>2025-01-28T09:02:35Z</time>
      </trkpt>
      <trkpt lat="47.64742" lon="-2.79865">
        <ele>15.9</ele>
        <time>2025-01-28T09:02:36Z</time>
      </trkpt>
      <trkpt lat="47.64743" lon="-2.79865">
        <ele>15.8</ele>
        <time>2025-01-28T09:02:37Z</time>
      </trkpt>
      <trkpt lat="47.64744" lon="-2.79865">
        <ele>15.7</ele>
        <time>2025-01-28T09:02:38Z</time>
      </trkpt>
      <trkpt lat="47.64746" lon="-2.79866">
        <ele>15.7</ele>
        <time>2025-01-28T09:02:39Z</time>
      </trkpt>
      <trkpt lat="47.64747" lon="-2.79866">
        <ele>15.6</ele>
        <time>2025-01-28T09:02:40Z</time>
      </trkpt>
      <trkpt lat="47.64748" lon="-2.79867">
        <ele>15.6</ele>
        <time>2025-01-28T09:02:41Z</time>
      </trkpt>
      <trkpt lat="47.6475" lon="-2.79868">
        <ele>15.5</ele>
        <time>2025-01-28T09:02:42Z</time>
      </trkpt>
      <trkpt lat="47.64751" lon="-2.79868">
        <ele>15.4</ele>
        <time>2025-01-28T09:02:43Z</time>
      </trkpt>
      <trkpt lat="47.64753" lon="-2.79868">
        <ele>15.3</ele>
        <time>2025-01-28T09:02:44Z</time>
      </trkpt>
      <trkpt lat="47.64754" lon="-2.79867">
        <ele>15.1</ele>
        <time>2025-01-28T09:02:45Z</time>
      </trkpt>
      <trkpt lat="47.64755" lon="-2.79867">
        <ele>15</ele>
        <time>2025-01-28T09:02:46Z</time>
      </trkpt>
      <trkpt lat="47.64757" lon="-2.79868">
        <ele>15</ele>
        <time>2025-01-28T09:02:47Z</time>
      </trkpt>
      <trkpt lat="47.64758" lon="-2.79868">
        <ele>14.9</ele>
        <time>2025-01-28T09:02:48Z</time>
      </trkpt>
      <trkpt lat="47.64759" lon="-2.79868">
        <ele>14.8</ele>
        <time>2025-01-28T09:02:49Z</time>
      </trkpt>
      <trkpt lat="47.6476" lon="-2.79868">
        <ele>14.8</ele>
        <time>2025-01-28T09:02:50Z</time>
      </trkpt>
      <trkpt lat="47.64762" lon="-2.79868">
        <ele>14.6</ele>
        <time>2025-01-28T09:02:51Z</time>
      </trkpt>
      <trkpt lat="47.64763" lon="-2.79868">
        <ele>14.5</ele>
        <time>2025-01-28T09:02:52Z</time>
      </trkpt>
      <trkpt lat="47.64764" lon="-2.79867">
        <ele>14.4</ele>
        <time>2025-01-28T09:02:53Z</time>
      </trkpt>
      <trkpt lat="47.64766" lon="-2.79867">
        <ele>14.3</ele>
        <time>2025-01-28T09:02:54Z</time>
      </trkpt>
      <trkpt lat="47.64767" lon="-2.79866">
        <ele>14.1</ele>
        <time>2025-01-28T09:02:55Z</time>
      </trkpt>
      <trkpt lat="47.64768" lon="-2.79866">
        <ele>14</ele>
        <time>2025-01-28T09:02:56Z</time>
      </trkpt>
      <trkpt lat="47.6477" lon="-2.79866">
        <ele>14</ele>
        <time>2025-01-28T09:02:57Z</time>
      </trkpt>
      <trkpt lat="47.64771" lon="-2.79866">
        <ele>13.9</ele>
        <time>2025-01-28T09:02:58Z</time>
      </trkpt>
      <trkpt lat="47.64772" lon="-2.79866">
        <ele>13.8</ele>
        <time>2025-01-28T09:02:59Z</time>
      </trkpt>
      <trkpt lat="47.64773" lon="-2.79867">
        <ele>13.7</ele>
        <time>2025-01-28T09:03:00Z</time>
      </trkpt>
      <trkpt lat="47.64775" lon="-2.79866">
        <ele>13.6</ele>
        <time>2025-01-28T09:03:01Z</time>
      </trkpt>
      <trkpt lat="47.64776" lon="-2.79867">
        <ele>13.6</ele>
        <time>2025-01-28T09:03:02Z</time>
      </trkpt>
      <trkpt lat="47.64778" lon="-2.79866">
        <ele>13.4</ele>
        <time>2025-01-28T09:03:03Z</time>
      </trkpt>
      <trkpt lat="47.64779" lon="-2.79865">
        <ele>13.2</ele>
        <time>2025-01-28T09:03:04Z</time>
      </trkpt>
      <trkpt lat="47.6478" lon="-2.79864">
        <ele>13.1</ele>
        <time>2025-01-28T09:03:05Z</time>
      </trkpt>
      <trkpt lat="47.64781" lon="-2.79863">
        <ele>12.9</ele>
        <time>2025-01-28T09:03:06Z</time>
      </trkpt>
      <trkpt lat="47.64782" lon="-2.79862">
        <ele>12.8</ele>
        <time>2025-01-28T09:03:07Z</time>
      </trkpt>
      <trkpt lat="47.64783" lon="-2.79861">
        <ele>12.6</ele>
        <time>2025-01-28T09:03:08Z</time>
      </trkpt>
      <trkpt lat="47.64783" lon="-2.7986">
        <ele>12.5</ele>
        <time>2025-01-28T09:03:09Z</time>
      </trkpt>
      <trkpt lat="47.64784" lon="-2.79859">
        <ele>12.3</ele>
        <time>2025-01-28T09:03:10Z</time>
      </trkpt>
      <trkpt lat="47.64785" lon="-2.79857">
        <ele>12.2</ele>
        <time>2025-01-28T09:03:11Z</time>
      </trkpt>
      <trkpt lat="47.64787" lon="-2.79856">
        <ele>12</ele>
        <time>2025-01-28T09:03:12Z</time>
      </trkpt>
      <trkpt lat="47.64787" lon="-2.79855">
        <ele>11.8</ele>
        <time>2025-01-28T09:03:13Z</time>
      </trkpt>
      <trkpt lat="47.64788" lon="-2.79853">
        <ele>11.7</ele>
        <time>2025-01-28T09:03:14Z</time>
      </trkpt>
      <trkpt lat="47.64788" lon="-2.79851">
        <ele>11.5</ele>
        <time>2025-01-28T09:03:15Z</time>
      </trkpt>
      <trkpt lat="47.64788" lon="-2.7985">
        <ele>11.4</ele>
        <time>2025-01-28T09:03:16Z</time>
      </trkpt>
      <trkpt lat="47.64788" lon="-2.79848">
        <ele>11.3</ele>
        <time>2025-01-28T09:03:17Z</time>
      </trkpt>
      <trkpt lat="47.64787" lon="-2.79846">
        <ele>11.2</ele>
        <time>2025-01-28T09:03:18Z</time>
      </trkpt>
      <trkpt lat="47.64785" lon="-2.79844">
        <ele>11.2</ele>
        <time>2025-01-28T09:03:19Z</time>
      </trkpt>
      <trkpt lat="47.64784" lon="-2.79844">
        <ele>11.3</ele>
        <time>2025-01-28T09:03:20Z</time>
      </trkpt>
      <trkpt lat="47.64782" lon="-2.79844">
        <ele>11.5</ele>
        <time>2025-01-28T09:03:21Z</time>
      </trkpt>
      <trkpt lat="47.6478" lon="-2.79844">
        <ele>11.6</ele>
        <time>2025-01-28T09:03:22Z</time>
      </trkpt>
      <trkpt lat="47.64779" lon="-2.79844">
        <ele>11.7</ele>
        <time>2025-01-28T09:03:23Z</time>
      </trkpt>
      <trkpt lat="47.64777" lon="-2.79844">
        <ele>11.8</ele>
        <time>2025-01-28T09:03:24Z</time>
      </trkpt>
      <trkpt lat="47.64776" lon="-2.79844">
        <ele>11.9</ele>
        <time>2025-01-28T09:03:25Z</time>
      </trkpt>
      <trkpt lat="47.64775" lon="-2.79843">
        <ele>11.9</ele>
        <time>2025-01-28T09:03:26Z</time>
      </trkpt>
      <trkpt lat="47.64773" lon="-2.79844">
        <ele>12.1</ele>
        <time>2025-01-28T09:03:27Z</time>
      </trkpt>
      <trkpt lat="47.64772" lon="-2.79844">
        <ele>12.2</ele>
        <time>2025-01-28T09:03:28Z</time>
      </trkpt>
      <trkpt lat="47.64771" lon="-2.79845">
        <ele>12.3</ele>
        <time>2025-01-28T09:03:29Z</time>
      </trkpt>
      <trkpt lat="47.64769" lon="-2.79845">
        <ele>12.4</ele>
        <time>2025-01-28T09:03:30Z</time>
      </trkpt>
      <trkpt lat="47.64768" lon="-2.79845">
        <ele>12.6</ele>
        <time>2025-01-28T09:03:31Z</time>
      </trkpt>
      <trkpt lat="47.64766" lon="-2.79844">
        <ele>12.6</ele>
        <time>2025-01-28T09:03:32Z</time>
      </trkpt>
      <trkpt lat="47.64765" lon="-2.79844">
        <ele>12.7</ele>
        <time>2025-01-28T09:03:33Z</time>
      </trkpt>
      <trkpt lat="47.64764" lon="-2.79843">
        <ele>12.7</ele>
        <time>2025-01-28T09:03:34Z</time>
      </trkpt>
      <trkpt lat="47.64763" lon="-2.79843">
        <ele>12.7</ele>
        <time>2025-01-28T09:03:35Z</time>
      </trkpt>
      <trkpt lat="47.64762" lon="-2.79842">
        <ele>12.8</ele>
        <time>2025-01-28T09:03:36Z</time>
      </trkpt>
      <trkpt lat="47.64761" lon="-2.79841">
        <ele>12.8</ele>
        <time>2025-01-28T09:03:37Z</time>
      </trkpt>
      <trkpt lat="47.6476" lon="-2.79841">
        <ele>12.9</ele>
        <time>2025-01-28T09:03:38Z</time>
      </trkpt>
      <trkpt lat="47.64759" lon="-2.79841">
        <ele>12.9</ele>
        <time>2025-01-28T09:03:39Z</time>
      </trkpt>
      <trkpt lat="47.64757" lon="-2.7984">
        <ele>12.9</ele>
        <time>2025-01-28T09:03:40Z</time>
      </trkpt>
      <trkpt lat="47.64756" lon="-2.79839">
        <ele>12.9</ele>
        <time>2025-01-28T09:03:41Z</time>
      </trkpt>
      <trkpt lat="47.64757" lon="-2.79839">
        <ele>12.9</ele>
        <time>2025-01-28T09:03:42Z</time>
      </trkpt>
      <trkpt lat="47.64758" lon="-2.7984">
        <ele>12.9</ele>
        <time>2025-01-28T09:03:43Z</time>
      </trkpt>
      <trkpt lat="47.64758" lon="-2.7984">
        <ele>12.9</ele>
        <time>2025-01-28T09:03:44Z</time>
      </trkpt>
      <trkpt lat="47.64758" lon="-2.7984">
        <ele>12.9</ele>
        <time>2025-01-28T09:03:45Z</time>
      </trkpt>
      <trkpt lat="47.64758" lon="-2.7984">
        <ele>12.9</ele>
        <time>2025-01-28T09:03:46Z</time>
      </trkpt>
      <trkpt lat="47.64758" lon="-2.7984">
        <ele>12.9</ele>
        <time>2025-01-28T09:03:47Z</time>
      </trkpt>
      <trkpt lat="47.64758" lon="-2.7984">
        <ele>12.9</ele>
        <time>2025-01-28T09:03:48Z</time>
      </trkpt>
      <trkpt lat="47.64758" lon="-2.7984">
        <ele>12.9</ele>
        <time>2025-01-28T09:03:49Z</time>
      </trkpt>
      <trkpt lat="47.64758" lon="-2.7984">
        <ele>12.9</ele>
        <time>2025-01-28T09:03:50Z</time>
      </trkpt>
      <trkpt lat="47.64758" lon="-2.7984">
        <ele>12.9</ele>
        <time>2025-01-28T09:03:51Z</time>
      </trkpt>
      <trkpt lat="47.64757" lon="-2.79839">
        <ele>12.9</ele>
        <time>2025-01-28T09:03:52Z</time>
      </trkpt>
      <trkpt lat="47.64756" lon="-2.79838">
        <ele>12.9</ele>
        <time>2025-01-28T09:03:53Z</time>
      </trkpt>
      <trkpt lat="47.64755" lon="-2.79838">
        <ele>13</ele>
        <time>2025-01-28T09:03:54Z</time>
      </trkpt>
      <trkpt lat="47.64754" lon="-2.79838">
        <ele>13.1</ele>
        <time>2025-01-28T09:03:55Z</time>
      </trkpt>
      <trkpt lat="47.64754" lon="-2.7984">
        <ele>13.1</ele>
        <time>2025-01-28T09:03:56Z</time>
      </trkpt>
      <trkpt lat="47.64754" lon="-2.7984">
        <ele>13.2</ele>
        <time>2025-01-28T09:03:57Z</time>
      </trkpt>
      <trkpt lat="47.64752" lon="-2.79839">
        <ele>13.2</ele>
        <time>2025-01-28T09:03:58Z</time>
      </trkpt>
      <trkpt lat="47.64751" lon="-2.79837">
        <ele>13.2</ele>
        <time>2025-01-28T09:03:59Z</time>
      </trkpt>
      <trkpt lat="47.6475" lon="-2.79836">
        <ele>13.2</ele>
        <time>2025-01-28T09:04:00Z</time>
      </trkpt>
      <trkpt lat="47.64749" lon="-2.79834">
        <ele>13.1</ele>
        <time>2025-01-28T09:04:01Z</time>
      </trkpt>
      <trkpt lat="47.64748" lon="-2.79832">
        <ele>13</ele>
        <time>2025-01-28T09:04:02Z</time>
      </trkpt>
      <trkpt lat="47.64747" lon="-2.7983">
        <ele>13</ele>
        <time>2025-01-28T09:04:03Z</time>
      </trkpt>
      <trkpt lat="47.64746" lon="-2.7983">
        <ele>13.1</ele>
        <time>2025-01-28T09:04:04Z</time>
      </trkpt>
      <trkpt lat="47.64745" lon="-2.7983">
        <ele>13.2</ele>
        <time>2025-01-28T09:04:05Z</time>
      </trkpt>
      <trkpt lat="47.64743" lon="-2.7983">
        <ele>13.3</ele>
        <time>2025-01-28T09:04:06Z</time>
      </trkpt>
      <trkpt lat="47.64742" lon="-2.7983">
        <ele>13.4</ele>
        <time>2025-01-28T09:04:07Z</time>
      </trkpt>
      <trkpt lat="47.64741" lon="-2.79829">
        <ele>13.4</ele>
        <time>2025-01-28T09:04:08Z</time>
      </trkpt>
      <trkpt lat="47.6474" lon="-2.79828">
        <ele>13.4</ele>
        <time>2025-01-28T09:04:09Z</time>
      </trkpt>
      <trkpt lat="47.64738" lon="-2.79827">
        <ele>13.5</ele>
        <time>2025-01-28T09:04:10Z</time>
      </trkpt>
      <trkpt lat="47.64737" lon="-2.79826">
        <ele>13.5</ele>
        <time>2025-01-28T09:04:11Z</time>
      </trkpt>
      <trkpt lat="47.64736" lon="-2.79826">
        <ele>13.6</ele>
        <time>2025-01-28T09:04:12Z</time>
      </trkpt>
      <trkpt lat="47.64734" lon="-2.79825">
        <ele>13.7</ele>
        <time>2025-01-28T09:04:13Z</time>
      </trkpt>
      <trkpt lat="47.64734" lon="-2.79824">
        <ele>13.7</ele>
        <time>2025-01-28T09:04:14Z</time>
      </trkpt>
      <trkpt lat="47.64732" lon="-2.79823">
        <ele>13.8</ele>
        <time>2025-01-28T09:04:15Z</time>
      </trkpt>
      <trkpt lat="47.64731" lon="-2.79822">
        <ele>13.9</ele>
        <time>2025-01-28T09:04:16Z</time>
      </trkpt>
      <trkpt lat="47.6473" lon="-2.79821">
        <ele>13.9</ele>
        <time>2025-01-28T09:04:17Z</time>
      </trkpt>
      <trkpt lat="47.64729" lon="-2.79819">
        <ele>13.8</ele>
        <time>2025-01-28T09:04:18Z</time>
      </trkpt>
      <trkpt lat="47.64728" lon="-2.79817">
        <ele>13.8</ele>
        <time>2025-01-28T09:04:19Z</time>
      </trkpt>
      <trkpt lat="47.64727" lon="-2.79815">
        <ele>13.9</ele>
        <time>2025-01-28T09:04:20Z</time>
      </trkpt>
      <trkpt lat="47.64726" lon="-2.79813">
        <ele>13.9</ele>
        <time>2025-01-28T09:04:21Z</time>
      </trkpt>
      <trkpt lat="47.64726" lon="-2.79811">
        <ele>13.8</ele>
        <time>2025-01-28T09:04:22Z</time>
      </trkpt>
      <trkpt lat="47.64725" lon="-2.79808">
        <ele>13.8</ele>
        <time>2025-01-28T09:04:23Z</time>
      </trkpt>
      <trkpt lat="47.64725" lon="-2.79806">
        <ele>13.7</ele>
        <time>2025-01-28T09:04:24Z</time>
      </trkpt>
      <trkpt lat="47.64725" lon="-2.79804">
        <ele>13.6</ele>
        <time>2025-01-28T09:04:25Z</time>
      </trkpt>
      <trkpt lat="47.64724" lon="-2.79802">
        <ele>13.6</ele>
        <time>2025-01-28T09:04:26Z</time>
      </trkpt>
      <trkpt lat="47.64723" lon="-2.79801">
        <ele>13.6</ele>
        <time>2025-01-28T09:04:27Z</time>
      </trkpt>
      <trkpt lat="47.64722" lon="-2.798">
        <ele>13.6</ele>
        <time>2025-01-28T09:04:28Z</time>
      </trkpt>
      <trkpt lat="47.64721" lon="-2.79798">
        <ele>13.6</ele>
        <time>2025-01-28T09:04:29Z</time>
      </trkpt>
      <trkpt lat="47.64721" lon="-2.79796">
        <ele>13.5</ele>
        <time>2025-01-28T09:04:30Z</time>
      </trkpt>
      <trkpt lat="47.6472" lon="-2.79795">
        <ele>13.5</ele>
        <time>2025-01-28T09:04:31Z</time>
      </trkpt>
      <trkpt lat="47.64719" lon="-2.79794">
        <ele>13.5</ele>
        <time>2025-01-28T09:04:32Z</time>
      </trkpt>
      <trkpt lat="47.64718" lon="-2.79794">
        <ele>13.6</ele>
        <time>2025-01-28T09:04:33Z</time>
      </trkpt>
      <trkpt lat="47.64717" lon="-2.79793">
        <ele>13.7</ele>
        <time>2025-01-28T09:04:34Z</time>
      </trkpt>
      <trkpt lat="47.64716" lon="-2.79793">
        <ele>13.7</ele>
        <time>2025-01-28T09:04:35Z</time>
      </trkpt>
      <trkpt lat="47.64715" lon="-2.79793">
        <ele>13.9</ele>
        <time>2025-01-28T09:04:36Z</time>
      </trkpt>
      <trkpt lat="47.64714" lon="-2.79792">
        <ele>13.9</ele>
        <time>2025-01-28T09:04:37Z</time>
      </trkpt>
      <trkpt lat="47.64714" lon="-2.79791">
        <ele>13.9</ele>
        <time>2025-01-28T09:04:38Z</time>
      </trkpt>
      <trkpt lat="47.64713" lon="-2.79789">
        <ele>13.8</ele>
        <time>2025-01-28T09:04:39Z</time>
      </trkpt>
      <trkpt lat="47.64712" lon="-2.79788">
        <ele>13.8</ele>
        <time>2025-01-28T09:04:40Z</time>
      </trkpt>
      <trkpt lat="47.64711" lon="-2.79787">
        <ele>13.8</ele>
        <time>2025-01-28T09:04:41Z</time>
      </trkpt>
      <trkpt lat="47.6471" lon="-2.79785">
        <ele>13.8</ele>
        <time>2025-01-28T09:04:42Z</time>
      </trkpt>
      <trkpt lat="47.64709" lon="-2.79784">
        <ele>13.9</ele>
        <time>2025-01-28T09:04:43Z</time>
      </trkpt>
      <trkpt lat="47.64708" lon="-2.79784">
        <ele>14</ele>
        <time>2025-01-28T09:04:44Z</time>
      </trkpt>
      <trkpt lat="47.64707" lon="-2.79783">
        <ele>14</ele>
        <time>2025-01-28T09:04:45Z</time>
      </trkpt>
      <trkpt lat="47.64706" lon="-2.79782">
        <ele>14.1</ele>
        <time>2025-01-28T09:04:46Z</time>
      </trkpt>
      <trkpt lat="47.64705" lon="-2.79781">
        <ele>14.2</ele>
        <time>2025-01-28T09:04:47Z</time>
      </trkpt>
      <trkpt lat="47.64704" lon="-2.7978">
        <ele>14.2</ele>
        <time>2025-01-28T09:04:48Z</time>
      </trkpt>
      <trkpt lat="47.64703" lon="-2.79779">
        <ele>14.2</ele>
        <time>2025-01-28T09:04:49Z</time>
      </trkpt>
      <trkpt lat="47.64702" lon="-2.79777">
        <ele>14.1</ele>
        <time>2025-01-28T09:04:50Z</time>
      </trkpt>
      <trkpt lat="47.64702" lon="-2.79775">
        <ele>14.1</ele>
        <time>2025-01-28T09:04:51Z</time>
      </trkpt>
      <trkpt lat="47.64701" lon="-2.79773">
        <ele>14.2</ele>
        <time>2025-01-28T09:04:52Z</time>
      </trkpt>
      <trkpt lat="47.647" lon="-2.79772">
        <ele>14.3</ele>
        <time>2025-01-28T09:04:53Z</time>
      </trkpt>
      <trkpt lat="47.64698" lon="-2.79771">
        <ele>14.4</ele>
        <time>2025-01-28T09:04:54Z</time>
      </trkpt>
      <trkpt lat="47.64697" lon="-2.7977">
        <ele>14.5</ele>
        <time>2025-01-28T09:04:55Z</time>
      </trkpt>
      <trkpt lat="47.64696" lon="-2.79769">
        <ele>14.5</ele>
        <time>2025-01-28T09:04:56Z</time>
      </trkpt>
      <trkpt lat="47.64695" lon="-2.79768">
        <ele>14.6</ele>
        <time>2025-01-28T09:04:57Z</time>
      </trkpt>
      <trkpt lat="47.64694" lon="-2.79767">
        <ele>14.7</ele>
        <time>2025-01-28T09:04:58Z</time>
      </trkpt>
      <trkpt lat="47.64693" lon="-2.79765">
        <ele>14.7</ele>
        <time>2025-01-28T09:04:59Z</time>
      </trkpt>
      <trkpt lat="47.64692" lon="-2.79764">
        <ele>14.7</ele>
        <time>2025-01-28T09:05:00Z</time>
      </trkpt>
      <trkpt lat="47.64691" lon="-2.79763">
        <ele>14.8</ele>
        <time>2025-01-28T09:05:01Z</time>
      </trkpt>
      <trkpt lat="47.64689" lon="-2.79762">
        <ele>14.8</ele>
        <time>2025-01-28T09:05:02Z</time>
      </trkpt>
      <trkpt lat="47.64688" lon="-2.79761">
        <ele>14.8</ele>
        <time>2025-01-28T09:05:03Z</time>
      </trkpt>
      <trkpt lat="47.64688" lon="-2.7976">
        <ele>14.8</ele>
        <time>2025-01-28T09:05:04Z</time>
      </trkpt>
      <trkpt lat="47.64687" lon="-2.79759">
        <ele>14.8</ele>
        <time>2025-01-28T09:05:05Z</time>
      </trkpt>
      <trkpt lat="47.64686" lon="-2.79757">
        <ele>14.9</ele>
        <time>2025-01-28T09:05:06Z</time>
      </trkpt>
      <trkpt lat="47.64684" lon="-2.79757">
        <ele>15</ele>
        <time>2025-01-28T09:05:07Z</time>
      </trkpt>
      <trkpt lat="47.64683" lon="-2.79756">
        <ele>15</ele>
        <time>2025-01-28T09:05:08Z</time>
      </trkpt>
      <trkpt lat="47.64682" lon="-2.79755">
        <ele>15.1</ele>
        <time>2025-01-28T09:05:09Z</time>
      </trkpt>
      <trkpt lat="47.64681" lon="-2.79754">
        <ele>15.1</ele>
        <time>2025-01-28T09:05:10Z</time>
      </trkpt>
      <trkpt lat="47.64681" lon="-2.79753">
        <ele>15.1</ele>
        <time>2025-01-28T09:05:11Z</time>
      </trkpt>
      <trkpt lat="47.6468" lon="-2.79752">
        <ele>15.1</ele>
        <time>2025-01-28T09:05:12Z</time>
      </trkpt>
      <trkpt lat="47.64679" lon="-2.7975">
        <ele>15.1</ele>
        <time>2025-01-28T09:05:13Z</time>
      </trkpt>
      <trkpt lat="47.64678" lon="-2.79749">
        <ele>15.2</ele>
        <time>2025-01-28T09:05:14Z</time>
      </trkpt>
      <trkpt lat="47.64677" lon="-2.79748">
        <ele>15.2</ele>
        <time>2025-01-28T09:05:15Z</time>
      </trkpt>
      <trkpt lat="47.64676" lon="-2.79747">
        <ele>15.3</ele>
        <time>2025-01-28T09:05:16Z</time>
      </trkpt>
      <trkpt lat="47.64675" lon="-2.79746">
        <ele>15.3</ele>
        <time>2025-01-28T09:05:17Z</time>
      </trkpt>
      <trkpt lat="47.64674" lon="-2.79745">
        <ele>15.4</ele>
        <time>2025-01-28T09:05:18Z</time>
      </trkpt>
      <trkpt lat="47.64673" lon="-2.79744">
        <ele>15.5</ele>
        <time>2025-01-28T09:05:19Z</time>
      </trkpt>
      <trkpt lat="47.64672" lon="-2.79743">
        <ele>15.6</ele>
        <time>2025-01-28T09:05:20Z</time>
      </trkpt>
      <trkpt lat="47.64671" lon="-2.79741">
        <ele>15.6</ele>
        <time>2025-01-28T09:05:21Z</time>
      </trkpt>
      <trkpt lat="47.6467" lon="-2.7974">
        <ele>15.7</ele>
        <time>2025-01-28T09:05:22Z</time>
      </trkpt>
      <trkpt lat="47.64669" lon="-2.79739">
        <ele>15.8</ele>
        <time>2025-01-28T09:05:23Z</time>
      </trkpt>
      <trkpt lat="47.64668" lon="-2.79738">
        <ele>15.9</ele>
        <time>2025-01-28T09:05:24Z</time>
      </trkpt>
      <trkpt lat="47.64667" lon="-2.79737">
        <ele>16</ele>
        <time>2025-01-28T09:05:25Z</time>
      </trkpt>
      <trkpt lat="47.64666" lon="-2.79736">
        <ele>16.1</ele>
        <time>2025-01-28T09:05:26Z</time>
      </trkpt>
      <trkpt lat="47.64665" lon="-2.79735">
        <ele>16.2</ele>
        <time>2025-01-28T09:05:27Z</time>
      </trkpt>
      <trkpt lat="47.64664" lon="-2.79733">
        <ele>16.3</ele>
        <time>2025-01-28T09:05:28Z</time>
      </trkpt>
      <trkpt lat="47.64663" lon="-2.79732">
        <ele>16.4</ele>
        <time>2025-01-28T09:05:29Z</time>
      </trkpt>
      <trkpt lat="47.64662" lon="-2.79731">
        <ele>16.6</ele>
        <time>2025-01-28T09:05:30Z</time>
      </trkpt>
      <trkpt lat="47.64661" lon="-2.7973">
        <ele>16.7</ele>
        <time>2025-01-28T09:05:31Z</time>
      </trkpt>
      <trkpt lat="47.64659" lon="-2.79729">
        <ele>16.8</ele>
        <time>2025-01-28T09:05:32Z</time>
      </trkpt>
      <trkpt lat="47.64658" lon="-2.79728">
        <ele>16.9</ele>
        <time>2025-01-28T09:05:33Z</time>
      </trkpt>
      <trkpt lat="47.64657" lon="-2.79727">
        <ele>17</ele>
        <time>2025-01-28T09:05:34Z</time>
      </trkpt>
      <trkpt lat="47.64656" lon="-2.79726">
        <ele>17.1</ele>
        <time>2025-01-28T09:05:35Z</time>
      </trkpt>
      <trkpt lat="47.64655" lon="-2.79725">
        <ele>17.2</ele>
        <time>2025-01-28T09:05:36Z</time>
      </trkpt>
      <trkpt lat="47.64654" lon="-2.79724">
        <ele>17.3</ele>
        <time>2025-01-28T09:05:37Z</time>
      </trkpt>
      <trkpt lat="47.64654" lon="-2.79723">
        <ele>17.4</ele>
        <time>2025-01-28T09:05:38Z</time>
      </trkpt>
      <trkpt lat="47.64653" lon="-2.79722">
        <ele>17.5</ele>
        <time>2025-01-28T09:05:39Z</time>
      </trkpt>
      <trkpt lat="47.64652" lon="-2.79721">
        <ele>17.7</ele>
        <time>2025-01-28T09:05:40Z</time>
      </trkpt>
      <trkpt lat="47.64651" lon="-2.7972">
        <ele>17.8</ele>
        <time>2025-01-28T09:05:41Z</time>
      </trkpt>
      <trkpt lat="47.6465" lon="-2.79718">
        <ele>17.9</ele>
        <time>2025-01-28T09:05:42Z</time>
      </trkpt>
      <trkpt lat="47.64649" lon="-2.79717">
        <ele>18</ele>
        <time>2025-01-28T09:05:43Z</time>
      </trkpt>
      <trkpt lat="47.64648" lon="-2.79716">
        <ele>18.1</ele>
        <time>2025-01-28T09:05:44Z</time>
      </trkpt>
      <trkpt lat="47.64647" lon="-2.79715">
        <ele>18.2</ele>
        <time>2025-01-28T09:05:45Z</time>
      </trkpt>
      <trkpt lat="47.64646" lon="-2.79713">
        <ele>18.3</ele>
        <time>2025-01-28T09:05:46Z</time>
      </trkpt>
      <trkpt lat="47.64645" lon="-2.79713">
        <ele>18.4</ele>
        <time>2025-01-28T09:05:47Z</time>
      </trkpt>
      <trkpt lat="47.64644" lon="-2.79712">
        <ele>18.5</ele>
        <time>2025-01-28T09:05:48Z</time>
      </trkpt>
      <trkpt lat="47.64643" lon="-2.79712">
        <ele>18.6</ele>
        <time>2025-01-28T09:05:49Z</time>
      </trkpt>
      <trkpt lat="47.64642" lon="-2.79711">
        <ele>18.7</ele>
        <time>2025-01-28T09:05:50Z</time>
      </trkpt>
      <trkpt lat="47.6464" lon="-2.7971">
        <ele>18.9</ele>
        <time>2025-01-28T09:05:51Z</time>
      </trkpt>
      <trkpt lat="47.64639" lon="-2.79709">
        <ele>19</ele>
        <time>2025-01-28T09:05:52Z</time>
      </trkpt>
      <trkpt lat="47.64637" lon="-2.79707">
        <ele>19.1</ele>
        <time>2025-01-28T09:05:53Z</time>
      </trkpt>
      <trkpt lat="47.64636" lon="-2.79705">
        <ele>19.1</ele>
        <time>2025-01-28T09:05:54Z</time>
      </trkpt>
      <trkpt lat="47.64635" lon="-2.79703">
        <ele>19.1</ele>
        <time>2025-01-28T09:05:55Z</time>
      </trkpt>
      <trkpt lat="47.64635" lon="-2.79702">
        <ele>19.2</ele>
        <time>2025-01-28T09:05:56Z</time>
      </trkpt>
      <trkpt lat="47.64634" lon="-2.797">
        <ele>19.2</ele>
        <time>2025-01-28T09:05:57Z</time>
      </trkpt>
      <trkpt lat="47.64634" lon="-2.79699">
        <ele>19.2</ele>
        <time>2025-01-28T09:05:58Z</time>
      </trkpt>
      <trkpt lat="47.64633" lon="-2.79698">
        <ele>19.2</ele>
        <time>2025-01-28T09:05:59Z</time>
      </trkpt>
      <trkpt lat="47.64633" lon="-2.79697">
        <ele>19.2</ele>
        <time>2025-01-28T09:06:00Z</time>
      </trkpt>
      <trkpt lat="47.64632" lon="-2.79696">
        <ele>19.3</ele>
        <time>2025-01-28T09:06:01Z</time>
      </trkpt>
      <trkpt lat="47.64631" lon="-2.79695">
        <ele>19.3</ele>
        <time>2025-01-28T09:06:02Z</time>
      </trkpt>
      <trkpt lat="47.6463" lon="-2.79694">
        <ele>19.3</ele>
        <time>2025-01-28T09:06:03Z</time>
      </trkpt>
      <trkpt lat="47.64628" lon="-2.79694">
        <ele>19.4</ele>
        <time>2025-01-28T09:06:04Z</time>
      </trkpt>
      <trkpt lat="47.64627" lon="-2.79693">
        <ele>19.4</ele>
        <time>2025-01-28T09:06:05Z</time>
      </trkpt>
      <trkpt lat="47.64626" lon="-2.79693">
        <ele>19.4</ele>
        <time>2025-01-28T09:06:06Z</time>
      </trkpt>
      <trkpt lat="47.64625" lon="-2.79692">
        <ele>19.4</ele>
        <time>2025-01-28T09:06:07Z</time>
      </trkpt>
      <trkpt lat="47.64624" lon="-2.79691">
        <ele>19.4</ele>
        <time>2025-01-28T09:06:08Z</time>
      </trkpt>
      <trkpt lat="47.64623" lon="-2.7969">
        <ele>19.4</ele>
        <time>2025-01-28T09:06:09Z</time>
      </trkpt>
      <trkpt lat="47.64622" lon="-2.7969">
        <ele>19.4</ele>
        <time>2025-01-28T09:06:10Z</time>
      </trkpt>
      <trkpt lat="47.64621" lon="-2.79689">
        <ele>19.4</ele>
        <time>2025-01-28T09:06:11Z</time>
      </trkpt>
      <trkpt lat="47.6462" lon="-2.79688">
        <ele>19.4</ele>
        <time>2025-01-28T09:06:12Z</time>
      </trkpt>
      <trkpt lat="47.64619" lon="-2.79687">
        <ele>19.4</ele>
        <time>2025-01-28T09:06:13Z</time>
      </trkpt>
      <trkpt lat="47.64618" lon="-2.79686">
        <ele>19.4</ele>
        <time>2025-01-28T09:06:14Z</time>
      </trkpt>
      <trkpt lat="47.64617" lon="-2.79685">
        <ele>19.4</ele>
        <time>2025-01-28T09:06:15Z</time>
      </trkpt>
      <trkpt lat="47.64617" lon="-2.79683">
        <ele>19.4</ele>
        <time>2025-01-28T09:06:16Z</time>
      </trkpt>
      <trkpt lat="47.64616" lon="-2.79682">
        <ele>19.4</ele>
        <time>2025-01-28T09:06:17Z</time>
      </trkpt>
      <trkpt lat="47.64615" lon="-2.7968">
        <ele>19.3</ele>
        <time>2025-01-28T09:06:18Z</time>
      </trkpt>
      <trkpt lat="47.64614" lon="-2.79679">
        <ele>19.3</ele>
        <time>2025-01-28T09:06:19Z</time>
      </trkpt>
      <trkpt lat="47.64613" lon="-2.79678">
        <ele>19.3</ele>
        <time>2025-01-28T09:06:20Z</time>
      </trkpt>
      <trkpt lat="47.64612" lon="-2.79677">
        <ele>19.3</ele>
        <time>2025-01-28T09:06:21Z</time>
      </trkpt>
      <trkpt lat="47.64611" lon="-2.79676">
        <ele>19.3</ele>
        <time>2025-01-28T09:06:22Z</time>
      </trkpt>
      <trkpt lat="47.6461" lon="-2.79675">
        <ele>19.4</ele>
        <time>2025-01-28T09:06:23Z</time>
      </trkpt>
      <trkpt lat="47.64609" lon="-2.79674">
        <ele>19.4</ele>
        <time>2025-01-28T09:06:24Z</time>
      </trkpt>
      <trkpt lat="47.64607" lon="-2.79673">
        <ele>19.4</ele>
        <time>2025-01-28T09:06:25Z</time>
      </trkpt>
      <trkpt lat="47.64606" lon="-2.79672">
        <ele>19.4</ele>
        <time>2025-01-28T09:06:26Z</time>
      </trkpt>
      <trkpt lat="47.64605" lon="-2.79671">
        <ele>19.4</ele>
        <time>2025-01-28T09:06:27Z</time>
      </trkpt>
      <trkpt lat="47.64604" lon="-2.7967">
        <ele>19.4</ele>
        <time>2025-01-28T09:06:28Z</time>
      </trkpt>
      <trkpt lat="47.64603" lon="-2.79669">
        <ele>19.4</ele>
        <time>2025-01-28T09:06:29Z</time>
      </trkpt>
      <trkpt lat="47.64602" lon="-2.79668">
        <ele>19.4</ele>
        <time>2025-01-28T09:06:30Z</time>
      </trkpt>
      <trkpt lat="47.64601" lon="-2.79667">
        <ele>19.4</ele>
        <time>2025-01-28T09:06:31Z</time>
      </trkpt>
      <trkpt lat="47.646" lon="-2.79666">
        <ele>19.4</ele>
        <time>2025-01-28T09:06:32Z</time>
      </trkpt>
      <trkpt lat="47.64598" lon="-2.79666">
        <ele>19.4</ele>
        <time>2025-01-28T09:06:33Z</time>
      </trkpt>
      <trkpt lat="47.64597" lon="-2.79665">
        <ele>19.5</ele>
        <time>2025-01-28T09:06:34Z</time>
      </trkpt>
      <trkpt lat="47.64596" lon="-2.79664">
        <ele>19.5</ele>
        <time>2025-01-28T09:06:35Z</time>
      </trkpt>
      <trkpt lat="47.64595" lon="-2.79663">
        <ele>19.5</ele>
        <time>2025-01-28T09:06:36Z</time>
      </trkpt>
      <trkpt lat="47.64594" lon="-2.79662">
        <ele>19.4</ele>
        <time>2025-01-28T09:06:37Z</time>
      </trkpt>
      <trkpt lat="47.64593" lon="-2.79661">
        <ele>19.4</ele>
        <time>2025-01-28T09:06:38Z</time>
      </trkpt>
      <trkpt lat="47.64591" lon="-2.7966">
        <ele>19.5</ele>
        <time>2025-01-28T09:06:39Z</time>
      </trkpt>
      <trkpt lat="47.6459" lon="-2.79659">
        <ele>19.5</ele>
        <time>2025-01-28T09:06:40Z</time>
      </trkpt>
      <trkpt lat="47.64589" lon="-2.79659">
        <ele>19.5</ele>
        <time>2025-01-28T09:06:41Z</time>
      </trkpt>
      <trkpt lat="47.64588" lon="-2.79658">
        <ele>19.5</ele>
        <time>2025-01-28T09:06:42Z</time>
      </trkpt>
      <trkpt lat="47.64587" lon="-2.79656">
        <ele>19.5</ele>
        <time>2025-01-28T09:06:43Z</time>
      </trkpt>
      <trkpt lat="47.64586" lon="-2.79655">
        <ele>19.5</ele>
        <time>2025-01-28T09:06:44Z</time>
      </trkpt>
      <trkpt lat="47.64585" lon="-2.79654">
        <ele>19.5</ele>
        <time>2025-01-28T09:06:45Z</time>
      </trkpt>
      <trkpt lat="47.64584" lon="-2.79652">
        <ele>19.5</ele>
        <time>2025-01-28T09:06:46Z</time>
      </trkpt>
      <trkpt lat="47.64583" lon="-2.79651">
        <ele>19.5</ele>
        <time>2025-01-28T09:06:47Z</time>
      </trkpt>
      <trkpt lat="47.64582" lon="-2.7965">
        <ele>19.5</ele>
        <time>2025-01-28T09:06:48Z</time>
      </trkpt>
      <trkpt lat="47.64581" lon="-2.79649">
        <ele>19.5</ele>
        <time>2025-01-28T09:06:49Z</time>
      </trkpt>
      <trkpt lat="47.64579" lon="-2.79648">
        <ele>19.6</ele>
        <time>2025-01-28T09:06:50Z</time>
      </trkpt>
      <trkpt lat="47.64578" lon="-2.79647">
        <ele>19.6</ele>
        <time>2025-01-28T09:06:51Z</time>
      </trkpt>
      <trkpt lat="47.64577" lon="-2.79646">
        <ele>19.7</ele>
        <time>2025-01-28T09:06:52Z</time>
      </trkpt>
      <trkpt lat="47.64576" lon="-2.79645">
        <ele>19.8</ele>
        <time>2025-01-28T09:06:53Z</time>
      </trkpt>
      <trkpt lat="47.64575" lon="-2.79644">
        <ele>19.8</ele>
        <time>2025-01-28T09:06:54Z</time>
      </trkpt>
      <trkpt lat="47.64574" lon="-2.79643">
        <ele>19.8</ele>
        <time>2025-01-28T09:06:55Z</time>
      </trkpt>
      <trkpt lat="47.64573" lon="-2.79643">
        <ele>19.9</ele>
        <time>2025-01-28T09:06:56Z</time>
      </trkpt>
      <trkpt lat="47.64572" lon="-2.79641">
        <ele>19.9</ele>
        <time>2025-01-28T09:06:57Z</time>
      </trkpt>
      <trkpt lat="47.6457" lon="-2.7964">
        <ele>20</ele>
        <time>2025-01-28T09:06:58Z</time>
      </trkpt>
      <trkpt lat="47.64569" lon="-2.79639">
        <ele>20</ele>
        <time>2025-01-28T09:06:59Z</time>
      </trkpt>
      <trkpt lat="47.64568" lon="-2.79638">
        <ele>20.1</ele>
        <time>2025-01-28T09:07:00Z</time>
      </trkpt>
      <trkpt lat="47.64567" lon="-2.79636">
        <ele>20.1</ele>
        <time>2025-01-28T09:07:01Z</time>
      </trkpt>
      <trkpt lat="47.64566" lon="-2.79635">
        <ele>20.2</ele>
        <time>2025-01-28T09:07:02Z</time>
      </trkpt>
      <trkpt lat="47.64565" lon="-2.79633">
        <ele>20.2</ele>
        <time>2025-01-28T09:07:03Z</time>
      </trkpt>
      <trkpt lat="47.64564" lon="-2.79632">
        <ele>20.2</ele>
        <time>2025-01-28T09:07:04Z</time>
      </trkpt>
      <trkpt lat="47.64563" lon="-2.79631">
        <ele>20.3</ele>
        <time>2025-01-28T09:07:05Z</time>
      </trkpt>
      <trkpt lat="47.64562" lon="-2.79629">
        <ele>20.3</ele>
        <time>2025-01-28T09:07:06Z</time>
      </trkpt>
      <trkpt lat="47.64561" lon="-2.79628">
        <ele>20.3</ele>
        <time>2025-01-28T09:07:07Z</time>
      </trkpt>
      <trkpt lat="47.64559" lon="-2.79628">
        <ele>20.4</ele>
        <time>2025-01-28T09:07:08Z</time>
      </trkpt>
      <trkpt lat="47.64558" lon="-2.79627">
        <ele>20.4</ele>
        <time>2025-01-28T09:07:09Z</time>
      </trkpt>
      <trkpt lat="47.64557" lon="-2.79627">
        <ele>20.5</ele>
        <time>2025-01-28T09:07:10Z</time>
      </trkpt>
      <trkpt lat="47.64556" lon="-2.79627">
        <ele>20.6</ele>
        <time>2025-01-28T09:07:11Z</time>
      </trkpt>
      <trkpt lat="47.64554" lon="-2.79627">
        <ele>20.6</ele>
        <time>2025-01-28T09:07:12Z</time>
      </trkpt>
      <trkpt lat="47.64553" lon="-2.79626">
        <ele>20.6</ele>
        <time>2025-01-28T09:07:13Z</time>
      </trkpt>
      <trkpt lat="47.64552" lon="-2.79625">
        <ele>20.6</ele>
        <time>2025-01-28T09:07:14Z</time>
      </trkpt>
      <trkpt lat="47.64551" lon="-2.79625">
        <ele>20.7</ele>
        <time>2025-01-28T09:07:15Z</time>
      </trkpt>
      <trkpt lat="47.64549" lon="-2.79624">
        <ele>20.7</ele>
        <time>2025-01-28T09:07:16Z</time>
      </trkpt>
      <trkpt lat="47.64548" lon="-2.79623">
        <ele>20.7</ele>
        <time>2025-01-28T09:07:17Z</time>
      </trkpt>
      <trkpt lat="47.64547" lon="-2.79622">
        <ele>20.7</ele>
        <time>2025-01-28T09:07:18Z</time>
      </trkpt>
      <trkpt lat="47.64546" lon="-2.79621">
        <ele>20.7</ele>
        <time>2025-01-28T09:07:19Z</time>
      </trkpt>
      <trkpt lat="47.64545" lon="-2.7962">
        <ele>20.7</ele>
        <time>2025-01-28T09:07:20Z</time>
      </trkpt>
      <trkpt lat="47.64544" lon="-2.79619">
        <ele>20.7</ele>
        <time>2025-01-28T09:07:21Z</time>
      </trkpt>
      <trkpt lat="47.64543" lon="-2.79617">
        <ele>20.7</ele>
        <time>2025-01-28T09:07:22Z</time>
      </trkpt>
      <trkpt lat="47.64542" lon="-2.79617">
        <ele>20.7</ele>
        <time>2025-01-28T09:07:23Z</time>
      </trkpt>
      <trkpt lat="47.64541" lon="-2.79616">
        <ele>20.7</ele>
        <time>2025-01-28T09:07:24Z</time>
      </trkpt>
      <trkpt lat="47.6454" lon="-2.79615">
        <ele>20.7</ele>
        <time>2025-01-28T09:07:25Z</time>
      </trkpt>
      <trkpt lat="47.64539" lon="-2.79614">
        <ele>20.7</ele>
        <time>2025-01-28T09:07:26Z</time>
      </trkpt>
      <trkpt lat="47.64538" lon="-2.79613">
        <ele>20.7</ele>
        <time>2025-01-28T09:07:27Z</time>
      </trkpt>
      <trkpt lat="47.64537" lon="-2.79612">
        <ele>20.7</ele>
        <time>2025-01-28T09:07:28Z</time>
      </trkpt>
      <trkpt lat="47.64536" lon="-2.79611">
        <ele>20.7</ele>
        <time>2025-01-28T09:07:29Z</time>
      </trkpt>
      <trkpt lat="47.64535" lon="-2.7961">
        <ele>20.7</ele>
        <time>2025-01-28T09:07:30Z</time>
      </trkpt>
      <trkpt lat="47.64534" lon="-2.79609">
        <ele>20.8</ele>
        <time>2025-01-28T09:07:31Z</time>
      </trkpt>
      <trkpt lat="47.64533" lon="-2.79608">
        <ele>20.8</ele>
        <time>2025-01-28T09:07:32Z</time>
      </trkpt>
      <trkpt lat="47.64532" lon="-2.79606">
        <ele>20.9</ele>
        <time>2025-01-28T09:07:33Z</time>
      </trkpt>
      <trkpt lat="47.64531" lon="-2.79605">
        <ele>20.9</ele>
        <time>2025-01-28T09:07:34Z</time>
      </trkpt>
      <trkpt lat="47.64529" lon="-2.79604">
        <ele>20.9</ele>
        <time>2025-01-28T09:07:35Z</time>
      </trkpt>
      <trkpt lat="47.64528" lon="-2.79604">
        <ele>21</ele>
        <time>2025-01-28T09:07:36Z</time>
      </trkpt>
      <trkpt lat="47.64527" lon="-2.79603">
        <ele>21</ele>
        <time>2025-01-28T09:07:37Z</time>
      </trkpt>
      <trkpt lat="47.64526" lon="-2.79602">
        <ele>21.1</ele>
        <time>2025-01-28T09:07:38Z</time>
      </trkpt>
      <trkpt lat="47.64524" lon="-2.79601">
        <ele>21.1</ele>
        <time>2025-01-28T09:07:39Z</time>
      </trkpt>
      <trkpt lat="47.64523" lon="-2.79601">
        <ele>21.1</ele>
        <time>2025-01-28T09:07:40Z</time>
      </trkpt>
      <trkpt lat="47.64522" lon="-2.796">
        <ele>21.1</ele>
        <time>2025-01-28T09:07:41Z</time>
      </trkpt>
      <trkpt lat="47.64521" lon="-2.79599">
        <ele>21.1</ele>
        <time>2025-01-28T09:07:42Z</time>
      </trkpt>
      <trkpt lat="47.6452" lon="-2.79599">
        <ele>21.2</ele>
        <time>2025-01-28T09:07:43Z</time>
      </trkpt>
      <trkpt lat="47.64519" lon="-2.79598">
        <ele>21.2</ele>
        <time>2025-01-28T09:07:44Z</time>
      </trkpt>
      <trkpt lat="47.64518" lon="-2.79597">
        <ele>21.2</ele>
        <time>2025-01-28T09:07:45Z</time>
      </trkpt>
      <trkpt lat="47.64517" lon="-2.79595">
        <ele>21.2</ele>
        <time>2025-01-28T09:07:46Z</time>
      </trkpt>
      <trkpt lat="47.64515" lon="-2.79595">
        <ele>21.2</ele>
        <time>2025-01-28T09:07:47Z</time>
      </trkpt>
      <trkpt lat="47.64514" lon="-2.79594">
        <ele>21.2</ele>
        <time>2025-01-28T09:07:48Z</time>
      </trkpt>
      <trkpt lat="47.64514" lon="-2.79592">
        <ele>21.2</ele>
        <time>2025-01-28T09:07:49Z</time>
      </trkpt>
      <trkpt lat="47.64513" lon="-2.79591">
        <ele>21.1</ele>
        <time>2025-01-28T09:07:50Z</time>
      </trkpt>
      <trkpt lat="47.64511" lon="-2.7959">
        <ele>21.1</ele>
        <time>2025-01-28T09:07:51Z</time>
      </trkpt>
      <trkpt lat="47.6451" lon="-2.79589">
        <ele>21.1</ele>
        <time>2025-01-28T09:07:52Z</time>
      </trkpt>
      <trkpt lat="47.64509" lon="-2.79588">
        <ele>21.1</ele>
        <time>2025-01-28T09:07:53Z</time>
      </trkpt>
      <trkpt lat="47.64508" lon="-2.79587">
        <ele>21.1</ele>
        <time>2025-01-28T09:07:54Z</time>
      </trkpt>
      <trkpt lat="47.64507" lon="-2.79586">
        <ele>21.1</ele>
        <time>2025-01-28T09:07:55Z</time>
      </trkpt>
      <trkpt lat="47.64506" lon="-2.79585">
        <ele>21</ele>
        <time>2025-01-28T09:07:56Z</time>
      </trkpt>
      <trkpt lat="47.64505" lon="-2.79584">
        <ele>21</ele>
        <time>2025-01-28T09:07:57Z</time>
      </trkpt>
      <trkpt lat="47.64504" lon="-2.79583">
        <ele>21</ele>
        <time>2025-01-28T09:07:58Z</time>
      </trkpt>
      <trkpt lat="47.64503" lon="-2.79582">
        <ele>21</ele>
        <time>2025-01-28T09:07:59Z</time>
      </trkpt>
      <trkpt lat="47.64502" lon="-2.7958">
        <ele>21</ele>
        <time>2025-01-28T09:08:00Z</time>
      </trkpt>
      <trkpt lat="47.64501" lon="-2.79579">
        <ele>21</ele>
        <time>2025-01-28T09:08:01Z</time>
      </trkpt>
      <trkpt lat="47.645" lon="-2.79579">
        <ele>21</ele>
        <time>2025-01-28T09:08:02Z</time>
      </trkpt>
      <trkpt lat="47.64499" lon="-2.79577">
        <ele>21</ele>
        <time>2025-01-28T09:08:03Z</time>
      </trkpt>
      <trkpt lat="47.64497" lon="-2.79576">
        <ele>21</ele>
        <time>2025-01-28T09:08:04Z</time>
      </trkpt>
      <trkpt lat="47.64496" lon="-2.79576">
        <ele>21</ele>
        <time>2025-01-28T09:08:05Z</time>
      </trkpt>
      <trkpt lat="47.64495" lon="-2.79575">
        <ele>20.9</ele>
        <time>2025-01-28T09:08:06Z</time>
      </trkpt>
      <trkpt lat="47.64494" lon="-2.79574">
        <ele>20.9</ele>
        <time>2025-01-28T09:08:07Z</time>
      </trkpt>
      <trkpt lat="47.64493" lon="-2.79574">
        <ele>20.9</ele>
        <time>2025-01-28T09:08:08Z</time>
      </trkpt>
      <trkpt lat="47.64491" lon="-2.79573">
        <ele>20.9</ele>
        <time>2025-01-28T09:08:09Z</time>
      </trkpt>
      <trkpt lat="47.6449" lon="-2.79572">
        <ele>20.9</ele>
        <time>2025-01-28T09:08:10Z</time>
      </trkpt>
      <trkpt lat="47.64489" lon="-2.79571">
        <ele>20.8</ele>
        <time>2025-01-28T09:08:11Z</time>
      </trkpt>
      <trkpt lat="47.64487" lon="-2.79571">
        <ele>20.8</ele>
        <time>2025-01-28T09:08:12Z</time>
      </trkpt>
      <trkpt lat="47.64486" lon="-2.79569">
        <ele>20.8</ele>
        <time>2025-01-28T09:08:13Z</time>
      </trkpt>
      <trkpt lat="47.64485" lon="-2.79568">
        <ele>20.7</ele>
        <time>2025-01-28T09:08:14Z</time>
      </trkpt>
      <trkpt lat="47.64484" lon="-2.79567">
        <ele>20.7</ele>
        <time>2025-01-28T09:08:15Z</time>
      </trkpt>
      <trkpt lat="47.64483" lon="-2.79566">
        <ele>20.6</ele>
        <time>2025-01-28T09:08:16Z</time>
      </trkpt>
      <trkpt lat="47.64482" lon="-2.79565">
        <ele>20.6</ele>
        <time>2025-01-28T09:08:17Z</time>
      </trkpt>
      <trkpt lat="47.64481" lon="-2.79564">
        <ele>20.5</ele>
        <time>2025-01-28T09:08:18Z</time>
      </trkpt>
      <trkpt lat="47.6448" lon="-2.79563">
        <ele>20.5</ele>
        <time>2025-01-28T09:08:19Z</time>
      </trkpt>
      <trkpt lat="47.64479" lon="-2.79562">
        <ele>20.4</ele>
        <time>2025-01-28T09:08:20Z</time>
      </trkpt>
      <trkpt lat="47.64477" lon="-2.79561">
        <ele>20.3</ele>
        <time>2025-01-28T09:08:21Z</time>
      </trkpt>
      <trkpt lat="47.64476" lon="-2.79561">
        <ele>20.3</ele>
        <time>2025-01-28T09:08:22Z</time>
      </trkpt>
      <trkpt lat="47.64474" lon="-2.7956">
        <ele>20.2</ele>
        <time>2025-01-28T09:08:23Z</time>
      </trkpt>
      <trkpt lat="47.64473" lon="-2.79558">
        <ele>20.1</ele>
        <time>2025-01-28T09:08:24Z</time>
      </trkpt>
      <trkpt lat="47.64472" lon="-2.79557">
        <ele>20.1</ele>
        <time>2025-01-28T09:08:25Z</time>
      </trkpt>
      <trkpt lat="47.64471" lon="-2.79557">
        <ele>20</ele>
        <time>2025-01-28T09:08:26Z</time>
      </trkpt>
      <trkpt lat="47.6447" lon="-2.79556">
        <ele>19.9</ele>
        <time>2025-01-28T09:08:27Z</time>
      </trkpt>
      <trkpt lat="47.64468" lon="-2.79555">
        <ele>19.8</ele>
        <time>2025-01-28T09:08:28Z</time>
      </trkpt>
      <trkpt lat="47.64467" lon="-2.79554">
        <ele>19.8</ele>
        <time>2025-01-28T09:08:29Z</time>
      </trkpt>
      <trkpt lat="47.64466" lon="-2.79553">
        <ele>19.7</ele>
        <time>2025-01-28T09:08:30Z</time>
      </trkpt>
      <trkpt lat="47.64465" lon="-2.79552">
        <ele>19.6</ele>
        <time>2025-01-28T09:08:31Z</time>
      </trkpt>
      <trkpt lat="47.64464" lon="-2.79551">
        <ele>19.5</ele>
        <time>2025-01-28T09:08:32Z</time>
      </trkpt>
      <trkpt lat="47.64463" lon="-2.7955">
        <ele>19.5</ele>
        <time>2025-01-28T09:08:33Z</time>
      </trkpt>
      <trkpt lat="47.64462" lon="-2.7955">
        <ele>19.4</ele>
        <time>2025-01-28T09:08:34Z</time>
      </trkpt>
      <trkpt lat="47.64461" lon="-2.79549">
        <ele>19.4</ele>
        <time>2025-01-28T09:08:35Z</time>
      </trkpt>
      <trkpt lat="47.6446" lon="-2.79548">
        <ele>19.3</ele>
        <time>2025-01-28T09:08:36Z</time>
      </trkpt>
      <trkpt lat="47.64459" lon="-2.79548">
        <ele>19.2</ele>
        <time>2025-01-28T09:08:37Z</time>
      </trkpt>
      <trkpt lat="47.64458" lon="-2.79547">
        <ele>19.2</ele>
        <time>2025-01-28T09:08:38Z</time>
      </trkpt>
      <trkpt lat="47.64457" lon="-2.79546">
        <ele>19.1</ele>
        <time>2025-01-28T09:08:39Z</time>
      </trkpt>
      <trkpt lat="47.64456" lon="-2.79545">
        <ele>19</ele>
        <time>2025-01-28T09:08:40Z</time>
      </trkpt>
      <trkpt lat="47.64455" lon="-2.79543">
        <ele>18.9</ele>
        <time>2025-01-28T09:08:41Z</time>
      </trkpt>
      <trkpt lat="47.64454" lon="-2.79541">
        <ele>18.8</ele>
        <time>2025-01-28T09:08:42Z</time>
      </trkpt>
      <trkpt lat="47.64452" lon="-2.7954">
        <ele>18.7</ele>
        <time>2025-01-28T09:08:43Z</time>
      </trkpt>
      <trkpt lat="47.64451" lon="-2.79539">
        <ele>18.7</ele>
        <time>2025-01-28T09:08:44Z</time>
      </trkpt>
      <trkpt lat="47.6445" lon="-2.79538">
        <ele>18.6</ele>
        <time>2025-01-28T09:08:45Z</time>
      </trkpt>
      <trkpt lat="47.64449" lon="-2.79538">
        <ele>18.5</ele>
        <time>2025-01-28T09:08:46Z</time>
      </trkpt>
      <trkpt lat="47.64448" lon="-2.79537">
        <ele>18.4</ele>
        <time>2025-01-28T09:08:47Z</time>
      </trkpt>
      <trkpt lat="47.64447" lon="-2.79535">
        <ele>18.4</ele>
        <time>2025-01-28T09:08:48Z</time>
      </trkpt>
      <trkpt lat="47.64445" lon="-2.79534">
        <ele>18.3</ele>
        <time>2025-01-28T09:08:49Z</time>
      </trkpt>
      <trkpt lat="47.64444" lon="-2.79534">
        <ele>18.2</ele>
        <time>2025-01-28T09:08:50Z</time>
      </trkpt>
      <trkpt lat="47.64443" lon="-2.79533">
        <ele>18.2</ele>
        <time>2025-01-28T09:08:51Z</time>
      </trkpt>
      <trkpt lat="47.64442" lon="-2.79532">
        <ele>18.1</ele>
        <time>2025-01-28T09:08:52Z</time>
      </trkpt>
      <trkpt lat="47.64441" lon="-2.79532">
        <ele>18.1</ele>
        <time>2025-01-28T09:08:53Z</time>
      </trkpt>
      <trkpt lat="47.6444" lon="-2.79531">
        <ele>18.1</ele>
        <time>2025-01-28T09:08:54Z</time>
      </trkpt>
      <trkpt lat="47.64439" lon="-2.7953">
        <ele>18.1</ele>
        <time>2025-01-28T09:08:55Z</time>
      </trkpt>
      <trkpt lat="47.64437" lon="-2.79529">
        <ele>18</ele>
        <time>2025-01-28T09:08:56Z</time>
      </trkpt>
      <trkpt lat="47.64436" lon="-2.79528">
        <ele>18</ele>
        <time>2025-01-28T09:08:57Z</time>
      </trkpt>
      <trkpt lat="47.64435" lon="-2.79527">
        <ele>18</ele>
        <time>2025-01-28T09:08:58Z</time>
      </trkpt>
      <trkpt lat="47.64434" lon="-2.79526">
        <ele>18</ele>
        <time>2025-01-28T09:08:59Z</time>
      </trkpt>
      <trkpt lat="47.64433" lon="-2.79525">
        <ele>18</ele>
        <time>2025-01-28T09:09:00Z</time>
      </trkpt>
      <trkpt lat="47.64431" lon="-2.79524">
        <ele>17.9</ele>
        <time>2025-01-28T09:09:01Z</time>
      </trkpt>
      <trkpt lat="47.6443" lon="-2.79524">
        <ele>17.9</ele>
        <time>2025-01-28T09:09:02Z</time>
      </trkpt>
      <trkpt lat="47.64429" lon="-2.79523">
        <ele>17.9</ele>
        <time>2025-01-28T09:09:03Z</time>
      </trkpt>
      <trkpt lat="47.64428" lon="-2.79522">
        <ele>17.9</ele>
        <time>2025-01-28T09:09:04Z</time>
      </trkpt>
      <trkpt lat="47.64427" lon="-2.79522">
        <ele>17.9</ele>
        <time>2025-01-28T09:09:05Z</time>
      </trkpt>
      <trkpt lat="47.64425" lon="-2.79521">
        <ele>17.8</ele>
        <time>2025-01-28T09:09:06Z</time>
      </trkpt>
      <trkpt lat="47.64424" lon="-2.7952">
        <ele>17.8</ele>
        <time>2025-01-28T09:09:07Z</time>
      </trkpt>
      <trkpt lat="47.64423" lon="-2.79519">
        <ele>17.8</ele>
        <time>2025-01-28T09:09:08Z</time>
      </trkpt>
      <trkpt lat="47.64422" lon="-2.79518">
        <ele>17.7</ele>
        <time>2025-01-28T09:09:09Z</time>
      </trkpt>
      <trkpt lat="47.64421" lon="-2.79517">
        <ele>17.7</ele>
        <time>2025-01-28T09:09:10Z</time>
      </trkpt>
      <trkpt lat="47.6442" lon="-2.79516">
        <ele>17.6</ele>
        <time>2025-01-28T09:09:11Z</time>
      </trkpt>
      <trkpt lat="47.64419" lon="-2.79515">
        <ele>17.6</ele>
        <time>2025-01-28T09:09:12Z</time>
      </trkpt>
      <trkpt lat="47.64417" lon="-2.79515">
        <ele>17.5</ele>
        <time>2025-01-28T09:09:13Z</time>
      </trkpt>
      <trkpt lat="47.64416" lon="-2.79514">
        <ele>17.5</ele>
        <time>2025-01-28T09:09:14Z</time>
      </trkpt>
      <trkpt lat="47.64415" lon="-2.79513">
        <ele>17.4</ele>
        <time>2025-01-28T09:09:15Z</time>
      </trkpt>
      <trkpt lat="47.64414" lon="-2.79512">
        <ele>17.4</ele>
        <time>2025-01-28T09:09:16Z</time>
      </trkpt>
      <trkpt lat="47.64413" lon="-2.79511">
        <ele>17.3</ele>
        <time>2025-01-28T09:09:17Z</time>
      </trkpt>
      <trkpt lat="47.64412" lon="-2.7951">
        <ele>17.3</ele>
        <time>2025-01-28T09:09:18Z</time>
      </trkpt>
      <trkpt lat="47.64411" lon="-2.79509">
        <ele>17.3</ele>
        <time>2025-01-28T09:09:19Z</time>
      </trkpt>
      <trkpt lat="47.6441" lon="-2.79508">
        <ele>17.2</ele>
        <time>2025-01-28T09:09:20Z</time>
      </trkpt>
      <trkpt lat="47.64409" lon="-2.79507">
        <ele>17.2</ele>
        <time>2025-01-28T09:09:21Z</time>
      </trkpt>
      <trkpt lat="47.64408" lon="-2.79506">
        <ele>17.1</ele>
        <time>2025-01-28T09:09:22Z</time>
      </trkpt>
      <trkpt lat="47.64407" lon="-2.79504">
        <ele>17.1</ele>
        <time>2025-01-28T09:09:23Z</time>
      </trkpt>
      <trkpt lat="47.64406" lon="-2.79504">
        <ele>17.1</ele>
        <time>2025-01-28T09:09:24Z</time>
      </trkpt>
      <trkpt lat="47.64404" lon="-2.79504">
        <ele>17.1</ele>
        <time>2025-01-28T09:09:25Z</time>
      </trkpt>
      <trkpt lat="47.64403" lon="-2.79502">
        <ele>17</ele>
        <time>2025-01-28T09:09:26Z</time>
      </trkpt>
      <trkpt lat="47.64402" lon="-2.79501">
        <ele>17</ele>
        <time>2025-01-28T09:09:27Z</time>
      </trkpt>
      <trkpt lat="47.64401" lon="-2.795">
        <ele>17</ele>
        <time>2025-01-28T09:09:28Z</time>
      </trkpt>
      <trkpt lat="47.644" lon="-2.79499">
        <ele>17</ele>
        <time>2025-01-28T09:09:29Z</time>
      </trkpt>
      <trkpt lat="47.64399" lon="-2.79498">
        <ele>16.9</ele>
        <time>2025-01-28T09:09:30Z</time>
      </trkpt>
      <trkpt lat="47.64398" lon="-2.79497">
        <ele>16.9</ele>
        <time>2025-01-28T09:09:31Z</time>
      </trkpt>
      <trkpt lat="47.64396" lon="-2.79496">
        <ele>16.9</ele>
        <time>2025-01-28T09:09:32Z</time>
      </trkpt>
      <trkpt lat="47.64395" lon="-2.79495">
        <ele>16.9</ele>
        <time>2025-01-28T09:09:33Z</time>
      </trkpt>
      <trkpt lat="47.64394" lon="-2.79495">
        <ele>16.9</ele>
        <time>2025-01-28T09:09:34Z</time>
      </trkpt>
      <trkpt lat="47.64393" lon="-2.79494">
        <ele>16.8</ele>
        <time>2025-01-28T09:09:35Z</time>
      </trkpt>
      <trkpt lat="47.64392" lon="-2.79493">
        <ele>16.8</ele>
        <time>2025-01-28T09:09:36Z</time>
      </trkpt>
      <trkpt lat="47.6439" lon="-2.79493">
        <ele>16.7</ele>
        <time>2025-01-28T09:09:37Z</time>
      </trkpt>
      <trkpt lat="47.64389" lon="-2.79492">
        <ele>16.7</ele>
        <time>2025-01-28T09:09:38Z</time>
      </trkpt>
      <trkpt lat="47.64387" lon="-2.79491">
        <ele>16.6</ele>
        <time>2025-01-28T09:09:39Z</time>
      </trkpt>
      <trkpt lat="47.64387" lon="-2.79491">
        <ele>16.6</ele>
        <time>2025-01-28T09:09:40Z</time>
      </trkpt>
      <trkpt lat="47.64386" lon="-2.7949">
        <ele>16.5</ele>
        <time>2025-01-28T09:09:41Z</time>
      </trkpt>
      <trkpt lat="47.64384" lon="-2.79489">
        <ele>16.4</ele>
        <time>2025-01-28T09:09:42Z</time>
      </trkpt>
      <trkpt lat="47.64383" lon="-2.79489">
        <ele>16.4</ele>
        <time>2025-01-28T09:09:43Z</time>
      </trkpt>
      <trkpt lat="47.64382" lon="-2.79488">
        <ele>16.3</ele>
        <time>2025-01-28T09:09:44Z</time>
      </trkpt>
      <trkpt lat="47.6438" lon="-2.79488">
        <ele>16.2</ele>
        <time>2025-01-28T09:09:45Z</time>
      </trkpt>
      <trkpt lat="47.64379" lon="-2.79487">
        <ele>16.2</ele>
        <time>2025-01-28T09:09:46Z</time>
      </trkpt>
      <trkpt lat="47.64378" lon="-2.79486">
        <ele>16.1</ele>
        <time>2025-01-28T09:09:47Z</time>
      </trkpt>
      <trkpt lat="47.64377" lon="-2.79486">
        <ele>16</ele>
        <time>2025-01-28T09:09:48Z</time>
      </trkpt>
      <trkpt lat="47.64376" lon="-2.79485">
        <ele>16</ele>
        <time>2025-01-28T09:09:49Z</time>
      </trkpt>
      <trkpt lat="47.64374" lon="-2.79485">
        <ele>15.9</ele>
        <time>2025-01-28T09:09:50Z</time>
      </trkpt>
      <trkpt lat="47.64373" lon="-2.79484">
        <ele>15.9</ele>
        <time>2025-01-28T09:09:51Z</time>
      </trkpt>
      <trkpt lat="47.64372" lon="-2.79484">
        <ele>15.8</ele>
        <time>2025-01-28T09:09:52Z</time>
      </trkpt>
      <trkpt lat="47.64371" lon="-2.79483">
        <ele>15.7</ele>
        <time>2025-01-28T09:09:53Z</time>
      </trkpt>
      <trkpt lat="47.64369" lon="-2.79483">
        <ele>15.7</ele>
        <time>2025-01-28T09:09:54Z</time>
      </trkpt>
      <trkpt lat="47.64368" lon="-2.79483">
        <ele>15.6</ele>
        <time>2025-01-28T09:09:55Z</time>
      </trkpt>
      <trkpt lat="47.64367" lon="-2.79482">
        <ele>15.6</ele>
        <time>2025-01-28T09:09:56Z</time>
      </trkpt>
      <trkpt lat="47.64365" lon="-2.79482">
        <ele>15.5</ele>
        <time>2025-01-28T09:09:57Z</time>
      </trkpt>
      <trkpt lat="47.64364" lon="-2.79482">
        <ele>15.5</ele>
        <time>2025-01-28T09:09:58Z</time>
      </trkpt>
      <trkpt lat="47.64363" lon="-2.79482">
        <ele>15.4</ele>
        <time>2025-01-28T09:09:59Z</time>
      </trkpt>
      <trkpt lat="47.64362" lon="-2.79483">
        <ele>15.4</ele>
        <time>2025-01-28T09:10:00Z</time>
      </trkpt>
      <trkpt lat="47.6436" lon="-2.79483">
        <ele>15.3</ele>
        <time>2025-01-28T09:10:01Z</time>
      </trkpt>
      <trkpt lat="47.64359" lon="-2.79483">
        <ele>15.2</ele>
        <time>2025-01-28T09:10:02Z</time>
      </trkpt>
      <trkpt lat="47.64358" lon="-2.79482">
        <ele>15.1</ele>
        <time>2025-01-28T09:10:03Z</time>
      </trkpt>
      <trkpt lat="47.64356" lon="-2.79481">
        <ele>15</ele>
        <time>2025-01-28T09:10:04Z</time>
      </trkpt>
      <trkpt lat="47.64355" lon="-2.79481">
        <ele>14.9</ele>
        <time>2025-01-28T09:10:05Z</time>
      </trkpt>
      <trkpt lat="47.64354" lon="-2.7948">
        <ele>14.8</ele>
        <time>2025-01-28T09:10:06Z</time>
      </trkpt>
      <trkpt lat="47.64352" lon="-2.7948">
        <ele>14.6</ele>
        <time>2025-01-28T09:10:07Z</time>
      </trkpt>
      <trkpt lat="47.64351" lon="-2.79479">
        <ele>14.5</ele>
        <time>2025-01-28T09:10:08Z</time>
      </trkpt>
      <trkpt lat="47.6435" lon="-2.79479">
        <ele>14.4</ele>
        <time>2025-01-28T09:10:09Z</time>
      </trkpt>
      <trkpt lat="47.64349" lon="-2.79479">
        <ele>14.3</ele>
        <time>2025-01-28T09:10:10Z</time>
      </trkpt>
      <trkpt lat="47.64347" lon="-2.79478">
        <ele>14.2</ele>
        <time>2025-01-28T09:10:11Z</time>
      </trkpt>
      <trkpt lat="47.64346" lon="-2.79478">
        <ele>14.1</ele>
        <time>2025-01-28T09:10:12Z</time>
      </trkpt>
      <trkpt lat="47.64345" lon="-2.79477">
        <ele>14</ele>
        <time>2025-01-28T09:10:13Z</time>
      </trkpt>
      <trkpt lat="47.64344" lon="-2.79477">
        <ele>13.9</ele>
        <time>2025-01-28T09:10:14Z</time>
      </trkpt>
      <trkpt lat="47.64342" lon="-2.79477">
        <ele>13.8</ele>
        <time>2025-01-28T09:10:15Z</time>
      </trkpt>
      <trkpt lat="47.64341" lon="-2.79476">
        <ele>13.7</ele>
        <time>2025-01-28T09:10:16Z</time>
      </trkpt>
      <trkpt lat="47.6434" lon="-2.79476">
        <ele>13.6</ele>
        <time>2025-01-28T09:10:17Z</time>
      </trkpt>
      <trkpt lat="47.64338" lon="-2.79477">
        <ele>13.5</ele>
        <time>2025-01-28T09:10:18Z</time>
      </trkpt>
      <trkpt lat="47.64337" lon="-2.79478">
        <ele>13.4</ele>
        <time>2025-01-28T09:10:19Z</time>
      </trkpt>
      <trkpt lat="47.64336" lon="-2.79478">
        <ele>13.4</ele>
        <time>2025-01-28T09:10:20Z</time>
      </trkpt>
      <trkpt lat="47.64335" lon="-2.79478">
        <ele>13.3</ele>
        <time>2025-01-28T09:10:21Z</time>
      </trkpt>
      <trkpt lat="47.64333" lon="-2.79478">
        <ele>13.2</ele>
        <time>2025-01-28T09:10:22Z</time>
      </trkpt>
      <trkpt lat="47.64332" lon="-2.79479">
        <ele>13.1</ele>
        <time>2025-01-28T09:10:23Z</time>
      </trkpt>
      <trkpt lat="47.64331" lon="-2.79479">
        <ele>13</ele>
        <time>2025-01-28T09:10:24Z</time>
      </trkpt>
      <trkpt lat="47.64329" lon="-2.79479">
        <ele>12.9</ele>
        <time>2025-01-28T09:10:25Z</time>
      </trkpt>
      <trkpt lat="47.64328" lon="-2.79479">
        <ele>12.8</ele>
        <time>2025-01-28T09:10:26Z</time>
      </trkpt>
      <trkpt lat="47.64327" lon="-2.7948">
        <ele>12.7</ele>
        <time>2025-01-28T09:10:27Z</time>
      </trkpt>
      <trkpt lat="47.64326" lon="-2.79481">
        <ele>12.7</ele>
        <time>2025-01-28T09:10:28Z</time>
      </trkpt>
      <trkpt lat="47.64324" lon="-2.79482">
        <ele>12.6</ele>
        <time>2025-01-28T09:10:29Z</time>
      </trkpt>
      <trkpt lat="47.64323" lon="-2.79482">
        <ele>12.5</ele>
        <time>2025-01-28T09:10:30Z</time>
      </trkpt>
      <trkpt lat="47.64322" lon="-2.79482">
        <ele>12.4</ele>
        <time>2025-01-28T09:10:31Z</time>
      </trkpt>
      <trkpt lat="47.6432" lon="-2.79483">
        <ele>12.3</ele>
        <time>2025-01-28T09:10:32Z</time>
      </trkpt>
      <trkpt lat="47.64319" lon="-2.79483">
        <ele>12.1</ele>
        <time>2025-01-28T09:10:33Z</time>
      </trkpt>
      <trkpt lat="47.64318" lon="-2.79483">
        <ele>12</ele>
        <time>2025-01-28T09:10:34Z</time>
      </trkpt>
      <trkpt lat="47.64316" lon="-2.79483">
        <ele>11.9</ele>
        <time>2025-01-28T09:10:35Z</time>
      </trkpt>
      <trkpt lat="47.64315" lon="-2.79484">
        <ele>11.8</ele>
        <time>2025-01-28T09:10:36Z</time>
      </trkpt>
      <trkpt lat="47.64314" lon="-2.79485">
        <ele>11.7</ele>
        <time>2025-01-28T09:10:37Z</time>
      </trkpt>
      <trkpt lat="47.64313" lon="-2.79485">
        <ele>11.6</ele>
        <time>2025-01-28T09:10:38Z</time>
      </trkpt>
      <trkpt lat="47.64312" lon="-2.79486">
        <ele>11.5</ele>
        <time>2025-01-28T09:10:39Z</time>
      </trkpt>
      <trkpt lat="47.6431" lon="-2.79487">
        <ele>11.4</ele>
        <time>2025-01-28T09:10:40Z</time>
      </trkpt>
      <trkpt lat="47.64309" lon="-2.79487">
        <ele>11.3</ele>
        <time>2025-01-28T09:10:41Z</time>
      </trkpt>
      <trkpt lat="47.64308" lon="-2.79488">
        <ele>11.2</ele>
        <time>2025-01-28T09:10:42Z</time>
      </trkpt>
      <trkpt lat="47.64306" lon="-2.79489">
        <ele>11.1</ele>
        <time>2025-01-28T09:10:43Z</time>
      </trkpt>
      <trkpt lat="47.64305" lon="-2.7949">
        <ele>11</ele>
        <time>2025-01-28T09:10:44Z</time>
      </trkpt>
      <trkpt lat="47.64304" lon="-2.7949">
        <ele>10.9</ele>
        <time>2025-01-28T09:10:45Z</time>
      </trkpt>
      <trkpt lat="47.64303" lon="-2.79491">
        <ele>10.8</ele>
        <time>2025-01-28T09:10:46Z</time>
      </trkpt>
      <trkpt lat="47.64302" lon="-2.79492">
        <ele>10.7</ele>
        <time>2025-01-28T09:10:47Z</time>
      </trkpt>
      <trkpt lat="47.64301" lon="-2.79493">
        <ele>10.6</ele>
        <time>2025-01-28T09:10:48Z</time>
      </trkpt>
      <trkpt lat="47.643" lon="-2.79495">
        <ele>10.5</ele>
        <time>2025-01-28T09:10:49Z</time>
      </trkpt>
      <trkpt lat="47.64299" lon="-2.79496">
        <ele>10.5</ele>
        <time>2025-01-28T09:10:50Z</time>
      </trkpt>
      <trkpt lat="47.64298" lon="-2.79497">
        <ele>10.4</ele>
        <time>2025-01-28T09:10:51Z</time>
      </trkpt>
      <trkpt lat="47.64297" lon="-2.79498">
        <ele>10.3</ele>
        <time>2025-01-28T09:10:52Z</time>
      </trkpt>
      <trkpt lat="47.64296" lon="-2.79499">
        <ele>10.3</ele>
        <time>2025-01-28T09:10:53Z</time>
      </trkpt>
      <trkpt lat="47.64294" lon="-2.795">
        <ele>10.2</ele>
        <time>2025-01-28T09:10:54Z</time>
      </trkpt>
      <trkpt lat="47.64293" lon="-2.79501">
        <ele>10.1</ele>
        <time>2025-01-28T09:10:55Z</time>
      </trkpt>
      <trkpt lat="47.64292" lon="-2.79502">
        <ele>10.1</ele>
        <time>2025-01-28T09:10:56Z</time>
      </trkpt>
      <trkpt lat="47.64291" lon="-2.79503">
        <ele>10.1</ele>
        <time>2025-01-28T09:10:57Z</time>
      </trkpt>
      <trkpt lat="47.6429" lon="-2.79505">
        <ele>10</ele>
        <time>2025-01-28T09:10:58Z</time>
      </trkpt>
      <trkpt lat="47.64289" lon="-2.79506">
        <ele>10</ele>
        <time>2025-01-28T09:10:59Z</time>
      </trkpt>
      <trkpt lat="47.64288" lon="-2.79507">
        <ele>10</ele>
        <time>2025-01-28T09:11:00Z</time>
      </trkpt>
      <trkpt lat="47.64287" lon="-2.79508">
        <ele>9.9</ele>
        <time>2025-01-28T09:11:01Z</time>
      </trkpt>
      <trkpt lat="47.64286" lon="-2.7951">
        <ele>9.9</ele>
        <time>2025-01-28T09:11:02Z</time>
      </trkpt>
      <trkpt lat="47.64284" lon="-2.79511">
        <ele>9.9</ele>
        <time>2025-01-28T09:11:03Z</time>
      </trkpt>
      <trkpt lat="47.64283" lon="-2.79511">
        <ele>9.8</ele>
        <time>2025-01-28T09:11:04Z</time>
      </trkpt>
      <trkpt lat="47.64282" lon="-2.79513">
        <ele>9.7</ele>
        <time>2025-01-28T09:11:05Z</time>
      </trkpt>
      <trkpt lat="47.64281" lon="-2.79514">
        <ele>9.7</ele>
        <time>2025-01-28T09:11:06Z</time>
      </trkpt>
      <trkpt lat="47.6428" lon="-2.79515">
        <ele>9.7</ele>
        <time>2025-01-28T09:11:07Z</time>
      </trkpt>
      <trkpt lat="47.64279" lon="-2.79517">
        <ele>9.7</ele>
        <time>2025-01-28T09:11:08Z</time>
      </trkpt>
      <trkpt lat="47.64278" lon="-2.79518">
        <ele>9.7</ele>
        <time>2025-01-28T09:11:09Z</time>
      </trkpt>
      <trkpt lat="47.64278" lon="-2.7952">
        <ele>9.7</ele>
        <time>2025-01-28T09:11:10Z</time>
      </trkpt>
      <trkpt lat="47.64277" lon="-2.79521">
        <ele>9.6</ele>
        <time>2025-01-28T09:11:11Z</time>
      </trkpt>
      <trkpt lat="47.64276" lon="-2.79523">
        <ele>9.5</ele>
        <time>2025-01-28T09:11:12Z</time>
      </trkpt>
      <trkpt lat="47.64275" lon="-2.79524">
        <ele>9.5</ele>
        <time>2025-01-28T09:11:13Z</time>
      </trkpt>
      <trkpt lat="47.64274" lon="-2.79526">
        <ele>9.4</ele>
        <time>2025-01-28T09:11:14Z</time>
      </trkpt>
      <trkpt lat="47.64273" lon="-2.79527">
        <ele>9.3</ele>
        <time>2025-01-28T09:11:15Z</time>
      </trkpt>
      <trkpt lat="47.64273" lon="-2.79528">
        <ele>9.2</ele>
        <time>2025-01-28T09:11:16Z</time>
      </trkpt>
      <trkpt lat="47.64272" lon="-2.7953">
        <ele>9.1</ele>
        <time>2025-01-28T09:11:17Z</time>
      </trkpt>
      <trkpt lat="47.64271" lon="-2.79531">
        <ele>9</ele>
        <time>2025-01-28T09:11:18Z</time>
      </trkpt>
      <trkpt lat="47.6427" lon="-2.79533">
        <ele>8.9</ele>
        <time>2025-01-28T09:11:19Z</time>
      </trkpt>
      <trkpt lat="47.64269" lon="-2.79534">
        <ele>8.8</ele>
        <time>2025-01-28T09:11:20Z</time>
      </trkpt>
      <trkpt lat="47.64268" lon="-2.79536">
        <ele>8.6</ele>
        <time>2025-01-28T09:11:21Z</time>
      </trkpt>
      <trkpt lat="47.64267" lon="-2.79537">
        <ele>8.5</ele>
        <time>2025-01-28T09:11:22Z</time>
      </trkpt>
      <trkpt lat="47.64267" lon="-2.79539">
        <ele>8.4</ele>
        <time>2025-01-28T09:11:23Z</time>
      </trkpt>
      <trkpt lat="47.64266" lon="-2.7954">
        <ele>8.3</ele>
        <time>2025-01-28T09:11:24Z</time>
      </trkpt>
      <trkpt lat="47.64265" lon="-2.79542">
        <ele>8.2</ele>
        <time>2025-01-28T09:11:25Z</time>
      </trkpt>
      <trkpt lat="47.64264" lon="-2.79543">
        <ele>8</ele>
        <time>2025-01-28T09:11:26Z</time>
      </trkpt>
      <trkpt lat="47.64263" lon="-2.79545">
        <ele>7.8</ele>
        <time>2025-01-28T09:11:27Z</time>
      </trkpt>
      <trkpt lat="47.64262" lon="-2.79546">
        <ele>7.7</ele>
        <time>2025-01-28T09:11:28Z</time>
      </trkpt>
      <trkpt lat="47.64261" lon="-2.79548">
        <ele>7.6</ele>
        <time>2025-01-28T09:11:29Z</time>
      </trkpt>
      <trkpt lat="47.64261" lon="-2.7955">
        <ele>7.5</ele>
        <time>2025-01-28T09:11:30Z</time>
      </trkpt>
      <trkpt lat="47.6426" lon="-2.79551">
        <ele>7.4</ele>
        <time>2025-01-28T09:11:31Z</time>
      </trkpt>
      <trkpt lat="47.64259" lon="-2.79553">
        <ele>7.3</ele>
        <time>2025-01-28T09:11:32Z</time>
      </trkpt>
      <trkpt lat="47.64258" lon="-2.79554">
        <ele>7.1</ele>
        <time>2025-01-28T09:11:33Z</time>
      </trkpt>
      <trkpt lat="47.64257" lon="-2.79556">
        <ele>7.1</ele>
        <time>2025-01-28T09:11:34Z</time>
      </trkpt>
      <trkpt lat="47.64257" lon="-2.79557">
        <ele>7</ele>
        <time>2025-01-28T09:11:35Z</time>
      </trkpt>
      <trkpt lat="47.64256" lon="-2.79559">
        <ele>7</ele>
        <time>2025-01-28T09:11:36Z</time>
      </trkpt>
      <trkpt lat="47.64255" lon="-2.7956">
        <ele>6.9</ele>
        <time>2025-01-28T09:11:37Z</time>
      </trkpt>
      <trkpt lat="47.64254" lon="-2.79562">
        <ele>6.8</ele>
        <time>2025-01-28T09:11:38Z</time>
      </trkpt>
      <trkpt lat="47.64253" lon="-2.79562">
        <ele>6.6</ele>
        <time>2025-01-28T09:11:39Z</time>
      </trkpt>
      <trkpt lat="47.64252" lon="-2.79563">
        <ele>6.5</ele>
        <time>2025-01-28T09:11:40Z</time>
      </trkpt>
      <trkpt lat="47.64251" lon="-2.79565">
        <ele>6.5</ele>
        <time>2025-01-28T09:11:41Z</time>
      </trkpt>
      <trkpt lat="47.64251" lon="-2.79567">
        <ele>6.5</ele>
        <time>2025-01-28T09:11:42Z</time>
      </trkpt>
      <trkpt lat="47.64249" lon="-2.79568">
        <ele>6.4</ele>
        <time>2025-01-28T09:11:43Z</time>
      </trkpt>
      <trkpt lat="47.64249" lon="-2.7957">
        <ele>6.3</ele>
        <time>2025-01-28T09:11:44Z</time>
      </trkpt>
      <trkpt lat="47.64248" lon="-2.79572">
        <ele>6.3</ele>
        <time>2025-01-28T09:11:45Z</time>
      </trkpt>
      <trkpt lat="47.64247" lon="-2.79573">
        <ele>6.2</ele>
        <time>2025-01-28T09:11:46Z</time>
      </trkpt>
      <trkpt lat="47.64246" lon="-2.79575">
        <ele>6.2</ele>
        <time>2025-01-28T09:11:47Z</time>
      </trkpt>
      <trkpt lat="47.64246" lon="-2.79577">
        <ele>6.2</ele>
        <time>2025-01-28T09:11:48Z</time>
      </trkpt>
      <trkpt lat="47.64245" lon="-2.79578">
        <ele>6.2</ele>
        <time>2025-01-28T09:11:49Z</time>
      </trkpt>
      <trkpt lat="47.64244" lon="-2.7958">
        <ele>6.1</ele>
        <time>2025-01-28T09:11:50Z</time>
      </trkpt>
      <trkpt lat="47.64244" lon="-2.79582">
        <ele>6.1</ele>
        <time>2025-01-28T09:11:51Z</time>
      </trkpt>
      <trkpt lat="47.64243" lon="-2.79584">
        <ele>6.1</ele>
        <time>2025-01-28T09:11:52Z</time>
      </trkpt>
      <trkpt lat="47.64243" lon="-2.79585">
        <ele>6</ele>
        <time>2025-01-28T09:11:53Z</time>
      </trkpt>
      <trkpt lat="47.64242" lon="-2.79587">
        <ele>5.9</ele>
        <time>2025-01-28T09:11:54Z</time>
      </trkpt>
      <trkpt lat="47.64241" lon="-2.79588">
        <ele>5.8</ele>
        <time>2025-01-28T09:11:55Z</time>
      </trkpt>
      <trkpt lat="47.64241" lon="-2.7959">
        <ele>5.8</ele>
        <time>2025-01-28T09:11:56Z</time>
      </trkpt>
      <trkpt lat="47.6424" lon="-2.79592">
        <ele>5.7</ele>
        <time>2025-01-28T09:11:57Z</time>
      </trkpt>
      <trkpt lat="47.6424" lon="-2.79594">
        <ele>5.7</ele>
        <time>2025-01-28T09:11:58Z</time>
      </trkpt>
      <trkpt lat="47.64239" lon="-2.79595">
        <ele>5.6</ele>
        <time>2025-01-28T09:11:59Z</time>
      </trkpt>
      <trkpt lat="47.64238" lon="-2.79597">
        <ele>5.5</ele>
        <time>2025-01-28T09:12:00Z</time>
      </trkpt>
      <trkpt lat="47.64237" lon="-2.79598">
        <ele>5.4</ele>
        <time>2025-01-28T09:12:01Z</time>
      </trkpt>
      <trkpt lat="47.64237" lon="-2.79599">
        <ele>5.3</ele>
        <time>2025-01-28T09:12:02Z</time>
      </trkpt>
      <trkpt lat="47.64236" lon="-2.79601">
        <ele>5.3</ele>
        <time>2025-01-28T09:12:03Z</time>
      </trkpt>
      <trkpt lat="47.64236" lon="-2.79603">
        <ele>5.3</ele>
        <time>2025-01-28T09:12:04Z</time>
      </trkpt>
      <trkpt lat="47.64235" lon="-2.79604">
        <ele>5.2</ele>
        <time>2025-01-28T09:12:05Z</time>
      </trkpt>
      <trkpt lat="47.64234" lon="-2.79606">
        <ele>5.1</ele>
        <time>2025-01-28T09:12:06Z</time>
      </trkpt>
      <trkpt lat="47.64233" lon="-2.79608">
        <ele>5.1</ele>
        <time>2025-01-28T09:12:07Z</time>
      </trkpt>
      <trkpt lat="47.64232" lon="-2.79609">
        <ele>5</ele>
        <time>2025-01-28T09:12:08Z</time>
      </trkpt>
      <trkpt lat="47.64231" lon="-2.79611">
        <ele>5</ele>
        <time>2025-01-28T09:12:09Z</time>
      </trkpt>
      <trkpt lat="47.64231" lon="-2.79612">
        <ele>5</ele>
        <time>2025-01-28T09:12:10Z</time>
      </trkpt>
      <trkpt lat="47.6423" lon="-2.79614">
        <ele>5</ele>
        <time>2025-01-28T09:12:11Z</time>
      </trkpt>
      <trkpt lat="47.64229" lon="-2.79616">
        <ele>5</ele>
        <time>2025-01-28T09:12:12Z</time>
      </trkpt>
      <trkpt lat="47.64228" lon="-2.79617">
        <ele>5.1</ele>
        <time>2025-01-28T09:12:13Z</time>
      </trkpt>
      <trkpt lat="47.64227" lon="-2.79618">
        <ele>5</ele>
        <time>2025-01-28T09:12:14Z</time>
      </trkpt>
      <trkpt lat="47.64227" lon="-2.7962">
        <ele>5</ele>
        <time>2025-01-28T09:12:15Z</time>
      </trkpt>
      <trkpt lat="47.64226" lon="-2.79622">
        <ele>5.1</ele>
        <time>2025-01-28T09:12:16Z</time>
      </trkpt>
      <trkpt lat="47.64225" lon="-2.79624">
        <ele>5.2</ele>
        <time>2025-01-28T09:12:17Z</time>
      </trkpt>
      <trkpt lat="47.64225" lon="-2.79625">
        <ele>5.3</ele>
        <time>2025-01-28T09:12:18Z</time>
      </trkpt>
      <trkpt lat="47.64224" lon="-2.79626">
        <ele>5.2</ele>
        <time>2025-01-28T09:12:19Z</time>
      </trkpt>
      <trkpt lat="47.64223" lon="-2.79628">
        <ele>5.3</ele>
        <time>2025-01-28T09:12:20Z</time>
      </trkpt>
      <trkpt lat="47.64222" lon="-2.79629">
        <ele>5.3</ele>
        <time>2025-01-28T09:12:21Z</time>
      </trkpt>
      <trkpt lat="47.64222" lon="-2.79631">
        <ele>5.4</ele>
        <time>2025-01-28T09:12:22Z</time>
      </trkpt>
      <trkpt lat="47.64222" lon="-2.79633">
        <ele>5.5</ele>
        <time>2025-01-28T09:12:23Z</time>
      </trkpt>
      <trkpt lat="47.64221" lon="-2.79634">
        <ele>5.5</ele>
        <time>2025-01-28T09:12:24Z</time>
      </trkpt>
      <trkpt lat="47.6422" lon="-2.79635">
        <ele>5.5</ele>
        <time>2025-01-28T09:12:25Z</time>
      </trkpt>
      <trkpt lat="47.64219" lon="-2.79637">
        <ele>5.5</ele>
        <time>2025-01-28T09:12:26Z</time>
      </trkpt>
      <trkpt lat="47.64218" lon="-2.79638">
        <ele>5.4</ele>
        <time>2025-01-28T09:12:27Z</time>
      </trkpt>
      <trkpt lat="47.64216" lon="-2.79639">
        <ele>5.3</ele>
        <time>2025-01-28T09:12:28Z</time>
      </trkpt>
      <trkpt lat="47.64215" lon="-2.7964">
        <ele>5.3</ele>
        <time>2025-01-28T09:12:29Z</time>
      </trkpt>
      <trkpt lat="47.64214" lon="-2.79641">
        <ele>5.3</ele>
        <time>2025-01-28T09:12:30Z</time>
      </trkpt>
      <trkpt lat="47.64213" lon="-2.79642">
        <ele>5.2</ele>
        <time>2025-01-28T09:12:31Z</time>
      </trkpt>
      <trkpt lat="47.64212" lon="-2.79643">
        <ele>5.2</ele>
        <time>2025-01-28T09:12:32Z</time>
      </trkpt>
      <trkpt lat="47.64211" lon="-2.79644">
        <ele>5.2</ele>
        <time>2025-01-28T09:12:33Z</time>
      </trkpt>
      <trkpt lat="47.64211" lon="-2.79647">
        <ele>5.3</ele>
        <time>2025-01-28T09:12:34Z</time>
      </trkpt>
      <trkpt lat="47.6421" lon="-2.79648">
        <ele>5.3</ele>
        <time>2025-01-28T09:12:35Z</time>
      </trkpt>
      <trkpt lat="47.64209" lon="-2.7965">
        <ele>5.3</ele>
        <time>2025-01-28T09:12:36Z</time>
      </trkpt>
      <trkpt lat="47.64208" lon="-2.79651">
        <ele>5.3</ele>
        <time>2025-01-28T09:12:37Z</time>
      </trkpt>
      <trkpt lat="47.64207" lon="-2.79652">
        <ele>5.3</ele>
        <time>2025-01-28T09:12:38Z</time>
      </trkpt>
      <trkpt lat="47.64206" lon="-2.79653">
        <ele>5.2</ele>
        <time>2025-01-28T09:12:39Z</time>
      </trkpt>
      <trkpt lat="47.64204" lon="-2.79654">
        <ele>5.2</ele>
        <time>2025-01-28T09:12:40Z</time>
      </trkpt>
      <trkpt lat="47.64203" lon="-2.79655">
        <ele>5.1</ele>
        <time>2025-01-28T09:12:41Z</time>
      </trkpt>
      <trkpt lat="47.64202" lon="-2.79656">
        <ele>5</ele>
        <time>2025-01-28T09:12:42Z</time>
      </trkpt>
      <trkpt lat="47.64201" lon="-2.79656">
        <ele>4.9</ele>
        <time>2025-01-28T09:12:43Z</time>
      </trkpt>
      <trkpt lat="47.642" lon="-2.79657">
        <ele>4.9</ele>
        <time>2025-01-28T09:12:44Z</time>
      </trkpt>
      <trkpt lat="47.64199" lon="-2.7966">
        <ele>5</ele>
        <time>2025-01-28T09:12:45Z</time>
      </trkpt>
      <trkpt lat="47.64198" lon="-2.79661">
        <ele>5</ele>
        <time>2025-01-28T09:12:46Z</time>
      </trkpt>
      <trkpt lat="47.64197" lon="-2.79663">
        <ele>5</ele>
        <time>2025-01-28T09:12:47Z</time>
      </trkpt>
      <trkpt lat="47.64196" lon="-2.79664">
        <ele>5</ele>
        <time>2025-01-28T09:12:48Z</time>
      </trkpt>
      <trkpt lat="47.64195" lon="-2.79665">
        <ele>5</ele>
        <time>2025-01-28T09:12:49Z</time>
      </trkpt>
      <trkpt lat="47.64194" lon="-2.79666">
        <ele>4.9</ele>
        <time>2025-01-28T09:12:50Z</time>
      </trkpt>
      <trkpt lat="47.64193" lon="-2.79666">
        <ele>5</ele>
        <time>2025-01-28T09:12:51Z</time>
      </trkpt>
      <trkpt lat="47.64191" lon="-2.79667">
        <ele>5</ele>
        <time>2025-01-28T09:12:52Z</time>
      </trkpt>
      <trkpt lat="47.6419" lon="-2.79668">
        <ele>5.1</ele>
        <time>2025-01-28T09:12:53Z</time>
      </trkpt>
      <trkpt lat="47.64189" lon="-2.79669">
        <ele>5.2</ele>
        <time>2025-01-28T09:12:54Z</time>
      </trkpt>
      <trkpt lat="47.64188" lon="-2.7967">
        <ele>5.3</ele>
        <time>2025-01-28T09:12:55Z</time>
      </trkpt>
      <trkpt lat="47.64187" lon="-2.7967">
        <ele>5.3</ele>
        <time>2025-01-28T09:12:56Z</time>
      </trkpt>
      <trkpt lat="47.64185" lon="-2.7967">
        <ele>5.3</ele>
        <time>2025-01-28T09:12:57Z</time>
      </trkpt>
      <trkpt lat="47.64184" lon="-2.7967">
        <ele>5.3</ele>
        <time>2025-01-28T09:12:58Z</time>
      </trkpt>
      <trkpt lat="47.64182" lon="-2.79671">
        <ele>5.3</ele>
        <time>2025-01-28T09:12:59Z</time>
      </trkpt>
      <trkpt lat="47.64181" lon="-2.79672">
        <ele>5.4</ele>
        <time>2025-01-28T09:13:00Z</time>
      </trkpt>
      <trkpt lat="47.6418" lon="-2.79672">
        <ele>5.4</ele>
        <time>2025-01-28T09:13:01Z</time>
      </trkpt>
      <trkpt lat="47.64179" lon="-2.79673">
        <ele>5.5</ele>
        <time>2025-01-28T09:13:02Z</time>
      </trkpt>
      <trkpt lat="47.64178" lon="-2.79674">
        <ele>5.5</ele>
        <time>2025-01-28T09:13:03Z</time>
      </trkpt>
      <trkpt lat="47.64177" lon="-2.79674">
        <ele>5.5</ele>
        <time>2025-01-28T09:13:04Z</time>
      </trkpt>
      <trkpt lat="47.64175" lon="-2.79676">
        <ele>5.5</ele>
        <time>2025-01-28T09:13:05Z</time>
      </trkpt>
      <trkpt lat="47.64175" lon="-2.79677">
        <ele>5.6</ele>
        <time>2025-01-28T09:13:06Z</time>
      </trkpt>
      <trkpt lat="47.64174" lon="-2.79678">
        <ele>5.6</ele>
        <time>2025-01-28T09:13:07Z</time>
      </trkpt>
      <trkpt lat="47.64173" lon="-2.7968">
        <ele>5.7</ele>
        <time>2025-01-28T09:13:08Z</time>
      </trkpt>
      <trkpt lat="47.64171" lon="-2.7968">
        <ele>5.6</ele>
        <time>2025-01-28T09:13:09Z</time>
      </trkpt>
      <trkpt lat="47.6417" lon="-2.7968">
        <ele>5.6</ele>
        <time>2025-01-28T09:13:10Z</time>
      </trkpt>
      <trkpt lat="47.64169" lon="-2.79681">
        <ele>5.6</ele>
        <time>2025-01-28T09:13:11Z</time>
      </trkpt>
      <trkpt lat="47.64168" lon="-2.79683">
        <ele>5.6</ele>
        <time>2025-01-28T09:13:12Z</time>
      </trkpt>
      <trkpt lat="47.64167" lon="-2.79684">
        <ele>5.6</ele>
        <time>2025-01-28T09:13:13Z</time>
      </trkpt>
      <trkpt lat="47.64165" lon="-2.79685">
        <ele>5.8</ele>
        <time>2025-01-28T09:13:14Z</time>
      </trkpt>
      <trkpt lat="47.64164" lon="-2.79685">
        <ele>5.9</ele>
        <time>2025-01-28T09:13:15Z</time>
      </trkpt>
      <trkpt lat="47.64163" lon="-2.79686">
        <ele>6.1</ele>
        <time>2025-01-28T09:13:16Z</time>
      </trkpt>
      <trkpt lat="47.64161" lon="-2.79687">
        <ele>6.2</ele>
        <time>2025-01-28T09:13:17Z</time>
      </trkpt>
      <trkpt lat="47.6416" lon="-2.79688">
        <ele>6.3</ele>
        <time>2025-01-28T09:13:18Z</time>
      </trkpt>
      <trkpt lat="47.64159" lon="-2.79688">
        <ele>6.4</ele>
        <time>2025-01-28T09:13:19Z</time>
      </trkpt>
      <trkpt lat="47.64157" lon="-2.79688">
        <ele>6.5</ele>
        <time>2025-01-28T09:13:20Z</time>
      </trkpt>
      <trkpt lat="47.64156" lon="-2.79689">
        <ele>6.5</ele>
        <time>2025-01-28T09:13:21Z</time>
      </trkpt>
      <trkpt lat="47.64155" lon="-2.7969">
        <ele>6.6</ele>
        <time>2025-01-28T09:13:22Z</time>
      </trkpt>
      <trkpt lat="47.64154" lon="-2.79692">
        <ele>6.6</ele>
        <time>2025-01-28T09:13:23Z</time>
      </trkpt>
      <trkpt lat="47.64153" lon="-2.79693">
        <ele>6.6</ele>
        <time>2025-01-28T09:13:24Z</time>
      </trkpt>
      <trkpt lat="47.64151" lon="-2.79693">
        <ele>6.6</ele>
        <time>2025-01-28T09:13:25Z</time>
      </trkpt>
      <trkpt lat="47.6415" lon="-2.79694">
        <ele>6.6</ele>
        <time>2025-01-28T09:13:26Z</time>
      </trkpt>
      <trkpt lat="47.64149" lon="-2.79694">
        <ele>6.7</ele>
        <time>2025-01-28T09:13:27Z</time>
      </trkpt>
      <trkpt lat="47.64148" lon="-2.79696">
        <ele>6.6</ele>
        <time>2025-01-28T09:13:28Z</time>
      </trkpt>
      <trkpt lat="47.64146" lon="-2.79696">
        <ele>6.7</ele>
        <time>2025-01-28T09:13:29Z</time>
      </trkpt>
      <trkpt lat="47.64145" lon="-2.79697">
        <ele>6.7</ele>
        <time>2025-01-28T09:13:30Z</time>
      </trkpt>
      <trkpt lat="47.64144" lon="-2.79697">
        <ele>6.7</ele>
        <time>2025-01-28T09:13:31Z</time>
      </trkpt>
      <trkpt lat="47.64143" lon="-2.79697">
        <ele>6.7</ele>
        <time>2025-01-28T09:13:32Z</time>
      </trkpt>
      <trkpt lat="47.64141" lon="-2.79697">
        <ele>6.7</ele>
        <time>2025-01-28T09:13:33Z</time>
      </trkpt>
      <trkpt lat="47.6414" lon="-2.79699">
        <ele>6.7</ele>
        <time>2025-01-28T09:13:34Z</time>
      </trkpt>
      <trkpt lat="47.64139" lon="-2.79699">
        <ele>6.6</ele>
        <time>2025-01-28T09:13:35Z</time>
      </trkpt>
      <trkpt lat="47.64138" lon="-2.79699">
        <ele>6.7</ele>
        <time>2025-01-28T09:13:36Z</time>
      </trkpt>
      <trkpt lat="47.64136" lon="-2.79699">
        <ele>6.8</ele>
        <time>2025-01-28T09:13:37Z</time>
      </trkpt>
      <trkpt lat="47.64135" lon="-2.797">
        <ele>6.8</ele>
        <time>2025-01-28T09:13:38Z</time>
      </trkpt>
      <trkpt lat="47.64134" lon="-2.797">
        <ele>6.9</ele>
        <time>2025-01-28T09:13:39Z</time>
      </trkpt>
      <trkpt lat="47.64133" lon="-2.79699">
        <ele>6.9</ele>
        <time>2025-01-28T09:13:40Z</time>
      </trkpt>
      <trkpt lat="47.64132" lon="-2.797">
        <ele>6.9</ele>
        <time>2025-01-28T09:13:41Z</time>
      </trkpt>
      <trkpt lat="47.64131" lon="-2.79701">
        <ele>6.9</ele>
        <time>2025-01-28T09:13:42Z</time>
      </trkpt>
      <trkpt lat="47.64129" lon="-2.79701">
        <ele>6.9</ele>
        <time>2025-01-28T09:13:43Z</time>
      </trkpt>
      <trkpt lat="47.64128" lon="-2.797">
        <ele>7.1</ele>
        <time>2025-01-28T09:13:44Z</time>
      </trkpt>
      <trkpt lat="47.64127" lon="-2.797">
        <ele>7.1</ele>
        <time>2025-01-28T09:13:45Z</time>
      </trkpt>
      <trkpt lat="47.64126" lon="-2.79701">
        <ele>7.1</ele>
        <time>2025-01-28T09:13:46Z</time>
      </trkpt>
      <trkpt lat="47.64125" lon="-2.79701">
        <ele>7.1</ele>
        <time>2025-01-28T09:13:47Z</time>
      </trkpt>
      <trkpt lat="47.64124" lon="-2.79701">
        <ele>7.2</ele>
        <time>2025-01-28T09:13:48Z</time>
      </trkpt>
      <trkpt lat="47.64122" lon="-2.79701">
        <ele>7.3</ele>
        <time>2025-01-28T09:13:49Z</time>
      </trkpt>
      <trkpt lat="47.64121" lon="-2.79701">
        <ele>7.3</ele>
        <time>2025-01-28T09:13:50Z</time>
      </trkpt>
      <trkpt lat="47.6412" lon="-2.79701">
        <ele>7.4</ele>
        <time>2025-01-28T09:13:51Z</time>
      </trkpt>
      <trkpt lat="47.64119" lon="-2.79702">
        <ele>7.4</ele>
        <time>2025-01-28T09:13:52Z</time>
      </trkpt>
      <trkpt lat="47.64117" lon="-2.79702">
        <ele>7.4</ele>
        <time>2025-01-28T09:13:53Z</time>
      </trkpt>
      <trkpt lat="47.64116" lon="-2.79702">
        <ele>7.5</ele>
        <time>2025-01-28T09:13:54Z</time>
      </trkpt>
      <trkpt lat="47.64115" lon="-2.79702">
        <ele>7.6</ele>
        <time>2025-01-28T09:13:55Z</time>
      </trkpt>
      <trkpt lat="47.64114" lon="-2.79701">
        <ele>7.6</ele>
        <time>2025-01-28T09:13:56Z</time>
      </trkpt>
      <trkpt lat="47.64112" lon="-2.797">
        <ele>7.7</ele>
        <time>2025-01-28T09:13:57Z</time>
      </trkpt>
      <trkpt lat="47.64111" lon="-2.79701">
        <ele>7.8</ele>
        <time>2025-01-28T09:13:58Z</time>
      </trkpt>
      <trkpt lat="47.6411" lon="-2.797">
        <ele>7.8</ele>
        <time>2025-01-28T09:13:59Z</time>
      </trkpt>
      <trkpt lat="47.64109" lon="-2.797">
        <ele>7.8</ele>
        <time>2025-01-28T09:14:00Z</time>
      </trkpt>
      <trkpt lat="47.64107" lon="-2.79699">
        <ele>7.8</ele>
        <time>2025-01-28T09:14:01Z</time>
      </trkpt>
      <trkpt lat="47.64106" lon="-2.79698">
        <ele>7.9</ele>
        <time>2025-01-28T09:14:02Z</time>
      </trkpt>
      <trkpt lat="47.64105" lon="-2.79697">
        <ele>7.9</ele>
        <time>2025-01-28T09:14:03Z</time>
      </trkpt>
      <trkpt lat="47.64104" lon="-2.79697">
        <ele>7.9</ele>
        <time>2025-01-28T09:14:04Z</time>
      </trkpt>
      <trkpt lat="47.64103" lon="-2.79697">
        <ele>7.9</ele>
        <time>2025-01-28T09:14:05Z</time>
      </trkpt>
      <trkpt lat="47.64102" lon="-2.79698">
        <ele>7.9</ele>
        <time>2025-01-28T09:14:06Z</time>
      </trkpt>
      <trkpt lat="47.64101" lon="-2.79698">
        <ele>7.9</ele>
        <time>2025-01-28T09:14:07Z</time>
      </trkpt>
      <trkpt lat="47.641" lon="-2.79698">
        <ele>7.9</ele>
        <time>2025-01-28T09:14:08Z</time>
      </trkpt>
      <trkpt lat="47.64099" lon="-2.79698">
        <ele>7.9</ele>
        <time>2025-01-28T09:14:09Z</time>
      </trkpt>
      <trkpt lat="47.64097" lon="-2.79697">
        <ele>8</ele>
        <time>2025-01-28T09:14:10Z</time>
      </trkpt>
      <trkpt lat="47.64096" lon="-2.79696">
        <ele>8</ele>
        <time>2025-01-28T09:14:11Z</time>
      </trkpt>
      <trkpt lat="47.64095" lon="-2.79696">
        <ele>8</ele>
        <time>2025-01-28T09:14:12Z</time>
      </trkpt>
      <trkpt lat="47.64094" lon="-2.79695">
        <ele>8</ele>
        <time>2025-01-28T09:14:13Z</time>
      </trkpt>
      <trkpt lat="47.64093" lon="-2.79695">
        <ele>8</ele>
        <time>2025-01-28T09:14:14Z</time>
      </trkpt>
      <trkpt lat="47.64091" lon="-2.79695">
        <ele>8</ele>
        <time>2025-01-28T09:14:15Z</time>
      </trkpt>
      <trkpt lat="47.6409" lon="-2.79695">
        <ele>8</ele>
        <time>2025-01-28T09:14:16Z</time>
      </trkpt>
      <trkpt lat="47.64089" lon="-2.79695">
        <ele>8</ele>
        <time>2025-01-28T09:14:17Z</time>
      </trkpt>
      <trkpt lat="47.64088" lon="-2.79695">
        <ele>8</ele>
        <time>2025-01-28T09:14:18Z</time>
      </trkpt>
      <trkpt lat="47.64086" lon="-2.79695">
        <ele>8</ele>
        <time>2025-01-28T09:14:19Z</time>
      </trkpt>
      <trkpt lat="47.64085" lon="-2.79694">
        <ele>8</ele>
        <time>2025-01-28T09:14:20Z</time>
      </trkpt>
      <trkpt lat="47.64084" lon="-2.79695">
        <ele>8</ele>
        <time>2025-01-28T09:14:21Z</time>
      </trkpt>
      <trkpt lat="47.64083" lon="-2.79695">
        <ele>8</ele>
        <time>2025-01-28T09:14:22Z</time>
      </trkpt>
      <trkpt lat="47.64081" lon="-2.79695">
        <ele>8</ele>
        <time>2025-01-28T09:14:23Z</time>
      </trkpt>
      <trkpt lat="47.6408" lon="-2.79695">
        <ele>8</ele>
        <time>2025-01-28T09:14:24Z</time>
      </trkpt>
      <trkpt lat="47.64079" lon="-2.79695">
        <ele>8</ele>
        <time>2025-01-28T09:14:25Z</time>
      </trkpt>
      <trkpt lat="47.64078" lon="-2.79695">
        <ele>8</ele>
        <time>2025-01-28T09:14:26Z</time>
      </trkpt>
      <trkpt lat="47.64077" lon="-2.79695">
        <ele>8</ele>
        <time>2025-01-28T09:14:27Z</time>
      </trkpt>
      <trkpt lat="47.64075" lon="-2.79695">
        <ele>8</ele>
        <time>2025-01-28T09:14:28Z</time>
      </trkpt>
      <trkpt lat="47.64074" lon="-2.79693">
        <ele>8.1</ele>
        <time>2025-01-28T09:14:29Z</time>
      </trkpt>
      <trkpt lat="47.64073" lon="-2.79693">
        <ele>8.1</ele>
        <time>2025-01-28T09:14:30Z</time>
      </trkpt>
      <trkpt lat="47.64072" lon="-2.79693">
        <ele>8.1</ele>
        <time>2025-01-28T09:14:31Z</time>
      </trkpt>
      <trkpt lat="47.6407" lon="-2.79694">
        <ele>8.1</ele>
        <time>2025-01-28T09:14:32Z</time>
      </trkpt>
      <trkpt lat="47.64069" lon="-2.79693">
        <ele>8.1</ele>
        <time>2025-01-28T09:14:33Z</time>
      </trkpt>
      <trkpt lat="47.64068" lon="-2.79693">
        <ele>8.1</ele>
        <time>2025-01-28T09:14:34Z</time>
      </trkpt>
      <trkpt lat="47.64067" lon="-2.79693">
        <ele>8.1</ele>
        <time>2025-01-28T09:14:35Z</time>
      </trkpt>
      <trkpt lat="47.64065" lon="-2.79693">
        <ele>8.1</ele>
        <time>2025-01-28T09:14:36Z</time>
      </trkpt>
      <trkpt lat="47.64064" lon="-2.79694">
        <ele>8.1</ele>
        <time>2025-01-28T09:14:37Z</time>
      </trkpt>
      <trkpt lat="47.64063" lon="-2.79693">
        <ele>8.1</ele>
        <time>2025-01-28T09:14:38Z</time>
      </trkpt>
      <trkpt lat="47.64062" lon="-2.79693">
        <ele>8.1</ele>
        <time>2025-01-28T09:14:39Z</time>
      </trkpt>
      <trkpt lat="47.64061" lon="-2.79692">
        <ele>8.2</ele>
        <time>2025-01-28T09:14:40Z</time>
      </trkpt>
      <trkpt lat="47.64059" lon="-2.79692">
        <ele>8.2</ele>
        <time>2025-01-28T09:14:41Z</time>
      </trkpt>
      <trkpt lat="47.64058" lon="-2.79691">
        <ele>8.2</ele>
        <time>2025-01-28T09:14:42Z</time>
      </trkpt>
      <trkpt lat="47.64057" lon="-2.79691">
        <ele>8.3</ele>
        <time>2025-01-28T09:14:43Z</time>
      </trkpt>
      <trkpt lat="47.64056" lon="-2.7969">
        <ele>8.3</ele>
        <time>2025-01-28T09:14:44Z</time>
      </trkpt>
      <trkpt lat="47.64055" lon="-2.79691">
        <ele>8.3</ele>
        <time>2025-01-28T09:14:45Z</time>
      </trkpt>
      <trkpt lat="47.64054" lon="-2.79691">
        <ele>8.3</ele>
        <time>2025-01-28T09:14:46Z</time>
      </trkpt>
      <trkpt lat="47.64052" lon="-2.79691">
        <ele>8.4</ele>
        <time>2025-01-28T09:14:47Z</time>
      </trkpt>
      <trkpt lat="47.64051" lon="-2.79691">
        <ele>8.4</ele>
        <time>2025-01-28T09:14:48Z</time>
      </trkpt>
      <trkpt lat="47.6405" lon="-2.79691">
        <ele>8.4</ele>
        <time>2025-01-28T09:14:49Z</time>
      </trkpt>
      <trkpt lat="47.64049" lon="-2.79691">
        <ele>8.5</ele>
        <time>2025-01-28T09:14:50Z</time>
      </trkpt>
      <trkpt lat="47.64047" lon="-2.79692">
        <ele>8.5</ele>
        <time>2025-01-28T09:14:51Z</time>
      </trkpt>
      <trkpt lat="47.64046" lon="-2.79692">
        <ele>8.5</ele>
        <time>2025-01-28T09:14:52Z</time>
      </trkpt>
      <trkpt lat="47.64045" lon="-2.79692">
        <ele>8.6</ele>
        <time>2025-01-28T09:14:53Z</time>
      </trkpt>
      <trkpt lat="47.64044" lon="-2.79692">
        <ele>8.6</ele>
        <time>2025-01-28T09:14:54Z</time>
      </trkpt>
      <trkpt lat="47.64042" lon="-2.79692">
        <ele>8.7</ele>
        <time>2025-01-28T09:14:55Z</time>
      </trkpt>
      <trkpt lat="47.64041" lon="-2.79692">
        <ele>8.7</ele>
        <time>2025-01-28T09:14:56Z</time>
      </trkpt>
      <trkpt lat="47.6404" lon="-2.79692">
        <ele>8.7</ele>
        <time>2025-01-28T09:14:57Z</time>
      </trkpt>
      <trkpt lat="47.64039" lon="-2.79692">
        <ele>8.8</ele>
        <time>2025-01-28T09:14:58Z</time>
      </trkpt>
      <trkpt lat="47.64038" lon="-2.79692">
        <ele>8.8</ele>
        <time>2025-01-28T09:14:59Z</time>
      </trkpt>
      <trkpt lat="47.64036" lon="-2.79692">
        <ele>8.9</ele>
        <time>2025-01-28T09:15:00Z</time>
      </trkpt>
      <trkpt lat="47.64035" lon="-2.79691">
        <ele>9</ele>
        <time>2025-01-28T09:15:01Z</time>
      </trkpt>
      <trkpt lat="47.64034" lon="-2.7969">
        <ele>9.1</ele>
        <time>2025-01-28T09:15:02Z</time>
      </trkpt>
      <trkpt lat="47.64032" lon="-2.7969">
        <ele>9.2</ele>
        <time>2025-01-28T09:15:03Z</time>
      </trkpt>
      <trkpt lat="47.64031" lon="-2.7969">
        <ele>9.2</ele>
        <time>2025-01-28T09:15:04Z</time>
      </trkpt>
      <trkpt lat="47.6403" lon="-2.79689">
        <ele>9.3</ele>
        <time>2025-01-28T09:15:05Z</time>
      </trkpt>
      <trkpt lat="47.64028" lon="-2.79689">
        <ele>9.3</ele>
        <time>2025-01-28T09:15:06Z</time>
      </trkpt>
      <trkpt lat="47.64027" lon="-2.79689">
        <ele>9.4</ele>
        <time>2025-01-28T09:15:07Z</time>
      </trkpt>
      <trkpt lat="47.64026" lon="-2.7969">
        <ele>9.4</ele>
        <time>2025-01-28T09:15:08Z</time>
      </trkpt>
      <trkpt lat="47.64024" lon="-2.7969">
        <ele>9.5</ele>
        <time>2025-01-28T09:15:09Z</time>
      </trkpt>
      <trkpt lat="47.64023" lon="-2.7969">
        <ele>9.5</ele>
        <time>2025-01-28T09:15:10Z</time>
      </trkpt>
      <trkpt lat="47.64022" lon="-2.7969">
        <ele>9.5</ele>
        <time>2025-01-28T09:15:11Z</time>
      </trkpt>
      <trkpt lat="47.6402" lon="-2.79689">
        <ele>9.6</ele>
        <time>2025-01-28T09:15:12Z</time>
      </trkpt>
      <trkpt lat="47.64019" lon="-2.79689">
        <ele>9.7</ele>
        <time>2025-01-28T09:15:13Z</time>
      </trkpt>
      <trkpt lat="47.64018" lon="-2.79688">
        <ele>9.7</ele>
        <time>2025-01-28T09:15:14Z</time>
      </trkpt>
      <trkpt lat="47.64016" lon="-2.79689">
        <ele>9.8</ele>
        <time>2025-01-28T09:15:15Z</time>
      </trkpt>
      <trkpt lat="47.64015" lon="-2.79689">
        <ele>9.8</ele>
        <time>2025-01-28T09:15:16Z</time>
      </trkpt>
      <trkpt lat="47.64014" lon="-2.79688">
        <ele>9.8</ele>
        <time>2025-01-28T09:15:17Z</time>
      </trkpt>
      <trkpt lat="47.64012" lon="-2.79688">
        <ele>9.9</ele>
        <time>2025-01-28T09:15:18Z</time>
      </trkpt>
      <trkpt lat="47.64011" lon="-2.79688">
        <ele>9.9</ele>
        <time>2025-01-28T09:15:19Z</time>
      </trkpt>
      <trkpt lat="47.6401" lon="-2.79688">
        <ele>9.9</ele>
        <time>2025-01-28T09:15:20Z</time>
      </trkpt>
      <trkpt lat="47.64009" lon="-2.79689">
        <ele>9.9</ele>
        <time>2025-01-28T09:15:21Z</time>
      </trkpt>
      <trkpt lat="47.64008" lon="-2.79689">
        <ele>10</ele>
        <time>2025-01-28T09:15:22Z</time>
      </trkpt>
      <trkpt lat="47.64006" lon="-2.79688">
        <ele>10</ele>
        <time>2025-01-28T09:15:23Z</time>
      </trkpt>
      <trkpt lat="47.64005" lon="-2.79688">
        <ele>10.1</ele>
        <time>2025-01-28T09:15:24Z</time>
      </trkpt>
      <trkpt lat="47.64004" lon="-2.79687">
        <ele>10.2</ele>
        <time>2025-01-28T09:15:25Z</time>
      </trkpt>
      <trkpt lat="47.64003" lon="-2.79686">
        <ele>10.2</ele>
        <time>2025-01-28T09:15:26Z</time>
      </trkpt>
      <trkpt lat="47.64002" lon="-2.79686">
        <ele>10.3</ele>
        <time>2025-01-28T09:15:27Z</time>
      </trkpt>
      <trkpt lat="47.64" lon="-2.79686">
        <ele>10.3</ele>
        <time>2025-01-28T09:15:28Z</time>
      </trkpt>
      <trkpt lat="47.63999" lon="-2.79685">
        <ele>10.4</ele>
        <time>2025-01-28T09:15:29Z</time>
      </trkpt>
      <trkpt lat="47.63998" lon="-2.79685">
        <ele>10.4</ele>
        <time>2025-01-28T09:15:30Z</time>
      </trkpt>
      <trkpt lat="47.63997" lon="-2.79685">
        <ele>10.5</ele>
        <time>2025-01-28T09:15:31Z</time>
      </trkpt>
      <trkpt lat="47.63996" lon="-2.79685">
        <ele>10.5</ele>
        <time>2025-01-28T09:15:32Z</time>
      </trkpt>
      <trkpt lat="47.63995" lon="-2.79685">
        <ele>10.5</ele>
        <time>2025-01-28T09:15:33Z</time>
      </trkpt>
      <trkpt lat="47.63994" lon="-2.79684">
        <ele>10.6</ele>
        <time>2025-01-28T09:15:34Z</time>
      </trkpt>
      <trkpt lat="47.63992" lon="-2.79683">
        <ele>10.7</ele>
        <time>2025-01-28T09:15:35Z</time>
      </trkpt>
      <trkpt lat="47.63992" lon="-2.79683">
        <ele>10.7</ele>
        <time>2025-01-28T09:15:36Z</time>
      </trkpt>
      <trkpt lat="47.6399" lon="-2.79682">
        <ele>10.8</ele>
        <time>2025-01-28T09:15:37Z</time>
      </trkpt>
      <trkpt lat="47.63989" lon="-2.79682">
        <ele>10.8</ele>
        <time>2025-01-28T09:15:38Z</time>
      </trkpt>
      <trkpt lat="47.63988" lon="-2.79681">
        <ele>10.9</ele>
        <time>2025-01-28T09:15:39Z</time>
      </trkpt>
      <trkpt lat="47.63987" lon="-2.79681">
        <ele>11</ele>
        <time>2025-01-28T09:15:40Z</time>
      </trkpt>
      <trkpt lat="47.63986" lon="-2.7968">
        <ele>11</ele>
        <time>2025-01-28T09:15:41Z</time>
      </trkpt>
      <trkpt lat="47.63985" lon="-2.7968">
        <ele>11.1</ele>
        <time>2025-01-28T09:15:42Z</time>
      </trkpt>
      <trkpt lat="47.63983" lon="-2.79679">
        <ele>11.2</ele>
        <time>2025-01-28T09:15:43Z</time>
      </trkpt>
      <trkpt lat="47.63982" lon="-2.79678">
        <ele>11.2</ele>
        <time>2025-01-28T09:15:44Z</time>
      </trkpt>
      <trkpt lat="47.63981" lon="-2.79677">
        <ele>11.3</ele>
        <time>2025-01-28T09:15:45Z</time>
      </trkpt>
      <trkpt lat="47.6398" lon="-2.79676">
        <ele>11.4</ele>
        <time>2025-01-28T09:15:46Z</time>
      </trkpt>
      <trkpt lat="47.63979" lon="-2.79676">
        <ele>11.4</ele>
        <time>2025-01-28T09:15:47Z</time>
      </trkpt>
      <trkpt lat="47.63977" lon="-2.79676">
        <ele>11.5</ele>
        <time>2025-01-28T09:15:48Z</time>
      </trkpt>
      <trkpt lat="47.63976" lon="-2.79675">
        <ele>11.6</ele>
        <time>2025-01-28T09:15:49Z</time>
      </trkpt>
      <trkpt lat="47.63975" lon="-2.79675">
        <ele>11.6</ele>
        <time>2025-01-28T09:15:50Z</time>
      </trkpt>
      <trkpt lat="47.63973" lon="-2.79675">
        <ele>11.7</ele>
        <time>2025-01-28T09:15:51Z</time>
      </trkpt>
      <trkpt lat="47.63972" lon="-2.79674">
        <ele>11.8</ele>
        <time>2025-01-28T09:15:52Z</time>
      </trkpt>
      <trkpt lat="47.63971" lon="-2.79673">
        <ele>11.8</ele>
        <time>2025-01-28T09:15:53Z</time>
      </trkpt>
      <trkpt lat="47.6397" lon="-2.79672">
        <ele>11.9</ele>
        <time>2025-01-28T09:15:54Z</time>
      </trkpt>
      <trkpt lat="47.63969" lon="-2.79671">
        <ele>12</ele>
        <time>2025-01-28T09:15:55Z</time>
      </trkpt>
      <trkpt lat="47.63968" lon="-2.7967">
        <ele>12.1</ele>
        <time>2025-01-28T09:15:56Z</time>
      </trkpt>
      <trkpt lat="47.63966" lon="-2.79669">
        <ele>12.2</ele>
        <time>2025-01-28T09:15:57Z</time>
      </trkpt>
      <trkpt lat="47.63965" lon="-2.79668">
        <ele>12.2</ele>
        <time>2025-01-28T09:15:58Z</time>
      </trkpt>
      <trkpt lat="47.63964" lon="-2.79667">
        <ele>12.3</ele>
        <time>2025-01-28T09:15:59Z</time>
      </trkpt>
      <trkpt lat="47.63963" lon="-2.79665">
        <ele>12.3</ele>
        <time>2025-01-28T09:16:00Z</time>
      </trkpt>
      <trkpt lat="47.63962" lon="-2.79664">
        <ele>12.3</ele>
        <time>2025-01-28T09:16:01Z</time>
      </trkpt>
      <trkpt lat="47.63961" lon="-2.79663">
        <ele>12.3</ele>
        <time>2025-01-28T09:16:02Z</time>
      </trkpt>
      <trkpt lat="47.6396" lon="-2.79661">
        <ele>12.3</ele>
        <time>2025-01-28T09:16:03Z</time>
      </trkpt>
      <trkpt lat="47.63959" lon="-2.7966">
        <ele>12.4</ele>
        <time>2025-01-28T09:16:04Z</time>
      </trkpt>
      <trkpt lat="47.63958" lon="-2.79659">
        <ele>12.4</ele>
        <time>2025-01-28T09:16:05Z</time>
      </trkpt>
      <trkpt lat="47.63957" lon="-2.79659">
        <ele>12.4</ele>
        <time>2025-01-28T09:16:06Z</time>
      </trkpt>
      <trkpt lat="47.63956" lon="-2.79657">
        <ele>12.4</ele>
        <time>2025-01-28T09:16:07Z</time>
      </trkpt>
      <trkpt lat="47.63955" lon="-2.79657">
        <ele>12.4</ele>
        <time>2025-01-28T09:16:08Z</time>
      </trkpt>
      <trkpt lat="47.63954" lon="-2.79656">
        <ele>12.4</ele>
        <time>2025-01-28T09:16:09Z</time>
      </trkpt>
      <trkpt lat="47.63953" lon="-2.79655">
        <ele>12.4</ele>
        <time>2025-01-28T09:16:10Z</time>
      </trkpt>
      <trkpt lat="47.63951" lon="-2.79654">
        <ele>12.4</ele>
        <time>2025-01-28T09:16:11Z</time>
      </trkpt>
      <trkpt lat="47.63951" lon="-2.79653">
        <ele>12.4</ele>
        <time>2025-01-28T09:16:12Z</time>
      </trkpt>
      <trkpt lat="47.6395" lon="-2.79651">
        <ele>12.4</ele>
        <time>2025-01-28T09:16:13Z</time>
      </trkpt>
      <trkpt lat="47.63949" lon="-2.7965">
        <ele>12.3</ele>
        <time>2025-01-28T09:16:14Z</time>
      </trkpt>
      <trkpt lat="47.63948" lon="-2.79649">
        <ele>12.3</ele>
        <time>2025-01-28T09:16:15Z</time>
      </trkpt>
      <trkpt lat="47.63948" lon="-2.79647">
        <ele>12.3</ele>
        <time>2025-01-28T09:16:16Z</time>
      </trkpt>
      <trkpt lat="47.63947" lon="-2.79646">
        <ele>12.2</ele>
        <time>2025-01-28T09:16:17Z</time>
      </trkpt>
      <trkpt lat="47.63946" lon="-2.79645">
        <ele>12.2</ele>
        <time>2025-01-28T09:16:18Z</time>
      </trkpt>
      <trkpt lat="47.63945" lon="-2.79644">
        <ele>12.2</ele>
        <time>2025-01-28T09:16:19Z</time>
      </trkpt>
      <trkpt lat="47.63943" lon="-2.79643">
        <ele>12.2</ele>
        <time>2025-01-28T09:16:20Z</time>
      </trkpt>
      <trkpt lat="47.63942" lon="-2.79642">
        <ele>12.2</ele>
        <time>2025-01-28T09:16:21Z</time>
      </trkpt>
      <trkpt lat="47.63941" lon="-2.7964">
        <ele>12.2</ele>
        <time>2025-01-28T09:16:22Z</time>
      </trkpt>
      <trkpt lat="47.6394" lon="-2.7964">
        <ele>12.2</ele>
        <time>2025-01-28T09:16:23Z</time>
      </trkpt>
      <trkpt lat="47.63939" lon="-2.79638">
        <ele>12.2</ele>
        <time>2025-01-28T09:16:24Z</time>
      </trkpt>
      <trkpt lat="47.63939" lon="-2.79636">
        <ele>12.2</ele>
        <time>2025-01-28T09:16:25Z</time>
      </trkpt>
      <trkpt lat="47.63938" lon="-2.79635">
        <ele>12.2</ele>
        <time>2025-01-28T09:16:26Z</time>
      </trkpt>
      <trkpt lat="47.63937" lon="-2.79634">
        <ele>12.2</ele>
        <time>2025-01-28T09:16:27Z</time>
      </trkpt>
      <trkpt lat="47.63936" lon="-2.79632">
        <ele>12.2</ele>
        <time>2025-01-28T09:16:28Z</time>
      </trkpt>
      <trkpt lat="47.63935" lon="-2.79632">
        <ele>12.3</ele>
        <time>2025-01-28T09:16:29Z</time>
      </trkpt>
      <trkpt lat="47.63934" lon="-2.7963">
        <ele>12.3</ele>
        <time>2025-01-28T09:16:30Z</time>
      </trkpt>
      <trkpt lat="47.63933" lon="-2.79629">
        <ele>12.3</ele>
        <time>2025-01-28T09:16:31Z</time>
      </trkpt>
      <trkpt lat="47.63931" lon="-2.79628">
        <ele>12.3</ele>
        <time>2025-01-28T09:16:32Z</time>
      </trkpt>
      <trkpt lat="47.6393" lon="-2.79626">
        <ele>12.3</ele>
        <time>2025-01-28T09:16:33Z</time>
      </trkpt>
      <trkpt lat="47.6393" lon="-2.79625">
        <ele>12.3</ele>
        <time>2025-01-28T09:16:34Z</time>
      </trkpt>
      <trkpt lat="47.63929" lon="-2.79623">
        <ele>12.3</ele>
        <time>2025-01-28T09:16:35Z</time>
      </trkpt>
      <trkpt lat="47.63928" lon="-2.79622">
        <ele>12.2</ele>
        <time>2025-01-28T09:16:36Z</time>
      </trkpt>
      <trkpt lat="47.63927" lon="-2.79621">
        <ele>12.2</ele>
        <time>2025-01-28T09:16:37Z</time>
      </trkpt>
      <trkpt lat="47.63926" lon="-2.7962">
        <ele>12.2</ele>
        <time>2025-01-28T09:16:38Z</time>
      </trkpt>
      <trkpt lat="47.63924" lon="-2.79618">
        <ele>12.2</ele>
        <time>2025-01-28T09:16:39Z</time>
      </trkpt>
      <trkpt lat="47.63923" lon="-2.79617">
        <ele>12.2</ele>
        <time>2025-01-28T09:16:40Z</time>
      </trkpt>
      <trkpt lat="47.63922" lon="-2.79616">
        <ele>12.1</ele>
        <time>2025-01-28T09:16:41Z</time>
      </trkpt>
      <trkpt lat="47.63921" lon="-2.79615">
        <ele>12.1</ele>
        <time>2025-01-28T09:16:42Z</time>
      </trkpt>
      <trkpt lat="47.6392" lon="-2.79614">
        <ele>12.1</ele>
        <time>2025-01-28T09:16:43Z</time>
      </trkpt>
      <trkpt lat="47.63919" lon="-2.79613">
        <ele>12.1</ele>
        <time>2025-01-28T09:16:44Z</time>
      </trkpt>
      <trkpt lat="47.63917" lon="-2.79612">
        <ele>12</ele>
        <time>2025-01-28T09:16:45Z</time>
      </trkpt>
      <trkpt lat="47.63917" lon="-2.7961">
        <ele>12</ele>
        <time>2025-01-28T09:16:46Z</time>
      </trkpt>
      <trkpt lat="47.63916" lon="-2.79609">
        <ele>11.9</ele>
        <time>2025-01-28T09:16:47Z</time>
      </trkpt>
      <trkpt lat="47.63914" lon="-2.79608">
        <ele>11.9</ele>
        <time>2025-01-28T09:16:48Z</time>
      </trkpt>
      <trkpt lat="47.63913" lon="-2.79607">
        <ele>11.8</ele>
        <time>2025-01-28T09:16:49Z</time>
      </trkpt>
      <trkpt lat="47.63912" lon="-2.79606">
        <ele>11.8</ele>
        <time>2025-01-28T09:16:50Z</time>
      </trkpt>
      <trkpt lat="47.63911" lon="-2.79605">
        <ele>11.7</ele>
        <time>2025-01-28T09:16:51Z</time>
      </trkpt>
      <trkpt lat="47.6391" lon="-2.79605">
        <ele>11.7</ele>
        <time>2025-01-28T09:16:52Z</time>
      </trkpt>
      <trkpt lat="47.63908" lon="-2.79603">
        <ele>11.6</ele>
        <time>2025-01-28T09:16:53Z</time>
      </trkpt>
      <trkpt lat="47.63907" lon="-2.79601">
        <ele>11.5</ele>
        <time>2025-01-28T09:16:54Z</time>
      </trkpt>
      <trkpt lat="47.63907" lon="-2.796">
        <ele>11.4</ele>
        <time>2025-01-28T09:16:55Z</time>
      </trkpt>
      <trkpt lat="47.63905" lon="-2.79598">
        <ele>11.3</ele>
        <time>2025-01-28T09:16:56Z</time>
      </trkpt>
      <trkpt lat="47.63904" lon="-2.79598">
        <ele>11.3</ele>
        <time>2025-01-28T09:16:57Z</time>
      </trkpt>
      <trkpt lat="47.63903" lon="-2.79596">
        <ele>11.2</ele>
        <time>2025-01-28T09:16:58Z</time>
      </trkpt>
      <trkpt lat="47.63902" lon="-2.79596">
        <ele>11.1</ele>
        <time>2025-01-28T09:16:59Z</time>
      </trkpt>
      <trkpt lat="47.63901" lon="-2.79595">
        <ele>11.1</ele>
        <time>2025-01-28T09:17:00Z</time>
      </trkpt>
      <trkpt lat="47.639" lon="-2.79593">
        <ele>11</ele>
        <time>2025-01-28T09:17:01Z</time>
      </trkpt>
      <trkpt lat="47.63899" lon="-2.79593">
        <ele>10.9</ele>
        <time>2025-01-28T09:17:02Z</time>
      </trkpt>
      <trkpt lat="47.63898" lon="-2.79592">
        <ele>10.8</ele>
        <time>2025-01-28T09:17:03Z</time>
      </trkpt>
      <trkpt lat="47.63896" lon="-2.79591">
        <ele>10.7</ele>
        <time>2025-01-28T09:17:04Z</time>
      </trkpt>
      <trkpt lat="47.63895" lon="-2.7959">
        <ele>10.6</ele>
        <time>2025-01-28T09:17:05Z</time>
      </trkpt>
      <trkpt lat="47.63893" lon="-2.7959">
        <ele>10.6</ele>
        <time>2025-01-28T09:17:06Z</time>
      </trkpt>
      <trkpt lat="47.63892" lon="-2.79589">
        <ele>10.5</ele>
        <time>2025-01-28T09:17:07Z</time>
      </trkpt>
      <trkpt lat="47.63891" lon="-2.79588">
        <ele>10.4</ele>
        <time>2025-01-28T09:17:08Z</time>
      </trkpt>
      <trkpt lat="47.6389" lon="-2.79587">
        <ele>10.3</ele>
        <time>2025-01-28T09:17:09Z</time>
      </trkpt>
      <trkpt lat="47.63889" lon="-2.79586">
        <ele>10.2</ele>
        <time>2025-01-28T09:17:10Z</time>
      </trkpt>
      <trkpt lat="47.63888" lon="-2.79585">
        <ele>10.1</ele>
        <time>2025-01-28T09:17:11Z</time>
      </trkpt>
      <trkpt lat="47.63886" lon="-2.79584">
        <ele>10</ele>
        <time>2025-01-28T09:17:12Z</time>
      </trkpt>
      <trkpt lat="47.63885" lon="-2.79582">
        <ele>10</ele>
        <time>2025-01-28T09:17:13Z</time>
      </trkpt>
      <trkpt lat="47.63884" lon="-2.79582">
        <ele>9.9</ele>
        <time>2025-01-28T09:17:14Z</time>
      </trkpt>
      <trkpt lat="47.63883" lon="-2.79581">
        <ele>9.9</ele>
        <time>2025-01-28T09:17:15Z</time>
      </trkpt>
      <trkpt lat="47.63882" lon="-2.79581">
        <ele>9.9</ele>
        <time>2025-01-28T09:17:16Z</time>
      </trkpt>
      <trkpt lat="47.6388" lon="-2.7958">
        <ele>9.9</ele>
        <time>2025-01-28T09:17:17Z</time>
      </trkpt>
      <trkpt lat="47.63879" lon="-2.79579">
        <ele>9.8</ele>
        <time>2025-01-28T09:17:18Z</time>
      </trkpt>
      <trkpt lat="47.63878" lon="-2.79578">
        <ele>9.8</ele>
        <time>2025-01-28T09:17:19Z</time>
      </trkpt>
      <trkpt lat="47.63877" lon="-2.79576">
        <ele>9.7</ele>
        <time>2025-01-28T09:17:20Z</time>
      </trkpt>
      <trkpt lat="47.63876" lon="-2.79575">
        <ele>9.7</ele>
        <time>2025-01-28T09:17:21Z</time>
      </trkpt>
      <trkpt lat="47.63874" lon="-2.79574">
        <ele>9.7</ele>
        <time>2025-01-28T09:17:22Z</time>
      </trkpt>
      <trkpt lat="47.63872" lon="-2.79574">
        <ele>9.7</ele>
        <time>2025-01-28T09:17:23Z</time>
      </trkpt>
      <trkpt lat="47.63871" lon="-2.79572">
        <ele>9.6</ele>
        <time>2025-01-28T09:17:24Z</time>
      </trkpt>
      <trkpt lat="47.6387" lon="-2.79572">
        <ele>9.6</ele>
        <time>2025-01-28T09:17:25Z</time>
      </trkpt>
      <trkpt lat="47.63869" lon="-2.79571">
        <ele>9.6</ele>
        <time>2025-01-28T09:17:26Z</time>
      </trkpt>
      <trkpt lat="47.63867" lon="-2.7957">
        <ele>9.5</ele>
        <time>2025-01-28T09:17:27Z</time>
      </trkpt>
      <trkpt lat="47.63867" lon="-2.79568">
        <ele>9.4</ele>
        <time>2025-01-28T09:17:28Z</time>
      </trkpt>
      <trkpt lat="47.63866" lon="-2.79567">
        <ele>9.4</ele>
        <time>2025-01-28T09:17:29Z</time>
      </trkpt>
      <trkpt lat="47.63864" lon="-2.79566">
        <ele>9.4</ele>
        <time>2025-01-28T09:17:30Z</time>
      </trkpt>
      <trkpt lat="47.63863" lon="-2.79566">
        <ele>9.4</ele>
        <time>2025-01-28T09:17:31Z</time>
      </trkpt>
      <trkpt lat="47.63862" lon="-2.79564">
        <ele>9.3</ele>
        <time>2025-01-28T09:17:32Z</time>
      </trkpt>
      <trkpt lat="47.63861" lon="-2.79563">
        <ele>9.3</ele>
        <time>2025-01-28T09:17:33Z</time>
      </trkpt>
      <trkpt lat="47.63859" lon="-2.79563">
        <ele>9.3</ele>
        <time>2025-01-28T09:17:34Z</time>
      </trkpt>
      <trkpt lat="47.63858" lon="-2.79562">
        <ele>9.2</ele>
        <time>2025-01-28T09:17:35Z</time>
      </trkpt>
      <trkpt lat="47.63857" lon="-2.79562">
        <ele>9.2</ele>
        <time>2025-01-28T09:17:36Z</time>
      </trkpt>
      <trkpt lat="47.63855" lon="-2.79562">
        <ele>9.2</ele>
        <time>2025-01-28T09:17:37Z</time>
      </trkpt>
      <trkpt lat="47.63854" lon="-2.79562">
        <ele>9.2</ele>
        <time>2025-01-28T09:17:38Z</time>
      </trkpt>
      <trkpt lat="47.63853" lon="-2.79561">
        <ele>9.2</ele>
        <time>2025-01-28T09:17:39Z</time>
      </trkpt>
      <trkpt lat="47.63852" lon="-2.7956">
        <ele>9.2</ele>
        <time>2025-01-28T09:17:40Z</time>
      </trkpt>
      <trkpt lat="47.63851" lon="-2.79559">
        <ele>9.1</ele>
        <time>2025-01-28T09:17:41Z</time>
      </trkpt>
      <trkpt lat="47.63849" lon="-2.79558">
        <ele>9.1</ele>
        <time>2025-01-28T09:17:42Z</time>
      </trkpt>
      <trkpt lat="47.63849" lon="-2.79557">
        <ele>9.1</ele>
        <time>2025-01-28T09:17:43Z</time>
      </trkpt>
      <trkpt lat="47.63847" lon="-2.79557">
        <ele>9</ele>
        <time>2025-01-28T09:17:44Z</time>
      </trkpt>
      <trkpt lat="47.63846" lon="-2.79556">
        <ele>9</ele>
        <time>2025-01-28T09:17:45Z</time>
      </trkpt>
      <trkpt lat="47.63845" lon="-2.79556">
        <ele>9</ele>
        <time>2025-01-28T09:17:46Z</time>
      </trkpt>
      <trkpt lat="47.63844" lon="-2.79556">
        <ele>9</ele>
        <time>2025-01-28T09:17:47Z</time>
      </trkpt>
      <trkpt lat="47.63842" lon="-2.79555">
        <ele>9</ele>
        <time>2025-01-28T09:17:48Z</time>
      </trkpt>
      <trkpt lat="47.63841" lon="-2.79555">
        <ele>9</ele>
        <time>2025-01-28T09:17:49Z</time>
      </trkpt>
      <trkpt lat="47.6384" lon="-2.79554">
        <ele>9</ele>
        <time>2025-01-28T09:17:50Z</time>
      </trkpt>
      <trkpt lat="47.63838" lon="-2.79555">
        <ele>9</ele>
        <time>2025-01-28T09:17:51Z</time>
      </trkpt>
      <trkpt lat="47.63837" lon="-2.79555">
        <ele>9</ele>
        <time>2025-01-28T09:17:52Z</time>
      </trkpt>
      <trkpt lat="47.63835" lon="-2.79554">
        <ele>8.9</ele>
        <time>2025-01-28T09:17:53Z</time>
      </trkpt>
      <trkpt lat="47.63834" lon="-2.79552">
        <ele>8.9</ele>
        <time>2025-01-28T09:17:54Z</time>
      </trkpt>
      <trkpt lat="47.63833" lon="-2.79551">
        <ele>8.8</ele>
        <time>2025-01-28T09:17:55Z</time>
      </trkpt>
      <trkpt lat="47.63832" lon="-2.7955">
        <ele>8.7</ele>
        <time>2025-01-28T09:17:56Z</time>
      </trkpt>
      <trkpt lat="47.63831" lon="-2.79549">
        <ele>8.7</ele>
        <time>2025-01-28T09:17:57Z</time>
      </trkpt>
      <trkpt lat="47.63829" lon="-2.79548">
        <ele>8.6</ele>
        <time>2025-01-28T09:17:58Z</time>
      </trkpt>
      <trkpt lat="47.63828" lon="-2.79547">
        <ele>8.5</ele>
        <time>2025-01-28T09:17:59Z</time>
      </trkpt>
      <trkpt lat="47.63827" lon="-2.79546">
        <ele>8.4</ele>
        <time>2025-01-28T09:18:00Z</time>
      </trkpt>
      <trkpt lat="47.63826" lon="-2.79546">
        <ele>8.4</ele>
        <time>2025-01-28T09:18:01Z</time>
      </trkpt>
      <trkpt lat="47.63824" lon="-2.79545">
        <ele>8.3</ele>
        <time>2025-01-28T09:18:02Z</time>
      </trkpt>
      <trkpt lat="47.63823" lon="-2.79545">
        <ele>8.2</ele>
        <time>2025-01-28T09:18:03Z</time>
      </trkpt>
      <trkpt lat="47.63822" lon="-2.79544">
        <ele>8.2</ele>
        <time>2025-01-28T09:18:04Z</time>
      </trkpt>
      <trkpt lat="47.63821" lon="-2.79544">
        <ele>8.1</ele>
        <time>2025-01-28T09:18:05Z</time>
      </trkpt>
      <trkpt lat="47.6382" lon="-2.79543">
        <ele>8.1</ele>
        <time>2025-01-28T09:18:06Z</time>
      </trkpt>
      <trkpt lat="47.63819" lon="-2.79541">
        <ele>7.9</ele>
        <time>2025-01-28T09:18:07Z</time>
      </trkpt>
      <trkpt lat="47.63818" lon="-2.79539">
        <ele>7.8</ele>
        <time>2025-01-28T09:18:08Z</time>
      </trkpt>
      <trkpt lat="47.63816" lon="-2.79539">
        <ele>7.8</ele>
        <time>2025-01-28T09:18:09Z</time>
      </trkpt>
      <trkpt lat="47.63815" lon="-2.79538">
        <ele>7.7</ele>
        <time>2025-01-28T09:18:10Z</time>
      </trkpt>
      <trkpt lat="47.63814" lon="-2.79537">
        <ele>7.6</ele>
        <time>2025-01-28T09:18:11Z</time>
      </trkpt>
      <trkpt lat="47.63813" lon="-2.79536">
        <ele>7.6</ele>
        <time>2025-01-28T09:18:12Z</time>
      </trkpt>
      <trkpt lat="47.63812" lon="-2.79536">
        <ele>7.5</ele>
        <time>2025-01-28T09:18:13Z</time>
      </trkpt>
      <trkpt lat="47.63811" lon="-2.79535">
        <ele>7.4</ele>
        <time>2025-01-28T09:18:14Z</time>
      </trkpt>
      <trkpt lat="47.63809" lon="-2.79534">
        <ele>7.4</ele>
        <time>2025-01-28T09:18:15Z</time>
      </trkpt>
      <trkpt lat="47.63808" lon="-2.79534">
        <ele>7.3</ele>
        <time>2025-01-28T09:18:16Z</time>
      </trkpt>
      <trkpt lat="47.63807" lon="-2.79533">
        <ele>7.2</ele>
        <time>2025-01-28T09:18:17Z</time>
      </trkpt>
      <trkpt lat="47.63806" lon="-2.79532">
        <ele>7.2</ele>
        <time>2025-01-28T09:18:18Z</time>
      </trkpt>
      <trkpt lat="47.63805" lon="-2.79531">
        <ele>7.1</ele>
        <time>2025-01-28T09:18:19Z</time>
      </trkpt>
      <trkpt lat="47.63804" lon="-2.7953">
        <ele>7</ele>
        <time>2025-01-28T09:18:20Z</time>
      </trkpt>
      <trkpt lat="47.63803" lon="-2.7953">
        <ele>6.9</ele>
        <time>2025-01-28T09:18:21Z</time>
      </trkpt>
      <trkpt lat="47.63801" lon="-2.79529">
        <ele>6.9</ele>
        <time>2025-01-28T09:18:22Z</time>
      </trkpt>
      <trkpt lat="47.638" lon="-2.79529">
        <ele>6.8</ele>
        <time>2025-01-28T09:18:23Z</time>
      </trkpt>
      <trkpt lat="47.63799" lon="-2.79528">
        <ele>6.8</ele>
        <time>2025-01-28T09:18:24Z</time>
      </trkpt>
      <trkpt lat="47.63798" lon="-2.79527">
        <ele>6.7</ele>
        <time>2025-01-28T09:18:25Z</time>
      </trkpt>
      <trkpt lat="47.63797" lon="-2.79525">
        <ele>6.7</ele>
        <time>2025-01-28T09:18:26Z</time>
      </trkpt>
      <trkpt lat="47.63796" lon="-2.79525">
        <ele>6.7</ele>
        <time>2025-01-28T09:18:27Z</time>
      </trkpt>
      <trkpt lat="47.63795" lon="-2.79524">
        <ele>6.6</ele>
        <time>2025-01-28T09:18:28Z</time>
      </trkpt>
      <trkpt lat="47.63794" lon="-2.79524">
        <ele>6.6</ele>
        <time>2025-01-28T09:18:29Z</time>
      </trkpt>
      <trkpt lat="47.63792" lon="-2.79524">
        <ele>6.5</ele>
        <time>2025-01-28T09:18:30Z</time>
      </trkpt>
      <trkpt lat="47.63791" lon="-2.79523">
        <ele>6.5</ele>
        <time>2025-01-28T09:18:31Z</time>
      </trkpt>
      <trkpt lat="47.6379" lon="-2.79522">
        <ele>6.5</ele>
        <time>2025-01-28T09:18:32Z</time>
      </trkpt>
      <trkpt lat="47.63789" lon="-2.79521">
        <ele>6.4</ele>
        <time>2025-01-28T09:18:33Z</time>
      </trkpt>
      <trkpt lat="47.63788" lon="-2.7952">
        <ele>6.4</ele>
        <time>2025-01-28T09:18:34Z</time>
      </trkpt>
      <trkpt lat="47.63787" lon="-2.79519">
        <ele>6.3</ele>
        <time>2025-01-28T09:18:35Z</time>
      </trkpt>
      <trkpt lat="47.63785" lon="-2.79519">
        <ele>6.3</ele>
        <time>2025-01-28T09:18:36Z</time>
      </trkpt>
      <trkpt lat="47.63784" lon="-2.79518">
        <ele>6.2</ele>
        <time>2025-01-28T09:18:37Z</time>
      </trkpt>
      <trkpt lat="47.63783" lon="-2.79517">
        <ele>6.2</ele>
        <time>2025-01-28T09:18:38Z</time>
      </trkpt>
      <trkpt lat="47.63782" lon="-2.79517">
        <ele>6.1</ele>
        <time>2025-01-28T09:18:39Z</time>
      </trkpt>
      <trkpt lat="47.63781" lon="-2.79515">
        <ele>6.1</ele>
        <time>2025-01-28T09:18:40Z</time>
      </trkpt>
      <trkpt lat="47.63779" lon="-2.79515">
        <ele>6.1</ele>
        <time>2025-01-28T09:18:41Z</time>
      </trkpt>
      <trkpt lat="47.63778" lon="-2.79515">
        <ele>6</ele>
        <time>2025-01-28T09:18:42Z</time>
      </trkpt>
      <trkpt lat="47.63777" lon="-2.79514">
        <ele>6</ele>
        <time>2025-01-28T09:18:43Z</time>
      </trkpt>
      <trkpt lat="47.63777" lon="-2.79513">
        <ele>6</ele>
        <time>2025-01-28T09:18:44Z</time>
      </trkpt>
      <trkpt lat="47.63776" lon="-2.79513">
        <ele>6</ele>
        <time>2025-01-28T09:18:45Z</time>
      </trkpt>
      <trkpt lat="47.63775" lon="-2.79511">
        <ele>6</ele>
        <time>2025-01-28T09:18:46Z</time>
      </trkpt>
      <trkpt lat="47.63773" lon="-2.7951">
        <ele>6.1</ele>
        <time>2025-01-28T09:18:47Z</time>
      </trkpt>
      <trkpt lat="47.63772" lon="-2.7951">
        <ele>6.1</ele>
        <time>2025-01-28T09:18:48Z</time>
      </trkpt>
      <trkpt lat="47.63771" lon="-2.7951">
        <ele>6.1</ele>
        <time>2025-01-28T09:18:49Z</time>
      </trkpt>
      <trkpt lat="47.6377" lon="-2.79509">
        <ele>6.1</ele>
        <time>2025-01-28T09:18:50Z</time>
      </trkpt>
      <trkpt lat="47.63768" lon="-2.79508">
        <ele>6.1</ele>
        <time>2025-01-28T09:18:51Z</time>
      </trkpt>
      <trkpt lat="47.63767" lon="-2.79508">
        <ele>6.1</ele>
        <time>2025-01-28T09:18:52Z</time>
      </trkpt>
      <trkpt lat="47.63766" lon="-2.79507">
        <ele>6.1</ele>
        <time>2025-01-28T09:18:53Z</time>
      </trkpt>
      <trkpt lat="47.63765" lon="-2.79506">
        <ele>6.1</ele>
        <time>2025-01-28T09:18:54Z</time>
      </trkpt>
      <trkpt lat="47.63764" lon="-2.79505">
        <ele>6.1</ele>
        <time>2025-01-28T09:18:55Z</time>
      </trkpt>
      <trkpt lat="47.63763" lon="-2.79505">
        <ele>6.1</ele>
        <time>2025-01-28T09:18:56Z</time>
      </trkpt>
      <trkpt lat="47.63761" lon="-2.79505">
        <ele>6.1</ele>
        <time>2025-01-28T09:18:57Z</time>
      </trkpt>
      <trkpt lat="47.6376" lon="-2.79503">
        <ele>6.1</ele>
        <time>2025-01-28T09:18:58Z</time>
      </trkpt>
      <trkpt lat="47.63759" lon="-2.79502">
        <ele>6</ele>
        <time>2025-01-28T09:18:59Z</time>
      </trkpt>
      <trkpt lat="47.63758" lon="-2.79502">
        <ele>6</ele>
        <time>2025-01-28T09:19:00Z</time>
      </trkpt>
      <trkpt lat="47.63757" lon="-2.795">
        <ele>6</ele>
        <time>2025-01-28T09:19:01Z</time>
      </trkpt>
      <trkpt lat="47.63756" lon="-2.795">
        <ele>6</ele>
        <time>2025-01-28T09:19:02Z</time>
      </trkpt>
      <trkpt lat="47.63754" lon="-2.79499">
        <ele>5.9</ele>
        <time>2025-01-28T09:19:03Z</time>
      </trkpt>
      <trkpt lat="47.63753" lon="-2.79499">
        <ele>5.9</ele>
        <time>2025-01-28T09:19:04Z</time>
      </trkpt>
      <trkpt lat="47.63752" lon="-2.79499">
        <ele>5.9</ele>
        <time>2025-01-28T09:19:05Z</time>
      </trkpt>
      <trkpt lat="47.63751" lon="-2.79499">
        <ele>5.9</ele>
        <time>2025-01-28T09:19:06Z</time>
      </trkpt>
      <trkpt lat="47.63749" lon="-2.79499">
        <ele>5.9</ele>
        <time>2025-01-28T09:19:07Z</time>
      </trkpt>
      <trkpt lat="47.63748" lon="-2.79499">
        <ele>6</ele>
        <time>2025-01-28T09:19:08Z</time>
      </trkpt>
      <trkpt lat="47.63747" lon="-2.79498">
        <ele>6</ele>
        <time>2025-01-28T09:19:09Z</time>
      </trkpt>
      <trkpt lat="47.63746" lon="-2.79498">
        <ele>6</ele>
        <time>2025-01-28T09:19:10Z</time>
      </trkpt>
      <trkpt lat="47.63745" lon="-2.79497">
        <ele>5.9</ele>
        <time>2025-01-28T09:19:11Z</time>
      </trkpt>
      <trkpt lat="47.63745" lon="-2.79496">
        <ele>5.9</ele>
        <time>2025-01-28T09:19:12Z</time>
      </trkpt>
      <trkpt lat="47.63745" lon="-2.79495">
        <ele>5.9</ele>
        <time>2025-01-28T09:19:13Z</time>
      </trkpt>
      <trkpt lat="47.63745" lon="-2.79495">
        <ele>5.8</ele>
        <time>2025-01-28T09:19:14Z</time>
      </trkpt>
      <trkpt lat="47.63744" lon="-2.79494">
        <ele>5.8</ele>
        <time>2025-01-28T09:19:15Z</time>
      </trkpt>
      <trkpt lat="47.63745" lon="-2.79494">
        <ele>5.7</ele>
        <time>2025-01-28T09:19:16Z</time>
      </trkpt>
      <trkpt lat="47.63745" lon="-2.79493">
        <ele>5.7</ele>
        <time>2025-01-28T09:19:17Z</time>
      </trkpt>
      <trkpt lat="47.63745" lon="-2.79493">
        <ele>5.7</ele>
        <time>2025-01-28T09:19:18Z</time>
      </trkpt>
      <trkpt lat="47.63744" lon="-2.79492">
        <ele>5.6</ele>
        <time>2025-01-28T09:19:19Z</time>
      </trkpt>
      <trkpt lat="47.63744" lon="-2.79491">
        <ele>5.6</ele>
        <time>2025-01-28T09:19:20Z</time>
      </trkpt>
      <trkpt lat="47.63743" lon="-2.7949">
        <ele>5.5</ele>
        <time>2025-01-28T09:19:21Z</time>
      </trkpt>
      <trkpt lat="47.63742" lon="-2.79489">
        <ele>5.5</ele>
        <time>2025-01-28T09:19:22Z</time>
      </trkpt>
      <trkpt lat="47.63741" lon="-2.79488">
        <ele>5.5</ele>
        <time>2025-01-28T09:19:23Z</time>
      </trkpt>
      <trkpt lat="47.6374" lon="-2.79486">
        <ele>5.4</ele>
        <time>2025-01-28T09:19:24Z</time>
      </trkpt>
      <trkpt lat="47.63739" lon="-2.79485">
        <ele>5.3</ele>
        <time>2025-01-28T09:19:25Z</time>
      </trkpt>
      <trkpt lat="47.63738" lon="-2.79485">
        <ele>5.4</ele>
        <time>2025-01-28T09:19:26Z</time>
      </trkpt>
      <trkpt lat="47.63737" lon="-2.79485">
        <ele>5.4</ele>
        <time>2025-01-28T09:19:27Z</time>
      </trkpt>
      <trkpt lat="47.63735" lon="-2.79484">
        <ele>5.4</ele>
        <time>2025-01-28T09:19:28Z</time>
      </trkpt>
      <trkpt lat="47.63734" lon="-2.79484">
        <ele>5.5</ele>
        <time>2025-01-28T09:19:29Z</time>
      </trkpt>
      <trkpt lat="47.63733" lon="-2.79484">
        <ele>5.5</ele>
        <time>2025-01-28T09:19:30Z</time>
      </trkpt>
      <trkpt lat="47.63732" lon="-2.79484">
        <ele>5.5</ele>
        <time>2025-01-28T09:19:31Z</time>
      </trkpt>
      <trkpt lat="47.63735" lon="-2.79484">
        <ele>5.4</ele>
        <time>2025-01-28T09:19:32Z</time>
      </trkpt>
      <trkpt lat="47.63734" lon="-2.79485">
        <ele>5.5</ele>
        <time>2025-01-28T09:19:33Z</time>
      </trkpt>
      <trkpt lat="47.63733" lon="-2.79484">
        <ele>5.4</ele>
        <time>2025-01-28T09:19:34Z</time>
      </trkpt>
      <trkpt lat="47.63732" lon="-2.79483">
        <ele>5.4</ele>
        <time>2025-01-28T09:19:35Z</time>
      </trkpt>
      <trkpt lat="47.63731" lon="-2.79483">
        <ele>5.4</ele>
        <time>2025-01-28T09:19:36Z</time>
      </trkpt>
      <trkpt lat="47.6373" lon="-2.79483">
        <ele>5.5</ele>
        <time>2025-01-28T09:19:37Z</time>
      </trkpt>
      <trkpt lat="47.63728" lon="-2.79483">
        <ele>5.6</ele>
        <time>2025-01-28T09:19:38Z</time>
      </trkpt>
      <trkpt lat="47.63728" lon="-2.79483">
        <ele>5.5</ele>
        <time>2025-01-28T09:19:39Z</time>
      </trkpt>
      <trkpt lat="47.63727" lon="-2.79482">
        <ele>5.5</ele>
        <time>2025-01-28T09:19:40Z</time>
      </trkpt>
      <trkpt lat="47.63725" lon="-2.79481">
        <ele>5.5</ele>
        <time>2025-01-28T09:19:41Z</time>
      </trkpt>
      <trkpt lat="47.63723" lon="-2.7948">
        <ele>5.5</ele>
        <time>2025-01-28T09:19:42Z</time>
      </trkpt>
      <trkpt lat="47.63722" lon="-2.79478">
        <ele>5.4</ele>
        <time>2025-01-28T09:19:43Z</time>
      </trkpt>
      <trkpt lat="47.6372" lon="-2.79478">
        <ele>5.4</ele>
        <time>2025-01-28T09:19:44Z</time>
      </trkpt>
      <trkpt lat="47.63718" lon="-2.79477">
        <ele>5.4</ele>
        <time>2025-01-28T09:19:45Z</time>
      </trkpt>
      <trkpt lat="47.63717" lon="-2.79477">
        <ele>5.3</ele>
        <time>2025-01-28T09:19:46Z</time>
      </trkpt>
      <trkpt lat="47.63715" lon="-2.79475">
        <ele>5.2</ele>
        <time>2025-01-28T09:19:47Z</time>
      </trkpt>
      <trkpt lat="47.63714" lon="-2.79474">
        <ele>5.1</ele>
        <time>2025-01-28T09:19:48Z</time>
      </trkpt>
      <trkpt lat="47.63712" lon="-2.79472">
        <ele>5</ele>
        <time>2025-01-28T09:19:49Z</time>
      </trkpt>
      <trkpt lat="47.63711" lon="-2.79472">
        <ele>5</ele>
        <time>2025-01-28T09:19:50Z</time>
      </trkpt>
      <trkpt lat="47.63709" lon="-2.7947">
        <ele>4.9</ele>
        <time>2025-01-28T09:19:51Z</time>
      </trkpt>
      <trkpt lat="47.63709" lon="-2.7947">
        <ele>4.9</ele>
        <time>2025-01-28T09:19:52Z</time>
      </trkpt>
      <trkpt lat="47.63707" lon="-2.7947">
        <ele>4.9</ele>
        <time>2025-01-28T09:19:53Z</time>
      </trkpt>
      <trkpt lat="47.63706" lon="-2.7947">
        <ele>4.9</ele>
        <time>2025-01-28T09:19:54Z</time>
      </trkpt>
      <trkpt lat="47.63705" lon="-2.79469">
        <ele>4.9</ele>
        <time>2025-01-28T09:19:55Z</time>
      </trkpt>
      <trkpt lat="47.63704" lon="-2.79469">
        <ele>4.8</ele>
        <time>2025-01-28T09:19:56Z</time>
      </trkpt>
      <trkpt lat="47.63702" lon="-2.79467">
        <ele>4.8</ele>
        <time>2025-01-28T09:19:57Z</time>
      </trkpt>
      <trkpt lat="47.63701" lon="-2.79466">
        <ele>4.7</ele>
        <time>2025-01-28T09:19:58Z</time>
      </trkpt>
      <trkpt lat="47.637" lon="-2.79466">
        <ele>4.7</ele>
        <time>2025-01-28T09:19:59Z</time>
      </trkpt>
      <trkpt lat="47.63699" lon="-2.79465">
        <ele>4.7</ele>
        <time>2025-01-28T09:20:00Z</time>
      </trkpt>
      <trkpt lat="47.63698" lon="-2.79465">
        <ele>4.7</ele>
        <time>2025-01-28T09:20:01Z</time>
      </trkpt>
      <trkpt lat="47.63697" lon="-2.79465">
        <ele>4.7</ele>
        <time>2025-01-28T09:20:02Z</time>
      </trkpt>
      <trkpt lat="47.63696" lon="-2.79464">
        <ele>4.7</ele>
        <time>2025-01-28T09:20:03Z</time>
      </trkpt>
      <trkpt lat="47.63695" lon="-2.79462">
        <ele>4.6</ele>
        <time>2025-01-28T09:20:04Z</time>
      </trkpt>
      <trkpt lat="47.63694" lon="-2.79462">
        <ele>4.6</ele>
        <time>2025-01-28T09:20:05Z</time>
      </trkpt>
      <trkpt lat="47.63693" lon="-2.79461">
        <ele>4.6</ele>
        <time>2025-01-28T09:20:06Z</time>
      </trkpt>
      <trkpt lat="47.63691" lon="-2.7946">
        <ele>4.6</ele>
        <time>2025-01-28T09:20:07Z</time>
      </trkpt>
      <trkpt lat="47.6369" lon="-2.79459">
        <ele>4.6</ele>
        <time>2025-01-28T09:20:08Z</time>
      </trkpt>
      <trkpt lat="47.63689" lon="-2.79458">
        <ele>4.6</ele>
        <time>2025-01-28T09:20:09Z</time>
      </trkpt>
      <trkpt lat="47.63689" lon="-2.79457">
        <ele>4.5</ele>
        <time>2025-01-28T09:20:10Z</time>
      </trkpt>
      <trkpt lat="47.63688" lon="-2.79457">
        <ele>4.5</ele>
        <time>2025-01-28T09:20:11Z</time>
      </trkpt>
      <trkpt lat="47.63686" lon="-2.79456">
        <ele>4.6</ele>
        <time>2025-01-28T09:20:12Z</time>
      </trkpt>
      <trkpt lat="47.63685" lon="-2.79455">
        <ele>4.5</ele>
        <time>2025-01-28T09:20:13Z</time>
      </trkpt>
      <trkpt lat="47.63684" lon="-2.79454">
        <ele>4.5</ele>
        <time>2025-01-28T09:20:14Z</time>
      </trkpt>
      <trkpt lat="47.63683" lon="-2.79454">
        <ele>4.5</ele>
        <time>2025-01-28T09:20:15Z</time>
      </trkpt>
      <trkpt lat="47.63682" lon="-2.79453">
        <ele>4.4</ele>
        <time>2025-01-28T09:20:16Z</time>
      </trkpt>
      <trkpt lat="47.6368" lon="-2.79452">
        <ele>4.4</ele>
        <time>2025-01-28T09:20:17Z</time>
      </trkpt>
      <trkpt lat="47.63679" lon="-2.79452">
        <ele>4.4</ele>
        <time>2025-01-28T09:20:18Z</time>
      </trkpt>
      <trkpt lat="47.63677" lon="-2.79451">
        <ele>4.4</ele>
        <time>2025-01-28T09:20:19Z</time>
      </trkpt>
      <trkpt lat="47.63676" lon="-2.7945">
        <ele>4.3</ele>
        <time>2025-01-28T09:20:20Z</time>
      </trkpt>
      <trkpt lat="47.63676" lon="-2.79448">
        <ele>4.2</ele>
        <time>2025-01-28T09:20:21Z</time>
      </trkpt>
      <trkpt lat="47.63675" lon="-2.79447">
        <ele>4.1</ele>
        <time>2025-01-28T09:20:22Z</time>
      </trkpt>
      <trkpt lat="47.63674" lon="-2.79446">
        <ele>4.1</ele>
        <time>2025-01-28T09:20:23Z</time>
      </trkpt>
      <trkpt lat="47.63672" lon="-2.79445">
        <ele>4.1</ele>
        <time>2025-01-28T09:20:24Z</time>
      </trkpt>
      <trkpt lat="47.63671" lon="-2.79446">
        <ele>4.1</ele>
        <time>2025-01-28T09:20:25Z</time>
      </trkpt>
      <trkpt lat="47.63669" lon="-2.79445">
        <ele>4.1</ele>
        <time>2025-01-28T09:20:26Z</time>
      </trkpt>
      <trkpt lat="47.63668" lon="-2.79445">
        <ele>4</ele>
        <time>2025-01-28T09:20:27Z</time>
      </trkpt>
      <trkpt lat="47.63668" lon="-2.79443">
        <ele>4</ele>
        <time>2025-01-28T09:20:28Z</time>
      </trkpt>
      <trkpt lat="47.63667" lon="-2.79441">
        <ele>4</ele>
        <time>2025-01-28T09:20:29Z</time>
      </trkpt>
      <trkpt lat="47.63665" lon="-2.7944">
        <ele>4</ele>
        <time>2025-01-28T09:20:30Z</time>
      </trkpt>
      <trkpt lat="47.63664" lon="-2.7944">
        <ele>4</ele>
        <time>2025-01-28T09:20:31Z</time>
      </trkpt>
      <trkpt lat="47.63663" lon="-2.79439">
        <ele>4</ele>
        <time>2025-01-28T09:20:32Z</time>
      </trkpt>
      <trkpt lat="47.63661" lon="-2.79439">
        <ele>4</ele>
        <time>2025-01-28T09:20:33Z</time>
      </trkpt>
      <trkpt lat="47.6366" lon="-2.79438">
        <ele>4</ele>
        <time>2025-01-28T09:20:34Z</time>
      </trkpt>
      <trkpt lat="47.63659" lon="-2.79437">
        <ele>4</ele>
        <time>2025-01-28T09:20:35Z</time>
      </trkpt>
      <trkpt lat="47.63658" lon="-2.79437">
        <ele>4</ele>
        <time>2025-01-28T09:20:36Z</time>
      </trkpt>
      <trkpt lat="47.63657" lon="-2.79436">
        <ele>4</ele>
        <time>2025-01-28T09:20:37Z</time>
      </trkpt>
      <trkpt lat="47.63655" lon="-2.79437">
        <ele>4</ele>
        <time>2025-01-28T09:20:38Z</time>
      </trkpt>
      <trkpt lat="47.63654" lon="-2.79436">
        <ele>4</ele>
        <time>2025-01-28T09:20:39Z</time>
      </trkpt>
      <trkpt lat="47.63652" lon="-2.79436">
        <ele>4</ele>
        <time>2025-01-28T09:20:40Z</time>
      </trkpt>
      <trkpt lat="47.63651" lon="-2.79435">
        <ele>4</ele>
        <time>2025-01-28T09:20:41Z</time>
      </trkpt>
      <trkpt lat="47.6365" lon="-2.79435">
        <ele>4</ele>
        <time>2025-01-28T09:20:42Z</time>
      </trkpt>
      <trkpt lat="47.63649" lon="-2.79434">
        <ele>4</ele>
        <time>2025-01-28T09:20:43Z</time>
      </trkpt>
      <trkpt lat="47.63648" lon="-2.79434">
        <ele>4</ele>
        <time>2025-01-28T09:20:44Z</time>
      </trkpt>
      <trkpt lat="47.63646" lon="-2.79433">
        <ele>4</ele>
        <time>2025-01-28T09:20:45Z</time>
      </trkpt>
      <trkpt lat="47.63645" lon="-2.79432">
        <ele>4</ele>
        <time>2025-01-28T09:20:46Z</time>
      </trkpt>
      <trkpt lat="47.63644" lon="-2.79431">
        <ele>4</ele>
        <time>2025-01-28T09:20:47Z</time>
      </trkpt>
      <trkpt lat="47.63643" lon="-2.7943">
        <ele>4</ele>
        <time>2025-01-28T09:20:48Z</time>
      </trkpt>
      <trkpt lat="47.63642" lon="-2.7943">
        <ele>4</ele>
        <time>2025-01-28T09:20:49Z</time>
      </trkpt>
      <trkpt lat="47.6364" lon="-2.79429">
        <ele>4</ele>
        <time>2025-01-28T09:20:50Z</time>
      </trkpt>
      <trkpt lat="47.63639" lon="-2.79428">
        <ele>4</ele>
        <time>2025-01-28T09:20:51Z</time>
      </trkpt>
      <trkpt lat="47.63638" lon="-2.79427">
        <ele>4</ele>
        <time>2025-01-28T09:20:52Z</time>
      </trkpt>
      <trkpt lat="47.63637" lon="-2.79427">
        <ele>4</ele>
        <time>2025-01-28T09:20:53Z</time>
      </trkpt>
      <trkpt lat="47.63636" lon="-2.79426">
        <ele>4</ele>
        <time>2025-01-28T09:20:54Z</time>
      </trkpt>
      <trkpt lat="47.63635" lon="-2.79426">
        <ele>3.9</ele>
        <time>2025-01-28T09:20:55Z</time>
      </trkpt>
      <trkpt lat="47.63634" lon="-2.79426">
        <ele>3.9</ele>
        <time>2025-01-28T09:20:56Z</time>
      </trkpt>
      <trkpt lat="47.63632" lon="-2.79425">
        <ele>3.9</ele>
        <time>2025-01-28T09:20:57Z</time>
      </trkpt>
      <trkpt lat="47.63631" lon="-2.79425">
        <ele>3.9</ele>
        <time>2025-01-28T09:20:58Z</time>
      </trkpt>
      <trkpt lat="47.6363" lon="-2.79425">
        <ele>3.9</ele>
        <time>2025-01-28T09:20:59Z</time>
      </trkpt>
      <trkpt lat="47.63628" lon="-2.79425">
        <ele>3.9</ele>
        <time>2025-01-28T09:21:00Z</time>
      </trkpt>
      <trkpt lat="47.63627" lon="-2.79425">
        <ele>3.9</ele>
        <time>2025-01-28T09:21:01Z</time>
      </trkpt>
      <trkpt lat="47.63626" lon="-2.79425">
        <ele>3.9</ele>
        <time>2025-01-28T09:21:02Z</time>
      </trkpt>
      <trkpt lat="47.63625" lon="-2.79425">
        <ele>3.8</ele>
        <time>2025-01-28T09:21:03Z</time>
      </trkpt>
      <trkpt lat="47.63624" lon="-2.79425">
        <ele>3.8</ele>
        <time>2025-01-28T09:21:04Z</time>
      </trkpt>
      <trkpt lat="47.63623" lon="-2.79424">
        <ele>3.8</ele>
        <time>2025-01-28T09:21:05Z</time>
      </trkpt>
      <trkpt lat="47.63622" lon="-2.79424">
        <ele>3.8</ele>
        <time>2025-01-28T09:21:06Z</time>
      </trkpt>
      <trkpt lat="47.63621" lon="-2.79424">
        <ele>3.8</ele>
        <time>2025-01-28T09:21:07Z</time>
      </trkpt>
      <trkpt lat="47.6362" lon="-2.79425">
        <ele>3.8</ele>
        <time>2025-01-28T09:21:08Z</time>
      </trkpt>
      <trkpt lat="47.63619" lon="-2.79425">
        <ele>3.8</ele>
        <time>2025-01-28T09:21:09Z</time>
      </trkpt>
      <trkpt lat="47.63618" lon="-2.79425">
        <ele>3.8</ele>
        <time>2025-01-28T09:21:10Z</time>
      </trkpt>
      <trkpt lat="47.63617" lon="-2.79424">
        <ele>3.8</ele>
        <time>2025-01-28T09:21:11Z</time>
      </trkpt>
      <trkpt lat="47.63616" lon="-2.79423">
        <ele>3.8</ele>
        <time>2025-01-28T09:21:12Z</time>
      </trkpt>
      <trkpt lat="47.63615" lon="-2.79422">
        <ele>3.8</ele>
        <time>2025-01-28T09:21:13Z</time>
      </trkpt>
      <trkpt lat="47.63614" lon="-2.79422">
        <ele>3.8</ele>
        <time>2025-01-28T09:21:14Z</time>
      </trkpt>
      <trkpt lat="47.63613" lon="-2.79421">
        <ele>3.9</ele>
        <time>2025-01-28T09:21:15Z</time>
      </trkpt>
      <trkpt lat="47.63612" lon="-2.79421">
        <ele>3.8</ele>
        <time>2025-01-28T09:21:16Z</time>
      </trkpt>
      <trkpt lat="47.6361" lon="-2.7942">
        <ele>3.9</ele>
        <time>2025-01-28T09:21:17Z</time>
      </trkpt>
      <trkpt lat="47.63609" lon="-2.7942">
        <ele>4</ele>
        <time>2025-01-28T09:21:18Z</time>
      </trkpt>
      <trkpt lat="47.63608" lon="-2.7942">
        <ele>4</ele>
        <time>2025-01-28T09:21:19Z</time>
      </trkpt>
      <trkpt lat="47.63606" lon="-2.7942">
        <ele>4.1</ele>
        <time>2025-01-28T09:21:20Z</time>
      </trkpt>
      <trkpt lat="47.63605" lon="-2.79419">
        <ele>4.1</ele>
        <time>2025-01-28T09:21:21Z</time>
      </trkpt>
      <trkpt lat="47.63604" lon="-2.79419">
        <ele>4.2</ele>
        <time>2025-01-28T09:21:22Z</time>
      </trkpt>
      <trkpt lat="47.63603" lon="-2.79418">
        <ele>4.3</ele>
        <time>2025-01-28T09:21:23Z</time>
      </trkpt>
      <trkpt lat="47.63601" lon="-2.79417">
        <ele>4.3</ele>
        <time>2025-01-28T09:21:24Z</time>
      </trkpt>
      <trkpt lat="47.63601" lon="-2.79417">
        <ele>4.4</ele>
        <time>2025-01-28T09:21:25Z</time>
      </trkpt>
      <trkpt lat="47.636" lon="-2.79417">
        <ele>4.4</ele>
        <time>2025-01-28T09:21:26Z</time>
      </trkpt>
      <trkpt lat="47.63599" lon="-2.79416">
        <ele>4.4</ele>
        <time>2025-01-28T09:21:27Z</time>
      </trkpt>
      <trkpt lat="47.63598" lon="-2.79415">
        <ele>4.4</ele>
        <time>2025-01-28T09:21:28Z</time>
      </trkpt>
      <trkpt lat="47.63597" lon="-2.79413">
        <ele>4.5</ele>
        <time>2025-01-28T09:21:29Z</time>
      </trkpt>
      <trkpt lat="47.63596" lon="-2.79412">
        <ele>4.4</ele>
        <time>2025-01-28T09:21:30Z</time>
      </trkpt>
      <trkpt lat="47.63596" lon="-2.7941">
        <ele>4.4</ele>
        <time>2025-01-28T09:21:31Z</time>
      </trkpt>
      <trkpt lat="47.63596" lon="-2.79409">
        <ele>4.4</ele>
        <time>2025-01-28T09:21:32Z</time>
      </trkpt>
      <trkpt lat="47.63596" lon="-2.79409">
        <ele>4.4</ele>
        <time>2025-01-28T09:21:33Z</time>
      </trkpt>
      <trkpt lat="47.63597" lon="-2.79408">
        <ele>4.4</ele>
        <time>2025-01-28T09:21:34Z</time>
      </trkpt>
      <trkpt lat="47.63597" lon="-2.79408">
        <ele>4.4</ele>
        <time>2025-01-28T09:21:35Z</time>
      </trkpt>
      <trkpt lat="47.63597" lon="-2.79408">
        <ele>4.4</ele>
        <time>2025-01-28T09:21:36Z</time>
      </trkpt>
      <trkpt lat="47.63597" lon="-2.79408">
        <ele>4.4</ele>
        <time>2025-01-28T09:21:37Z</time>
      </trkpt>
      <trkpt lat="47.63597" lon="-2.79408">
        <ele>4.4</ele>
        <time>2025-01-28T09:21:38Z</time>
      </trkpt>
      <trkpt lat="47.63597" lon="-2.79408">
        <ele>4.4</ele>
        <time>2025-01-28T09:21:39Z</time>
      </trkpt>
      <trkpt lat="47.63598" lon="-2.79408">
        <ele>4.3</ele>
        <time>2025-01-28T09:21:40Z</time>
      </trkpt>
      <trkpt lat="47.63598" lon="-2.79409">
        <ele>4.3</ele>
        <time>2025-01-28T09:21:41Z</time>
      </trkpt>
      <trkpt lat="47.63598" lon="-2.79408">
        <ele>4.3</ele>
        <time>2025-01-28T09:21:42Z</time>
      </trkpt>
      <trkpt lat="47.63598" lon="-2.79407">
        <ele>4.3</ele>
        <time>2025-01-28T09:21:43Z</time>
      </trkpt>
      <trkpt lat="47.63598" lon="-2.79407">
        <ele>4.3</ele>
        <time>2025-01-28T09:21:44Z</time>
      </trkpt>
      <trkpt lat="47.63597" lon="-2.79407">
        <ele>4.3</ele>
        <time>2025-01-28T09:21:45Z</time>
      </trkpt>
      <trkpt lat="47.63596" lon="-2.79405">
        <ele>4.3</ele>
        <time>2025-01-28T09:21:46Z</time>
      </trkpt>
      <trkpt lat="47.63596" lon="-2.79404">
        <ele>4.3</ele>
        <time>2025-01-28T09:21:47Z</time>
      </trkpt>
      <trkpt lat="47.63595" lon="-2.79402">
        <ele>4.3</ele>
        <time>2025-01-28T09:21:48Z</time>
      </trkpt>
      <trkpt lat="47.63594" lon="-2.79401">
        <ele>4.3</ele>
        <time>2025-01-28T09:21:49Z</time>
      </trkpt>
      <trkpt lat="47.63593" lon="-2.79399">
        <ele>4.2</ele>
        <time>2025-01-28T09:21:50Z</time>
      </trkpt>
      <trkpt lat="47.63593" lon="-2.79398">
        <ele>4.2</ele>
        <time>2025-01-28T09:21:51Z</time>
      </trkpt>
      <trkpt lat="47.63593" lon="-2.79396">
        <ele>4.2</ele>
        <time>2025-01-28T09:21:52Z</time>
      </trkpt>
      <trkpt lat="47.63593" lon="-2.79394">
        <ele>4.1</ele>
        <time>2025-01-28T09:21:53Z</time>
      </trkpt>
      <trkpt lat="47.63593" lon="-2.79392">
        <ele>4.1</ele>
        <time>2025-01-28T09:21:54Z</time>
      </trkpt>
      <trkpt lat="47.63592" lon="-2.7939">
        <ele>4</ele>
        <time>2025-01-28T09:21:55Z</time>
      </trkpt>
      <trkpt lat="47.63591" lon="-2.79388">
        <ele>4</ele>
        <time>2025-01-28T09:21:56Z</time>
      </trkpt>
      <trkpt lat="47.63591" lon="-2.79386">
        <ele>4</ele>
        <time>2025-01-28T09:21:57Z</time>
      </trkpt>
      <trkpt lat="47.63591" lon="-2.79385">
        <ele>4</ele>
        <time>2025-01-28T09:21:58Z</time>
      </trkpt>
      <trkpt lat="47.6359" lon="-2.79383">
        <ele>4</ele>
        <time>2025-01-28T09:21:59Z</time>
      </trkpt>
      <trkpt lat="47.6359" lon="-2.79381">
        <ele>4</ele>
        <time>2025-01-28T09:22:00Z</time>
      </trkpt>
      <trkpt lat="47.6359" lon="-2.7938">
        <ele>4</ele>
        <time>2025-01-28T09:22:01Z</time>
      </trkpt>
      <trkpt lat="47.6359" lon="-2.79378">
        <ele>4</ele>
        <time>2025-01-28T09:22:02Z</time>
      </trkpt>
      <trkpt lat="47.6359" lon="-2.79376">
        <ele>4</ele>
        <time>2025-01-28T09:22:03Z</time>
      </trkpt>
      <trkpt lat="47.6359" lon="-2.79374">
        <ele>4</ele>
        <time>2025-01-28T09:22:04Z</time>
      </trkpt>
      <trkpt lat="47.6359" lon="-2.79372">
        <ele>4</ele>
        <time>2025-01-28T09:22:05Z</time>
      </trkpt>
      <trkpt lat="47.6359" lon="-2.79369">
        <ele>4</ele>
        <time>2025-01-28T09:22:06Z</time>
      </trkpt>
      <trkpt lat="47.6359" lon="-2.79367">
        <ele>4</ele>
        <time>2025-01-28T09:22:07Z</time>
      </trkpt>
      <trkpt lat="47.6359" lon="-2.79365">
        <ele>4</ele>
        <time>2025-01-28T09:22:08Z</time>
      </trkpt>
      <trkpt lat="47.63589" lon="-2.79363">
        <ele>4</ele>
        <time>2025-01-28T09:22:09Z</time>
      </trkpt>
      <trkpt lat="47.63588" lon="-2.79361">
        <ele>4</ele>
        <time>2025-01-28T09:22:10Z</time>
      </trkpt>
      <trkpt lat="47.63588" lon="-2.79359">
        <ele>3.9</ele>
        <time>2025-01-28T09:22:11Z</time>
      </trkpt>
      <trkpt lat="47.63587" lon="-2.79357">
        <ele>3.8</ele>
        <time>2025-01-28T09:22:12Z</time>
      </trkpt>
      <trkpt lat="47.63587" lon="-2.79356">
        <ele>3.7</ele>
        <time>2025-01-28T09:22:13Z</time>
      </trkpt>
      <trkpt lat="47.63586" lon="-2.79356">
        <ele>3.7</ele>
        <time>2025-01-28T09:22:14Z</time>
      </trkpt>
      <trkpt lat="47.63584" lon="-2.79357">
        <ele>3.7</ele>
        <time>2025-01-28T09:22:15Z</time>
      </trkpt>
      <trkpt lat="47.63583" lon="-2.79359">
        <ele>3.9</ele>
        <time>2025-01-28T09:22:16Z</time>
      </trkpt>
      <trkpt lat="47.63582" lon="-2.7936">
        <ele>4</ele>
        <time>2025-01-28T09:22:17Z</time>
      </trkpt>
      <trkpt lat="47.63582" lon="-2.7936">
        <ele>4.1</ele>
        <time>2025-01-28T09:22:18Z</time>
      </trkpt>
      <trkpt lat="47.63581" lon="-2.79358">
        <ele>4</ele>
        <time>2025-01-28T09:22:19Z</time>
      </trkpt>
      <trkpt lat="47.63581" lon="-2.79357">
        <ele>3.9</ele>
        <time>2025-01-28T09:22:20Z</time>
      </trkpt>
      <trkpt lat="47.63583" lon="-2.79355">
        <ele>3.6</ele>
        <time>2025-01-28T09:22:21Z</time>
      </trkpt>
      <trkpt lat="47.63583" lon="-2.79353">
        <ele>3.4</ele>
        <time>2025-01-28T09:22:22Z</time>
      </trkpt>
      <trkpt lat="47.63584" lon="-2.79352">
        <ele>3.3</ele>
        <time>2025-01-28T09:22:23Z</time>
      </trkpt>
      <trkpt lat="47.63583" lon="-2.7935">
        <ele>3.2</ele>
        <time>2025-01-28T09:22:24Z</time>
      </trkpt>
      <trkpt lat="47.63583" lon="-2.79349">
        <ele>3.2</ele>
        <time>2025-01-28T09:22:25Z</time>
      </trkpt>
      <trkpt lat="47.63582" lon="-2.79347">
        <ele>3.1</ele>
        <time>2025-01-28T09:22:26Z</time>
      </trkpt>
      <trkpt lat="47.63581" lon="-2.79347">
        <ele>3.2</ele>
        <time>2025-01-28T09:22:27Z</time>
      </trkpt>
      <trkpt lat="47.6358" lon="-2.79348">
        <ele>3.4</ele>
        <time>2025-01-28T09:22:28Z</time>
      </trkpt>
      <trkpt lat="47.63578" lon="-2.79348">
        <ele>3.5</ele>
        <time>2025-01-28T09:22:29Z</time>
      </trkpt>
      <trkpt lat="47.63577" lon="-2.79348">
        <ele>3.6</ele>
        <time>2025-01-28T09:22:30Z</time>
      </trkpt>
      <trkpt lat="47.63576" lon="-2.79347">
        <ele>3.6</ele>
        <time>2025-01-28T09:22:31Z</time>
      </trkpt>
      <trkpt lat="47.63575" lon="-2.79347">
        <ele>3.7</ele>
        <time>2025-01-28T09:22:32Z</time>
      </trkpt>
      <trkpt lat="47.63575" lon="-2.79345">
        <ele>3.6</ele>
        <time>2025-01-28T09:22:33Z</time>
      </trkpt>
      <trkpt lat="47.63575" lon="-2.79344">
        <ele>3.6</ele>
        <time>2025-01-28T09:22:34Z</time>
      </trkpt>
      <trkpt lat="47.63574" lon="-2.79343">
        <ele>3.6</ele>
        <time>2025-01-28T09:22:35Z</time>
      </trkpt>
      <trkpt lat="47.63574" lon="-2.79341">
        <ele>3.5</ele>
        <time>2025-01-28T09:22:36Z</time>
      </trkpt>
      <trkpt lat="47.63573" lon="-2.7934">
        <ele>3.5</ele>
        <time>2025-01-28T09:22:37Z</time>
      </trkpt>
      <trkpt lat="47.63572" lon="-2.79339">
        <ele>3.5</ele>
        <time>2025-01-28T09:22:38Z</time>
      </trkpt>
      <trkpt lat="47.63572" lon="-2.79337">
        <ele>3.5</ele>
        <time>2025-01-28T09:22:39Z</time>
      </trkpt>
      <trkpt lat="47.63571" lon="-2.79336">
        <ele>3.5</ele>
        <time>2025-01-28T09:22:40Z</time>
      </trkpt>
      <trkpt lat="47.63571" lon="-2.79335">
        <ele>3.5</ele>
        <time>2025-01-28T09:22:41Z</time>
      </trkpt>
      <trkpt lat="47.63571" lon="-2.79333">
        <ele>3.3</ele>
        <time>2025-01-28T09:22:42Z</time>
      </trkpt>
      <trkpt lat="47.63571" lon="-2.79331">
        <ele>3.2</ele>
        <time>2025-01-28T09:22:43Z</time>
      </trkpt>
      <trkpt lat="47.63571" lon="-2.79329">
        <ele>3</ele>
        <time>2025-01-28T09:22:44Z</time>
      </trkpt>
      <trkpt lat="47.63571" lon="-2.7933">
        <ele>3</ele>
        <time>2025-01-28T09:22:45Z</time>
      </trkpt>
      <trkpt lat="47.63571" lon="-2.7933">
        <ele>3</ele>
        <time>2025-01-28T09:22:46Z</time>
      </trkpt>
      <trkpt lat="47.63571" lon="-2.7933">
        <ele>3.1</ele>
        <time>2025-01-28T09:22:47Z</time>
      </trkpt>
      <trkpt lat="47.63571" lon="-2.7933">
        <ele>3.1</ele>
        <time>2025-01-28T09:22:48Z</time>
      </trkpt>
      <trkpt lat="47.63571" lon="-2.7933">
        <ele>3.1</ele>
        <time>2025-01-28T09:22:49Z</time>
      </trkpt>
      <trkpt lat="47.63571" lon="-2.7933">
        <ele>3.1</ele>
        <time>2025-01-28T09:22:50Z</time>
      </trkpt>
      <trkpt lat="47.63572" lon="-2.7933">
        <ele>3</ele>
        <time>2025-01-28T09:22:51Z</time>
      </trkpt>
      <trkpt lat="47.63572" lon="-2.7933">
        <ele>3</ele>
        <time>2025-01-28T09:22:52Z</time>
      </trkpt>
      <trkpt lat="47.63572" lon="-2.7933">
        <ele>3</ele>
        <time>2025-01-28T09:22:53Z</time>
      </trkpt>
      <trkpt lat="47.63572" lon="-2.7933">
        <ele>3</ele>
        <time>2025-01-28T09:22:54Z</time>
      </trkpt>
      <trkpt lat="47.63572" lon="-2.7933">
        <ele>3</ele>
        <time>2025-01-28T09:22:55Z</time>
      </trkpt>
      <trkpt lat="47.63572" lon="-2.7933">
        <ele>3</ele>
        <time>2025-01-28T09:22:56Z</time>
      </trkpt>
      <trkpt lat="47.63572" lon="-2.7933">
        <ele>3</ele>
        <time>2025-01-28T09:22:57Z</time>
      </trkpt>
      <trkpt lat="47.63572" lon="-2.79331">
        <ele>3</ele>
        <time>2025-01-28T09:22:58Z</time>
      </trkpt>
      <trkpt lat="47.63572" lon="-2.79331">
        <ele>3</ele>
        <time>2025-01-28T09:22:59Z</time>
      </trkpt>
      <trkpt lat="47.63572" lon="-2.79331">
        <ele>3</ele>
        <time>2025-01-28T09:23:00Z</time>
      </trkpt>
      <trkpt lat="47.63572" lon="-2.79331">
        <ele>3</ele>
        <time>2025-01-28T09:23:01Z</time>
      </trkpt>
      <trkpt lat="47.63572" lon="-2.79331">
        <ele>3</ele>
        <time>2025-01-28T09:23:02Z</time>
      </trkpt>
      <trkpt lat="47.63572" lon="-2.79331">
        <ele>3</ele>
        <time>2025-01-28T09:23:03Z</time>
      </trkpt>
      <trkpt lat="47.63572" lon="-2.79331">
        <ele>3</ele>
        <time>2025-01-28T09:23:04Z</time>
      </trkpt>
      <trkpt lat="47.63573" lon="-2.79331">
        <ele>3</ele>
        <time>2025-01-28T09:23:05Z</time>
      </trkpt>
      <trkpt lat="47.63574" lon="-2.79333">
        <ele>3</ele>
        <time>2025-01-28T09:23:06Z</time>
      </trkpt>
      <trkpt lat="47.63574" lon="-2.79334">
        <ele>3</ele>
        <time>2025-01-28T09:23:07Z</time>
      </trkpt>
      <trkpt lat="47.63574" lon="-2.79335">
        <ele>3.1</ele>
        <time>2025-01-28T09:23:08Z</time>
      </trkpt>
      <trkpt lat="47.63574" lon="-2.79335">
        <ele>3.1</ele>
        <time>2025-01-28T09:23:09Z</time>
      </trkpt>
      <trkpt lat="47.63574" lon="-2.79335">
        <ele>3.2</ele>
        <time>2025-01-28T09:23:10Z</time>
      </trkpt>
      <trkpt lat="47.63573" lon="-2.79336">
        <ele>3.3</ele>
        <time>2025-01-28T09:23:11Z</time>
      </trkpt>
      <trkpt lat="47.63572" lon="-2.79336">
        <ele>3.4</ele>
        <time>2025-01-28T09:23:12Z</time>
      </trkpt>
      <trkpt lat="47.63571" lon="-2.79335">
        <ele>3.4</ele>
        <time>2025-01-28T09:23:13Z</time>
      </trkpt>
      <trkpt lat="47.6357" lon="-2.79334">
        <ele>3.4</ele>
        <time>2025-01-28T09:23:14Z</time>
      </trkpt>
      <trkpt lat="47.63569" lon="-2.79332">
        <ele>3.5</ele>
        <time>2025-01-28T09:23:15Z</time>
      </trkpt>
      <trkpt lat="47.63568" lon="-2.79331">
        <ele>3.5</ele>
        <time>2025-01-28T09:23:16Z</time>
      </trkpt>
      <trkpt lat="47.63567" lon="-2.7933">
        <ele>3.5</ele>
        <time>2025-01-28T09:23:17Z</time>
      </trkpt>
      <trkpt lat="47.63566" lon="-2.79327">
        <ele>3.3</ele>
        <time>2025-01-28T09:23:18Z</time>
      </trkpt>
      <trkpt lat="47.63566" lon="-2.79325">
        <ele>3.2</ele>
        <time>2025-01-28T09:23:19Z</time>
      </trkpt>
      <trkpt lat="47.63565" lon="-2.79323">
        <ele>3.2</ele>
        <time>2025-01-28T09:23:20Z</time>
      </trkpt>
      <trkpt lat="47.63564" lon="-2.79322">
        <ele>3.1</ele>
        <time>2025-01-28T09:23:21Z</time>
      </trkpt>
      <trkpt lat="47.63564" lon="-2.79325">
        <ele>3.3</ele>
        <time>2025-01-28T09:23:22Z</time>
      </trkpt>
      <trkpt lat="47.63563" lon="-2.79324">
        <ele>3.3</ele>
        <time>2025-01-28T09:23:23Z</time>
      </trkpt>
      <trkpt lat="47.63563" lon="-2.79323">
        <ele>3.3</ele>
        <time>2025-01-28T09:23:24Z</time>
      </trkpt>
      <trkpt lat="47.63562" lon="-2.79324">
        <ele>3.4</ele>
        <time>2025-01-28T09:23:25Z</time>
      </trkpt>
      <trkpt lat="47.63562" lon="-2.79324">
        <ele>3.5</ele>
        <time>2025-01-28T09:23:26Z</time>
      </trkpt>
      <trkpt lat="47.63562" lon="-2.79323">
        <ele>3.4</ele>
        <time>2025-01-28T09:23:27Z</time>
      </trkpt>
      <trkpt lat="47.63562" lon="-2.79323">
        <ele>3.3</ele>
        <time>2025-01-28T09:23:28Z</time>
      </trkpt>
      <trkpt lat="47.63562" lon="-2.79322">
        <ele>3.3</ele>
        <time>2025-01-28T09:23:29Z</time>
      </trkpt>
      <trkpt lat="47.63561" lon="-2.7932">
        <ele>3.2</ele>
        <time>2025-01-28T09:23:30Z</time>
      </trkpt>
      <trkpt lat="47.6356" lon="-2.79319">
        <ele>3.1</ele>
        <time>2025-01-28T09:23:31Z</time>
      </trkpt>
      <trkpt lat="47.6356" lon="-2.79318">
        <ele>3</ele>
        <time>2025-01-28T09:23:32Z</time>
      </trkpt>
      <trkpt lat="47.63559" lon="-2.79318">
        <ele>3.1</ele>
        <time>2025-01-28T09:23:33Z</time>
      </trkpt>
      <trkpt lat="47.63558" lon="-2.79317">
        <ele>3.1</ele>
        <time>2025-01-28T09:23:34Z</time>
      </trkpt>
      <trkpt lat="47.63557" lon="-2.79317">
        <ele>3.1</ele>
        <time>2025-01-28T09:23:35Z</time>
      </trkpt>
      <trkpt lat="47.63556" lon="-2.79316">
        <ele>3.1</ele>
        <time>2025-01-28T09:23:36Z</time>
      </trkpt>
      <trkpt lat="47.63555" lon="-2.79316">
        <ele>3.1</ele>
        <time>2025-01-28T09:23:37Z</time>
      </trkpt>
      <trkpt lat="47.63555" lon="-2.79315">
        <ele>3.1</ele>
        <time>2025-01-28T09:23:38Z</time>
      </trkpt>
      <trkpt lat="47.63554" lon="-2.79315">
        <ele>3</ele>
        <time>2025-01-28T09:23:39Z</time>
      </trkpt>
      <trkpt lat="47.63554" lon="-2.79314">
        <ele>3</ele>
        <time>2025-01-28T09:23:40Z</time>
      </trkpt>
      <trkpt lat="47.63553" lon="-2.79314">
        <ele>3</ele>
        <time>2025-01-28T09:23:41Z</time>
      </trkpt>
      <trkpt lat="47.63553" lon="-2.79313">
        <ele>3</ele>
        <time>2025-01-28T09:23:42Z</time>
      </trkpt>
      <trkpt lat="47.63552" lon="-2.79313">
        <ele>3</ele>
        <time>2025-01-28T09:23:43Z</time>
      </trkpt>
      <trkpt lat="47.63551" lon="-2.79312">
        <ele>2.9</ele>
        <time>2025-01-28T09:23:44Z</time>
      </trkpt>
      <trkpt lat="47.63551" lon="-2.79311">
        <ele>2.9</ele>
        <time>2025-01-28T09:23:45Z</time>
      </trkpt>
      <trkpt lat="47.63551" lon="-2.7931">
        <ele>2.8</ele>
        <time>2025-01-28T09:23:46Z</time>
      </trkpt>
      <trkpt lat="47.6355" lon="-2.7931">
        <ele>2.8</ele>
        <time>2025-01-28T09:23:47Z</time>
      </trkpt>
      <trkpt lat="47.6355" lon="-2.79309">
        <ele>2.8</ele>
        <time>2025-01-28T09:23:48Z</time>
      </trkpt>
      <trkpt lat="47.6355" lon="-2.79309">
        <ele>2.7</ele>
        <time>2025-01-28T09:23:49Z</time>
      </trkpt>
      <trkpt lat="47.6355" lon="-2.79308">
        <ele>2.7</ele>
        <time>2025-01-28T09:23:50Z</time>
      </trkpt>
      <trkpt lat="47.63549" lon="-2.79307">
        <ele>2.6</ele>
        <time>2025-01-28T09:23:51Z</time>
      </trkpt>
      <trkpt lat="47.63549" lon="-2.79307">
        <ele>2.6</ele>
        <time>2025-01-28T09:23:52Z</time>
      </trkpt>
      <trkpt lat="47.63548" lon="-2.79306">
        <ele>2.6</ele>
        <time>2025-01-28T09:23:53Z</time>
      </trkpt>
      <trkpt lat="47.63547" lon="-2.79305">
        <ele>2.6</ele>
        <time>2025-01-28T09:23:54Z</time>
      </trkpt>
      <trkpt lat="47.63546" lon="-2.79305">
        <ele>2.6</ele>
        <time>2025-01-28T09:23:55Z</time>
      </trkpt>
      <trkpt lat="47.63545" lon="-2.79304">
        <ele>2.7</ele>
        <time>2025-01-28T09:23:56Z</time>
      </trkpt>
      <trkpt lat="47.63544" lon="-2.79303">
        <ele>2.7</ele>
        <time>2025-01-28T09:23:57Z</time>
      </trkpt>
      <trkpt lat="47.63543" lon="-2.79303">
        <ele>2.7</ele>
        <time>2025-01-28T09:23:58Z</time>
      </trkpt>
      <trkpt lat="47.63542" lon="-2.79302">
        <ele>2.8</ele>
        <time>2025-01-28T09:23:59Z</time>
      </trkpt>
      <trkpt lat="47.63541" lon="-2.79301">
        <ele>2.8</ele>
        <time>2025-01-28T09:24:00Z</time>
      </trkpt>
      <trkpt lat="47.6354" lon="-2.793">
        <ele>2.8</ele>
        <time>2025-01-28T09:24:01Z</time>
      </trkpt>
      <trkpt lat="47.6354" lon="-2.79299">
        <ele>2.8</ele>
        <time>2025-01-28T09:24:02Z</time>
      </trkpt>
      <trkpt lat="47.63539" lon="-2.79298">
        <ele>2.8</ele>
        <time>2025-01-28T09:24:03Z</time>
      </trkpt>
      <trkpt lat="47.63538" lon="-2.79298">
        <ele>2.8</ele>
        <time>2025-01-28T09:24:04Z</time>
      </trkpt>
      <trkpt lat="47.63537" lon="-2.79298">
        <ele>2.9</ele>
        <time>2025-01-28T09:24:05Z</time>
      </trkpt>
      <trkpt lat="47.63535" lon="-2.79297">
        <ele>2.9</ele>
        <time>2025-01-28T09:24:06Z</time>
      </trkpt>
      <trkpt lat="47.63534" lon="-2.79298">
        <ele>3</ele>
        <time>2025-01-28T09:24:07Z</time>
      </trkpt>
      <trkpt lat="47.63533" lon="-2.79298">
        <ele>3.1</ele>
        <time>2025-01-28T09:24:08Z</time>
      </trkpt>
      <trkpt lat="47.63532" lon="-2.79298">
        <ele>3.2</ele>
        <time>2025-01-28T09:24:09Z</time>
      </trkpt>
      <trkpt lat="47.63531" lon="-2.79298">
        <ele>3.3</ele>
        <time>2025-01-28T09:24:10Z</time>
      </trkpt>
      <trkpt lat="47.6353" lon="-2.79297">
        <ele>3.2</ele>
        <time>2025-01-28T09:24:11Z</time>
      </trkpt>
      <trkpt lat="47.63531" lon="-2.79296">
        <ele>3.1</ele>
        <time>2025-01-28T09:24:12Z</time>
      </trkpt>
      <trkpt lat="47.6353" lon="-2.79294">
        <ele>3.1</ele>
        <time>2025-01-28T09:24:13Z</time>
      </trkpt>
      <trkpt lat="47.6353" lon="-2.79294">
        <ele>3</ele>
        <time>2025-01-28T09:24:14Z</time>
      </trkpt>
      <trkpt lat="47.63529" lon="-2.79292">
        <ele>3</ele>
        <time>2025-01-28T09:24:15Z</time>
      </trkpt>
      <trkpt lat="47.63529" lon="-2.79292">
        <ele>3</ele>
        <time>2025-01-28T09:24:16Z</time>
      </trkpt>
      <trkpt lat="47.63528" lon="-2.79292">
        <ele>3</ele>
        <time>2025-01-28T09:24:17Z</time>
      </trkpt>
      <trkpt lat="47.63527" lon="-2.79291">
        <ele>2.9</ele>
        <time>2025-01-28T09:24:18Z</time>
      </trkpt>
      <trkpt lat="47.63528" lon="-2.79291">
        <ele>2.9</ele>
        <time>2025-01-28T09:24:19Z</time>
      </trkpt>
      <trkpt lat="47.63527" lon="-2.7929">
        <ele>2.9</ele>
        <time>2025-01-28T09:24:20Z</time>
      </trkpt>
      <trkpt lat="47.63526" lon="-2.7929">
        <ele>2.9</ele>
        <time>2025-01-28T09:24:21Z</time>
      </trkpt>
      <trkpt lat="47.63525" lon="-2.79289">
        <ele>2.8</ele>
        <time>2025-01-28T09:24:22Z</time>
      </trkpt>
      <trkpt lat="47.63524" lon="-2.79287">
        <ele>2.8</ele>
        <time>2025-01-28T09:24:23Z</time>
      </trkpt>
      <trkpt lat="47.63523" lon="-2.79286">
        <ele>2.7</ele>
        <time>2025-01-28T09:24:24Z</time>
      </trkpt>
      <trkpt lat="47.63523" lon="-2.79285">
        <ele>2.6</ele>
        <time>2025-01-28T09:24:25Z</time>
      </trkpt>
      <trkpt lat="47.63523" lon="-2.79284">
        <ele>2.6</ele>
        <time>2025-01-28T09:24:26Z</time>
      </trkpt>
      <trkpt lat="47.63522" lon="-2.79283">
        <ele>2.6</ele>
        <time>2025-01-28T09:24:27Z</time>
      </trkpt>
      <trkpt lat="47.63521" lon="-2.79283">
        <ele>2.6</ele>
        <time>2025-01-28T09:24:28Z</time>
      </trkpt>
      <trkpt lat="47.6352" lon="-2.79283">
        <ele>2.6</ele>
        <time>2025-01-28T09:24:29Z</time>
      </trkpt>
      <trkpt lat="47.63519" lon="-2.79282">
        <ele>2.6</ele>
        <time>2025-01-28T09:24:30Z</time>
      </trkpt>
      <trkpt lat="47.63519" lon="-2.79281">
        <ele>2.5</ele>
        <time>2025-01-28T09:24:31Z</time>
      </trkpt>
      <trkpt lat="47.63518" lon="-2.7928">
        <ele>2.5</ele>
        <time>2025-01-28T09:24:32Z</time>
      </trkpt>
      <trkpt lat="47.63516" lon="-2.7928">
        <ele>2.5</ele>
        <time>2025-01-28T09:24:33Z</time>
      </trkpt>
      <trkpt lat="47.63515" lon="-2.79279">
        <ele>2.5</ele>
        <time>2025-01-28T09:24:34Z</time>
      </trkpt>
      <trkpt lat="47.63515" lon="-2.79278">
        <ele>2.5</ele>
        <time>2025-01-28T09:24:35Z</time>
      </trkpt>
      <trkpt lat="47.63514" lon="-2.79278">
        <ele>2.5</ele>
        <time>2025-01-28T09:24:36Z</time>
      </trkpt>
      <trkpt lat="47.63513" lon="-2.79278">
        <ele>2.5</ele>
        <time>2025-01-28T09:24:37Z</time>
      </trkpt>
      <trkpt lat="47.63512" lon="-2.79278">
        <ele>2.6</ele>
        <time>2025-01-28T09:24:38Z</time>
      </trkpt>
      <trkpt lat="47.63511" lon="-2.79278">
        <ele>2.6</ele>
        <time>2025-01-28T09:24:39Z</time>
      </trkpt>
      <trkpt lat="47.63509" lon="-2.79277">
        <ele>2.6</ele>
        <time>2025-01-28T09:24:40Z</time>
      </trkpt>
      <trkpt lat="47.63508" lon="-2.79276">
        <ele>2.6</ele>
        <time>2025-01-28T09:24:41Z</time>
      </trkpt>
      <trkpt lat="47.63507" lon="-2.79275">
        <ele>2.6</ele>
        <time>2025-01-28T09:24:42Z</time>
      </trkpt>
      <trkpt lat="47.63506" lon="-2.79274">
        <ele>2.6</ele>
        <time>2025-01-28T09:24:43Z</time>
      </trkpt>
      <trkpt lat="47.63505" lon="-2.79274">
        <ele>2.5</ele>
        <time>2025-01-28T09:24:44Z</time>
      </trkpt>
      <trkpt lat="47.63505" lon="-2.79273">
        <ele>2.5</ele>
        <time>2025-01-28T09:24:45Z</time>
      </trkpt>
      <trkpt lat="47.63504" lon="-2.79272">
        <ele>2.4</ele>
        <time>2025-01-28T09:24:46Z</time>
      </trkpt>
      <trkpt lat="47.63504" lon="-2.79271">
        <ele>2.4</ele>
        <time>2025-01-28T09:24:47Z</time>
      </trkpt>
      <trkpt lat="47.63503" lon="-2.79271">
        <ele>2.4</ele>
        <time>2025-01-28T09:24:48Z</time>
      </trkpt>
      <trkpt lat="47.63502" lon="-2.79271">
        <ele>2.4</ele>
        <time>2025-01-28T09:24:49Z</time>
      </trkpt>
      <trkpt lat="47.63502" lon="-2.7927">
        <ele>2.4</ele>
        <time>2025-01-28T09:24:50Z</time>
      </trkpt>
      <trkpt lat="47.63503" lon="-2.79272">
        <ele>2.5</ele>
        <time>2025-01-28T09:24:51Z</time>
      </trkpt>
      <trkpt lat="47.63501" lon="-2.79269">
        <ele>2.3</ele>
        <time>2025-01-28T09:24:52Z</time>
      </trkpt>
      <trkpt lat="47.63504" lon="-2.79272">
        <ele>2.5</ele>
        <time>2025-01-28T09:24:53Z</time>
      </trkpt>
      <trkpt lat="47.63504" lon="-2.79273">
        <ele>2.6</ele>
        <time>2025-01-28T09:24:54Z</time>
      </trkpt>
      <trkpt lat="47.63504" lon="-2.79274">
        <ele>2.6</ele>
        <time>2025-01-28T09:24:55Z</time>
      </trkpt>
      <trkpt lat="47.63504" lon="-2.79273">
        <ele>2.6</ele>
        <time>2025-01-28T09:24:56Z</time>
      </trkpt>
      <trkpt lat="47.63504" lon="-2.79274">
        <ele>2.6</ele>
        <time>2025-01-28T09:24:57Z</time>
      </trkpt>
      <trkpt lat="47.63504" lon="-2.79274">
        <ele>2.6</ele>
        <time>2025-01-28T09:24:58Z</time>
      </trkpt>
      <trkpt lat="47.63504" lon="-2.79274">
        <ele>2.6</ele>
        <time>2025-01-28T09:24:59Z</time>
      </trkpt>
      <trkpt lat="47.63504" lon="-2.79274">
        <ele>2.6</ele>
        <time>2025-01-28T09:25:00Z</time>
      </trkpt>
      <trkpt lat="47.63504" lon="-2.79274">
        <ele>2.6</ele>
        <time>2025-01-28T09:25:01Z</time>
      </trkpt>
      <trkpt lat="47.63504" lon="-2.79274">
        <ele>2.6</ele>
        <time>2025-01-28T09:25:02Z</time>
      </trkpt>
      <trkpt lat="47.63504" lon="-2.79274">
        <ele>2.6</ele>
        <time>2025-01-28T09:25:03Z</time>
      </trkpt>
      <trkpt lat="47.63504" lon="-2.79274">
        <ele>2.6</ele>
        <time>2025-01-28T09:25:04Z</time>
      </trkpt>
      <trkpt lat="47.63504" lon="-2.79274">
        <ele>2.6</ele>
        <time>2025-01-28T09:25:05Z</time>
      </trkpt>
      <trkpt lat="47.63503" lon="-2.79274">
        <ele>2.6</ele>
        <time>2025-01-28T09:25:06Z</time>
      </trkpt>
      <trkpt lat="47.63502" lon="-2.79273">
        <ele>2.6</ele>
        <time>2025-01-28T09:25:07Z</time>
      </trkpt>
      <trkpt lat="47.63501" lon="-2.79272">
        <ele>2.6</ele>
        <time>2025-01-28T09:25:08Z</time>
      </trkpt>
      <trkpt lat="47.63499" lon="-2.79271">
        <ele>2.5</ele>
        <time>2025-01-28T09:25:09Z</time>
      </trkpt>
      <trkpt lat="47.63498" lon="-2.7927">
        <ele>2.5</ele>
        <time>2025-01-28T09:25:10Z</time>
      </trkpt>
      <trkpt lat="47.63497" lon="-2.79269">
        <ele>2.5</ele>
        <time>2025-01-28T09:25:11Z</time>
      </trkpt>
      <trkpt lat="47.63495" lon="-2.79268">
        <ele>2.5</ele>
        <time>2025-01-28T09:25:12Z</time>
      </trkpt>
      <trkpt lat="47.63494" lon="-2.79268">
        <ele>2.5</ele>
        <time>2025-01-28T09:25:13Z</time>
      </trkpt>
      <trkpt lat="47.63493" lon="-2.79267">
        <ele>2.5</ele>
        <time>2025-01-28T09:25:14Z</time>
      </trkpt>
      <trkpt lat="47.63492" lon="-2.79267">
        <ele>2.5</ele>
        <time>2025-01-28T09:25:15Z</time>
      </trkpt>
      <trkpt lat="47.63491" lon="-2.79267">
        <ele>2.5</ele>
        <time>2025-01-28T09:25:16Z</time>
      </trkpt>
      <trkpt lat="47.6349" lon="-2.79266">
        <ele>2.5</ele>
        <time>2025-01-28T09:25:17Z</time>
      </trkpt>
      <trkpt lat="47.63489" lon="-2.79265">
        <ele>2.5</ele>
        <time>2025-01-28T09:25:18Z</time>
      </trkpt>
      <trkpt lat="47.63488" lon="-2.79264">
        <ele>2.4</ele>
        <time>2025-01-28T09:25:19Z</time>
      </trkpt>
      <trkpt lat="47.63487" lon="-2.79263">
        <ele>2.4</ele>
        <time>2025-01-28T09:25:20Z</time>
      </trkpt>
      <trkpt lat="47.63486" lon="-2.79261">
        <ele>2.3</ele>
        <time>2025-01-28T09:25:21Z</time>
      </trkpt>
      <trkpt lat="47.63484" lon="-2.79261">
        <ele>2.3</ele>
        <time>2025-01-28T09:25:22Z</time>
      </trkpt>
      <trkpt lat="47.63483" lon="-2.7926">
        <ele>2.3</ele>
        <time>2025-01-28T09:25:23Z</time>
      </trkpt>
      <trkpt lat="47.63482" lon="-2.79259">
        <ele>2.3</ele>
        <time>2025-01-28T09:25:24Z</time>
      </trkpt>
      <trkpt lat="47.6348" lon="-2.79259">
        <ele>2.4</ele>
        <time>2025-01-28T09:25:25Z</time>
      </trkpt>
      <trkpt lat="47.63479" lon="-2.79259">
        <ele>2.4</ele>
        <time>2025-01-28T09:25:26Z</time>
      </trkpt>
      <trkpt lat="47.63478" lon="-2.79257">
        <ele>2.3</ele>
        <time>2025-01-28T09:25:27Z</time>
      </trkpt>
      <trkpt lat="47.63477" lon="-2.79256">
        <ele>2.3</ele>
        <time>2025-01-28T09:25:28Z</time>
      </trkpt>
      <trkpt lat="47.63476" lon="-2.79255">
        <ele>2.2</ele>
        <time>2025-01-28T09:25:29Z</time>
      </trkpt>
      <trkpt lat="47.63475" lon="-2.79254">
        <ele>2.2</ele>
        <time>2025-01-28T09:25:30Z</time>
      </trkpt>
      <trkpt lat="47.63474" lon="-2.79253">
        <ele>2.2</ele>
        <time>2025-01-28T09:25:31Z</time>
      </trkpt>
      <trkpt lat="47.63473" lon="-2.79252">
        <ele>2.1</ele>
        <time>2025-01-28T09:25:32Z</time>
      </trkpt>
      <trkpt lat="47.63472" lon="-2.79251">
        <ele>2.1</ele>
        <time>2025-01-28T09:25:33Z</time>
      </trkpt>
      <trkpt lat="47.63471" lon="-2.79251">
        <ele>2.1</ele>
        <time>2025-01-28T09:25:34Z</time>
      </trkpt>
      <trkpt lat="47.6347" lon="-2.7925">
        <ele>2.1</ele>
        <time>2025-01-28T09:25:35Z</time>
      </trkpt>
      <trkpt lat="47.63469" lon="-2.7925">
        <ele>2.1</ele>
        <time>2025-01-28T09:25:36Z</time>
      </trkpt>
      <trkpt lat="47.63468" lon="-2.79249">
        <ele>2.1</ele>
        <time>2025-01-28T09:25:37Z</time>
      </trkpt>
      <trkpt lat="47.63467" lon="-2.79247">
        <ele>2.1</ele>
        <time>2025-01-28T09:25:38Z</time>
      </trkpt>
      <trkpt lat="47.63466" lon="-2.79246">
        <ele>2.1</ele>
        <time>2025-01-28T09:25:39Z</time>
      </trkpt>
      <trkpt lat="47.63466" lon="-2.79244">
        <ele>2</ele>
        <time>2025-01-28T09:25:40Z</time>
      </trkpt>
      <trkpt lat="47.63464" lon="-2.79243">
        <ele>2</ele>
        <time>2025-01-28T09:25:41Z</time>
      </trkpt>
      <trkpt lat="47.63464" lon="-2.79242">
        <ele>2</ele>
        <time>2025-01-28T09:25:42Z</time>
      </trkpt>
      <trkpt lat="47.63463" lon="-2.79241">
        <ele>2</ele>
        <time>2025-01-28T09:25:43Z</time>
      </trkpt>
      <trkpt lat="47.63461" lon="-2.79241">
        <ele>2</ele>
        <time>2025-01-28T09:25:44Z</time>
      </trkpt>
      <trkpt lat="47.63461" lon="-2.79239">
        <ele>2</ele>
        <time>2025-01-28T09:25:45Z</time>
      </trkpt>
      <trkpt lat="47.6346" lon="-2.79238">
        <ele>2</ele>
        <time>2025-01-28T09:25:46Z</time>
      </trkpt>
      <trkpt lat="47.63459" lon="-2.79237">
        <ele>2</ele>
        <time>2025-01-28T09:25:47Z</time>
      </trkpt>
      <trkpt lat="47.63458" lon="-2.79236">
        <ele>2</ele>
        <time>2025-01-28T09:25:48Z</time>
      </trkpt>
      <trkpt lat="47.63457" lon="-2.79235">
        <ele>2</ele>
        <time>2025-01-28T09:25:49Z</time>
      </trkpt>
      <trkpt lat="47.63456" lon="-2.79234">
        <ele>2</ele>
        <time>2025-01-28T09:25:50Z</time>
      </trkpt>
      <trkpt lat="47.63455" lon="-2.79233">
        <ele>2</ele>
        <time>2025-01-28T09:25:51Z</time>
      </trkpt>
      <trkpt lat="47.63454" lon="-2.79232">
        <ele>2</ele>
        <time>2025-01-28T09:25:52Z</time>
      </trkpt>
      <trkpt lat="47.63453" lon="-2.79231">
        <ele>2</ele>
        <time>2025-01-28T09:25:53Z</time>
      </trkpt>
      <trkpt lat="47.63452" lon="-2.79231">
        <ele>2.1</ele>
        <time>2025-01-28T09:25:54Z</time>
      </trkpt>
      <trkpt lat="47.63451" lon="-2.79231">
        <ele>2.1</ele>
        <time>2025-01-28T09:25:55Z</time>
      </trkpt>
      <trkpt lat="47.6345" lon="-2.79231">
        <ele>2.1</ele>
        <time>2025-01-28T09:25:56Z</time>
      </trkpt>
      <trkpt lat="47.63449" lon="-2.79231">
        <ele>2.2</ele>
        <time>2025-01-28T09:25:57Z</time>
      </trkpt>
      <trkpt lat="47.63448" lon="-2.79229">
        <ele>2.1</ele>
        <time>2025-01-28T09:25:58Z</time>
      </trkpt>
      <trkpt lat="47.63447" lon="-2.79228">
        <ele>2.1</ele>
        <time>2025-01-28T09:25:59Z</time>
      </trkpt>
      <trkpt lat="47.63446" lon="-2.79227">
        <ele>2.1</ele>
        <time>2025-01-28T09:26:00Z</time>
      </trkpt>
      <trkpt lat="47.63445" lon="-2.79225">
        <ele>2.1</ele>
        <time>2025-01-28T09:26:01Z</time>
      </trkpt>
      <trkpt lat="47.63444" lon="-2.79225">
        <ele>2.2</ele>
        <time>2025-01-28T09:26:02Z</time>
      </trkpt>
      <trkpt lat="47.63443" lon="-2.79224">
        <ele>2.3</ele>
        <time>2025-01-28T09:26:03Z</time>
      </trkpt>
      <trkpt lat="47.63442" lon="-2.79224">
        <ele>2.4</ele>
        <time>2025-01-28T09:26:04Z</time>
      </trkpt>
      <trkpt lat="47.63441" lon="-2.79223">
        <ele>2.4</ele>
        <time>2025-01-28T09:26:05Z</time>
      </trkpt>
      <trkpt lat="47.6344" lon="-2.79222">
        <ele>2.5</ele>
        <time>2025-01-28T09:26:06Z</time>
      </trkpt>
      <trkpt lat="47.63439" lon="-2.79221">
        <ele>2.6</ele>
        <time>2025-01-28T09:26:07Z</time>
      </trkpt>
      <trkpt lat="47.63438" lon="-2.7922">
        <ele>2.6</ele>
        <time>2025-01-28T09:26:08Z</time>
      </trkpt>
      <trkpt lat="47.63437" lon="-2.79219">
        <ele>2.7</ele>
        <time>2025-01-28T09:26:09Z</time>
      </trkpt>
      <trkpt lat="47.63436" lon="-2.79219">
        <ele>2.8</ele>
        <time>2025-01-28T09:26:10Z</time>
      </trkpt>
      <trkpt lat="47.63435" lon="-2.79219">
        <ele>2.9</ele>
        <time>2025-01-28T09:26:11Z</time>
      </trkpt>
      <trkpt lat="47.63434" lon="-2.79219">
        <ele>3</ele>
        <time>2025-01-28T09:26:12Z</time>
      </trkpt>
      <trkpt lat="47.63433" lon="-2.79219">
        <ele>3.1</ele>
        <time>2025-01-28T09:26:13Z</time>
      </trkpt>
      <trkpt lat="47.63432" lon="-2.79218">
        <ele>3.2</ele>
        <time>2025-01-28T09:26:14Z</time>
      </trkpt>
      <trkpt lat="47.63431" lon="-2.79219">
        <ele>3.4</ele>
        <time>2025-01-28T09:26:15Z</time>
      </trkpt>
      <trkpt lat="47.6343" lon="-2.7922">
        <ele>3.5</ele>
        <time>2025-01-28T09:26:16Z</time>
      </trkpt>
      <trkpt lat="47.63429" lon="-2.79221">
        <ele>3.6</ele>
        <time>2025-01-28T09:26:17Z</time>
      </trkpt>
      <trkpt lat="47.63428" lon="-2.79221">
        <ele>3.7</ele>
        <time>2025-01-28T09:26:18Z</time>
      </trkpt>
      <trkpt lat="47.63427" lon="-2.79222">
        <ele>3.9</ele>
        <time>2025-01-28T09:26:19Z</time>
      </trkpt>
      <trkpt lat="47.63426" lon="-2.79221">
        <ele>3.9</ele>
        <time>2025-01-28T09:26:20Z</time>
      </trkpt>
      <trkpt lat="47.63425" lon="-2.7922">
        <ele>4</ele>
        <time>2025-01-28T09:26:21Z</time>
      </trkpt>
      <trkpt lat="47.63425" lon="-2.79219">
        <ele>4</ele>
        <time>2025-01-28T09:26:22Z</time>
      </trkpt>
      <trkpt lat="47.63424" lon="-2.79218">
        <ele>4</ele>
        <time>2025-01-28T09:26:23Z</time>
      </trkpt>
      <trkpt lat="47.63424" lon="-2.79216">
        <ele>4</ele>
        <time>2025-01-28T09:26:24Z</time>
      </trkpt>
      <trkpt lat="47.63424" lon="-2.79214">
        <ele>3.9</ele>
        <time>2025-01-28T09:26:25Z</time>
      </trkpt>
      <trkpt lat="47.63424" lon="-2.79212">
        <ele>3.9</ele>
        <time>2025-01-28T09:26:26Z</time>
      </trkpt>
      <trkpt lat="47.63423" lon="-2.7921">
        <ele>3.9</ele>
        <time>2025-01-28T09:26:27Z</time>
      </trkpt>
      <trkpt lat="47.63423" lon="-2.79209">
        <ele>3.9</ele>
        <time>2025-01-28T09:26:28Z</time>
      </trkpt>
      <trkpt lat="47.63422" lon="-2.79207">
        <ele>3.8</ele>
        <time>2025-01-28T09:26:29Z</time>
      </trkpt>
      <trkpt lat="47.63422" lon="-2.79205">
        <ele>3.8</ele>
        <time>2025-01-28T09:26:30Z</time>
      </trkpt>
      <trkpt lat="47.63423" lon="-2.79203">
        <ele>3.7</ele>
        <time>2025-01-28T09:26:31Z</time>
      </trkpt>
      <trkpt lat="47.63423" lon="-2.79201">
        <ele>3.6</ele>
        <time>2025-01-28T09:26:32Z</time>
      </trkpt>
      <trkpt lat="47.63423" lon="-2.792">
        <ele>3.5</ele>
        <time>2025-01-28T09:26:33Z</time>
      </trkpt>
      <trkpt lat="47.63423" lon="-2.79198">
        <ele>3.4</ele>
        <time>2025-01-28T09:26:34Z</time>
      </trkpt>
      <trkpt lat="47.63423" lon="-2.79196">
        <ele>3.4</ele>
        <time>2025-01-28T09:26:35Z</time>
      </trkpt>
      <trkpt lat="47.63423" lon="-2.79194">
        <ele>3.3</ele>
        <time>2025-01-28T09:26:36Z</time>
      </trkpt>
      <trkpt lat="47.63423" lon="-2.79193">
        <ele>3.3</ele>
        <time>2025-01-28T09:26:37Z</time>
      </trkpt>
      <trkpt lat="47.63423" lon="-2.79191">
        <ele>3.2</ele>
        <time>2025-01-28T09:26:38Z</time>
      </trkpt>
      <trkpt lat="47.63423" lon="-2.79189">
        <ele>3.2</ele>
        <time>2025-01-28T09:26:39Z</time>
      </trkpt>
      <trkpt lat="47.63423" lon="-2.79188">
        <ele>3.2</ele>
        <time>2025-01-28T09:26:40Z</time>
      </trkpt>
      <trkpt lat="47.63423" lon="-2.79186">
        <ele>3.1</ele>
        <time>2025-01-28T09:26:41Z</time>
      </trkpt>
      <trkpt lat="47.63423" lon="-2.79184">
        <ele>3</ele>
        <time>2025-01-28T09:26:42Z</time>
      </trkpt>
      <trkpt lat="47.63423" lon="-2.79182">
        <ele>2.9</ele>
        <time>2025-01-28T09:26:43Z</time>
      </trkpt>
      <trkpt lat="47.63423" lon="-2.7918">
        <ele>2.9</ele>
        <time>2025-01-28T09:26:44Z</time>
      </trkpt>
      <trkpt lat="47.63423" lon="-2.79178">
        <ele>2.9</ele>
        <time>2025-01-28T09:26:45Z</time>
      </trkpt>
      <trkpt lat="47.63423" lon="-2.79177">
        <ele>2.9</ele>
        <time>2025-01-28T09:26:46Z</time>
      </trkpt>
      <trkpt lat="47.63423" lon="-2.79175">
        <ele>2.8</ele>
        <time>2025-01-28T09:26:47Z</time>
      </trkpt>
      <trkpt lat="47.63423" lon="-2.79173">
        <ele>2.7</ele>
        <time>2025-01-28T09:26:48Z</time>
      </trkpt>
      <trkpt lat="47.63423" lon="-2.79171">
        <ele>2.7</ele>
        <time>2025-01-28T09:26:49Z</time>
      </trkpt>
      <trkpt lat="47.63423" lon="-2.79169">
        <ele>2.6</ele>
        <time>2025-01-28T09:26:50Z</time>
      </trkpt>
      <trkpt lat="47.63423" lon="-2.79168">
        <ele>2.5</ele>
        <time>2025-01-28T09:26:51Z</time>
      </trkpt>
      <trkpt lat="47.63424" lon="-2.79166">
        <ele>2.5</ele>
        <time>2025-01-28T09:26:52Z</time>
      </trkpt>
      <trkpt lat="47.63424" lon="-2.79164">
        <ele>2.5</ele>
        <time>2025-01-28T09:26:53Z</time>
      </trkpt>
      <trkpt lat="47.63424" lon="-2.79162">
        <ele>2.5</ele>
        <time>2025-01-28T09:26:54Z</time>
      </trkpt>
      <trkpt lat="47.63424" lon="-2.7916">
        <ele>2.5</ele>
        <time>2025-01-28T09:26:55Z</time>
      </trkpt>
      <trkpt lat="47.63424" lon="-2.79158">
        <ele>2.5</ele>
        <time>2025-01-28T09:26:56Z</time>
      </trkpt>
      <trkpt lat="47.63424" lon="-2.79157">
        <ele>2.5</ele>
        <time>2025-01-28T09:26:57Z</time>
      </trkpt>
      <trkpt lat="47.63424" lon="-2.79155">
        <ele>2.5</ele>
        <time>2025-01-28T09:26:58Z</time>
      </trkpt>
      <trkpt lat="47.63424" lon="-2.79153">
        <ele>2.5</ele>
        <time>2025-01-28T09:26:59Z</time>
      </trkpt>
      <trkpt lat="47.63424" lon="-2.79152">
        <ele>2.5</ele>
        <time>2025-01-28T09:27:00Z</time>
      </trkpt>
      <trkpt lat="47.63423" lon="-2.79151">
        <ele>2.5</ele>
        <time>2025-01-28T09:27:01Z</time>
      </trkpt>
      <trkpt lat="47.63423" lon="-2.79149">
        <ele>2.5</ele>
        <time>2025-01-28T09:27:02Z</time>
      </trkpt>
      <trkpt lat="47.63423" lon="-2.79147">
        <ele>2.5</ele>
        <time>2025-01-28T09:27:03Z</time>
      </trkpt>
      <trkpt lat="47.63423" lon="-2.79146">
        <ele>2.5</ele>
        <time>2025-01-28T09:27:04Z</time>
      </trkpt>
      <trkpt lat="47.63423" lon="-2.79145">
        <ele>2.6</ele>
        <time>2025-01-28T09:27:05Z</time>
      </trkpt>
      <trkpt lat="47.63423" lon="-2.79144">
        <ele>2.6</ele>
        <time>2025-01-28T09:27:06Z</time>
      </trkpt>
      <trkpt lat="47.63423" lon="-2.79142">
        <ele>2.6</ele>
        <time>2025-01-28T09:27:07Z</time>
      </trkpt>
      <trkpt lat="47.63422" lon="-2.79141">
        <ele>2.6</ele>
        <time>2025-01-28T09:27:08Z</time>
      </trkpt>
      <trkpt lat="47.63421" lon="-2.79139">
        <ele>2.7</ele>
        <time>2025-01-28T09:27:09Z</time>
      </trkpt>
      <trkpt lat="47.63421" lon="-2.79137">
        <ele>2.7</ele>
        <time>2025-01-28T09:27:10Z</time>
      </trkpt>
      <trkpt lat="47.6342" lon="-2.79136">
        <ele>2.7</ele>
        <time>2025-01-28T09:27:11Z</time>
      </trkpt>
      <trkpt lat="47.6342" lon="-2.79134">
        <ele>2.6</ele>
        <time>2025-01-28T09:27:12Z</time>
      </trkpt>
      <trkpt lat="47.63419" lon="-2.79132">
        <ele>2.6</ele>
        <time>2025-01-28T09:27:13Z</time>
      </trkpt>
      <trkpt lat="47.63419" lon="-2.7913">
        <ele>2.6</ele>
        <time>2025-01-28T09:27:14Z</time>
      </trkpt>
      <trkpt lat="47.63418" lon="-2.79129">
        <ele>2.5</ele>
        <time>2025-01-28T09:27:15Z</time>
      </trkpt>
      <trkpt lat="47.63418" lon="-2.79127">
        <ele>2.5</ele>
        <time>2025-01-28T09:27:16Z</time>
      </trkpt>
      <trkpt lat="47.63417" lon="-2.79126">
        <ele>2.5</ele>
        <time>2025-01-28T09:27:17Z</time>
      </trkpt>
      <trkpt lat="47.63416" lon="-2.79124">
        <ele>2.5</ele>
        <time>2025-01-28T09:27:18Z</time>
      </trkpt>
      <trkpt lat="47.63416" lon="-2.79122">
        <ele>2.5</ele>
        <time>2025-01-28T09:27:19Z</time>
      </trkpt>
      <trkpt lat="47.63415" lon="-2.79121">
        <ele>2.4</ele>
        <time>2025-01-28T09:27:20Z</time>
      </trkpt>
      <trkpt lat="47.63414" lon="-2.79119">
        <ele>2.4</ele>
        <time>2025-01-28T09:27:21Z</time>
      </trkpt>
      <trkpt lat="47.63414" lon="-2.79118">
        <ele>2.4</ele>
        <time>2025-01-28T09:27:22Z</time>
      </trkpt>
      <trkpt lat="47.63413" lon="-2.79116">
        <ele>2.4</ele>
        <time>2025-01-28T09:27:23Z</time>
      </trkpt>
      <trkpt lat="47.63413" lon="-2.79115">
        <ele>2.4</ele>
        <time>2025-01-28T09:27:24Z</time>
      </trkpt>
      <trkpt lat="47.63412" lon="-2.79114">
        <ele>2.4</ele>
        <time>2025-01-28T09:27:25Z</time>
      </trkpt>
      <trkpt lat="47.63412" lon="-2.79112">
        <ele>2.4</ele>
        <time>2025-01-28T09:27:26Z</time>
      </trkpt>
      <trkpt lat="47.63411" lon="-2.79111">
        <ele>2.4</ele>
        <time>2025-01-28T09:27:27Z</time>
      </trkpt>
      <trkpt lat="47.63411" lon="-2.79109">
        <ele>2.3</ele>
        <time>2025-01-28T09:27:28Z</time>
      </trkpt>
      <trkpt lat="47.63411" lon="-2.79108">
        <ele>2.3</ele>
        <time>2025-01-28T09:27:29Z</time>
      </trkpt>
      <trkpt lat="47.6341" lon="-2.79106">
        <ele>2.3</ele>
        <time>2025-01-28T09:27:30Z</time>
      </trkpt>
      <trkpt lat="47.6341" lon="-2.79104">
        <ele>2.2</ele>
        <time>2025-01-28T09:27:31Z</time>
      </trkpt>
      <trkpt lat="47.63411" lon="-2.79102">
        <ele>2.1</ele>
        <time>2025-01-28T09:27:32Z</time>
      </trkpt>
      <trkpt lat="47.63411" lon="-2.79101">
        <ele>2.1</ele>
        <time>2025-01-28T09:27:33Z</time>
      </trkpt>
      <trkpt lat="47.6341" lon="-2.79099">
        <ele>2</ele>
        <time>2025-01-28T09:27:34Z</time>
      </trkpt>
      <trkpt lat="47.6341" lon="-2.79097">
        <ele>2</ele>
        <time>2025-01-28T09:27:35Z</time>
      </trkpt>
      <trkpt lat="47.6341" lon="-2.79096">
        <ele>1.9</ele>
        <time>2025-01-28T09:27:36Z</time>
      </trkpt>
      <trkpt lat="47.6341" lon="-2.79094">
        <ele>1.9</ele>
        <time>2025-01-28T09:27:37Z</time>
      </trkpt>
      <trkpt lat="47.63409" lon="-2.79093">
        <ele>1.9</ele>
        <time>2025-01-28T09:27:38Z</time>
      </trkpt>
      <trkpt lat="47.63408" lon="-2.79092">
        <ele>1.9</ele>
        <time>2025-01-28T09:27:39Z</time>
      </trkpt>
      <trkpt lat="47.63407" lon="-2.79091">
        <ele>2</ele>
        <time>2025-01-28T09:27:40Z</time>
      </trkpt>
      <trkpt lat="47.63406" lon="-2.79091">
        <ele>2.1</ele>
        <time>2025-01-28T09:27:41Z</time>
      </trkpt>
      <trkpt lat="47.63405" lon="-2.79091">
        <ele>2.1</ele>
        <time>2025-01-28T09:27:42Z</time>
      </trkpt>
      <trkpt lat="47.63404" lon="-2.79091">
        <ele>2.2</ele>
        <time>2025-01-28T09:27:43Z</time>
      </trkpt>
      <trkpt lat="47.63403" lon="-2.79091">
        <ele>2.3</ele>
        <time>2025-01-28T09:27:44Z</time>
      </trkpt>
      <trkpt lat="47.63402" lon="-2.7909">
        <ele>2.3</ele>
        <time>2025-01-28T09:27:45Z</time>
      </trkpt>
      <trkpt lat="47.63401" lon="-2.79089">
        <ele>2.3</ele>
        <time>2025-01-28T09:27:46Z</time>
      </trkpt>
      <trkpt lat="47.634" lon="-2.79088">
        <ele>2.4</ele>
        <time>2025-01-28T09:27:47Z</time>
      </trkpt>
      <trkpt lat="47.63399" lon="-2.79087">
        <ele>2.4</ele>
        <time>2025-01-28T09:27:48Z</time>
      </trkpt>
      <trkpt lat="47.63398" lon="-2.79086">
        <ele>2.4</ele>
        <time>2025-01-28T09:27:49Z</time>
      </trkpt>
      <trkpt lat="47.63398" lon="-2.79085">
        <ele>2.4</ele>
        <time>2025-01-28T09:27:50Z</time>
      </trkpt>
      <trkpt lat="47.63397" lon="-2.79084">
        <ele>2.4</ele>
        <time>2025-01-28T09:27:51Z</time>
      </trkpt>
      <trkpt lat="47.63396" lon="-2.79083">
        <ele>2.5</ele>
        <time>2025-01-28T09:27:52Z</time>
      </trkpt>
      <trkpt lat="47.63396" lon="-2.79081">
        <ele>2.5</ele>
        <time>2025-01-28T09:27:53Z</time>
      </trkpt>
      <trkpt lat="47.63396" lon="-2.79079">
        <ele>2.5</ele>
        <time>2025-01-28T09:27:54Z</time>
      </trkpt>
      <trkpt lat="47.63395" lon="-2.79077">
        <ele>2.5</ele>
        <time>2025-01-28T09:27:55Z</time>
      </trkpt>
      <trkpt lat="47.63395" lon="-2.79075">
        <ele>2.6</ele>
        <time>2025-01-28T09:27:56Z</time>
      </trkpt>
      <trkpt lat="47.63395" lon="-2.79073">
        <ele>2.6</ele>
        <time>2025-01-28T09:27:57Z</time>
      </trkpt>
      <trkpt lat="47.63395" lon="-2.79071">
        <ele>2.6</ele>
        <time>2025-01-28T09:27:58Z</time>
      </trkpt>
      <trkpt lat="47.63395" lon="-2.79069">
        <ele>2.6</ele>
        <time>2025-01-28T09:27:59Z</time>
      </trkpt>
      <trkpt lat="47.63395" lon="-2.79067">
        <ele>2.6</ele>
        <time>2025-01-28T09:28:00Z</time>
      </trkpt>
      <trkpt lat="47.63395" lon="-2.79066">
        <ele>2.6</ele>
        <time>2025-01-28T09:28:01Z</time>
      </trkpt>
      <trkpt lat="47.63394" lon="-2.79064">
        <ele>2.6</ele>
        <time>2025-01-28T09:28:02Z</time>
      </trkpt>
      <trkpt lat="47.63394" lon="-2.79062">
        <ele>2.6</ele>
        <time>2025-01-28T09:28:03Z</time>
      </trkpt>
      <trkpt lat="47.63394" lon="-2.79061">
        <ele>2.7</ele>
        <time>2025-01-28T09:28:04Z</time>
      </trkpt>
      <trkpt lat="47.63394" lon="-2.79059">
        <ele>2.7</ele>
        <time>2025-01-28T09:28:05Z</time>
      </trkpt>
      <trkpt lat="47.63394" lon="-2.79057">
        <ele>2.6</ele>
        <time>2025-01-28T09:28:06Z</time>
      </trkpt>
      <trkpt lat="47.63394" lon="-2.79055">
        <ele>2.6</ele>
        <time>2025-01-28T09:28:07Z</time>
      </trkpt>
      <trkpt lat="47.63394" lon="-2.79053">
        <ele>2.6</ele>
        <time>2025-01-28T09:28:08Z</time>
      </trkpt>
      <trkpt lat="47.63394" lon="-2.79051">
        <ele>2.6</ele>
        <time>2025-01-28T09:28:09Z</time>
      </trkpt>
      <trkpt lat="47.63394" lon="-2.7905">
        <ele>2.6</ele>
        <time>2025-01-28T09:28:10Z</time>
      </trkpt>
      <trkpt lat="47.63394" lon="-2.79048">
        <ele>2.6</ele>
        <time>2025-01-28T09:28:11Z</time>
      </trkpt>
      <trkpt lat="47.63394" lon="-2.79046">
        <ele>2.6</ele>
        <time>2025-01-28T09:28:12Z</time>
      </trkpt>
      <trkpt lat="47.63395" lon="-2.79045">
        <ele>2.6</ele>
        <time>2025-01-28T09:28:13Z</time>
      </trkpt>
      <trkpt lat="47.63395" lon="-2.79045">
        <ele>2.6</ele>
        <time>2025-01-28T09:28:14Z</time>
      </trkpt>
      <trkpt lat="47.63395" lon="-2.79045">
        <ele>2.6</ele>
        <time>2025-01-28T09:28:15Z</time>
      </trkpt>
      <trkpt lat="47.63395" lon="-2.79045">
        <ele>2.6</ele>
        <time>2025-01-28T09:28:16Z</time>
      </trkpt>
      <trkpt lat="47.63396" lon="-2.79044">
        <ele>2.5</ele>
        <time>2025-01-28T09:28:17Z</time>
      </trkpt>
      <trkpt lat="47.63397" lon="-2.79042">
        <ele>2.5</ele>
        <time>2025-01-28T09:28:18Z</time>
      </trkpt>
      <trkpt lat="47.63397" lon="-2.79041">
        <ele>2.5</ele>
        <time>2025-01-28T09:28:19Z</time>
      </trkpt>
      <trkpt lat="47.63397" lon="-2.79039">
        <ele>2.5</ele>
        <time>2025-01-28T09:28:20Z</time>
      </trkpt>
      <trkpt lat="47.63397" lon="-2.79037">
        <ele>2.5</ele>
        <time>2025-01-28T09:28:21Z</time>
      </trkpt>
      <trkpt lat="47.63396" lon="-2.79036">
        <ele>2.5</ele>
        <time>2025-01-28T09:28:22Z</time>
      </trkpt>
      <trkpt lat="47.63396" lon="-2.79034">
        <ele>2.5</ele>
        <time>2025-01-28T09:28:23Z</time>
      </trkpt>
      <trkpt lat="47.63397" lon="-2.79033">
        <ele>2.4</ele>
        <time>2025-01-28T09:28:24Z</time>
      </trkpt>
      <trkpt lat="47.63396" lon="-2.79031">
        <ele>2.5</ele>
        <time>2025-01-28T09:28:25Z</time>
      </trkpt>
      <trkpt lat="47.63396" lon="-2.79029">
        <ele>2.5</ele>
        <time>2025-01-28T09:28:26Z</time>
      </trkpt>
      <trkpt lat="47.63397" lon="-2.79028">
        <ele>2.5</ele>
        <time>2025-01-28T09:28:27Z</time>
      </trkpt>
      <trkpt lat="47.63397" lon="-2.79026">
        <ele>2.4</ele>
        <time>2025-01-28T09:28:28Z</time>
      </trkpt>
      <trkpt lat="47.63397" lon="-2.79024">
        <ele>2.4</ele>
        <time>2025-01-28T09:28:29Z</time>
      </trkpt>
      <trkpt lat="47.63397" lon="-2.79022">
        <ele>2.4</ele>
        <time>2025-01-28T09:28:30Z</time>
      </trkpt>
      <trkpt lat="47.63397" lon="-2.7902">
        <ele>2.4</ele>
        <time>2025-01-28T09:28:31Z</time>
      </trkpt>
      <trkpt lat="47.63397" lon="-2.79018">
        <ele>2.4</ele>
        <time>2025-01-28T09:28:32Z</time>
      </trkpt>
      <trkpt lat="47.63397" lon="-2.79016">
        <ele>2.4</ele>
        <time>2025-01-28T09:28:33Z</time>
      </trkpt>
      <trkpt lat="47.63397" lon="-2.79015">
        <ele>2.4</ele>
        <time>2025-01-28T09:28:34Z</time>
      </trkpt>
      <trkpt lat="47.63397" lon="-2.79013">
        <ele>2.5</ele>
        <time>2025-01-28T09:28:35Z</time>
      </trkpt>
      <trkpt lat="47.63396" lon="-2.79011">
        <ele>2.5</ele>
        <time>2025-01-28T09:28:36Z</time>
      </trkpt>
      <trkpt lat="47.63396" lon="-2.7901">
        <ele>2.5</ele>
        <time>2025-01-28T09:28:37Z</time>
      </trkpt>
      <trkpt lat="47.63396" lon="-2.79008">
        <ele>2.5</ele>
        <time>2025-01-28T09:28:38Z</time>
      </trkpt>
      <trkpt lat="47.63395" lon="-2.79007">
        <ele>2.6</ele>
        <time>2025-01-28T09:28:39Z</time>
      </trkpt>
      <trkpt lat="47.63394" lon="-2.79005">
        <ele>2.6</ele>
        <time>2025-01-28T09:28:40Z</time>
      </trkpt>
      <trkpt lat="47.63394" lon="-2.79003">
        <ele>2.6</ele>
        <time>2025-01-28T09:28:41Z</time>
      </trkpt>
      <trkpt lat="47.63394" lon="-2.79002">
        <ele>2.7</ele>
        <time>2025-01-28T09:28:42Z</time>
      </trkpt>
      <trkpt lat="47.63393" lon="-2.79001">
        <ele>2.7</ele>
        <time>2025-01-28T09:28:43Z</time>
      </trkpt>
      <trkpt lat="47.63392" lon="-2.78999">
        <ele>2.7</ele>
        <time>2025-01-28T09:28:44Z</time>
      </trkpt>
      <trkpt lat="47.63392" lon="-2.78998">
        <ele>2.7</ele>
        <time>2025-01-28T09:28:45Z</time>
      </trkpt>
      <trkpt lat="47.63391" lon="-2.78997">
        <ele>2.7</ele>
        <time>2025-01-28T09:28:46Z</time>
      </trkpt>
      <trkpt lat="47.6339" lon="-2.78995">
        <ele>2.7</ele>
        <time>2025-01-28T09:28:47Z</time>
      </trkpt>
      <trkpt lat="47.6339" lon="-2.78994">
        <ele>2.7</ele>
        <time>2025-01-28T09:28:48Z</time>
      </trkpt>
      <trkpt lat="47.6339" lon="-2.78993">
        <ele>2.7</ele>
        <time>2025-01-28T09:28:49Z</time>
      </trkpt>
      <trkpt lat="47.6339" lon="-2.78991">
        <ele>2.6</ele>
        <time>2025-01-28T09:28:50Z</time>
      </trkpt>
      <trkpt lat="47.63389" lon="-2.78989">
        <ele>2.6</ele>
        <time>2025-01-28T09:28:51Z</time>
      </trkpt>
      <trkpt lat="47.63389" lon="-2.78988">
        <ele>2.6</ele>
        <time>2025-01-28T09:28:52Z</time>
      </trkpt>
      <trkpt lat="47.63389" lon="-2.78986">
        <ele>2.5</ele>
        <time>2025-01-28T09:28:53Z</time>
      </trkpt>
      <trkpt lat="47.63389" lon="-2.78984">
        <ele>2.5</ele>
        <time>2025-01-28T09:28:54Z</time>
      </trkpt>
      <trkpt lat="47.63388" lon="-2.78983">
        <ele>2.4</ele>
        <time>2025-01-28T09:28:55Z</time>
      </trkpt>
      <trkpt lat="47.63388" lon="-2.78981">
        <ele>2.4</ele>
        <time>2025-01-28T09:28:56Z</time>
      </trkpt>
      <trkpt lat="47.63388" lon="-2.7898">
        <ele>2.3</ele>
        <time>2025-01-28T09:28:57Z</time>
      </trkpt>
      <trkpt lat="47.63387" lon="-2.78978">
        <ele>2.3</ele>
        <time>2025-01-28T09:28:58Z</time>
      </trkpt>
      <trkpt lat="47.63387" lon="-2.78977">
        <ele>2.2</ele>
        <time>2025-01-28T09:28:59Z</time>
      </trkpt>
      <trkpt lat="47.63386" lon="-2.78975">
        <ele>2.2</ele>
        <time>2025-01-28T09:29:00Z</time>
      </trkpt>
      <trkpt lat="47.63386" lon="-2.78973">
        <ele>2.1</ele>
        <time>2025-01-28T09:29:01Z</time>
      </trkpt>
      <trkpt lat="47.63385" lon="-2.78972">
        <ele>2.1</ele>
        <time>2025-01-28T09:29:02Z</time>
      </trkpt>
      <trkpt lat="47.63384" lon="-2.78971">
        <ele>2.1</ele>
        <time>2025-01-28T09:29:03Z</time>
      </trkpt>
      <trkpt lat="47.63383" lon="-2.78971">
        <ele>2.2</ele>
        <time>2025-01-28T09:29:04Z</time>
      </trkpt>
      <trkpt lat="47.63383" lon="-2.78971">
        <ele>2.2</ele>
        <time>2025-01-28T09:29:05Z</time>
      </trkpt>
      <trkpt lat="47.63383" lon="-2.7897">
        <ele>2.2</ele>
        <time>2025-01-28T09:29:06Z</time>
      </trkpt>
      <trkpt lat="47.63383" lon="-2.78969">
        <ele>2.1</ele>
        <time>2025-01-28T09:29:07Z</time>
      </trkpt>
      <trkpt lat="47.63383" lon="-2.78969">
        <ele>2.1</ele>
        <time>2025-01-28T09:29:08Z</time>
      </trkpt>
      <trkpt lat="47.63382" lon="-2.78968">
        <ele>2.1</ele>
        <time>2025-01-28T09:29:09Z</time>
      </trkpt>
      <trkpt lat="47.63381" lon="-2.78967">
        <ele>2.1</ele>
        <time>2025-01-28T09:29:10Z</time>
      </trkpt>
      <trkpt lat="47.6338" lon="-2.78966">
        <ele>2.1</ele>
        <time>2025-01-28T09:29:11Z</time>
      </trkpt>
      <trkpt lat="47.6338" lon="-2.78965">
        <ele>2.2</ele>
        <time>2025-01-28T09:29:12Z</time>
      </trkpt>
      <trkpt lat="47.63379" lon="-2.78965">
        <ele>2.2</ele>
        <time>2025-01-28T09:29:13Z</time>
      </trkpt>
      <trkpt lat="47.63378" lon="-2.78964">
        <ele>2.2</ele>
        <time>2025-01-28T09:29:14Z</time>
      </trkpt>
      <trkpt lat="47.63377" lon="-2.78964">
        <ele>2.3</ele>
        <time>2025-01-28T09:29:15Z</time>
      </trkpt>
      <trkpt lat="47.63376" lon="-2.78963">
        <ele>2.3</ele>
        <time>2025-01-28T09:29:16Z</time>
      </trkpt>
      <trkpt lat="47.63375" lon="-2.78962">
        <ele>2.3</ele>
        <time>2025-01-28T09:29:17Z</time>
      </trkpt>
      <trkpt lat="47.63374" lon="-2.7896">
        <ele>2.3</ele>
        <time>2025-01-28T09:29:18Z</time>
      </trkpt>
      <trkpt lat="47.63373" lon="-2.78959">
        <ele>2.4</ele>
        <time>2025-01-28T09:29:19Z</time>
      </trkpt>
      <trkpt lat="47.63372" lon="-2.78958">
        <ele>2.4</ele>
        <time>2025-01-28T09:29:20Z</time>
      </trkpt>
      <trkpt lat="47.63372" lon="-2.78957">
        <ele>2.4</ele>
        <time>2025-01-28T09:29:21Z</time>
      </trkpt>
      <trkpt lat="47.63371" lon="-2.78957">
        <ele>2.4</ele>
        <time>2025-01-28T09:29:22Z</time>
      </trkpt>
      <trkpt lat="47.63371" lon="-2.78957">
        <ele>2.5</ele>
        <time>2025-01-28T09:29:23Z</time>
      </trkpt>
      <trkpt lat="47.6337" lon="-2.78956">
        <ele>2.5</ele>
        <time>2025-01-28T09:29:24Z</time>
      </trkpt>
      <trkpt lat="47.63369" lon="-2.78955">
        <ele>2.5</ele>
        <time>2025-01-28T09:29:25Z</time>
      </trkpt>
      <trkpt lat="47.63369" lon="-2.78955">
        <ele>2.6</ele>
        <time>2025-01-28T09:29:26Z</time>
      </trkpt>
      <trkpt lat="47.63368" lon="-2.78955">
        <ele>2.6</ele>
        <time>2025-01-28T09:29:27Z</time>
      </trkpt>
      <trkpt lat="47.63367" lon="-2.78954">
        <ele>2.7</ele>
        <time>2025-01-28T09:29:28Z</time>
      </trkpt>
      <trkpt lat="47.63366" lon="-2.78952">
        <ele>2.7</ele>
        <time>2025-01-28T09:29:29Z</time>
      </trkpt>
      <trkpt lat="47.63365" lon="-2.78951">
        <ele>2.8</ele>
        <time>2025-01-28T09:29:30Z</time>
      </trkpt>
      <trkpt lat="47.63364" lon="-2.7895">
        <ele>2.8</ele>
        <time>2025-01-28T09:29:31Z</time>
      </trkpt>
      <trkpt lat="47.63363" lon="-2.78949">
        <ele>2.9</ele>
        <time>2025-01-28T09:29:32Z</time>
      </trkpt>
      <trkpt lat="47.63362" lon="-2.78949">
        <ele>2.9</ele>
        <time>2025-01-28T09:29:33Z</time>
      </trkpt>
      <trkpt lat="47.63361" lon="-2.78948">
        <ele>3</ele>
        <time>2025-01-28T09:29:34Z</time>
      </trkpt>
      <trkpt lat="47.6336" lon="-2.78947">
        <ele>3</ele>
        <time>2025-01-28T09:29:35Z</time>
      </trkpt>
      <trkpt lat="47.63359" lon="-2.78945">
        <ele>3.1</ele>
        <time>2025-01-28T09:29:36Z</time>
      </trkpt>
      <trkpt lat="47.63358" lon="-2.78944">
        <ele>3.1</ele>
        <time>2025-01-28T09:29:37Z</time>
      </trkpt>
      <trkpt lat="47.63357" lon="-2.78943">
        <ele>3</ele>
        <time>2025-01-28T09:29:38Z</time>
      </trkpt>
      <trkpt lat="47.63356" lon="-2.78943">
        <ele>3.1</ele>
        <time>2025-01-28T09:29:39Z</time>
      </trkpt>
      <trkpt lat="47.63355" lon="-2.78942">
        <ele>3.1</ele>
        <time>2025-01-28T09:29:40Z</time>
      </trkpt>
      <trkpt lat="47.63354" lon="-2.78942">
        <ele>3.1</ele>
        <time>2025-01-28T09:29:41Z</time>
      </trkpt>
      <trkpt lat="47.63353" lon="-2.78942">
        <ele>3.1</ele>
        <time>2025-01-28T09:29:42Z</time>
      </trkpt>
      <trkpt lat="47.63352" lon="-2.78941">
        <ele>3.1</ele>
        <time>2025-01-28T09:29:43Z</time>
      </trkpt>
      <trkpt lat="47.6335" lon="-2.78941">
        <ele>3.1</ele>
        <time>2025-01-28T09:29:44Z</time>
      </trkpt>
      <trkpt lat="47.6335" lon="-2.7894">
        <ele>3.1</ele>
        <time>2025-01-28T09:29:45Z</time>
      </trkpt>
      <trkpt lat="47.63349" lon="-2.7894">
        <ele>3.1</ele>
        <time>2025-01-28T09:29:46Z</time>
      </trkpt>
      <trkpt lat="47.63347" lon="-2.7894">
        <ele>3.1</ele>
        <time>2025-01-28T09:29:47Z</time>
      </trkpt>
      <trkpt lat="47.63346" lon="-2.78939">
        <ele>3.2</ele>
        <time>2025-01-28T09:29:48Z</time>
      </trkpt>
      <trkpt lat="47.63345" lon="-2.78939">
        <ele>3.2</ele>
        <time>2025-01-28T09:29:49Z</time>
      </trkpt>
      <trkpt lat="47.63344" lon="-2.78938">
        <ele>3.1</ele>
        <time>2025-01-28T09:29:50Z</time>
      </trkpt>
      <trkpt lat="47.63343" lon="-2.78937">
        <ele>3.1</ele>
        <time>2025-01-28T09:29:51Z</time>
      </trkpt>
      <trkpt lat="47.63342" lon="-2.78936">
        <ele>3.1</ele>
        <time>2025-01-28T09:29:52Z</time>
      </trkpt>
      <trkpt lat="47.63341" lon="-2.78936">
        <ele>3.1</ele>
        <time>2025-01-28T09:29:53Z</time>
      </trkpt>
      <trkpt lat="47.6334" lon="-2.78936">
        <ele>3.1</ele>
        <time>2025-01-28T09:29:54Z</time>
      </trkpt>
      <trkpt lat="47.63339" lon="-2.78935">
        <ele>3.1</ele>
        <time>2025-01-28T09:29:55Z</time>
      </trkpt>
      <trkpt lat="47.63338" lon="-2.78934">
        <ele>3.1</ele>
        <time>2025-01-28T09:29:56Z</time>
      </trkpt>
      <trkpt lat="47.63337" lon="-2.78934">
        <ele>3.1</ele>
        <time>2025-01-28T09:29:57Z</time>
      </trkpt>
      <trkpt lat="47.63336" lon="-2.78933">
        <ele>3.1</ele>
        <time>2025-01-28T09:29:58Z</time>
      </trkpt>
      <trkpt lat="47.63335" lon="-2.78932">
        <ele>3</ele>
        <time>2025-01-28T09:29:59Z</time>
      </trkpt>
      <trkpt lat="47.63334" lon="-2.78931">
        <ele>3</ele>
        <time>2025-01-28T09:30:00Z</time>
      </trkpt>
      <trkpt lat="47.63332" lon="-2.7893">
        <ele>3.1</ele>
        <time>2025-01-28T09:30:01Z</time>
      </trkpt>
      <trkpt lat="47.63331" lon="-2.78929">
        <ele>3.1</ele>
        <time>2025-01-28T09:30:02Z</time>
      </trkpt>
      <trkpt lat="47.6333" lon="-2.78929">
        <ele>3.2</ele>
        <time>2025-01-28T09:30:03Z</time>
      </trkpt>
      <trkpt lat="47.63329" lon="-2.78928">
        <ele>3.2</ele>
        <time>2025-01-28T09:30:04Z</time>
      </trkpt>
      <trkpt lat="47.63328" lon="-2.78928">
        <ele>3.3</ele>
        <time>2025-01-28T09:30:05Z</time>
      </trkpt>
      <trkpt lat="47.63327" lon="-2.78927">
        <ele>3.3</ele>
        <time>2025-01-28T09:30:06Z</time>
      </trkpt>
      <trkpt lat="47.63326" lon="-2.78925">
        <ele>3.3</ele>
        <time>2025-01-28T09:30:07Z</time>
      </trkpt>
      <trkpt lat="47.63325" lon="-2.78924">
        <ele>3.4</ele>
        <time>2025-01-28T09:30:08Z</time>
      </trkpt>
      <trkpt lat="47.63324" lon="-2.78924">
        <ele>3.5</ele>
        <time>2025-01-28T09:30:09Z</time>
      </trkpt>
      <trkpt lat="47.63323" lon="-2.78924">
        <ele>3.6</ele>
        <time>2025-01-28T09:30:10Z</time>
      </trkpt>
      <trkpt lat="47.63322" lon="-2.78923">
        <ele>3.6</ele>
        <time>2025-01-28T09:30:11Z</time>
      </trkpt>
      <trkpt lat="47.63321" lon="-2.78922">
        <ele>3.6</ele>
        <time>2025-01-28T09:30:12Z</time>
      </trkpt>
      <trkpt lat="47.6332" lon="-2.78921">
        <ele>3.6</ele>
        <time>2025-01-28T09:30:13Z</time>
      </trkpt>
      <trkpt lat="47.6332" lon="-2.7892">
        <ele>3.6</ele>
        <time>2025-01-28T09:30:14Z</time>
      </trkpt>
      <trkpt lat="47.63319" lon="-2.78919">
        <ele>3.7</ele>
        <time>2025-01-28T09:30:15Z</time>
      </trkpt>
      <trkpt lat="47.63318" lon="-2.78917">
        <ele>3.7</ele>
        <time>2025-01-28T09:30:16Z</time>
      </trkpt>
      <trkpt lat="47.63317" lon="-2.78916">
        <ele>3.7</ele>
        <time>2025-01-28T09:30:17Z</time>
      </trkpt>
      <trkpt lat="47.63316" lon="-2.78916">
        <ele>3.8</ele>
        <time>2025-01-28T09:30:18Z</time>
      </trkpt>
      <trkpt lat="47.63315" lon="-2.78916">
        <ele>3.9</ele>
        <time>2025-01-28T09:30:19Z</time>
      </trkpt>
      <trkpt lat="47.63314" lon="-2.78915">
        <ele>4</ele>
        <time>2025-01-28T09:30:20Z</time>
      </trkpt>
      <trkpt lat="47.63313" lon="-2.78915">
        <ele>4</ele>
        <time>2025-01-28T09:30:21Z</time>
      </trkpt>
      <trkpt lat="47.63312" lon="-2.78914">
        <ele>4</ele>
        <time>2025-01-28T09:30:22Z</time>
      </trkpt>
      <trkpt lat="47.63311" lon="-2.78913">
        <ele>4</ele>
        <time>2025-01-28T09:30:23Z</time>
      </trkpt>
      <trkpt lat="47.6331" lon="-2.78913">
        <ele>4.1</ele>
        <time>2025-01-28T09:30:24Z</time>
      </trkpt>
      <trkpt lat="47.63309" lon="-2.78912">
        <ele>4</ele>
        <time>2025-01-28T09:30:25Z</time>
      </trkpt>
      <trkpt lat="47.63308" lon="-2.78911">
        <ele>4</ele>
        <time>2025-01-28T09:30:26Z</time>
      </trkpt>
      <trkpt lat="47.63308" lon="-2.7891">
        <ele>3.9</ele>
        <time>2025-01-28T09:30:27Z</time>
      </trkpt>
      <trkpt lat="47.63307" lon="-2.78909">
        <ele>3.7</ele>
        <time>2025-01-28T09:30:28Z</time>
      </trkpt>
      <trkpt lat="47.63307" lon="-2.78908">
        <ele>3.7</ele>
        <time>2025-01-28T09:30:29Z</time>
      </trkpt>
      <trkpt lat="47.63306" lon="-2.78908">
        <ele>3.7</ele>
        <time>2025-01-28T09:30:30Z</time>
      </trkpt>
      <trkpt lat="47.63305" lon="-2.78907">
        <ele>3.6</ele>
        <time>2025-01-28T09:30:31Z</time>
      </trkpt>
      <trkpt lat="47.63305" lon="-2.78905">
        <ele>3.5</ele>
        <time>2025-01-28T09:30:32Z</time>
      </trkpt>
      <trkpt lat="47.63304" lon="-2.78905">
        <ele>3.4</ele>
        <time>2025-01-28T09:30:33Z</time>
      </trkpt>
      <trkpt lat="47.63303" lon="-2.78904">
        <ele>3.4</ele>
        <time>2025-01-28T09:30:34Z</time>
      </trkpt>
      <trkpt lat="47.63303" lon="-2.78903">
        <ele>3.4</ele>
        <time>2025-01-28T09:30:35Z</time>
      </trkpt>
      <trkpt lat="47.63302" lon="-2.78902">
        <ele>3.3</ele>
        <time>2025-01-28T09:30:36Z</time>
      </trkpt>
      <trkpt lat="47.63301" lon="-2.78902">
        <ele>3.4</ele>
        <time>2025-01-28T09:30:37Z</time>
      </trkpt>
      <trkpt lat="47.633" lon="-2.78901">
        <ele>3.5</ele>
        <time>2025-01-28T09:30:38Z</time>
      </trkpt>
      <trkpt lat="47.63299" lon="-2.78901">
        <ele>3.6</ele>
        <time>2025-01-28T09:30:39Z</time>
      </trkpt>
      <trkpt lat="47.63298" lon="-2.789">
        <ele>3.6</ele>
        <time>2025-01-28T09:30:40Z</time>
      </trkpt>
      <trkpt lat="47.63297" lon="-2.789">
        <ele>3.7</ele>
        <time>2025-01-28T09:30:41Z</time>
      </trkpt>
      <trkpt lat="47.63296" lon="-2.78899">
        <ele>3.8</ele>
        <time>2025-01-28T09:30:42Z</time>
      </trkpt>
      <trkpt lat="47.63295" lon="-2.78899">
        <ele>4</ele>
        <time>2025-01-28T09:30:43Z</time>
      </trkpt>
      <trkpt lat="47.63294" lon="-2.78898">
        <ele>4.1</ele>
        <time>2025-01-28T09:30:44Z</time>
      </trkpt>
      <trkpt lat="47.63292" lon="-2.78899">
        <ele>4.3</ele>
        <time>2025-01-28T09:30:45Z</time>
      </trkpt>
      <trkpt lat="47.63291" lon="-2.78897">
        <ele>4.3</ele>
        <time>2025-01-28T09:30:46Z</time>
      </trkpt>
      <trkpt lat="47.6329" lon="-2.78896">
        <ele>4.3</ele>
        <time>2025-01-28T09:30:47Z</time>
      </trkpt>
      <trkpt lat="47.63289" lon="-2.78895">
        <ele>4.4</ele>
        <time>2025-01-28T09:30:48Z</time>
      </trkpt>
      <trkpt lat="47.63288" lon="-2.78894">
        <ele>4.5</ele>
        <time>2025-01-28T09:30:49Z</time>
      </trkpt>
      <trkpt lat="47.63287" lon="-2.78893">
        <ele>4.6</ele>
        <time>2025-01-28T09:30:50Z</time>
      </trkpt>
      <trkpt lat="47.63286" lon="-2.78893">
        <ele>4.8</ele>
        <time>2025-01-28T09:30:51Z</time>
      </trkpt>
      <trkpt lat="47.63285" lon="-2.78892">
        <ele>4.8</ele>
        <time>2025-01-28T09:30:52Z</time>
      </trkpt>
      <trkpt lat="47.63284" lon="-2.7889">
        <ele>4.9</ele>
        <time>2025-01-28T09:30:53Z</time>
      </trkpt>
      <trkpt lat="47.63284" lon="-2.78889">
        <ele>5</ele>
        <time>2025-01-28T09:30:54Z</time>
      </trkpt>
      <trkpt lat="47.63283" lon="-2.78888">
        <ele>4.9</ele>
        <time>2025-01-28T09:30:55Z</time>
      </trkpt>
      <trkpt lat="47.63282" lon="-2.78886">
        <ele>4.8</ele>
        <time>2025-01-28T09:30:56Z</time>
      </trkpt>
      <trkpt lat="47.63282" lon="-2.78885">
        <ele>4.7</ele>
        <time>2025-01-28T09:30:57Z</time>
      </trkpt>
      <trkpt lat="47.63281" lon="-2.78884">
        <ele>4.7</ele>
        <time>2025-01-28T09:30:58Z</time>
      </trkpt>
      <trkpt lat="47.6328" lon="-2.78883">
        <ele>4.6</ele>
        <time>2025-01-28T09:30:59Z</time>
      </trkpt>
      <trkpt lat="47.63279" lon="-2.78882">
        <ele>4.6</ele>
        <time>2025-01-28T09:31:00Z</time>
      </trkpt>
      <trkpt lat="47.63278" lon="-2.78881">
        <ele>4.6</ele>
        <time>2025-01-28T09:31:01Z</time>
      </trkpt>
      <trkpt lat="47.63277" lon="-2.7888">
        <ele>4.5</ele>
        <time>2025-01-28T09:31:02Z</time>
      </trkpt>
      <trkpt lat="47.63276" lon="-2.78879">
        <ele>4.4</ele>
        <time>2025-01-28T09:31:03Z</time>
      </trkpt>
      <trkpt lat="47.63275" lon="-2.78879">
        <ele>4.4</ele>
        <time>2025-01-28T09:31:04Z</time>
      </trkpt>
      <trkpt lat="47.63274" lon="-2.78877">
        <ele>4.2</ele>
        <time>2025-01-28T09:31:05Z</time>
      </trkpt>
      <trkpt lat="47.63274" lon="-2.78876">
        <ele>4</ele>
        <time>2025-01-28T09:31:06Z</time>
      </trkpt>
      <trkpt lat="47.63272" lon="-2.78875">
        <ele>4</ele>
        <time>2025-01-28T09:31:07Z</time>
      </trkpt>
      <trkpt lat="47.63271" lon="-2.78874">
        <ele>3.9</ele>
        <time>2025-01-28T09:31:08Z</time>
      </trkpt>
      <trkpt lat="47.6327" lon="-2.78873">
        <ele>3.9</ele>
        <time>2025-01-28T09:31:09Z</time>
      </trkpt>
      <trkpt lat="47.63269" lon="-2.78872">
        <ele>3.8</ele>
        <time>2025-01-28T09:31:10Z</time>
      </trkpt>
      <trkpt lat="47.63269" lon="-2.78871">
        <ele>3.8</ele>
        <time>2025-01-28T09:31:11Z</time>
      </trkpt>
      <trkpt lat="47.63267" lon="-2.7887">
        <ele>3.8</ele>
        <time>2025-01-28T09:31:12Z</time>
      </trkpt>
      <trkpt lat="47.63266" lon="-2.7887">
        <ele>3.9</ele>
        <time>2025-01-28T09:31:13Z</time>
      </trkpt>
      <trkpt lat="47.63265" lon="-2.78869">
        <ele>3.9</ele>
        <time>2025-01-28T09:31:14Z</time>
      </trkpt>
      <trkpt lat="47.63264" lon="-2.78868">
        <ele>3.8</ele>
        <time>2025-01-28T09:31:15Z</time>
      </trkpt>
      <trkpt lat="47.63263" lon="-2.78867">
        <ele>3.8</ele>
        <time>2025-01-28T09:31:16Z</time>
      </trkpt>
      <trkpt lat="47.63262" lon="-2.78866">
        <ele>3.8</ele>
        <time>2025-01-28T09:31:17Z</time>
      </trkpt>
      <trkpt lat="47.63261" lon="-2.78866">
        <ele>3.9</ele>
        <time>2025-01-28T09:31:18Z</time>
      </trkpt>
      <trkpt lat="47.6326" lon="-2.78865">
        <ele>4</ele>
        <time>2025-01-28T09:31:19Z</time>
      </trkpt>
      <trkpt lat="47.63259" lon="-2.78865">
        <ele>4.2</ele>
        <time>2025-01-28T09:31:20Z</time>
      </trkpt>
      <trkpt lat="47.63257" lon="-2.78865">
        <ele>4.4</ele>
        <time>2025-01-28T09:31:21Z</time>
      </trkpt>
      <trkpt lat="47.63256" lon="-2.78864">
        <ele>4.4</ele>
        <time>2025-01-28T09:31:22Z</time>
      </trkpt>
      <trkpt lat="47.63255" lon="-2.78864">
        <ele>4.6</ele>
        <time>2025-01-28T09:31:23Z</time>
      </trkpt>
      <trkpt lat="47.63253" lon="-2.78863">
        <ele>4.7</ele>
        <time>2025-01-28T09:31:24Z</time>
      </trkpt>
      <trkpt lat="47.63252" lon="-2.78862">
        <ele>4.8</ele>
        <time>2025-01-28T09:31:25Z</time>
      </trkpt>
      <trkpt lat="47.63251" lon="-2.78861">
        <ele>4.84</ele>
        <time>2025-01-28T09:31:26Z</time>
      </trkpt>
      <trkpt lat="47.6325" lon="-2.7886">
        <ele>4.97</ele>
        <time>2025-01-28T09:31:27Z</time>
      </trkpt>
      <trkpt lat="47.63249" lon="-2.78859">
        <ele>5</ele>
        <time>2025-01-28T09:31:28Z</time>
      </trkpt>
      <trkpt lat="47.63248" lon="-2.78857">
        <ele>4.9</ele>
        <time>2025-01-28T09:31:29Z</time>
      </trkpt>
      <trkpt lat="47.63247" lon="-2.78856">
        <ele>4.9</ele>
        <time>2025-01-28T09:31:30Z</time>
      </trkpt>
      <trkpt lat="47.63246" lon="-2.78854">
        <ele>4.9</ele>
        <time>2025-01-28T09:31:31Z</time>
      </trkpt>
      <trkpt lat="47.63246" lon="-2.78853">
        <ele>4.8</ele>
        <time>2025-01-28T09:31:32Z</time>
      </trkpt>
      <trkpt lat="47.63245" lon="-2.78852">
        <ele>4.8</ele>
        <time>2025-01-28T09:31:33Z</time>
      </trkpt>
      <trkpt lat="47.63244" lon="-2.78851">
        <ele>4.8</ele>
        <time>2025-01-28T09:31:34Z</time>
      </trkpt>
      <trkpt lat="47.63243" lon="-2.7885">
        <ele>4.8</ele>
        <time>2025-01-28T09:31:35Z</time>
      </trkpt>
      <trkpt lat="47.63242" lon="-2.7885">
        <ele>4.8</ele>
        <time>2025-01-28T09:31:36Z</time>
      </trkpt>
      <trkpt lat="47.63241" lon="-2.78849">
        <ele>4.7</ele>
        <time>2025-01-28T09:31:37Z</time>
      </trkpt>
      <trkpt lat="47.6324" lon="-2.78847">
        <ele>4.7</ele>
        <time>2025-01-28T09:31:38Z</time>
      </trkpt>
      <trkpt lat="47.63239" lon="-2.78846">
        <ele>4.6</ele>
        <time>2025-01-28T09:31:39Z</time>
      </trkpt>
      <trkpt lat="47.63239" lon="-2.78845">
        <ele>4.6</ele>
        <time>2025-01-28T09:31:40Z</time>
      </trkpt>
      <trkpt lat="47.63238" lon="-2.78844">
        <ele>4.5</ele>
        <time>2025-01-28T09:31:41Z</time>
      </trkpt>
      <trkpt lat="47.63238" lon="-2.78842">
        <ele>4.5</ele>
        <time>2025-01-28T09:31:42Z</time>
      </trkpt>
      <trkpt lat="47.63237" lon="-2.78841">
        <ele>4.4</ele>
        <time>2025-01-28T09:31:43Z</time>
      </trkpt>
      <trkpt lat="47.63237" lon="-2.7884">
        <ele>4.4</ele>
        <time>2025-01-28T09:31:44Z</time>
      </trkpt>
      <trkpt lat="47.63236" lon="-2.78839">
        <ele>4.3</ele>
        <time>2025-01-28T09:31:45Z</time>
      </trkpt>
      <trkpt lat="47.63235" lon="-2.78838">
        <ele>4.2</ele>
        <time>2025-01-28T09:31:46Z</time>
      </trkpt>
      <trkpt lat="47.63234" lon="-2.78837">
        <ele>4.2</ele>
        <time>2025-01-28T09:31:47Z</time>
      </trkpt>
      <trkpt lat="47.63233" lon="-2.78836">
        <ele>4.2</ele>
        <time>2025-01-28T09:31:48Z</time>
      </trkpt>
      <trkpt lat="47.63232" lon="-2.78836">
        <ele>4.1</ele>
        <time>2025-01-28T09:31:49Z</time>
      </trkpt>
      <trkpt lat="47.63231" lon="-2.78835">
        <ele>4.1</ele>
        <time>2025-01-28T09:31:50Z</time>
      </trkpt>
      <trkpt lat="47.6323" lon="-2.78834">
        <ele>4</ele>
        <time>2025-01-28T09:31:51Z</time>
      </trkpt>
      <trkpt lat="47.63229" lon="-2.78833">
        <ele>4</ele>
        <time>2025-01-28T09:31:52Z</time>
      </trkpt>
      <trkpt lat="47.63228" lon="-2.78833">
        <ele>4</ele>
        <time>2025-01-28T09:31:53Z</time>
      </trkpt>
      <trkpt lat="47.63227" lon="-2.78832">
        <ele>4</ele>
        <time>2025-01-28T09:31:54Z</time>
      </trkpt>
      <trkpt lat="47.63225" lon="-2.78832">
        <ele>4</ele>
        <time>2025-01-28T09:31:55Z</time>
      </trkpt>
      <trkpt lat="47.63224" lon="-2.78832">
        <ele>4</ele>
        <time>2025-01-28T09:31:56Z</time>
      </trkpt>
      <trkpt lat="47.63223" lon="-2.78831">
        <ele>4</ele>
        <time>2025-01-28T09:31:57Z</time>
      </trkpt>
      <trkpt lat="47.63222" lon="-2.7883">
        <ele>3.7</ele>
        <time>2025-01-28T09:31:58Z</time>
      </trkpt>
      <trkpt lat="47.63221" lon="-2.7883">
        <ele>3.5</ele>
        <time>2025-01-28T09:31:59Z</time>
      </trkpt>
      <trkpt lat="47.6322" lon="-2.78829">
        <ele>3.4</ele>
        <time>2025-01-28T09:32:00Z</time>
      </trkpt>
      <trkpt lat="47.63219" lon="-2.78829">
        <ele>3.3</ele>
        <time>2025-01-28T09:32:01Z</time>
      </trkpt>
      <trkpt lat="47.63218" lon="-2.78828">
        <ele>3.2</ele>
        <time>2025-01-28T09:32:02Z</time>
      </trkpt>
      <trkpt lat="47.63217" lon="-2.78827">
        <ele>3</ele>
        <time>2025-01-28T09:32:03Z</time>
      </trkpt>
      <trkpt lat="47.63216" lon="-2.78827">
        <ele>2.9</ele>
        <time>2025-01-28T09:32:04Z</time>
      </trkpt>
      <trkpt lat="47.63215" lon="-2.78826">
        <ele>2.8</ele>
        <time>2025-01-28T09:32:05Z</time>
      </trkpt>
      <trkpt lat="47.63215" lon="-2.78824">
        <ele>2.6</ele>
        <time>2025-01-28T09:32:06Z</time>
      </trkpt>
      <trkpt lat="47.63214" lon="-2.78823">
        <ele>2.5</ele>
        <time>2025-01-28T09:32:07Z</time>
      </trkpt>
      <trkpt lat="47.63213" lon="-2.78821">
        <ele>2.3</ele>
        <time>2025-01-28T09:32:08Z</time>
      </trkpt>
      <trkpt lat="47.63213" lon="-2.7882">
        <ele>2.2</ele>
        <time>2025-01-28T09:32:09Z</time>
      </trkpt>
      <trkpt lat="47.63212" lon="-2.78818">
        <ele>2</ele>
        <time>2025-01-28T09:32:10Z</time>
      </trkpt>
      <trkpt lat="47.63212" lon="-2.78817">
        <ele>1.9</ele>
        <time>2025-01-28T09:32:11Z</time>
      </trkpt>
      <trkpt lat="47.63211" lon="-2.78816">
        <ele>1.8</ele>
        <time>2025-01-28T09:32:12Z</time>
      </trkpt>
      <trkpt lat="47.6321" lon="-2.78815">
        <ele>1.7</ele>
        <time>2025-01-28T09:32:13Z</time>
      </trkpt>
      <trkpt lat="47.6321" lon="-2.78813">
        <ele>1.6</ele>
        <time>2025-01-28T09:32:14Z</time>
      </trkpt>
      <trkpt lat="47.6321" lon="-2.78813">
        <ele>1.6</ele>
        <time>2025-01-28T09:32:15Z</time>
      </trkpt>
      <trkpt lat="47.63211" lon="-2.78812">
        <ele>1.5</ele>
        <time>2025-01-28T09:32:16Z</time>
      </trkpt>
      <trkpt lat="47.63211" lon="-2.7881">
        <ele>1.4</ele>
        <time>2025-01-28T09:32:17Z</time>
      </trkpt>
      <trkpt lat="47.63211" lon="-2.78809">
        <ele>1.3</ele>
        <time>2025-01-28T09:32:18Z</time>
      </trkpt>
      <trkpt lat="47.63209" lon="-2.7881">
        <ele>1.3</ele>
        <time>2025-01-28T09:32:19Z</time>
      </trkpt>
      <trkpt lat="47.63209" lon="-2.78811">
        <ele>1.4</ele>
        <time>2025-01-28T09:32:20Z</time>
      </trkpt>
      <trkpt lat="47.63209" lon="-2.78812">
        <ele>1.5</ele>
        <time>2025-01-28T09:32:21Z</time>
      </trkpt>
      <trkpt lat="47.63209" lon="-2.78814">
        <ele>1.6</ele>
        <time>2025-01-28T09:32:22Z</time>
      </trkpt>
      <trkpt lat="47.63209" lon="-2.78814">
        <ele>1.6</ele>
        <time>2025-01-28T09:32:23Z</time>
      </trkpt>
      <trkpt lat="47.63209" lon="-2.78815">
        <ele>1.7</ele>
        <time>2025-01-28T09:32:24Z</time>
      </trkpt>
      <trkpt lat="47.6321" lon="-2.78816">
        <ele>1.8</ele>
        <time>2025-01-28T09:32:25Z</time>
      </trkpt>
      <trkpt lat="47.6321" lon="-2.78817">
        <ele>1.9</ele>
        <time>2025-01-28T09:32:26Z</time>
      </trkpt>
      <trkpt lat="47.6321" lon="-2.78817">
        <ele>1.9</ele>
        <time>2025-01-28T09:32:27Z</time>
      </trkpt>
      <trkpt lat="47.6321" lon="-2.78817">
        <ele>1.9</ele>
        <time>2025-01-28T09:32:28Z</time>
      </trkpt>
      <trkpt lat="47.6321" lon="-2.78817">
        <ele>1.9</ele>
        <time>2025-01-28T09:32:29Z</time>
      </trkpt>
      <trkpt lat="47.6321" lon="-2.78817">
        <ele>1.8</ele>
        <time>2025-01-28T09:32:30Z</time>
      </trkpt>
      <trkpt lat="47.6321" lon="-2.78817">
        <ele>1.9</ele>
        <time>2025-01-28T09:32:31Z</time>
      </trkpt>
      <trkpt lat="47.6321" lon="-2.78818">
        <ele>1.9</ele>
        <time>2025-01-28T09:32:32Z</time>
      </trkpt>
      <trkpt lat="47.63209" lon="-2.78819">
        <ele>2</ele>
        <time>2025-01-28T09:32:33Z</time>
      </trkpt>
      <trkpt lat="47.63209" lon="-2.78819">
        <ele>2</ele>
        <time>2025-01-28T09:32:34Z</time>
      </trkpt>
      <trkpt lat="47.63208" lon="-2.78819">
        <ele>2</ele>
        <time>2025-01-28T09:32:35Z</time>
      </trkpt>
      <trkpt lat="47.63208" lon="-2.7882">
        <ele>2</ele>
        <time>2025-01-28T09:32:36Z</time>
      </trkpt>
      <trkpt lat="47.63207" lon="-2.78822">
        <ele>2.1</ele>
        <time>2025-01-28T09:32:37Z</time>
      </trkpt>
      <trkpt lat="47.63207" lon="-2.78823">
        <ele>2.2</ele>
        <time>2025-01-28T09:32:38Z</time>
      </trkpt>
      <trkpt lat="47.63206" lon="-2.78824">
        <ele>2.2</ele>
        <time>2025-01-28T09:32:39Z</time>
      </trkpt>
      <trkpt lat="47.63206" lon="-2.78824">
        <ele>2.2</ele>
        <time>2025-01-28T09:32:40Z</time>
      </trkpt>
      <trkpt lat="47.63204" lon="-2.78825">
        <ele>2.2</ele>
        <time>2025-01-28T09:32:41Z</time>
      </trkpt>
      <trkpt lat="47.63203" lon="-2.78826">
        <ele>2.2</ele>
        <time>2025-01-28T09:32:42Z</time>
      </trkpt>
      <trkpt lat="47.63202" lon="-2.78827">
        <ele>2.2</ele>
        <time>2025-01-28T09:32:43Z</time>
      </trkpt>
      <trkpt lat="47.63202" lon="-2.78828">
        <ele>2.2</ele>
        <time>2025-01-28T09:32:44Z</time>
      </trkpt>
      <trkpt lat="47.63201" lon="-2.78829">
        <ele>2.3</ele>
        <time>2025-01-28T09:32:45Z</time>
      </trkpt>
      <trkpt lat="47.632" lon="-2.78831">
        <ele>2.3</ele>
        <time>2025-01-28T09:32:46Z</time>
      </trkpt>
      <trkpt lat="47.63199" lon="-2.78832">
        <ele>2.3</ele>
        <time>2025-01-28T09:32:47Z</time>
      </trkpt>
      <trkpt lat="47.63198" lon="-2.78833">
        <ele>2.3</ele>
        <time>2025-01-28T09:32:48Z</time>
      </trkpt>
      <trkpt lat="47.63197" lon="-2.78835">
        <ele>2.3</ele>
        <time>2025-01-28T09:32:49Z</time>
      </trkpt>
      <trkpt lat="47.63196" lon="-2.78836">
        <ele>2.4</ele>
        <time>2025-01-28T09:32:50Z</time>
      </trkpt>
      <trkpt lat="47.63196" lon="-2.78837">
        <ele>2.5</ele>
        <time>2025-01-28T09:32:51Z</time>
      </trkpt>
      <trkpt lat="47.63195" lon="-2.78839">
        <ele>2.6</ele>
        <time>2025-01-28T09:32:52Z</time>
      </trkpt>
      <trkpt lat="47.63194" lon="-2.7884">
        <ele>2.7</ele>
        <time>2025-01-28T09:32:53Z</time>
      </trkpt>
      <trkpt lat="47.63194" lon="-2.78841">
        <ele>2.8</ele>
        <time>2025-01-28T09:32:54Z</time>
      </trkpt>
      <trkpt lat="47.63193" lon="-2.78843">
        <ele>2.9</ele>
        <time>2025-01-28T09:32:55Z</time>
      </trkpt>
      <trkpt lat="47.63192" lon="-2.78844">
        <ele>3</ele>
        <time>2025-01-28T09:32:56Z</time>
      </trkpt>
      <trkpt lat="47.63192" lon="-2.78846">
        <ele>3.1</ele>
        <time>2025-01-28T09:32:57Z</time>
      </trkpt>
      <trkpt lat="47.63191" lon="-2.78847">
        <ele>3.2</ele>
        <time>2025-01-28T09:32:58Z</time>
      </trkpt>
      <trkpt lat="47.63191" lon="-2.78849">
        <ele>3.3</ele>
        <time>2025-01-28T09:32:59Z</time>
      </trkpt>
      <trkpt lat="47.6319" lon="-2.78851">
        <ele>3.4</ele>
        <time>2025-01-28T09:33:00Z</time>
      </trkpt>
      <trkpt lat="47.6319" lon="-2.78852">
        <ele>3.5</ele>
        <time>2025-01-28T09:33:01Z</time>
      </trkpt>
      <trkpt lat="47.63189" lon="-2.78853">
        <ele>3.5</ele>
        <time>2025-01-28T09:33:02Z</time>
      </trkpt>
      <trkpt lat="47.63188" lon="-2.78855">
        <ele>3.6</ele>
        <time>2025-01-28T09:33:03Z</time>
      </trkpt>
      <trkpt lat="47.63188" lon="-2.78856">
        <ele>3.6</ele>
        <time>2025-01-28T09:33:04Z</time>
      </trkpt>
      <trkpt lat="47.63187" lon="-2.78858">
        <ele>3.7</ele>
        <time>2025-01-28T09:33:05Z</time>
      </trkpt>
      <trkpt lat="47.63186" lon="-2.78859">
        <ele>3.7</ele>
        <time>2025-01-28T09:33:06Z</time>
      </trkpt>
      <trkpt lat="47.63186" lon="-2.78861">
        <ele>3.7</ele>
        <time>2025-01-28T09:33:07Z</time>
      </trkpt>
      <trkpt lat="47.63185" lon="-2.78863">
        <ele>3.7</ele>
        <time>2025-01-28T09:33:08Z</time>
      </trkpt>
      <trkpt lat="47.63184" lon="-2.78865">
        <ele>3.7</ele>
        <time>2025-01-28T09:33:09Z</time>
      </trkpt>
      <trkpt lat="47.63183" lon="-2.78867">
        <ele>3.7</ele>
        <time>2025-01-28T09:33:10Z</time>
      </trkpt>
      <trkpt lat="47.63183" lon="-2.78869">
        <ele>3.7</ele>
        <time>2025-01-28T09:33:11Z</time>
      </trkpt>
      <trkpt lat="47.63182" lon="-2.78871">
        <ele>3.8</ele>
        <time>2025-01-28T09:33:12Z</time>
      </trkpt>
      <trkpt lat="47.63182" lon="-2.78873">
        <ele>3.9</ele>
        <time>2025-01-28T09:33:13Z</time>
      </trkpt>
      <trkpt lat="47.63182" lon="-2.78875">
        <ele>4</ele>
        <time>2025-01-28T09:33:14Z</time>
      </trkpt>
      <trkpt lat="47.63182" lon="-2.78877">
        <ele>4</ele>
        <time>2025-01-28T09:33:15Z</time>
      </trkpt>
      <trkpt lat="47.63181" lon="-2.78879">
        <ele>4</ele>
        <time>2025-01-28T09:33:16Z</time>
      </trkpt>
      <trkpt lat="47.6318" lon="-2.78881">
        <ele>4</ele>
        <time>2025-01-28T09:33:17Z</time>
      </trkpt>
      <trkpt lat="47.63179" lon="-2.78882">
        <ele>3.9</ele>
        <time>2025-01-28T09:33:18Z</time>
      </trkpt>
      <trkpt lat="47.63178" lon="-2.78883">
        <ele>3.8</ele>
        <time>2025-01-28T09:33:19Z</time>
      </trkpt>
      <trkpt lat="47.63178" lon="-2.78885">
        <ele>3.8</ele>
        <time>2025-01-28T09:33:20Z</time>
      </trkpt>
      <trkpt lat="47.63177" lon="-2.78887">
        <ele>3.8</ele>
        <time>2025-01-28T09:33:21Z</time>
      </trkpt>
      <trkpt lat="47.63176" lon="-2.78888">
        <ele>3.7</ele>
        <time>2025-01-28T09:33:22Z</time>
      </trkpt>
      <trkpt lat="47.63176" lon="-2.78889">
        <ele>3.6</ele>
        <time>2025-01-28T09:33:23Z</time>
      </trkpt>
      <trkpt lat="47.63175" lon="-2.7889">
        <ele>3.6</ele>
        <time>2025-01-28T09:33:24Z</time>
      </trkpt>
      <trkpt lat="47.63174" lon="-2.78892">
        <ele>3.6</ele>
        <time>2025-01-28T09:33:25Z</time>
      </trkpt>
      <trkpt lat="47.63173" lon="-2.78893">
        <ele>3.6</ele>
        <time>2025-01-28T09:33:26Z</time>
      </trkpt>
      <trkpt lat="47.63172" lon="-2.78894">
        <ele>3.7</ele>
        <time>2025-01-28T09:33:27Z</time>
      </trkpt>
      <trkpt lat="47.63171" lon="-2.78895">
        <ele>3.7</ele>
        <time>2025-01-28T09:33:28Z</time>
      </trkpt>
      <trkpt lat="47.63171" lon="-2.78896">
        <ele>3.7</ele>
        <time>2025-01-28T09:33:29Z</time>
      </trkpt>
      <trkpt lat="47.6317" lon="-2.78897">
        <ele>3.7</ele>
        <time>2025-01-28T09:33:30Z</time>
      </trkpt>
      <trkpt lat="47.63168" lon="-2.78899">
        <ele>3.7</ele>
        <time>2025-01-28T09:33:31Z</time>
      </trkpt>
      <trkpt lat="47.63168" lon="-2.789">
        <ele>3.7</ele>
        <time>2025-01-28T09:33:32Z</time>
      </trkpt>
      <trkpt lat="47.63166" lon="-2.78901">
        <ele>3.7</ele>
        <time>2025-01-28T09:33:33Z</time>
      </trkpt>
      <trkpt lat="47.63166" lon="-2.78902">
        <ele>3.9</ele>
        <time>2025-01-28T09:33:34Z</time>
      </trkpt>
      <trkpt lat="47.63164" lon="-2.78902">
        <ele>4</ele>
        <time>2025-01-28T09:33:35Z</time>
      </trkpt>
      <trkpt lat="47.63163" lon="-2.78902">
        <ele>4.1</ele>
        <time>2025-01-28T09:33:36Z</time>
      </trkpt>
      <trkpt lat="47.63163" lon="-2.78902">
        <ele>4.2</ele>
        <time>2025-01-28T09:33:37Z</time>
      </trkpt>
      <trkpt lat="47.63162" lon="-2.78903">
        <ele>4.3</ele>
        <time>2025-01-28T09:33:38Z</time>
      </trkpt>
      <trkpt lat="47.63161" lon="-2.78904">
        <ele>4.5</ele>
        <time>2025-01-28T09:33:39Z</time>
      </trkpt>
      <trkpt lat="47.6316" lon="-2.78905">
        <ele>4.7</ele>
        <time>2025-01-28T09:33:40Z</time>
      </trkpt>
      <trkpt lat="47.63159" lon="-2.78906">
        <ele>4.9</ele>
        <time>2025-01-28T09:33:41Z</time>
      </trkpt>
      <trkpt lat="47.63159" lon="-2.78907">
        <ele>5</ele>
        <time>2025-01-28T09:33:42Z</time>
      </trkpt>
      <trkpt lat="47.63158" lon="-2.78908">
        <ele>5.1</ele>
        <time>2025-01-28T09:33:43Z</time>
      </trkpt>
      <trkpt lat="47.63157" lon="-2.78909">
        <ele>5.3</ele>
        <time>2025-01-28T09:33:44Z</time>
      </trkpt>
      <trkpt lat="47.63157" lon="-2.7891">
        <ele>5.4</ele>
        <time>2025-01-28T09:33:45Z</time>
      </trkpt>
      <trkpt lat="47.63156" lon="-2.7891">
        <ele>5.4</ele>
        <time>2025-01-28T09:33:46Z</time>
      </trkpt>
      <trkpt lat="47.63155" lon="-2.7891">
        <ele>5.5</ele>
        <time>2025-01-28T09:33:47Z</time>
      </trkpt>
      <trkpt lat="47.63155" lon="-2.78912">
        <ele>5.6</ele>
        <time>2025-01-28T09:33:48Z</time>
      </trkpt>
      <trkpt lat="47.63154" lon="-2.78913">
        <ele>5.7</ele>
        <time>2025-01-28T09:33:49Z</time>
      </trkpt>
      <trkpt lat="47.63154" lon="-2.78915">
        <ele>5.9</ele>
        <time>2025-01-28T09:33:50Z</time>
      </trkpt>
      <trkpt lat="47.63153" lon="-2.78917">
        <ele>6</ele>
        <time>2025-01-28T09:33:51Z</time>
      </trkpt>
      <trkpt lat="47.63153" lon="-2.78918">
        <ele>6.1</ele>
        <time>2025-01-28T09:33:52Z</time>
      </trkpt>
      <trkpt lat="47.63153" lon="-2.7892">
        <ele>6.1</ele>
        <time>2025-01-28T09:33:53Z</time>
      </trkpt>
      <trkpt lat="47.63152" lon="-2.78922">
        <ele>6.2</ele>
        <time>2025-01-28T09:33:54Z</time>
      </trkpt>
      <trkpt lat="47.63151" lon="-2.78924">
        <ele>6.2</ele>
        <time>2025-01-28T09:33:55Z</time>
      </trkpt>
      <trkpt lat="47.6315" lon="-2.78924">
        <ele>6.2</ele>
        <time>2025-01-28T09:33:56Z</time>
      </trkpt>
      <trkpt lat="47.63149" lon="-2.78924">
        <ele>6.1</ele>
        <time>2025-01-28T09:33:57Z</time>
      </trkpt>
      <trkpt lat="47.63147" lon="-2.78923">
        <ele>6</ele>
        <time>2025-01-28T09:33:58Z</time>
      </trkpt>
      <trkpt lat="47.63146" lon="-2.78922">
        <ele>6</ele>
        <time>2025-01-28T09:33:59Z</time>
      </trkpt>
      <trkpt lat="47.63145" lon="-2.78921">
        <ele>6</ele>
        <time>2025-01-28T09:34:00Z</time>
      </trkpt>
      <trkpt lat="47.63143" lon="-2.7892">
        <ele>6</ele>
        <time>2025-01-28T09:34:01Z</time>
      </trkpt>
      <trkpt lat="47.63142" lon="-2.7892">
        <ele>5.9</ele>
        <time>2025-01-28T09:34:02Z</time>
      </trkpt>
      <trkpt lat="47.63141" lon="-2.7892">
        <ele>5.9</ele>
        <time>2025-01-28T09:34:03Z</time>
      </trkpt>
      <trkpt lat="47.63141" lon="-2.78918">
        <ele>6</ele>
        <time>2025-01-28T09:34:04Z</time>
      </trkpt>
      <trkpt lat="47.63141" lon="-2.78915">
        <ele>6</ele>
        <time>2025-01-28T09:34:05Z</time>
      </trkpt>
      <trkpt lat="47.63141" lon="-2.78913">
        <ele>6</ele>
        <time>2025-01-28T09:34:06Z</time>
      </trkpt>
      <trkpt lat="47.63142" lon="-2.78911">
        <ele>5.9</ele>
        <time>2025-01-28T09:34:07Z</time>
      </trkpt>
      <trkpt lat="47.63142" lon="-2.78909">
        <ele>5.9</ele>
        <time>2025-01-28T09:34:08Z</time>
      </trkpt>
      <trkpt lat="47.63143" lon="-2.78908">
        <ele>5.8</ele>
        <time>2025-01-28T09:34:09Z</time>
      </trkpt>
      <trkpt lat="47.63144" lon="-2.78906">
        <ele>5.7</ele>
        <time>2025-01-28T09:34:10Z</time>
      </trkpt>
      <trkpt lat="47.63143" lon="-2.78904">
        <ele>5.7</ele>
        <time>2025-01-28T09:34:11Z</time>
      </trkpt>
      <trkpt lat="47.63143" lon="-2.78902">
        <ele>5.7</ele>
        <time>2025-01-28T09:34:12Z</time>
      </trkpt>
      <trkpt lat="47.63143" lon="-2.78901">
        <ele>5.6</ele>
        <time>2025-01-28T09:34:13Z</time>
      </trkpt>
      <trkpt lat="47.63143" lon="-2.78899">
        <ele>5.6</ele>
        <time>2025-01-28T09:34:14Z</time>
      </trkpt>
      <trkpt lat="47.63143" lon="-2.78897">
        <ele>5.5</ele>
        <time>2025-01-28T09:34:15Z</time>
      </trkpt>
      <trkpt lat="47.63143" lon="-2.78895">
        <ele>5.5</ele>
        <time>2025-01-28T09:34:16Z</time>
      </trkpt>
      <trkpt lat="47.63143" lon="-2.78893">
        <ele>5.5</ele>
        <time>2025-01-28T09:34:17Z</time>
      </trkpt>
      <trkpt lat="47.63143" lon="-2.78891">
        <ele>5.4</ele>
        <time>2025-01-28T09:34:18Z</time>
      </trkpt>
      <trkpt lat="47.63143" lon="-2.78889">
        <ele>5.4</ele>
        <time>2025-01-28T09:34:19Z</time>
      </trkpt>
      <trkpt lat="47.63143" lon="-2.78887">
        <ele>5.5</ele>
        <time>2025-01-28T09:34:20Z</time>
      </trkpt>
      <trkpt lat="47.63143" lon="-2.78885">
        <ele>5.6</ele>
        <time>2025-01-28T09:34:21Z</time>
      </trkpt>
      <trkpt lat="47.63144" lon="-2.78883">
        <ele>5.6</ele>
        <time>2025-01-28T09:34:22Z</time>
      </trkpt>
      <trkpt lat="47.63144" lon="-2.78881">
        <ele>5.6</ele>
        <time>2025-01-28T09:34:23Z</time>
      </trkpt>
      <trkpt lat="47.63145" lon="-2.7888">
        <ele>5.7</ele>
        <time>2025-01-28T09:34:24Z</time>
      </trkpt>
      <trkpt lat="47.63145" lon="-2.78878">
        <ele>5.6</ele>
        <time>2025-01-28T09:34:25Z</time>
      </trkpt>
      <trkpt lat="47.63145" lon="-2.78875">
        <ele>5.7</ele>
        <time>2025-01-28T09:34:26Z</time>
      </trkpt>
      <trkpt lat="47.63145" lon="-2.78873">
        <ele>5.8</ele>
        <time>2025-01-28T09:34:27Z</time>
      </trkpt>
      <trkpt lat="47.63146" lon="-2.78871">
        <ele>5.7</ele>
        <time>2025-01-28T09:34:28Z</time>
      </trkpt>
      <trkpt lat="47.63147" lon="-2.7887">
        <ele>5.7</ele>
        <time>2025-01-28T09:34:29Z</time>
      </trkpt>
      <trkpt lat="47.63148" lon="-2.78869">
        <ele>5.5</ele>
        <time>2025-01-28T09:34:30Z</time>
      </trkpt>
      <trkpt lat="47.63148" lon="-2.78866">
        <ele>5.5</ele>
        <time>2025-01-28T09:34:31Z</time>
      </trkpt>
      <trkpt lat="47.63148" lon="-2.78864">
        <ele>5.7</ele>
        <time>2025-01-28T09:34:32Z</time>
      </trkpt>
      <trkpt lat="47.63148" lon="-2.78862">
        <ele>5.7</ele>
        <time>2025-01-28T09:34:33Z</time>
      </trkpt>
      <trkpt lat="47.63149" lon="-2.78861">
        <ele>5.6</ele>
        <time>2025-01-28T09:34:34Z</time>
      </trkpt>
      <trkpt lat="47.63149" lon="-2.78859">
        <ele>5.5</ele>
        <time>2025-01-28T09:34:35Z</time>
      </trkpt>
      <trkpt lat="47.63149" lon="-2.78857">
        <ele>5.6</ele>
        <time>2025-01-28T09:34:36Z</time>
      </trkpt>
      <trkpt lat="47.63149" lon="-2.78856">
        <ele>5.7</ele>
        <time>2025-01-28T09:34:37Z</time>
      </trkpt>
      <trkpt lat="47.63148" lon="-2.78854">
        <ele>5.8</ele>
        <time>2025-01-28T09:34:38Z</time>
      </trkpt>
      <trkpt lat="47.63148" lon="-2.78853">
        <ele>6</ele>
        <time>2025-01-28T09:34:39Z</time>
      </trkpt>
      <trkpt lat="47.63148" lon="-2.78851">
        <ele>6</ele>
        <time>2025-01-28T09:34:40Z</time>
      </trkpt>
      <trkpt lat="47.63149" lon="-2.7885">
        <ele>5.8</ele>
        <time>2025-01-28T09:34:41Z</time>
      </trkpt>
      <trkpt lat="47.63149" lon="-2.78848">
        <ele>5.7</ele>
        <time>2025-01-28T09:34:42Z</time>
      </trkpt>
      <trkpt lat="47.6315" lon="-2.78847">
        <ele>5.5</ele>
        <time>2025-01-28T09:34:43Z</time>
      </trkpt>
      <trkpt lat="47.63151" lon="-2.78845">
        <ele>5.4</ele>
        <time>2025-01-28T09:34:44Z</time>
      </trkpt>
      <trkpt lat="47.63151" lon="-2.78844">
        <ele>5.4</ele>
        <time>2025-01-28T09:34:45Z</time>
      </trkpt>
      <trkpt lat="47.63151" lon="-2.78842">
        <ele>5.4</ele>
        <time>2025-01-28T09:34:46Z</time>
      </trkpt>
      <trkpt lat="47.63151" lon="-2.7884">
        <ele>5.5</ele>
        <time>2025-01-28T09:34:47Z</time>
      </trkpt>
      <trkpt lat="47.63151" lon="-2.78839">
        <ele>5.5</ele>
        <time>2025-01-28T09:34:48Z</time>
      </trkpt>
      <trkpt lat="47.63151" lon="-2.78839">
        <ele>5.5</ele>
        <time>2025-01-28T09:34:49Z</time>
      </trkpt>
      <trkpt lat="47.63151" lon="-2.78838">
        <ele>5.4</ele>
        <time>2025-01-28T09:34:50Z</time>
      </trkpt>
      <trkpt lat="47.63151" lon="-2.78837">
        <ele>5.4</ele>
        <time>2025-01-28T09:34:51Z</time>
      </trkpt>
      <trkpt lat="47.63152" lon="-2.78835">
        <ele>5.2</ele>
        <time>2025-01-28T09:34:52Z</time>
      </trkpt>
      <trkpt lat="47.63152" lon="-2.78833">
        <ele>5.1</ele>
        <time>2025-01-28T09:34:53Z</time>
      </trkpt>
      <trkpt lat="47.63153" lon="-2.78832">
        <ele>5.1</ele>
        <time>2025-01-28T09:34:54Z</time>
      </trkpt>
      <trkpt lat="47.63153" lon="-2.78829">
        <ele>5.1</ele>
        <time>2025-01-28T09:34:55Z</time>
      </trkpt>
      <trkpt lat="47.63153" lon="-2.78827">
        <ele>5.1</ele>
        <time>2025-01-28T09:34:56Z</time>
      </trkpt>
      <trkpt lat="47.63153" lon="-2.78825">
        <ele>5</ele>
        <time>2025-01-28T09:34:57Z</time>
      </trkpt>
      <trkpt lat="47.63154" lon="-2.78823">
        <ele>4.9</ele>
        <time>2025-01-28T09:34:58Z</time>
      </trkpt>
      <trkpt lat="47.63154" lon="-2.78822">
        <ele>4.8</ele>
        <time>2025-01-28T09:34:59Z</time>
      </trkpt>
      <trkpt lat="47.63154" lon="-2.7882">
        <ele>4.8</ele>
        <time>2025-01-28T09:35:00Z</time>
      </trkpt>
      <trkpt lat="47.63155" lon="-2.78819">
        <ele>4.6</ele>
        <time>2025-01-28T09:35:01Z</time>
      </trkpt>
      <trkpt lat="47.63155" lon="-2.78817">
        <ele>4.5</ele>
        <time>2025-01-28T09:35:02Z</time>
      </trkpt>
      <trkpt lat="47.63156" lon="-2.78816">
        <ele>4.5</ele>
        <time>2025-01-28T09:35:03Z</time>
      </trkpt>
      <trkpt lat="47.63156" lon="-2.78815">
        <ele>4.5</ele>
        <time>2025-01-28T09:35:04Z</time>
      </trkpt>
      <trkpt lat="47.63155" lon="-2.78813">
        <ele>4.5</ele>
        <time>2025-01-28T09:35:05Z</time>
      </trkpt>
      <trkpt lat="47.63155" lon="-2.78811">
        <ele>4.6</ele>
        <time>2025-01-28T09:35:06Z</time>
      </trkpt>
      <trkpt lat="47.63156" lon="-2.7881">
        <ele>4.5</ele>
        <time>2025-01-28T09:35:07Z</time>
      </trkpt>
      <trkpt lat="47.63157" lon="-2.78808">
        <ele>4.3</ele>
        <time>2025-01-28T09:35:08Z</time>
      </trkpt>
      <trkpt lat="47.63157" lon="-2.78806">
        <ele>4</ele>
        <time>2025-01-28T09:35:09Z</time>
      </trkpt>
      <trkpt lat="47.63158" lon="-2.78805">
        <ele>4</ele>
        <time>2025-01-28T09:35:10Z</time>
      </trkpt>
      <trkpt lat="47.63158" lon="-2.78803">
        <ele>3.9</ele>
        <time>2025-01-28T09:35:11Z</time>
      </trkpt>
      <trkpt lat="47.63158" lon="-2.78801">
        <ele>3.9</ele>
        <time>2025-01-28T09:35:12Z</time>
      </trkpt>
      <trkpt lat="47.63158" lon="-2.78799">
        <ele>4</ele>
        <time>2025-01-28T09:35:13Z</time>
      </trkpt>
      <trkpt lat="47.63158" lon="-2.78797">
        <ele>4.2</ele>
        <time>2025-01-28T09:35:14Z</time>
      </trkpt>
      <trkpt lat="47.63157" lon="-2.78796">
        <ele>4.3</ele>
        <time>2025-01-28T09:35:15Z</time>
      </trkpt>
      <trkpt lat="47.63157" lon="-2.78794">
        <ele>4.3</ele>
        <time>2025-01-28T09:35:16Z</time>
      </trkpt>
      <trkpt lat="47.63158" lon="-2.78793">
        <ele>4.1</ele>
        <time>2025-01-28T09:35:17Z</time>
      </trkpt>
      <trkpt lat="47.63159" lon="-2.78791">
        <ele>4</ele>
        <time>2025-01-28T09:35:18Z</time>
      </trkpt>
      <trkpt lat="47.63159" lon="-2.78789">
        <ele>3.9</ele>
        <time>2025-01-28T09:35:19Z</time>
      </trkpt>
      <trkpt lat="47.63159" lon="-2.78788">
        <ele>3.8</ele>
        <time>2025-01-28T09:35:20Z</time>
      </trkpt>
      <trkpt lat="47.63159" lon="-2.78786">
        <ele>3.9</ele>
        <time>2025-01-28T09:35:21Z</time>
      </trkpt>
      <trkpt lat="47.63159" lon="-2.78785">
        <ele>3.9</ele>
        <time>2025-01-28T09:35:22Z</time>
      </trkpt>
      <trkpt lat="47.63159" lon="-2.78783">
        <ele>4.1</ele>
        <time>2025-01-28T09:35:23Z</time>
      </trkpt>
      <trkpt lat="47.63159" lon="-2.78781">
        <ele>4.2</ele>
        <time>2025-01-28T09:35:24Z</time>
      </trkpt>
      <trkpt lat="47.63158" lon="-2.7878">
        <ele>4.3</ele>
        <time>2025-01-28T09:35:25Z</time>
      </trkpt>
      <trkpt lat="47.63158" lon="-2.78778">
        <ele>4.3</ele>
        <time>2025-01-28T09:35:26Z</time>
      </trkpt>
      <trkpt lat="47.63159" lon="-2.78776">
        <ele>4.2</ele>
        <time>2025-01-28T09:35:27Z</time>
      </trkpt>
      <trkpt lat="47.63158" lon="-2.78774">
        <ele>4.3</ele>
        <time>2025-01-28T09:35:28Z</time>
      </trkpt>
      <trkpt lat="47.63159" lon="-2.78773">
        <ele>4.2</ele>
        <time>2025-01-28T09:35:29Z</time>
      </trkpt>
      <trkpt lat="47.63159" lon="-2.78771">
        <ele>4.2</ele>
        <time>2025-01-28T09:35:30Z</time>
      </trkpt>
      <trkpt lat="47.63159" lon="-2.78769">
        <ele>4.1</ele>
        <time>2025-01-28T09:35:31Z</time>
      </trkpt>
      <trkpt lat="47.63159" lon="-2.78768">
        <ele>4</ele>
        <time>2025-01-28T09:35:32Z</time>
      </trkpt>
      <trkpt lat="47.63159" lon="-2.78766">
        <ele>4</ele>
        <time>2025-01-28T09:35:33Z</time>
      </trkpt>
      <trkpt lat="47.63159" lon="-2.78764">
        <ele>3.9</ele>
        <time>2025-01-28T09:35:34Z</time>
      </trkpt>
      <trkpt lat="47.6316" lon="-2.78763">
        <ele>3.8</ele>
        <time>2025-01-28T09:35:35Z</time>
      </trkpt>
      <trkpt lat="47.6316" lon="-2.78761">
        <ele>3.7</ele>
        <time>2025-01-28T09:35:36Z</time>
      </trkpt>
      <trkpt lat="47.6316" lon="-2.78759">
        <ele>3.8</ele>
        <time>2025-01-28T09:35:37Z</time>
      </trkpt>
      <trkpt lat="47.6316" lon="-2.78757">
        <ele>3.8</ele>
        <time>2025-01-28T09:35:38Z</time>
      </trkpt>
      <trkpt lat="47.6316" lon="-2.78755">
        <ele>3.6</ele>
        <time>2025-01-28T09:35:39Z</time>
      </trkpt>
      <trkpt lat="47.6316" lon="-2.78754">
        <ele>3.5</ele>
        <time>2025-01-28T09:35:40Z</time>
      </trkpt>
      <trkpt lat="47.6316" lon="-2.78752">
        <ele>3.5</ele>
        <time>2025-01-28T09:35:41Z</time>
      </trkpt>
      <trkpt lat="47.6316" lon="-2.78751">
        <ele>3.5</ele>
        <time>2025-01-28T09:35:42Z</time>
      </trkpt>
      <trkpt lat="47.6316" lon="-2.78749">
        <ele>3.5</ele>
        <time>2025-01-28T09:35:43Z</time>
      </trkpt>
      <trkpt lat="47.63161" lon="-2.78747">
        <ele>3.4</ele>
        <time>2025-01-28T09:35:44Z</time>
      </trkpt>
      <trkpt lat="47.63161" lon="-2.78746">
        <ele>3.4</ele>
        <time>2025-01-28T09:35:45Z</time>
      </trkpt>
      <trkpt lat="47.63161" lon="-2.78744">
        <ele>3.4</ele>
        <time>2025-01-28T09:35:46Z</time>
      </trkpt>
      <trkpt lat="47.63161" lon="-2.78743">
        <ele>3.3</ele>
        <time>2025-01-28T09:35:47Z</time>
      </trkpt>
      <trkpt lat="47.6316" lon="-2.78741">
        <ele>3.5</ele>
        <time>2025-01-28T09:35:48Z</time>
      </trkpt>
      <trkpt lat="47.6316" lon="-2.78739">
        <ele>3.5</ele>
        <time>2025-01-28T09:35:49Z</time>
      </trkpt>
      <trkpt lat="47.6316" lon="-2.78737">
        <ele>3.5</ele>
        <time>2025-01-28T09:35:50Z</time>
      </trkpt>
      <trkpt lat="47.6316" lon="-2.78736">
        <ele>3.5</ele>
        <time>2025-01-28T09:35:51Z</time>
      </trkpt>
      <trkpt lat="47.6316" lon="-2.78734">
        <ele>3.5</ele>
        <time>2025-01-28T09:35:52Z</time>
      </trkpt>
      <trkpt lat="47.6316" lon="-2.78733">
        <ele>3.4</ele>
        <time>2025-01-28T09:35:53Z</time>
      </trkpt>
      <trkpt lat="47.63161" lon="-2.78731">
        <ele>3.3</ele>
        <time>2025-01-28T09:35:54Z</time>
      </trkpt>
      <trkpt lat="47.6316" lon="-2.7873">
        <ele>3.5</ele>
        <time>2025-01-28T09:35:55Z</time>
      </trkpt>
      <trkpt lat="47.63159" lon="-2.78728">
        <ele>3.7</ele>
        <time>2025-01-28T09:35:56Z</time>
      </trkpt>
      <trkpt lat="47.63159" lon="-2.78727">
        <ele>3.7</ele>
        <time>2025-01-28T09:35:57Z</time>
      </trkpt>
      <trkpt lat="47.63159" lon="-2.78725">
        <ele>3.7</ele>
        <time>2025-01-28T09:35:58Z</time>
      </trkpt>
      <trkpt lat="47.63159" lon="-2.78724">
        <ele>3.6</ele>
        <time>2025-01-28T09:35:59Z</time>
      </trkpt>
      <trkpt lat="47.6316" lon="-2.78723">
        <ele>3.6</ele>
        <time>2025-01-28T09:36:00Z</time>
      </trkpt>
      <trkpt lat="47.6316" lon="-2.78722">
        <ele>3.4</ele>
        <time>2025-01-28T09:36:01Z</time>
      </trkpt>
      <trkpt lat="47.63161" lon="-2.78721">
        <ele>3.5</ele>
        <time>2025-01-28T09:36:02Z</time>
      </trkpt>
      <trkpt lat="47.63161" lon="-2.7872">
        <ele>3.8</ele>
        <time>2025-01-28T09:36:03Z</time>
      </trkpt>
      <trkpt lat="47.6316" lon="-2.78718">
        <ele>4.4</ele>
        <time>2025-01-28T09:36:04Z</time>
      </trkpt>
      <trkpt lat="47.63159" lon="-2.78717">
        <ele>4.9</ele>
        <time>2025-01-28T09:36:05Z</time>
      </trkpt>
      <trkpt lat="47.63158" lon="-2.78716">
        <ele>5.4</ele>
        <time>2025-01-28T09:36:06Z</time>
      </trkpt>
      <trkpt lat="47.63158" lon="-2.78715">
        <ele>5.8</ele>
        <time>2025-01-28T09:36:07Z</time>
      </trkpt>
      <trkpt lat="47.63157" lon="-2.78714">
        <ele>6.2</ele>
        <time>2025-01-28T09:36:08Z</time>
      </trkpt>
      <trkpt lat="47.63156" lon="-2.78712">
        <ele>6.6</ele>
        <time>2025-01-28T09:36:09Z</time>
      </trkpt>
      <trkpt lat="47.63156" lon="-2.78711">
        <ele>7</ele>
        <time>2025-01-28T09:36:10Z</time>
      </trkpt>
      <trkpt lat="47.63155" lon="-2.78709">
        <ele>7.6</ele>
        <time>2025-01-28T09:36:11Z</time>
      </trkpt>
      <trkpt lat="47.63154" lon="-2.78707">
        <ele>8</ele>
        <time>2025-01-28T09:36:12Z</time>
      </trkpt>
      <trkpt lat="47.63154" lon="-2.78705">
        <ele>8.3</ele>
        <time>2025-01-28T09:36:13Z</time>
      </trkpt>
      <trkpt lat="47.63154" lon="-2.78703">
        <ele>8.6</ele>
        <time>2025-01-28T09:36:14Z</time>
      </trkpt>
      <trkpt lat="47.63154" lon="-2.78701">
        <ele>8.9</ele>
        <time>2025-01-28T09:36:15Z</time>
      </trkpt>
      <trkpt lat="47.63154" lon="-2.78699">
        <ele>9.2</ele>
        <time>2025-01-28T09:36:16Z</time>
      </trkpt>
      <trkpt lat="47.63154" lon="-2.78697">
        <ele>9.5</ele>
        <time>2025-01-28T09:36:17Z</time>
      </trkpt>
      <trkpt lat="47.63154" lon="-2.78695">
        <ele>9.9</ele>
        <time>2025-01-28T09:36:18Z</time>
      </trkpt>
      <trkpt lat="47.63154" lon="-2.78694">
        <ele>9.9</ele>
        <time>2025-01-28T09:36:19Z</time>
      </trkpt>
      <trkpt lat="47.63153" lon="-2.78692">
        <ele>9.7</ele>
        <time>2025-01-28T09:36:20Z</time>
      </trkpt>
      <trkpt lat="47.63153" lon="-2.7869">
        <ele>9.5</ele>
        <time>2025-01-28T09:36:21Z</time>
      </trkpt>
      <trkpt lat="47.63152" lon="-2.78689">
        <ele>9.4</ele>
        <time>2025-01-28T09:36:22Z</time>
      </trkpt>
      <trkpt lat="47.63151" lon="-2.78688">
        <ele>9.3</ele>
        <time>2025-01-28T09:36:23Z</time>
      </trkpt>
      <trkpt lat="47.6315" lon="-2.78686">
        <ele>9.1</ele>
        <time>2025-01-28T09:36:24Z</time>
      </trkpt>
      <trkpt lat="47.6315" lon="-2.78685">
        <ele>9</ele>
        <time>2025-01-28T09:36:25Z</time>
      </trkpt>
      <trkpt lat="47.63149" lon="-2.78684">
        <ele>8.9</ele>
        <time>2025-01-28T09:36:26Z</time>
      </trkpt>
      <trkpt lat="47.63148" lon="-2.78682">
        <ele>8.7</ele>
        <time>2025-01-28T09:36:27Z</time>
      </trkpt>
      <trkpt lat="47.63148" lon="-2.7868">
        <ele>8.5</ele>
        <time>2025-01-28T09:36:28Z</time>
      </trkpt>
      <trkpt lat="47.63147" lon="-2.78678">
        <ele>8.3</ele>
        <time>2025-01-28T09:36:29Z</time>
      </trkpt>
      <trkpt lat="47.63147" lon="-2.78677">
        <ele>8.1</ele>
        <time>2025-01-28T09:36:30Z</time>
      </trkpt>
      <trkpt lat="47.63146" lon="-2.78675">
        <ele>7.9</ele>
        <time>2025-01-28T09:36:31Z</time>
      </trkpt>
      <trkpt lat="47.63146" lon="-2.78674">
        <ele>7.7</ele>
        <time>2025-01-28T09:36:32Z</time>
      </trkpt>
      <trkpt lat="47.63146" lon="-2.78672">
        <ele>7.6</ele>
        <time>2025-01-28T09:36:33Z</time>
      </trkpt>
      <trkpt lat="47.63145" lon="-2.7867">
        <ele>7.4</ele>
        <time>2025-01-28T09:36:34Z</time>
      </trkpt>
      <trkpt lat="47.63145" lon="-2.78668">
        <ele>7.2</ele>
        <time>2025-01-28T09:36:35Z</time>
      </trkpt>
      <trkpt lat="47.63144" lon="-2.78667">
        <ele>7</ele>
        <time>2025-01-28T09:36:36Z</time>
      </trkpt>
      <trkpt lat="47.63144" lon="-2.78666">
        <ele>6.9</ele>
        <time>2025-01-28T09:36:37Z</time>
      </trkpt>
      <trkpt lat="47.63143" lon="-2.78664">
        <ele>6.7</ele>
        <time>2025-01-28T09:36:38Z</time>
      </trkpt>
      <trkpt lat="47.63143" lon="-2.78662">
        <ele>6.5</ele>
        <time>2025-01-28T09:36:39Z</time>
      </trkpt>
      <trkpt lat="47.63142" lon="-2.78661">
        <ele>6.4</ele>
        <time>2025-01-28T09:36:40Z</time>
      </trkpt>
      <trkpt lat="47.63141" lon="-2.7866">
        <ele>6.2</ele>
        <time>2025-01-28T09:36:41Z</time>
      </trkpt>
      <trkpt lat="47.63141" lon="-2.78658">
        <ele>6</ele>
        <time>2025-01-28T09:36:42Z</time>
      </trkpt>
      <trkpt lat="47.63141" lon="-2.78657">
        <ele>5.9</ele>
        <time>2025-01-28T09:36:43Z</time>
      </trkpt>
      <trkpt lat="47.6314" lon="-2.78655">
        <ele>5.8</ele>
        <time>2025-01-28T09:36:44Z</time>
      </trkpt>
      <trkpt lat="47.6314" lon="-2.78654">
        <ele>5.6</ele>
        <time>2025-01-28T09:36:45Z</time>
      </trkpt>
      <trkpt lat="47.6314" lon="-2.78652">
        <ele>5.4</ele>
        <time>2025-01-28T09:36:46Z</time>
      </trkpt>
      <trkpt lat="47.6314" lon="-2.7865">
        <ele>5.2</ele>
        <time>2025-01-28T09:36:47Z</time>
      </trkpt>
      <trkpt lat="47.63138" lon="-2.78648">
        <ele>5.1</ele>
        <time>2025-01-28T09:36:48Z</time>
      </trkpt>
      <trkpt lat="47.63138" lon="-2.78646">
        <ele>5</ele>
        <time>2025-01-28T09:36:49Z</time>
      </trkpt>
      <trkpt lat="47.63138" lon="-2.78644">
        <ele>4.8</ele>
        <time>2025-01-28T09:36:50Z</time>
      </trkpt>
      <trkpt lat="47.63138" lon="-2.78642">
        <ele>4.6</ele>
        <time>2025-01-28T09:36:51Z</time>
      </trkpt>
      <trkpt lat="47.63137" lon="-2.7864">
        <ele>4.5</ele>
        <time>2025-01-28T09:36:52Z</time>
      </trkpt>
      <trkpt lat="47.63137" lon="-2.78639">
        <ele>4.5</ele>
        <time>2025-01-28T09:36:53Z</time>
      </trkpt>
      <trkpt lat="47.63136" lon="-2.78638">
        <ele>4.5</ele>
        <time>2025-01-28T09:36:54Z</time>
      </trkpt>
      <trkpt lat="47.63136" lon="-2.78637">
        <ele>4.5</ele>
        <time>2025-01-28T09:36:55Z</time>
      </trkpt>
      <trkpt lat="47.63135" lon="-2.78635">
        <ele>4.5</ele>
        <time>2025-01-28T09:36:56Z</time>
      </trkpt>
      <trkpt lat="47.63134" lon="-2.78634">
        <ele>4.6</ele>
        <time>2025-01-28T09:36:57Z</time>
      </trkpt>
      <trkpt lat="47.63133" lon="-2.78633">
        <ele>4.6</ele>
        <time>2025-01-28T09:36:58Z</time>
      </trkpt>
      <trkpt lat="47.63133" lon="-2.78631">
        <ele>4.6</ele>
        <time>2025-01-28T09:36:59Z</time>
      </trkpt>
      <trkpt lat="47.63132" lon="-2.7863">
        <ele>4.6</ele>
        <time>2025-01-28T09:37:00Z</time>
      </trkpt>
      <trkpt lat="47.63132" lon="-2.78628">
        <ele>4.5</ele>
        <time>2025-01-28T09:37:01Z</time>
      </trkpt>
      <trkpt lat="47.63132" lon="-2.78626">
        <ele>4.5</ele>
        <time>2025-01-28T09:37:02Z</time>
      </trkpt>
      <trkpt lat="47.63131" lon="-2.78625">
        <ele>4.3</ele>
        <time>2025-01-28T09:37:03Z</time>
      </trkpt>
      <trkpt lat="47.63132" lon="-2.78626">
        <ele>4.4</ele>
        <time>2025-01-28T09:37:04Z</time>
      </trkpt>
      <trkpt lat="47.63131" lon="-2.78623">
        <ele>4.2</ele>
        <time>2025-01-28T09:37:05Z</time>
      </trkpt>
      <trkpt lat="47.63132" lon="-2.78621">
        <ele>4</ele>
        <time>2025-01-28T09:37:06Z</time>
      </trkpt>
      <trkpt lat="47.63131" lon="-2.78619">
        <ele>3.9</ele>
        <time>2025-01-28T09:37:07Z</time>
      </trkpt>
      <trkpt lat="47.63131" lon="-2.78617">
        <ele>3.8</ele>
        <time>2025-01-28T09:37:08Z</time>
      </trkpt>
      <trkpt lat="47.6313" lon="-2.78615">
        <ele>3.8</ele>
        <time>2025-01-28T09:37:09Z</time>
      </trkpt>
      <trkpt lat="47.6313" lon="-2.78614">
        <ele>3.8</ele>
        <time>2025-01-28T09:37:10Z</time>
      </trkpt>
      <trkpt lat="47.6313" lon="-2.78612">
        <ele>3.7</ele>
        <time>2025-01-28T09:37:11Z</time>
      </trkpt>
      <trkpt lat="47.63129" lon="-2.78611">
        <ele>4</ele>
        <time>2025-01-28T09:37:12Z</time>
      </trkpt>
      <trkpt lat="47.63128" lon="-2.78609">
        <ele>4.3</ele>
        <time>2025-01-28T09:37:13Z</time>
      </trkpt>
      <trkpt lat="47.63127" lon="-2.78608">
        <ele>4.7</ele>
        <time>2025-01-28T09:37:14Z</time>
      </trkpt>
      <trkpt lat="47.63127" lon="-2.78607">
        <ele>4.9</ele>
        <time>2025-01-28T09:37:15Z</time>
      </trkpt>
      <trkpt lat="47.63126" lon="-2.78605">
        <ele>5.2</ele>
        <time>2025-01-28T09:37:16Z</time>
      </trkpt>
      <trkpt lat="47.63126" lon="-2.78604">
        <ele>5.4</ele>
        <time>2025-01-28T09:37:17Z</time>
      </trkpt>
      <trkpt lat="47.63125" lon="-2.78603">
        <ele>5.6</ele>
        <time>2025-01-28T09:37:18Z</time>
      </trkpt>
      <trkpt lat="47.63125" lon="-2.78601">
        <ele>5.7</ele>
        <time>2025-01-28T09:37:19Z</time>
      </trkpt>
      <trkpt lat="47.63125" lon="-2.786">
        <ele>5.9</ele>
        <time>2025-01-28T09:37:20Z</time>
      </trkpt>
      <trkpt lat="47.63124" lon="-2.78598">
        <ele>6</ele>
        <time>2025-01-28T09:37:21Z</time>
      </trkpt>
      <trkpt lat="47.63123" lon="-2.78597">
        <ele>6.3</ele>
        <time>2025-01-28T09:37:22Z</time>
      </trkpt>
      <trkpt lat="47.63123" lon="-2.78596">
        <ele>6.4</ele>
        <time>2025-01-28T09:37:23Z</time>
      </trkpt>
      <trkpt lat="47.63122" lon="-2.78595">
        <ele>6.5</ele>
        <time>2025-01-28T09:37:24Z</time>
      </trkpt>
      <trkpt lat="47.63121" lon="-2.78594">
        <ele>6.7</ele>
        <time>2025-01-28T09:37:25Z</time>
      </trkpt>
      <trkpt lat="47.63121" lon="-2.78593">
        <ele>6.8</ele>
        <time>2025-01-28T09:37:26Z</time>
      </trkpt>
      <trkpt lat="47.6312" lon="-2.78591">
        <ele>6.8</ele>
        <time>2025-01-28T09:37:27Z</time>
      </trkpt>
      <trkpt lat="47.6312" lon="-2.7859">
        <ele>6.9</ele>
        <time>2025-01-28T09:37:28Z</time>
      </trkpt>
      <trkpt lat="47.6312" lon="-2.78588">
        <ele>6.9</ele>
        <time>2025-01-28T09:37:29Z</time>
      </trkpt>
      <trkpt lat="47.6312" lon="-2.78587">
        <ele>6.9</ele>
        <time>2025-01-28T09:37:30Z</time>
      </trkpt>
      <trkpt lat="47.6312" lon="-2.78585">
        <ele>7</ele>
        <time>2025-01-28T09:37:31Z</time>
      </trkpt>
      <trkpt lat="47.6312" lon="-2.78584">
        <ele>7</ele>
        <time>2025-01-28T09:37:32Z</time>
      </trkpt>
      <trkpt lat="47.6312" lon="-2.78582">
        <ele>6.9</ele>
        <time>2025-01-28T09:37:33Z</time>
      </trkpt>
      <trkpt lat="47.63119" lon="-2.78581">
        <ele>6.7</ele>
        <time>2025-01-28T09:37:34Z</time>
      </trkpt>
      <trkpt lat="47.63119" lon="-2.78579">
        <ele>6.5</ele>
        <time>2025-01-28T09:37:35Z</time>
      </trkpt>
      <trkpt lat="47.63119" lon="-2.78578">
        <ele>6.4</ele>
        <time>2025-01-28T09:37:36Z</time>
      </trkpt>
      <trkpt lat="47.63118" lon="-2.78577">
        <ele>6.3</ele>
        <time>2025-01-28T09:37:37Z</time>
      </trkpt>
      <trkpt lat="47.63117" lon="-2.78575">
        <ele>6.1</ele>
        <time>2025-01-28T09:37:38Z</time>
      </trkpt>
      <trkpt lat="47.63117" lon="-2.78574">
        <ele>6</ele>
        <time>2025-01-28T09:37:39Z</time>
      </trkpt>
      <trkpt lat="47.63116" lon="-2.78573">
        <ele>5.9</ele>
        <time>2025-01-28T09:37:40Z</time>
      </trkpt>
      <trkpt lat="47.63116" lon="-2.78572">
        <ele>5.8</ele>
        <time>2025-01-28T09:37:41Z</time>
      </trkpt>
      <trkpt lat="47.63115" lon="-2.7857">
        <ele>5.6</ele>
        <time>2025-01-28T09:37:42Z</time>
      </trkpt>
      <trkpt lat="47.63115" lon="-2.78568">
        <ele>5.4</ele>
        <time>2025-01-28T09:37:43Z</time>
      </trkpt>
      <trkpt lat="47.63114" lon="-2.78567">
        <ele>5.2</ele>
        <time>2025-01-28T09:37:44Z</time>
      </trkpt>
      <trkpt lat="47.63113" lon="-2.78566">
        <ele>5.1</ele>
        <time>2025-01-28T09:37:45Z</time>
      </trkpt>
      <trkpt lat="47.63112" lon="-2.78565">
        <ele>5</ele>
        <time>2025-01-28T09:37:46Z</time>
      </trkpt>
      <trkpt lat="47.63111" lon="-2.78564">
        <ele>4.9</ele>
        <time>2025-01-28T09:37:47Z</time>
      </trkpt>
      <trkpt lat="47.63111" lon="-2.78562">
        <ele>4.8</ele>
        <time>2025-01-28T09:37:48Z</time>
      </trkpt>
      <trkpt lat="47.6311" lon="-2.7856">
        <ele>4.7</ele>
        <time>2025-01-28T09:37:49Z</time>
      </trkpt>
      <trkpt lat="47.63109" lon="-2.78559">
        <ele>4.6</ele>
        <time>2025-01-28T09:37:50Z</time>
      </trkpt>
      <trkpt lat="47.63109" lon="-2.78557">
        <ele>4.5</ele>
        <time>2025-01-28T09:37:51Z</time>
      </trkpt>
      <trkpt lat="47.63109" lon="-2.78555">
        <ele>4.4</ele>
        <time>2025-01-28T09:37:52Z</time>
      </trkpt>
      <trkpt lat="47.63108" lon="-2.78554">
        <ele>4.4</ele>
        <time>2025-01-28T09:37:53Z</time>
      </trkpt>
      <trkpt lat="47.63108" lon="-2.78553">
        <ele>4.4</ele>
        <time>2025-01-28T09:37:54Z</time>
      </trkpt>
      <trkpt lat="47.63107" lon="-2.78552">
        <ele>4.3</ele>
        <time>2025-01-28T09:37:55Z</time>
      </trkpt>
      <trkpt lat="47.63107" lon="-2.7855">
        <ele>4.3</ele>
        <time>2025-01-28T09:37:56Z</time>
      </trkpt>
      <trkpt lat="47.63106" lon="-2.78549">
        <ele>4.2</ele>
        <time>2025-01-28T09:37:57Z</time>
      </trkpt>
      <trkpt lat="47.63105" lon="-2.78548">
        <ele>4.2</ele>
        <time>2025-01-28T09:37:58Z</time>
      </trkpt>
      <trkpt lat="47.63105" lon="-2.78547">
        <ele>4.2</ele>
        <time>2025-01-28T09:37:59Z</time>
      </trkpt>
      <trkpt lat="47.63104" lon="-2.78546">
        <ele>4.2</ele>
        <time>2025-01-28T09:38:00Z</time>
      </trkpt>
      <trkpt lat="47.63103" lon="-2.78546">
        <ele>4.4</ele>
        <time>2025-01-28T09:38:01Z</time>
      </trkpt>
      <trkpt lat="47.63102" lon="-2.78545">
        <ele>4.4</ele>
        <time>2025-01-28T09:38:02Z</time>
      </trkpt>
      <trkpt lat="47.63102" lon="-2.78544">
        <ele>4.4</ele>
        <time>2025-01-28T09:38:03Z</time>
      </trkpt>
      <trkpt lat="47.63101" lon="-2.78542">
        <ele>4.3</ele>
        <time>2025-01-28T09:38:04Z</time>
      </trkpt>
      <trkpt lat="47.63101" lon="-2.78541">
        <ele>4.2</ele>
        <time>2025-01-28T09:38:05Z</time>
      </trkpt>
      <trkpt lat="47.63101" lon="-2.78539">
        <ele>4.1</ele>
        <time>2025-01-28T09:38:06Z</time>
      </trkpt>
      <trkpt lat="47.63101" lon="-2.78538">
        <ele>3.9</ele>
        <time>2025-01-28T09:38:07Z</time>
      </trkpt>
      <trkpt lat="47.63101" lon="-2.78536">
        <ele>3.8</ele>
        <time>2025-01-28T09:38:08Z</time>
      </trkpt>
      <trkpt lat="47.631" lon="-2.78534">
        <ele>3.6</ele>
        <time>2025-01-28T09:38:09Z</time>
      </trkpt>
      <trkpt lat="47.631" lon="-2.78533">
        <ele>3.5</ele>
        <time>2025-01-28T09:38:10Z</time>
      </trkpt>
      <trkpt lat="47.631" lon="-2.78531">
        <ele>3.4</ele>
        <time>2025-01-28T09:38:11Z</time>
      </trkpt>
      <trkpt lat="47.63099" lon="-2.7853">
        <ele>3.4</ele>
        <time>2025-01-28T09:38:12Z</time>
      </trkpt>
      <trkpt lat="47.63099" lon="-2.78528">
        <ele>3.2</ele>
        <time>2025-01-28T09:38:13Z</time>
      </trkpt>
      <trkpt lat="47.63098" lon="-2.78527">
        <ele>3.3</ele>
        <time>2025-01-28T09:38:14Z</time>
      </trkpt>
      <trkpt lat="47.63098" lon="-2.78525">
        <ele>3.3</ele>
        <time>2025-01-28T09:38:15Z</time>
      </trkpt>
      <trkpt lat="47.63098" lon="-2.78524">
        <ele>3.4</ele>
        <time>2025-01-28T09:38:16Z</time>
      </trkpt>
      <trkpt lat="47.63097" lon="-2.78523">
        <ele>3.5</ele>
        <time>2025-01-28T09:38:17Z</time>
      </trkpt>
      <trkpt lat="47.63097" lon="-2.78521">
        <ele>3.5</ele>
        <time>2025-01-28T09:38:18Z</time>
      </trkpt>
      <trkpt lat="47.63096" lon="-2.7852">
        <ele>3.5</ele>
        <time>2025-01-28T09:38:19Z</time>
      </trkpt>
      <trkpt lat="47.63096" lon="-2.78518">
        <ele>3.5</ele>
        <time>2025-01-28T09:38:20Z</time>
      </trkpt>
      <trkpt lat="47.63096" lon="-2.78517">
        <ele>3.5</ele>
        <time>2025-01-28T09:38:21Z</time>
      </trkpt>
      <trkpt lat="47.63096" lon="-2.78516">
        <ele>3.6</ele>
        <time>2025-01-28T09:38:22Z</time>
      </trkpt>
      <trkpt lat="47.63095" lon="-2.78515">
        <ele>3.6</ele>
        <time>2025-01-28T09:38:23Z</time>
      </trkpt>
      <trkpt lat="47.63095" lon="-2.78514">
        <ele>3.6</ele>
        <time>2025-01-28T09:38:24Z</time>
      </trkpt>
      <trkpt lat="47.63095" lon="-2.78513">
        <ele>3.6</ele>
        <time>2025-01-28T09:38:25Z</time>
      </trkpt>
      <trkpt lat="47.63095" lon="-2.78511">
        <ele>3.6</ele>
        <time>2025-01-28T09:38:26Z</time>
      </trkpt>
      <trkpt lat="47.63094" lon="-2.7851">
        <ele>3.6</ele>
        <time>2025-01-28T09:38:27Z</time>
      </trkpt>
      <trkpt lat="47.63094" lon="-2.78508">
        <ele>3.6</ele>
        <time>2025-01-28T09:38:28Z</time>
      </trkpt>
      <trkpt lat="47.63094" lon="-2.78507">
        <ele>3.6</ele>
        <time>2025-01-28T09:38:29Z</time>
      </trkpt>
      <trkpt lat="47.63094" lon="-2.78506">
        <ele>3.6</ele>
        <time>2025-01-28T09:38:30Z</time>
      </trkpt>
      <trkpt lat="47.63094" lon="-2.78505">
        <ele>3.6</ele>
        <time>2025-01-28T09:38:31Z</time>
      </trkpt>
      <trkpt lat="47.63094" lon="-2.78503">
        <ele>3.5</ele>
        <time>2025-01-28T09:38:32Z</time>
      </trkpt>
      <trkpt lat="47.63094" lon="-2.78501">
        <ele>3.6</ele>
        <time>2025-01-28T09:38:33Z</time>
      </trkpt>
      <trkpt lat="47.63093" lon="-2.785">
        <ele>3.6</ele>
        <time>2025-01-28T09:38:34Z</time>
      </trkpt>
      <trkpt lat="47.63093" lon="-2.78499">
        <ele>3.6</ele>
        <time>2025-01-28T09:38:35Z</time>
      </trkpt>
      <trkpt lat="47.63094" lon="-2.78497">
        <ele>3.7</ele>
        <time>2025-01-28T09:38:36Z</time>
      </trkpt>
      <trkpt lat="47.63093" lon="-2.78496">
        <ele>3.8</ele>
        <time>2025-01-28T09:38:37Z</time>
      </trkpt>
      <trkpt lat="47.63093" lon="-2.78494">
        <ele>4</ele>
        <time>2025-01-28T09:38:38Z</time>
      </trkpt>
      <trkpt lat="47.63092" lon="-2.78493">
        <ele>4.1</ele>
        <time>2025-01-28T09:38:39Z</time>
      </trkpt>
      <trkpt lat="47.63091" lon="-2.78492">
        <ele>4.2</ele>
        <time>2025-01-28T09:38:40Z</time>
      </trkpt>
      <trkpt lat="47.6309" lon="-2.78491">
        <ele>4.3</ele>
        <time>2025-01-28T09:38:41Z</time>
      </trkpt>
      <trkpt lat="47.63089" lon="-2.7849">
        <ele>4.4</ele>
        <time>2025-01-28T09:38:42Z</time>
      </trkpt>
      <trkpt lat="47.63089" lon="-2.78489">
        <ele>4.5</ele>
        <time>2025-01-28T09:38:43Z</time>
      </trkpt>
      <trkpt lat="47.63088" lon="-2.78488">
        <ele>4.6</ele>
        <time>2025-01-28T09:38:44Z</time>
      </trkpt>
      <trkpt lat="47.63087" lon="-2.78487">
        <ele>4.7</ele>
        <time>2025-01-28T09:38:45Z</time>
      </trkpt>
      <trkpt lat="47.63087" lon="-2.78486">
        <ele>4.7</ele>
        <time>2025-01-28T09:38:46Z</time>
      </trkpt>
      <trkpt lat="47.63087" lon="-2.78485">
        <ele>4.8</ele>
        <time>2025-01-28T09:38:47Z</time>
      </trkpt>
      <trkpt lat="47.63087" lon="-2.78483">
        <ele>4.8</ele>
        <time>2025-01-28T09:38:48Z</time>
      </trkpt>
      <trkpt lat="47.63087" lon="-2.78482">
        <ele>4.8</ele>
        <time>2025-01-28T09:38:49Z</time>
      </trkpt>
      <trkpt lat="47.63087" lon="-2.7848">
        <ele>4.9</ele>
        <time>2025-01-28T09:38:50Z</time>
      </trkpt>
      <trkpt lat="47.63087" lon="-2.78478">
        <ele>4.9</ele>
        <time>2025-01-28T09:38:51Z</time>
      </trkpt>
      <trkpt lat="47.63087" lon="-2.78476">
        <ele>4.9</ele>
        <time>2025-01-28T09:38:52Z</time>
      </trkpt>
      <trkpt lat="47.63086" lon="-2.78474">
        <ele>5</ele>
        <time>2025-01-28T09:38:53Z</time>
      </trkpt>
      <trkpt lat="47.63086" lon="-2.78472">
        <ele>5</ele>
        <time>2025-01-28T09:38:54Z</time>
      </trkpt>
      <trkpt lat="47.63086" lon="-2.7847">
        <ele>4.9</ele>
        <time>2025-01-28T09:38:55Z</time>
      </trkpt>
      <trkpt lat="47.63086" lon="-2.78469">
        <ele>4.9</ele>
        <time>2025-01-28T09:38:56Z</time>
      </trkpt>
      <trkpt lat="47.63086" lon="-2.78468">
        <ele>4.8</ele>
        <time>2025-01-28T09:38:57Z</time>
      </trkpt>
      <trkpt lat="47.63085" lon="-2.78467">
        <ele>4.8</ele>
        <time>2025-01-28T09:38:58Z</time>
      </trkpt>
      <trkpt lat="47.63085" lon="-2.78465">
        <ele>4.7</ele>
        <time>2025-01-28T09:38:59Z</time>
      </trkpt>
      <trkpt lat="47.63085" lon="-2.78464">
        <ele>4.7</ele>
        <time>2025-01-28T09:39:00Z</time>
      </trkpt>
      <trkpt lat="47.63085" lon="-2.78462">
        <ele>4.6</ele>
        <time>2025-01-28T09:39:01Z</time>
      </trkpt>
      <trkpt lat="47.63085" lon="-2.78461">
        <ele>4.6</ele>
        <time>2025-01-28T09:39:02Z</time>
      </trkpt>
      <trkpt lat="47.63085" lon="-2.78459">
        <ele>4.5</ele>
        <time>2025-01-28T09:39:03Z</time>
      </trkpt>
      <trkpt lat="47.63084" lon="-2.78458">
        <ele>4.5</ele>
        <time>2025-01-28T09:39:04Z</time>
      </trkpt>
      <trkpt lat="47.63084" lon="-2.78457">
        <ele>4.4</ele>
        <time>2025-01-28T09:39:05Z</time>
      </trkpt>
      <trkpt lat="47.63083" lon="-2.78456">
        <ele>4.4</ele>
        <time>2025-01-28T09:39:06Z</time>
      </trkpt>
      <trkpt lat="47.63083" lon="-2.78454">
        <ele>4.4</ele>
        <time>2025-01-28T09:39:07Z</time>
      </trkpt>
      <trkpt lat="47.63083" lon="-2.78453">
        <ele>4.4</ele>
        <time>2025-01-28T09:39:08Z</time>
      </trkpt>
      <trkpt lat="47.63083" lon="-2.78451">
        <ele>4.3</ele>
        <time>2025-01-28T09:39:09Z</time>
      </trkpt>
      <trkpt lat="47.63084" lon="-2.7845">
        <ele>4.2</ele>
        <time>2025-01-28T09:39:10Z</time>
      </trkpt>
      <trkpt lat="47.63085" lon="-2.7845">
        <ele>4.2</ele>
        <time>2025-01-28T09:39:11Z</time>
      </trkpt>
      <trkpt lat="47.63085" lon="-2.78448">
        <ele>4.1</ele>
        <time>2025-01-28T09:39:12Z</time>
      </trkpt>
      <trkpt lat="47.63086" lon="-2.78446">
        <ele>4.1</ele>
        <time>2025-01-28T09:39:13Z</time>
      </trkpt>
      <trkpt lat="47.63086" lon="-2.78445">
        <ele>4</ele>
        <time>2025-01-28T09:39:14Z</time>
      </trkpt>
      <trkpt lat="47.63085" lon="-2.78444">
        <ele>3.9</ele>
        <time>2025-01-28T09:39:15Z</time>
      </trkpt>
      <trkpt lat="47.63085" lon="-2.78442">
        <ele>3.8</ele>
        <time>2025-01-28T09:39:16Z</time>
      </trkpt>
      <trkpt lat="47.63085" lon="-2.78441">
        <ele>3.8</ele>
        <time>2025-01-28T09:39:17Z</time>
      </trkpt>
      <trkpt lat="47.63084" lon="-2.7844">
        <ele>3.7</ele>
        <time>2025-01-28T09:39:18Z</time>
      </trkpt>
      <trkpt lat="47.63083" lon="-2.78439">
        <ele>3.6</ele>
        <time>2025-01-28T09:39:19Z</time>
      </trkpt>
      <trkpt lat="47.63082" lon="-2.78438">
        <ele>3.6</ele>
        <time>2025-01-28T09:39:20Z</time>
      </trkpt>
      <trkpt lat="47.63082" lon="-2.78436">
        <ele>3.5</ele>
        <time>2025-01-28T09:39:21Z</time>
      </trkpt>
      <trkpt lat="47.63081" lon="-2.78434">
        <ele>3.5</ele>
        <time>2025-01-28T09:39:22Z</time>
      </trkpt>
      <trkpt lat="47.63081" lon="-2.78433">
        <ele>3.4</ele>
        <time>2025-01-28T09:39:23Z</time>
      </trkpt>
      <trkpt lat="47.6308" lon="-2.78432">
        <ele>3.4</ele>
        <time>2025-01-28T09:39:24Z</time>
      </trkpt>
      <trkpt lat="47.63079" lon="-2.78431">
        <ele>3.4</ele>
        <time>2025-01-28T09:39:25Z</time>
      </trkpt>
      <trkpt lat="47.63079" lon="-2.7843">
        <ele>3.4</ele>
        <time>2025-01-28T09:39:26Z</time>
      </trkpt>
      <trkpt lat="47.63078" lon="-2.78429">
        <ele>3.4</ele>
        <time>2025-01-28T09:39:27Z</time>
      </trkpt>
      <trkpt lat="47.63078" lon="-2.78427">
        <ele>3.3</ele>
        <time>2025-01-28T09:39:28Z</time>
      </trkpt>
      <trkpt lat="47.63077" lon="-2.78425">
        <ele>3.2</ele>
        <time>2025-01-28T09:39:29Z</time>
      </trkpt>
      <trkpt lat="47.63077" lon="-2.78424">
        <ele>3.1</ele>
        <time>2025-01-28T09:39:30Z</time>
      </trkpt>
      <trkpt lat="47.63077" lon="-2.78422">
        <ele>3</ele>
        <time>2025-01-28T09:39:31Z</time>
      </trkpt>
      <trkpt lat="47.63076" lon="-2.7842">
        <ele>3</ele>
        <time>2025-01-28T09:39:32Z</time>
      </trkpt>
      <trkpt lat="47.63076" lon="-2.78419">
        <ele>2.9</ele>
        <time>2025-01-28T09:39:33Z</time>
      </trkpt>
      <trkpt lat="47.63075" lon="-2.78418">
        <ele>2.9</ele>
        <time>2025-01-28T09:39:34Z</time>
      </trkpt>
      <trkpt lat="47.63075" lon="-2.78416">
        <ele>2.9</ele>
        <time>2025-01-28T09:39:35Z</time>
      </trkpt>
      <trkpt lat="47.63075" lon="-2.78415">
        <ele>2.9</ele>
        <time>2025-01-28T09:39:36Z</time>
      </trkpt>
      <trkpt lat="47.63074" lon="-2.78413">
        <ele>2.9</ele>
        <time>2025-01-28T09:39:37Z</time>
      </trkpt>
      <trkpt lat="47.63073" lon="-2.78411">
        <ele>2.9</ele>
        <time>2025-01-28T09:39:38Z</time>
      </trkpt>
      <trkpt lat="47.63073" lon="-2.7841">
        <ele>2.9</ele>
        <time>2025-01-28T09:39:39Z</time>
      </trkpt>
      <trkpt lat="47.63073" lon="-2.78408">
        <ele>2.8</ele>
        <time>2025-01-28T09:39:40Z</time>
      </trkpt>
      <trkpt lat="47.63072" lon="-2.78406">
        <ele>2.8</ele>
        <time>2025-01-28T09:39:41Z</time>
      </trkpt>
      <trkpt lat="47.63071" lon="-2.78405">
        <ele>2.9</ele>
        <time>2025-01-28T09:39:42Z</time>
      </trkpt>
      <trkpt lat="47.63071" lon="-2.78404">
        <ele>2.9</ele>
        <time>2025-01-28T09:39:43Z</time>
      </trkpt>
      <trkpt lat="47.6307" lon="-2.78402">
        <ele>2.9</ele>
        <time>2025-01-28T09:39:44Z</time>
      </trkpt>
      <trkpt lat="47.6307" lon="-2.784">
        <ele>2.8</ele>
        <time>2025-01-28T09:39:45Z</time>
      </trkpt>
      <trkpt lat="47.6307" lon="-2.78398">
        <ele>2.8</ele>
        <time>2025-01-28T09:39:46Z</time>
      </trkpt>
      <trkpt lat="47.63069" lon="-2.78397">
        <ele>2.8</ele>
        <time>2025-01-28T09:39:47Z</time>
      </trkpt>
      <trkpt lat="47.63069" lon="-2.78395">
        <ele>2.8</ele>
        <time>2025-01-28T09:39:48Z</time>
      </trkpt>
      <trkpt lat="47.63068" lon="-2.78394">
        <ele>2.8</ele>
        <time>2025-01-28T09:39:49Z</time>
      </trkpt>
      <trkpt lat="47.63068" lon="-2.78392">
        <ele>2.8</ele>
        <time>2025-01-28T09:39:50Z</time>
      </trkpt>
      <trkpt lat="47.63067" lon="-2.78391">
        <ele>2.9</ele>
        <time>2025-01-28T09:39:51Z</time>
      </trkpt>
      <trkpt lat="47.63066" lon="-2.7839">
        <ele>2.9</ele>
        <time>2025-01-28T09:39:52Z</time>
      </trkpt>
      <trkpt lat="47.63065" lon="-2.78389">
        <ele>3</ele>
        <time>2025-01-28T09:39:53Z</time>
      </trkpt>
      <trkpt lat="47.63064" lon="-2.78389">
        <ele>3.1</ele>
        <time>2025-01-28T09:39:54Z</time>
      </trkpt>
      <trkpt lat="47.63063" lon="-2.78388">
        <ele>3.2</ele>
        <time>2025-01-28T09:39:55Z</time>
      </trkpt>
      <trkpt lat="47.63062" lon="-2.78386">
        <ele>3.1</ele>
        <time>2025-01-28T09:39:56Z</time>
      </trkpt>
      <trkpt lat="47.63061" lon="-2.78385">
        <ele>3.2</ele>
        <time>2025-01-28T09:39:57Z</time>
      </trkpt>
      <trkpt lat="47.63061" lon="-2.78384">
        <ele>3.2</ele>
        <time>2025-01-28T09:39:58Z</time>
      </trkpt>
      <trkpt lat="47.6306" lon="-2.78383">
        <ele>3.2</ele>
        <time>2025-01-28T09:39:59Z</time>
      </trkpt>
      <trkpt lat="47.63059" lon="-2.78383">
        <ele>3.3</ele>
        <time>2025-01-28T09:40:00Z</time>
      </trkpt>
      <trkpt lat="47.63059" lon="-2.78382">
        <ele>3.3</ele>
        <time>2025-01-28T09:40:01Z</time>
      </trkpt>
      <trkpt lat="47.63058" lon="-2.78382">
        <ele>3.3</ele>
        <time>2025-01-28T09:40:02Z</time>
      </trkpt>
      <trkpt lat="47.63057" lon="-2.7838">
        <ele>3.3</ele>
        <time>2025-01-28T09:40:03Z</time>
      </trkpt>
      <trkpt lat="47.63056" lon="-2.78379">
        <ele>3.2</ele>
        <time>2025-01-28T09:40:04Z</time>
      </trkpt>
      <trkpt lat="47.63056" lon="-2.78378">
        <ele>3.2</ele>
        <time>2025-01-28T09:40:05Z</time>
      </trkpt>
      <trkpt lat="47.63055" lon="-2.78377">
        <ele>3.2</ele>
        <time>2025-01-28T09:40:06Z</time>
      </trkpt>
      <trkpt lat="47.63054" lon="-2.78376">
        <ele>3.2</ele>
        <time>2025-01-28T09:40:07Z</time>
      </trkpt>
      <trkpt lat="47.63053" lon="-2.78374">
        <ele>3.1</ele>
        <time>2025-01-28T09:40:08Z</time>
      </trkpt>
      <trkpt lat="47.63053" lon="-2.78372">
        <ele>3.1</ele>
        <time>2025-01-28T09:40:09Z</time>
      </trkpt>
      <trkpt lat="47.63052" lon="-2.78371">
        <ele>3</ele>
        <time>2025-01-28T09:40:10Z</time>
      </trkpt>
      <trkpt lat="47.63052" lon="-2.78369">
        <ele>2.9</ele>
        <time>2025-01-28T09:40:11Z</time>
      </trkpt>
      <trkpt lat="47.63052" lon="-2.78367">
        <ele>2.9</ele>
        <time>2025-01-28T09:40:12Z</time>
      </trkpt>
      <trkpt lat="47.63051" lon="-2.78366">
        <ele>2.9</ele>
        <time>2025-01-28T09:40:13Z</time>
      </trkpt>
      <trkpt lat="47.6305" lon="-2.78365">
        <ele>2.9</ele>
        <time>2025-01-28T09:40:14Z</time>
      </trkpt>
      <trkpt lat="47.63049" lon="-2.78364">
        <ele>2.9</ele>
        <time>2025-01-28T09:40:15Z</time>
      </trkpt>
      <trkpt lat="47.63048" lon="-2.78363">
        <ele>2.9</ele>
        <time>2025-01-28T09:40:16Z</time>
      </trkpt>
      <trkpt lat="47.63048" lon="-2.78361">
        <ele>2.9</ele>
        <time>2025-01-28T09:40:17Z</time>
      </trkpt>
      <trkpt lat="47.63047" lon="-2.7836">
        <ele>2.9</ele>
        <time>2025-01-28T09:40:18Z</time>
      </trkpt>
      <trkpt lat="47.63046" lon="-2.78359">
        <ele>2.9</ele>
        <time>2025-01-28T09:40:19Z</time>
      </trkpt>
      <trkpt lat="47.63045" lon="-2.78358">
        <ele>3</ele>
        <time>2025-01-28T09:40:20Z</time>
      </trkpt>
      <trkpt lat="47.63045" lon="-2.78357">
        <ele>3</ele>
        <time>2025-01-28T09:40:21Z</time>
      </trkpt>
      <trkpt lat="47.63044" lon="-2.78355">
        <ele>3</ele>
        <time>2025-01-28T09:40:22Z</time>
      </trkpt>
      <trkpt lat="47.63043" lon="-2.78354">
        <ele>3.1</ele>
        <time>2025-01-28T09:40:23Z</time>
      </trkpt>
      <trkpt lat="47.63042" lon="-2.78353">
        <ele>3.1</ele>
        <time>2025-01-28T09:40:24Z</time>
      </trkpt>
      <trkpt lat="47.63042" lon="-2.78352">
        <ele>3.1</ele>
        <time>2025-01-28T09:40:25Z</time>
      </trkpt>
      <trkpt lat="47.63042" lon="-2.7835">
        <ele>3.1</ele>
        <time>2025-01-28T09:40:26Z</time>
      </trkpt>
      <trkpt lat="47.63042" lon="-2.78349">
        <ele>3.1</ele>
        <time>2025-01-28T09:40:27Z</time>
      </trkpt>
      <trkpt lat="47.63041" lon="-2.78347">
        <ele>3</ele>
        <time>2025-01-28T09:40:28Z</time>
      </trkpt>
      <trkpt lat="47.63041" lon="-2.78345">
        <ele>3.1</ele>
        <time>2025-01-28T09:40:29Z</time>
      </trkpt>
      <trkpt lat="47.6304" lon="-2.78343">
        <ele>3</ele>
        <time>2025-01-28T09:40:30Z</time>
      </trkpt>
      <trkpt lat="47.6304" lon="-2.78341">
        <ele>3</ele>
        <time>2025-01-28T09:40:31Z</time>
      </trkpt>
      <trkpt lat="47.6304" lon="-2.7834">
        <ele>2.9</ele>
        <time>2025-01-28T09:40:32Z</time>
      </trkpt>
      <trkpt lat="47.6304" lon="-2.78339">
        <ele>2.8</ele>
        <time>2025-01-28T09:40:33Z</time>
      </trkpt>
      <trkpt lat="47.6304" lon="-2.78337">
        <ele>2.8</ele>
        <time>2025-01-28T09:40:34Z</time>
      </trkpt>
      <trkpt lat="47.6304" lon="-2.78336">
        <ele>2.8</ele>
        <time>2025-01-28T09:40:35Z</time>
      </trkpt>
      <trkpt lat="47.63039" lon="-2.78335">
        <ele>2.9</ele>
        <time>2025-01-28T09:40:36Z</time>
      </trkpt>
      <trkpt lat="47.63039" lon="-2.78334">
        <ele>2.8</ele>
        <time>2025-01-28T09:40:37Z</time>
      </trkpt>
      <trkpt lat="47.63039" lon="-2.78334">
        <ele>2.8</ele>
        <time>2025-01-28T09:40:38Z</time>
      </trkpt>
      <trkpt lat="47.63039" lon="-2.78334">
        <ele>2.8</ele>
        <time>2025-01-28T09:40:39Z</time>
      </trkpt>
      <trkpt lat="47.63039" lon="-2.78334">
        <ele>2.8</ele>
        <time>2025-01-28T09:40:40Z</time>
      </trkpt>
      <trkpt lat="47.63039" lon="-2.78334">
        <ele>2.8</ele>
        <time>2025-01-28T09:40:41Z</time>
      </trkpt>
      <trkpt lat="47.63039" lon="-2.78335">
        <ele>2.9</ele>
        <time>2025-01-28T09:40:42Z</time>
      </trkpt>
      <trkpt lat="47.63039" lon="-2.78335">
        <ele>2.9</ele>
        <time>2025-01-28T09:40:43Z</time>
      </trkpt>
      <trkpt lat="47.63039" lon="-2.78335">
        <ele>2.9</ele>
        <time>2025-01-28T09:40:44Z</time>
      </trkpt>
      <trkpt lat="47.63039" lon="-2.78336">
        <ele>2.9</ele>
        <time>2025-01-28T09:40:45Z</time>
      </trkpt>
      <trkpt lat="47.63039" lon="-2.78337">
        <ele>3</ele>
        <time>2025-01-28T09:40:46Z</time>
      </trkpt>
      <trkpt lat="47.63039" lon="-2.78337">
        <ele>3</ele>
        <time>2025-01-28T09:40:47Z</time>
      </trkpt>
      <trkpt lat="47.63039" lon="-2.78337">
        <ele>3</ele>
        <time>2025-01-28T09:40:48Z</time>
      </trkpt>
      <trkpt lat="47.63039" lon="-2.78337">
        <ele>3</ele>
        <time>2025-01-28T09:40:49Z</time>
      </trkpt>
      <trkpt lat="47.63039" lon="-2.78337">
        <ele>3</ele>
        <time>2025-01-28T09:40:50Z</time>
      </trkpt>
      <trkpt lat="47.63039" lon="-2.78337">
        <ele>3</ele>
        <time>2025-01-28T09:40:51Z</time>
      </trkpt>
      <trkpt lat="47.63039" lon="-2.78337">
        <ele>3</ele>
        <time>2025-01-28T09:40:52Z</time>
      </trkpt>
      <trkpt lat="47.63039" lon="-2.78337">
        <ele>3</ele>
        <time>2025-01-28T09:40:53Z</time>
      </trkpt>
      <trkpt lat="47.63039" lon="-2.78337">
        <ele>3</ele>
        <time>2025-01-28T09:40:54Z</time>
      </trkpt>
      <trkpt lat="47.63039" lon="-2.78337">
        <ele>3</ele>
        <time>2025-01-28T09:40:55Z</time>
      </trkpt>
      <trkpt lat="47.63039" lon="-2.78337">
        <ele>3</ele>
        <time>2025-01-28T09:40:56Z</time>
      </trkpt>
      <trkpt lat="47.63039" lon="-2.78337">
        <ele>3</ele>
        <time>2025-01-28T09:40:57Z</time>
      </trkpt>
      <trkpt lat="47.63039" lon="-2.78337">
        <ele>3</ele>
        <time>2025-01-28T09:40:58Z</time>
      </trkpt>
      <trkpt lat="47.63039" lon="-2.78337">
        <ele>3</ele>
        <time>2025-01-28T09:40:59Z</time>
      </trkpt>
      <trkpt lat="47.63039" lon="-2.78337">
        <ele>3</ele>
        <time>2025-01-28T09:41:00Z</time>
      </trkpt>
      <trkpt lat="47.63039" lon="-2.78337">
        <ele>3</ele>
        <time>2025-01-28T09:41:01Z</time>
      </trkpt>
      <trkpt lat="47.63039" lon="-2.78337">
        <ele>3</ele>
        <time>2025-01-28T09:41:02Z</time>
      </trkpt>
      <trkpt lat="47.63039" lon="-2.78337">
        <ele>3</ele>
        <time>2025-01-28T09:41:03Z</time>
      </trkpt>
      <trkpt lat="47.63039" lon="-2.78337">
        <ele>3</ele>
        <time>2025-01-28T09:41:04Z</time>
      </trkpt>
      <trkpt lat="47.63039" lon="-2.78337">
        <ele>3</ele>
        <time>2025-01-28T09:41:05Z</time>
      </trkpt>
      <trkpt lat="47.63039" lon="-2.78337">
        <ele>3</ele>
        <time>2025-01-28T09:41:06Z</time>
      </trkpt>
      <trkpt lat="47.63039" lon="-2.78337">
        <ele>3</ele>
        <time>2025-01-28T09:41:07Z</time>
      </trkpt>
      <trkpt lat="47.63039" lon="-2.78337">
        <ele>3</ele>
        <time>2025-01-28T09:41:08Z</time>
      </trkpt>
      <trkpt lat="47.63039" lon="-2.78337">
        <ele>3</ele>
        <time>2025-01-28T09:41:09Z</time>
      </trkpt>
      <trkpt lat="47.63039" lon="-2.78337">
        <ele>3</ele>
        <time>2025-01-28T09:41:10Z</time>
      </trkpt>
      <trkpt lat="47.63039" lon="-2.78337">
        <ele>2.9</ele>
        <time>2025-01-28T09:41:11Z</time>
      </trkpt>
      <trkpt lat="47.63039" lon="-2.78336">
        <ele>2.9</ele>
        <time>2025-01-28T09:41:12Z</time>
      </trkpt>
      <trkpt lat="47.63039" lon="-2.78336">
        <ele>2.8</ele>
        <time>2025-01-28T09:41:13Z</time>
      </trkpt>
      <trkpt lat="47.63039" lon="-2.78336">
        <ele>2.8</ele>
        <time>2025-01-28T09:41:14Z</time>
      </trkpt>
      <trkpt lat="47.63039" lon="-2.78336">
        <ele>2.8</ele>
        <time>2025-01-28T09:41:15Z</time>
      </trkpt>
      <trkpt lat="47.63039" lon="-2.78336">
        <ele>2.8</ele>
        <time>2025-01-28T09:41:16Z</time>
      </trkpt>
      <trkpt lat="47.63039" lon="-2.78336">
        <ele>2.8</ele>
        <time>2025-01-28T09:41:17Z</time>
      </trkpt>
      <trkpt lat="47.63039" lon="-2.78336">
        <ele>2.8</ele>
        <time>2025-01-28T09:41:18Z</time>
      </trkpt>
      <trkpt lat="47.63039" lon="-2.78336">
        <ele>2.8</ele>
        <time>2025-01-28T09:41:19Z</time>
      </trkpt>
      <trkpt lat="47.63039" lon="-2.78336">
        <ele>2.8</ele>
        <time>2025-01-28T09:41:20Z</time>
      </trkpt>
      <trkpt lat="47.63039" lon="-2.78336">
        <ele>2.8</ele>
        <time>2025-01-28T09:41:21Z</time>
      </trkpt>
      <trkpt lat="47.63039" lon="-2.78336">
        <ele>2.8</ele>
        <time>2025-01-28T09:41:22Z</time>
      </trkpt>
      <trkpt lat="47.63039" lon="-2.78336">
        <ele>2.8</ele>
        <time>2025-01-28T09:41:23Z</time>
      </trkpt>
      <trkpt lat="47.63039" lon="-2.78336">
        <ele>2.8</ele>
        <time>2025-01-28T09:41:24Z</time>
      </trkpt>
      <trkpt lat="47.63039" lon="-2.78336">
        <ele>2.8</ele>
        <time>2025-01-28T09:41:25Z</time>
      </trkpt>
      <trkpt lat="47.63039" lon="-2.78336">
        <ele>2.8</ele>
        <time>2025-01-28T09:41:26Z</time>
      </trkpt>
      <trkpt lat="47.63039" lon="-2.78336">
        <ele>2.8</ele>
        <time>2025-01-28T09:41:27Z</time>
      </trkpt>
      <trkpt lat="47.63039" lon="-2.78336">
        <ele>2.8</ele>
        <time>2025-01-28T09:41:28Z</time>
      </trkpt>
      <trkpt lat="47.63039" lon="-2.78335">
        <ele>2.9</ele>
        <time>2025-01-28T09:41:29Z</time>
      </trkpt>
      <trkpt lat="47.63039" lon="-2.78335">
        <ele>2.9</ele>
        <time>2025-01-28T09:41:30Z</time>
      </trkpt>
      <trkpt lat="47.63039" lon="-2.78335">
        <ele>2.9</ele>
        <time>2025-01-28T09:41:31Z</time>
      </trkpt>
      <trkpt lat="47.63039" lon="-2.78335">
        <ele>2.9</ele>
        <time>2025-01-28T09:41:32Z</time>
      </trkpt>
      <trkpt lat="47.63039" lon="-2.78335">
        <ele>2.9</ele>
        <time>2025-01-28T09:41:33Z</time>
      </trkpt>
      <trkpt lat="47.63038" lon="-2.78335">
        <ele>2.9</ele>
        <time>2025-01-28T09:41:34Z</time>
      </trkpt>
      <trkpt lat="47.63038" lon="-2.78336">
        <ele>3</ele>
        <time>2025-01-28T09:41:35Z</time>
      </trkpt>
      <trkpt lat="47.63036" lon="-2.78336">
        <ele>3.2</ele>
        <time>2025-01-28T09:41:36Z</time>
      </trkpt>
      <trkpt lat="47.63036" lon="-2.78336">
        <ele>3.3</ele>
        <time>2025-01-28T09:41:37Z</time>
      </trkpt>
      <trkpt lat="47.63035" lon="-2.78335">
        <ele>3.3</ele>
        <time>2025-01-28T09:41:38Z</time>
      </trkpt>
      <trkpt lat="47.63034" lon="-2.78335">
        <ele>3.4</ele>
        <time>2025-01-28T09:41:39Z</time>
      </trkpt>
      <trkpt lat="47.63034" lon="-2.78334">
        <ele>3.4</ele>
        <time>2025-01-28T09:41:40Z</time>
      </trkpt>
      <trkpt lat="47.63033" lon="-2.78333">
        <ele>3.4</ele>
        <time>2025-01-28T09:41:41Z</time>
      </trkpt>
      <trkpt lat="47.63033" lon="-2.78333">
        <ele>3.4</ele>
        <time>2025-01-28T09:41:42Z</time>
      </trkpt>
      <trkpt lat="47.63033" lon="-2.78333">
        <ele>3.4</ele>
        <time>2025-01-28T09:41:43Z</time>
      </trkpt>
      <trkpt lat="47.63033" lon="-2.78333">
        <ele>3.4</ele>
        <time>2025-01-28T09:41:44Z</time>
      </trkpt>
      <trkpt lat="47.63033" lon="-2.78333">
        <ele>3.4</ele>
        <time>2025-01-28T09:41:45Z</time>
      </trkpt>
      <trkpt lat="47.63033" lon="-2.78334">
        <ele>3.5</ele>
        <time>2025-01-28T09:41:46Z</time>
      </trkpt>
      <trkpt lat="47.63032" lon="-2.78334">
        <ele>3.6</ele>
        <time>2025-01-28T09:41:47Z</time>
      </trkpt>
      <trkpt lat="47.63031" lon="-2.78335">
        <ele>3.7</ele>
        <time>2025-01-28T09:41:48Z</time>
      </trkpt>
      <trkpt lat="47.6303" lon="-2.78335">
        <ele>3.8</ele>
        <time>2025-01-28T09:41:49Z</time>
      </trkpt>
      <trkpt lat="47.63029" lon="-2.78334">
        <ele>3.9</ele>
        <time>2025-01-28T09:41:50Z</time>
      </trkpt>
      <trkpt lat="47.63027" lon="-2.78332">
        <ele>3.9</ele>
        <time>2025-01-28T09:41:51Z</time>
      </trkpt>
      <trkpt lat="47.63026" lon="-2.78331">
        <ele>3.8</ele>
        <time>2025-01-28T09:41:52Z</time>
      </trkpt>
      <trkpt lat="47.63025" lon="-2.7833">
        <ele>3.7</ele>
        <time>2025-01-28T09:41:53Z</time>
      </trkpt>
      <trkpt lat="47.63024" lon="-2.78329">
        <ele>3.7</ele>
        <time>2025-01-28T09:41:54Z</time>
      </trkpt>
      <trkpt lat="47.63023" lon="-2.78329">
        <ele>3.7</ele>
        <time>2025-01-28T09:41:55Z</time>
      </trkpt>
      <trkpt lat="47.63022" lon="-2.78329">
        <ele>3.8</ele>
        <time>2025-01-28T09:41:56Z</time>
      </trkpt>
      <trkpt lat="47.63022" lon="-2.7833">
        <ele>3.9</ele>
        <time>2025-01-28T09:41:57Z</time>
      </trkpt>
      <trkpt lat="47.63021" lon="-2.78331">
        <ele>4</ele>
        <time>2025-01-28T09:41:58Z</time>
      </trkpt>
      <trkpt lat="47.63021" lon="-2.78331">
        <ele>4.1</ele>
        <time>2025-01-28T09:41:59Z</time>
      </trkpt>
      <trkpt lat="47.6302" lon="-2.78332">
        <ele>4.1</ele>
        <time>2025-01-28T09:42:00Z</time>
      </trkpt>
      <trkpt lat="47.63019" lon="-2.78331">
        <ele>4.1</ele>
        <time>2025-01-28T09:42:01Z</time>
      </trkpt>
      <trkpt lat="47.63018" lon="-2.78329">
        <ele>3.9</ele>
        <time>2025-01-28T09:42:02Z</time>
      </trkpt>
      <trkpt lat="47.63017" lon="-2.78327">
        <ele>3.8</ele>
        <time>2025-01-28T09:42:03Z</time>
      </trkpt>
      <trkpt lat="47.63017" lon="-2.78325">
        <ele>3.6</ele>
        <time>2025-01-28T09:42:04Z</time>
      </trkpt>
      <trkpt lat="47.63017" lon="-2.78325">
        <ele>3.6</ele>
        <time>2025-01-28T09:42:05Z</time>
      </trkpt>
      <trkpt lat="47.63016" lon="-2.78324">
        <ele>3.6</ele>
        <time>2025-01-28T09:42:06Z</time>
      </trkpt>
      <trkpt lat="47.63014" lon="-2.78323">
        <ele>3.6</ele>
        <time>2025-01-28T09:42:07Z</time>
      </trkpt>
      <trkpt lat="47.63013" lon="-2.78322">
        <ele>3.5</ele>
        <time>2025-01-28T09:42:08Z</time>
      </trkpt>
      <trkpt lat="47.63013" lon="-2.78321">
        <ele>3.4</ele>
        <time>2025-01-28T09:42:09Z</time>
      </trkpt>
      <trkpt lat="47.63012" lon="-2.7832">
        <ele>3.4</ele>
        <time>2025-01-28T09:42:10Z</time>
      </trkpt>
      <trkpt lat="47.63011" lon="-2.78318">
        <ele>3.3</ele>
        <time>2025-01-28T09:42:11Z</time>
      </trkpt>
      <trkpt lat="47.6301" lon="-2.78318">
        <ele>3.3</ele>
        <time>2025-01-28T09:42:12Z</time>
      </trkpt>
      <trkpt lat="47.63009" lon="-2.78318">
        <ele>3.3</ele>
        <time>2025-01-28T09:42:13Z</time>
      </trkpt>
      <trkpt lat="47.63009" lon="-2.78318">
        <ele>3.4</ele>
        <time>2025-01-28T09:42:14Z</time>
      </trkpt>
      <trkpt lat="47.63008" lon="-2.78318">
        <ele>3.5</ele>
        <time>2025-01-28T09:42:15Z</time>
      </trkpt>
      <trkpt lat="47.63007" lon="-2.78318">
        <ele>3.5</ele>
        <time>2025-01-28T09:42:16Z</time>
      </trkpt>
      <trkpt lat="47.63006" lon="-2.78318">
        <ele>3.5</ele>
        <time>2025-01-28T09:42:17Z</time>
      </trkpt>
      <trkpt lat="47.63005" lon="-2.78317">
        <ele>3.5</ele>
        <time>2025-01-28T09:42:18Z</time>
      </trkpt>
      <trkpt lat="47.63005" lon="-2.78315">
        <ele>3.4</ele>
        <time>2025-01-28T09:42:19Z</time>
      </trkpt>
      <trkpt lat="47.63004" lon="-2.78314">
        <ele>3.3</ele>
        <time>2025-01-28T09:42:20Z</time>
      </trkpt>
      <trkpt lat="47.63003" lon="-2.78313">
        <ele>3.3</ele>
        <time>2025-01-28T09:42:21Z</time>
      </trkpt>
      <trkpt lat="47.63003" lon="-2.78312">
        <ele>3.3</ele>
        <time>2025-01-28T09:42:22Z</time>
      </trkpt>
      <trkpt lat="47.63002" lon="-2.78313">
        <ele>3.4</ele>
        <time>2025-01-28T09:42:23Z</time>
      </trkpt>
      <trkpt lat="47.63" lon="-2.78313">
        <ele>3.5</ele>
        <time>2025-01-28T09:42:24Z</time>
      </trkpt>
      <trkpt lat="47.62999" lon="-2.78312">
        <ele>3.6</ele>
        <time>2025-01-28T09:42:25Z</time>
      </trkpt>
      <trkpt lat="47.62998" lon="-2.78311">
        <ele>3.6</ele>
        <time>2025-01-28T09:42:26Z</time>
      </trkpt>
      <trkpt lat="47.62996" lon="-2.78309">
        <ele>3.6</ele>
        <time>2025-01-28T09:42:27Z</time>
      </trkpt>
      <trkpt lat="47.62996" lon="-2.78308">
        <ele>3.6</ele>
        <time>2025-01-28T09:42:28Z</time>
      </trkpt>
      <trkpt lat="47.62996" lon="-2.78306">
        <ele>3.5</ele>
        <time>2025-01-28T09:42:29Z</time>
      </trkpt>
      <trkpt lat="47.62995" lon="-2.78305">
        <ele>3.5</ele>
        <time>2025-01-28T09:42:30Z</time>
      </trkpt>
      <trkpt lat="47.62994" lon="-2.78304">
        <ele>3.5</ele>
        <time>2025-01-28T09:42:31Z</time>
      </trkpt>
      <trkpt lat="47.62994" lon="-2.78303">
        <ele>3.6</ele>
        <time>2025-01-28T09:42:32Z</time>
      </trkpt>
      <trkpt lat="47.62993" lon="-2.78303">
        <ele>3.6</ele>
        <time>2025-01-28T09:42:33Z</time>
      </trkpt>
      <trkpt lat="47.62992" lon="-2.78302">
        <ele>3.6</ele>
        <time>2025-01-28T09:42:34Z</time>
      </trkpt>
      <trkpt lat="47.62991" lon="-2.78301">
        <ele>3.7</ele>
        <time>2025-01-28T09:42:35Z</time>
      </trkpt>
      <trkpt lat="47.6299" lon="-2.78301">
        <ele>3.7</ele>
        <time>2025-01-28T09:42:36Z</time>
      </trkpt>
      <trkpt lat="47.62989" lon="-2.783">
        <ele>3.8</ele>
        <time>2025-01-28T09:42:37Z</time>
      </trkpt>
      <trkpt lat="47.62988" lon="-2.783">
        <ele>3.8</ele>
        <time>2025-01-28T09:42:38Z</time>
      </trkpt>
      <trkpt lat="47.62987" lon="-2.78299">
        <ele>3.9</ele>
        <time>2025-01-28T09:42:39Z</time>
      </trkpt>
      <trkpt lat="47.62986" lon="-2.78299">
        <ele>3.9</ele>
        <time>2025-01-28T09:42:40Z</time>
      </trkpt>
      <trkpt lat="47.62985" lon="-2.78299">
        <ele>4</ele>
        <time>2025-01-28T09:42:41Z</time>
      </trkpt>
      <trkpt lat="47.62984" lon="-2.78298">
        <ele>4</ele>
        <time>2025-01-28T09:42:42Z</time>
      </trkpt>
      <trkpt lat="47.62983" lon="-2.78297">
        <ele>4</ele>
        <time>2025-01-28T09:42:43Z</time>
      </trkpt>
      <trkpt lat="47.62982" lon="-2.78297">
        <ele>4.1</ele>
        <time>2025-01-28T09:42:44Z</time>
      </trkpt>
      <trkpt lat="47.62981" lon="-2.78298">
        <ele>4.2</ele>
        <time>2025-01-28T09:42:45Z</time>
      </trkpt>
      <trkpt lat="47.6298" lon="-2.78298">
        <ele>4.3</ele>
        <time>2025-01-28T09:42:46Z</time>
      </trkpt>
      <trkpt lat="47.62978" lon="-2.78297">
        <ele>4.3</ele>
        <time>2025-01-28T09:42:47Z</time>
      </trkpt>
      <trkpt lat="47.62977" lon="-2.78296">
        <ele>4.3</ele>
        <time>2025-01-28T09:42:48Z</time>
      </trkpt>
      <trkpt lat="47.62976" lon="-2.78295">
        <ele>4.3</ele>
        <time>2025-01-28T09:42:49Z</time>
      </trkpt>
      <trkpt lat="47.62975" lon="-2.78294">
        <ele>4.2</ele>
        <time>2025-01-28T09:42:50Z</time>
      </trkpt>
      <trkpt lat="47.62974" lon="-2.78293">
        <ele>4.1</ele>
        <time>2025-01-28T09:42:51Z</time>
      </trkpt>
      <trkpt lat="47.62973" lon="-2.78292">
        <ele>4</ele>
        <time>2025-01-28T09:42:52Z</time>
      </trkpt>
      <trkpt lat="47.62972" lon="-2.78291">
        <ele>3.9</ele>
        <time>2025-01-28T09:42:53Z</time>
      </trkpt>
      <trkpt lat="47.62971" lon="-2.7829">
        <ele>4</ele>
        <time>2025-01-28T09:42:54Z</time>
      </trkpt>
      <trkpt lat="47.6297" lon="-2.78289">
        <ele>4</ele>
        <time>2025-01-28T09:42:55Z</time>
      </trkpt>
      <trkpt lat="47.62969" lon="-2.78288">
        <ele>4</ele>
        <time>2025-01-28T09:42:56Z</time>
      </trkpt>
      <trkpt lat="47.62968" lon="-2.78287">
        <ele>4</ele>
        <time>2025-01-28T09:42:57Z</time>
      </trkpt>
      <trkpt lat="47.62967" lon="-2.78286">
        <ele>3.9</ele>
        <time>2025-01-28T09:42:58Z</time>
      </trkpt>
      <trkpt lat="47.62966" lon="-2.78284">
        <ele>3.9</ele>
        <time>2025-01-28T09:42:59Z</time>
      </trkpt>
      <trkpt lat="47.62965" lon="-2.78283">
        <ele>3.9</ele>
        <time>2025-01-28T09:43:00Z</time>
      </trkpt>
      <trkpt lat="47.62964" lon="-2.78283">
        <ele>4</ele>
        <time>2025-01-28T09:43:01Z</time>
      </trkpt>
      <trkpt lat="47.62963" lon="-2.78282">
        <ele>4.1</ele>
        <time>2025-01-28T09:43:02Z</time>
      </trkpt>
      <trkpt lat="47.62962" lon="-2.78281">
        <ele>4.2</ele>
        <time>2025-01-28T09:43:03Z</time>
      </trkpt>
      <trkpt lat="47.62961" lon="-2.78281">
        <ele>4.3</ele>
        <time>2025-01-28T09:43:04Z</time>
      </trkpt>
      <trkpt lat="47.6296" lon="-2.7828">
        <ele>4.5</ele>
        <time>2025-01-28T09:43:05Z</time>
      </trkpt>
      <trkpt lat="47.62959" lon="-2.78281">
        <ele>4.8</ele>
        <time>2025-01-28T09:43:06Z</time>
      </trkpt>
      <trkpt lat="47.62957" lon="-2.7828">
        <ele>4.9</ele>
        <time>2025-01-28T09:43:07Z</time>
      </trkpt>
      <trkpt lat="47.62956" lon="-2.7828">
        <ele>5.1</ele>
        <time>2025-01-28T09:43:08Z</time>
      </trkpt>
      <trkpt lat="47.62955" lon="-2.78279">
        <ele>5.1</ele>
        <time>2025-01-28T09:43:09Z</time>
      </trkpt>
      <trkpt lat="47.62954" lon="-2.78278">
        <ele>5.3</ele>
        <time>2025-01-28T09:43:10Z</time>
      </trkpt>
      <trkpt lat="47.62953" lon="-2.78277">
        <ele>5.4</ele>
        <time>2025-01-28T09:43:11Z</time>
      </trkpt>
      <trkpt lat="47.62952" lon="-2.78277">
        <ele>5.6</ele>
        <time>2025-01-28T09:43:12Z</time>
      </trkpt>
      <trkpt lat="47.62951" lon="-2.78277">
        <ele>5.6</ele>
        <time>2025-01-28T09:43:13Z</time>
      </trkpt>
      <trkpt lat="47.6295" lon="-2.78276">
        <ele>5.7</ele>
        <time>2025-01-28T09:43:14Z</time>
      </trkpt>
      <trkpt lat="47.62949" lon="-2.78275">
        <ele>5.6</ele>
        <time>2025-01-28T09:43:15Z</time>
      </trkpt>
      <trkpt lat="47.62948" lon="-2.78274">
        <ele>5.6</ele>
        <time>2025-01-28T09:43:16Z</time>
      </trkpt>
      <trkpt lat="47.62947" lon="-2.78273">
        <ele>5.6</ele>
        <time>2025-01-28T09:43:17Z</time>
      </trkpt>
      <trkpt lat="47.62946" lon="-2.78273">
        <ele>5.7</ele>
        <time>2025-01-28T09:43:18Z</time>
      </trkpt>
      <trkpt lat="47.62945" lon="-2.78272">
        <ele>5.8</ele>
        <time>2025-01-28T09:43:19Z</time>
      </trkpt>
      <trkpt lat="47.62944" lon="-2.78271">
        <ele>5.7</ele>
        <time>2025-01-28T09:43:20Z</time>
      </trkpt>
      <trkpt lat="47.62943" lon="-2.78271">
        <ele>5.8</ele>
        <time>2025-01-28T09:43:21Z</time>
      </trkpt>
      <trkpt lat="47.62941" lon="-2.78271">
        <ele>5.9</ele>
        <time>2025-01-28T09:43:22Z</time>
      </trkpt>
      <trkpt lat="47.6294" lon="-2.7827">
        <ele>5.9</ele>
        <time>2025-01-28T09:43:23Z</time>
      </trkpt>
      <trkpt lat="47.62939" lon="-2.78269">
        <ele>5.9</ele>
        <time>2025-01-28T09:43:24Z</time>
      </trkpt>
      <trkpt lat="47.62938" lon="-2.78268">
        <ele>5.8</ele>
        <time>2025-01-28T09:43:25Z</time>
      </trkpt>
      <trkpt lat="47.62938" lon="-2.78267">
        <ele>5.8</ele>
        <time>2025-01-28T09:43:26Z</time>
      </trkpt>
      <trkpt lat="47.62937" lon="-2.78266">
        <ele>5.7</ele>
        <time>2025-01-28T09:43:27Z</time>
      </trkpt>
      <trkpt lat="47.62936" lon="-2.78264">
        <ele>5.6</ele>
        <time>2025-01-28T09:43:28Z</time>
      </trkpt>
      <trkpt lat="47.62935" lon="-2.78263">
        <ele>5.6</ele>
        <time>2025-01-28T09:43:29Z</time>
      </trkpt>
      <trkpt lat="47.62934" lon="-2.78262">
        <ele>5.6</ele>
        <time>2025-01-28T09:43:30Z</time>
      </trkpt>
      <trkpt lat="47.62933" lon="-2.78262">
        <ele>5.7</ele>
        <time>2025-01-28T09:43:31Z</time>
      </trkpt>
      <trkpt lat="47.62932" lon="-2.78261">
        <ele>5.9</ele>
        <time>2025-01-28T09:43:32Z</time>
      </trkpt>
      <trkpt lat="47.62931" lon="-2.7826">
        <ele>5.9</ele>
        <time>2025-01-28T09:43:33Z</time>
      </trkpt>
      <trkpt lat="47.6293" lon="-2.78259">
        <ele>5.8</ele>
        <time>2025-01-28T09:43:34Z</time>
      </trkpt>
      <trkpt lat="47.6293" lon="-2.78258">
        <ele>5.8</ele>
        <time>2025-01-28T09:43:35Z</time>
      </trkpt>
      <trkpt lat="47.62928" lon="-2.78257">
        <ele>6</ele>
        <time>2025-01-28T09:43:36Z</time>
      </trkpt>
      <trkpt lat="47.62927" lon="-2.78256">
        <ele>6.1</ele>
        <time>2025-01-28T09:43:37Z</time>
      </trkpt>
      <trkpt lat="47.62926" lon="-2.78255">
        <ele>6.3</ele>
        <time>2025-01-28T09:43:38Z</time>
      </trkpt>
      <trkpt lat="47.62925" lon="-2.78254">
        <ele>6.3</ele>
        <time>2025-01-28T09:43:39Z</time>
      </trkpt>
      <trkpt lat="47.62925" lon="-2.78253">
        <ele>6.3</ele>
        <time>2025-01-28T09:43:40Z</time>
      </trkpt>
      <trkpt lat="47.62924" lon="-2.78252">
        <ele>6.3</ele>
        <time>2025-01-28T09:43:41Z</time>
      </trkpt>
      <trkpt lat="47.62924" lon="-2.7825">
        <ele>6.2</ele>
        <time>2025-01-28T09:43:42Z</time>
      </trkpt>
      <trkpt lat="47.62923" lon="-2.78248">
        <ele>6</ele>
        <time>2025-01-28T09:43:43Z</time>
      </trkpt>
      <trkpt lat="47.62922" lon="-2.78247">
        <ele>5.9</ele>
        <time>2025-01-28T09:43:44Z</time>
      </trkpt>
      <trkpt lat="47.62921" lon="-2.78245">
        <ele>5.8</ele>
        <time>2025-01-28T09:43:45Z</time>
      </trkpt>
      <trkpt lat="47.6292" lon="-2.78244">
        <ele>5.7</ele>
        <time>2025-01-28T09:43:46Z</time>
      </trkpt>
      <trkpt lat="47.6292" lon="-2.78242">
        <ele>5.6</ele>
        <time>2025-01-28T09:43:47Z</time>
      </trkpt>
      <trkpt lat="47.62918" lon="-2.78242">
        <ele>5.6</ele>
        <time>2025-01-28T09:43:48Z</time>
      </trkpt>
      <trkpt lat="47.62917" lon="-2.7824">
        <ele>5.4</ele>
        <time>2025-01-28T09:43:49Z</time>
      </trkpt>
      <trkpt lat="47.62917" lon="-2.78239">
        <ele>5.2</ele>
        <time>2025-01-28T09:43:50Z</time>
      </trkpt>
      <trkpt lat="47.62917" lon="-2.78237">
        <ele>4.7</ele>
        <time>2025-01-28T09:43:51Z</time>
      </trkpt>
      <trkpt lat="47.62915" lon="-2.78236">
        <ele>4.6</ele>
        <time>2025-01-28T09:43:52Z</time>
      </trkpt>
      <trkpt lat="47.62914" lon="-2.78236">
        <ele>4.6</ele>
        <time>2025-01-28T09:43:53Z</time>
      </trkpt>
      <trkpt lat="47.62913" lon="-2.78236">
        <ele>4.8</ele>
        <time>2025-01-28T09:43:54Z</time>
      </trkpt>
      <trkpt lat="47.62911" lon="-2.78236">
        <ele>4.9</ele>
        <time>2025-01-28T09:43:55Z</time>
      </trkpt>
      <trkpt lat="47.6291" lon="-2.78235">
        <ele>5</ele>
        <time>2025-01-28T09:43:56Z</time>
      </trkpt>
      <trkpt lat="47.62909" lon="-2.78235">
        <ele>5</ele>
        <time>2025-01-28T09:43:57Z</time>
      </trkpt>
      <trkpt lat="47.62907" lon="-2.78235">
        <ele>5.1</ele>
        <time>2025-01-28T09:43:58Z</time>
      </trkpt>
      <trkpt lat="47.62906" lon="-2.78235">
        <ele>5.1</ele>
        <time>2025-01-28T09:43:59Z</time>
      </trkpt>
      <trkpt lat="47.62905" lon="-2.78234">
        <ele>5.1</ele>
        <time>2025-01-28T09:44:00Z</time>
      </trkpt>
      <trkpt lat="47.62904" lon="-2.78234">
        <ele>5.2</ele>
        <time>2025-01-28T09:44:01Z</time>
      </trkpt>
      <trkpt lat="47.62902" lon="-2.78232">
        <ele>5</ele>
        <time>2025-01-28T09:44:02Z</time>
      </trkpt>
      <trkpt lat="47.62902" lon="-2.7823">
        <ele>4.7</ele>
        <time>2025-01-28T09:44:03Z</time>
      </trkpt>
      <trkpt lat="47.62901" lon="-2.78229">
        <ele>4.5</ele>
        <time>2025-01-28T09:44:04Z</time>
      </trkpt>
      <trkpt lat="47.629" lon="-2.78228">
        <ele>4.4</ele>
        <time>2025-01-28T09:44:05Z</time>
      </trkpt>
      <trkpt lat="47.62899" lon="-2.78228">
        <ele>4.7</ele>
        <time>2025-01-28T09:44:06Z</time>
      </trkpt>
      <trkpt lat="47.62898" lon="-2.78228">
        <ele>4.6</ele>
        <time>2025-01-28T09:44:07Z</time>
      </trkpt>
      <trkpt lat="47.62897" lon="-2.78228">
        <ele>4.8</ele>
        <time>2025-01-28T09:44:08Z</time>
      </trkpt>
      <trkpt lat="47.62896" lon="-2.78227">
        <ele>4.8</ele>
        <time>2025-01-28T09:44:09Z</time>
      </trkpt>
      <trkpt lat="47.62895" lon="-2.78226">
        <ele>4.8</ele>
        <time>2025-01-28T09:44:10Z</time>
      </trkpt>
      <trkpt lat="47.62894" lon="-2.78225">
        <ele>4.8</ele>
        <time>2025-01-28T09:44:11Z</time>
      </trkpt>
      <trkpt lat="47.62893" lon="-2.78225">
        <ele>5</ele>
        <time>2025-01-28T09:44:12Z</time>
      </trkpt>
      <trkpt lat="47.62891" lon="-2.78225">
        <ele>5.1</ele>
        <time>2025-01-28T09:44:13Z</time>
      </trkpt>
      <trkpt lat="47.6289" lon="-2.78225">
        <ele>5.2</ele>
        <time>2025-01-28T09:44:14Z</time>
      </trkpt>
      <trkpt lat="47.6289" lon="-2.78224">
        <ele>5.2</ele>
        <time>2025-01-28T09:44:15Z</time>
      </trkpt>
      <trkpt lat="47.62889" lon="-2.78223">
        <ele>5.1</ele>
        <time>2025-01-28T09:44:16Z</time>
      </trkpt>
      <trkpt lat="47.62888" lon="-2.78223">
        <ele>5.1</ele>
        <time>2025-01-28T09:44:17Z</time>
      </trkpt>
      <trkpt lat="47.62887" lon="-2.78222">
        <ele>5.2</ele>
        <time>2025-01-28T09:44:18Z</time>
      </trkpt>
      <trkpt lat="47.62886" lon="-2.78222">
        <ele>5.2</ele>
        <time>2025-01-28T09:44:19Z</time>
      </trkpt>
      <trkpt lat="47.62885" lon="-2.78221">
        <ele>5.2</ele>
        <time>2025-01-28T09:44:20Z</time>
      </trkpt>
      <trkpt lat="47.62884" lon="-2.78221">
        <ele>5.3</ele>
        <time>2025-01-28T09:44:21Z</time>
      </trkpt>
      <trkpt lat="47.62882" lon="-2.78221">
        <ele>5.4</ele>
        <time>2025-01-28T09:44:22Z</time>
      </trkpt>
      <trkpt lat="47.62881" lon="-2.78221">
        <ele>5.4</ele>
        <time>2025-01-28T09:44:23Z</time>
      </trkpt>
      <trkpt lat="47.62881" lon="-2.7822">
        <ele>5.4</ele>
        <time>2025-01-28T09:44:24Z</time>
      </trkpt>
      <trkpt lat="47.62879" lon="-2.7822">
        <ele>5.5</ele>
        <time>2025-01-28T09:44:25Z</time>
      </trkpt>
      <trkpt lat="47.62878" lon="-2.78219">
        <ele>5.5</ele>
        <time>2025-01-28T09:44:26Z</time>
      </trkpt>
      <trkpt lat="47.62877" lon="-2.7822">
        <ele>5.6</ele>
        <time>2025-01-28T09:44:27Z</time>
      </trkpt>
      <trkpt lat="47.62876" lon="-2.78219">
        <ele>5.5</ele>
        <time>2025-01-28T09:44:28Z</time>
      </trkpt>
      <trkpt lat="47.62875" lon="-2.78217">
        <ele>5.5</ele>
        <time>2025-01-28T09:44:29Z</time>
      </trkpt>
      <trkpt lat="47.62875" lon="-2.78216">
        <ele>5.4</ele>
        <time>2025-01-28T09:44:30Z</time>
      </trkpt>
      <trkpt lat="47.62874" lon="-2.78215">
        <ele>5.3</ele>
        <time>2025-01-28T09:44:31Z</time>
      </trkpt>
      <trkpt lat="47.62872" lon="-2.78215">
        <ele>5.3</ele>
        <time>2025-01-28T09:44:32Z</time>
      </trkpt>
      <trkpt lat="47.62872" lon="-2.78213">
        <ele>5.1</ele>
        <time>2025-01-28T09:44:33Z</time>
      </trkpt>
      <trkpt lat="47.62871" lon="-2.78212">
        <ele>5</ele>
        <time>2025-01-28T09:44:34Z</time>
      </trkpt>
      <trkpt lat="47.6287" lon="-2.78211">
        <ele>5</ele>
        <time>2025-01-28T09:44:35Z</time>
      </trkpt>
      <trkpt lat="47.62869" lon="-2.78209">
        <ele>4.8</ele>
        <time>2025-01-28T09:44:36Z</time>
      </trkpt>
      <trkpt lat="47.62868" lon="-2.78208">
        <ele>4.8</ele>
        <time>2025-01-28T09:44:37Z</time>
      </trkpt>
      <trkpt lat="47.62867" lon="-2.78208">
        <ele>4.7</ele>
        <time>2025-01-28T09:44:38Z</time>
      </trkpt>
      <trkpt lat="47.62866" lon="-2.78207">
        <ele>4.6</ele>
        <time>2025-01-28T09:44:39Z</time>
      </trkpt>
      <trkpt lat="47.62865" lon="-2.78206">
        <ele>4.5</ele>
        <time>2025-01-28T09:44:40Z</time>
      </trkpt>
      <trkpt lat="47.62865" lon="-2.78204">
        <ele>4.3</ele>
        <time>2025-01-28T09:44:41Z</time>
      </trkpt>
      <trkpt lat="47.62864" lon="-2.78203">
        <ele>4.2</ele>
        <time>2025-01-28T09:44:42Z</time>
      </trkpt>
      <trkpt lat="47.62863" lon="-2.78203">
        <ele>4.1</ele>
        <time>2025-01-28T09:44:43Z</time>
      </trkpt>
      <trkpt lat="47.62862" lon="-2.78202">
        <ele>4</ele>
        <time>2025-01-28T09:44:44Z</time>
      </trkpt>
      <trkpt lat="47.62861" lon="-2.78201">
        <ele>3.9</ele>
        <time>2025-01-28T09:44:45Z</time>
      </trkpt>
      <trkpt lat="47.6286" lon="-2.78199">
        <ele>3.8</ele>
        <time>2025-01-28T09:44:46Z</time>
      </trkpt>
      <trkpt lat="47.62859" lon="-2.78198">
        <ele>3.8</ele>
        <time>2025-01-28T09:44:47Z</time>
      </trkpt>
      <trkpt lat="47.62858" lon="-2.78197">
        <ele>3.8</ele>
        <time>2025-01-28T09:44:48Z</time>
      </trkpt>
      <trkpt lat="47.62857" lon="-2.78197">
        <ele>4</ele>
        <time>2025-01-28T09:44:49Z</time>
      </trkpt>
      <trkpt lat="47.62855" lon="-2.78197">
        <ele>4.2</ele>
        <time>2025-01-28T09:44:50Z</time>
      </trkpt>
      <trkpt lat="47.62854" lon="-2.78198">
        <ele>4.4</ele>
        <time>2025-01-28T09:44:51Z</time>
      </trkpt>
      <trkpt lat="47.62853" lon="-2.78197">
        <ele>4.5</ele>
        <time>2025-01-28T09:44:52Z</time>
      </trkpt>
      <trkpt lat="47.62853" lon="-2.78195">
        <ele>4.4</ele>
        <time>2025-01-28T09:44:53Z</time>
      </trkpt>
      <trkpt lat="47.62851" lon="-2.78195">
        <ele>4.4</ele>
        <time>2025-01-28T09:44:54Z</time>
      </trkpt>
      <trkpt lat="47.62851" lon="-2.78194">
        <ele>4.5</ele>
        <time>2025-01-28T09:44:55Z</time>
      </trkpt>
      <trkpt lat="47.62849" lon="-2.78193">
        <ele>4.6</ele>
        <time>2025-01-28T09:44:56Z</time>
      </trkpt>
      <trkpt lat="47.62848" lon="-2.78192">
        <ele>4.7</ele>
        <time>2025-01-28T09:44:57Z</time>
      </trkpt>
      <trkpt lat="47.62847" lon="-2.78192">
        <ele>4.8</ele>
        <time>2025-01-28T09:44:58Z</time>
      </trkpt>
      <trkpt lat="47.62846" lon="-2.78191">
        <ele>4.9</ele>
        <time>2025-01-28T09:44:59Z</time>
      </trkpt>
      <trkpt lat="47.62845" lon="-2.78191">
        <ele>5</ele>
        <time>2025-01-28T09:45:00Z</time>
      </trkpt>
      <trkpt lat="47.62844" lon="-2.7819">
        <ele>5</ele>
        <time>2025-01-28T09:45:01Z</time>
      </trkpt>
      <trkpt lat="47.62843" lon="-2.78189">
        <ele>5.1</ele>
        <time>2025-01-28T09:45:02Z</time>
      </trkpt>
      <trkpt lat="47.62842" lon="-2.78188">
        <ele>5.1</ele>
        <time>2025-01-28T09:45:03Z</time>
      </trkpt>
      <trkpt lat="47.62841" lon="-2.78187">
        <ele>5</ele>
        <time>2025-01-28T09:45:04Z</time>
      </trkpt>
      <trkpt lat="47.62841" lon="-2.78185">
        <ele>5</ele>
        <time>2025-01-28T09:45:05Z</time>
      </trkpt>
      <trkpt lat="47.6284" lon="-2.78184">
        <ele>4.9</ele>
        <time>2025-01-28T09:45:06Z</time>
      </trkpt>
      <trkpt lat="47.62839" lon="-2.78182">
        <ele>4.8</ele>
        <time>2025-01-28T09:45:07Z</time>
      </trkpt>
      <trkpt lat="47.62839" lon="-2.78181">
        <ele>4.7</ele>
        <time>2025-01-28T09:45:08Z</time>
      </trkpt>
      <trkpt lat="47.62837" lon="-2.78181">
        <ele>4.7</ele>
        <time>2025-01-28T09:45:09Z</time>
      </trkpt>
      <trkpt lat="47.62837" lon="-2.7818">
        <ele>4.7</ele>
        <time>2025-01-28T09:45:10Z</time>
      </trkpt>
      <trkpt lat="47.62836" lon="-2.78179">
        <ele>4.6</ele>
        <time>2025-01-28T09:45:11Z</time>
      </trkpt>
      <trkpt lat="47.62835" lon="-2.78178">
        <ele>4.5</ele>
        <time>2025-01-28T09:45:12Z</time>
      </trkpt>
      <trkpt lat="47.62834" lon="-2.78177">
        <ele>4.4</ele>
        <time>2025-01-28T09:45:13Z</time>
      </trkpt>
      <trkpt lat="47.62833" lon="-2.78174">
        <ele>4.1</ele>
        <time>2025-01-28T09:45:14Z</time>
      </trkpt>
      <trkpt lat="47.62832" lon="-2.78173">
        <ele>4.1</ele>
        <time>2025-01-28T09:45:15Z</time>
      </trkpt>
      <trkpt lat="47.62831" lon="-2.78172">
        <ele>4.1</ele>
        <time>2025-01-28T09:45:16Z</time>
      </trkpt>
      <trkpt lat="47.6283" lon="-2.78172">
        <ele>4.2</ele>
        <time>2025-01-28T09:45:17Z</time>
      </trkpt>
      <trkpt lat="47.6283" lon="-2.7817">
        <ele>4.2</ele>
        <time>2025-01-28T09:45:18Z</time>
      </trkpt>
      <trkpt lat="47.62829" lon="-2.78169">
        <ele>4.1</ele>
        <time>2025-01-28T09:45:19Z</time>
      </trkpt>
      <trkpt lat="47.62828" lon="-2.78168">
        <ele>4.1</ele>
        <time>2025-01-28T09:45:20Z</time>
      </trkpt>
      <trkpt lat="47.62828" lon="-2.78167">
        <ele>4</ele>
        <time>2025-01-28T09:45:21Z</time>
      </trkpt>
      <trkpt lat="47.62827" lon="-2.78166">
        <ele>4.1</ele>
        <time>2025-01-28T09:45:22Z</time>
      </trkpt>
      <trkpt lat="47.62825" lon="-2.78165">
        <ele>4.3</ele>
        <time>2025-01-28T09:45:23Z</time>
      </trkpt>
      <trkpt lat="47.62824" lon="-2.78164">
        <ele>4.4</ele>
        <time>2025-01-28T09:45:24Z</time>
      </trkpt>
      <trkpt lat="47.62823" lon="-2.78163">
        <ele>4.4</ele>
        <time>2025-01-28T09:45:25Z</time>
      </trkpt>
      <trkpt lat="47.62822" lon="-2.78162">
        <ele>4.5</ele>
        <time>2025-01-28T09:45:26Z</time>
      </trkpt>
      <trkpt lat="47.62821" lon="-2.78161">
        <ele>4.6</ele>
        <time>2025-01-28T09:45:27Z</time>
      </trkpt>
      <trkpt lat="47.6282" lon="-2.7816">
        <ele>4.6</ele>
        <time>2025-01-28T09:45:28Z</time>
      </trkpt>
      <trkpt lat="47.62819" lon="-2.7816">
        <ele>4.7</ele>
        <time>2025-01-28T09:45:29Z</time>
      </trkpt>
      <trkpt lat="47.62817" lon="-2.78159">
        <ele>4.9</ele>
        <time>2025-01-28T09:45:30Z</time>
      </trkpt>
      <trkpt lat="47.62816" lon="-2.78159">
        <ele>5</ele>
        <time>2025-01-28T09:45:31Z</time>
      </trkpt>
      <trkpt lat="47.62815" lon="-2.78158">
        <ele>4.9</ele>
        <time>2025-01-28T09:45:32Z</time>
      </trkpt>
      <trkpt lat="47.62814" lon="-2.78157">
        <ele>5</ele>
        <time>2025-01-28T09:45:33Z</time>
      </trkpt>
      <trkpt lat="47.62813" lon="-2.78157">
        <ele>5.1</ele>
        <time>2025-01-28T09:45:34Z</time>
      </trkpt>
      <trkpt lat="47.62812" lon="-2.78157">
        <ele>5.1</ele>
        <time>2025-01-28T09:45:35Z</time>
      </trkpt>
      <trkpt lat="47.62812" lon="-2.78156">
        <ele>5.1</ele>
        <time>2025-01-28T09:45:36Z</time>
      </trkpt>
      <trkpt lat="47.62811" lon="-2.78155">
        <ele>5</ele>
        <time>2025-01-28T09:45:37Z</time>
      </trkpt>
      <trkpt lat="47.6281" lon="-2.78154">
        <ele>4.9</ele>
        <time>2025-01-28T09:45:38Z</time>
      </trkpt>
      <trkpt lat="47.62809" lon="-2.78153">
        <ele>4.7</ele>
        <time>2025-01-28T09:45:39Z</time>
      </trkpt>
      <trkpt lat="47.62809" lon="-2.78152">
        <ele>4.6</ele>
        <time>2025-01-28T09:45:40Z</time>
      </trkpt>
      <trkpt lat="47.62808" lon="-2.78152">
        <ele>4.6</ele>
        <time>2025-01-28T09:45:41Z</time>
      </trkpt>
      <trkpt lat="47.62807" lon="-2.78152">
        <ele>4.8</ele>
        <time>2025-01-28T09:45:42Z</time>
      </trkpt>
      <trkpt lat="47.62807" lon="-2.78153">
        <ele>4.9</ele>
        <time>2025-01-28T09:45:43Z</time>
      </trkpt>
      <trkpt lat="47.62806" lon="-2.78153">
        <ele>4.9</ele>
        <time>2025-01-28T09:45:44Z</time>
      </trkpt>
      <trkpt lat="47.62806" lon="-2.78151">
        <ele>4.7</ele>
        <time>2025-01-28T09:45:45Z</time>
      </trkpt>
      <trkpt lat="47.62805" lon="-2.78151">
        <ele>4.8</ele>
        <time>2025-01-28T09:45:46Z</time>
      </trkpt>
      <trkpt lat="47.62804" lon="-2.7815">
        <ele>4.9</ele>
        <time>2025-01-28T09:45:47Z</time>
      </trkpt>
      <trkpt lat="47.62803" lon="-2.78149">
        <ele>4.8</ele>
        <time>2025-01-28T09:45:48Z</time>
      </trkpt>
      <trkpt lat="47.62802" lon="-2.78148">
        <ele>4.7</ele>
        <time>2025-01-28T09:45:49Z</time>
      </trkpt>
      <trkpt lat="47.62802" lon="-2.78147">
        <ele>4.6</ele>
        <time>2025-01-28T09:45:50Z</time>
      </trkpt>
      <trkpt lat="47.62801" lon="-2.78146">
        <ele>4.5</ele>
        <time>2025-01-28T09:45:51Z</time>
      </trkpt>
      <trkpt lat="47.62801" lon="-2.78145">
        <ele>4.5</ele>
        <time>2025-01-28T09:45:52Z</time>
      </trkpt>
      <trkpt lat="47.628" lon="-2.78145">
        <ele>4.4</ele>
        <time>2025-01-28T09:45:53Z</time>
      </trkpt>
      <trkpt lat="47.628" lon="-2.78144">
        <ele>4.4</ele>
        <time>2025-01-28T09:45:54Z</time>
      </trkpt>
      <trkpt lat="47.62799" lon="-2.78143">
        <ele>4.5</ele>
        <time>2025-01-28T09:45:55Z</time>
      </trkpt>
      <trkpt lat="47.62799" lon="-2.78142">
        <ele>4.4</ele>
        <time>2025-01-28T09:45:56Z</time>
      </trkpt>
      <trkpt lat="47.62798" lon="-2.78141">
        <ele>4.3</ele>
        <time>2025-01-28T09:45:57Z</time>
      </trkpt>
      <trkpt lat="47.62797" lon="-2.7814">
        <ele>4.4</ele>
        <time>2025-01-28T09:45:58Z</time>
      </trkpt>
      <trkpt lat="47.62797" lon="-2.78139">
        <ele>4.2</ele>
        <time>2025-01-28T09:45:59Z</time>
      </trkpt>
      <trkpt lat="47.62797" lon="-2.78138">
        <ele>4.1</ele>
        <time>2025-01-28T09:46:00Z</time>
      </trkpt>
      <trkpt lat="47.62797" lon="-2.78137">
        <ele>4.3</ele>
        <time>2025-01-28T09:46:01Z</time>
      </trkpt>
      <trkpt lat="47.62796" lon="-2.78136">
        <ele>4.3</ele>
        <time>2025-01-28T09:46:02Z</time>
      </trkpt>
      <trkpt lat="47.62796" lon="-2.78136">
        <ele>4.4</ele>
        <time>2025-01-28T09:46:03Z</time>
      </trkpt>
      <trkpt lat="47.62796" lon="-2.78135">
        <ele>4.4</ele>
        <time>2025-01-28T09:46:04Z</time>
      </trkpt>
      <trkpt lat="47.62796" lon="-2.78134">
        <ele>4.3</ele>
        <time>2025-01-28T09:46:05Z</time>
      </trkpt>
      <trkpt lat="47.62796" lon="-2.78133">
        <ele>4.4</ele>
        <time>2025-01-28T09:46:06Z</time>
      </trkpt>
      <trkpt lat="47.62795" lon="-2.78133">
        <ele>4.5</ele>
        <time>2025-01-28T09:46:07Z</time>
      </trkpt>
      <trkpt lat="47.62795" lon="-2.78132">
        <ele>4.5</ele>
        <time>2025-01-28T09:46:08Z</time>
      </trkpt>
      <trkpt lat="47.62794" lon="-2.78132">
        <ele>4.7</ele>
        <time>2025-01-28T09:46:09Z</time>
      </trkpt>
      <trkpt lat="47.62793" lon="-2.78133">
        <ele>4.8</ele>
        <time>2025-01-28T09:46:10Z</time>
      </trkpt>
      <trkpt lat="47.62793" lon="-2.78133">
        <ele>5</ele>
        <time>2025-01-28T09:46:11Z</time>
      </trkpt>
      <trkpt lat="47.62792" lon="-2.78133">
        <ele>5.1</ele>
        <time>2025-01-28T09:46:12Z</time>
      </trkpt>
      <trkpt lat="47.62791" lon="-2.78133">
        <ele>5.2</ele>
        <time>2025-01-28T09:46:13Z</time>
      </trkpt>
      <trkpt lat="47.6279" lon="-2.78133">
        <ele>5.4</ele>
        <time>2025-01-28T09:46:14Z</time>
      </trkpt>
      <trkpt lat="47.6279" lon="-2.78133">
        <ele>5.6</ele>
        <time>2025-01-28T09:46:15Z</time>
      </trkpt>
      <trkpt lat="47.62789" lon="-2.78132">
        <ele>5.7</ele>
        <time>2025-01-28T09:46:16Z</time>
      </trkpt>
      <trkpt lat="47.62788" lon="-2.78132">
        <ele>5.8</ele>
        <time>2025-01-28T09:46:17Z</time>
      </trkpt>
      <trkpt lat="47.62787" lon="-2.78131">
        <ele>5.9</ele>
        <time>2025-01-28T09:46:18Z</time>
      </trkpt>
      <trkpt lat="47.62787" lon="-2.7813">
        <ele>5.9</ele>
        <time>2025-01-28T09:46:19Z</time>
      </trkpt>
      <trkpt lat="47.62786" lon="-2.78129">
        <ele>5.9</ele>
        <time>2025-01-28T09:46:20Z</time>
      </trkpt>
      <trkpt lat="47.62785" lon="-2.78128">
        <ele>5.9</ele>
        <time>2025-01-28T09:46:21Z</time>
      </trkpt>
      <trkpt lat="47.62784" lon="-2.78127">
        <ele>5.9</ele>
        <time>2025-01-28T09:46:22Z</time>
      </trkpt>
      <trkpt lat="47.62784" lon="-2.78126">
        <ele>5.9</ele>
        <time>2025-01-28T09:46:23Z</time>
      </trkpt>
      <trkpt lat="47.62783" lon="-2.78125">
        <ele>5.8</ele>
        <time>2025-01-28T09:46:24Z</time>
      </trkpt>
      <trkpt lat="47.62783" lon="-2.78124">
        <ele>5.7</ele>
        <time>2025-01-28T09:46:25Z</time>
      </trkpt>
      <trkpt lat="47.62782" lon="-2.78123">
        <ele>5.6</ele>
        <time>2025-01-28T09:46:26Z</time>
      </trkpt>
      <trkpt lat="47.62782" lon="-2.78122">
        <ele>5.5</ele>
        <time>2025-01-28T09:46:27Z</time>
      </trkpt>
      <trkpt lat="47.62781" lon="-2.78121">
        <ele>5.5</ele>
        <time>2025-01-28T09:46:28Z</time>
      </trkpt>
      <trkpt lat="47.62781" lon="-2.7812">
        <ele>5.3</ele>
        <time>2025-01-28T09:46:29Z</time>
      </trkpt>
      <trkpt lat="47.6278" lon="-2.78119">
        <ele>5.3</ele>
        <time>2025-01-28T09:46:30Z</time>
      </trkpt>
      <trkpt lat="47.62779" lon="-2.78118">
        <ele>5.2</ele>
        <time>2025-01-28T09:46:31Z</time>
      </trkpt>
      <trkpt lat="47.62778" lon="-2.78117">
        <ele>5.1</ele>
        <time>2025-01-28T09:46:32Z</time>
      </trkpt>
      <trkpt lat="47.62778" lon="-2.78116">
        <ele>4.9</ele>
        <time>2025-01-28T09:46:33Z</time>
      </trkpt>
      <trkpt lat="47.62777" lon="-2.78115">
        <ele>5</ele>
        <time>2025-01-28T09:46:34Z</time>
      </trkpt>
      <trkpt lat="47.62776" lon="-2.78115">
        <ele>5.1</ele>
        <time>2025-01-28T09:46:35Z</time>
      </trkpt>
      <trkpt lat="47.62775" lon="-2.78113">
        <ele>5</ele>
        <time>2025-01-28T09:46:36Z</time>
      </trkpt>
      <trkpt lat="47.62774" lon="-2.78112">
        <ele>4.8</ele>
        <time>2025-01-28T09:46:37Z</time>
      </trkpt>
      <trkpt lat="47.62774" lon="-2.7811">
        <ele>5</ele>
        <time>2025-01-28T09:46:38Z</time>
      </trkpt>
      <trkpt lat="47.62774" lon="-2.78108">
        <ele>5.3</ele>
        <time>2025-01-28T09:46:39Z</time>
      </trkpt>
      <trkpt lat="47.62773" lon="-2.78107">
        <ele>5.6</ele>
        <time>2025-01-28T09:46:40Z</time>
      </trkpt>
      <trkpt lat="47.62772" lon="-2.78106">
        <ele>6</ele>
        <time>2025-01-28T09:46:41Z</time>
      </trkpt>
      <trkpt lat="47.62771" lon="-2.78105">
        <ele>6.3</ele>
        <time>2025-01-28T09:46:42Z</time>
      </trkpt>
      <trkpt lat="47.6277" lon="-2.78103">
        <ele>6.6</ele>
        <time>2025-01-28T09:46:43Z</time>
      </trkpt>
      <trkpt lat="47.62769" lon="-2.78102">
        <ele>6.9</ele>
        <time>2025-01-28T09:46:44Z</time>
      </trkpt>
      <trkpt lat="47.62769" lon="-2.781">
        <ele>7.2</ele>
        <time>2025-01-28T09:46:45Z</time>
      </trkpt>
      <trkpt lat="47.62768" lon="-2.78099">
        <ele>7.4</ele>
        <time>2025-01-28T09:46:46Z</time>
      </trkpt>
      <trkpt lat="47.62768" lon="-2.78097">
        <ele>7.6</ele>
        <time>2025-01-28T09:46:47Z</time>
      </trkpt>
      <trkpt lat="47.62767" lon="-2.78096">
        <ele>7.8</ele>
        <time>2025-01-28T09:46:48Z</time>
      </trkpt>
      <trkpt lat="47.62766" lon="-2.78094">
        <ele>8</ele>
        <time>2025-01-28T09:46:49Z</time>
      </trkpt>
      <trkpt lat="47.62766" lon="-2.78093">
        <ele>8.2</ele>
        <time>2025-01-28T09:46:50Z</time>
      </trkpt>
      <trkpt lat="47.62765" lon="-2.78092">
        <ele>8.3</ele>
        <time>2025-01-28T09:46:51Z</time>
      </trkpt>
      <trkpt lat="47.62764" lon="-2.78091">
        <ele>8.5</ele>
        <time>2025-01-28T09:46:52Z</time>
      </trkpt>
      <trkpt lat="47.62764" lon="-2.7809">
        <ele>8.6</ele>
        <time>2025-01-28T09:46:53Z</time>
      </trkpt>
      <trkpt lat="47.62763" lon="-2.78088">
        <ele>8.7</ele>
        <time>2025-01-28T09:46:54Z</time>
      </trkpt>
      <trkpt lat="47.62762" lon="-2.78086">
        <ele>8.8</ele>
        <time>2025-01-28T09:46:55Z</time>
      </trkpt>
      <trkpt lat="47.62761" lon="-2.78084">
        <ele>8.9</ele>
        <time>2025-01-28T09:46:56Z</time>
      </trkpt>
      <trkpt lat="47.62761" lon="-2.78083">
        <ele>8.9</ele>
        <time>2025-01-28T09:46:57Z</time>
      </trkpt>
      <trkpt lat="47.6276" lon="-2.78081">
        <ele>8.6</ele>
        <time>2025-01-28T09:46:58Z</time>
      </trkpt>
      <trkpt lat="47.62759" lon="-2.7808">
        <ele>8.2</ele>
        <time>2025-01-28T09:46:59Z</time>
      </trkpt>
      <trkpt lat="47.62759" lon="-2.78078">
        <ele>7.9</ele>
        <time>2025-01-28T09:47:00Z</time>
      </trkpt>
      <trkpt lat="47.62757" lon="-2.78077">
        <ele>7.7</ele>
        <time>2025-01-28T09:47:01Z</time>
      </trkpt>
      <trkpt lat="47.62757" lon="-2.78076">
        <ele>7.4</ele>
        <time>2025-01-28T09:47:02Z</time>
      </trkpt>
      <trkpt lat="47.62756" lon="-2.78075">
        <ele>7.2</ele>
        <time>2025-01-28T09:47:03Z</time>
      </trkpt>
      <trkpt lat="47.62755" lon="-2.78074">
        <ele>7</ele>
        <time>2025-01-28T09:47:04Z</time>
      </trkpt>
      <trkpt lat="47.62754" lon="-2.78073">
        <ele>6.8</ele>
        <time>2025-01-28T09:47:05Z</time>
      </trkpt>
      <trkpt lat="47.62754" lon="-2.78072">
        <ele>6.4</ele>
        <time>2025-01-28T09:47:06Z</time>
      </trkpt>
      <trkpt lat="47.62753" lon="-2.7807">
        <ele>6.1</ele>
        <time>2025-01-28T09:47:07Z</time>
      </trkpt>
      <trkpt lat="47.62753" lon="-2.78069">
        <ele>5.8</ele>
        <time>2025-01-28T09:47:08Z</time>
      </trkpt>
      <trkpt lat="47.62751" lon="-2.78068">
        <ele>5.6</ele>
        <time>2025-01-28T09:47:09Z</time>
      </trkpt>
      <trkpt lat="47.62751" lon="-2.78066">
        <ele>5.3</ele>
        <time>2025-01-28T09:47:10Z</time>
      </trkpt>
      <trkpt lat="47.6275" lon="-2.78065">
        <ele>5.1</ele>
        <time>2025-01-28T09:47:11Z</time>
      </trkpt>
      <trkpt lat="47.62748" lon="-2.78063">
        <ele>5</ele>
        <time>2025-01-28T09:47:12Z</time>
      </trkpt>
      <trkpt lat="47.62747" lon="-2.78062">
        <ele>4.9</ele>
        <time>2025-01-28T09:47:13Z</time>
      </trkpt>
      <trkpt lat="47.62747" lon="-2.78061">
        <ele>4.8</ele>
        <time>2025-01-28T09:47:14Z</time>
      </trkpt>
      <trkpt lat="47.62746" lon="-2.7806">
        <ele>4.8</ele>
        <time>2025-01-28T09:47:15Z</time>
      </trkpt>
      <trkpt lat="47.62745" lon="-2.78059">
        <ele>4.7</ele>
        <time>2025-01-28T09:47:16Z</time>
      </trkpt>
      <trkpt lat="47.62745" lon="-2.78057">
        <ele>4.5</ele>
        <time>2025-01-28T09:47:17Z</time>
      </trkpt>
      <trkpt lat="47.62744" lon="-2.78056">
        <ele>4.4</ele>
        <time>2025-01-28T09:47:18Z</time>
      </trkpt>
      <trkpt lat="47.62743" lon="-2.78055">
        <ele>4.6</ele>
        <time>2025-01-28T09:47:19Z</time>
      </trkpt>
      <trkpt lat="47.62742" lon="-2.78054">
        <ele>4.8</ele>
        <time>2025-01-28T09:47:20Z</time>
      </trkpt>
      <trkpt lat="47.62742" lon="-2.78052">
        <ele>5.1</ele>
        <time>2025-01-28T09:47:21Z</time>
      </trkpt>
      <trkpt lat="47.62741" lon="-2.78051">
        <ele>5.4</ele>
        <time>2025-01-28T09:47:22Z</time>
      </trkpt>
      <trkpt lat="47.6274" lon="-2.7805">
        <ele>5.6</ele>
        <time>2025-01-28T09:47:23Z</time>
      </trkpt>
      <trkpt lat="47.62739" lon="-2.78049">
        <ele>5.8</ele>
        <time>2025-01-28T09:47:24Z</time>
      </trkpt>
      <trkpt lat="47.62738" lon="-2.78047">
        <ele>6</ele>
        <time>2025-01-28T09:47:25Z</time>
      </trkpt>
      <trkpt lat="47.62737" lon="-2.78046">
        <ele>6.2</ele>
        <time>2025-01-28T09:47:26Z</time>
      </trkpt>
      <trkpt lat="47.62736" lon="-2.78045">
        <ele>6.4</ele>
        <time>2025-01-28T09:47:27Z</time>
      </trkpt>
      <trkpt lat="47.62736" lon="-2.78044">
        <ele>6.5</ele>
        <time>2025-01-28T09:47:28Z</time>
      </trkpt>
      <trkpt lat="47.62735" lon="-2.78042">
        <ele>6.6</ele>
        <time>2025-01-28T09:47:29Z</time>
      </trkpt>
      <trkpt lat="47.62734" lon="-2.78041">
        <ele>6.7</ele>
        <time>2025-01-28T09:47:30Z</time>
      </trkpt>
      <trkpt lat="47.62733" lon="-2.7804">
        <ele>6.8</ele>
        <time>2025-01-28T09:47:31Z</time>
      </trkpt>
      <trkpt lat="47.62732" lon="-2.78039">
        <ele>6.9</ele>
        <time>2025-01-28T09:47:32Z</time>
      </trkpt>
      <trkpt lat="47.62731" lon="-2.78038">
        <ele>7</ele>
        <time>2025-01-28T09:47:33Z</time>
      </trkpt>
      <trkpt lat="47.62731" lon="-2.78036">
        <ele>7</ele>
        <time>2025-01-28T09:47:34Z</time>
      </trkpt>
      <trkpt lat="47.6273" lon="-2.78034">
        <ele>7.1</ele>
        <time>2025-01-28T09:47:35Z</time>
      </trkpt>
      <trkpt lat="47.6273" lon="-2.78033">
        <ele>7.1</ele>
        <time>2025-01-28T09:47:36Z</time>
      </trkpt>
      <trkpt lat="47.6273" lon="-2.78032">
        <ele>7.1</ele>
        <time>2025-01-28T09:47:37Z</time>
      </trkpt>
      <trkpt lat="47.62729" lon="-2.78031">
        <ele>7.1</ele>
        <time>2025-01-28T09:47:38Z</time>
      </trkpt>
      <trkpt lat="47.62729" lon="-2.78029">
        <ele>7</ele>
        <time>2025-01-28T09:47:39Z</time>
      </trkpt>
      <trkpt lat="47.62729" lon="-2.78028">
        <ele>7</ele>
        <time>2025-01-28T09:47:40Z</time>
      </trkpt>
      <trkpt lat="47.62728" lon="-2.78027">
        <ele>6.8</ele>
        <time>2025-01-28T09:47:41Z</time>
      </trkpt>
      <trkpt lat="47.62727" lon="-2.78025">
        <ele>6.6</ele>
        <time>2025-01-28T09:47:42Z</time>
      </trkpt>
      <trkpt lat="47.62726" lon="-2.78024">
        <ele>6.4</ele>
        <time>2025-01-28T09:47:43Z</time>
      </trkpt>
      <trkpt lat="47.62726" lon="-2.78023">
        <ele>6.2</ele>
        <time>2025-01-28T09:47:44Z</time>
      </trkpt>
      <trkpt lat="47.62725" lon="-2.78022">
        <ele>6</ele>
        <time>2025-01-28T09:47:45Z</time>
      </trkpt>
      <trkpt lat="47.62725" lon="-2.78022">
        <ele>5.9</ele>
        <time>2025-01-28T09:47:46Z</time>
      </trkpt>
      <trkpt lat="47.62725" lon="-2.78021">
        <ele>5.8</ele>
        <time>2025-01-28T09:47:47Z</time>
      </trkpt>
      <trkpt lat="47.62724" lon="-2.7802">
        <ele>5.6</ele>
        <time>2025-01-28T09:47:48Z</time>
      </trkpt>
      <trkpt lat="47.62724" lon="-2.7802">
        <ele>5.6</ele>
        <time>2025-01-28T09:47:49Z</time>
      </trkpt>
      <trkpt lat="47.62724" lon="-2.78019">
        <ele>5.5</ele>
        <time>2025-01-28T09:47:50Z</time>
      </trkpt>
      <trkpt lat="47.62725" lon="-2.78019">
        <ele>5.4</ele>
        <time>2025-01-28T09:47:51Z</time>
      </trkpt>
      <trkpt lat="47.62725" lon="-2.78019">
        <ele>5.4</ele>
        <time>2025-01-28T09:47:52Z</time>
      </trkpt>
      <trkpt lat="47.62725" lon="-2.78019">
        <ele>5.4</ele>
        <time>2025-01-28T09:47:53Z</time>
      </trkpt>
      <trkpt lat="47.62725" lon="-2.78019">
        <ele>5.4</ele>
        <time>2025-01-28T09:47:54Z</time>
      </trkpt>
      <trkpt lat="47.62725" lon="-2.78017">
        <ele>5.1</ele>
        <time>2025-01-28T09:47:55Z</time>
      </trkpt>
      <trkpt lat="47.62725" lon="-2.78016">
        <ele>4.8</ele>
        <time>2025-01-28T09:47:56Z</time>
      </trkpt>
      <trkpt lat="47.62725" lon="-2.78016">
        <ele>4.8</ele>
        <time>2025-01-28T09:47:57Z</time>
      </trkpt>
      <trkpt lat="47.62725" lon="-2.78016">
        <ele>4.8</ele>
        <time>2025-01-28T09:47:58Z</time>
      </trkpt>
      <trkpt lat="47.62725" lon="-2.78016">
        <ele>4.9</ele>
        <time>2025-01-28T09:47:59Z</time>
      </trkpt>
      <trkpt lat="47.62725" lon="-2.78016">
        <ele>4.9</ele>
        <time>2025-01-28T09:48:00Z</time>
      </trkpt>
      <trkpt lat="47.62725" lon="-2.78017">
        <ele>5</ele>
        <time>2025-01-28T09:48:01Z</time>
      </trkpt>
      <trkpt lat="47.62725" lon="-2.78017">
        <ele>5.1</ele>
        <time>2025-01-28T09:48:02Z</time>
      </trkpt>
      <trkpt lat="47.62725" lon="-2.78017">
        <ele>5.1</ele>
        <time>2025-01-28T09:48:03Z</time>
      </trkpt>
      <trkpt lat="47.62725" lon="-2.78017">
        <ele>5</ele>
        <time>2025-01-28T09:48:04Z</time>
      </trkpt>
      <trkpt lat="47.62725" lon="-2.78016">
        <ele>4.9</ele>
        <time>2025-01-28T09:48:05Z</time>
      </trkpt>
      <trkpt lat="47.62725" lon="-2.78015">
        <ele>4.7</ele>
        <time>2025-01-28T09:48:06Z</time>
      </trkpt>
      <trkpt lat="47.62726" lon="-2.78015">
        <ele>4.7</ele>
        <time>2025-01-28T09:48:07Z</time>
      </trkpt>
      <trkpt lat="47.62726" lon="-2.78015">
        <ele>4.7</ele>
        <time>2025-01-28T09:48:08Z</time>
      </trkpt>
      <trkpt lat="47.62726" lon="-2.78014">
        <ele>4.6</ele>
        <time>2025-01-28T09:48:09Z</time>
      </trkpt>
      <trkpt lat="47.62726" lon="-2.78014">
        <ele>4.4</ele>
        <time>2025-01-28T09:48:10Z</time>
      </trkpt>
      <trkpt lat="47.62726" lon="-2.78012">
        <ele>4.2</ele>
        <time>2025-01-28T09:48:11Z</time>
      </trkpt>
      <trkpt lat="47.62726" lon="-2.78011">
        <ele>3.9</ele>
        <time>2025-01-28T09:48:12Z</time>
      </trkpt>
      <trkpt lat="47.62726" lon="-2.78009">
        <ele>3.7</ele>
        <time>2025-01-28T09:48:13Z</time>
      </trkpt>
      <trkpt lat="47.62725" lon="-2.78008">
        <ele>3.5</ele>
        <time>2025-01-28T09:48:14Z</time>
      </trkpt>
      <trkpt lat="47.62724" lon="-2.78008">
        <ele>3.4</ele>
        <time>2025-01-28T09:48:15Z</time>
      </trkpt>
      <trkpt lat="47.62724" lon="-2.78007">
        <ele>3.3</ele>
        <time>2025-01-28T09:48:16Z</time>
      </trkpt>
      <trkpt lat="47.62724" lon="-2.78006">
        <ele>3.2</ele>
        <time>2025-01-28T09:48:17Z</time>
      </trkpt>
      <trkpt lat="47.62725" lon="-2.78006">
        <ele>3</ele>
        <time>2025-01-28T09:48:18Z</time>
      </trkpt>
      <trkpt lat="47.62725" lon="-2.78005">
        <ele>2.8</ele>
        <time>2025-01-28T09:48:19Z</time>
      </trkpt>
      <trkpt lat="47.62725" lon="-2.78004">
        <ele>2.7</ele>
        <time>2025-01-28T09:48:20Z</time>
      </trkpt>
      <trkpt lat="47.62724" lon="-2.78003">
        <ele>2.5</ele>
        <time>2025-01-28T09:48:21Z</time>
      </trkpt>
      <trkpt lat="47.62723" lon="-2.78003">
        <ele>2.5</ele>
        <time>2025-01-28T09:48:22Z</time>
      </trkpt>
      <trkpt lat="47.62723" lon="-2.78002">
        <ele>2.4</ele>
        <time>2025-01-28T09:48:23Z</time>
      </trkpt>
      <trkpt lat="47.62722" lon="-2.78001">
        <ele>2.2</ele>
        <time>2025-01-28T09:48:24Z</time>
      </trkpt>
      <trkpt lat="47.62722" lon="-2.78001">
        <ele>2.2</ele>
        <time>2025-01-28T09:48:25Z</time>
      </trkpt>
      <trkpt lat="47.62722" lon="-2.78">
        <ele>2.2</ele>
        <time>2025-01-28T09:48:26Z</time>
      </trkpt>
      <trkpt lat="47.62722" lon="-2.77999">
        <ele>2.2</ele>
        <time>2025-01-28T09:48:27Z</time>
      </trkpt>
      <trkpt lat="47.62721" lon="-2.77999">
        <ele>2.3</ele>
        <time>2025-01-28T09:48:28Z</time>
      </trkpt>
      <trkpt lat="47.62721" lon="-2.77998">
        <ele>2.4</ele>
        <time>2025-01-28T09:48:29Z</time>
      </trkpt>
      <trkpt lat="47.62722" lon="-2.77995">
        <ele>2.4</ele>
        <time>2025-01-28T09:48:30Z</time>
      </trkpt>
      <trkpt lat="47.62723" lon="-2.77995">
        <ele>2</ele>
        <time>2025-01-28T09:48:31Z</time>
      </trkpt>
      <trkpt lat="47.62722" lon="-2.77995">
        <ele>2</ele>
        <time>2025-01-28T09:48:32Z</time>
      </trkpt>
      <trkpt lat="47.62722" lon="-2.77995">
        <ele>2</ele>
        <time>2025-01-28T09:48:33Z</time>
      </trkpt>
      <trkpt lat="47.62722" lon="-2.77996">
        <ele>2</ele>
        <time>2025-01-28T09:48:34Z</time>
      </trkpt>
      <trkpt lat="47.62722" lon="-2.77996">
        <ele>2</ele>
        <time>2025-01-28T09:48:35Z</time>
      </trkpt>
      <trkpt lat="47.62722" lon="-2.77996">
        <ele>2</ele>
        <time>2025-01-28T09:48:36Z</time>
      </trkpt>
      <trkpt lat="47.62722" lon="-2.77996">
        <ele>2</ele>
        <time>2025-01-28T09:48:37Z</time>
      </trkpt>
      <trkpt lat="47.62722" lon="-2.77996">
        <ele>2</ele>
        <time>2025-01-28T09:48:38Z</time>
      </trkpt>
      <trkpt lat="47.62722" lon="-2.77996">
        <ele>2</ele>
        <time>2025-01-28T09:48:39Z</time>
      </trkpt>
      <trkpt lat="47.62722" lon="-2.77996">
        <ele>2</ele>
        <time>2025-01-28T09:48:40Z</time>
      </trkpt>
      <trkpt lat="47.62722" lon="-2.77996">
        <ele>2</ele>
        <time>2025-01-28T09:48:41Z</time>
      </trkpt>
      <trkpt lat="47.62722" lon="-2.77996">
        <ele>2</ele>
        <time>2025-01-28T09:48:42Z</time>
      </trkpt>
      <trkpt lat="47.62722" lon="-2.77996">
        <ele>2</ele>
        <time>2025-01-28T09:48:43Z</time>
      </trkpt>
      <trkpt lat="47.62722" lon="-2.77996">
        <ele>2</ele>
        <time>2025-01-28T09:48:44Z</time>
      </trkpt>
      <trkpt lat="47.62722" lon="-2.77996">
        <ele>2</ele>
        <time>2025-01-28T09:48:45Z</time>
      </trkpt>
      <trkpt lat="47.62722" lon="-2.77995">
        <ele>2.4</ele>
        <time>2025-01-28T09:48:46Z</time>
      </trkpt>
      <trkpt lat="47.62721" lon="-2.77994">
        <ele>2.6</ele>
        <time>2025-01-28T09:48:47Z</time>
      </trkpt>
      <trkpt lat="47.62721" lon="-2.77993">
        <ele>2.7</ele>
        <time>2025-01-28T09:48:48Z</time>
      </trkpt>
      <trkpt lat="47.62721" lon="-2.77992">
        <ele>2.8</ele>
        <time>2025-01-28T09:48:49Z</time>
      </trkpt>
      <trkpt lat="47.62721" lon="-2.7799">
        <ele>2.9</ele>
        <time>2025-01-28T09:48:50Z</time>
      </trkpt>
      <trkpt lat="47.6272" lon="-2.77989">
        <ele>3.1</ele>
        <time>2025-01-28T09:48:51Z</time>
      </trkpt>
      <trkpt lat="47.6272" lon="-2.77988">
        <ele>3.2</ele>
        <time>2025-01-28T09:48:52Z</time>
      </trkpt>
      <trkpt lat="47.62719" lon="-2.77988">
        <ele>3.3</ele>
        <time>2025-01-28T09:48:53Z</time>
      </trkpt>
      <trkpt lat="47.62717" lon="-2.77989">
        <ele>3.5</ele>
        <time>2025-01-28T09:48:54Z</time>
      </trkpt>
      <trkpt lat="47.62716" lon="-2.77988">
        <ele>3.6</ele>
        <time>2025-01-28T09:48:55Z</time>
      </trkpt>
      <trkpt lat="47.62715" lon="-2.77987">
        <ele>3.7</ele>
        <time>2025-01-28T09:48:56Z</time>
      </trkpt>
      <trkpt lat="47.62715" lon="-2.77986">
        <ele>3.8</ele>
        <time>2025-01-28T09:48:57Z</time>
      </trkpt>
      <trkpt lat="47.62714" lon="-2.77985">
        <ele>3.9</ele>
        <time>2025-01-28T09:48:58Z</time>
      </trkpt>
      <trkpt lat="47.62713" lon="-2.77984">
        <ele>4</ele>
        <time>2025-01-28T09:48:59Z</time>
      </trkpt>
      <trkpt lat="47.62712" lon="-2.77984">
        <ele>4.1</ele>
        <time>2025-01-28T09:49:00Z</time>
      </trkpt>
      <trkpt lat="47.62711" lon="-2.77983">
        <ele>4.2</ele>
        <time>2025-01-28T09:49:01Z</time>
      </trkpt>
      <trkpt lat="47.6271" lon="-2.77983">
        <ele>4.3</ele>
        <time>2025-01-28T09:49:02Z</time>
      </trkpt>
      <trkpt lat="47.62709" lon="-2.77982">
        <ele>4.3</ele>
        <time>2025-01-28T09:49:03Z</time>
      </trkpt>
      <trkpt lat="47.62708" lon="-2.77981">
        <ele>4.3</ele>
        <time>2025-01-28T09:49:04Z</time>
      </trkpt>
      <trkpt lat="47.62707" lon="-2.7798">
        <ele>4.4</ele>
        <time>2025-01-28T09:49:05Z</time>
      </trkpt>
      <trkpt lat="47.62706" lon="-2.7798">
        <ele>4.4</ele>
        <time>2025-01-28T09:49:06Z</time>
      </trkpt>
      <trkpt lat="47.62705" lon="-2.77979">
        <ele>4.4</ele>
        <time>2025-01-28T09:49:07Z</time>
      </trkpt>
      <trkpt lat="47.62705" lon="-2.77978">
        <ele>4.3</ele>
        <time>2025-01-28T09:49:08Z</time>
      </trkpt>
      <trkpt lat="47.62704" lon="-2.77976">
        <ele>4.3</ele>
        <time>2025-01-28T09:49:09Z</time>
      </trkpt>
      <trkpt lat="47.62703" lon="-2.77975">
        <ele>4.2</ele>
        <time>2025-01-28T09:49:10Z</time>
      </trkpt>
      <trkpt lat="47.62703" lon="-2.77974">
        <ele>4.1</ele>
        <time>2025-01-28T09:49:11Z</time>
      </trkpt>
      <trkpt lat="47.62702" lon="-2.77973">
        <ele>4</ele>
        <time>2025-01-28T09:49:12Z</time>
      </trkpt>
      <trkpt lat="47.62701" lon="-2.77972">
        <ele>4</ele>
        <time>2025-01-28T09:49:13Z</time>
      </trkpt>
      <trkpt lat="47.627" lon="-2.77971">
        <ele>4</ele>
        <time>2025-01-28T09:49:14Z</time>
      </trkpt>
      <trkpt lat="47.62699" lon="-2.77971">
        <ele>4</ele>
        <time>2025-01-28T09:49:15Z</time>
      </trkpt>
      <trkpt lat="47.62698" lon="-2.77971">
        <ele>4</ele>
        <time>2025-01-28T09:49:16Z</time>
      </trkpt>
      <trkpt lat="47.62697" lon="-2.77971">
        <ele>4</ele>
        <time>2025-01-28T09:49:17Z</time>
      </trkpt>
      <trkpt lat="47.62696" lon="-2.77972">
        <ele>4</ele>
        <time>2025-01-28T09:49:18Z</time>
      </trkpt>
      <trkpt lat="47.62695" lon="-2.77973">
        <ele>4.1</ele>
        <time>2025-01-28T09:49:19Z</time>
      </trkpt>
      <trkpt lat="47.62693" lon="-2.77972">
        <ele>4.1</ele>
        <time>2025-01-28T09:49:20Z</time>
      </trkpt>
      <trkpt lat="47.62692" lon="-2.77971">
        <ele>4.1</ele>
        <time>2025-01-28T09:49:21Z</time>
      </trkpt>
      <trkpt lat="47.62691" lon="-2.77971">
        <ele>4.2</ele>
        <time>2025-01-28T09:49:22Z</time>
      </trkpt>
      <trkpt lat="47.6269" lon="-2.77971">
        <ele>4.4</ele>
        <time>2025-01-28T09:49:23Z</time>
      </trkpt>
      <trkpt lat="47.62688" lon="-2.77971">
        <ele>4.5</ele>
        <time>2025-01-28T09:49:24Z</time>
      </trkpt>
      <trkpt lat="47.62687" lon="-2.7797">
        <ele>4.5</ele>
        <time>2025-01-28T09:49:25Z</time>
      </trkpt>
      <trkpt lat="47.62686" lon="-2.77969">
        <ele>4.4</ele>
        <time>2025-01-28T09:49:26Z</time>
      </trkpt>
      <trkpt lat="47.62685" lon="-2.77968">
        <ele>4.5</ele>
        <time>2025-01-28T09:49:27Z</time>
      </trkpt>
      <trkpt lat="47.62684" lon="-2.77968">
        <ele>4.6</ele>
        <time>2025-01-28T09:49:28Z</time>
      </trkpt>
      <trkpt lat="47.62683" lon="-2.77967">
        <ele>4.5</ele>
        <time>2025-01-28T09:49:29Z</time>
      </trkpt>
      <trkpt lat="47.62682" lon="-2.77967">
        <ele>4.5</ele>
        <time>2025-01-28T09:49:30Z</time>
      </trkpt>
      <trkpt lat="47.62681" lon="-2.77966">
        <ele>4.5</ele>
        <time>2025-01-28T09:49:31Z</time>
      </trkpt>
      <trkpt lat="47.6268" lon="-2.77966">
        <ele>4.6</ele>
        <time>2025-01-28T09:49:32Z</time>
      </trkpt>
      <trkpt lat="47.62679" lon="-2.77965">
        <ele>4.5</ele>
        <time>2025-01-28T09:49:33Z</time>
      </trkpt>
      <trkpt lat="47.62678" lon="-2.77965">
        <ele>4.5</ele>
        <time>2025-01-28T09:49:34Z</time>
      </trkpt>
      <trkpt lat="47.62676" lon="-2.77965">
        <ele>4.6</ele>
        <time>2025-01-28T09:49:35Z</time>
      </trkpt>
      <trkpt lat="47.62675" lon="-2.77966">
        <ele>5</ele>
        <time>2025-01-28T09:49:36Z</time>
      </trkpt>
      <trkpt lat="47.62674" lon="-2.77965">
        <ele>4.9</ele>
        <time>2025-01-28T09:49:37Z</time>
      </trkpt>
      <trkpt lat="47.62673" lon="-2.77965">
        <ele>4.9</ele>
        <time>2025-01-28T09:49:38Z</time>
      </trkpt>
      <trkpt lat="47.62672" lon="-2.77964">
        <ele>4.9</ele>
        <time>2025-01-28T09:49:39Z</time>
      </trkpt>
      <trkpt lat="47.62671" lon="-2.77964">
        <ele>4.9</ele>
        <time>2025-01-28T09:49:40Z</time>
      </trkpt>
      <trkpt lat="47.6267" lon="-2.77963">
        <ele>4.8</ele>
        <time>2025-01-28T09:49:41Z</time>
      </trkpt>
      <trkpt lat="47.62669" lon="-2.77962">
        <ele>4.7</ele>
        <time>2025-01-28T09:49:42Z</time>
      </trkpt>
      <trkpt lat="47.62668" lon="-2.77962">
        <ele>4.7</ele>
        <time>2025-01-28T09:49:43Z</time>
      </trkpt>
      <trkpt lat="47.62667" lon="-2.7796">
        <ele>4.3</ele>
        <time>2025-01-28T09:49:44Z</time>
      </trkpt>
      <trkpt lat="47.62666" lon="-2.77959">
        <ele>4.1</ele>
        <time>2025-01-28T09:49:45Z</time>
      </trkpt>
      <trkpt lat="47.62665" lon="-2.77958">
        <ele>3.8</ele>
        <time>2025-01-28T09:49:46Z</time>
      </trkpt>
      <trkpt lat="47.62664" lon="-2.77957">
        <ele>3.5</ele>
        <time>2025-01-28T09:49:47Z</time>
      </trkpt>
      <trkpt lat="47.62663" lon="-2.77956">
        <ele>3.3</ele>
        <time>2025-01-28T09:49:48Z</time>
      </trkpt>
      <trkpt lat="47.62662" lon="-2.77955">
        <ele>3.2</ele>
        <time>2025-01-28T09:49:49Z</time>
      </trkpt>
      <trkpt lat="47.62661" lon="-2.77953">
        <ele>3</ele>
        <time>2025-01-28T09:49:50Z</time>
      </trkpt>
      <trkpt lat="47.6266" lon="-2.77952">
        <ele>2.8</ele>
        <time>2025-01-28T09:49:51Z</time>
      </trkpt>
      <trkpt lat="47.62659" lon="-2.77952">
        <ele>2.7</ele>
        <time>2025-01-28T09:49:52Z</time>
      </trkpt>
      <trkpt lat="47.62658" lon="-2.77952">
        <ele>2.8</ele>
        <time>2025-01-28T09:49:53Z</time>
      </trkpt>
      <trkpt lat="47.62657" lon="-2.77952">
        <ele>2.8</ele>
        <time>2025-01-28T09:49:54Z</time>
      </trkpt>
      <trkpt lat="47.62656" lon="-2.77952">
        <ele>2.9</ele>
        <time>2025-01-28T09:49:55Z</time>
      </trkpt>
      <trkpt lat="47.62655" lon="-2.77954">
        <ele>3</ele>
        <time>2025-01-28T09:49:56Z</time>
      </trkpt>
      <trkpt lat="47.62654" lon="-2.77955">
        <ele>3.1</ele>
        <time>2025-01-28T09:49:57Z</time>
      </trkpt>
      <trkpt lat="47.62653" lon="-2.77956">
        <ele>3.2</ele>
        <time>2025-01-28T09:49:58Z</time>
      </trkpt>
      <trkpt lat="47.62653" lon="-2.77958">
        <ele>3.2</ele>
        <time>2025-01-28T09:49:59Z</time>
      </trkpt>
      <trkpt lat="47.62652" lon="-2.77959">
        <ele>3.3</ele>
        <time>2025-01-28T09:50:00Z</time>
      </trkpt>
      <trkpt lat="47.62652" lon="-2.77961">
        <ele>3.3</ele>
        <time>2025-01-28T09:50:01Z</time>
      </trkpt>
      <trkpt lat="47.62651" lon="-2.77962">
        <ele>3.3</ele>
        <time>2025-01-28T09:50:02Z</time>
      </trkpt>
      <trkpt lat="47.62651" lon="-2.77963">
        <ele>3.3</ele>
        <time>2025-01-28T09:50:03Z</time>
      </trkpt>
      <trkpt lat="47.62651" lon="-2.77963">
        <ele>3.3</ele>
        <time>2025-01-28T09:50:04Z</time>
      </trkpt>
      <trkpt lat="47.62651" lon="-2.77963">
        <ele>3.3</ele>
        <time>2025-01-28T09:50:05Z</time>
      </trkpt>
      <trkpt lat="47.62651" lon="-2.77963">
        <ele>3.3</ele>
        <time>2025-01-28T09:50:06Z</time>
      </trkpt>
      <trkpt lat="47.62651" lon="-2.77963">
        <ele>3.3</ele>
        <time>2025-01-28T09:50:07Z</time>
      </trkpt>
      <trkpt lat="47.62651" lon="-2.77963">
        <ele>3.3</ele>
        <time>2025-01-28T09:50:08Z</time>
      </trkpt>
      <trkpt lat="47.62651" lon="-2.77963">
        <ele>3.3</ele>
        <time>2025-01-28T09:50:09Z</time>
      </trkpt>
      <trkpt lat="47.62651" lon="-2.77963">
        <ele>3.3</ele>
        <time>2025-01-28T09:50:10Z</time>
      </trkpt>
      <trkpt lat="47.6265" lon="-2.77964">
        <ele>3.3</ele>
        <time>2025-01-28T09:50:11Z</time>
      </trkpt>
      <trkpt lat="47.6265" lon="-2.77965">
        <ele>3.2</ele>
        <time>2025-01-28T09:50:12Z</time>
      </trkpt>
      <trkpt lat="47.6265" lon="-2.77966">
        <ele>3.2</ele>
        <time>2025-01-28T09:50:13Z</time>
      </trkpt>
      <trkpt lat="47.6265" lon="-2.77966">
        <ele>3.2</ele>
        <time>2025-01-28T09:50:14Z</time>
      </trkpt>
      <trkpt lat="47.6265" lon="-2.77966">
        <ele>3.2</ele>
        <time>2025-01-28T09:50:15Z</time>
      </trkpt>
      <trkpt lat="47.6265" lon="-2.77966">
        <ele>3.2</ele>
        <time>2025-01-28T09:50:16Z</time>
      </trkpt>
      <trkpt lat="47.6265" lon="-2.77966">
        <ele>3.2</ele>
        <time>2025-01-28T09:50:17Z</time>
      </trkpt>
      <trkpt lat="47.6265" lon="-2.77966">
        <ele>3.2</ele>
        <time>2025-01-28T09:50:18Z</time>
      </trkpt>
      <trkpt lat="47.6265" lon="-2.77966">
        <ele>3.2</ele>
        <time>2025-01-28T09:50:19Z</time>
      </trkpt>
      <trkpt lat="47.6265" lon="-2.77966">
        <ele>3.2</ele>
        <time>2025-01-28T09:50:20Z</time>
      </trkpt>
      <trkpt lat="47.6265" lon="-2.77966">
        <ele>3.2</ele>
        <time>2025-01-28T09:50:21Z</time>
      </trkpt>
      <trkpt lat="47.6265" lon="-2.77966">
        <ele>3.2</ele>
        <time>2025-01-28T09:50:22Z</time>
      </trkpt>
      <trkpt lat="47.6265" lon="-2.77966">
        <ele>3.2</ele>
        <time>2025-01-28T09:50:23Z</time>
      </trkpt>
      <trkpt lat="47.6265" lon="-2.77966">
        <ele>3.2</ele>
        <time>2025-01-28T09:50:24Z</time>
      </trkpt>
      <trkpt lat="47.6265" lon="-2.77966">
        <ele>3.2</ele>
        <time>2025-01-28T09:50:25Z</time>
      </trkpt>
      <trkpt lat="47.6265" lon="-2.77966">
        <ele>3.2</ele>
        <time>2025-01-28T09:50:26Z</time>
      </trkpt>
      <trkpt lat="47.6265" lon="-2.77966">
        <ele>3.2</ele>
        <time>2025-01-28T09:50:27Z</time>
      </trkpt>
      <trkpt lat="47.6265" lon="-2.77967">
        <ele>3.2</ele>
        <time>2025-01-28T09:50:28Z</time>
      </trkpt>
      <trkpt lat="47.62649" lon="-2.77968">
        <ele>3.1</ele>
        <time>2025-01-28T09:50:29Z</time>
      </trkpt>
      <trkpt lat="47.62648" lon="-2.77969">
        <ele>3</ele>
        <time>2025-01-28T09:50:30Z</time>
      </trkpt>
      <trkpt lat="47.62648" lon="-2.77969">
        <ele>2.9</ele>
        <time>2025-01-28T09:50:31Z</time>
      </trkpt>
      <trkpt lat="47.62648" lon="-2.7797">
        <ele>2.9</ele>
        <time>2025-01-28T09:50:32Z</time>
      </trkpt>
      <trkpt lat="47.62648" lon="-2.77971">
        <ele>2.9</ele>
        <time>2025-01-28T09:50:33Z</time>
      </trkpt>
      <trkpt lat="47.62648" lon="-2.77972">
        <ele>2.9</ele>
        <time>2025-01-28T09:50:34Z</time>
      </trkpt>
      <trkpt lat="47.62647" lon="-2.77972">
        <ele>2.8</ele>
        <time>2025-01-28T09:50:35Z</time>
      </trkpt>
      <trkpt lat="47.62647" lon="-2.77973">
        <ele>2.8</ele>
        <time>2025-01-28T09:50:36Z</time>
      </trkpt>
      <trkpt lat="47.62647" lon="-2.77974">
        <ele>2.7</ele>
        <time>2025-01-28T09:50:37Z</time>
      </trkpt>
      <trkpt lat="47.62646" lon="-2.77975">
        <ele>2.5</ele>
        <time>2025-01-28T09:50:38Z</time>
      </trkpt>
      <trkpt lat="47.62645" lon="-2.77976">
        <ele>2.5</ele>
        <time>2025-01-28T09:50:39Z</time>
      </trkpt>
      <trkpt lat="47.62645" lon="-2.77977">
        <ele>2.5</ele>
        <time>2025-01-28T09:50:40Z</time>
      </trkpt>
      <trkpt lat="47.62645" lon="-2.77979">
        <ele>2.6</ele>
        <time>2025-01-28T09:50:41Z</time>
      </trkpt>
      <trkpt lat="47.62645" lon="-2.7798">
        <ele>2.6</ele>
        <time>2025-01-28T09:50:42Z</time>
      </trkpt>
      <trkpt lat="47.62646" lon="-2.77982">
        <ele>2.8</ele>
        <time>2025-01-28T09:50:43Z</time>
      </trkpt>
      <trkpt lat="47.62646" lon="-2.77984">
        <ele>2.8</ele>
        <time>2025-01-28T09:50:44Z</time>
      </trkpt>
      <trkpt lat="47.62645" lon="-2.77986">
        <ele>2.7</ele>
        <time>2025-01-28T09:50:45Z</time>
      </trkpt>
      <trkpt lat="47.62644" lon="-2.77988">
        <ele>2.6</ele>
        <time>2025-01-28T09:50:46Z</time>
      </trkpt>
      <trkpt lat="47.62644" lon="-2.7799">
        <ele>2.5</ele>
        <time>2025-01-28T09:50:47Z</time>
      </trkpt>
      <trkpt lat="47.62643" lon="-2.77992">
        <ele>2.6</ele>
        <time>2025-01-28T09:50:48Z</time>
      </trkpt>
      <trkpt lat="47.62643" lon="-2.77994">
        <ele>2.5</ele>
        <time>2025-01-28T09:50:49Z</time>
      </trkpt>
      <trkpt lat="47.62642" lon="-2.77995">
        <ele>2.5</ele>
        <time>2025-01-28T09:50:50Z</time>
      </trkpt>
      <trkpt lat="47.62642" lon="-2.77996">
        <ele>2.3</ele>
        <time>2025-01-28T09:50:51Z</time>
      </trkpt>
      <trkpt lat="47.62641" lon="-2.77997">
        <ele>2.2</ele>
        <time>2025-01-28T09:50:52Z</time>
      </trkpt>
      <trkpt lat="47.6264" lon="-2.77999">
        <ele>2.2</ele>
        <time>2025-01-28T09:50:53Z</time>
      </trkpt>
      <trkpt lat="47.6264" lon="-2.78">
        <ele>2.2</ele>
        <time>2025-01-28T09:50:54Z</time>
      </trkpt>
      <trkpt lat="47.6264" lon="-2.78003">
        <ele>2.2</ele>
        <time>2025-01-28T09:50:55Z</time>
      </trkpt>
      <trkpt lat="47.6264" lon="-2.78005">
        <ele>2</ele>
        <time>2025-01-28T09:50:56Z</time>
      </trkpt>
      <trkpt lat="47.6264" lon="-2.78007">
        <ele>2</ele>
        <time>2025-01-28T09:50:57Z</time>
      </trkpt>
      <trkpt lat="47.62641" lon="-2.78009">
        <ele>2.1</ele>
        <time>2025-01-28T09:50:58Z</time>
      </trkpt>
      <trkpt lat="47.62641" lon="-2.78011">
        <ele>2.1</ele>
        <time>2025-01-28T09:50:59Z</time>
      </trkpt>
      <trkpt lat="47.62642" lon="-2.78013">
        <ele>2.2</ele>
        <time>2025-01-28T09:51:00Z</time>
      </trkpt>
      <trkpt lat="47.62642" lon="-2.78014">
        <ele>2.3</ele>
        <time>2025-01-28T09:51:01Z</time>
      </trkpt>
      <trkpt lat="47.62643" lon="-2.78015">
        <ele>2.4</ele>
        <time>2025-01-28T09:51:02Z</time>
      </trkpt>
      <trkpt lat="47.62644" lon="-2.78016">
        <ele>2.5</ele>
        <time>2025-01-28T09:51:03Z</time>
      </trkpt>
      <trkpt lat="47.62644" lon="-2.78017">
        <ele>2.5</ele>
        <time>2025-01-28T09:51:04Z</time>
      </trkpt>
      <trkpt lat="47.62645" lon="-2.78019">
        <ele>2.6</ele>
        <time>2025-01-28T09:51:05Z</time>
      </trkpt>
      <trkpt lat="47.62645" lon="-2.7802">
        <ele>2.6</ele>
        <time>2025-01-28T09:51:06Z</time>
      </trkpt>
      <trkpt lat="47.62645" lon="-2.78022">
        <ele>2.6</ele>
        <time>2025-01-28T09:51:07Z</time>
      </trkpt>
      <trkpt lat="47.62645" lon="-2.78024">
        <ele>2.5</ele>
        <time>2025-01-28T09:51:08Z</time>
      </trkpt>
      <trkpt lat="47.62645" lon="-2.78025">
        <ele>2.5</ele>
        <time>2025-01-28T09:51:09Z</time>
      </trkpt>
      <trkpt lat="47.62645" lon="-2.78027">
        <ele>2.5</ele>
        <time>2025-01-28T09:51:10Z</time>
      </trkpt>
      <trkpt lat="47.62645" lon="-2.78029">
        <ele>2.6</ele>
        <time>2025-01-28T09:51:11Z</time>
      </trkpt>
      <trkpt lat="47.62645" lon="-2.7803">
        <ele>2.7</ele>
        <time>2025-01-28T09:51:12Z</time>
      </trkpt>
      <trkpt lat="47.62645" lon="-2.78032">
        <ele>2.7</ele>
        <time>2025-01-28T09:51:13Z</time>
      </trkpt>
      <trkpt lat="47.62645" lon="-2.78033">
        <ele>2.7</ele>
        <time>2025-01-28T09:51:14Z</time>
      </trkpt>
      <trkpt lat="47.62645" lon="-2.78035">
        <ele>2.7</ele>
        <time>2025-01-28T09:51:15Z</time>
      </trkpt>
      <trkpt lat="47.62644" lon="-2.78037">
        <ele>2.7</ele>
        <time>2025-01-28T09:51:16Z</time>
      </trkpt>
      <trkpt lat="47.62644" lon="-2.78039">
        <ele>2.8</ele>
        <time>2025-01-28T09:51:17Z</time>
      </trkpt>
      <trkpt lat="47.62645" lon="-2.78041">
        <ele>2.9</ele>
        <time>2025-01-28T09:51:18Z</time>
      </trkpt>
      <trkpt lat="47.62645" lon="-2.78042">
        <ele>2.9</ele>
        <time>2025-01-28T09:51:19Z</time>
      </trkpt>
      <trkpt lat="47.62644" lon="-2.78044">
        <ele>2.9</ele>
        <time>2025-01-28T09:51:20Z</time>
      </trkpt>
      <trkpt lat="47.62644" lon="-2.78046">
        <ele>2.9</ele>
        <time>2025-01-28T09:51:21Z</time>
      </trkpt>
      <trkpt lat="47.62644" lon="-2.78048">
        <ele>3</ele>
        <time>2025-01-28T09:51:22Z</time>
      </trkpt>
      <trkpt lat="47.62644" lon="-2.7805">
        <ele>3.1</ele>
        <time>2025-01-28T09:51:23Z</time>
      </trkpt>
      <trkpt lat="47.62644" lon="-2.78052">
        <ele>3.1</ele>
        <time>2025-01-28T09:51:24Z</time>
      </trkpt>
      <trkpt lat="47.62643" lon="-2.78053">
        <ele>3.1</ele>
        <time>2025-01-28T09:51:25Z</time>
      </trkpt>
      <trkpt lat="47.62643" lon="-2.78055">
        <ele>3</ele>
        <time>2025-01-28T09:51:26Z</time>
      </trkpt>
      <trkpt lat="47.62643" lon="-2.78057">
        <ele>3.1</ele>
        <time>2025-01-28T09:51:27Z</time>
      </trkpt>
      <trkpt lat="47.62642" lon="-2.78059">
        <ele>3.4</ele>
        <time>2025-01-28T09:51:28Z</time>
      </trkpt>
      <trkpt lat="47.62642" lon="-2.78061">
        <ele>3.6</ele>
        <time>2025-01-28T09:51:29Z</time>
      </trkpt>
      <trkpt lat="47.62641" lon="-2.78062">
        <ele>3.7</ele>
        <time>2025-01-28T09:51:30Z</time>
      </trkpt>
      <trkpt lat="47.6264" lon="-2.78063">
        <ele>3.7</ele>
        <time>2025-01-28T09:51:31Z</time>
      </trkpt>
      <trkpt lat="47.6264" lon="-2.78065">
        <ele>3.9</ele>
        <time>2025-01-28T09:51:32Z</time>
      </trkpt>
      <trkpt lat="47.62639" lon="-2.78067">
        <ele>4</ele>
        <time>2025-01-28T09:51:33Z</time>
      </trkpt>
      <trkpt lat="47.62639" lon="-2.78067">
        <ele>4.1</ele>
        <time>2025-01-28T09:51:34Z</time>
      </trkpt>
      <trkpt lat="47.62638" lon="-2.78068">
        <ele>4.3</ele>
        <time>2025-01-28T09:51:35Z</time>
      </trkpt>
      <trkpt lat="47.62637" lon="-2.78069">
        <ele>4.5</ele>
        <time>2025-01-28T09:51:36Z</time>
      </trkpt>
      <trkpt lat="47.62637" lon="-2.7807">
        <ele>4.6</ele>
        <time>2025-01-28T09:51:37Z</time>
      </trkpt>
      <trkpt lat="47.62637" lon="-2.78071">
        <ele>4.7</ele>
        <time>2025-01-28T09:51:38Z</time>
      </trkpt>
      <trkpt lat="47.62637" lon="-2.78072">
        <ele>4.9</ele>
        <time>2025-01-28T09:51:39Z</time>
      </trkpt>
      <trkpt lat="47.62636" lon="-2.78073">
        <ele>5.2</ele>
        <time>2025-01-28T09:51:40Z</time>
      </trkpt>
      <trkpt lat="47.62636" lon="-2.78075">
        <ele>5.5</ele>
        <time>2025-01-28T09:51:41Z</time>
      </trkpt>
      <trkpt lat="47.62635" lon="-2.78076">
        <ele>5.7</ele>
        <time>2025-01-28T09:51:42Z</time>
      </trkpt>
      <trkpt lat="47.62634" lon="-2.78077">
        <ele>5.9</ele>
        <time>2025-01-28T09:51:43Z</time>
      </trkpt>
      <trkpt lat="47.62633" lon="-2.78078">
        <ele>6.1</ele>
        <time>2025-01-28T09:51:44Z</time>
      </trkpt>
      <trkpt lat="47.62633" lon="-2.7808">
        <ele>6.3</ele>
        <time>2025-01-28T09:51:45Z</time>
      </trkpt>
      <trkpt lat="47.62632" lon="-2.78081">
        <ele>6.5</ele>
        <time>2025-01-28T09:51:46Z</time>
      </trkpt>
      <trkpt lat="47.62632" lon="-2.78081">
        <ele>6.6</ele>
        <time>2025-01-28T09:51:47Z</time>
      </trkpt>
      <trkpt lat="47.62632" lon="-2.7808">
        <ele>6.4</ele>
        <time>2025-01-28T09:51:48Z</time>
      </trkpt>
      <trkpt lat="47.62632" lon="-2.7808">
        <ele>6.4</ele>
        <time>2025-01-28T09:51:49Z</time>
      </trkpt>
      <trkpt lat="47.62632" lon="-2.7808">
        <ele>6.4</ele>
        <time>2025-01-28T09:51:50Z</time>
      </trkpt>
      <trkpt lat="47.62632" lon="-2.7808">
        <ele>6.4</ele>
        <time>2025-01-28T09:51:51Z</time>
      </trkpt>
      <trkpt lat="47.62632" lon="-2.7808">
        <ele>6.4</ele>
        <time>2025-01-28T09:51:52Z</time>
      </trkpt>
      <trkpt lat="47.62632" lon="-2.7808">
        <ele>6.4</ele>
        <time>2025-01-28T09:51:53Z</time>
      </trkpt>
      <trkpt lat="47.62633" lon="-2.7808">
        <ele>6.3</ele>
        <time>2025-01-28T09:51:54Z</time>
      </trkpt>
      <trkpt lat="47.62633" lon="-2.7808">
        <ele>6.4</ele>
        <time>2025-01-28T09:51:55Z</time>
      </trkpt>
      <trkpt lat="47.62633" lon="-2.7808">
        <ele>6.4</ele>
        <time>2025-01-28T09:51:56Z</time>
      </trkpt>
      <trkpt lat="47.62633" lon="-2.7808">
        <ele>6.4</ele>
        <time>2025-01-28T09:51:57Z</time>
      </trkpt>
      <trkpt lat="47.62633" lon="-2.7808">
        <ele>6.4</ele>
        <time>2025-01-28T09:51:58Z</time>
      </trkpt>
      <trkpt lat="47.62633" lon="-2.7808">
        <ele>6.4</ele>
        <time>2025-01-28T09:51:59Z</time>
      </trkpt>
      <trkpt lat="47.62633" lon="-2.7808">
        <ele>6.4</ele>
        <time>2025-01-28T09:52:00Z</time>
      </trkpt>
      <trkpt lat="47.62633" lon="-2.7808">
        <ele>6.4</ele>
        <time>2025-01-28T09:52:01Z</time>
      </trkpt>
      <trkpt lat="47.62633" lon="-2.7808">
        <ele>6.4</ele>
        <time>2025-01-28T09:52:02Z</time>
      </trkpt>
      <trkpt lat="47.62633" lon="-2.78081">
        <ele>6.5</ele>
        <time>2025-01-28T09:52:03Z</time>
      </trkpt>
      <trkpt lat="47.62632" lon="-2.78082">
        <ele>6.8</ele>
        <time>2025-01-28T09:52:04Z</time>
      </trkpt>
      <trkpt lat="47.62631" lon="-2.78083">
        <ele>6.9</ele>
        <time>2025-01-28T09:52:05Z</time>
      </trkpt>
      <trkpt lat="47.6263" lon="-2.78084">
        <ele>7</ele>
        <time>2025-01-28T09:52:06Z</time>
      </trkpt>
      <trkpt lat="47.6263" lon="-2.78085">
        <ele>6.9</ele>
        <time>2025-01-28T09:52:07Z</time>
      </trkpt>
      <trkpt lat="47.62629" lon="-2.78087">
        <ele>6.8</ele>
        <time>2025-01-28T09:52:08Z</time>
      </trkpt>
      <trkpt lat="47.62628" lon="-2.78088">
        <ele>6.7</ele>
        <time>2025-01-28T09:52:09Z</time>
      </trkpt>
      <trkpt lat="47.62628" lon="-2.78089">
        <ele>6.6</ele>
        <time>2025-01-28T09:52:10Z</time>
      </trkpt>
      <trkpt lat="47.62629" lon="-2.78091">
        <ele>6.6</ele>
        <time>2025-01-28T09:52:11Z</time>
      </trkpt>
      <trkpt lat="47.62629" lon="-2.78092">
        <ele>6.5</ele>
        <time>2025-01-28T09:52:12Z</time>
      </trkpt>
      <trkpt lat="47.6263" lon="-2.78094">
        <ele>6.5</ele>
        <time>2025-01-28T09:52:13Z</time>
      </trkpt>
      <trkpt lat="47.6263" lon="-2.78095">
        <ele>6.4</ele>
        <time>2025-01-28T09:52:14Z</time>
      </trkpt>
      <trkpt lat="47.62629" lon="-2.78097">
        <ele>6.3</ele>
        <time>2025-01-28T09:52:15Z</time>
      </trkpt>
      <trkpt lat="47.6263" lon="-2.78099">
        <ele>6.3</ele>
        <time>2025-01-28T09:52:16Z</time>
      </trkpt>
      <trkpt lat="47.6263" lon="-2.781">
        <ele>6.3</ele>
        <time>2025-01-28T09:52:17Z</time>
      </trkpt>
      <trkpt lat="47.6263" lon="-2.78102">
        <ele>6.2</ele>
        <time>2025-01-28T09:52:18Z</time>
      </trkpt>
      <trkpt lat="47.6263" lon="-2.78103">
        <ele>6.2</ele>
        <time>2025-01-28T09:52:19Z</time>
      </trkpt>
      <trkpt lat="47.62631" lon="-2.78105">
        <ele>6.2</ele>
        <time>2025-01-28T09:52:20Z</time>
      </trkpt>
      <trkpt lat="47.62631" lon="-2.78107">
        <ele>6.2</ele>
        <time>2025-01-28T09:52:21Z</time>
      </trkpt>
      <trkpt lat="47.62631" lon="-2.78108">
        <ele>6.2</ele>
        <time>2025-01-28T09:52:22Z</time>
      </trkpt>
      <trkpt lat="47.62632" lon="-2.7811">
        <ele>6.2</ele>
        <time>2025-01-28T09:52:23Z</time>
      </trkpt>
      <trkpt lat="47.62631" lon="-2.78111">
        <ele>6.1</ele>
        <time>2025-01-28T09:52:24Z</time>
      </trkpt>
      <trkpt lat="47.62631" lon="-2.78113">
        <ele>6.2</ele>
        <time>2025-01-28T09:52:25Z</time>
      </trkpt>
      <trkpt lat="47.62632" lon="-2.78115">
        <ele>6.3</ele>
        <time>2025-01-28T09:52:26Z</time>
      </trkpt>
      <trkpt lat="47.62632" lon="-2.78117">
        <ele>6.3</ele>
        <time>2025-01-28T09:52:27Z</time>
      </trkpt>
      <trkpt lat="47.62631" lon="-2.78119">
        <ele>6.3</ele>
        <time>2025-01-28T09:52:28Z</time>
      </trkpt>
      <trkpt lat="47.62631" lon="-2.78121">
        <ele>6.2</ele>
        <time>2025-01-28T09:52:29Z</time>
      </trkpt>
      <trkpt lat="47.6263" lon="-2.78123">
        <ele>6.1</ele>
        <time>2025-01-28T09:52:30Z</time>
      </trkpt>
      <trkpt lat="47.6263" lon="-2.78125">
        <ele>6.1</ele>
        <time>2025-01-28T09:52:31Z</time>
      </trkpt>
      <trkpt lat="47.62629" lon="-2.78127">
        <ele>6</ele>
        <time>2025-01-28T09:52:32Z</time>
      </trkpt>
      <trkpt lat="47.62629" lon="-2.78129">
        <ele>5.9</ele>
        <time>2025-01-28T09:52:33Z</time>
      </trkpt>
      <trkpt lat="47.62629" lon="-2.78131">
        <ele>5.9</ele>
        <time>2025-01-28T09:52:34Z</time>
      </trkpt>
      <trkpt lat="47.62629" lon="-2.78133">
        <ele>5.9</ele>
        <time>2025-01-28T09:52:35Z</time>
      </trkpt>
      <trkpt lat="47.62628" lon="-2.78135">
        <ele>5.8</ele>
        <time>2025-01-28T09:52:36Z</time>
      </trkpt>
      <trkpt lat="47.62628" lon="-2.78137">
        <ele>5.8</ele>
        <time>2025-01-28T09:52:37Z</time>
      </trkpt>
      <trkpt lat="47.62628" lon="-2.78139">
        <ele>5.8</ele>
        <time>2025-01-28T09:52:38Z</time>
      </trkpt>
      <trkpt lat="47.62627" lon="-2.78141">
        <ele>5.7</ele>
        <time>2025-01-28T09:52:39Z</time>
      </trkpt>
      <trkpt lat="47.62627" lon="-2.78143">
        <ele>5.6</ele>
        <time>2025-01-28T09:52:40Z</time>
      </trkpt>
      <trkpt lat="47.62627" lon="-2.78145">
        <ele>5.5</ele>
        <time>2025-01-28T09:52:41Z</time>
      </trkpt>
      <trkpt lat="47.62626" lon="-2.78146">
        <ele>5.5</ele>
        <time>2025-01-28T09:52:42Z</time>
      </trkpt>
      <trkpt lat="47.62626" lon="-2.78148">
        <ele>5.5</ele>
        <time>2025-01-28T09:52:43Z</time>
      </trkpt>
      <trkpt lat="47.62626" lon="-2.7815">
        <ele>5.5</ele>
        <time>2025-01-28T09:52:44Z</time>
      </trkpt>
      <trkpt lat="47.62626" lon="-2.78152">
        <ele>5.5</ele>
        <time>2025-01-28T09:52:45Z</time>
      </trkpt>
      <trkpt lat="47.62625" lon="-2.78154">
        <ele>5.3</ele>
        <time>2025-01-28T09:52:46Z</time>
      </trkpt>
      <trkpt lat="47.62624" lon="-2.78156">
        <ele>5</ele>
        <time>2025-01-28T09:52:47Z</time>
      </trkpt>
      <trkpt lat="47.62624" lon="-2.78158">
        <ele>4.9</ele>
        <time>2025-01-28T09:52:48Z</time>
      </trkpt>
      <trkpt lat="47.62623" lon="-2.7816">
        <ele>4.8</ele>
        <time>2025-01-28T09:52:49Z</time>
      </trkpt>
      <trkpt lat="47.62623" lon="-2.78161">
        <ele>4.8</ele>
        <time>2025-01-28T09:52:50Z</time>
      </trkpt>
      <trkpt lat="47.62623" lon="-2.78163">
        <ele>4.8</ele>
        <time>2025-01-28T09:52:51Z</time>
      </trkpt>
      <trkpt lat="47.62622" lon="-2.78165">
        <ele>4.5</ele>
        <time>2025-01-28T09:52:52Z</time>
      </trkpt>
      <trkpt lat="47.62621" lon="-2.78166">
        <ele>4.3</ele>
        <time>2025-01-28T09:52:53Z</time>
      </trkpt>
      <trkpt lat="47.6262" lon="-2.78167">
        <ele>4</ele>
        <time>2025-01-28T09:52:54Z</time>
      </trkpt>
      <trkpt lat="47.62619" lon="-2.78168">
        <ele>3.7</ele>
        <time>2025-01-28T09:52:55Z</time>
      </trkpt>
      <trkpt lat="47.62618" lon="-2.7817">
        <ele>3.5</ele>
        <time>2025-01-28T09:52:56Z</time>
      </trkpt>
      <trkpt lat="47.62618" lon="-2.78172">
        <ele>3.4</ele>
        <time>2025-01-28T09:52:57Z</time>
      </trkpt>
      <trkpt lat="47.62617" lon="-2.78174">
        <ele>3.4</ele>
        <time>2025-01-28T09:52:58Z</time>
      </trkpt>
      <trkpt lat="47.62617" lon="-2.78176">
        <ele>3.5</ele>
        <time>2025-01-28T09:52:59Z</time>
      </trkpt>
      <trkpt lat="47.62617" lon="-2.78178">
        <ele>3.6</ele>
        <time>2025-01-28T09:53:00Z</time>
      </trkpt>
      <trkpt lat="47.62617" lon="-2.7818">
        <ele>3.5</ele>
        <time>2025-01-28T09:53:01Z</time>
      </trkpt>
      <trkpt lat="47.62616" lon="-2.78181">
        <ele>3.4</ele>
        <time>2025-01-28T09:53:02Z</time>
      </trkpt>
      <trkpt lat="47.62615" lon="-2.78183">
        <ele>3.3</ele>
        <time>2025-01-28T09:53:03Z</time>
      </trkpt>
      <trkpt lat="47.62615" lon="-2.78185">
        <ele>3.3</ele>
        <time>2025-01-28T09:53:04Z</time>
      </trkpt>
      <trkpt lat="47.62614" lon="-2.78186">
        <ele>3.1</ele>
        <time>2025-01-28T09:53:05Z</time>
      </trkpt>
      <trkpt lat="47.62613" lon="-2.78188">
        <ele>3</ele>
        <time>2025-01-28T09:53:06Z</time>
      </trkpt>
      <trkpt lat="47.62612" lon="-2.7819">
        <ele>2.9</ele>
        <time>2025-01-28T09:53:07Z</time>
      </trkpt>
      <trkpt lat="47.62612" lon="-2.78192">
        <ele>2.9</ele>
        <time>2025-01-28T09:53:08Z</time>
      </trkpt>
      <trkpt lat="47.62611" lon="-2.78194">
        <ele>2.9</ele>
        <time>2025-01-28T09:53:09Z</time>
      </trkpt>
      <trkpt lat="47.6261" lon="-2.78195">
        <ele>2.9</ele>
        <time>2025-01-28T09:53:10Z</time>
      </trkpt>
      <trkpt lat="47.6261" lon="-2.78197">
        <ele>3</ele>
        <time>2025-01-28T09:53:11Z</time>
      </trkpt>
      <trkpt lat="47.6261" lon="-2.78198">
        <ele>3</ele>
        <time>2025-01-28T09:53:12Z</time>
      </trkpt>
      <trkpt lat="47.6261" lon="-2.782">
        <ele>3.1</ele>
        <time>2025-01-28T09:53:13Z</time>
      </trkpt>
      <trkpt lat="47.6261" lon="-2.78201">
        <ele>3.1</ele>
        <time>2025-01-28T09:53:14Z</time>
      </trkpt>
      <trkpt lat="47.6261" lon="-2.78203">
        <ele>3.2</ele>
        <time>2025-01-28T09:53:15Z</time>
      </trkpt>
      <trkpt lat="47.6261" lon="-2.78205">
        <ele>3.3</ele>
        <time>2025-01-28T09:53:16Z</time>
      </trkpt>
      <trkpt lat="47.62611" lon="-2.78206">
        <ele>3.4</ele>
        <time>2025-01-28T09:53:17Z</time>
      </trkpt>
      <trkpt lat="47.62611" lon="-2.78208">
        <ele>3.5</ele>
        <time>2025-01-28T09:53:18Z</time>
      </trkpt>
      <trkpt lat="47.62612" lon="-2.78209">
        <ele>3.7</ele>
        <time>2025-01-28T09:53:19Z</time>
      </trkpt>
      <trkpt lat="47.62612" lon="-2.7821">
        <ele>3.8</ele>
        <time>2025-01-28T09:53:20Z</time>
      </trkpt>
      <trkpt lat="47.62612" lon="-2.78212">
        <ele>3.9</ele>
        <time>2025-01-28T09:53:21Z</time>
      </trkpt>
      <trkpt lat="47.62612" lon="-2.78214">
        <ele>4</ele>
        <time>2025-01-28T09:53:22Z</time>
      </trkpt>
      <trkpt lat="47.62613" lon="-2.78216">
        <ele>4.1</ele>
        <time>2025-01-28T09:53:23Z</time>
      </trkpt>
      <trkpt lat="47.62613" lon="-2.78217">
        <ele>4.2</ele>
        <time>2025-01-28T09:53:24Z</time>
      </trkpt>
      <trkpt lat="47.62613" lon="-2.78219">
        <ele>4.3</ele>
        <time>2025-01-28T09:53:25Z</time>
      </trkpt>
      <trkpt lat="47.62612" lon="-2.78221">
        <ele>4.2</ele>
        <time>2025-01-28T09:53:26Z</time>
      </trkpt>
      <trkpt lat="47.62612" lon="-2.78222">
        <ele>4.2</ele>
        <time>2025-01-28T09:53:27Z</time>
      </trkpt>
      <trkpt lat="47.62611" lon="-2.78223">
        <ele>4.1</ele>
        <time>2025-01-28T09:53:28Z</time>
      </trkpt>
      <trkpt lat="47.6261" lon="-2.78224">
        <ele>4.1</ele>
        <time>2025-01-28T09:53:29Z</time>
      </trkpt>
      <trkpt lat="47.62609" lon="-2.78224">
        <ele>4.1</ele>
        <time>2025-01-28T09:53:30Z</time>
      </trkpt>
      <trkpt lat="47.62609" lon="-2.78225">
        <ele>4.1</ele>
        <time>2025-01-28T09:53:31Z</time>
      </trkpt>
      <trkpt lat="47.62608" lon="-2.78227">
        <ele>4.2</ele>
        <time>2025-01-28T09:53:32Z</time>
      </trkpt>
      <trkpt lat="47.62607" lon="-2.78228">
        <ele>4.2</ele>
        <time>2025-01-28T09:53:33Z</time>
      </trkpt>
      <trkpt lat="47.62607" lon="-2.7823">
        <ele>4.3</ele>
        <time>2025-01-28T09:53:34Z</time>
      </trkpt>
      <trkpt lat="47.62606" lon="-2.78231">
        <ele>4.4</ele>
        <time>2025-01-28T09:53:35Z</time>
      </trkpt>
      <trkpt lat="47.62606" lon="-2.78233">
        <ele>4.5</ele>
        <time>2025-01-28T09:53:36Z</time>
      </trkpt>
      <trkpt lat="47.62605" lon="-2.78234">
        <ele>4.5</ele>
        <time>2025-01-28T09:53:37Z</time>
      </trkpt>
      <trkpt lat="47.62604" lon="-2.78235">
        <ele>4.6</ele>
        <time>2025-01-28T09:53:38Z</time>
      </trkpt>
      <trkpt lat="47.62603" lon="-2.78236">
        <ele>4.6</ele>
        <time>2025-01-28T09:53:39Z</time>
      </trkpt>
      <trkpt lat="47.62602" lon="-2.78236">
        <ele>4.5</ele>
        <time>2025-01-28T09:53:40Z</time>
      </trkpt>
      <trkpt lat="47.62601" lon="-2.78237">
        <ele>4.5</ele>
        <time>2025-01-28T09:53:41Z</time>
      </trkpt>
      <trkpt lat="47.62599" lon="-2.78237">
        <ele>4.4</ele>
        <time>2025-01-28T09:53:42Z</time>
      </trkpt>
      <trkpt lat="47.62598" lon="-2.78237">
        <ele>4.3</ele>
        <time>2025-01-28T09:53:43Z</time>
      </trkpt>
      <trkpt lat="47.62596" lon="-2.78237">
        <ele>4.2</ele>
        <time>2025-01-28T09:53:44Z</time>
      </trkpt>
      <trkpt lat="47.62595" lon="-2.78237">
        <ele>4.2</ele>
        <time>2025-01-28T09:53:45Z</time>
      </trkpt>
      <trkpt lat="47.62594" lon="-2.78237">
        <ele>4.1</ele>
        <time>2025-01-28T09:53:46Z</time>
      </trkpt>
      <trkpt lat="47.62592" lon="-2.78237">
        <ele>4</ele>
        <time>2025-01-28T09:53:47Z</time>
      </trkpt>
      <trkpt lat="47.62591" lon="-2.78238">
        <ele>4</ele>
        <time>2025-01-28T09:53:48Z</time>
      </trkpt>
      <trkpt lat="47.62589" lon="-2.78238">
        <ele>3.9</ele>
        <time>2025-01-28T09:53:49Z</time>
      </trkpt>
      <trkpt lat="47.62588" lon="-2.78237">
        <ele>3.8</ele>
        <time>2025-01-28T09:53:50Z</time>
      </trkpt>
      <trkpt lat="47.62588" lon="-2.78235">
        <ele>3.7</ele>
        <time>2025-01-28T09:53:51Z</time>
      </trkpt>
      <trkpt lat="47.62588" lon="-2.78233">
        <ele>3.6</ele>
        <time>2025-01-28T09:53:52Z</time>
      </trkpt>
      <trkpt lat="47.62588" lon="-2.78231">
        <ele>3.5</ele>
        <time>2025-01-28T09:53:53Z</time>
      </trkpt>
      <trkpt lat="47.62588" lon="-2.78229">
        <ele>3.4</ele>
        <time>2025-01-28T09:53:54Z</time>
      </trkpt>
      <trkpt lat="47.62587" lon="-2.78227">
        <ele>3.3</ele>
        <time>2025-01-28T09:53:55Z</time>
      </trkpt>
      <trkpt lat="47.62587" lon="-2.78225">
        <ele>3.2</ele>
        <time>2025-01-28T09:53:56Z</time>
      </trkpt>
      <trkpt lat="47.62586" lon="-2.78223">
        <ele>3.1</ele>
        <time>2025-01-28T09:53:57Z</time>
      </trkpt>
      <trkpt lat="47.62585" lon="-2.78222">
        <ele>3</ele>
        <time>2025-01-28T09:53:58Z</time>
      </trkpt>
      <trkpt lat="47.62584" lon="-2.7822">
        <ele>2.9</ele>
        <time>2025-01-28T09:53:59Z</time>
      </trkpt>
      <trkpt lat="47.62583" lon="-2.78219">
        <ele>2.8</ele>
        <time>2025-01-28T09:54:00Z</time>
      </trkpt>
      <trkpt lat="47.62582" lon="-2.78218">
        <ele>2.9</ele>
        <time>2025-01-28T09:54:01Z</time>
      </trkpt>
      <trkpt lat="47.62581" lon="-2.78217">
        <ele>2.9</ele>
        <time>2025-01-28T09:54:02Z</time>
      </trkpt>
      <trkpt lat="47.62581" lon="-2.78215">
        <ele>2.8</ele>
        <time>2025-01-28T09:54:03Z</time>
      </trkpt>
      <trkpt lat="47.62581" lon="-2.78213">
        <ele>2.6</ele>
        <time>2025-01-28T09:54:04Z</time>
      </trkpt>
      <trkpt lat="47.62581" lon="-2.78211">
        <ele>2.5</ele>
        <time>2025-01-28T09:54:05Z</time>
      </trkpt>
      <trkpt lat="47.6258" lon="-2.7821">
        <ele>2.5</ele>
        <time>2025-01-28T09:54:06Z</time>
      </trkpt>
      <trkpt lat="47.62578" lon="-2.78211">
        <ele>2.8</ele>
        <time>2025-01-28T09:54:07Z</time>
      </trkpt>
      <trkpt lat="47.62577" lon="-2.78213">
        <ele>3.1</ele>
        <time>2025-01-28T09:54:08Z</time>
      </trkpt>
      <trkpt lat="47.62576" lon="-2.78213">
        <ele>3.3</ele>
        <time>2025-01-28T09:54:09Z</time>
      </trkpt>
      <trkpt lat="47.62575" lon="-2.78213">
        <ele>3.4</ele>
        <time>2025-01-28T09:54:10Z</time>
      </trkpt>
      <trkpt lat="47.62574" lon="-2.78212">
        <ele>3.4</ele>
        <time>2025-01-28T09:54:11Z</time>
      </trkpt>
      <trkpt lat="47.62572" lon="-2.78212">
        <ele>3.5</ele>
        <time>2025-01-28T09:54:12Z</time>
      </trkpt>
      <trkpt lat="47.62572" lon="-2.78211">
        <ele>3.5</ele>
        <time>2025-01-28T09:54:13Z</time>
      </trkpt>
      <trkpt lat="47.62571" lon="-2.7821">
        <ele>3.5</ele>
        <time>2025-01-28T09:54:14Z</time>
      </trkpt>
      <trkpt lat="47.6257" lon="-2.78209">
        <ele>3.5</ele>
        <time>2025-01-28T09:54:15Z</time>
      </trkpt>
      <trkpt lat="47.62569" lon="-2.78208">
        <ele>3.5</ele>
        <time>2025-01-28T09:54:16Z</time>
      </trkpt>
      <trkpt lat="47.62569" lon="-2.78207">
        <ele>3.4</ele>
        <time>2025-01-28T09:54:17Z</time>
      </trkpt>
      <trkpt lat="47.62568" lon="-2.78206">
        <ele>3.3</ele>
        <time>2025-01-28T09:54:18Z</time>
      </trkpt>
      <trkpt lat="47.62567" lon="-2.78204">
        <ele>3.3</ele>
        <time>2025-01-28T09:54:19Z</time>
      </trkpt>
      <trkpt lat="47.62567" lon="-2.78203">
        <ele>3.2</ele>
        <time>2025-01-28T09:54:20Z</time>
      </trkpt>
      <trkpt lat="47.62566" lon="-2.78202">
        <ele>3.1</ele>
        <time>2025-01-28T09:54:21Z</time>
      </trkpt>
      <trkpt lat="47.62566" lon="-2.782">
        <ele>2.9</ele>
        <time>2025-01-28T09:54:22Z</time>
      </trkpt>
      <trkpt lat="47.62567" lon="-2.782">
        <ele>2.9</ele>
        <time>2025-01-28T09:54:23Z</time>
      </trkpt>
      <trkpt lat="47.62567" lon="-2.782">
        <ele>2.9</ele>
        <time>2025-01-28T09:54:24Z</time>
      </trkpt>
      <trkpt lat="47.62567" lon="-2.782">
        <ele>2.9</ele>
        <time>2025-01-28T09:54:25Z</time>
      </trkpt>
      <trkpt lat="47.62567" lon="-2.782">
        <ele>2.9</ele>
        <time>2025-01-28T09:54:26Z</time>
      </trkpt>
      <trkpt lat="47.62567" lon="-2.782">
        <ele>2.9</ele>
        <time>2025-01-28T09:54:27Z</time>
      </trkpt>
      <trkpt lat="47.62567" lon="-2.782">
        <ele>2.9</ele>
        <time>2025-01-28T09:54:28Z</time>
      </trkpt>
      <trkpt lat="47.62567" lon="-2.782">
        <ele>2.9</ele>
        <time>2025-01-28T09:54:29Z</time>
      </trkpt>
      <trkpt lat="47.62567" lon="-2.782">
        <ele>2.9</ele>
        <time>2025-01-28T09:54:30Z</time>
      </trkpt>
      <trkpt lat="47.62566" lon="-2.782">
        <ele>2.9</ele>
        <time>2025-01-28T09:54:31Z</time>
      </trkpt>
      <trkpt lat="47.62566" lon="-2.78201">
        <ele>3</ele>
        <time>2025-01-28T09:54:32Z</time>
      </trkpt>
      <trkpt lat="47.62566" lon="-2.78203">
        <ele>3.3</ele>
        <time>2025-01-28T09:54:33Z</time>
      </trkpt>
      <trkpt lat="47.62564" lon="-2.78204">
        <ele>3.6</ele>
        <time>2025-01-28T09:54:34Z</time>
      </trkpt>
      <trkpt lat="47.62562" lon="-2.78203">
        <ele>3.7</ele>
        <time>2025-01-28T09:54:35Z</time>
      </trkpt>
      <trkpt lat="47.62561" lon="-2.78202">
        <ele>3.6</ele>
        <time>2025-01-28T09:54:36Z</time>
      </trkpt>
      <trkpt lat="47.62561" lon="-2.78201">
        <ele>3.5</ele>
        <time>2025-01-28T09:54:37Z</time>
      </trkpt>
      <trkpt lat="47.6256" lon="-2.782">
        <ele>3.3</ele>
        <time>2025-01-28T09:54:38Z</time>
      </trkpt>
      <trkpt lat="47.62559" lon="-2.78199">
        <ele>3.4</ele>
        <time>2025-01-28T09:54:39Z</time>
      </trkpt>
      <trkpt lat="47.62558" lon="-2.78198">
        <ele>3.4</ele>
        <time>2025-01-28T09:54:40Z</time>
      </trkpt>
      <trkpt lat="47.62557" lon="-2.78197">
        <ele>3.3</ele>
        <time>2025-01-28T09:54:41Z</time>
      </trkpt>
      <trkpt lat="47.62556" lon="-2.78196">
        <ele>3.2</ele>
        <time>2025-01-28T09:54:42Z</time>
      </trkpt>
      <trkpt lat="47.62555" lon="-2.78196">
        <ele>3.5</ele>
        <time>2025-01-28T09:54:43Z</time>
      </trkpt>
      <trkpt lat="47.62554" lon="-2.78196">
        <ele>3.7</ele>
        <time>2025-01-28T09:54:44Z</time>
      </trkpt>
      <trkpt lat="47.62553" lon="-2.78196">
        <ele>4</ele>
        <time>2025-01-28T09:54:45Z</time>
      </trkpt>
      <trkpt lat="47.62552" lon="-2.78196">
        <ele>4.2</ele>
        <time>2025-01-28T09:54:46Z</time>
      </trkpt>
      <trkpt lat="47.62551" lon="-2.78196">
        <ele>4.4</ele>
        <time>2025-01-28T09:54:47Z</time>
      </trkpt>
      <trkpt lat="47.6255" lon="-2.78196">
        <ele>4.8</ele>
        <time>2025-01-28T09:54:48Z</time>
      </trkpt>
      <trkpt lat="47.6255" lon="-2.78197">
        <ele>5</ele>
        <time>2025-01-28T09:54:49Z</time>
      </trkpt>
      <trkpt lat="47.62549" lon="-2.78197">
        <ele>5.2</ele>
        <time>2025-01-28T09:54:50Z</time>
      </trkpt>
      <trkpt lat="47.62548" lon="-2.78197">
        <ele>5.6</ele>
        <time>2025-01-28T09:54:51Z</time>
      </trkpt>
      <trkpt lat="47.62547" lon="-2.78196">
        <ele>5.7</ele>
        <time>2025-01-28T09:54:52Z</time>
      </trkpt>
      <trkpt lat="47.62547" lon="-2.78196">
        <ele>5.9</ele>
        <time>2025-01-28T09:54:53Z</time>
      </trkpt>
      <trkpt lat="47.62546" lon="-2.78195">
        <ele>5.9</ele>
        <time>2025-01-28T09:54:54Z</time>
      </trkpt>
      <trkpt lat="47.62545" lon="-2.78195">
        <ele>6.1</ele>
        <time>2025-01-28T09:54:55Z</time>
      </trkpt>
      <trkpt lat="47.62544" lon="-2.78195">
        <ele>6.2</ele>
        <time>2025-01-28T09:54:56Z</time>
      </trkpt>
      <trkpt lat="47.62544" lon="-2.78193">
        <ele>6.2</ele>
        <time>2025-01-28T09:54:57Z</time>
      </trkpt>
      <trkpt lat="47.62543" lon="-2.78192">
        <ele>6.3</ele>
        <time>2025-01-28T09:54:58Z</time>
      </trkpt>
      <trkpt lat="47.62542" lon="-2.78191">
        <ele>6.3</ele>
        <time>2025-01-28T09:54:59Z</time>
      </trkpt>
      <trkpt lat="47.62542" lon="-2.78191">
        <ele>6.4</ele>
        <time>2025-01-28T09:55:00Z</time>
      </trkpt>
      <trkpt lat="47.62541" lon="-2.78191">
        <ele>6.5</ele>
        <time>2025-01-28T09:55:01Z</time>
      </trkpt>
      <trkpt lat="47.6254" lon="-2.7819">
        <ele>6.7</ele>
        <time>2025-01-28T09:55:02Z</time>
      </trkpt>
      <trkpt lat="47.62539" lon="-2.7819">
        <ele>6.8</ele>
        <time>2025-01-28T09:55:03Z</time>
      </trkpt>
      <trkpt lat="47.62538" lon="-2.78189">
        <ele>6.9</ele>
        <time>2025-01-28T09:55:04Z</time>
      </trkpt>
      <trkpt lat="47.62537" lon="-2.78188">
        <ele>6.9</ele>
        <time>2025-01-28T09:55:05Z</time>
      </trkpt>
      <trkpt lat="47.62537" lon="-2.78187">
        <ele>6.8</ele>
        <time>2025-01-28T09:55:06Z</time>
      </trkpt>
      <trkpt lat="47.62536" lon="-2.78186">
        <ele>6.8</ele>
        <time>2025-01-28T09:55:07Z</time>
      </trkpt>
      <trkpt lat="47.62535" lon="-2.78186">
        <ele>6.9</ele>
        <time>2025-01-28T09:55:08Z</time>
      </trkpt>
      <trkpt lat="47.62534" lon="-2.78186">
        <ele>7.1</ele>
        <time>2025-01-28T09:55:09Z</time>
      </trkpt>
      <trkpt lat="47.62533" lon="-2.78185">
        <ele>7.2</ele>
        <time>2025-01-28T09:55:10Z</time>
      </trkpt>
      <trkpt lat="47.62532" lon="-2.78185">
        <ele>7.3</ele>
        <time>2025-01-28T09:55:11Z</time>
      </trkpt>
      <trkpt lat="47.62531" lon="-2.78184">
        <ele>7.5</ele>
        <time>2025-01-28T09:55:12Z</time>
      </trkpt>
      <trkpt lat="47.62529" lon="-2.78185">
        <ele>7.8</ele>
        <time>2025-01-28T09:55:13Z</time>
      </trkpt>
      <trkpt lat="47.62529" lon="-2.78184">
        <ele>7.8</ele>
        <time>2025-01-28T09:55:14Z</time>
      </trkpt>
      <trkpt lat="47.62528" lon="-2.78183">
        <ele>7.8</ele>
        <time>2025-01-28T09:55:15Z</time>
      </trkpt>
      <trkpt lat="47.62527" lon="-2.78184">
        <ele>8</ele>
        <time>2025-01-28T09:55:16Z</time>
      </trkpt>
      <trkpt lat="47.62526" lon="-2.78183">
        <ele>8.1</ele>
        <time>2025-01-28T09:55:17Z</time>
      </trkpt>
      <trkpt lat="47.62524" lon="-2.78183">
        <ele>8.3</ele>
        <time>2025-01-28T09:55:18Z</time>
      </trkpt>
      <trkpt lat="47.62523" lon="-2.78183">
        <ele>8.4</ele>
        <time>2025-01-28T09:55:19Z</time>
      </trkpt>
      <trkpt lat="47.62522" lon="-2.78183">
        <ele>8.4</ele>
        <time>2025-01-28T09:55:20Z</time>
      </trkpt>
      <trkpt lat="47.62521" lon="-2.78183">
        <ele>8.5</ele>
        <time>2025-01-28T09:55:21Z</time>
      </trkpt>
      <trkpt lat="47.6252" lon="-2.78183">
        <ele>8.7</ele>
        <time>2025-01-28T09:55:22Z</time>
      </trkpt>
      <trkpt lat="47.62519" lon="-2.78183">
        <ele>8.9</ele>
        <time>2025-01-28T09:55:23Z</time>
      </trkpt>
      <trkpt lat="47.62518" lon="-2.78183">
        <ele>9.1</ele>
        <time>2025-01-28T09:55:24Z</time>
      </trkpt>
      <trkpt lat="47.62516" lon="-2.78183">
        <ele>9.2</ele>
        <time>2025-01-28T09:55:25Z</time>
      </trkpt>
      <trkpt lat="47.62515" lon="-2.78182">
        <ele>9.2</ele>
        <time>2025-01-28T09:55:26Z</time>
      </trkpt>
      <trkpt lat="47.62515" lon="-2.78181">
        <ele>9.1</ele>
        <time>2025-01-28T09:55:27Z</time>
      </trkpt>
      <trkpt lat="47.62513" lon="-2.78181">
        <ele>9.2</ele>
        <time>2025-01-28T09:55:28Z</time>
      </trkpt>
      <trkpt lat="47.62512" lon="-2.78182">
        <ele>9.7</ele>
        <time>2025-01-28T09:55:29Z</time>
      </trkpt>
      <trkpt lat="47.62511" lon="-2.78182">
        <ele>9.9</ele>
        <time>2025-01-28T09:55:30Z</time>
      </trkpt>
      <trkpt lat="47.6251" lon="-2.78182">
        <ele>9.9</ele>
        <time>2025-01-28T09:55:31Z</time>
      </trkpt>
      <trkpt lat="47.62509" lon="-2.78181">
        <ele>9.8</ele>
        <time>2025-01-28T09:55:32Z</time>
      </trkpt>
      <trkpt lat="47.62508" lon="-2.7818">
        <ele>9.7</ele>
        <time>2025-01-28T09:55:33Z</time>
      </trkpt>
      <trkpt lat="47.62507" lon="-2.7818">
        <ele>9.8</ele>
        <time>2025-01-28T09:55:34Z</time>
      </trkpt>
      <trkpt lat="47.62506" lon="-2.7818">
        <ele>10</ele>
        <time>2025-01-28T09:55:35Z</time>
      </trkpt>
      <trkpt lat="47.62504" lon="-2.7818">
        <ele>10.2</ele>
        <time>2025-01-28T09:55:36Z</time>
      </trkpt>
      <trkpt lat="47.62503" lon="-2.7818">
        <ele>10.4</ele>
        <time>2025-01-28T09:55:37Z</time>
      </trkpt>
      <trkpt lat="47.62502" lon="-2.78179">
        <ele>10.5</ele>
        <time>2025-01-28T09:55:38Z</time>
      </trkpt>
      <trkpt lat="47.62501" lon="-2.78178">
        <ele>10.3</ele>
        <time>2025-01-28T09:55:39Z</time>
      </trkpt>
      <trkpt lat="47.625" lon="-2.78177">
        <ele>10.2</ele>
        <time>2025-01-28T09:55:40Z</time>
      </trkpt>
      <trkpt lat="47.62499" lon="-2.78175">
        <ele>10</ele>
        <time>2025-01-28T09:55:41Z</time>
      </trkpt>
      <trkpt lat="47.62498" lon="-2.78174">
        <ele>9.9</ele>
        <time>2025-01-28T09:55:42Z</time>
      </trkpt>
      <trkpt lat="47.62497" lon="-2.78174">
        <ele>9.9</ele>
        <time>2025-01-28T09:55:43Z</time>
      </trkpt>
      <trkpt lat="47.62496" lon="-2.78173">
        <ele>9.9</ele>
        <time>2025-01-28T09:55:44Z</time>
      </trkpt>
      <trkpt lat="47.62494" lon="-2.78173">
        <ele>10</ele>
        <time>2025-01-28T09:55:45Z</time>
      </trkpt>
      <trkpt lat="47.62493" lon="-2.78173">
        <ele>10.2</ele>
        <time>2025-01-28T09:55:46Z</time>
      </trkpt>
      <trkpt lat="47.62491" lon="-2.78173">
        <ele>10.5</ele>
        <time>2025-01-28T09:55:47Z</time>
      </trkpt>
      <trkpt lat="47.6249" lon="-2.78174">
        <ele>10.7</ele>
        <time>2025-01-28T09:55:48Z</time>
      </trkpt>
      <trkpt lat="47.62489" lon="-2.78173">
        <ele>10.7</ele>
        <time>2025-01-28T09:55:49Z</time>
      </trkpt>
      <trkpt lat="47.62488" lon="-2.78171">
        <ele>10.6</ele>
        <time>2025-01-28T09:55:50Z</time>
      </trkpt>
      <trkpt lat="47.62487" lon="-2.78171">
        <ele>10.6</ele>
        <time>2025-01-28T09:55:51Z</time>
      </trkpt>
      <trkpt lat="47.62485" lon="-2.78171">
        <ele>10.8</ele>
        <time>2025-01-28T09:55:52Z</time>
      </trkpt>
      <trkpt lat="47.62484" lon="-2.7817">
        <ele>10.9</ele>
        <time>2025-01-28T09:55:53Z</time>
      </trkpt>
      <trkpt lat="47.62483" lon="-2.7817">
        <ele>10.9</ele>
        <time>2025-01-28T09:55:54Z</time>
      </trkpt>
      <trkpt lat="47.62482" lon="-2.78169">
        <ele>11</ele>
        <time>2025-01-28T09:55:55Z</time>
      </trkpt>
      <trkpt lat="47.62481" lon="-2.78169">
        <ele>11</ele>
        <time>2025-01-28T09:55:56Z</time>
      </trkpt>
      <trkpt lat="47.6248" lon="-2.78168">
        <ele>11.1</ele>
        <time>2025-01-28T09:55:57Z</time>
      </trkpt>
      <trkpt lat="47.62479" lon="-2.78167">
        <ele>11.2</ele>
        <time>2025-01-28T09:55:58Z</time>
      </trkpt>
      <trkpt lat="47.62478" lon="-2.78166">
        <ele>11.1</ele>
        <time>2025-01-28T09:55:59Z</time>
      </trkpt>
      <trkpt lat="47.62477" lon="-2.78166">
        <ele>11.2</ele>
        <time>2025-01-28T09:56:00Z</time>
      </trkpt>
      <trkpt lat="47.62475" lon="-2.78165">
        <ele>11.3</ele>
        <time>2025-01-28T09:56:01Z</time>
      </trkpt>
      <trkpt lat="47.62475" lon="-2.78164">
        <ele>11.2</ele>
        <time>2025-01-28T09:56:02Z</time>
      </trkpt>
      <trkpt lat="47.62474" lon="-2.78163">
        <ele>11.1</ele>
        <time>2025-01-28T09:56:03Z</time>
      </trkpt>
      <trkpt lat="47.62474" lon="-2.78161">
        <ele>10.7</ele>
        <time>2025-01-28T09:56:04Z</time>
      </trkpt>
      <trkpt lat="47.62473" lon="-2.7816">
        <ele>10.4</ele>
        <time>2025-01-28T09:56:05Z</time>
      </trkpt>
      <trkpt lat="47.62472" lon="-2.78159">
        <ele>10.3</ele>
        <time>2025-01-28T09:56:06Z</time>
      </trkpt>
      <trkpt lat="47.62471" lon="-2.78158">
        <ele>10.3</ele>
        <time>2025-01-28T09:56:07Z</time>
      </trkpt>
      <trkpt lat="47.6247" lon="-2.78157">
        <ele>10.2</ele>
        <time>2025-01-28T09:56:08Z</time>
      </trkpt>
      <trkpt lat="47.62469" lon="-2.78155">
        <ele>10.1</ele>
        <time>2025-01-28T09:56:09Z</time>
      </trkpt>
      <trkpt lat="47.62468" lon="-2.78154">
        <ele>9.8</ele>
        <time>2025-01-28T09:56:10Z</time>
      </trkpt>
      <trkpt lat="47.62467" lon="-2.78153">
        <ele>9.8</ele>
        <time>2025-01-28T09:56:11Z</time>
      </trkpt>
      <trkpt lat="47.62466" lon="-2.78152">
        <ele>9.9</ele>
        <time>2025-01-28T09:56:12Z</time>
      </trkpt>
      <trkpt lat="47.62465" lon="-2.78151">
        <ele>10</ele>
        <time>2025-01-28T09:56:13Z</time>
      </trkpt>
      <trkpt lat="47.62464" lon="-2.78151">
        <ele>10.1</ele>
        <time>2025-01-28T09:56:14Z</time>
      </trkpt>
      <trkpt lat="47.62463" lon="-2.7815">
        <ele>10.1</ele>
        <time>2025-01-28T09:56:15Z</time>
      </trkpt>
      <trkpt lat="47.62462" lon="-2.78149">
        <ele>10.1</ele>
        <time>2025-01-28T09:56:16Z</time>
      </trkpt>
      <trkpt lat="47.62462" lon="-2.78147">
        <ele>10</ele>
        <time>2025-01-28T09:56:17Z</time>
      </trkpt>
      <trkpt lat="47.62461" lon="-2.78147">
        <ele>10</ele>
        <time>2025-01-28T09:56:18Z</time>
      </trkpt>
      <trkpt lat="47.6246" lon="-2.78147">
        <ele>10.2</ele>
        <time>2025-01-28T09:56:19Z</time>
      </trkpt>
      <trkpt lat="47.6246" lon="-2.78146">
        <ele>10.2</ele>
        <time>2025-01-28T09:56:20Z</time>
      </trkpt>
      <trkpt lat="47.62459" lon="-2.78145">
        <ele>10.4</ele>
        <time>2025-01-28T09:56:21Z</time>
      </trkpt>
      <trkpt lat="47.62458" lon="-2.78144">
        <ele>10.4</ele>
        <time>2025-01-28T09:56:22Z</time>
      </trkpt>
      <trkpt lat="47.62457" lon="-2.78144">
        <ele>10.6</ele>
        <time>2025-01-28T09:56:23Z</time>
      </trkpt>
      <trkpt lat="47.62456" lon="-2.78143">
        <ele>10.7</ele>
        <time>2025-01-28T09:56:24Z</time>
      </trkpt>
      <trkpt lat="47.62455" lon="-2.78142">
        <ele>10.8</ele>
        <time>2025-01-28T09:56:25Z</time>
      </trkpt>
      <trkpt lat="47.62454" lon="-2.78142">
        <ele>10.9</ele>
        <time>2025-01-28T09:56:26Z</time>
      </trkpt>
      <trkpt lat="47.62453" lon="-2.7814">
        <ele>11</ele>
        <time>2025-01-28T09:56:27Z</time>
      </trkpt>
      <trkpt lat="47.62452" lon="-2.7814">
        <ele>11.1</ele>
        <time>2025-01-28T09:56:28Z</time>
      </trkpt>
      <trkpt lat="47.62452" lon="-2.78139">
        <ele>11.2</ele>
        <time>2025-01-28T09:56:29Z</time>
      </trkpt>
      <trkpt lat="47.62451" lon="-2.78138">
        <ele>11</ele>
        <time>2025-01-28T09:56:30Z</time>
      </trkpt>
      <trkpt lat="47.6245" lon="-2.78137">
        <ele>11</ele>
        <time>2025-01-28T09:56:31Z</time>
      </trkpt>
      <trkpt lat="47.62449" lon="-2.78136">
        <ele>11.1</ele>
        <time>2025-01-28T09:56:32Z</time>
      </trkpt>
      <trkpt lat="47.62448" lon="-2.78136">
        <ele>11</ele>
        <time>2025-01-28T09:56:33Z</time>
      </trkpt>
      <trkpt lat="47.62448" lon="-2.78134">
        <ele>10.4</ele>
        <time>2025-01-28T09:56:34Z</time>
      </trkpt>
      <trkpt lat="47.62448" lon="-2.78132">
        <ele>10</ele>
        <time>2025-01-28T09:56:35Z</time>
      </trkpt>
      <trkpt lat="47.62448" lon="-2.7813">
        <ele>9.6</ele>
        <time>2025-01-28T09:56:36Z</time>
      </trkpt>
      <trkpt lat="47.62447" lon="-2.78129">
        <ele>9.3</ele>
        <time>2025-01-28T09:56:37Z</time>
      </trkpt>
      <trkpt lat="47.62446" lon="-2.78128">
        <ele>9.1</ele>
        <time>2025-01-28T09:56:38Z</time>
      </trkpt>
      <trkpt lat="47.62445" lon="-2.78127">
        <ele>9</ele>
        <time>2025-01-28T09:56:39Z</time>
      </trkpt>
      <trkpt lat="47.62444" lon="-2.78127">
        <ele>9</ele>
        <time>2025-01-28T09:56:40Z</time>
      </trkpt>
      <trkpt lat="47.62443" lon="-2.78127">
        <ele>9.2</ele>
        <time>2025-01-28T09:56:41Z</time>
      </trkpt>
      <trkpt lat="47.62442" lon="-2.78129">
        <ele>9.8</ele>
        <time>2025-01-28T09:56:42Z</time>
      </trkpt>
      <trkpt lat="47.62441" lon="-2.7813">
        <ele>10.2</ele>
        <time>2025-01-28T09:56:43Z</time>
      </trkpt>
      <trkpt lat="47.62441" lon="-2.78132">
        <ele>10.9</ele>
        <time>2025-01-28T09:56:44Z</time>
      </trkpt>
      <trkpt lat="47.6244" lon="-2.78134">
        <ele>11.4</ele>
        <time>2025-01-28T09:56:45Z</time>
      </trkpt>
      <trkpt lat="47.6244" lon="-2.78135">
        <ele>11.8</ele>
        <time>2025-01-28T09:56:46Z</time>
      </trkpt>
      <trkpt lat="47.62439" lon="-2.78136">
        <ele>12</ele>
        <time>2025-01-28T09:56:47Z</time>
      </trkpt>
      <trkpt lat="47.62438" lon="-2.78137">
        <ele>12.2</ele>
        <time>2025-01-28T09:56:48Z</time>
      </trkpt>
      <trkpt lat="47.62436" lon="-2.78136">
        <ele>12.2</ele>
        <time>2025-01-28T09:56:49Z</time>
      </trkpt>
      <trkpt lat="47.62435" lon="-2.78137">
        <ele>12.3</ele>
        <time>2025-01-28T09:56:50Z</time>
      </trkpt>
      <trkpt lat="47.62434" lon="-2.78137">
        <ele>12.4</ele>
        <time>2025-01-28T09:56:51Z</time>
      </trkpt>
      <trkpt lat="47.62433" lon="-2.78137">
        <ele>12.4</ele>
        <time>2025-01-28T09:56:52Z</time>
      </trkpt>
      <trkpt lat="47.62432" lon="-2.78137">
        <ele>12.3</ele>
        <time>2025-01-28T09:56:53Z</time>
      </trkpt>
      <trkpt lat="47.62431" lon="-2.78136">
        <ele>12.1</ele>
        <time>2025-01-28T09:56:54Z</time>
      </trkpt>
      <trkpt lat="47.6243" lon="-2.78136">
        <ele>12</ele>
        <time>2025-01-28T09:56:55Z</time>
      </trkpt>
      <trkpt lat="47.62429" lon="-2.78136">
        <ele>12</ele>
        <time>2025-01-28T09:56:56Z</time>
      </trkpt>
      <trkpt lat="47.62428" lon="-2.78135">
        <ele>11.7</ele>
        <time>2025-01-28T09:56:57Z</time>
      </trkpt>
      <trkpt lat="47.62427" lon="-2.78134">
        <ele>11.6</ele>
        <time>2025-01-28T09:56:58Z</time>
      </trkpt>
      <trkpt lat="47.62427" lon="-2.78133">
        <ele>11.3</ele>
        <time>2025-01-28T09:56:59Z</time>
      </trkpt>
      <trkpt lat="47.62425" lon="-2.78134">
        <ele>11.4</ele>
        <time>2025-01-28T09:57:00Z</time>
      </trkpt>
      <trkpt lat="47.62424" lon="-2.78134">
        <ele>11.4</ele>
        <time>2025-01-28T09:57:01Z</time>
      </trkpt>
      <trkpt lat="47.62423" lon="-2.78133">
        <ele>11.4</ele>
        <time>2025-01-28T09:57:02Z</time>
      </trkpt>
      <trkpt lat="47.62422" lon="-2.78133">
        <ele>11.3</ele>
        <time>2025-01-28T09:57:03Z</time>
      </trkpt>
      <trkpt lat="47.6242" lon="-2.78134">
        <ele>11.5</ele>
        <time>2025-01-28T09:57:04Z</time>
      </trkpt>
      <trkpt lat="47.62419" lon="-2.78134">
        <ele>11.6</ele>
        <time>2025-01-28T09:57:05Z</time>
      </trkpt>
      <trkpt lat="47.62418" lon="-2.78134">
        <ele>11.6</ele>
        <time>2025-01-28T09:57:06Z</time>
      </trkpt>
      <trkpt lat="47.62417" lon="-2.78134">
        <ele>11.6</ele>
        <time>2025-01-28T09:57:07Z</time>
      </trkpt>
      <trkpt lat="47.62416" lon="-2.78134">
        <ele>11.5</ele>
        <time>2025-01-28T09:57:08Z</time>
      </trkpt>
      <trkpt lat="47.62415" lon="-2.78134">
        <ele>11.4</ele>
        <time>2025-01-28T09:57:09Z</time>
      </trkpt>
      <trkpt lat="47.62414" lon="-2.78135">
        <ele>11.4</ele>
        <time>2025-01-28T09:57:10Z</time>
      </trkpt>
      <trkpt lat="47.62413" lon="-2.78135">
        <ele>11.3</ele>
        <time>2025-01-28T09:57:11Z</time>
      </trkpt>
      <trkpt lat="47.62412" lon="-2.78136">
        <ele>11.4</ele>
        <time>2025-01-28T09:57:12Z</time>
      </trkpt>
      <trkpt lat="47.62411" lon="-2.78137">
        <ele>11.7</ele>
        <time>2025-01-28T09:57:13Z</time>
      </trkpt>
      <trkpt lat="47.62409" lon="-2.78137">
        <ele>11.4</ele>
        <time>2025-01-28T09:57:14Z</time>
      </trkpt>
      <trkpt lat="47.62409" lon="-2.78136">
        <ele>11.1</ele>
        <time>2025-01-28T09:57:15Z</time>
      </trkpt>
      <trkpt lat="47.62408" lon="-2.78135">
        <ele>10.7</ele>
        <time>2025-01-28T09:57:16Z</time>
      </trkpt>
      <trkpt lat="47.62407" lon="-2.78134">
        <ele>10.5</ele>
        <time>2025-01-28T09:57:17Z</time>
      </trkpt>
      <trkpt lat="47.62406" lon="-2.78134">
        <ele>10.3</ele>
        <time>2025-01-28T09:57:18Z</time>
      </trkpt>
      <trkpt lat="47.62405" lon="-2.78134">
        <ele>10.2</ele>
        <time>2025-01-28T09:57:19Z</time>
      </trkpt>
      <trkpt lat="47.62404" lon="-2.78135">
        <ele>10.3</ele>
        <time>2025-01-28T09:57:20Z</time>
      </trkpt>
      <trkpt lat="47.62403" lon="-2.78135">
        <ele>10.1</ele>
        <time>2025-01-28T09:57:21Z</time>
      </trkpt>
      <trkpt lat="47.62402" lon="-2.78134">
        <ele>9.8</ele>
        <time>2025-01-28T09:57:22Z</time>
      </trkpt>
      <trkpt lat="47.62401" lon="-2.78133">
        <ele>9.4</ele>
        <time>2025-01-28T09:57:23Z</time>
      </trkpt>
      <trkpt lat="47.62401" lon="-2.78131">
        <ele>9</ele>
        <time>2025-01-28T09:57:24Z</time>
      </trkpt>
      <trkpt lat="47.624" lon="-2.78131">
        <ele>8.7</ele>
        <time>2025-01-28T09:57:25Z</time>
      </trkpt>
      <trkpt lat="47.62399" lon="-2.78131">
        <ele>8.6</ele>
        <time>2025-01-28T09:57:26Z</time>
      </trkpt>
      <trkpt lat="47.62398" lon="-2.78132">
        <ele>8.7</ele>
        <time>2025-01-28T09:57:27Z</time>
      </trkpt>
      <trkpt lat="47.62396" lon="-2.78132">
        <ele>8.7</ele>
        <time>2025-01-28T09:57:28Z</time>
      </trkpt>
      <trkpt lat="47.62395" lon="-2.78132">
        <ele>8.5</ele>
        <time>2025-01-28T09:57:29Z</time>
      </trkpt>
      <trkpt lat="47.62394" lon="-2.78132">
        <ele>8.3</ele>
        <time>2025-01-28T09:57:30Z</time>
      </trkpt>
      <trkpt lat="47.62393" lon="-2.78132">
        <ele>8.3</ele>
        <time>2025-01-28T09:57:31Z</time>
      </trkpt>
      <trkpt lat="47.62392" lon="-2.78133">
        <ele>8.3</ele>
        <time>2025-01-28T09:57:32Z</time>
      </trkpt>
      <trkpt lat="47.62391" lon="-2.78134">
        <ele>8.4</ele>
        <time>2025-01-28T09:57:33Z</time>
      </trkpt>
      <trkpt lat="47.6239" lon="-2.78135">
        <ele>8.4</ele>
        <time>2025-01-28T09:57:34Z</time>
      </trkpt>
      <trkpt lat="47.62389" lon="-2.78136">
        <ele>8.5</ele>
        <time>2025-01-28T09:57:35Z</time>
      </trkpt>
      <trkpt lat="47.62388" lon="-2.78138">
        <ele>8.7</ele>
        <time>2025-01-28T09:57:36Z</time>
      </trkpt>
      <trkpt lat="47.62387" lon="-2.78139">
        <ele>8.8</ele>
        <time>2025-01-28T09:57:37Z</time>
      </trkpt>
      <trkpt lat="47.62386" lon="-2.78139">
        <ele>8.8</ele>
        <time>2025-01-28T09:57:38Z</time>
      </trkpt>
      <trkpt lat="47.62385" lon="-2.7814">
        <ele>8.8</ele>
        <time>2025-01-28T09:57:39Z</time>
      </trkpt>
      <trkpt lat="47.62384" lon="-2.78141">
        <ele>8.9</ele>
        <time>2025-01-28T09:57:40Z</time>
      </trkpt>
      <trkpt lat="47.62383" lon="-2.78142">
        <ele>9</ele>
        <time>2025-01-28T09:57:41Z</time>
      </trkpt>
      <trkpt lat="47.62382" lon="-2.78143">
        <ele>9</ele>
        <time>2025-01-28T09:57:42Z</time>
      </trkpt>
      <trkpt lat="47.62382" lon="-2.78144">
        <ele>9</ele>
        <time>2025-01-28T09:57:43Z</time>
      </trkpt>
      <trkpt lat="47.62381" lon="-2.78144">
        <ele>9</ele>
        <time>2025-01-28T09:57:44Z</time>
      </trkpt>
      <trkpt lat="47.6238" lon="-2.78145">
        <ele>9.1</ele>
        <time>2025-01-28T09:57:45Z</time>
      </trkpt>
      <trkpt lat="47.62379" lon="-2.78146">
        <ele>9.2</ele>
        <time>2025-01-28T09:57:46Z</time>
      </trkpt>
      <trkpt lat="47.62378" lon="-2.78147">
        <ele>9.2</ele>
        <time>2025-01-28T09:57:47Z</time>
      </trkpt>
      <trkpt lat="47.62377" lon="-2.78147">
        <ele>9.1</ele>
        <time>2025-01-28T09:57:48Z</time>
      </trkpt>
      <trkpt lat="47.62376" lon="-2.78146">
        <ele>9</ele>
        <time>2025-01-28T09:57:49Z</time>
      </trkpt>
      <trkpt lat="47.62374" lon="-2.78147">
        <ele>8.9</ele>
        <time>2025-01-28T09:57:50Z</time>
      </trkpt>
      <trkpt lat="47.62373" lon="-2.78146">
        <ele>8.8</ele>
        <time>2025-01-28T09:57:51Z</time>
      </trkpt>
      <trkpt lat="47.62372" lon="-2.78146">
        <ele>8.6</ele>
        <time>2025-01-28T09:57:52Z</time>
      </trkpt>
      <trkpt lat="47.6237" lon="-2.78145">
        <ele>8.5</ele>
        <time>2025-01-28T09:57:53Z</time>
      </trkpt>
      <trkpt lat="47.62369" lon="-2.78144">
        <ele>8.3</ele>
        <time>2025-01-28T09:57:54Z</time>
      </trkpt>
      <trkpt lat="47.62368" lon="-2.78144">
        <ele>8.1</ele>
        <time>2025-01-28T09:57:55Z</time>
      </trkpt>
      <trkpt lat="47.62367" lon="-2.78143">
        <ele>8</ele>
        <time>2025-01-28T09:57:56Z</time>
      </trkpt>
      <trkpt lat="47.62366" lon="-2.78142">
        <ele>7.8</ele>
        <time>2025-01-28T09:57:57Z</time>
      </trkpt>
      <trkpt lat="47.62365" lon="-2.78141">
        <ele>7.6</ele>
        <time>2025-01-28T09:57:58Z</time>
      </trkpt>
      <trkpt lat="47.62364" lon="-2.7814">
        <ele>7.3</ele>
        <time>2025-01-28T09:57:59Z</time>
      </trkpt>
      <trkpt lat="47.62363" lon="-2.78139">
        <ele>7.1</ele>
        <time>2025-01-28T09:58:00Z</time>
      </trkpt>
      <trkpt lat="47.62362" lon="-2.78138">
        <ele>6.9</ele>
        <time>2025-01-28T09:58:01Z</time>
      </trkpt>
      <trkpt lat="47.6236" lon="-2.78138">
        <ele>7.08</ele>
        <time>2025-01-28T09:58:02Z</time>
      </trkpt>
      <trkpt lat="47.62359" lon="-2.78138">
        <ele>7.17</ele>
        <time>2025-01-28T09:58:03Z</time>
      </trkpt>
      <trkpt lat="47.62358" lon="-2.78136">
        <ele>7.22</ele>
        <time>2025-01-28T09:58:04Z</time>
      </trkpt>
      <trkpt lat="47.62357" lon="-2.78136">
        <ele>7.3</ele>
        <time>2025-01-28T09:58:05Z</time>
      </trkpt>
      <trkpt lat="47.62356" lon="-2.78136">
        <ele>7.39</ele>
        <time>2025-01-28T09:58:06Z</time>
      </trkpt>
      <trkpt lat="47.62354" lon="-2.78136">
        <ele>7.48</ele>
        <time>2025-01-28T09:58:07Z</time>
      </trkpt>
      <trkpt lat="47.62353" lon="-2.78135">
        <ele>7.58</ele>
        <time>2025-01-28T09:58:08Z</time>
      </trkpt>
      <trkpt lat="47.62352" lon="-2.78135">
        <ele>7.66</ele>
        <time>2025-01-28T09:58:09Z</time>
      </trkpt>
      <trkpt lat="47.62351" lon="-2.78135">
        <ele>7.74</ele>
        <time>2025-01-28T09:58:10Z</time>
      </trkpt>
      <trkpt lat="47.6235" lon="-2.78135">
        <ele>7.81</ele>
        <time>2025-01-28T09:58:11Z</time>
      </trkpt>
      <trkpt lat="47.62348" lon="-2.78134">
        <ele>7.92</ele>
        <time>2025-01-28T09:58:12Z</time>
      </trkpt>
      <trkpt lat="47.62347" lon="-2.78134">
        <ele>8.01</ele>
        <time>2025-01-28T09:58:13Z</time>
      </trkpt>
      <trkpt lat="47.62346" lon="-2.78135">
        <ele>8.1</ele>
        <time>2025-01-28T09:58:14Z</time>
      </trkpt>
      <trkpt lat="47.62345" lon="-2.78135">
        <ele>8.19</ele>
        <time>2025-01-28T09:58:15Z</time>
      </trkpt>
      <trkpt lat="47.62343" lon="-2.78135">
        <ele>8.28</ele>
        <time>2025-01-28T09:58:16Z</time>
      </trkpt>
      <trkpt lat="47.62342" lon="-2.78134">
        <ele>8.38</ele>
        <time>2025-01-28T09:58:17Z</time>
      </trkpt>
      <trkpt lat="47.62341" lon="-2.78133">
        <ele>8.45</ele>
        <time>2025-01-28T09:58:18Z</time>
      </trkpt>
      <trkpt lat="47.6234" lon="-2.78133">
        <ele>8.53</ele>
        <time>2025-01-28T09:58:19Z</time>
      </trkpt>
      <trkpt lat="47.62339" lon="-2.78132">
        <ele>8.6</ele>
        <time>2025-01-28T09:58:20Z</time>
      </trkpt>
      <trkpt lat="47.62338" lon="-2.78132">
        <ele>8.67</ele>
        <time>2025-01-28T09:58:21Z</time>
      </trkpt>
      <trkpt lat="47.62337" lon="-2.78132">
        <ele>8.75</ele>
        <time>2025-01-28T09:58:22Z</time>
      </trkpt>
      <trkpt lat="47.62336" lon="-2.78132">
        <ele>8.84</ele>
        <time>2025-01-28T09:58:23Z</time>
      </trkpt>
      <trkpt lat="47.62335" lon="-2.78132">
        <ele>8.91</ele>
        <time>2025-01-28T09:58:24Z</time>
      </trkpt>
      <trkpt lat="47.62334" lon="-2.78132">
        <ele>8.99</ele>
        <time>2025-01-28T09:58:25Z</time>
      </trkpt>
      <trkpt lat="47.62332" lon="-2.78132">
        <ele>7</ele>
        <time>2025-01-28T09:58:26Z</time>
      </trkpt>
      <trkpt lat="47.62331" lon="-2.78132">
        <ele>7</ele>
        <time>2025-01-28T09:58:27Z</time>
      </trkpt>
      <trkpt lat="47.62331" lon="-2.78131">
        <ele>6.8</ele>
        <time>2025-01-28T09:58:28Z</time>
      </trkpt>
      <trkpt lat="47.62329" lon="-2.78131">
        <ele>6.8</ele>
        <time>2025-01-28T09:58:29Z</time>
      </trkpt>
      <trkpt lat="47.62328" lon="-2.78131">
        <ele>6.8</ele>
        <time>2025-01-28T09:58:30Z</time>
      </trkpt>
      <trkpt lat="47.62327" lon="-2.78131">
        <ele>6.7</ele>
        <time>2025-01-28T09:58:31Z</time>
      </trkpt>
      <trkpt lat="47.62326" lon="-2.7813">
        <ele>6.7</ele>
        <time>2025-01-28T09:58:32Z</time>
      </trkpt>
      <trkpt lat="47.62326" lon="-2.7813">
        <ele>6.5</ele>
        <time>2025-01-28T09:58:33Z</time>
      </trkpt>
      <trkpt lat="47.62324" lon="-2.7813">
        <ele>6.6</ele>
        <time>2025-01-28T09:58:34Z</time>
      </trkpt>
      <trkpt lat="47.62323" lon="-2.7813">
        <ele>6.7</ele>
        <time>2025-01-28T09:58:35Z</time>
      </trkpt>
      <trkpt lat="47.62322" lon="-2.78131">
        <ele>7.1</ele>
        <time>2025-01-28T09:58:36Z</time>
      </trkpt>
      <trkpt lat="47.62321" lon="-2.78132">
        <ele>7.2</ele>
        <time>2025-01-28T09:58:37Z</time>
      </trkpt>
      <trkpt lat="47.6232" lon="-2.78133">
        <ele>7.5</ele>
        <time>2025-01-28T09:58:38Z</time>
      </trkpt>
      <trkpt lat="47.62319" lon="-2.78133">
        <ele>7.7</ele>
        <time>2025-01-28T09:58:39Z</time>
      </trkpt>
      <trkpt lat="47.62317" lon="-2.78133">
        <ele>7.9</ele>
        <time>2025-01-28T09:58:40Z</time>
      </trkpt>
      <trkpt lat="47.62316" lon="-2.78133">
        <ele>7.8</ele>
        <time>2025-01-28T09:58:41Z</time>
      </trkpt>
      <trkpt lat="47.62315" lon="-2.78132">
        <ele>7.6</ele>
        <time>2025-01-28T09:58:42Z</time>
      </trkpt>
      <trkpt lat="47.62313" lon="-2.78132">
        <ele>7.7</ele>
        <time>2025-01-28T09:58:43Z</time>
      </trkpt>
      <trkpt lat="47.62312" lon="-2.78133">
        <ele>7.8</ele>
        <time>2025-01-28T09:58:44Z</time>
      </trkpt>
      <trkpt lat="47.62311" lon="-2.78133">
        <ele>7.9</ele>
        <time>2025-01-28T09:58:45Z</time>
      </trkpt>
      <trkpt lat="47.6231" lon="-2.78133">
        <ele>7.9</ele>
        <time>2025-01-28T09:58:46Z</time>
      </trkpt>
      <trkpt lat="47.62308" lon="-2.78133">
        <ele>7.9</ele>
        <time>2025-01-28T09:58:47Z</time>
      </trkpt>
      <trkpt lat="47.62307" lon="-2.78132">
        <ele>7.6</ele>
        <time>2025-01-28T09:58:48Z</time>
      </trkpt>
      <trkpt lat="47.62306" lon="-2.78131">
        <ele>7.6</ele>
        <time>2025-01-28T09:58:49Z</time>
      </trkpt>
      <trkpt lat="47.62305" lon="-2.78131">
        <ele>7.5</ele>
        <time>2025-01-28T09:58:50Z</time>
      </trkpt>
      <trkpt lat="47.62303" lon="-2.7813">
        <ele>7.2</ele>
        <time>2025-01-28T09:58:51Z</time>
      </trkpt>
      <trkpt lat="47.62302" lon="-2.78131">
        <ele>7.3</ele>
        <time>2025-01-28T09:58:52Z</time>
      </trkpt>
      <trkpt lat="47.62301" lon="-2.78131">
        <ele>7.3</ele>
        <time>2025-01-28T09:58:53Z</time>
      </trkpt>
      <trkpt lat="47.623" lon="-2.78131">
        <ele>7.4</ele>
        <time>2025-01-28T09:58:54Z</time>
      </trkpt>
      <trkpt lat="47.62298" lon="-2.78131">
        <ele>7.3</ele>
        <time>2025-01-28T09:58:55Z</time>
      </trkpt>
      <trkpt lat="47.62297" lon="-2.78131">
        <ele>7.2</ele>
        <time>2025-01-28T09:58:56Z</time>
      </trkpt>
      <trkpt lat="47.62296" lon="-2.78131">
        <ele>7.3</ele>
        <time>2025-01-28T09:58:57Z</time>
      </trkpt>
      <trkpt lat="47.62295" lon="-2.78131">
        <ele>7.3</ele>
        <time>2025-01-28T09:58:58Z</time>
      </trkpt>
      <trkpt lat="47.62294" lon="-2.78131">
        <ele>7.2</ele>
        <time>2025-01-28T09:58:59Z</time>
      </trkpt>
      <trkpt lat="47.62293" lon="-2.7813">
        <ele>6.7</ele>
        <time>2025-01-28T09:59:00Z</time>
      </trkpt>
      <trkpt lat="47.62291" lon="-2.7813">
        <ele>6.7</ele>
        <time>2025-01-28T09:59:01Z</time>
      </trkpt>
      <trkpt lat="47.6229" lon="-2.78129">
        <ele>6.3</ele>
        <time>2025-01-28T09:59:02Z</time>
      </trkpt>
      <trkpt lat="47.62289" lon="-2.78129">
        <ele>6.3</ele>
        <time>2025-01-28T09:59:03Z</time>
      </trkpt>
      <trkpt lat="47.62288" lon="-2.78128">
        <ele>6.2</ele>
        <time>2025-01-28T09:59:04Z</time>
      </trkpt>
      <trkpt lat="47.62287" lon="-2.78128">
        <ele>6.1</ele>
        <time>2025-01-28T09:59:05Z</time>
      </trkpt>
      <trkpt lat="47.62286" lon="-2.78128">
        <ele>6.1</ele>
        <time>2025-01-28T09:59:06Z</time>
      </trkpt>
      <trkpt lat="47.62284" lon="-2.78128">
        <ele>6.1</ele>
        <time>2025-01-28T09:59:07Z</time>
      </trkpt>
      <trkpt lat="47.62283" lon="-2.78128">
        <ele>6</ele>
        <time>2025-01-28T09:59:08Z</time>
      </trkpt>
      <trkpt lat="47.62282" lon="-2.78129">
        <ele>6.3</ele>
        <time>2025-01-28T09:59:09Z</time>
      </trkpt>
      <trkpt lat="47.62281" lon="-2.7813">
        <ele>6.5</ele>
        <time>2025-01-28T09:59:10Z</time>
      </trkpt>
      <trkpt lat="47.6228" lon="-2.78131">
        <ele>6.7</ele>
        <time>2025-01-28T09:59:11Z</time>
      </trkpt>
      <trkpt lat="47.62278" lon="-2.78131">
        <ele>6.8</ele>
        <time>2025-01-28T09:59:12Z</time>
      </trkpt>
      <trkpt lat="47.62277" lon="-2.78132">
        <ele>7.1</ele>
        <time>2025-01-28T09:59:13Z</time>
      </trkpt>
      <trkpt lat="47.62276" lon="-2.78133">
        <ele>7.2</ele>
        <time>2025-01-28T09:59:14Z</time>
      </trkpt>
      <trkpt lat="47.62275" lon="-2.78134">
        <ele>7.4</ele>
        <time>2025-01-28T09:59:15Z</time>
      </trkpt>
      <trkpt lat="47.62274" lon="-2.78134">
        <ele>7.5</ele>
        <time>2025-01-28T09:59:16Z</time>
      </trkpt>
      <trkpt lat="47.62273" lon="-2.78135">
        <ele>7.5</ele>
        <time>2025-01-28T09:59:17Z</time>
      </trkpt>
      <trkpt lat="47.62272" lon="-2.78134">
        <ele>7.3</ele>
        <time>2025-01-28T09:59:18Z</time>
      </trkpt>
      <trkpt lat="47.62271" lon="-2.78135">
        <ele>7.4</ele>
        <time>2025-01-28T09:59:19Z</time>
      </trkpt>
      <trkpt lat="47.6227" lon="-2.78135">
        <ele>7.5</ele>
        <time>2025-01-28T09:59:20Z</time>
      </trkpt>
      <trkpt lat="47.62269" lon="-2.78135">
        <ele>7.4</ele>
        <time>2025-01-28T09:59:21Z</time>
      </trkpt>
      <trkpt lat="47.62268" lon="-2.78136">
        <ele>7.4</ele>
        <time>2025-01-28T09:59:22Z</time>
      </trkpt>
      <trkpt lat="47.62267" lon="-2.78137">
        <ele>7.7</ele>
        <time>2025-01-28T09:59:23Z</time>
      </trkpt>
      <trkpt lat="47.62266" lon="-2.78137">
        <ele>7.7</ele>
        <time>2025-01-28T09:59:24Z</time>
      </trkpt>
      <trkpt lat="47.62265" lon="-2.78137">
        <ele>7.5</ele>
        <time>2025-01-28T09:59:25Z</time>
      </trkpt>
      <trkpt lat="47.62263" lon="-2.78137">
        <ele>7.5</ele>
        <time>2025-01-28T09:59:26Z</time>
      </trkpt>
      <trkpt lat="47.62262" lon="-2.78138">
        <ele>7.6</ele>
        <time>2025-01-28T09:59:27Z</time>
      </trkpt>
      <trkpt lat="47.62261" lon="-2.78138">
        <ele>7.6</ele>
        <time>2025-01-28T09:59:28Z</time>
      </trkpt>
      <trkpt lat="47.6226" lon="-2.78139">
        <ele>7.7</ele>
        <time>2025-01-28T09:59:29Z</time>
      </trkpt>
      <trkpt lat="47.62259" lon="-2.78139">
        <ele>7.6</ele>
        <time>2025-01-28T09:59:30Z</time>
      </trkpt>
      <trkpt lat="47.62258" lon="-2.78139">
        <ele>7.6</ele>
        <time>2025-01-28T09:59:31Z</time>
      </trkpt>
      <trkpt lat="47.62257" lon="-2.78141">
        <ele>7.6</ele>
        <time>2025-01-28T09:59:32Z</time>
      </trkpt>
      <trkpt lat="47.62256" lon="-2.78142">
        <ele>7.7</ele>
        <time>2025-01-28T09:59:33Z</time>
      </trkpt>
      <trkpt lat="47.62255" lon="-2.78143">
        <ele>7.8</ele>
        <time>2025-01-28T09:59:34Z</time>
      </trkpt>
      <trkpt lat="47.62254" lon="-2.78144">
        <ele>7.8</ele>
        <time>2025-01-28T09:59:35Z</time>
      </trkpt>
      <trkpt lat="47.62252" lon="-2.78145">
        <ele>7.8</ele>
        <time>2025-01-28T09:59:36Z</time>
      </trkpt>
      <trkpt lat="47.62252" lon="-2.78146">
        <ele>7.8</ele>
        <time>2025-01-28T09:59:37Z</time>
      </trkpt>
      <trkpt lat="47.6225" lon="-2.78146">
        <ele>7.8</ele>
        <time>2025-01-28T09:59:38Z</time>
      </trkpt>
      <trkpt lat="47.62249" lon="-2.78147">
        <ele>7.7</ele>
        <time>2025-01-28T09:59:39Z</time>
      </trkpt>
      <trkpt lat="47.62248" lon="-2.78147">
        <ele>7.6</ele>
        <time>2025-01-28T09:59:40Z</time>
      </trkpt>
      <trkpt lat="47.62247" lon="-2.78148">
        <ele>7.6</ele>
        <time>2025-01-28T09:59:41Z</time>
      </trkpt>
      <trkpt lat="47.62246" lon="-2.7815">
        <ele>7.6</ele>
        <time>2025-01-28T09:59:42Z</time>
      </trkpt>
      <trkpt lat="47.62245" lon="-2.78151">
        <ele>7.6</ele>
        <time>2025-01-28T09:59:43Z</time>
      </trkpt>
      <trkpt lat="47.62244" lon="-2.78152">
        <ele>7.6</ele>
        <time>2025-01-28T09:59:44Z</time>
      </trkpt>
      <trkpt lat="47.62243" lon="-2.78152">
        <ele>7.4</ele>
        <time>2025-01-28T09:59:45Z</time>
      </trkpt>
      <trkpt lat="47.62241" lon="-2.78151">
        <ele>7.1</ele>
        <time>2025-01-28T09:59:46Z</time>
      </trkpt>
      <trkpt lat="47.6224" lon="-2.78152">
        <ele>7.1</ele>
        <time>2025-01-28T09:59:47Z</time>
      </trkpt>
      <trkpt lat="47.62239" lon="-2.78153">
        <ele>7.1</ele>
        <time>2025-01-28T09:59:48Z</time>
      </trkpt>
      <trkpt lat="47.62238" lon="-2.78153">
        <ele>7.1</ele>
        <time>2025-01-28T09:59:49Z</time>
      </trkpt>
      <trkpt lat="47.62237" lon="-2.78154">
        <ele>7</ele>
        <time>2025-01-28T09:59:50Z</time>
      </trkpt>
      <trkpt lat="47.62235" lon="-2.78155">
        <ele>7.1</ele>
        <time>2025-01-28T09:59:51Z</time>
      </trkpt>
      <trkpt lat="47.62234" lon="-2.78156">
        <ele>7.2</ele>
        <time>2025-01-28T09:59:52Z</time>
      </trkpt>
      <trkpt lat="47.62233" lon="-2.78157">
        <ele>7.2</ele>
        <time>2025-01-28T09:59:53Z</time>
      </trkpt>
      <trkpt lat="47.62232" lon="-2.78157">
        <ele>7.1</ele>
        <time>2025-01-28T09:59:54Z</time>
      </trkpt>
      <trkpt lat="47.62231" lon="-2.78157">
        <ele>7.1</ele>
        <time>2025-01-28T09:59:55Z</time>
      </trkpt>
      <trkpt lat="47.6223" lon="-2.78158">
        <ele>7.2</ele>
        <time>2025-01-28T09:59:56Z</time>
      </trkpt>
      <trkpt lat="47.62228" lon="-2.78159">
        <ele>7.3</ele>
        <time>2025-01-28T09:59:57Z</time>
      </trkpt>
      <trkpt lat="47.62227" lon="-2.7816">
        <ele>7.4</ele>
        <time>2025-01-28T09:59:58Z</time>
      </trkpt>
      <trkpt lat="47.62226" lon="-2.7816">
        <ele>7.5</ele>
        <time>2025-01-28T09:59:59Z</time>
      </trkpt>
      <trkpt lat="47.62225" lon="-2.78162">
        <ele>7.7</ele>
        <time>2025-01-28T10:00:00Z</time>
      </trkpt>
      <trkpt lat="47.62224" lon="-2.78163">
        <ele>7.9</ele>
        <time>2025-01-28T10:00:01Z</time>
      </trkpt>
      <trkpt lat="47.62223" lon="-2.78163">
        <ele>8.1</ele>
        <time>2025-01-28T10:00:02Z</time>
      </trkpt>
      <trkpt lat="47.62222" lon="-2.78165">
        <ele>8.3</ele>
        <time>2025-01-28T10:00:03Z</time>
      </trkpt>
      <trkpt lat="47.62221" lon="-2.78166">
        <ele>8.3</ele>
        <time>2025-01-28T10:00:04Z</time>
      </trkpt>
      <trkpt lat="47.6222" lon="-2.78166">
        <ele>8.3</ele>
        <time>2025-01-28T10:00:05Z</time>
      </trkpt>
      <trkpt lat="47.62219" lon="-2.78167">
        <ele>8.1</ele>
        <time>2025-01-28T10:00:06Z</time>
      </trkpt>
      <trkpt lat="47.62217" lon="-2.78168">
        <ele>7.8</ele>
        <time>2025-01-28T10:00:07Z</time>
      </trkpt>
      <trkpt lat="47.62216" lon="-2.78168">
        <ele>7.6</ele>
        <time>2025-01-28T10:00:08Z</time>
      </trkpt>
      <trkpt lat="47.62215" lon="-2.78169">
        <ele>7.4</ele>
        <time>2025-01-28T10:00:09Z</time>
      </trkpt>
      <trkpt lat="47.62214" lon="-2.7817">
        <ele>7.3</ele>
        <time>2025-01-28T10:00:10Z</time>
      </trkpt>
      <trkpt lat="47.62213" lon="-2.78171">
        <ele>7.2</ele>
        <time>2025-01-28T10:00:11Z</time>
      </trkpt>
      <trkpt lat="47.62212" lon="-2.78172">
        <ele>7</ele>
        <time>2025-01-28T10:00:12Z</time>
      </trkpt>
      <trkpt lat="47.62211" lon="-2.78174">
        <ele>7</ele>
        <time>2025-01-28T10:00:13Z</time>
      </trkpt>
      <trkpt lat="47.6221" lon="-2.78175">
        <ele>7</ele>
        <time>2025-01-28T10:00:14Z</time>
      </trkpt>
      <trkpt lat="47.6221" lon="-2.78177">
        <ele>7</ele>
        <time>2025-01-28T10:00:15Z</time>
      </trkpt>
      <trkpt lat="47.62208" lon="-2.78178">
        <ele>6.9</ele>
        <time>2025-01-28T10:00:16Z</time>
      </trkpt>
      <trkpt lat="47.62207" lon="-2.78179">
        <ele>6.8</ele>
        <time>2025-01-28T10:00:17Z</time>
      </trkpt>
      <trkpt lat="47.62206" lon="-2.78179">
        <ele>6.6</ele>
        <time>2025-01-28T10:00:18Z</time>
      </trkpt>
      <trkpt lat="47.62205" lon="-2.7818">
        <ele>6.6</ele>
        <time>2025-01-28T10:00:19Z</time>
      </trkpt>
      <trkpt lat="47.62203" lon="-2.78181">
        <ele>6.5</ele>
        <time>2025-01-28T10:00:20Z</time>
      </trkpt>
      <trkpt lat="47.62202" lon="-2.78182">
        <ele>6.4</ele>
        <time>2025-01-28T10:00:21Z</time>
      </trkpt>
      <trkpt lat="47.62201" lon="-2.78183">
        <ele>6.4</ele>
        <time>2025-01-28T10:00:22Z</time>
      </trkpt>
      <trkpt lat="47.622" lon="-2.78184">
        <ele>6.5</ele>
        <time>2025-01-28T10:00:23Z</time>
      </trkpt>
      <trkpt lat="47.62199" lon="-2.78186">
        <ele>6.6</ele>
        <time>2025-01-28T10:00:24Z</time>
      </trkpt>
      <trkpt lat="47.62198" lon="-2.78187">
        <ele>6.7</ele>
        <time>2025-01-28T10:00:25Z</time>
      </trkpt>
      <trkpt lat="47.62196" lon="-2.78187">
        <ele>6.6</ele>
        <time>2025-01-28T10:00:26Z</time>
      </trkpt>
      <trkpt lat="47.62195" lon="-2.78188">
        <ele>6.8</ele>
        <time>2025-01-28T10:00:27Z</time>
      </trkpt>
      <trkpt lat="47.62194" lon="-2.7819">
        <ele>6.9</ele>
        <time>2025-01-28T10:00:28Z</time>
      </trkpt>
      <trkpt lat="47.62193" lon="-2.78191">
        <ele>7.1</ele>
        <time>2025-01-28T10:00:29Z</time>
      </trkpt>
      <trkpt lat="47.62191" lon="-2.78192">
        <ele>7</ele>
        <time>2025-01-28T10:00:30Z</time>
      </trkpt>
      <trkpt lat="47.6219" lon="-2.78193">
        <ele>7</ele>
        <time>2025-01-28T10:00:31Z</time>
      </trkpt>
      <trkpt lat="47.62189" lon="-2.78194">
        <ele>7.1</ele>
        <time>2025-01-28T10:00:32Z</time>
      </trkpt>
      <trkpt lat="47.62188" lon="-2.78195">
        <ele>7.1</ele>
        <time>2025-01-28T10:00:33Z</time>
      </trkpt>
      <trkpt lat="47.62187" lon="-2.78196">
        <ele>7</ele>
        <time>2025-01-28T10:00:34Z</time>
      </trkpt>
      <trkpt lat="47.62186" lon="-2.78197">
        <ele>6.9</ele>
        <time>2025-01-28T10:00:35Z</time>
      </trkpt>
      <trkpt lat="47.62185" lon="-2.78198">
        <ele>6.8</ele>
        <time>2025-01-28T10:00:36Z</time>
      </trkpt>
      <trkpt lat="47.62183" lon="-2.78198">
        <ele>6.7</ele>
        <time>2025-01-28T10:00:37Z</time>
      </trkpt>
      <trkpt lat="47.62182" lon="-2.78199">
        <ele>6.6</ele>
        <time>2025-01-28T10:00:38Z</time>
      </trkpt>
      <trkpt lat="47.62181" lon="-2.782">
        <ele>6.5</ele>
        <time>2025-01-28T10:00:39Z</time>
      </trkpt>
      <trkpt lat="47.6218" lon="-2.78201">
        <ele>6.5</ele>
        <time>2025-01-28T10:00:40Z</time>
      </trkpt>
      <trkpt lat="47.62179" lon="-2.78202">
        <ele>6.5</ele>
        <time>2025-01-28T10:00:41Z</time>
      </trkpt>
      <trkpt lat="47.62178" lon="-2.78202">
        <ele>6.4</ele>
        <time>2025-01-28T10:00:42Z</time>
      </trkpt>
      <trkpt lat="47.62176" lon="-2.78203">
        <ele>6.3</ele>
        <time>2025-01-28T10:00:43Z</time>
      </trkpt>
      <trkpt lat="47.62175" lon="-2.78204">
        <ele>6.3</ele>
        <time>2025-01-28T10:00:44Z</time>
      </trkpt>
      <trkpt lat="47.62174" lon="-2.78204">
        <ele>6.1</ele>
        <time>2025-01-28T10:00:45Z</time>
      </trkpt>
      <trkpt lat="47.62173" lon="-2.78204">
        <ele>6</ele>
        <time>2025-01-28T10:00:46Z</time>
      </trkpt>
      <trkpt lat="47.62171" lon="-2.78204">
        <ele>5.9</ele>
        <time>2025-01-28T10:00:47Z</time>
      </trkpt>
      <trkpt lat="47.6217" lon="-2.78205">
        <ele>5.8</ele>
        <time>2025-01-28T10:00:48Z</time>
      </trkpt>
      <trkpt lat="47.62169" lon="-2.78205">
        <ele>5.8</ele>
        <time>2025-01-28T10:00:49Z</time>
      </trkpt>
      <trkpt lat="47.62168" lon="-2.78206">
        <ele>5.8</ele>
        <time>2025-01-28T10:00:50Z</time>
      </trkpt>
      <trkpt lat="47.62167" lon="-2.78206">
        <ele>5.7</ele>
        <time>2025-01-28T10:00:51Z</time>
      </trkpt>
      <trkpt lat="47.62166" lon="-2.78207">
        <ele>5.6</ele>
        <time>2025-01-28T10:00:52Z</time>
      </trkpt>
      <trkpt lat="47.62164" lon="-2.78207">
        <ele>5.6</ele>
        <time>2025-01-28T10:00:53Z</time>
      </trkpt>
      <trkpt lat="47.62163" lon="-2.78208">
        <ele>5.5</ele>
        <time>2025-01-28T10:00:54Z</time>
      </trkpt>
      <trkpt lat="47.62162" lon="-2.78207">
        <ele>5.3</ele>
        <time>2025-01-28T10:00:55Z</time>
      </trkpt>
      <trkpt lat="47.62161" lon="-2.78206">
        <ele>5.1</ele>
        <time>2025-01-28T10:00:56Z</time>
      </trkpt>
      <trkpt lat="47.6216" lon="-2.78206">
        <ele>4.9</ele>
        <time>2025-01-28T10:00:57Z</time>
      </trkpt>
      <trkpt lat="47.62159" lon="-2.78205">
        <ele>4.7</ele>
        <time>2025-01-28T10:00:58Z</time>
      </trkpt>
      <trkpt lat="47.62158" lon="-2.78204">
        <ele>4.5</ele>
        <time>2025-01-28T10:00:59Z</time>
      </trkpt>
      <trkpt lat="47.62157" lon="-2.78203">
        <ele>4.3</ele>
        <time>2025-01-28T10:01:00Z</time>
      </trkpt>
      <trkpt lat="47.62157" lon="-2.78202">
        <ele>4</ele>
        <time>2025-01-28T10:01:01Z</time>
      </trkpt>
      <trkpt lat="47.62157" lon="-2.782">
        <ele>3.7</ele>
        <time>2025-01-28T10:01:02Z</time>
      </trkpt>
      <trkpt lat="47.62157" lon="-2.78198">
        <ele>3.5</ele>
        <time>2025-01-28T10:01:03Z</time>
      </trkpt>
      <trkpt lat="47.62158" lon="-2.78197">
        <ele>3.4</ele>
        <time>2025-01-28T10:01:04Z</time>
      </trkpt>
      <trkpt lat="47.62159" lon="-2.78197">
        <ele>3.5</ele>
        <time>2025-01-28T10:01:05Z</time>
      </trkpt>
      <trkpt lat="47.6216" lon="-2.78197">
        <ele>3.6</ele>
        <time>2025-01-28T10:01:06Z</time>
      </trkpt>
      <trkpt lat="47.62161" lon="-2.78197">
        <ele>3.7</ele>
        <time>2025-01-28T10:01:07Z</time>
      </trkpt>
      <trkpt lat="47.62162" lon="-2.78196">
        <ele>3.7</ele>
        <time>2025-01-28T10:01:08Z</time>
      </trkpt>
      <trkpt lat="47.62162" lon="-2.78196">
        <ele>3.8</ele>
        <time>2025-01-28T10:01:09Z</time>
      </trkpt>
      <trkpt lat="47.62163" lon="-2.78196">
        <ele>3.8</ele>
        <time>2025-01-28T10:01:10Z</time>
      </trkpt>
      <trkpt lat="47.62163" lon="-2.78196">
        <ele>3.8</ele>
        <time>2025-01-28T10:01:11Z</time>
      </trkpt>
      <trkpt lat="47.62163" lon="-2.78196">
        <ele>3.8</ele>
        <time>2025-01-28T10:01:12Z</time>
      </trkpt>
      <trkpt lat="47.62163" lon="-2.78196">
        <ele>3.8</ele>
        <time>2025-01-28T10:01:13Z</time>
      </trkpt>
      <trkpt lat="47.62163" lon="-2.78196">
        <ele>3.9</ele>
        <time>2025-01-28T10:01:14Z</time>
      </trkpt>
      <trkpt lat="47.62163" lon="-2.78196">
        <ele>3.9</ele>
        <time>2025-01-28T10:01:15Z</time>
      </trkpt>
      <trkpt lat="47.62163" lon="-2.78196">
        <ele>3.9</ele>
        <time>2025-01-28T10:01:16Z</time>
      </trkpt>
      <trkpt lat="47.62163" lon="-2.78196">
        <ele>3.9</ele>
        <time>2025-01-28T10:01:17Z</time>
      </trkpt>
      <trkpt lat="47.62163" lon="-2.78197">
        <ele>4</ele>
        <time>2025-01-28T10:01:18Z</time>
      </trkpt>
      <trkpt lat="47.62163" lon="-2.78197">
        <ele>3.9</ele>
        <time>2025-01-28T10:01:19Z</time>
      </trkpt>
      <trkpt lat="47.62163" lon="-2.78196">
        <ele>3.9</ele>
        <time>2025-01-28T10:01:20Z</time>
      </trkpt>
      <trkpt lat="47.62163" lon="-2.78196">
        <ele>3.8</ele>
        <time>2025-01-28T10:01:21Z</time>
      </trkpt>
      <trkpt lat="47.62163" lon="-2.78195">
        <ele>3.8</ele>
        <time>2025-01-28T10:01:22Z</time>
      </trkpt>
      <trkpt lat="47.62161" lon="-2.78193">
        <ele>3.37</ele>
        <time>2025-01-28T10:01:23Z</time>
      </trkpt>
      <trkpt lat="47.62159" lon="-2.78193">
        <ele>3.19</ele>
        <time>2025-01-28T10:01:24Z</time>
      </trkpt>
      <trkpt lat="47.62158" lon="-2.78194">
        <ele>3.07</ele>
        <time>2025-01-28T10:01:25Z</time>
      </trkpt>
      <trkpt lat="47.62157" lon="-2.78195">
        <ele>3</ele>
        <time>2025-01-28T10:01:26Z</time>
      </trkpt>
      <trkpt lat="47.62156" lon="-2.78195">
        <ele>3</ele>
        <time>2025-01-28T10:01:27Z</time>
      </trkpt>
      <trkpt lat="47.62155" lon="-2.78195">
        <ele>2.8</ele>
        <time>2025-01-28T10:01:28Z</time>
      </trkpt>
      <trkpt lat="47.62154" lon="-2.78195">
        <ele>2.7</ele>
        <time>2025-01-28T10:01:29Z</time>
      </trkpt>
      <trkpt lat="47.62153" lon="-2.78195">
        <ele>2.6</ele>
        <time>2025-01-28T10:01:30Z</time>
      </trkpt>
      <trkpt lat="47.62152" lon="-2.78195">
        <ele>2.5</ele>
        <time>2025-01-28T10:01:31Z</time>
      </trkpt>
      <trkpt lat="47.62151" lon="-2.78196">
        <ele>2.5</ele>
        <time>2025-01-28T10:01:32Z</time>
      </trkpt>
      <trkpt lat="47.6215" lon="-2.78197">
        <ele>2.5</ele>
        <time>2025-01-28T10:01:33Z</time>
      </trkpt>
      <trkpt lat="47.62149" lon="-2.78198">
        <ele>2.5</ele>
        <time>2025-01-28T10:01:34Z</time>
      </trkpt>
      <trkpt lat="47.62148" lon="-2.78198">
        <ele>2.5</ele>
        <time>2025-01-28T10:01:35Z</time>
      </trkpt>
      <trkpt lat="47.62147" lon="-2.78198">
        <ele>2.3</ele>
        <time>2025-01-28T10:01:36Z</time>
      </trkpt>
      <trkpt lat="47.62145" lon="-2.78199">
        <ele>2.4</ele>
        <time>2025-01-28T10:01:37Z</time>
      </trkpt>
      <trkpt lat="47.62144" lon="-2.782">
        <ele>2.3</ele>
        <time>2025-01-28T10:01:38Z</time>
      </trkpt>
      <trkpt lat="47.62143" lon="-2.782">
        <ele>2.2</ele>
        <time>2025-01-28T10:01:39Z</time>
      </trkpt>
      <trkpt lat="47.62142" lon="-2.782">
        <ele>2.2</ele>
        <time>2025-01-28T10:01:40Z</time>
      </trkpt>
      <trkpt lat="47.62141" lon="-2.78201">
        <ele>2.2</ele>
        <time>2025-01-28T10:01:41Z</time>
      </trkpt>
      <trkpt lat="47.6214" lon="-2.78202">
        <ele>2.1</ele>
        <time>2025-01-28T10:01:42Z</time>
      </trkpt>
      <trkpt lat="47.62139" lon="-2.78202">
        <ele>2.1</ele>
        <time>2025-01-28T10:01:43Z</time>
      </trkpt>
      <trkpt lat="47.62138" lon="-2.78202">
        <ele>2</ele>
        <time>2025-01-28T10:01:44Z</time>
      </trkpt>
      <trkpt lat="47.62137" lon="-2.78202">
        <ele>1.9</ele>
        <time>2025-01-28T10:01:45Z</time>
      </trkpt>
      <trkpt lat="47.62136" lon="-2.78201">
        <ele>1.9</ele>
        <time>2025-01-28T10:01:46Z</time>
      </trkpt>
      <trkpt lat="47.62135" lon="-2.78202">
        <ele>1.9</ele>
        <time>2025-01-28T10:01:47Z</time>
      </trkpt>
      <trkpt lat="47.62134" lon="-2.78203">
        <ele>2</ele>
        <time>2025-01-28T10:01:48Z</time>
      </trkpt>
      <trkpt lat="47.62134" lon="-2.78205">
        <ele>2.2</ele>
        <time>2025-01-28T10:01:49Z</time>
      </trkpt>
      <trkpt lat="47.62133" lon="-2.78206">
        <ele>2.4</ele>
        <time>2025-01-28T10:01:50Z</time>
      </trkpt>
      <trkpt lat="47.62132" lon="-2.78208">
        <ele>2.4</ele>
        <time>2025-01-28T10:01:51Z</time>
      </trkpt>
      <trkpt lat="47.62132" lon="-2.7821">
        <ele>2.6</ele>
        <time>2025-01-28T10:01:52Z</time>
      </trkpt>
      <trkpt lat="47.62131" lon="-2.78211">
        <ele>2.7</ele>
        <time>2025-01-28T10:01:53Z</time>
      </trkpt>
      <trkpt lat="47.6213" lon="-2.78212">
        <ele>2.8</ele>
        <time>2025-01-28T10:01:54Z</time>
      </trkpt>
      <trkpt lat="47.6213" lon="-2.78213">
        <ele>2.8</ele>
        <time>2025-01-28T10:01:55Z</time>
      </trkpt>
      <trkpt lat="47.62129" lon="-2.78215">
        <ele>2.9</ele>
        <time>2025-01-28T10:01:56Z</time>
      </trkpt>
      <trkpt lat="47.62128" lon="-2.78216">
        <ele>2.9</ele>
        <time>2025-01-28T10:01:57Z</time>
      </trkpt>
      <trkpt lat="47.62128" lon="-2.78218">
        <ele>3</ele>
        <time>2025-01-28T10:01:58Z</time>
      </trkpt>
      <trkpt lat="47.62127" lon="-2.78219">
        <ele>3</ele>
        <time>2025-01-28T10:01:59Z</time>
      </trkpt>
      <trkpt lat="47.62127" lon="-2.78221">
        <ele>3.1</ele>
        <time>2025-01-28T10:02:00Z</time>
      </trkpt>
      <trkpt lat="47.62126" lon="-2.78222">
        <ele>3.1</ele>
        <time>2025-01-28T10:02:01Z</time>
      </trkpt>
      <trkpt lat="47.62126" lon="-2.78224">
        <ele>3.2</ele>
        <time>2025-01-28T10:02:02Z</time>
      </trkpt>
      <trkpt lat="47.62126" lon="-2.78225">
        <ele>3.3</ele>
        <time>2025-01-28T10:02:03Z</time>
      </trkpt>
      <trkpt lat="47.62125" lon="-2.78227">
        <ele>3.3</ele>
        <time>2025-01-28T10:02:04Z</time>
      </trkpt>
      <trkpt lat="47.62125" lon="-2.78228">
        <ele>3.4</ele>
        <time>2025-01-28T10:02:05Z</time>
      </trkpt>
      <trkpt lat="47.62124" lon="-2.7823">
        <ele>3.4</ele>
        <time>2025-01-28T10:02:06Z</time>
      </trkpt>
      <trkpt lat="47.62124" lon="-2.78231">
        <ele>3.5</ele>
        <time>2025-01-28T10:02:07Z</time>
      </trkpt>
      <trkpt lat="47.62124" lon="-2.78233">
        <ele>3.5</ele>
        <time>2025-01-28T10:02:08Z</time>
      </trkpt>
      <trkpt lat="47.62123" lon="-2.78233">
        <ele>3.4</ele>
        <time>2025-01-28T10:02:09Z</time>
      </trkpt>
      <trkpt lat="47.62123" lon="-2.78233">
        <ele>3.5</ele>
        <time>2025-01-28T10:02:10Z</time>
      </trkpt>
      <trkpt lat="47.62122" lon="-2.78233">
        <ele>3.2</ele>
        <time>2025-01-28T10:02:11Z</time>
      </trkpt>
      <trkpt lat="47.62121" lon="-2.78234">
        <ele>3.1</ele>
        <time>2025-01-28T10:02:12Z</time>
      </trkpt>
      <trkpt lat="47.6212" lon="-2.78236">
        <ele>3.1</ele>
        <time>2025-01-28T10:02:13Z</time>
      </trkpt>
      <trkpt lat="47.6212" lon="-2.78237">
        <ele>3.1</ele>
        <time>2025-01-28T10:02:14Z</time>
      </trkpt>
      <trkpt lat="47.62119" lon="-2.78238">
        <ele>3.1</ele>
        <time>2025-01-28T10:02:15Z</time>
      </trkpt>
      <trkpt lat="47.62119" lon="-2.78239">
        <ele>3</ele>
        <time>2025-01-28T10:02:16Z</time>
      </trkpt>
      <trkpt lat="47.62118" lon="-2.78241">
        <ele>3</ele>
        <time>2025-01-28T10:02:17Z</time>
      </trkpt>
      <trkpt lat="47.62118" lon="-2.78243">
        <ele>3</ele>
        <time>2025-01-28T10:02:18Z</time>
      </trkpt>
      <trkpt lat="47.62117" lon="-2.78244">
        <ele>2.9</ele>
        <time>2025-01-28T10:02:19Z</time>
      </trkpt>
      <trkpt lat="47.62116" lon="-2.78245">
        <ele>2.9</ele>
        <time>2025-01-28T10:02:20Z</time>
      </trkpt>
      <trkpt lat="47.62116" lon="-2.78247">
        <ele>2.9</ele>
        <time>2025-01-28T10:02:21Z</time>
      </trkpt>
      <trkpt lat="47.62115" lon="-2.78248">
        <ele>2.8</ele>
        <time>2025-01-28T10:02:22Z</time>
      </trkpt>
      <trkpt lat="47.62115" lon="-2.7825">
        <ele>2.8</ele>
        <time>2025-01-28T10:02:23Z</time>
      </trkpt>
      <trkpt lat="47.62114" lon="-2.78251">
        <ele>2.8</ele>
        <time>2025-01-28T10:02:24Z</time>
      </trkpt>
      <trkpt lat="47.62114" lon="-2.78253">
        <ele>2.8</ele>
        <time>2025-01-28T10:02:25Z</time>
      </trkpt>
      <trkpt lat="47.62113" lon="-2.78254">
        <ele>2.8</ele>
        <time>2025-01-28T10:02:26Z</time>
      </trkpt>
      <trkpt lat="47.62113" lon="-2.78255">
        <ele>2.7</ele>
        <time>2025-01-28T10:02:27Z</time>
      </trkpt>
      <trkpt lat="47.62112" lon="-2.78257">
        <ele>2.7</ele>
        <time>2025-01-28T10:02:28Z</time>
      </trkpt>
      <trkpt lat="47.62112" lon="-2.78258">
        <ele>2.7</ele>
        <time>2025-01-28T10:02:29Z</time>
      </trkpt>
      <trkpt lat="47.62112" lon="-2.7826">
        <ele>2.8</ele>
        <time>2025-01-28T10:02:30Z</time>
      </trkpt>
      <trkpt lat="47.62111" lon="-2.78261">
        <ele>2.9</ele>
        <time>2025-01-28T10:02:31Z</time>
      </trkpt>
      <trkpt lat="47.62111" lon="-2.78263">
        <ele>2.9</ele>
        <time>2025-01-28T10:02:32Z</time>
      </trkpt>
      <trkpt lat="47.62111" lon="-2.78265">
        <ele>3.1</ele>
        <time>2025-01-28T10:02:33Z</time>
      </trkpt>
      <trkpt lat="47.62111" lon="-2.78266">
        <ele>3.2</ele>
        <time>2025-01-28T10:02:34Z</time>
      </trkpt>
      <trkpt lat="47.6211" lon="-2.78267">
        <ele>3.2</ele>
        <time>2025-01-28T10:02:35Z</time>
      </trkpt>
      <trkpt lat="47.6211" lon="-2.78267">
        <ele>3.2</ele>
        <time>2025-01-28T10:02:36Z</time>
      </trkpt>
      <trkpt lat="47.6211" lon="-2.78267">
        <ele>3.2</ele>
        <time>2025-01-28T10:02:37Z</time>
      </trkpt>
      <trkpt lat="47.6211" lon="-2.78268">
        <ele>3.3</ele>
        <time>2025-01-28T10:02:38Z</time>
      </trkpt>
      <trkpt lat="47.6211" lon="-2.78268">
        <ele>3.3</ele>
        <time>2025-01-28T10:02:39Z</time>
      </trkpt>
      <trkpt lat="47.6211" lon="-2.7827">
        <ele>3.5</ele>
        <time>2025-01-28T10:02:40Z</time>
      </trkpt>
      <trkpt lat="47.6211" lon="-2.78272">
        <ele>3.6</ele>
        <time>2025-01-28T10:02:41Z</time>
      </trkpt>
      <trkpt lat="47.6211" lon="-2.78274">
        <ele>3.7</ele>
        <time>2025-01-28T10:02:42Z</time>
      </trkpt>
      <trkpt lat="47.6211" lon="-2.78276">
        <ele>3.8</ele>
        <time>2025-01-28T10:02:43Z</time>
      </trkpt>
      <trkpt lat="47.6211" lon="-2.78278">
        <ele>4</ele>
        <time>2025-01-28T10:02:44Z</time>
      </trkpt>
      <trkpt lat="47.6211" lon="-2.78279">
        <ele>3.9</ele>
        <time>2025-01-28T10:02:45Z</time>
      </trkpt>
      <trkpt lat="47.6211" lon="-2.78281">
        <ele>3.8</ele>
        <time>2025-01-28T10:02:46Z</time>
      </trkpt>
      <trkpt lat="47.62109" lon="-2.78282">
        <ele>3.7</ele>
        <time>2025-01-28T10:02:47Z</time>
      </trkpt>
      <trkpt lat="47.62109" lon="-2.78284">
        <ele>3.6</ele>
        <time>2025-01-28T10:02:48Z</time>
      </trkpt>
      <trkpt lat="47.62108" lon="-2.78285">
        <ele>3.5</ele>
        <time>2025-01-28T10:02:49Z</time>
      </trkpt>
      <trkpt lat="47.62108" lon="-2.78286">
        <ele>3.4</ele>
        <time>2025-01-28T10:02:50Z</time>
      </trkpt>
      <trkpt lat="47.62108" lon="-2.78288">
        <ele>3.3</ele>
        <time>2025-01-28T10:02:51Z</time>
      </trkpt>
      <trkpt lat="47.62108" lon="-2.7829">
        <ele>3.2</ele>
        <time>2025-01-28T10:02:52Z</time>
      </trkpt>
      <trkpt lat="47.62108" lon="-2.78291">
        <ele>3</ele>
        <time>2025-01-28T10:02:53Z</time>
      </trkpt>
      <trkpt lat="47.62107" lon="-2.78293">
        <ele>2.9</ele>
        <time>2025-01-28T10:02:54Z</time>
      </trkpt>
      <trkpt lat="47.62107" lon="-2.78294">
        <ele>2.8</ele>
        <time>2025-01-28T10:02:55Z</time>
      </trkpt>
      <trkpt lat="47.62107" lon="-2.78296">
        <ele>2.7</ele>
        <time>2025-01-28T10:02:56Z</time>
      </trkpt>
      <trkpt lat="47.62107" lon="-2.78297">
        <ele>2.6</ele>
        <time>2025-01-28T10:02:57Z</time>
      </trkpt>
      <trkpt lat="47.62108" lon="-2.78299">
        <ele>2.5</ele>
        <time>2025-01-28T10:02:58Z</time>
      </trkpt>
      <trkpt lat="47.62109" lon="-2.783">
        <ele>2.4</ele>
        <time>2025-01-28T10:02:59Z</time>
      </trkpt>
      <trkpt lat="47.62109" lon="-2.78301">
        <ele>2.3</ele>
        <time>2025-01-28T10:03:00Z</time>
      </trkpt>
      <trkpt lat="47.62111" lon="-2.78301">
        <ele>2.3</ele>
        <time>2025-01-28T10:03:01Z</time>
      </trkpt>
      <trkpt lat="47.62112" lon="-2.78302">
        <ele>2.4</ele>
        <time>2025-01-28T10:03:02Z</time>
      </trkpt>
      <trkpt lat="47.62113" lon="-2.78303">
        <ele>2.5</ele>
        <time>2025-01-28T10:03:03Z</time>
      </trkpt>
      <trkpt lat="47.62114" lon="-2.78304">
        <ele>2.7</ele>
        <time>2025-01-28T10:03:04Z</time>
      </trkpt>
      <trkpt lat="47.62115" lon="-2.78304">
        <ele>2.9</ele>
        <time>2025-01-28T10:03:05Z</time>
      </trkpt>
      <trkpt lat="47.62117" lon="-2.78304">
        <ele>3.3</ele>
        <time>2025-01-28T10:03:06Z</time>
      </trkpt>
      <trkpt lat="47.62118" lon="-2.78304">
        <ele>3.6</ele>
        <time>2025-01-28T10:03:07Z</time>
      </trkpt>
      <trkpt lat="47.62119" lon="-2.78305">
        <ele>3.7</ele>
        <time>2025-01-28T10:03:08Z</time>
      </trkpt>
      <trkpt lat="47.62119" lon="-2.78308">
        <ele>3.9</ele>
        <time>2025-01-28T10:03:09Z</time>
      </trkpt>
      <trkpt lat="47.62119" lon="-2.7831">
        <ele>4.1</ele>
        <time>2025-01-28T10:03:10Z</time>
      </trkpt>
      <trkpt lat="47.62118" lon="-2.78312">
        <ele>4.3</ele>
        <time>2025-01-28T10:03:11Z</time>
      </trkpt>
      <trkpt lat="47.62117" lon="-2.78314">
        <ele>4.4</ele>
        <time>2025-01-28T10:03:12Z</time>
      </trkpt>
      <trkpt lat="47.62116" lon="-2.78315">
        <ele>4.5</ele>
        <time>2025-01-28T10:03:13Z</time>
      </trkpt>
      <trkpt lat="47.62115" lon="-2.78316">
        <ele>4.5</ele>
        <time>2025-01-28T10:03:14Z</time>
      </trkpt>
      <trkpt lat="47.62115" lon="-2.78318">
        <ele>4.7</ele>
        <time>2025-01-28T10:03:15Z</time>
      </trkpt>
      <trkpt lat="47.62114" lon="-2.78319">
        <ele>4.8</ele>
        <time>2025-01-28T10:03:16Z</time>
      </trkpt>
      <trkpt lat="47.62115" lon="-2.78321">
        <ele>5.1</ele>
        <time>2025-01-28T10:03:17Z</time>
      </trkpt>
      <trkpt lat="47.62115" lon="-2.78323">
        <ele>5.4</ele>
        <time>2025-01-28T10:03:18Z</time>
      </trkpt>
      <trkpt lat="47.62116" lon="-2.78324">
        <ele>5.7</ele>
        <time>2025-01-28T10:03:19Z</time>
      </trkpt>
      <trkpt lat="47.62117" lon="-2.78325">
        <ele>5.9</ele>
        <time>2025-01-28T10:03:20Z</time>
      </trkpt>
      <trkpt lat="47.62118" lon="-2.78325">
        <ele>6</ele>
        <time>2025-01-28T10:03:21Z</time>
      </trkpt>
      <trkpt lat="47.62119" lon="-2.78326">
        <ele>6.1</ele>
        <time>2025-01-28T10:03:22Z</time>
      </trkpt>
      <trkpt lat="47.62121" lon="-2.78327">
        <ele>6.3</ele>
        <time>2025-01-28T10:03:23Z</time>
      </trkpt>
      <trkpt lat="47.62121" lon="-2.78328">
        <ele>6.4</ele>
        <time>2025-01-28T10:03:24Z</time>
      </trkpt>
      <trkpt lat="47.62122" lon="-2.78329">
        <ele>6.6</ele>
        <time>2025-01-28T10:03:25Z</time>
      </trkpt>
      <trkpt lat="47.62122" lon="-2.78329">
        <ele>6.6</ele>
        <time>2025-01-28T10:03:26Z</time>
      </trkpt>
      <trkpt lat="47.62123" lon="-2.7833">
        <ele>6.7</ele>
        <time>2025-01-28T10:03:27Z</time>
      </trkpt>
      <trkpt lat="47.62123" lon="-2.78331">
        <ele>6.8</ele>
        <time>2025-01-28T10:03:28Z</time>
      </trkpt>
      <trkpt lat="47.62123" lon="-2.78331">
        <ele>6.8</ele>
        <time>2025-01-28T10:03:29Z</time>
      </trkpt>
      <trkpt lat="47.62124" lon="-2.78331">
        <ele>6.8</ele>
        <time>2025-01-28T10:03:30Z</time>
      </trkpt>
      <trkpt lat="47.62125" lon="-2.7833">
        <ele>6.7</ele>
        <time>2025-01-28T10:03:31Z</time>
      </trkpt>
      <trkpt lat="47.62126" lon="-2.78329">
        <ele>6.7</ele>
        <time>2025-01-28T10:03:32Z</time>
      </trkpt>
      <trkpt lat="47.62126" lon="-2.78328">
        <ele>6.7</ele>
        <time>2025-01-28T10:03:33Z</time>
      </trkpt>
      <trkpt lat="47.62127" lon="-2.78327">
        <ele>6.7</ele>
        <time>2025-01-28T10:03:34Z</time>
      </trkpt>
      <trkpt lat="47.62127" lon="-2.78327">
        <ele>6.7</ele>
        <time>2025-01-28T10:03:35Z</time>
      </trkpt>
      <trkpt lat="47.62128" lon="-2.78329">
        <ele>6.8</ele>
        <time>2025-01-28T10:03:36Z</time>
      </trkpt>
      <trkpt lat="47.62128" lon="-2.7833">
        <ele>6.8</ele>
        <time>2025-01-28T10:03:37Z</time>
      </trkpt>
      <trkpt lat="47.62129" lon="-2.78331">
        <ele>6.9</ele>
        <time>2025-01-28T10:03:38Z</time>
      </trkpt>
      <trkpt lat="47.62129" lon="-2.78333">
        <ele>7</ele>
        <time>2025-01-28T10:03:39Z</time>
      </trkpt>
      <trkpt lat="47.6213" lon="-2.78334">
        <ele>6.9</ele>
        <time>2025-01-28T10:03:40Z</time>
      </trkpt>
      <trkpt lat="47.6213" lon="-2.78336">
        <ele>6.8</ele>
        <time>2025-01-28T10:03:41Z</time>
      </trkpt>
      <trkpt lat="47.6213" lon="-2.78337">
        <ele>6.7</ele>
        <time>2025-01-28T10:03:42Z</time>
      </trkpt>
      <trkpt lat="47.6213" lon="-2.78339">
        <ele>6.6</ele>
        <time>2025-01-28T10:03:43Z</time>
      </trkpt>
      <trkpt lat="47.6213" lon="-2.78341">
        <ele>6.5</ele>
        <time>2025-01-28T10:03:44Z</time>
      </trkpt>
      <trkpt lat="47.6213" lon="-2.78342">
        <ele>6.4</ele>
        <time>2025-01-28T10:03:45Z</time>
      </trkpt>
      <trkpt lat="47.6213" lon="-2.78343">
        <ele>6.3</ele>
        <time>2025-01-28T10:03:46Z</time>
      </trkpt>
      <trkpt lat="47.6213" lon="-2.78344">
        <ele>6.3</ele>
        <time>2025-01-28T10:03:47Z</time>
      </trkpt>
      <trkpt lat="47.62131" lon="-2.78345">
        <ele>6.2</ele>
        <time>2025-01-28T10:03:48Z</time>
      </trkpt>
      <trkpt lat="47.62131" lon="-2.78346">
        <ele>6.1</ele>
        <time>2025-01-28T10:03:49Z</time>
      </trkpt>
      <trkpt lat="47.62132" lon="-2.78347">
        <ele>6.1</ele>
        <time>2025-01-28T10:03:50Z</time>
      </trkpt>
      <trkpt lat="47.62132" lon="-2.78346">
        <ele>6.1</ele>
        <time>2025-01-28T10:03:51Z</time>
      </trkpt>
      <trkpt lat="47.62132" lon="-2.78346">
        <ele>6.1</ele>
        <time>2025-01-28T10:03:52Z</time>
      </trkpt>
      <trkpt lat="47.62132" lon="-2.78346">
        <ele>6.1</ele>
        <time>2025-01-28T10:03:53Z</time>
      </trkpt>
      <trkpt lat="47.62132" lon="-2.78346">
        <ele>6.1</ele>
        <time>2025-01-28T10:03:54Z</time>
      </trkpt>
      <trkpt lat="47.62132" lon="-2.78346">
        <ele>6.1</ele>
        <time>2025-01-28T10:03:55Z</time>
      </trkpt>
      <trkpt lat="47.62132" lon="-2.78346">
        <ele>6.1</ele>
        <time>2025-01-28T10:03:56Z</time>
      </trkpt>
      <trkpt lat="47.62132" lon="-2.78346">
        <ele>6.1</ele>
        <time>2025-01-28T10:03:57Z</time>
      </trkpt>
      <trkpt lat="47.62132" lon="-2.78345">
        <ele>6.1</ele>
        <time>2025-01-28T10:03:58Z</time>
      </trkpt>
      <trkpt lat="47.62132" lon="-2.78345">
        <ele>6.1</ele>
        <time>2025-01-28T10:03:59Z</time>
      </trkpt>
      <trkpt lat="47.62132" lon="-2.78345">
        <ele>6.1</ele>
        <time>2025-01-28T10:04:00Z</time>
      </trkpt>
      <trkpt lat="47.62132" lon="-2.78345">
        <ele>6.1</ele>
        <time>2025-01-28T10:04:01Z</time>
      </trkpt>
      <trkpt lat="47.62132" lon="-2.78346">
        <ele>6.1</ele>
        <time>2025-01-28T10:04:02Z</time>
      </trkpt>
      <trkpt lat="47.62132" lon="-2.78347">
        <ele>6</ele>
        <time>2025-01-28T10:04:03Z</time>
      </trkpt>
      <trkpt lat="47.62132" lon="-2.78348">
        <ele>5.9</ele>
        <time>2025-01-28T10:04:04Z</time>
      </trkpt>
      <trkpt lat="47.62133" lon="-2.7835">
        <ele>5.8</ele>
        <time>2025-01-28T10:04:05Z</time>
      </trkpt>
      <trkpt lat="47.62133" lon="-2.78351">
        <ele>5.7</ele>
        <time>2025-01-28T10:04:06Z</time>
      </trkpt>
      <trkpt lat="47.62134" lon="-2.78353">
        <ele>5.6</ele>
        <time>2025-01-28T10:04:07Z</time>
      </trkpt>
      <trkpt lat="47.62135" lon="-2.78355">
        <ele>5.4</ele>
        <time>2025-01-28T10:04:08Z</time>
      </trkpt>
      <trkpt lat="47.62135" lon="-2.78357">
        <ele>5.3</ele>
        <time>2025-01-28T10:04:09Z</time>
      </trkpt>
      <trkpt lat="47.62135" lon="-2.78359">
        <ele>5.2</ele>
        <time>2025-01-28T10:04:10Z</time>
      </trkpt>
      <trkpt lat="47.62135" lon="-2.7836">
        <ele>5.1</ele>
        <time>2025-01-28T10:04:11Z</time>
      </trkpt>
      <trkpt lat="47.62136" lon="-2.78361">
        <ele>5</ele>
        <time>2025-01-28T10:04:12Z</time>
      </trkpt>
      <trkpt lat="47.62135" lon="-2.78362">
        <ele>4.9</ele>
        <time>2025-01-28T10:04:13Z</time>
      </trkpt>
      <trkpt lat="47.62135" lon="-2.78364">
        <ele>4.7</ele>
        <time>2025-01-28T10:04:14Z</time>
      </trkpt>
      <trkpt lat="47.62135" lon="-2.78365">
        <ele>4.6</ele>
        <time>2025-01-28T10:04:15Z</time>
      </trkpt>
      <trkpt lat="47.62136" lon="-2.78367">
        <ele>4.3</ele>
        <time>2025-01-28T10:04:16Z</time>
      </trkpt>
      <trkpt lat="47.62137" lon="-2.78369">
        <ele>4</ele>
        <time>2025-01-28T10:04:17Z</time>
      </trkpt>
      <trkpt lat="47.62137" lon="-2.78371">
        <ele>3.7</ele>
        <time>2025-01-28T10:04:18Z</time>
      </trkpt>
      <trkpt lat="47.62138" lon="-2.78373">
        <ele>3.4</ele>
        <time>2025-01-28T10:04:19Z</time>
      </trkpt>
      <trkpt lat="47.62138" lon="-2.78374">
        <ele>3.2</ele>
        <time>2025-01-28T10:04:20Z</time>
      </trkpt>
      <trkpt lat="47.62139" lon="-2.78374">
        <ele>3.2</ele>
        <time>2025-01-28T10:04:21Z</time>
      </trkpt>
      <trkpt lat="47.6214" lon="-2.78374">
        <ele>3.3</ele>
        <time>2025-01-28T10:04:22Z</time>
      </trkpt>
      <trkpt lat="47.6214" lon="-2.78375">
        <ele>3.2</ele>
        <time>2025-01-28T10:04:23Z</time>
      </trkpt>
      <trkpt lat="47.62141" lon="-2.78376">
        <ele>3.1</ele>
        <time>2025-01-28T10:04:24Z</time>
      </trkpt>
      <trkpt lat="47.62141" lon="-2.78378">
        <ele>3</ele>
        <time>2025-01-28T10:04:25Z</time>
      </trkpt>
      <trkpt lat="47.62142" lon="-2.78379">
        <ele>3</ele>
        <time>2025-01-28T10:04:26Z</time>
      </trkpt>
      <trkpt lat="47.62143" lon="-2.7838">
        <ele>3</ele>
        <time>2025-01-28T10:04:27Z</time>
      </trkpt>
      <trkpt lat="47.62143" lon="-2.78383">
        <ele>2.8</ele>
        <time>2025-01-28T10:04:28Z</time>
      </trkpt>
      <trkpt lat="47.62144" lon="-2.78384">
        <ele>2.8</ele>
        <time>2025-01-28T10:04:29Z</time>
      </trkpt>
      <trkpt lat="47.62144" lon="-2.78386">
        <ele>2.7</ele>
        <time>2025-01-28T10:04:30Z</time>
      </trkpt>
      <trkpt lat="47.62145" lon="-2.78387">
        <ele>2.7</ele>
        <time>2025-01-28T10:04:31Z</time>
      </trkpt>
      <trkpt lat="47.62145" lon="-2.78387">
        <ele>2.8</ele>
        <time>2025-01-28T10:04:32Z</time>
      </trkpt>
      <trkpt lat="47.62145" lon="-2.78387">
        <ele>2.8</ele>
        <time>2025-01-28T10:04:33Z</time>
      </trkpt>
      <trkpt lat="47.62145" lon="-2.78389">
        <ele>2.6</ele>
        <time>2025-01-28T10:04:34Z</time>
      </trkpt>
      <trkpt lat="47.62146" lon="-2.78391">
        <ele>3</ele>
        <time>2025-01-28T10:04:35Z</time>
      </trkpt>
      <trkpt lat="47.62147" lon="-2.78393">
        <ele>3.5</ele>
        <time>2025-01-28T10:04:36Z</time>
      </trkpt>
      <trkpt lat="47.62147" lon="-2.78393">
        <ele>3.7</ele>
        <time>2025-01-28T10:04:37Z</time>
      </trkpt>
      <trkpt lat="47.62148" lon="-2.78394">
        <ele>4</ele>
        <time>2025-01-28T10:04:38Z</time>
      </trkpt>
      <trkpt lat="47.62148" lon="-2.78395">
        <ele>4.2</ele>
        <time>2025-01-28T10:04:39Z</time>
      </trkpt>
      <trkpt lat="47.62149" lon="-2.78397">
        <ele>4.5</ele>
        <time>2025-01-28T10:04:40Z</time>
      </trkpt>
      <trkpt lat="47.62149" lon="-2.78398">
        <ele>4.8</ele>
        <time>2025-01-28T10:04:41Z</time>
      </trkpt>
      <trkpt lat="47.62149" lon="-2.784">
        <ele>5</ele>
        <time>2025-01-28T10:04:42Z</time>
      </trkpt>
      <trkpt lat="47.6215" lon="-2.78401">
        <ele>5.2</ele>
        <time>2025-01-28T10:04:43Z</time>
      </trkpt>
      <trkpt lat="47.6215" lon="-2.78402">
        <ele>5.4</ele>
        <time>2025-01-28T10:04:44Z</time>
      </trkpt>
      <trkpt lat="47.62151" lon="-2.78404">
        <ele>5.6</ele>
        <time>2025-01-28T10:04:45Z</time>
      </trkpt>
      <trkpt lat="47.62151" lon="-2.78405">
        <ele>5.8</ele>
        <time>2025-01-28T10:04:46Z</time>
      </trkpt>
      <trkpt lat="47.6215" lon="-2.78403">
        <ele>5.5</ele>
        <time>2025-01-28T10:04:47Z</time>
      </trkpt>
      <trkpt lat="47.6215" lon="-2.78403">
        <ele>5.4</ele>
        <time>2025-01-28T10:04:48Z</time>
      </trkpt>
      <trkpt lat="47.6215" lon="-2.78402">
        <ele>5.3</ele>
        <time>2025-01-28T10:04:49Z</time>
      </trkpt>
      <trkpt lat="47.6215" lon="-2.78403">
        <ele>5.4</ele>
        <time>2025-01-28T10:04:50Z</time>
      </trkpt>
      <trkpt lat="47.6215" lon="-2.78404">
        <ele>5.5</ele>
        <time>2025-01-28T10:04:51Z</time>
      </trkpt>
      <trkpt lat="47.6215" lon="-2.78405">
        <ele>5.7</ele>
        <time>2025-01-28T10:04:52Z</time>
      </trkpt>
      <trkpt lat="47.62151" lon="-2.78407">
        <ele>5.9</ele>
        <time>2025-01-28T10:04:53Z</time>
      </trkpt>
      <trkpt lat="47.62151" lon="-2.78408">
        <ele>6.2</ele>
        <time>2025-01-28T10:04:54Z</time>
      </trkpt>
      <trkpt lat="47.62152" lon="-2.78411">
        <ele>6.5</ele>
        <time>2025-01-28T10:04:55Z</time>
      </trkpt>
      <trkpt lat="47.62153" lon="-2.78414">
        <ele>6.7</ele>
        <time>2025-01-28T10:04:56Z</time>
      </trkpt>
      <trkpt lat="47.62154" lon="-2.78416">
        <ele>7</ele>
        <time>2025-01-28T10:04:57Z</time>
      </trkpt>
      <trkpt lat="47.62154" lon="-2.78419">
        <ele>6.7</ele>
        <time>2025-01-28T10:04:58Z</time>
      </trkpt>
      <trkpt lat="47.62154" lon="-2.7842">
        <ele>6.6</ele>
        <time>2025-01-28T10:04:59Z</time>
      </trkpt>
      <trkpt lat="47.62155" lon="-2.78421">
        <ele>6.3</ele>
        <time>2025-01-28T10:05:00Z</time>
      </trkpt>
      <trkpt lat="47.62155" lon="-2.78423">
        <ele>6.1</ele>
        <time>2025-01-28T10:05:01Z</time>
      </trkpt>
      <trkpt lat="47.62156" lon="-2.78425">
        <ele>5.9</ele>
        <time>2025-01-28T10:05:02Z</time>
      </trkpt>
      <trkpt lat="47.62157" lon="-2.78426">
        <ele>5.7</ele>
        <time>2025-01-28T10:05:03Z</time>
      </trkpt>
      <trkpt lat="47.62158" lon="-2.78427">
        <ele>5.5</ele>
        <time>2025-01-28T10:05:04Z</time>
      </trkpt>
      <trkpt lat="47.62159" lon="-2.78427">
        <ele>5.5</ele>
        <time>2025-01-28T10:05:05Z</time>
      </trkpt>
      <trkpt lat="47.62161" lon="-2.78428">
        <ele>5.4</ele>
        <time>2025-01-28T10:05:06Z</time>
      </trkpt>
      <trkpt lat="47.62162" lon="-2.7843">
        <ele>5.1</ele>
        <time>2025-01-28T10:05:07Z</time>
      </trkpt>
      <trkpt lat="47.62163" lon="-2.78431">
        <ele>4.9</ele>
        <time>2025-01-28T10:05:08Z</time>
      </trkpt>
      <trkpt lat="47.62164" lon="-2.78433">
        <ele>4.6</ele>
        <time>2025-01-28T10:05:09Z</time>
      </trkpt>
      <trkpt lat="47.62164" lon="-2.78435">
        <ele>4.4</ele>
        <time>2025-01-28T10:05:10Z</time>
      </trkpt>
      <trkpt lat="47.62165" lon="-2.78437">
        <ele>4.1</ele>
        <time>2025-01-28T10:05:11Z</time>
      </trkpt>
      <trkpt lat="47.62166" lon="-2.78439">
        <ele>3.8</ele>
        <time>2025-01-28T10:05:12Z</time>
      </trkpt>
      <trkpt lat="47.62166" lon="-2.78441">
        <ele>3.5</ele>
        <time>2025-01-28T10:05:13Z</time>
      </trkpt>
      <trkpt lat="47.62167" lon="-2.78443">
        <ele>3.2</ele>
        <time>2025-01-28T10:05:14Z</time>
      </trkpt>
      <trkpt lat="47.62167" lon="-2.78445">
        <ele>3.1</ele>
        <time>2025-01-28T10:05:15Z</time>
      </trkpt>
      <trkpt lat="47.62168" lon="-2.78446">
        <ele>3.2</ele>
        <time>2025-01-28T10:05:16Z</time>
      </trkpt>
      <trkpt lat="47.62169" lon="-2.78447">
        <ele>3.3</ele>
        <time>2025-01-28T10:05:17Z</time>
      </trkpt>
      <trkpt lat="47.62169" lon="-2.78449">
        <ele>3.3</ele>
        <time>2025-01-28T10:05:18Z</time>
      </trkpt>
      <trkpt lat="47.6217" lon="-2.78451">
        <ele>3.3</ele>
        <time>2025-01-28T10:05:19Z</time>
      </trkpt>
      <trkpt lat="47.62171" lon="-2.78453">
        <ele>3.3</ele>
        <time>2025-01-28T10:05:20Z</time>
      </trkpt>
      <trkpt lat="47.62171" lon="-2.78454">
        <ele>3.3</ele>
        <time>2025-01-28T10:05:21Z</time>
      </trkpt>
      <trkpt lat="47.62172" lon="-2.78455">
        <ele>3.4</ele>
        <time>2025-01-28T10:05:22Z</time>
      </trkpt>
      <trkpt lat="47.62172" lon="-2.78457">
        <ele>3.4</ele>
        <time>2025-01-28T10:05:23Z</time>
      </trkpt>
      <trkpt lat="47.62173" lon="-2.78458">
        <ele>3.4</ele>
        <time>2025-01-28T10:05:24Z</time>
      </trkpt>
      <trkpt lat="47.62173" lon="-2.7846">
        <ele>3.5</ele>
        <time>2025-01-28T10:05:25Z</time>
      </trkpt>
      <trkpt lat="47.62174" lon="-2.78461">
        <ele>3.4</ele>
        <time>2025-01-28T10:05:26Z</time>
      </trkpt>
      <trkpt lat="47.62174" lon="-2.78463">
        <ele>3.4</ele>
        <time>2025-01-28T10:05:27Z</time>
      </trkpt>
      <trkpt lat="47.62174" lon="-2.78464">
        <ele>3.4</ele>
        <time>2025-01-28T10:05:28Z</time>
      </trkpt>
      <trkpt lat="47.62174" lon="-2.78465">
        <ele>3.4</ele>
        <time>2025-01-28T10:05:29Z</time>
      </trkpt>
      <trkpt lat="47.62173" lon="-2.78466">
        <ele>3</ele>
        <time>2025-01-28T10:05:30Z</time>
      </trkpt>
      <trkpt lat="47.62172" lon="-2.78467">
        <ele>2.7</ele>
        <time>2025-01-28T10:05:31Z</time>
      </trkpt>
      <trkpt lat="47.62172" lon="-2.78468">
        <ele>2.7</ele>
        <time>2025-01-28T10:05:32Z</time>
      </trkpt>
      <trkpt lat="47.62173" lon="-2.7847">
        <ele>2.6</ele>
        <time>2025-01-28T10:05:33Z</time>
      </trkpt>
      <trkpt lat="47.62173" lon="-2.78471">
        <ele>2.6</ele>
        <time>2025-01-28T10:05:34Z</time>
      </trkpt>
      <trkpt lat="47.62173" lon="-2.78472">
        <ele>2.7</ele>
        <time>2025-01-28T10:05:35Z</time>
      </trkpt>
      <trkpt lat="47.62174" lon="-2.78472">
        <ele>2.9</ele>
        <time>2025-01-28T10:05:36Z</time>
      </trkpt>
      <trkpt lat="47.62175" lon="-2.78474">
        <ele>3</ele>
        <time>2025-01-28T10:05:37Z</time>
      </trkpt>
      <trkpt lat="47.62175" lon="-2.78475">
        <ele>3.1</ele>
        <time>2025-01-28T10:05:38Z</time>
      </trkpt>
      <trkpt lat="47.62176" lon="-2.78476">
        <ele>3.3</ele>
        <time>2025-01-28T10:05:39Z</time>
      </trkpt>
      <trkpt lat="47.62176" lon="-2.78478">
        <ele>3.4</ele>
        <time>2025-01-28T10:05:40Z</time>
      </trkpt>
      <trkpt lat="47.62177" lon="-2.78479">
        <ele>3.5</ele>
        <time>2025-01-28T10:05:41Z</time>
      </trkpt>
      <trkpt lat="47.62178" lon="-2.7848">
        <ele>3.6</ele>
        <time>2025-01-28T10:05:42Z</time>
      </trkpt>
      <trkpt lat="47.62178" lon="-2.78481">
        <ele>3.8</ele>
        <time>2025-01-28T10:05:43Z</time>
      </trkpt>
      <trkpt lat="47.62179" lon="-2.78482">
        <ele>3.8</ele>
        <time>2025-01-28T10:05:44Z</time>
      </trkpt>
      <trkpt lat="47.62179" lon="-2.78483">
        <ele>3.9</ele>
        <time>2025-01-28T10:05:45Z</time>
      </trkpt>
      <trkpt lat="47.62179" lon="-2.78485">
        <ele>3.9</ele>
        <time>2025-01-28T10:05:46Z</time>
      </trkpt>
      <trkpt lat="47.62179" lon="-2.78487">
        <ele>3.9</ele>
        <time>2025-01-28T10:05:47Z</time>
      </trkpt>
      <trkpt lat="47.62179" lon="-2.78488">
        <ele>3.9</ele>
        <time>2025-01-28T10:05:48Z</time>
      </trkpt>
      <trkpt lat="47.6218" lon="-2.7849">
        <ele>3.9</ele>
        <time>2025-01-28T10:05:49Z</time>
      </trkpt>
      <trkpt lat="47.6218" lon="-2.78492">
        <ele>3.9</ele>
        <time>2025-01-28T10:05:50Z</time>
      </trkpt>
      <trkpt lat="47.6218" lon="-2.78494">
        <ele>3.9</ele>
        <time>2025-01-28T10:05:51Z</time>
      </trkpt>
      <trkpt lat="47.6218" lon="-2.78496">
        <ele>4</ele>
        <time>2025-01-28T10:05:52Z</time>
      </trkpt>
      <trkpt lat="47.62181" lon="-2.78497">
        <ele>4.1</ele>
        <time>2025-01-28T10:05:53Z</time>
      </trkpt>
      <trkpt lat="47.62181" lon="-2.78499">
        <ele>4.1</ele>
        <time>2025-01-28T10:05:54Z</time>
      </trkpt>
      <trkpt lat="47.62182" lon="-2.78501">
        <ele>4.2</ele>
        <time>2025-01-28T10:05:55Z</time>
      </trkpt>
      <trkpt lat="47.62182" lon="-2.78502">
        <ele>4.1</ele>
        <time>2025-01-28T10:05:56Z</time>
      </trkpt>
      <trkpt lat="47.62181" lon="-2.78504">
        <ele>3.8</ele>
        <time>2025-01-28T10:05:57Z</time>
      </trkpt>
      <trkpt lat="47.6218" lon="-2.78506">
        <ele>3.7</ele>
        <time>2025-01-28T10:05:58Z</time>
      </trkpt>
      <trkpt lat="47.6218" lon="-2.78507">
        <ele>3.6</ele>
        <time>2025-01-28T10:05:59Z</time>
      </trkpt>
      <trkpt lat="47.6218" lon="-2.78509">
        <ele>3.5</ele>
        <time>2025-01-28T10:06:00Z</time>
      </trkpt>
      <trkpt lat="47.6218" lon="-2.78511">
        <ele>3.5</ele>
        <time>2025-01-28T10:06:01Z</time>
      </trkpt>
      <trkpt lat="47.62181" lon="-2.78513">
        <ele>3.5</ele>
        <time>2025-01-28T10:06:02Z</time>
      </trkpt>
      <trkpt lat="47.62181" lon="-2.78514">
        <ele>3.6</ele>
        <time>2025-01-28T10:06:03Z</time>
      </trkpt>
      <trkpt lat="47.62181" lon="-2.78515">
        <ele>3.6</ele>
        <time>2025-01-28T10:06:04Z</time>
      </trkpt>
      <trkpt lat="47.62181" lon="-2.78516">
        <ele>3.6</ele>
        <time>2025-01-28T10:06:05Z</time>
      </trkpt>
      <trkpt lat="47.62181" lon="-2.78518">
        <ele>3.5</ele>
        <time>2025-01-28T10:06:06Z</time>
      </trkpt>
      <trkpt lat="47.62181" lon="-2.78519">
        <ele>3.4</ele>
        <time>2025-01-28T10:06:07Z</time>
      </trkpt>
      <trkpt lat="47.62181" lon="-2.78521">
        <ele>3.3</ele>
        <time>2025-01-28T10:06:08Z</time>
      </trkpt>
      <trkpt lat="47.62181" lon="-2.78522">
        <ele>3.3</ele>
        <time>2025-01-28T10:06:09Z</time>
      </trkpt>
      <trkpt lat="47.62181" lon="-2.78523">
        <ele>3.2</ele>
        <time>2025-01-28T10:06:10Z</time>
      </trkpt>
      <trkpt lat="47.62181" lon="-2.78525">
        <ele>3.2</ele>
        <time>2025-01-28T10:06:11Z</time>
      </trkpt>
      <trkpt lat="47.62182" lon="-2.78527">
        <ele>3.2</ele>
        <time>2025-01-28T10:06:12Z</time>
      </trkpt>
      <trkpt lat="47.62182" lon="-2.78528">
        <ele>3.2</ele>
        <time>2025-01-28T10:06:13Z</time>
      </trkpt>
      <trkpt lat="47.62182" lon="-2.7853">
        <ele>3.2</ele>
        <time>2025-01-28T10:06:14Z</time>
      </trkpt>
      <trkpt lat="47.62182" lon="-2.78532">
        <ele>3.2</ele>
        <time>2025-01-28T10:06:15Z</time>
      </trkpt>
      <trkpt lat="47.62182" lon="-2.78533">
        <ele>3.2</ele>
        <time>2025-01-28T10:06:16Z</time>
      </trkpt>
      <trkpt lat="47.62182" lon="-2.78535">
        <ele>3.2</ele>
        <time>2025-01-28T10:06:17Z</time>
      </trkpt>
      <trkpt lat="47.62182" lon="-2.78537">
        <ele>3.2</ele>
        <time>2025-01-28T10:06:18Z</time>
      </trkpt>
      <trkpt lat="47.62182" lon="-2.78539">
        <ele>3.2</ele>
        <time>2025-01-28T10:06:19Z</time>
      </trkpt>
      <trkpt lat="47.62182" lon="-2.7854">
        <ele>3.2</ele>
        <time>2025-01-28T10:06:20Z</time>
      </trkpt>
      <trkpt lat="47.62182" lon="-2.78542">
        <ele>3.3</ele>
        <time>2025-01-28T10:06:21Z</time>
      </trkpt>
      <trkpt lat="47.62182" lon="-2.78544">
        <ele>3.3</ele>
        <time>2025-01-28T10:06:22Z</time>
      </trkpt>
      <trkpt lat="47.62183" lon="-2.78546">
        <ele>3.3</ele>
        <time>2025-01-28T10:06:23Z</time>
      </trkpt>
      <trkpt lat="47.62183" lon="-2.78547">
        <ele>3.4</ele>
        <time>2025-01-28T10:06:24Z</time>
      </trkpt>
      <trkpt lat="47.62183" lon="-2.78549">
        <ele>3.4</ele>
        <time>2025-01-28T10:06:25Z</time>
      </trkpt>
      <trkpt lat="47.62183" lon="-2.78551">
        <ele>3.4</ele>
        <time>2025-01-28T10:06:26Z</time>
      </trkpt>
      <trkpt lat="47.62183" lon="-2.78553">
        <ele>3.4</ele>
        <time>2025-01-28T10:06:27Z</time>
      </trkpt>
      <trkpt lat="47.62183" lon="-2.78555">
        <ele>3.4</ele>
        <time>2025-01-28T10:06:28Z</time>
      </trkpt>
      <trkpt lat="47.62184" lon="-2.78557">
        <ele>3.4</ele>
        <time>2025-01-28T10:06:29Z</time>
      </trkpt>
      <trkpt lat="47.62184" lon="-2.78559">
        <ele>3.4</ele>
        <time>2025-01-28T10:06:30Z</time>
      </trkpt>
      <trkpt lat="47.62184" lon="-2.78561">
        <ele>3.4</ele>
        <time>2025-01-28T10:06:31Z</time>
      </trkpt>
      <trkpt lat="47.62184" lon="-2.78562">
        <ele>3.4</ele>
        <time>2025-01-28T10:06:32Z</time>
      </trkpt>
      <trkpt lat="47.62185" lon="-2.78564">
        <ele>3.4</ele>
        <time>2025-01-28T10:06:33Z</time>
      </trkpt>
      <trkpt lat="47.62185" lon="-2.78566">
        <ele>3.4</ele>
        <time>2025-01-28T10:06:34Z</time>
      </trkpt>
      <trkpt lat="47.62185" lon="-2.78568">
        <ele>3.3</ele>
        <time>2025-01-28T10:06:35Z</time>
      </trkpt>
      <trkpt lat="47.62185" lon="-2.7857">
        <ele>3.2</ele>
        <time>2025-01-28T10:06:36Z</time>
      </trkpt>
      <trkpt lat="47.62184" lon="-2.78572">
        <ele>3.2</ele>
        <time>2025-01-28T10:06:37Z</time>
      </trkpt>
      <trkpt lat="47.62184" lon="-2.78574">
        <ele>3.1</ele>
        <time>2025-01-28T10:06:38Z</time>
      </trkpt>
      <trkpt lat="47.62184" lon="-2.78576">
        <ele>3.1</ele>
        <time>2025-01-28T10:06:39Z</time>
      </trkpt>
      <trkpt lat="47.62184" lon="-2.78577">
        <ele>3</ele>
        <time>2025-01-28T10:06:40Z</time>
      </trkpt>
      <trkpt lat="47.62184" lon="-2.78579">
        <ele>3</ele>
        <time>2025-01-28T10:06:41Z</time>
      </trkpt>
      <trkpt lat="47.62185" lon="-2.78581">
        <ele>3</ele>
        <time>2025-01-28T10:06:42Z</time>
      </trkpt>
      <trkpt lat="47.62185" lon="-2.78583">
        <ele>2.9</ele>
        <time>2025-01-28T10:06:43Z</time>
      </trkpt>
      <trkpt lat="47.62185" lon="-2.78585">
        <ele>3</ele>
        <time>2025-01-28T10:06:44Z</time>
      </trkpt>
      <trkpt lat="47.62185" lon="-2.78586">
        <ele>3</ele>
        <time>2025-01-28T10:06:45Z</time>
      </trkpt>
      <trkpt lat="47.62185" lon="-2.78588">
        <ele>3.1</ele>
        <time>2025-01-28T10:06:46Z</time>
      </trkpt>
      <trkpt lat="47.62185" lon="-2.7859">
        <ele>3.1</ele>
        <time>2025-01-28T10:06:47Z</time>
      </trkpt>
      <trkpt lat="47.62185" lon="-2.78592">
        <ele>3.2</ele>
        <time>2025-01-28T10:06:48Z</time>
      </trkpt>
      <trkpt lat="47.62185" lon="-2.78594">
        <ele>3.2</ele>
        <time>2025-01-28T10:06:49Z</time>
      </trkpt>
      <trkpt lat="47.62185" lon="-2.78596">
        <ele>3.2</ele>
        <time>2025-01-28T10:06:50Z</time>
      </trkpt>
      <trkpt lat="47.62184" lon="-2.78598">
        <ele>3.2</ele>
        <time>2025-01-28T10:06:51Z</time>
      </trkpt>
      <trkpt lat="47.62184" lon="-2.786">
        <ele>3.3</ele>
        <time>2025-01-28T10:06:52Z</time>
      </trkpt>
      <trkpt lat="47.62184" lon="-2.78603">
        <ele>3.3</ele>
        <time>2025-01-28T10:06:53Z</time>
      </trkpt>
      <trkpt lat="47.62184" lon="-2.78605">
        <ele>3.3</ele>
        <time>2025-01-28T10:06:54Z</time>
      </trkpt>
      <trkpt lat="47.62184" lon="-2.78607">
        <ele>3.4</ele>
        <time>2025-01-28T10:06:55Z</time>
      </trkpt>
      <trkpt lat="47.62184" lon="-2.78609">
        <ele>3.4</ele>
        <time>2025-01-28T10:06:56Z</time>
      </trkpt>
      <trkpt lat="47.62184" lon="-2.7861">
        <ele>3.4</ele>
        <time>2025-01-28T10:06:57Z</time>
      </trkpt>
      <trkpt lat="47.62184" lon="-2.78612">
        <ele>3.5</ele>
        <time>2025-01-28T10:06:58Z</time>
      </trkpt>
      <trkpt lat="47.62183" lon="-2.78614">
        <ele>3.4</ele>
        <time>2025-01-28T10:06:59Z</time>
      </trkpt>
      <trkpt lat="47.62182" lon="-2.78615">
        <ele>3.4</ele>
        <time>2025-01-28T10:07:00Z</time>
      </trkpt>
      <trkpt lat="47.62182" lon="-2.78617">
        <ele>3.3</ele>
        <time>2025-01-28T10:07:01Z</time>
      </trkpt>
      <trkpt lat="47.62181" lon="-2.78619">
        <ele>3.3</ele>
        <time>2025-01-28T10:07:02Z</time>
      </trkpt>
      <trkpt lat="47.62181" lon="-2.7862">
        <ele>3.3</ele>
        <time>2025-01-28T10:07:03Z</time>
      </trkpt>
      <trkpt lat="47.6218" lon="-2.78622">
        <ele>3.3</ele>
        <time>2025-01-28T10:07:04Z</time>
      </trkpt>
      <trkpt lat="47.62179" lon="-2.78623">
        <ele>3.3</ele>
        <time>2025-01-28T10:07:05Z</time>
      </trkpt>
      <trkpt lat="47.62178" lon="-2.78624">
        <ele>3.2</ele>
        <time>2025-01-28T10:07:06Z</time>
      </trkpt>
      <trkpt lat="47.62177" lon="-2.78626">
        <ele>3.2</ele>
        <time>2025-01-28T10:07:07Z</time>
      </trkpt>
      <trkpt lat="47.62176" lon="-2.78627">
        <ele>3.1</ele>
        <time>2025-01-28T10:07:08Z</time>
      </trkpt>
      <trkpt lat="47.62175" lon="-2.78628">
        <ele>3.1</ele>
        <time>2025-01-28T10:07:09Z</time>
      </trkpt>
      <trkpt lat="47.62175" lon="-2.78629">
        <ele>3</ele>
        <time>2025-01-28T10:07:10Z</time>
      </trkpt>
      <trkpt lat="47.62174" lon="-2.7863">
        <ele>3</ele>
        <time>2025-01-28T10:07:11Z</time>
      </trkpt>
      <trkpt lat="47.62173" lon="-2.78631">
        <ele>3</ele>
        <time>2025-01-28T10:07:12Z</time>
      </trkpt>
      <trkpt lat="47.62172" lon="-2.78632">
        <ele>3</ele>
        <time>2025-01-28T10:07:13Z</time>
      </trkpt>
      <trkpt lat="47.62171" lon="-2.78633">
        <ele>2.9</ele>
        <time>2025-01-28T10:07:14Z</time>
      </trkpt>
      <trkpt lat="47.6217" lon="-2.78633">
        <ele>2.9</ele>
        <time>2025-01-28T10:07:15Z</time>
      </trkpt>
      <trkpt lat="47.62169" lon="-2.78634">
        <ele>2.8</ele>
        <time>2025-01-28T10:07:16Z</time>
      </trkpt>
      <trkpt lat="47.62167" lon="-2.78634">
        <ele>2.7</ele>
        <time>2025-01-28T10:07:17Z</time>
      </trkpt>
      <trkpt lat="47.62167" lon="-2.78634">
        <ele>2.7</ele>
        <time>2025-01-28T10:07:18Z</time>
      </trkpt>
      <trkpt lat="47.62167" lon="-2.78635">
        <ele>2.7</ele>
        <time>2025-01-28T10:07:19Z</time>
      </trkpt>
      <trkpt lat="47.62166" lon="-2.78636">
        <ele>2.7</ele>
        <time>2025-01-28T10:07:20Z</time>
      </trkpt>
      <trkpt lat="47.62165" lon="-2.78637">
        <ele>2.8</ele>
        <time>2025-01-28T10:07:21Z</time>
      </trkpt>
      <trkpt lat="47.62165" lon="-2.78638">
        <ele>2.8</ele>
        <time>2025-01-28T10:07:22Z</time>
      </trkpt>
      <trkpt lat="47.62163" lon="-2.78639">
        <ele>2.7</ele>
        <time>2025-01-28T10:07:23Z</time>
      </trkpt>
      <trkpt lat="47.62162" lon="-2.78639">
        <ele>2.7</ele>
        <time>2025-01-28T10:07:24Z</time>
      </trkpt>
      <trkpt lat="47.62161" lon="-2.7864">
        <ele>2.7</ele>
        <time>2025-01-28T10:07:25Z</time>
      </trkpt>
      <trkpt lat="47.6216" lon="-2.78641">
        <ele>2.6</ele>
        <time>2025-01-28T10:07:26Z</time>
      </trkpt>
      <trkpt lat="47.62159" lon="-2.78641">
        <ele>2.6</ele>
        <time>2025-01-28T10:07:27Z</time>
      </trkpt>
      <trkpt lat="47.62158" lon="-2.78642">
        <ele>2.6</ele>
        <time>2025-01-28T10:07:28Z</time>
      </trkpt>
      <trkpt lat="47.62157" lon="-2.78643">
        <ele>2.5</ele>
        <time>2025-01-28T10:07:29Z</time>
      </trkpt>
      <trkpt lat="47.62156" lon="-2.78643">
        <ele>2.5</ele>
        <time>2025-01-28T10:07:30Z</time>
      </trkpt>
      <trkpt lat="47.62155" lon="-2.78644">
        <ele>2.5</ele>
        <time>2025-01-28T10:07:31Z</time>
      </trkpt>
      <trkpt lat="47.62154" lon="-2.78645">
        <ele>2.5</ele>
        <time>2025-01-28T10:07:32Z</time>
      </trkpt>
      <trkpt lat="47.62153" lon="-2.78646">
        <ele>2.5</ele>
        <time>2025-01-28T10:07:33Z</time>
      </trkpt>
      <trkpt lat="47.62152" lon="-2.78646">
        <ele>2.5</ele>
        <time>2025-01-28T10:07:34Z</time>
      </trkpt>
      <trkpt lat="47.62152" lon="-2.78648">
        <ele>2.6</ele>
        <time>2025-01-28T10:07:35Z</time>
      </trkpt>
      <trkpt lat="47.62151" lon="-2.78648">
        <ele>2.6</ele>
        <time>2025-01-28T10:07:36Z</time>
      </trkpt>
      <trkpt lat="47.62152" lon="-2.7865">
        <ele>2.8</ele>
        <time>2025-01-28T10:07:37Z</time>
      </trkpt>
      <trkpt lat="47.62152" lon="-2.78652">
        <ele>2.9</ele>
        <time>2025-01-28T10:07:38Z</time>
      </trkpt>
      <trkpt lat="47.62152" lon="-2.78653">
        <ele>3</ele>
        <time>2025-01-28T10:07:39Z</time>
      </trkpt>
      <trkpt lat="47.62152" lon="-2.78654">
        <ele>3.1</ele>
        <time>2025-01-28T10:07:40Z</time>
      </trkpt>
      <trkpt lat="47.62152" lon="-2.78655">
        <ele>3.1</ele>
        <time>2025-01-28T10:07:41Z</time>
      </trkpt>
      <trkpt lat="47.62152" lon="-2.78656">
        <ele>3.2</ele>
        <time>2025-01-28T10:07:42Z</time>
      </trkpt>
      <trkpt lat="47.62152" lon="-2.78657">
        <ele>3.3</ele>
        <time>2025-01-28T10:07:43Z</time>
      </trkpt>
      <trkpt lat="47.62151" lon="-2.78657">
        <ele>3.3</ele>
        <time>2025-01-28T10:07:44Z</time>
      </trkpt>
      <trkpt lat="47.62151" lon="-2.78658">
        <ele>3.3</ele>
        <time>2025-01-28T10:07:45Z</time>
      </trkpt>
      <trkpt lat="47.62149" lon="-2.78658">
        <ele>3.3</ele>
        <time>2025-01-28T10:07:46Z</time>
      </trkpt>
      <trkpt lat="47.62148" lon="-2.78657">
        <ele>3.2</ele>
        <time>2025-01-28T10:07:47Z</time>
      </trkpt>
      <trkpt lat="47.62147" lon="-2.78658">
        <ele>3.2</ele>
        <time>2025-01-28T10:07:48Z</time>
      </trkpt>
      <trkpt lat="47.62147" lon="-2.78658">
        <ele>3.3</ele>
        <time>2025-01-28T10:07:49Z</time>
      </trkpt>
      <trkpt lat="47.62147" lon="-2.78659">
        <ele>3.3</ele>
        <time>2025-01-28T10:07:50Z</time>
      </trkpt>
      <trkpt lat="47.62146" lon="-2.7866">
        <ele>3.4</ele>
        <time>2025-01-28T10:07:51Z</time>
      </trkpt>
      <trkpt lat="47.62145" lon="-2.7866">
        <ele>3.4</ele>
        <time>2025-01-28T10:07:52Z</time>
      </trkpt>
      <trkpt lat="47.62144" lon="-2.7866">
        <ele>3.4</ele>
        <time>2025-01-28T10:07:53Z</time>
      </trkpt>
      <trkpt lat="47.62144" lon="-2.78661">
        <ele>3.5</ele>
        <time>2025-01-28T10:07:54Z</time>
      </trkpt>
      <trkpt lat="47.62143" lon="-2.78662">
        <ele>3.6</ele>
        <time>2025-01-28T10:07:55Z</time>
      </trkpt>
      <trkpt lat="47.62142" lon="-2.78663">
        <ele>3.6</ele>
        <time>2025-01-28T10:07:56Z</time>
      </trkpt>
      <trkpt lat="47.62141" lon="-2.78663">
        <ele>3.6</ele>
        <time>2025-01-28T10:07:57Z</time>
      </trkpt>
      <trkpt lat="47.6214" lon="-2.78663">
        <ele>3.7</ele>
        <time>2025-01-28T10:07:58Z</time>
      </trkpt>
      <trkpt lat="47.62139" lon="-2.78665">
        <ele>3.8</ele>
        <time>2025-01-28T10:07:59Z</time>
      </trkpt>
      <trkpt lat="47.62138" lon="-2.78666">
        <ele>3.8</ele>
        <time>2025-01-28T10:08:00Z</time>
      </trkpt>
      <trkpt lat="47.62137" lon="-2.78667">
        <ele>3.8</ele>
        <time>2025-01-28T10:08:01Z</time>
      </trkpt>
      <trkpt lat="47.62137" lon="-2.78668">
        <ele>3.8</ele>
        <time>2025-01-28T10:08:02Z</time>
      </trkpt>
      <trkpt lat="47.62136" lon="-2.78669">
        <ele>3.8</ele>
        <time>2025-01-28T10:08:03Z</time>
      </trkpt>
      <trkpt lat="47.62135" lon="-2.7867">
        <ele>3.7</ele>
        <time>2025-01-28T10:08:04Z</time>
      </trkpt>
      <trkpt lat="47.62134" lon="-2.78671">
        <ele>3.7</ele>
        <time>2025-01-28T10:08:05Z</time>
      </trkpt>
      <trkpt lat="47.62133" lon="-2.78671">
        <ele>3.6</ele>
        <time>2025-01-28T10:08:06Z</time>
      </trkpt>
      <trkpt lat="47.62132" lon="-2.78672">
        <ele>3.6</ele>
        <time>2025-01-28T10:08:07Z</time>
      </trkpt>
      <trkpt lat="47.62132" lon="-2.78674">
        <ele>3.6</ele>
        <time>2025-01-28T10:08:08Z</time>
      </trkpt>
      <trkpt lat="47.62131" lon="-2.78674">
        <ele>3.6</ele>
        <time>2025-01-28T10:08:09Z</time>
      </trkpt>
      <trkpt lat="47.6213" lon="-2.78675">
        <ele>3.5</ele>
        <time>2025-01-28T10:08:10Z</time>
      </trkpt>
      <trkpt lat="47.62129" lon="-2.78675">
        <ele>3.5</ele>
        <time>2025-01-28T10:08:11Z</time>
      </trkpt>
      <trkpt lat="47.62128" lon="-2.78676">
        <ele>3.4</ele>
        <time>2025-01-28T10:08:12Z</time>
      </trkpt>
      <trkpt lat="47.62128" lon="-2.78677">
        <ele>3.4</ele>
        <time>2025-01-28T10:08:13Z</time>
      </trkpt>
      <trkpt lat="47.62127" lon="-2.78678">
        <ele>3.4</ele>
        <time>2025-01-28T10:08:14Z</time>
      </trkpt>
      <trkpt lat="47.62126" lon="-2.78679">
        <ele>3.5</ele>
        <time>2025-01-28T10:08:15Z</time>
      </trkpt>
      <trkpt lat="47.62125" lon="-2.7868">
        <ele>3.5</ele>
        <time>2025-01-28T10:08:16Z</time>
      </trkpt>
      <trkpt lat="47.62125" lon="-2.78681">
        <ele>3.5</ele>
        <time>2025-01-28T10:08:17Z</time>
      </trkpt>
      <trkpt lat="47.62124" lon="-2.78682">
        <ele>3.5</ele>
        <time>2025-01-28T10:08:18Z</time>
      </trkpt>
      <trkpt lat="47.62123" lon="-2.78682">
        <ele>3.5</ele>
        <time>2025-01-28T10:08:19Z</time>
      </trkpt>
      <trkpt lat="47.62122" lon="-2.78683">
        <ele>3.5</ele>
        <time>2025-01-28T10:08:20Z</time>
      </trkpt>
      <trkpt lat="47.62122" lon="-2.78684">
        <ele>3.6</ele>
        <time>2025-01-28T10:08:21Z</time>
      </trkpt>
      <trkpt lat="47.62121" lon="-2.78685">
        <ele>3.6</ele>
        <time>2025-01-28T10:08:22Z</time>
      </trkpt>
      <trkpt lat="47.6212" lon="-2.78686">
        <ele>3.6</ele>
        <time>2025-01-28T10:08:23Z</time>
      </trkpt>
      <trkpt lat="47.62119" lon="-2.78687">
        <ele>3.6</ele>
        <time>2025-01-28T10:08:24Z</time>
      </trkpt>
      <trkpt lat="47.62118" lon="-2.78688">
        <ele>3.7</ele>
        <time>2025-01-28T10:08:25Z</time>
      </trkpt>
      <trkpt lat="47.62118" lon="-2.78689">
        <ele>3.7</ele>
        <time>2025-01-28T10:08:26Z</time>
      </trkpt>
      <trkpt lat="47.62117" lon="-2.7869">
        <ele>3.8</ele>
        <time>2025-01-28T10:08:27Z</time>
      </trkpt>
      <trkpt lat="47.62116" lon="-2.78691">
        <ele>3.8</ele>
        <time>2025-01-28T10:08:28Z</time>
      </trkpt>
      <trkpt lat="47.62116" lon="-2.78692">
        <ele>3.9</ele>
        <time>2025-01-28T10:08:29Z</time>
      </trkpt>
      <trkpt lat="47.62115" lon="-2.78692">
        <ele>3.9</ele>
        <time>2025-01-28T10:08:30Z</time>
      </trkpt>
      <trkpt lat="47.62114" lon="-2.78693">
        <ele>4</ele>
        <time>2025-01-28T10:08:31Z</time>
      </trkpt>
      <trkpt lat="47.62113" lon="-2.78693">
        <ele>4</ele>
        <time>2025-01-28T10:08:32Z</time>
      </trkpt>
      <trkpt lat="47.62113" lon="-2.78693">
        <ele>3.9</ele>
        <time>2025-01-28T10:08:33Z</time>
      </trkpt>
      <trkpt lat="47.62113" lon="-2.78693">
        <ele>3.9</ele>
        <time>2025-01-28T10:08:34Z</time>
      </trkpt>
      <trkpt lat="47.62112" lon="-2.78692">
        <ele>3.7</ele>
        <time>2025-01-28T10:08:35Z</time>
      </trkpt>
      <trkpt lat="47.6211" lon="-2.78692">
        <ele>3.6</ele>
        <time>2025-01-28T10:08:36Z</time>
      </trkpt>
      <trkpt lat="47.62109" lon="-2.78692">
        <ele>3.6</ele>
        <time>2025-01-28T10:08:37Z</time>
      </trkpt>
      <trkpt lat="47.62109" lon="-2.78693">
        <ele>3.6</ele>
        <time>2025-01-28T10:08:38Z</time>
      </trkpt>
      <trkpt lat="47.62108" lon="-2.78694">
        <ele>3.6</ele>
        <time>2025-01-28T10:08:39Z</time>
      </trkpt>
      <trkpt lat="47.62107" lon="-2.78695">
        <ele>3.6</ele>
        <time>2025-01-28T10:08:40Z</time>
      </trkpt>
      <trkpt lat="47.62107" lon="-2.78697">
        <ele>3.8</ele>
        <time>2025-01-28T10:08:41Z</time>
      </trkpt>
      <trkpt lat="47.62106" lon="-2.78698">
        <ele>3.9</ele>
        <time>2025-01-28T10:08:42Z</time>
      </trkpt>
      <trkpt lat="47.62105" lon="-2.78699">
        <ele>3.9</ele>
        <time>2025-01-28T10:08:43Z</time>
      </trkpt>
      <trkpt lat="47.62104" lon="-2.78699">
        <ele>3.8</ele>
        <time>2025-01-28T10:08:44Z</time>
      </trkpt>
      <trkpt lat="47.62104" lon="-2.787">
        <ele>3.9</ele>
        <time>2025-01-28T10:08:45Z</time>
      </trkpt>
      <trkpt lat="47.62103" lon="-2.78701">
        <ele>3.9</ele>
        <time>2025-01-28T10:08:46Z</time>
      </trkpt>
      <trkpt lat="47.62102" lon="-2.78702">
        <ele>3.9</ele>
        <time>2025-01-28T10:08:47Z</time>
      </trkpt>
      <trkpt lat="47.62101" lon="-2.78702">
        <ele>3.9</ele>
        <time>2025-01-28T10:08:48Z</time>
      </trkpt>
      <trkpt lat="47.621" lon="-2.78702">
        <ele>3.7</ele>
        <time>2025-01-28T10:08:49Z</time>
      </trkpt>
      <trkpt lat="47.62099" lon="-2.78701">
        <ele>3.6</ele>
        <time>2025-01-28T10:08:50Z</time>
      </trkpt>
      <trkpt lat="47.62098" lon="-2.78703">
        <ele>3.6</ele>
        <time>2025-01-28T10:08:51Z</time>
      </trkpt>
      <trkpt lat="47.62097" lon="-2.78703">
        <ele>3.6</ele>
        <time>2025-01-28T10:08:52Z</time>
      </trkpt>
      <trkpt lat="47.62096" lon="-2.78704">
        <ele>3.6</ele>
        <time>2025-01-28T10:08:53Z</time>
      </trkpt>
      <trkpt lat="47.62096" lon="-2.78704">
        <ele>3.6</ele>
        <time>2025-01-28T10:08:54Z</time>
      </trkpt>
      <trkpt lat="47.62095" lon="-2.78706">
        <ele>3.8</ele>
        <time>2025-01-28T10:08:55Z</time>
      </trkpt>
      <trkpt lat="47.62095" lon="-2.78708">
        <ele>4</ele>
        <time>2025-01-28T10:08:56Z</time>
      </trkpt>
      <trkpt lat="47.62094" lon="-2.7871">
        <ele>4.1</ele>
        <time>2025-01-28T10:08:57Z</time>
      </trkpt>
      <trkpt lat="47.62094" lon="-2.78711">
        <ele>4.2</ele>
        <time>2025-01-28T10:08:58Z</time>
      </trkpt>
      <trkpt lat="47.62093" lon="-2.78711">
        <ele>4.3</ele>
        <time>2025-01-28T10:08:59Z</time>
      </trkpt>
      <trkpt lat="47.62092" lon="-2.78712">
        <ele>4.3</ele>
        <time>2025-01-28T10:09:00Z</time>
      </trkpt>
      <trkpt lat="47.62091" lon="-2.78713">
        <ele>4.3</ele>
        <time>2025-01-28T10:09:01Z</time>
      </trkpt>
      <trkpt lat="47.62091" lon="-2.78714">
        <ele>4.4</ele>
        <time>2025-01-28T10:09:02Z</time>
      </trkpt>
      <trkpt lat="47.6209" lon="-2.78715">
        <ele>4.4</ele>
        <time>2025-01-28T10:09:03Z</time>
      </trkpt>
      <trkpt lat="47.62089" lon="-2.78715">
        <ele>4.5</ele>
        <time>2025-01-28T10:09:04Z</time>
      </trkpt>
      <trkpt lat="47.62088" lon="-2.78716">
        <ele>4.5</ele>
        <time>2025-01-28T10:09:05Z</time>
      </trkpt>
      <trkpt lat="47.62087" lon="-2.78717">
        <ele>4.5</ele>
        <time>2025-01-28T10:09:06Z</time>
      </trkpt>
      <trkpt lat="47.62086" lon="-2.78717">
        <ele>4.5</ele>
        <time>2025-01-28T10:09:07Z</time>
      </trkpt>
      <trkpt lat="47.62085" lon="-2.78718">
        <ele>4.5</ele>
        <time>2025-01-28T10:09:08Z</time>
      </trkpt>
      <trkpt lat="47.62085" lon="-2.7872">
        <ele>4.7</ele>
        <time>2025-01-28T10:09:09Z</time>
      </trkpt>
      <trkpt lat="47.62084" lon="-2.78721">
        <ele>4.8</ele>
        <time>2025-01-28T10:09:10Z</time>
      </trkpt>
      <trkpt lat="47.62083" lon="-2.78722">
        <ele>4.9</ele>
        <time>2025-01-28T10:09:11Z</time>
      </trkpt>
      <trkpt lat="47.62082" lon="-2.78722">
        <ele>4.8</ele>
        <time>2025-01-28T10:09:12Z</time>
      </trkpt>
      <trkpt lat="47.62081" lon="-2.78722">
        <ele>4.6</ele>
        <time>2025-01-28T10:09:13Z</time>
      </trkpt>
      <trkpt lat="47.6208" lon="-2.78724">
        <ele>4.6</ele>
        <time>2025-01-28T10:09:14Z</time>
      </trkpt>
      <trkpt lat="47.62079" lon="-2.78726">
        <ele>4.6</ele>
        <time>2025-01-28T10:09:15Z</time>
      </trkpt>
      <trkpt lat="47.62078" lon="-2.78727">
        <ele>4.6</ele>
        <time>2025-01-28T10:09:16Z</time>
      </trkpt>
      <trkpt lat="47.62077" lon="-2.78728">
        <ele>4.5</ele>
        <time>2025-01-28T10:09:17Z</time>
      </trkpt>
      <trkpt lat="47.62077" lon="-2.78729">
        <ele>4.4</ele>
        <time>2025-01-28T10:09:18Z</time>
      </trkpt>
      <trkpt lat="47.62076" lon="-2.7873">
        <ele>4.4</ele>
        <time>2025-01-28T10:09:19Z</time>
      </trkpt>
      <trkpt lat="47.62076" lon="-2.78732">
        <ele>4.5</ele>
        <time>2025-01-28T10:09:20Z</time>
      </trkpt>
      <trkpt lat="47.62075" lon="-2.78734">
        <ele>4.4</ele>
        <time>2025-01-28T10:09:21Z</time>
      </trkpt>
      <trkpt lat="47.62074" lon="-2.78735">
        <ele>4.3</ele>
        <time>2025-01-28T10:09:22Z</time>
      </trkpt>
      <trkpt lat="47.62074" lon="-2.78737">
        <ele>4.4</ele>
        <time>2025-01-28T10:09:23Z</time>
      </trkpt>
      <trkpt lat="47.62074" lon="-2.78739">
        <ele>4.4</ele>
        <time>2025-01-28T10:09:24Z</time>
      </trkpt>
      <trkpt lat="47.62074" lon="-2.78741">
        <ele>4.4</ele>
        <time>2025-01-28T10:09:25Z</time>
      </trkpt>
      <trkpt lat="47.62073" lon="-2.78742">
        <ele>4.5</ele>
        <time>2025-01-28T10:09:26Z</time>
      </trkpt>
      <trkpt lat="47.62073" lon="-2.78744">
        <ele>4.5</ele>
        <time>2025-01-28T10:09:27Z</time>
      </trkpt>
      <trkpt lat="47.62073" lon="-2.78746">
        <ele>4.5</ele>
        <time>2025-01-28T10:09:28Z</time>
      </trkpt>
      <trkpt lat="47.62072" lon="-2.78747">
        <ele>4.5</ele>
        <time>2025-01-28T10:09:29Z</time>
      </trkpt>
      <trkpt lat="47.62072" lon="-2.78749">
        <ele>4.4</ele>
        <time>2025-01-28T10:09:30Z</time>
      </trkpt>
      <trkpt lat="47.62071" lon="-2.7875">
        <ele>4.4</ele>
        <time>2025-01-28T10:09:31Z</time>
      </trkpt>
      <trkpt lat="47.62071" lon="-2.78752">
        <ele>4.4</ele>
        <time>2025-01-28T10:09:32Z</time>
      </trkpt>
      <trkpt lat="47.62071" lon="-2.78754">
        <ele>4.4</ele>
        <time>2025-01-28T10:09:33Z</time>
      </trkpt>
      <trkpt lat="47.62071" lon="-2.78755">
        <ele>4.4</ele>
        <time>2025-01-28T10:09:34Z</time>
      </trkpt>
      <trkpt lat="47.62071" lon="-2.78757">
        <ele>4.4</ele>
        <time>2025-01-28T10:09:35Z</time>
      </trkpt>
      <trkpt lat="47.62071" lon="-2.78759">
        <ele>4.6</ele>
        <time>2025-01-28T10:09:36Z</time>
      </trkpt>
      <trkpt lat="47.62072" lon="-2.78761">
        <ele>4.7</ele>
        <time>2025-01-28T10:09:37Z</time>
      </trkpt>
      <trkpt lat="47.62071" lon="-2.78762">
        <ele>4.7</ele>
        <time>2025-01-28T10:09:38Z</time>
      </trkpt>
      <trkpt lat="47.62071" lon="-2.78764">
        <ele>4.7</ele>
        <time>2025-01-28T10:09:39Z</time>
      </trkpt>
      <trkpt lat="47.62071" lon="-2.78766">
        <ele>4.7</ele>
        <time>2025-01-28T10:09:40Z</time>
      </trkpt>
      <trkpt lat="47.62071" lon="-2.78767">
        <ele>4.7</ele>
        <time>2025-01-28T10:09:41Z</time>
      </trkpt>
      <trkpt lat="47.62071" lon="-2.78769">
        <ele>4.7</ele>
        <time>2025-01-28T10:09:42Z</time>
      </trkpt>
      <trkpt lat="47.62071" lon="-2.78771">
        <ele>4.8</ele>
        <time>2025-01-28T10:09:43Z</time>
      </trkpt>
      <trkpt lat="47.62071" lon="-2.78773">
        <ele>4.9</ele>
        <time>2025-01-28T10:09:44Z</time>
      </trkpt>
      <trkpt lat="47.62071" lon="-2.78775">
        <ele>4.9</ele>
        <time>2025-01-28T10:09:45Z</time>
      </trkpt>
      <trkpt lat="47.62071" lon="-2.78777">
        <ele>4.9</ele>
        <time>2025-01-28T10:09:46Z</time>
      </trkpt>
      <trkpt lat="47.62071" lon="-2.78779">
        <ele>4.9</ele>
        <time>2025-01-28T10:09:47Z</time>
      </trkpt>
      <trkpt lat="47.6207" lon="-2.7878">
        <ele>4.8</ele>
        <time>2025-01-28T10:09:48Z</time>
      </trkpt>
      <trkpt lat="47.6207" lon="-2.78782">
        <ele>4.8</ele>
        <time>2025-01-28T10:09:49Z</time>
      </trkpt>
      <trkpt lat="47.6207" lon="-2.78784">
        <ele>4.8</ele>
        <time>2025-01-28T10:09:50Z</time>
      </trkpt>
      <trkpt lat="47.6207" lon="-2.78785">
        <ele>4.9</ele>
        <time>2025-01-28T10:09:51Z</time>
      </trkpt>
      <trkpt lat="47.6207" lon="-2.78787">
        <ele>4.8</ele>
        <time>2025-01-28T10:09:52Z</time>
      </trkpt>
      <trkpt lat="47.6207" lon="-2.78788">
        <ele>4.8</ele>
        <time>2025-01-28T10:09:53Z</time>
      </trkpt>
      <trkpt lat="47.62069" lon="-2.7879">
        <ele>4.7</ele>
        <time>2025-01-28T10:09:54Z</time>
      </trkpt>
      <trkpt lat="47.62069" lon="-2.78792">
        <ele>4.6</ele>
        <time>2025-01-28T10:09:55Z</time>
      </trkpt>
      <trkpt lat="47.62068" lon="-2.78793">
        <ele>4.5</ele>
        <time>2025-01-28T10:09:56Z</time>
      </trkpt>
      <trkpt lat="47.62068" lon="-2.78795">
        <ele>4.5</ele>
        <time>2025-01-28T10:09:57Z</time>
      </trkpt>
      <trkpt lat="47.62068" lon="-2.78797">
        <ele>4.5</ele>
        <time>2025-01-28T10:09:58Z</time>
      </trkpt>
      <trkpt lat="47.62067" lon="-2.78798">
        <ele>4.3</ele>
        <time>2025-01-28T10:09:59Z</time>
      </trkpt>
      <trkpt lat="47.62067" lon="-2.78799">
        <ele>4.2</ele>
        <time>2025-01-28T10:10:00Z</time>
      </trkpt>
      <trkpt lat="47.62067" lon="-2.78801">
        <ele>4.1</ele>
        <time>2025-01-28T10:10:01Z</time>
      </trkpt>
      <trkpt lat="47.62066" lon="-2.78802">
        <ele>4</ele>
        <time>2025-01-28T10:10:02Z</time>
      </trkpt>
      <trkpt lat="47.62066" lon="-2.78804">
        <ele>4</ele>
        <time>2025-01-28T10:10:03Z</time>
      </trkpt>
      <trkpt lat="47.62065" lon="-2.78805">
        <ele>3.8</ele>
        <time>2025-01-28T10:10:04Z</time>
      </trkpt>
      <trkpt lat="47.62065" lon="-2.78808">
        <ele>4</ele>
        <time>2025-01-28T10:10:05Z</time>
      </trkpt>
      <trkpt lat="47.62065" lon="-2.7881">
        <ele>4.1</ele>
        <time>2025-01-28T10:10:06Z</time>
      </trkpt>
      <trkpt lat="47.62065" lon="-2.78811">
        <ele>4.2</ele>
        <time>2025-01-28T10:10:07Z</time>
      </trkpt>
      <trkpt lat="47.62065" lon="-2.78813">
        <ele>4.3</ele>
        <time>2025-01-28T10:10:08Z</time>
      </trkpt>
      <trkpt lat="47.62065" lon="-2.78815">
        <ele>4.4</ele>
        <time>2025-01-28T10:10:09Z</time>
      </trkpt>
      <trkpt lat="47.62064" lon="-2.78817">
        <ele>4.4</ele>
        <time>2025-01-28T10:10:10Z</time>
      </trkpt>
      <trkpt lat="47.62064" lon="-2.78819">
        <ele>4.5</ele>
        <time>2025-01-28T10:10:11Z</time>
      </trkpt>
      <trkpt lat="47.62063" lon="-2.7882">
        <ele>4.5</ele>
        <time>2025-01-28T10:10:12Z</time>
      </trkpt>
      <trkpt lat="47.62063" lon="-2.78822">
        <ele>4.6</ele>
        <time>2025-01-28T10:10:13Z</time>
      </trkpt>
      <trkpt lat="47.62062" lon="-2.78824">
        <ele>4.6</ele>
        <time>2025-01-28T10:10:14Z</time>
      </trkpt>
      <trkpt lat="47.62062" lon="-2.78825">
        <ele>4.7</ele>
        <time>2025-01-28T10:10:15Z</time>
      </trkpt>
      <trkpt lat="47.62062" lon="-2.78827">
        <ele>4.8</ele>
        <time>2025-01-28T10:10:16Z</time>
      </trkpt>
      <trkpt lat="47.62061" lon="-2.78829">
        <ele>4.8</ele>
        <time>2025-01-28T10:10:17Z</time>
      </trkpt>
      <trkpt lat="47.62061" lon="-2.7883">
        <ele>4.8</ele>
        <time>2025-01-28T10:10:18Z</time>
      </trkpt>
      <trkpt lat="47.62061" lon="-2.78832">
        <ele>4.9</ele>
        <time>2025-01-28T10:10:19Z</time>
      </trkpt>
      <trkpt lat="47.6206" lon="-2.78834">
        <ele>4.9</ele>
        <time>2025-01-28T10:10:20Z</time>
      </trkpt>
      <trkpt lat="47.62059" lon="-2.78835">
        <ele>4.8</ele>
        <time>2025-01-28T10:10:21Z</time>
      </trkpt>
      <trkpt lat="47.62059" lon="-2.78837">
        <ele>4.7</ele>
        <time>2025-01-28T10:10:22Z</time>
      </trkpt>
      <trkpt lat="47.6206" lon="-2.78839">
        <ele>4.7</ele>
        <time>2025-01-28T10:10:23Z</time>
      </trkpt>
      <trkpt lat="47.6206" lon="-2.78841">
        <ele>4.7</ele>
        <time>2025-01-28T10:10:24Z</time>
      </trkpt>
      <trkpt lat="47.6206" lon="-2.78843">
        <ele>4.7</ele>
        <time>2025-01-28T10:10:25Z</time>
      </trkpt>
      <trkpt lat="47.6206" lon="-2.78845">
        <ele>4.6</ele>
        <time>2025-01-28T10:10:26Z</time>
      </trkpt>
      <trkpt lat="47.6206" lon="-2.78847">
        <ele>4.6</ele>
        <time>2025-01-28T10:10:27Z</time>
      </trkpt>
      <trkpt lat="47.6206" lon="-2.78848">
        <ele>4.4</ele>
        <time>2025-01-28T10:10:28Z</time>
      </trkpt>
      <trkpt lat="47.6206" lon="-2.7885">
        <ele>4.3</ele>
        <time>2025-01-28T10:10:29Z</time>
      </trkpt>
      <trkpt lat="47.62059" lon="-2.78852">
        <ele>4.2</ele>
        <time>2025-01-28T10:10:30Z</time>
      </trkpt>
      <trkpt lat="47.6206" lon="-2.78854">
        <ele>4.2</ele>
        <time>2025-01-28T10:10:31Z</time>
      </trkpt>
      <trkpt lat="47.6206" lon="-2.78855">
        <ele>4.3</ele>
        <time>2025-01-28T10:10:32Z</time>
      </trkpt>
      <trkpt lat="47.62061" lon="-2.78857">
        <ele>4.3</ele>
        <time>2025-01-28T10:10:33Z</time>
      </trkpt>
      <trkpt lat="47.62061" lon="-2.78859">
        <ele>4.3</ele>
        <time>2025-01-28T10:10:34Z</time>
      </trkpt>
      <trkpt lat="47.62062" lon="-2.7886">
        <ele>4.4</ele>
        <time>2025-01-28T10:10:35Z</time>
      </trkpt>
      <trkpt lat="47.62062" lon="-2.78862">
        <ele>4.4</ele>
        <time>2025-01-28T10:10:36Z</time>
      </trkpt>
      <trkpt lat="47.62063" lon="-2.78863">
        <ele>4.5</ele>
        <time>2025-01-28T10:10:37Z</time>
      </trkpt>
      <trkpt lat="47.62063" lon="-2.78865">
        <ele>4.5</ele>
        <time>2025-01-28T10:10:38Z</time>
      </trkpt>
      <trkpt lat="47.62064" lon="-2.78866">
        <ele>4.6</ele>
        <time>2025-01-28T10:10:39Z</time>
      </trkpt>
      <trkpt lat="47.62064" lon="-2.78868">
        <ele>4.7</ele>
        <time>2025-01-28T10:10:40Z</time>
      </trkpt>
      <trkpt lat="47.62065" lon="-2.78869">
        <ele>4.7</ele>
        <time>2025-01-28T10:10:41Z</time>
      </trkpt>
      <trkpt lat="47.62065" lon="-2.78871">
        <ele>4.7</ele>
        <time>2025-01-28T10:10:42Z</time>
      </trkpt>
      <trkpt lat="47.62064" lon="-2.78873">
        <ele>4.6</ele>
        <time>2025-01-28T10:10:43Z</time>
      </trkpt>
      <trkpt lat="47.62065" lon="-2.78874">
        <ele>4.6</ele>
        <time>2025-01-28T10:10:44Z</time>
      </trkpt>
      <trkpt lat="47.62065" lon="-2.78876">
        <ele>4.6</ele>
        <time>2025-01-28T10:10:45Z</time>
      </trkpt>
      <trkpt lat="47.62065" lon="-2.78878">
        <ele>4.7</ele>
        <time>2025-01-28T10:10:46Z</time>
      </trkpt>
      <trkpt lat="47.62066" lon="-2.78879">
        <ele>4.8</ele>
        <time>2025-01-28T10:10:47Z</time>
      </trkpt>
      <trkpt lat="47.62066" lon="-2.78881">
        <ele>4.8</ele>
        <time>2025-01-28T10:10:48Z</time>
      </trkpt>
      <trkpt lat="47.62066" lon="-2.78883">
        <ele>4.7</ele>
        <time>2025-01-28T10:10:49Z</time>
      </trkpt>
      <trkpt lat="47.62064" lon="-2.78883">
        <ele>4.3</ele>
        <time>2025-01-28T10:10:50Z</time>
      </trkpt>
      <trkpt lat="47.62063" lon="-2.78884">
        <ele>4</ele>
        <time>2025-01-28T10:10:51Z</time>
      </trkpt>
      <trkpt lat="47.62062" lon="-2.78884">
        <ele>3.8</ele>
        <time>2025-01-28T10:10:52Z</time>
      </trkpt>
      <trkpt lat="47.62061" lon="-2.78885">
        <ele>3.5</ele>
        <time>2025-01-28T10:10:53Z</time>
      </trkpt>
      <trkpt lat="47.62061" lon="-2.78885">
        <ele>3.4</ele>
        <time>2025-01-28T10:10:54Z</time>
      </trkpt>
      <trkpt lat="47.6206" lon="-2.78886">
        <ele>3.2</ele>
        <time>2025-01-28T10:10:55Z</time>
      </trkpt>
      <trkpt lat="47.62059" lon="-2.78887">
        <ele>2.9</ele>
        <time>2025-01-28T10:10:56Z</time>
      </trkpt>
      <trkpt lat="47.62058" lon="-2.78888">
        <ele>2.7</ele>
        <time>2025-01-28T10:10:57Z</time>
      </trkpt>
      <trkpt lat="47.62058" lon="-2.78888">
        <ele>2.7</ele>
        <time>2025-01-28T10:10:58Z</time>
      </trkpt>
      <trkpt lat="47.62058" lon="-2.78888">
        <ele>2.7</ele>
        <time>2025-01-28T10:10:59Z</time>
      </trkpt>
      <trkpt lat="47.62058" lon="-2.78888">
        <ele>2.7</ele>
        <time>2025-01-28T10:11:00Z</time>
      </trkpt>
      <trkpt lat="47.62059" lon="-2.78888">
        <ele>2.8</ele>
        <time>2025-01-28T10:11:01Z</time>
      </trkpt>
      <trkpt lat="47.62059" lon="-2.78889">
        <ele>2.8</ele>
        <time>2025-01-28T10:11:02Z</time>
      </trkpt>
      <trkpt lat="47.62059" lon="-2.7889">
        <ele>3</ele>
        <time>2025-01-28T10:11:03Z</time>
      </trkpt>
      <trkpt lat="47.62059" lon="-2.7889">
        <ele>3.1</ele>
        <time>2025-01-28T10:11:04Z</time>
      </trkpt>
      <trkpt lat="47.62059" lon="-2.7889">
        <ele>3</ele>
        <time>2025-01-28T10:11:05Z</time>
      </trkpt>
      <trkpt lat="47.62062" lon="-2.78889">
        <ele>3.7</ele>
        <time>2025-01-28T10:11:06Z</time>
      </trkpt>
      <trkpt lat="47.62064" lon="-2.78889">
        <ele>4.2</ele>
        <time>2025-01-28T10:11:07Z</time>
      </trkpt>
      <trkpt lat="47.62065" lon="-2.78892">
        <ele>4.7</ele>
        <time>2025-01-28T10:11:08Z</time>
      </trkpt>
      <trkpt lat="47.62065" lon="-2.78894">
        <ele>4.8</ele>
        <time>2025-01-28T10:11:09Z</time>
      </trkpt>
      <trkpt lat="47.62064" lon="-2.78896">
        <ele>4.8</ele>
        <time>2025-01-28T10:11:10Z</time>
      </trkpt>
      <trkpt lat="47.62063" lon="-2.78897">
        <ele>4.8</ele>
        <time>2025-01-28T10:11:11Z</time>
      </trkpt>
      <trkpt lat="47.62063" lon="-2.78898">
        <ele>4.8</ele>
        <time>2025-01-28T10:11:12Z</time>
      </trkpt>
      <trkpt lat="47.62063" lon="-2.789">
        <ele>5</ele>
        <time>2025-01-28T10:11:13Z</time>
      </trkpt>
      <trkpt lat="47.62062" lon="-2.78902">
        <ele>5.1</ele>
        <time>2025-01-28T10:11:14Z</time>
      </trkpt>
      <trkpt lat="47.62062" lon="-2.78903">
        <ele>5.2</ele>
        <time>2025-01-28T10:11:15Z</time>
      </trkpt>
      <trkpt lat="47.62062" lon="-2.78905">
        <ele>5.3</ele>
        <time>2025-01-28T10:11:16Z</time>
      </trkpt>
      <trkpt lat="47.62061" lon="-2.78906">
        <ele>5.3</ele>
        <time>2025-01-28T10:11:17Z</time>
      </trkpt>
      <trkpt lat="47.6206" lon="-2.78907">
        <ele>5.3</ele>
        <time>2025-01-28T10:11:18Z</time>
      </trkpt>
      <trkpt lat="47.6206" lon="-2.78909">
        <ele>5.5</ele>
        <time>2025-01-28T10:11:19Z</time>
      </trkpt>
      <trkpt lat="47.62059" lon="-2.7891">
        <ele>5.5</ele>
        <time>2025-01-28T10:11:20Z</time>
      </trkpt>
      <trkpt lat="47.62058" lon="-2.78911">
        <ele>5.6</ele>
        <time>2025-01-28T10:11:21Z</time>
      </trkpt>
      <trkpt lat="47.62058" lon="-2.78913">
        <ele>5.7</ele>
        <time>2025-01-28T10:11:22Z</time>
      </trkpt>
      <trkpt lat="47.62057" lon="-2.78915">
        <ele>5.9</ele>
        <time>2025-01-28T10:11:23Z</time>
      </trkpt>
      <trkpt lat="47.62057" lon="-2.78917">
        <ele>6.2</ele>
        <time>2025-01-28T10:11:24Z</time>
      </trkpt>
      <trkpt lat="47.62057" lon="-2.78918">
        <ele>6.3</ele>
        <time>2025-01-28T10:11:25Z</time>
      </trkpt>
      <trkpt lat="47.62056" lon="-2.7892">
        <ele>6.3</ele>
        <time>2025-01-28T10:11:26Z</time>
      </trkpt>
      <trkpt lat="47.62056" lon="-2.78922">
        <ele>6.4</ele>
        <time>2025-01-28T10:11:27Z</time>
      </trkpt>
      <trkpt lat="47.62056" lon="-2.78923">
        <ele>6.5</ele>
        <time>2025-01-28T10:11:28Z</time>
      </trkpt>
      <trkpt lat="47.62055" lon="-2.78925">
        <ele>6.6</ele>
        <time>2025-01-28T10:11:29Z</time>
      </trkpt>
      <trkpt lat="47.62055" lon="-2.78927">
        <ele>6.7</ele>
        <time>2025-01-28T10:11:30Z</time>
      </trkpt>
      <trkpt lat="47.62054" lon="-2.78928">
        <ele>6.8</ele>
        <time>2025-01-28T10:11:31Z</time>
      </trkpt>
      <trkpt lat="47.62054" lon="-2.7893">
        <ele>7</ele>
        <time>2025-01-28T10:11:32Z</time>
      </trkpt>
      <trkpt lat="47.62054" lon="-2.78932">
        <ele>7.1</ele>
        <time>2025-01-28T10:11:33Z</time>
      </trkpt>
      <trkpt lat="47.62054" lon="-2.78934">
        <ele>7.2</ele>
        <time>2025-01-28T10:11:34Z</time>
      </trkpt>
      <trkpt lat="47.62054" lon="-2.78936">
        <ele>7.4</ele>
        <time>2025-01-28T10:11:35Z</time>
      </trkpt>
      <trkpt lat="47.62053" lon="-2.78937">
        <ele>7.5</ele>
        <time>2025-01-28T10:11:36Z</time>
      </trkpt>
      <trkpt lat="47.62053" lon="-2.78939">
        <ele>7.6</ele>
        <time>2025-01-28T10:11:37Z</time>
      </trkpt>
      <trkpt lat="47.62053" lon="-2.78941">
        <ele>7.8</ele>
        <time>2025-01-28T10:11:38Z</time>
      </trkpt>
      <trkpt lat="47.62053" lon="-2.78943">
        <ele>7.9</ele>
        <time>2025-01-28T10:11:39Z</time>
      </trkpt>
      <trkpt lat="47.62051" lon="-2.78945">
        <ele>8</ele>
        <time>2025-01-28T10:11:40Z</time>
      </trkpt>
      <trkpt lat="47.62051" lon="-2.78947">
        <ele>8</ele>
        <time>2025-01-28T10:11:41Z</time>
      </trkpt>
      <trkpt lat="47.62051" lon="-2.78949">
        <ele>8.1</ele>
        <time>2025-01-28T10:11:42Z</time>
      </trkpt>
      <trkpt lat="47.6205" lon="-2.78951">
        <ele>8</ele>
        <time>2025-01-28T10:11:43Z</time>
      </trkpt>
      <trkpt lat="47.62049" lon="-2.78952">
        <ele>8</ele>
        <time>2025-01-28T10:11:44Z</time>
      </trkpt>
      <trkpt lat="47.62049" lon="-2.78954">
        <ele>7.9</ele>
        <time>2025-01-28T10:11:45Z</time>
      </trkpt>
      <trkpt lat="47.62048" lon="-2.78956">
        <ele>7.8</ele>
        <time>2025-01-28T10:11:46Z</time>
      </trkpt>
      <trkpt lat="47.62047" lon="-2.78958">
        <ele>7.7</ele>
        <time>2025-01-28T10:11:47Z</time>
      </trkpt>
      <trkpt lat="47.62047" lon="-2.7896">
        <ele>7.5</ele>
        <time>2025-01-28T10:11:48Z</time>
      </trkpt>
      <trkpt lat="47.62045" lon="-2.78961">
        <ele>7.2</ele>
        <time>2025-01-28T10:11:49Z</time>
      </trkpt>
      <trkpt lat="47.62045" lon="-2.78963">
        <ele>7</ele>
        <time>2025-01-28T10:11:50Z</time>
      </trkpt>
      <trkpt lat="47.62044" lon="-2.78965">
        <ele>6.7</ele>
        <time>2025-01-28T10:11:51Z</time>
      </trkpt>
      <trkpt lat="47.62043" lon="-2.78966">
        <ele>6.4</ele>
        <time>2025-01-28T10:11:52Z</time>
      </trkpt>
      <trkpt lat="47.62043" lon="-2.78968">
        <ele>6.2</ele>
        <time>2025-01-28T10:11:53Z</time>
      </trkpt>
      <trkpt lat="47.62042" lon="-2.78969">
        <ele>5.9</ele>
        <time>2025-01-28T10:11:54Z</time>
      </trkpt>
      <trkpt lat="47.62041" lon="-2.7897">
        <ele>5.5</ele>
        <time>2025-01-28T10:11:55Z</time>
      </trkpt>
      <trkpt lat="47.62041" lon="-2.78972">
        <ele>5.2</ele>
        <time>2025-01-28T10:11:56Z</time>
      </trkpt>
      <trkpt lat="47.6204" lon="-2.78973">
        <ele>5.2</ele>
        <time>2025-01-28T10:11:57Z</time>
      </trkpt>
      <trkpt lat="47.62039" lon="-2.78975">
        <ele>5.2</ele>
        <time>2025-01-28T10:11:58Z</time>
      </trkpt>
      <trkpt lat="47.62039" lon="-2.78976">
        <ele>5.4</ele>
        <time>2025-01-28T10:11:59Z</time>
      </trkpt>
      <trkpt lat="47.62038" lon="-2.78978">
        <ele>5.4</ele>
        <time>2025-01-28T10:12:00Z</time>
      </trkpt>
      <trkpt lat="47.62037" lon="-2.78979">
        <ele>5.3</ele>
        <time>2025-01-28T10:12:01Z</time>
      </trkpt>
      <trkpt lat="47.62035" lon="-2.78979">
        <ele>5</ele>
        <time>2025-01-28T10:12:02Z</time>
      </trkpt>
      <trkpt lat="47.62034" lon="-2.7898">
        <ele>4.9</ele>
        <time>2025-01-28T10:12:03Z</time>
      </trkpt>
      <trkpt lat="47.62033" lon="-2.78981">
        <ele>4.7</ele>
        <time>2025-01-28T10:12:04Z</time>
      </trkpt>
      <trkpt lat="47.62032" lon="-2.78981">
        <ele>4.4</ele>
        <time>2025-01-28T10:12:05Z</time>
      </trkpt>
      <trkpt lat="47.6203" lon="-2.78981">
        <ele>4.2</ele>
        <time>2025-01-28T10:12:06Z</time>
      </trkpt>
      <trkpt lat="47.62029" lon="-2.78982">
        <ele>4</ele>
        <time>2025-01-28T10:12:07Z</time>
      </trkpt>
      <trkpt lat="47.62028" lon="-2.78984">
        <ele>4.5</ele>
        <time>2025-01-28T10:12:08Z</time>
      </trkpt>
      <trkpt lat="47.62027" lon="-2.78985">
        <ele>4.7</ele>
        <time>2025-01-28T10:12:09Z</time>
      </trkpt>
      <trkpt lat="47.62026" lon="-2.78986">
        <ele>4.9</ele>
        <time>2025-01-28T10:12:10Z</time>
      </trkpt>
      <trkpt lat="47.62025" lon="-2.78987">
        <ele>5.2</ele>
        <time>2025-01-28T10:12:11Z</time>
      </trkpt>
      <trkpt lat="47.62024" lon="-2.78988">
        <ele>5.5</ele>
        <time>2025-01-28T10:12:12Z</time>
      </trkpt>
      <trkpt lat="47.62023" lon="-2.78989">
        <ele>5.8</ele>
        <time>2025-01-28T10:12:13Z</time>
      </trkpt>
      <trkpt lat="47.62022" lon="-2.7899">
        <ele>5.9</ele>
        <time>2025-01-28T10:12:14Z</time>
      </trkpt>
      <trkpt lat="47.62021" lon="-2.78991">
        <ele>6.2</ele>
        <time>2025-01-28T10:12:15Z</time>
      </trkpt>
      <trkpt lat="47.6202" lon="-2.78992">
        <ele>6.5</ele>
        <time>2025-01-28T10:12:16Z</time>
      </trkpt>
      <trkpt lat="47.62019" lon="-2.78993">
        <ele>6.7</ele>
        <time>2025-01-28T10:12:17Z</time>
      </trkpt>
      <trkpt lat="47.62017" lon="-2.78993">
        <ele>6.8</ele>
        <time>2025-01-28T10:12:18Z</time>
      </trkpt>
      <trkpt lat="47.62016" lon="-2.78993">
        <ele>6.7</ele>
        <time>2025-01-28T10:12:19Z</time>
      </trkpt>
      <trkpt lat="47.62014" lon="-2.78994">
        <ele>6.8</ele>
        <time>2025-01-28T10:12:20Z</time>
      </trkpt>
      <trkpt lat="47.62013" lon="-2.78994">
        <ele>7</ele>
        <time>2025-01-28T10:12:21Z</time>
      </trkpt>
      <trkpt lat="47.62012" lon="-2.78995">
        <ele>7</ele>
        <time>2025-01-28T10:12:22Z</time>
      </trkpt>
      <trkpt lat="47.62011" lon="-2.78994">
        <ele>6.9</ele>
        <time>2025-01-28T10:12:23Z</time>
      </trkpt>
      <trkpt lat="47.62009" lon="-2.78994">
        <ele>6.8</ele>
        <time>2025-01-28T10:12:24Z</time>
      </trkpt>
      <trkpt lat="47.62008" lon="-2.78994">
        <ele>6.8</ele>
        <time>2025-01-28T10:12:25Z</time>
      </trkpt>
      <trkpt lat="47.62007" lon="-2.78995">
        <ele>6.9</ele>
        <time>2025-01-28T10:12:26Z</time>
      </trkpt>
      <trkpt lat="47.62006" lon="-2.78995">
        <ele>7</ele>
        <time>2025-01-28T10:12:27Z</time>
      </trkpt>
      <trkpt lat="47.62004" lon="-2.78995">
        <ele>6.9</ele>
        <time>2025-01-28T10:12:28Z</time>
      </trkpt>
      <trkpt lat="47.62003" lon="-2.78995">
        <ele>6.8</ele>
        <time>2025-01-28T10:12:29Z</time>
      </trkpt>
      <trkpt lat="47.62002" lon="-2.78995">
        <ele>6.9</ele>
        <time>2025-01-28T10:12:30Z</time>
      </trkpt>
      <trkpt lat="47.62001" lon="-2.78996">
        <ele>7</ele>
        <time>2025-01-28T10:12:31Z</time>
      </trkpt>
      <trkpt lat="47.61999" lon="-2.78996">
        <ele>7.8</ele>
        <time>2025-01-28T10:12:32Z</time>
      </trkpt>
      <trkpt lat="47.61998" lon="-2.78998">
        <ele>7.7</ele>
        <time>2025-01-28T10:12:33Z</time>
      </trkpt>
      <trkpt lat="47.61997" lon="-2.78999">
        <ele>7.7</ele>
        <time>2025-01-28T10:12:34Z</time>
      </trkpt>
      <trkpt lat="47.61996" lon="-2.78999">
        <ele>7.6</ele>
        <time>2025-01-28T10:12:35Z</time>
      </trkpt>
      <trkpt lat="47.61995" lon="-2.79">
        <ele>7.5</ele>
        <time>2025-01-28T10:12:36Z</time>
      </trkpt>
      <trkpt lat="47.61994" lon="-2.79001">
        <ele>7.5</ele>
        <time>2025-01-28T10:12:37Z</time>
      </trkpt>
      <trkpt lat="47.61993" lon="-2.79001">
        <ele>7.3</ele>
        <time>2025-01-28T10:12:38Z</time>
      </trkpt>
      <trkpt lat="47.61992" lon="-2.79001">
        <ele>7.1</ele>
        <time>2025-01-28T10:12:39Z</time>
      </trkpt>
      <trkpt lat="47.6199" lon="-2.79">
        <ele>7</ele>
        <time>2025-01-28T10:12:40Z</time>
      </trkpt>
      <trkpt lat="47.61989" lon="-2.79">
        <ele>6.9</ele>
        <time>2025-01-28T10:12:41Z</time>
      </trkpt>
      <trkpt lat="47.61988" lon="-2.79001">
        <ele>6.8</ele>
        <time>2025-01-28T10:12:42Z</time>
      </trkpt>
      <trkpt lat="47.61987" lon="-2.79002">
        <ele>6.8</ele>
        <time>2025-01-28T10:12:43Z</time>
      </trkpt>
      <trkpt lat="47.61985" lon="-2.79002">
        <ele>6.7</ele>
        <time>2025-01-28T10:12:44Z</time>
      </trkpt>
      <trkpt lat="47.61984" lon="-2.79002">
        <ele>6.5</ele>
        <time>2025-01-28T10:12:45Z</time>
      </trkpt>
      <trkpt lat="47.61983" lon="-2.79002">
        <ele>6.4</ele>
        <time>2025-01-28T10:12:46Z</time>
      </trkpt>
      <trkpt lat="47.61982" lon="-2.79001">
        <ele>6.2</ele>
        <time>2025-01-28T10:12:47Z</time>
      </trkpt>
      <trkpt lat="47.61981" lon="-2.78999">
        <ele>6</ele>
        <time>2025-01-28T10:12:48Z</time>
      </trkpt>
      <trkpt lat="47.61981" lon="-2.78998">
        <ele>6</ele>
        <time>2025-01-28T10:12:49Z</time>
      </trkpt>
      <trkpt lat="47.6198" lon="-2.78997">
        <ele>6</ele>
        <time>2025-01-28T10:12:50Z</time>
      </trkpt>
      <trkpt lat="47.61979" lon="-2.78997">
        <ele>5.8</ele>
        <time>2025-01-28T10:12:51Z</time>
      </trkpt>
      <trkpt lat="47.61978" lon="-2.78997">
        <ele>5.7</ele>
        <time>2025-01-28T10:12:52Z</time>
      </trkpt>
      <trkpt lat="47.61977" lon="-2.78996">
        <ele>5.7</ele>
        <time>2025-01-28T10:12:53Z</time>
      </trkpt>
      <trkpt lat="47.61976" lon="-2.78995">
        <ele>5.7</ele>
        <time>2025-01-28T10:12:54Z</time>
      </trkpt>
      <trkpt lat="47.61976" lon="-2.78995">
        <ele>5.7</ele>
        <time>2025-01-28T10:12:55Z</time>
      </trkpt>
      <trkpt lat="47.61975" lon="-2.78994">
        <ele>5.6</ele>
        <time>2025-01-28T10:12:56Z</time>
      </trkpt>
      <trkpt lat="47.61975" lon="-2.78993">
        <ele>5.7</ele>
        <time>2025-01-28T10:12:57Z</time>
      </trkpt>
      <trkpt lat="47.61974" lon="-2.78993">
        <ele>5.7</ele>
        <time>2025-01-28T10:12:58Z</time>
      </trkpt>
      <trkpt lat="47.61973" lon="-2.78992">
        <ele>5.6</ele>
        <time>2025-01-28T10:12:59Z</time>
      </trkpt>
      <trkpt lat="47.61973" lon="-2.78991">
        <ele>5.7</ele>
        <time>2025-01-28T10:13:00Z</time>
      </trkpt>
      <trkpt lat="47.61972" lon="-2.7899">
        <ele>5.7</ele>
        <time>2025-01-28T10:13:01Z</time>
      </trkpt>
      <trkpt lat="47.61972" lon="-2.7899">
        <ele>5.7</ele>
        <time>2025-01-28T10:13:02Z</time>
      </trkpt>
      <trkpt lat="47.61972" lon="-2.7899">
        <ele>5.7</ele>
        <time>2025-01-28T10:13:03Z</time>
      </trkpt>
      <trkpt lat="47.61972" lon="-2.7899">
        <ele>5.7</ele>
        <time>2025-01-28T10:13:04Z</time>
      </trkpt>
      <trkpt lat="47.61971" lon="-2.7899">
        <ele>5.7</ele>
        <time>2025-01-28T10:13:05Z</time>
      </trkpt>
      <trkpt lat="47.6197" lon="-2.78989">
        <ele>5.8</ele>
        <time>2025-01-28T10:13:06Z</time>
      </trkpt>
      <trkpt lat="47.6197" lon="-2.78989">
        <ele>5.8</ele>
        <time>2025-01-28T10:13:07Z</time>
      </trkpt>
      <trkpt lat="47.61971" lon="-2.78989">
        <ele>5.8</ele>
        <time>2025-01-28T10:13:08Z</time>
      </trkpt>
      <trkpt lat="47.6197" lon="-2.78989">
        <ele>5.8</ele>
        <time>2025-01-28T10:13:09Z</time>
      </trkpt>
      <trkpt lat="47.6197" lon="-2.78989">
        <ele>5.8</ele>
        <time>2025-01-28T10:13:10Z</time>
      </trkpt>
      <trkpt lat="47.6197" lon="-2.78988">
        <ele>5.8</ele>
        <time>2025-01-28T10:13:11Z</time>
      </trkpt>
      <trkpt lat="47.6197" lon="-2.78988">
        <ele>5.8</ele>
        <time>2025-01-28T10:13:12Z</time>
      </trkpt>
      <trkpt lat="47.6197" lon="-2.78987">
        <ele>5.9</ele>
        <time>2025-01-28T10:13:13Z</time>
      </trkpt>
      <trkpt lat="47.6197" lon="-2.78986">
        <ele>6</ele>
        <time>2025-01-28T10:13:14Z</time>
      </trkpt>
      <trkpt lat="47.61969" lon="-2.78985">
        <ele>6.1</ele>
        <time>2025-01-28T10:13:15Z</time>
      </trkpt>
      <trkpt lat="47.61968" lon="-2.78984">
        <ele>6.1</ele>
        <time>2025-01-28T10:13:16Z</time>
      </trkpt>
      <trkpt lat="47.61968" lon="-2.78985">
        <ele>6</ele>
        <time>2025-01-28T10:13:17Z</time>
      </trkpt>
      <trkpt lat="47.61968" lon="-2.78985">
        <ele>6</ele>
        <time>2025-01-28T10:13:18Z</time>
      </trkpt>
      <trkpt lat="47.61968" lon="-2.78986">
        <ele>5.9</ele>
        <time>2025-01-28T10:13:19Z</time>
      </trkpt>
      <trkpt lat="47.61967" lon="-2.78988">
        <ele>5.8</ele>
        <time>2025-01-28T10:13:20Z</time>
      </trkpt>
      <trkpt lat="47.61968" lon="-2.78988">
        <ele>5.8</ele>
        <time>2025-01-28T10:13:21Z</time>
      </trkpt>
      <trkpt lat="47.61965" lon="-2.78989">
        <ele>5.6</ele>
        <time>2025-01-28T10:13:22Z</time>
      </trkpt>
      <trkpt lat="47.61965" lon="-2.78994">
        <ele>5.3</ele>
        <time>2025-01-28T10:13:23Z</time>
      </trkpt>
      <trkpt lat="47.61967" lon="-2.78995">
        <ele>5.2</ele>
        <time>2025-01-28T10:13:24Z</time>
      </trkpt>
      <trkpt lat="47.61967" lon="-2.78996">
        <ele>5.1</ele>
        <time>2025-01-28T10:13:25Z</time>
      </trkpt>
      <trkpt lat="47.61967" lon="-2.78996">
        <ele>5.1</ele>
        <time>2025-01-28T10:13:26Z</time>
      </trkpt>
      <trkpt lat="47.61967" lon="-2.78996">
        <ele>5.1</ele>
        <time>2025-01-28T10:13:27Z</time>
      </trkpt>
      <trkpt lat="47.61967" lon="-2.78996">
        <ele>5.1</ele>
        <time>2025-01-28T10:13:28Z</time>
      </trkpt>
      <trkpt lat="47.61967" lon="-2.78996">
        <ele>5.2</ele>
        <time>2025-01-28T10:13:29Z</time>
      </trkpt>
      <trkpt lat="47.61967" lon="-2.78995">
        <ele>5.2</ele>
        <time>2025-01-28T10:13:30Z</time>
      </trkpt>
      <trkpt lat="47.61967" lon="-2.78994">
        <ele>5.3</ele>
        <time>2025-01-28T10:13:31Z</time>
      </trkpt>
      <trkpt lat="47.61967" lon="-2.78993">
        <ele>5.3</ele>
        <time>2025-01-28T10:13:32Z</time>
      </trkpt>
      <trkpt lat="47.61966" lon="-2.78992">
        <ele>5.5</ele>
        <time>2025-01-28T10:13:33Z</time>
      </trkpt>
      <trkpt lat="47.61966" lon="-2.7899">
        <ele>5.6</ele>
        <time>2025-01-28T10:13:34Z</time>
      </trkpt>
      <trkpt lat="47.61965" lon="-2.78989">
        <ele>5.7</ele>
        <time>2025-01-28T10:13:35Z</time>
      </trkpt>
      <trkpt lat="47.61965" lon="-2.78987">
        <ele>5.8</ele>
        <time>2025-01-28T10:13:36Z</time>
      </trkpt>
      <trkpt lat="47.61964" lon="-2.78986">
        <ele>5.8</ele>
        <time>2025-01-28T10:13:37Z</time>
      </trkpt>
      <trkpt lat="47.61964" lon="-2.78984">
        <ele>6</ele>
        <time>2025-01-28T10:13:38Z</time>
      </trkpt>
      <trkpt lat="47.61964" lon="-2.78983">
        <ele>6.1</ele>
        <time>2025-01-28T10:13:39Z</time>
      </trkpt>
      <trkpt lat="47.61963" lon="-2.78982">
        <ele>6.2</ele>
        <time>2025-01-28T10:13:40Z</time>
      </trkpt>
      <trkpt lat="47.61962" lon="-2.78982">
        <ele>6.2</ele>
        <time>2025-01-28T10:13:41Z</time>
      </trkpt>
      <trkpt lat="47.61961" lon="-2.78982">
        <ele>6.2</ele>
        <time>2025-01-28T10:13:42Z</time>
      </trkpt>
      <trkpt lat="47.6196" lon="-2.78983">
        <ele>6.1</ele>
        <time>2025-01-28T10:13:43Z</time>
      </trkpt>
      <trkpt lat="47.61959" lon="-2.78983">
        <ele>6</ele>
        <time>2025-01-28T10:13:44Z</time>
      </trkpt>
      <trkpt lat="47.61958" lon="-2.78984">
        <ele>5.9</ele>
        <time>2025-01-28T10:13:45Z</time>
      </trkpt>
      <trkpt lat="47.61957" lon="-2.78985">
        <ele>5.8</ele>
        <time>2025-01-28T10:13:46Z</time>
      </trkpt>
      <trkpt lat="47.61956" lon="-2.78986">
        <ele>5.7</ele>
        <time>2025-01-28T10:13:47Z</time>
      </trkpt>
      <trkpt lat="47.61955" lon="-2.78986">
        <ele>5.7</ele>
        <time>2025-01-28T10:13:48Z</time>
      </trkpt>
      <trkpt lat="47.61954" lon="-2.78985">
        <ele>5.8</ele>
        <time>2025-01-28T10:13:49Z</time>
      </trkpt>
      <trkpt lat="47.61953" lon="-2.78985">
        <ele>5.8</ele>
        <time>2025-01-28T10:13:50Z</time>
      </trkpt>
      <trkpt lat="47.61952" lon="-2.78984">
        <ele>5.9</ele>
        <time>2025-01-28T10:13:51Z</time>
      </trkpt>
      <trkpt lat="47.61952" lon="-2.78985">
        <ele>5.8</ele>
        <time>2025-01-28T10:13:52Z</time>
      </trkpt>
      <trkpt lat="47.61952" lon="-2.78985">
        <ele>5.8</ele>
        <time>2025-01-28T10:13:53Z</time>
      </trkpt>
      <trkpt lat="47.61951" lon="-2.78985">
        <ele>5.8</ele>
        <time>2025-01-28T10:13:54Z</time>
      </trkpt>
      <trkpt lat="47.61952" lon="-2.78985">
        <ele>5.8</ele>
        <time>2025-01-28T10:13:55Z</time>
      </trkpt>
      <trkpt lat="47.6195" lon="-2.78985">
        <ele>5.7</ele>
        <time>2025-01-28T10:13:56Z</time>
      </trkpt>
      <trkpt lat="47.6195" lon="-2.78985">
        <ele>5.7</ele>
        <time>2025-01-28T10:13:57Z</time>
      </trkpt>
      <trkpt lat="47.6195" lon="-2.78985">
        <ele>5.7</ele>
        <time>2025-01-28T10:13:58Z</time>
      </trkpt>
      <trkpt lat="47.61947" lon="-2.78985">
        <ele>5.6</ele>
        <time>2025-01-28T10:13:59Z</time>
      </trkpt>
      <trkpt lat="47.61947" lon="-2.78986">
        <ele>5.6</ele>
        <time>2025-01-28T10:14:00Z</time>
      </trkpt>
      <trkpt lat="47.61947" lon="-2.78986">
        <ele>5.6</ele>
        <time>2025-01-28T10:14:01Z</time>
      </trkpt>
      <trkpt lat="47.61946" lon="-2.78986">
        <ele>5.5</ele>
        <time>2025-01-28T10:14:02Z</time>
      </trkpt>
      <trkpt lat="47.61946" lon="-2.78987">
        <ele>5.4</ele>
        <time>2025-01-28T10:14:03Z</time>
      </trkpt>
      <trkpt lat="47.61945" lon="-2.78987">
        <ele>5.4</ele>
        <time>2025-01-28T10:14:04Z</time>
      </trkpt>
      <trkpt lat="47.61945" lon="-2.78988">
        <ele>5.3</ele>
        <time>2025-01-28T10:14:05Z</time>
      </trkpt>
      <trkpt lat="47.61945" lon="-2.78987">
        <ele>5.4</ele>
        <time>2025-01-28T10:14:06Z</time>
      </trkpt>
      <trkpt lat="47.61945" lon="-2.78987">
        <ele>5.4</ele>
        <time>2025-01-28T10:14:07Z</time>
      </trkpt>
      <trkpt lat="47.61945" lon="-2.78988">
        <ele>5.3</ele>
        <time>2025-01-28T10:14:08Z</time>
      </trkpt>
      <trkpt lat="47.61945" lon="-2.78988">
        <ele>5.3</ele>
        <time>2025-01-28T10:14:09Z</time>
      </trkpt>
      <trkpt lat="47.61945" lon="-2.78989">
        <ele>5.2</ele>
        <time>2025-01-28T10:14:10Z</time>
      </trkpt>
      <trkpt lat="47.61945" lon="-2.7899">
        <ele>5.1</ele>
        <time>2025-01-28T10:14:11Z</time>
      </trkpt>
      <trkpt lat="47.61945" lon="-2.7899">
        <ele>5.1</ele>
        <time>2025-01-28T10:14:12Z</time>
      </trkpt>
      <trkpt lat="47.61945" lon="-2.7899">
        <ele>5.1</ele>
        <time>2025-01-28T10:14:13Z</time>
      </trkpt>
      <trkpt lat="47.61945" lon="-2.7899">
        <ele>5.1</ele>
        <time>2025-01-28T10:14:14Z</time>
      </trkpt>
      <trkpt lat="47.61945" lon="-2.7899">
        <ele>5.1</ele>
        <time>2025-01-28T10:14:15Z</time>
      </trkpt>
      <trkpt lat="47.61944" lon="-2.7899">
        <ele>4</ele>
        <time>2025-01-28T10:14:16Z</time>
      </trkpt>
      <trkpt lat="47.61943" lon="-2.78991">
        <ele>4</ele>
        <time>2025-01-28T10:14:17Z</time>
      </trkpt>
      <trkpt lat="47.61943" lon="-2.78992">
        <ele>4</ele>
        <time>2025-01-28T10:14:18Z</time>
      </trkpt>
      <trkpt lat="47.61941" lon="-2.78992">
        <ele>4</ele>
        <time>2025-01-28T10:14:19Z</time>
      </trkpt>
      <trkpt lat="47.61941" lon="-2.78992">
        <ele>4</ele>
        <time>2025-01-28T10:14:20Z</time>
      </trkpt>
      <trkpt lat="47.61941" lon="-2.78993">
        <ele>4</ele>
        <time>2025-01-28T10:14:21Z</time>
      </trkpt>
      <trkpt lat="47.61941" lon="-2.78994">
        <ele>4</ele>
        <time>2025-01-28T10:14:22Z</time>
      </trkpt>
      <trkpt lat="47.61942" lon="-2.78994">
        <ele>4</ele>
        <time>2025-01-28T10:14:23Z</time>
      </trkpt>
      <trkpt lat="47.61941" lon="-2.78996">
        <ele>4</ele>
        <time>2025-01-28T10:14:24Z</time>
      </trkpt>
      <trkpt lat="47.6194" lon="-2.78997">
        <ele>4</ele>
        <time>2025-01-28T10:14:25Z</time>
      </trkpt>
      <trkpt lat="47.6194" lon="-2.78999">
        <ele>4</ele>
        <time>2025-01-28T10:14:26Z</time>
      </trkpt>
      <trkpt lat="47.61938" lon="-2.79001">
        <ele>3.9</ele>
        <time>2025-01-28T10:14:27Z</time>
      </trkpt>
      <trkpt lat="47.61938" lon="-2.79001">
        <ele>3.9</ele>
        <time>2025-01-28T10:14:28Z</time>
      </trkpt>
      <trkpt lat="47.61937" lon="-2.79001">
        <ele>3.8</ele>
        <time>2025-01-28T10:14:29Z</time>
      </trkpt>
      <trkpt lat="47.61937" lon="-2.79002">
        <ele>3.8</ele>
        <time>2025-01-28T10:14:30Z</time>
      </trkpt>
      <trkpt lat="47.61936" lon="-2.79003">
        <ele>3.7</ele>
        <time>2025-01-28T10:14:31Z</time>
      </trkpt>
      <trkpt lat="47.61938" lon="-2.79004">
        <ele>3.6</ele>
        <time>2025-01-28T10:14:32Z</time>
      </trkpt>
      <trkpt lat="47.61937" lon="-2.79005">
        <ele>3.4</ele>
        <time>2025-01-28T10:14:33Z</time>
      </trkpt>
      <trkpt lat="47.61937" lon="-2.79006">
        <ele>3.4</ele>
        <time>2025-01-28T10:14:34Z</time>
      </trkpt>
      <trkpt lat="47.61936" lon="-2.79006">
        <ele>3.3</ele>
        <time>2025-01-28T10:14:35Z</time>
      </trkpt>
      <trkpt lat="47.61937" lon="-2.79007">
        <ele>3.3</ele>
        <time>2025-01-28T10:14:36Z</time>
      </trkpt>
      <trkpt lat="47.61937" lon="-2.79007">
        <ele>3.2</ele>
        <time>2025-01-28T10:14:37Z</time>
      </trkpt>
      <trkpt lat="47.61938" lon="-2.79007">
        <ele>3.2</ele>
        <time>2025-01-28T10:14:38Z</time>
      </trkpt>
      <trkpt lat="47.61939" lon="-2.79008">
        <ele>3.2</ele>
        <time>2025-01-28T10:14:39Z</time>
      </trkpt>
      <trkpt lat="47.6194" lon="-2.79008">
        <ele>3.1</ele>
        <time>2025-01-28T10:14:40Z</time>
      </trkpt>
      <trkpt lat="47.6194" lon="-2.79009">
        <ele>3</ele>
        <time>2025-01-28T10:14:41Z</time>
      </trkpt>
      <trkpt lat="47.6194" lon="-2.7901">
        <ele>2.9</ele>
        <time>2025-01-28T10:14:42Z</time>
      </trkpt>
      <trkpt lat="47.6194" lon="-2.79011">
        <ele>2.8</ele>
        <time>2025-01-28T10:14:43Z</time>
      </trkpt>
      <trkpt lat="47.6194" lon="-2.79012">
        <ele>2.7</ele>
        <time>2025-01-28T10:14:44Z</time>
      </trkpt>
      <trkpt lat="47.6194" lon="-2.79013">
        <ele>2.6</ele>
        <time>2025-01-28T10:14:45Z</time>
      </trkpt>
      <trkpt lat="47.61941" lon="-2.79014">
        <ele>2.5</ele>
        <time>2025-01-28T10:14:46Z</time>
      </trkpt>
      <trkpt lat="47.61941" lon="-2.79015">
        <ele>2.4</ele>
        <time>2025-01-28T10:14:47Z</time>
      </trkpt>
      <trkpt lat="47.61941" lon="-2.79016">
        <ele>2.3</ele>
        <time>2025-01-28T10:14:48Z</time>
      </trkpt>
      <trkpt lat="47.61942" lon="-2.79016">
        <ele>2.2</ele>
        <time>2025-01-28T10:14:49Z</time>
      </trkpt>
      <trkpt lat="47.61942" lon="-2.79017">
        <ele>2.1</ele>
        <time>2025-01-28T10:14:50Z</time>
      </trkpt>
      <trkpt lat="47.61943" lon="-2.79018">
        <ele>2</ele>
        <time>2025-01-28T10:14:51Z</time>
      </trkpt>
      <trkpt lat="47.61943" lon="-2.79019">
        <ele>1.9</ele>
        <time>2025-01-28T10:14:52Z</time>
      </trkpt>
      <trkpt lat="47.61944" lon="-2.7902">
        <ele>1.8</ele>
        <time>2025-01-28T10:14:53Z</time>
      </trkpt>
      <trkpt lat="47.61944" lon="-2.79021">
        <ele>1.7</ele>
        <time>2025-01-28T10:14:54Z</time>
      </trkpt>
      <trkpt lat="47.61944" lon="-2.79022">
        <ele>1.6</ele>
        <time>2025-01-28T10:14:55Z</time>
      </trkpt>
      <trkpt lat="47.61945" lon="-2.79023">
        <ele>1.6</ele>
        <time>2025-01-28T10:14:56Z</time>
      </trkpt>
      <trkpt lat="47.61946" lon="-2.79024">
        <ele>1.7</ele>
        <time>2025-01-28T10:14:57Z</time>
      </trkpt>
      <trkpt lat="47.61946" lon="-2.79025">
        <ele>1.9</ele>
        <time>2025-01-28T10:14:58Z</time>
      </trkpt>
      <trkpt lat="47.61948" lon="-2.79026">
        <ele>2.2</ele>
        <time>2025-01-28T10:14:59Z</time>
      </trkpt>
      <trkpt lat="47.61949" lon="-2.79028">
        <ele>2.4</ele>
        <time>2025-01-28T10:15:00Z</time>
      </trkpt>
      <trkpt lat="47.6195" lon="-2.7903">
        <ele>2.7</ele>
        <time>2025-01-28T10:15:01Z</time>
      </trkpt>
      <trkpt lat="47.6195" lon="-2.79032">
        <ele>2.8</ele>
        <time>2025-01-28T10:15:02Z</time>
      </trkpt>
      <trkpt lat="47.6195" lon="-2.79034">
        <ele>2.8</ele>
        <time>2025-01-28T10:15:03Z</time>
      </trkpt>
      <trkpt lat="47.61949" lon="-2.79036">
        <ele>2.5</ele>
        <time>2025-01-28T10:15:04Z</time>
      </trkpt>
      <trkpt lat="47.61949" lon="-2.79038">
        <ele>2.3</ele>
        <time>2025-01-28T10:15:05Z</time>
      </trkpt>
      <trkpt lat="47.61948" lon="-2.79039">
        <ele>2.2</ele>
        <time>2025-01-28T10:15:06Z</time>
      </trkpt>
      <trkpt lat="47.61948" lon="-2.79041">
        <ele>2.2</ele>
        <time>2025-01-28T10:15:07Z</time>
      </trkpt>
      <trkpt lat="47.61948" lon="-2.79043">
        <ele>2.2</ele>
        <time>2025-01-28T10:15:08Z</time>
      </trkpt>
      <trkpt lat="47.61948" lon="-2.79045">
        <ele>2.1</ele>
        <time>2025-01-28T10:15:09Z</time>
      </trkpt>
      <trkpt lat="47.61947" lon="-2.79047">
        <ele>1.9</ele>
        <time>2025-01-28T10:15:10Z</time>
      </trkpt>
      <trkpt lat="47.61947" lon="-2.79048">
        <ele>1.8</ele>
        <time>2025-01-28T10:15:11Z</time>
      </trkpt>
      <trkpt lat="47.61947" lon="-2.7905">
        <ele>1.7</ele>
        <time>2025-01-28T10:15:12Z</time>
      </trkpt>
      <trkpt lat="47.61946" lon="-2.79052">
        <ele>1.6</ele>
        <time>2025-01-28T10:15:13Z</time>
      </trkpt>
      <trkpt lat="47.61947" lon="-2.79053">
        <ele>1.7</ele>
        <time>2025-01-28T10:15:14Z</time>
      </trkpt>
      <trkpt lat="47.61947" lon="-2.79055">
        <ele>1.7</ele>
        <time>2025-01-28T10:15:15Z</time>
      </trkpt>
      <trkpt lat="47.61947" lon="-2.79056">
        <ele>1.9</ele>
        <time>2025-01-28T10:15:16Z</time>
      </trkpt>
      <trkpt lat="47.61946" lon="-2.79058">
        <ele>2.2</ele>
        <time>2025-01-28T10:15:17Z</time>
      </trkpt>
      <trkpt lat="47.61946" lon="-2.79059">
        <ele>2.5</ele>
        <time>2025-01-28T10:15:18Z</time>
      </trkpt>
      <trkpt lat="47.61947" lon="-2.7906">
        <ele>2.9</ele>
        <time>2025-01-28T10:15:19Z</time>
      </trkpt>
      <trkpt lat="47.61946" lon="-2.79062">
        <ele>3.3</ele>
        <time>2025-01-28T10:15:20Z</time>
      </trkpt>
      <trkpt lat="47.61946" lon="-2.79064">
        <ele>3.7</ele>
        <time>2025-01-28T10:15:21Z</time>
      </trkpt>
      <trkpt lat="47.61947" lon="-2.79065">
        <ele>4.1</ele>
        <time>2025-01-28T10:15:22Z</time>
      </trkpt>
      <trkpt lat="47.61947" lon="-2.79066">
        <ele>4.4</ele>
        <time>2025-01-28T10:15:23Z</time>
      </trkpt>
      <trkpt lat="47.61948" lon="-2.79067">
        <ele>4.8</ele>
        <time>2025-01-28T10:15:24Z</time>
      </trkpt>
      <trkpt lat="47.61948" lon="-2.79067">
        <ele>5.1</ele>
        <time>2025-01-28T10:15:25Z</time>
      </trkpt>
      <trkpt lat="47.61949" lon="-2.79068">
        <ele>5.4</ele>
        <time>2025-01-28T10:15:26Z</time>
      </trkpt>
      <trkpt lat="47.61949" lon="-2.79069">
        <ele>5.6</ele>
        <time>2025-01-28T10:15:27Z</time>
      </trkpt>
      <trkpt lat="47.61949" lon="-2.7907">
        <ele>5.9</ele>
        <time>2025-01-28T10:15:28Z</time>
      </trkpt>
      <trkpt lat="47.6195" lon="-2.7907">
        <ele>6.1</ele>
        <time>2025-01-28T10:15:29Z</time>
      </trkpt>
      <trkpt lat="47.6195" lon="-2.79071">
        <ele>6.2</ele>
        <time>2025-01-28T10:15:30Z</time>
      </trkpt>
      <trkpt lat="47.61951" lon="-2.79071">
        <ele>6.5</ele>
        <time>2025-01-28T10:15:31Z</time>
      </trkpt>
      <trkpt lat="47.61952" lon="-2.79073">
        <ele>6.8</ele>
        <time>2025-01-28T10:15:32Z</time>
      </trkpt>
      <trkpt lat="47.61952" lon="-2.79074">
        <ele>7.1</ele>
        <time>2025-01-28T10:15:33Z</time>
      </trkpt>
      <trkpt lat="47.61953" lon="-2.79075">
        <ele>7.3</ele>
        <time>2025-01-28T10:15:34Z</time>
      </trkpt>
      <trkpt lat="47.61953" lon="-2.79075">
        <ele>7.4</ele>
        <time>2025-01-28T10:15:35Z</time>
      </trkpt>
      <trkpt lat="47.61954" lon="-2.79075">
        <ele>7.6</ele>
        <time>2025-01-28T10:15:36Z</time>
      </trkpt>
      <trkpt lat="47.61954" lon="-2.79076">
        <ele>7.8</ele>
        <time>2025-01-28T10:15:37Z</time>
      </trkpt>
      <trkpt lat="47.61955" lon="-2.79077">
        <ele>7.9</ele>
        <time>2025-01-28T10:15:38Z</time>
      </trkpt>
      <trkpt lat="47.61956" lon="-2.79079">
        <ele>8.3</ele>
        <time>2025-01-28T10:15:39Z</time>
      </trkpt>
      <trkpt lat="47.61957" lon="-2.79079">
        <ele>8.4</ele>
        <time>2025-01-28T10:15:40Z</time>
      </trkpt>
      <trkpt lat="47.61957" lon="-2.7908">
        <ele>8.5</ele>
        <time>2025-01-28T10:15:41Z</time>
      </trkpt>
      <trkpt lat="47.61958" lon="-2.79081">
        <ele>8.7</ele>
        <time>2025-01-28T10:15:42Z</time>
      </trkpt>
      <trkpt lat="47.61958" lon="-2.79082">
        <ele>8.8</ele>
        <time>2025-01-28T10:15:43Z</time>
      </trkpt>
      <trkpt lat="47.61959" lon="-2.79083">
        <ele>8.9</ele>
        <time>2025-01-28T10:15:44Z</time>
      </trkpt>
      <trkpt lat="47.6196" lon="-2.79084">
        <ele>9</ele>
        <time>2025-01-28T10:15:45Z</time>
      </trkpt>
      <trkpt lat="47.61961" lon="-2.79084">
        <ele>8.9</ele>
        <time>2025-01-28T10:15:46Z</time>
      </trkpt>
      <trkpt lat="47.61961" lon="-2.79086">
        <ele>8.8</ele>
        <time>2025-01-28T10:15:47Z</time>
      </trkpt>
      <trkpt lat="47.61961" lon="-2.79087">
        <ele>8.7</ele>
        <time>2025-01-28T10:15:48Z</time>
      </trkpt>
      <trkpt lat="47.61961" lon="-2.79088">
        <ele>8.6</ele>
        <time>2025-01-28T10:15:49Z</time>
      </trkpt>
      <trkpt lat="47.61961" lon="-2.79088">
        <ele>8.7</ele>
        <time>2025-01-28T10:15:50Z</time>
      </trkpt>
      <trkpt lat="47.61962" lon="-2.79087">
        <ele>8.7</ele>
        <time>2025-01-28T10:15:51Z</time>
      </trkpt>
      <trkpt lat="47.61962" lon="-2.79089">
        <ele>8.6</ele>
        <time>2025-01-28T10:15:52Z</time>
      </trkpt>
      <trkpt lat="47.61963" lon="-2.79091">
        <ele>8.4</ele>
        <time>2025-01-28T10:15:53Z</time>
      </trkpt>
      <trkpt lat="47.61963" lon="-2.79093">
        <ele>8.2</ele>
        <time>2025-01-28T10:15:54Z</time>
      </trkpt>
      <trkpt lat="47.61963" lon="-2.79095">
        <ele>8</ele>
        <time>2025-01-28T10:15:55Z</time>
      </trkpt>
      <trkpt lat="47.61964" lon="-2.79097">
        <ele>7.8</ele>
        <time>2025-01-28T10:15:56Z</time>
      </trkpt>
      <trkpt lat="47.61964" lon="-2.79099">
        <ele>7.6</ele>
        <time>2025-01-28T10:15:57Z</time>
      </trkpt>
      <trkpt lat="47.61964" lon="-2.791">
        <ele>7.5</ele>
        <time>2025-01-28T10:15:58Z</time>
      </trkpt>
      <trkpt lat="47.61965" lon="-2.79102">
        <ele>7.3</ele>
        <time>2025-01-28T10:15:59Z</time>
      </trkpt>
      <trkpt lat="47.61965" lon="-2.79104">
        <ele>7.1</ele>
        <time>2025-01-28T10:16:00Z</time>
      </trkpt>
      <trkpt lat="47.61965" lon="-2.79105">
        <ele>7</ele>
        <time>2025-01-28T10:16:01Z</time>
      </trkpt>
      <trkpt lat="47.61965" lon="-2.79107">
        <ele>6.9</ele>
        <time>2025-01-28T10:16:02Z</time>
      </trkpt>
      <trkpt lat="47.61965" lon="-2.79108">
        <ele>6.8</ele>
        <time>2025-01-28T10:16:03Z</time>
      </trkpt>
      <trkpt lat="47.61965" lon="-2.7911">
        <ele>6.6</ele>
        <time>2025-01-28T10:16:04Z</time>
      </trkpt>
      <trkpt lat="47.61966" lon="-2.79111">
        <ele>6.5</ele>
        <time>2025-01-28T10:16:05Z</time>
      </trkpt>
      <trkpt lat="47.61966" lon="-2.79112">
        <ele>6.2</ele>
        <time>2025-01-28T10:16:06Z</time>
      </trkpt>
      <trkpt lat="47.61966" lon="-2.79114">
        <ele>5.9</ele>
        <time>2025-01-28T10:16:07Z</time>
      </trkpt>
      <trkpt lat="47.61966" lon="-2.79115">
        <ele>5.6</ele>
        <time>2025-01-28T10:16:08Z</time>
      </trkpt>
      <trkpt lat="47.61966" lon="-2.79117">
        <ele>5.3</ele>
        <time>2025-01-28T10:16:09Z</time>
      </trkpt>
      <trkpt lat="47.61966" lon="-2.79118">
        <ele>5</ele>
        <time>2025-01-28T10:16:10Z</time>
      </trkpt>
      <trkpt lat="47.61965" lon="-2.7912">
        <ele>4.8</ele>
        <time>2025-01-28T10:16:11Z</time>
      </trkpt>
      <trkpt lat="47.61965" lon="-2.79121">
        <ele>4.5</ele>
        <time>2025-01-28T10:16:12Z</time>
      </trkpt>
      <trkpt lat="47.61966" lon="-2.79117">
        <ele>5.3</ele>
        <time>2025-01-28T10:16:13Z</time>
      </trkpt>
      <trkpt lat="47.61965" lon="-2.79118">
        <ele>5.1</ele>
        <time>2025-01-28T10:16:14Z</time>
      </trkpt>
      <trkpt lat="47.61965" lon="-2.79119">
        <ele>4.9</ele>
        <time>2025-01-28T10:16:15Z</time>
      </trkpt>
      <trkpt lat="47.61964" lon="-2.79121">
        <ele>4.7</ele>
        <time>2025-01-28T10:16:16Z</time>
      </trkpt>
      <trkpt lat="47.61964" lon="-2.79122">
        <ele>4.3</ele>
        <time>2025-01-28T10:16:17Z</time>
      </trkpt>
      <trkpt lat="47.61964" lon="-2.79121">
        <ele>4.6</ele>
        <time>2025-01-28T10:16:18Z</time>
      </trkpt>
      <trkpt lat="47.61965" lon="-2.79124">
        <ele>4</ele>
        <time>2025-01-28T10:16:19Z</time>
      </trkpt>
      <trkpt lat="47.61966" lon="-2.79125">
        <ele>3.7</ele>
        <time>2025-01-28T10:16:20Z</time>
      </trkpt>
      <trkpt lat="47.61966" lon="-2.79126">
        <ele>3.6</ele>
        <time>2025-01-28T10:16:21Z</time>
      </trkpt>
      <trkpt lat="47.61967" lon="-2.79126">
        <ele>3.4</ele>
        <time>2025-01-28T10:16:22Z</time>
      </trkpt>
      <trkpt lat="47.61967" lon="-2.79127">
        <ele>3.3</ele>
        <time>2025-01-28T10:16:23Z</time>
      </trkpt>
      <trkpt lat="47.61968" lon="-2.79127">
        <ele>3.3</ele>
        <time>2025-01-28T10:16:24Z</time>
      </trkpt>
      <trkpt lat="47.61968" lon="-2.79127">
        <ele>3.3</ele>
        <time>2025-01-28T10:16:25Z</time>
      </trkpt>
      <trkpt lat="47.61969" lon="-2.79127">
        <ele>3.2</ele>
        <time>2025-01-28T10:16:26Z</time>
      </trkpt>
      <trkpt lat="47.6197" lon="-2.79127">
        <ele>3.2</ele>
        <time>2025-01-28T10:16:27Z</time>
      </trkpt>
      <trkpt lat="47.6197" lon="-2.79127">
        <ele>3.2</ele>
        <time>2025-01-28T10:16:28Z</time>
      </trkpt>
      <trkpt lat="47.6197" lon="-2.79127">
        <ele>3.2</ele>
        <time>2025-01-28T10:16:29Z</time>
      </trkpt>
      <trkpt lat="47.6197" lon="-2.79128">
        <ele>3.1</ele>
        <time>2025-01-28T10:16:30Z</time>
      </trkpt>
      <trkpt lat="47.61971" lon="-2.79128">
        <ele>2.9</ele>
        <time>2025-01-28T10:16:31Z</time>
      </trkpt>
      <trkpt lat="47.61972" lon="-2.79129">
        <ele>2.8</ele>
        <time>2025-01-28T10:16:32Z</time>
      </trkpt>
      <trkpt lat="47.61973" lon="-2.7913">
        <ele>2.7</ele>
        <time>2025-01-28T10:16:33Z</time>
      </trkpt>
      <trkpt lat="47.61973" lon="-2.79131">
        <ele>2.7</ele>
        <time>2025-01-28T10:16:34Z</time>
      </trkpt>
      <trkpt lat="47.61973" lon="-2.79132">
        <ele>2.6</ele>
        <time>2025-01-28T10:16:35Z</time>
      </trkpt>
      <trkpt lat="47.61973" lon="-2.79133">
        <ele>2.2</ele>
        <time>2025-01-28T10:16:36Z</time>
      </trkpt>
      <trkpt lat="47.61972" lon="-2.79133">
        <ele>2.1</ele>
        <time>2025-01-28T10:16:37Z</time>
      </trkpt>
      <trkpt lat="47.61972" lon="-2.79134">
        <ele>1.8</ele>
        <time>2025-01-28T10:16:38Z</time>
      </trkpt>
      <trkpt lat="47.61972" lon="-2.79135">
        <ele>1.7</ele>
        <time>2025-01-28T10:16:39Z</time>
      </trkpt>
      <trkpt lat="47.61972" lon="-2.79135">
        <ele>1.7</ele>
        <time>2025-01-28T10:16:40Z</time>
      </trkpt>
      <trkpt lat="47.61972" lon="-2.79136">
        <ele>1.6</ele>
        <time>2025-01-28T10:16:41Z</time>
      </trkpt>
      <trkpt lat="47.61973" lon="-2.79137">
        <ele>1.5</ele>
        <time>2025-01-28T10:16:42Z</time>
      </trkpt>
      <trkpt lat="47.61973" lon="-2.79138">
        <ele>1.3</ele>
        <time>2025-01-28T10:16:43Z</time>
      </trkpt>
      <trkpt lat="47.61973" lon="-2.79139">
        <ele>1.3</ele>
        <time>2025-01-28T10:16:44Z</time>
      </trkpt>
      <trkpt lat="47.61973" lon="-2.7914">
        <ele>1.4</ele>
        <time>2025-01-28T10:16:45Z</time>
      </trkpt>
      <trkpt lat="47.61973" lon="-2.79141">
        <ele>1.4</ele>
        <time>2025-01-28T10:16:46Z</time>
      </trkpt>
      <trkpt lat="47.61974" lon="-2.79143">
        <ele>1.5</ele>
        <time>2025-01-28T10:16:47Z</time>
      </trkpt>
      <trkpt lat="47.61974" lon="-2.79143">
        <ele>1.6</ele>
        <time>2025-01-28T10:16:48Z</time>
      </trkpt>
      <trkpt lat="47.61974" lon="-2.79144">
        <ele>1.6</ele>
        <time>2025-01-28T10:16:49Z</time>
      </trkpt>
      <trkpt lat="47.61974" lon="-2.79145">
        <ele>1.7</ele>
        <time>2025-01-28T10:16:50Z</time>
      </trkpt>
      <trkpt lat="47.61975" lon="-2.79146">
        <ele>1.9</ele>
        <time>2025-01-28T10:16:51Z</time>
      </trkpt>
      <trkpt lat="47.61975" lon="-2.79147">
        <ele>2</ele>
        <time>2025-01-28T10:16:52Z</time>
      </trkpt>
      <trkpt lat="47.61976" lon="-2.79148">
        <ele>2.1</ele>
        <time>2025-01-28T10:16:53Z</time>
      </trkpt>
      <trkpt lat="47.61976" lon="-2.79149">
        <ele>2.3</ele>
        <time>2025-01-28T10:16:54Z</time>
      </trkpt>
      <trkpt lat="47.61976" lon="-2.79149">
        <ele>2.4</ele>
        <time>2025-01-28T10:16:55Z</time>
      </trkpt>
      <trkpt lat="47.61976" lon="-2.7915">
        <ele>2.4</ele>
        <time>2025-01-28T10:16:56Z</time>
      </trkpt>
      <trkpt lat="47.61977" lon="-2.79151">
        <ele>2.5</ele>
        <time>2025-01-28T10:16:57Z</time>
      </trkpt>
      <trkpt lat="47.61977" lon="-2.79151">
        <ele>2.6</ele>
        <time>2025-01-28T10:16:58Z</time>
      </trkpt>
      <trkpt lat="47.61976" lon="-2.79152">
        <ele>2.4</ele>
        <time>2025-01-28T10:16:59Z</time>
      </trkpt>
      <trkpt lat="47.61977" lon="-2.79153">
        <ele>2.5</ele>
        <time>2025-01-28T10:17:00Z</time>
      </trkpt>
      <trkpt lat="47.61977" lon="-2.79155">
        <ele>2.5</ele>
        <time>2025-01-28T10:17:01Z</time>
      </trkpt>
      <trkpt lat="47.61977" lon="-2.79156">
        <ele>2.5</ele>
        <time>2025-01-28T10:17:02Z</time>
      </trkpt>
      <trkpt lat="47.61977" lon="-2.79157">
        <ele>2.5</ele>
        <time>2025-01-28T10:17:03Z</time>
      </trkpt>
      <trkpt lat="47.61977" lon="-2.79158">
        <ele>2.6</ele>
        <time>2025-01-28T10:17:04Z</time>
      </trkpt>
      <trkpt lat="47.61978" lon="-2.79159">
        <ele>2.8</ele>
        <time>2025-01-28T10:17:05Z</time>
      </trkpt>
      <trkpt lat="47.61978" lon="-2.7916">
        <ele>2.9</ele>
        <time>2025-01-28T10:17:06Z</time>
      </trkpt>
      <trkpt lat="47.61978" lon="-2.79161">
        <ele>3</ele>
        <time>2025-01-28T10:17:07Z</time>
      </trkpt>
      <trkpt lat="47.61978" lon="-2.79163">
        <ele>3</ele>
        <time>2025-01-28T10:17:08Z</time>
      </trkpt>
      <trkpt lat="47.61979" lon="-2.79165">
        <ele>3.1</ele>
        <time>2025-01-28T10:17:09Z</time>
      </trkpt>
      <trkpt lat="47.61979" lon="-2.79165">
        <ele>3.3</ele>
        <time>2025-01-28T10:17:10Z</time>
      </trkpt>
      <trkpt lat="47.6198" lon="-2.79166">
        <ele>3.7</ele>
        <time>2025-01-28T10:17:11Z</time>
      </trkpt>
      <trkpt lat="47.61981" lon="-2.79168">
        <ele>4.1</ele>
        <time>2025-01-28T10:17:12Z</time>
      </trkpt>
      <trkpt lat="47.61982" lon="-2.79169">
        <ele>4.5</ele>
        <time>2025-01-28T10:17:13Z</time>
      </trkpt>
      <trkpt lat="47.61982" lon="-2.7917">
        <ele>4.8</ele>
        <time>2025-01-28T10:17:14Z</time>
      </trkpt>
      <trkpt lat="47.61982" lon="-2.79172">
        <ele>5.4</ele>
        <time>2025-01-28T10:17:15Z</time>
      </trkpt>
      <trkpt lat="47.61983" lon="-2.79174">
        <ele>5.7</ele>
        <time>2025-01-28T10:17:16Z</time>
      </trkpt>
      <trkpt lat="47.61983" lon="-2.79175">
        <ele>6.1</ele>
        <time>2025-01-28T10:17:17Z</time>
      </trkpt>
      <trkpt lat="47.61983" lon="-2.79177">
        <ele>6.4</ele>
        <time>2025-01-28T10:17:18Z</time>
      </trkpt>
      <trkpt lat="47.61983" lon="-2.79178">
        <ele>6.7</ele>
        <time>2025-01-28T10:17:19Z</time>
      </trkpt>
      <trkpt lat="47.61983" lon="-2.79178">
        <ele>6.7</ele>
        <time>2025-01-28T10:17:20Z</time>
      </trkpt>
      <trkpt lat="47.61983" lon="-2.79179">
        <ele>7</ele>
        <time>2025-01-28T10:17:21Z</time>
      </trkpt>
      <trkpt lat="47.61983" lon="-2.79181">
        <ele>7.2</ele>
        <time>2025-01-28T10:17:22Z</time>
      </trkpt>
      <trkpt lat="47.61983" lon="-2.79182">
        <ele>7.6</ele>
        <time>2025-01-28T10:17:23Z</time>
      </trkpt>
      <trkpt lat="47.61984" lon="-2.79183">
        <ele>7.8</ele>
        <time>2025-01-28T10:17:24Z</time>
      </trkpt>
      <trkpt lat="47.61984" lon="-2.79184">
        <ele>8</ele>
        <time>2025-01-28T10:17:25Z</time>
      </trkpt>
      <trkpt lat="47.61985" lon="-2.79185">
        <ele>8.3</ele>
        <time>2025-01-28T10:17:26Z</time>
      </trkpt>
      <trkpt lat="47.61985" lon="-2.79187">
        <ele>8.7</ele>
        <time>2025-01-28T10:17:27Z</time>
      </trkpt>
      <trkpt lat="47.61986" lon="-2.79187">
        <ele>8.8</ele>
        <time>2025-01-28T10:17:28Z</time>
      </trkpt>
      <trkpt lat="47.61986" lon="-2.79188">
        <ele>8.9</ele>
        <time>2025-01-28T10:17:29Z</time>
      </trkpt>
      <trkpt lat="47.61986" lon="-2.79189">
        <ele>9.1</ele>
        <time>2025-01-28T10:17:30Z</time>
      </trkpt>
      <trkpt lat="47.61987" lon="-2.79189">
        <ele>9.2</ele>
        <time>2025-01-28T10:17:31Z</time>
      </trkpt>
      <trkpt lat="47.61987" lon="-2.7919">
        <ele>9.4</ele>
        <time>2025-01-28T10:17:32Z</time>
      </trkpt>
      <trkpt lat="47.61988" lon="-2.79191">
        <ele>9.6</ele>
        <time>2025-01-28T10:17:33Z</time>
      </trkpt>
      <trkpt lat="47.61988" lon="-2.79193">
        <ele>9.7</ele>
        <time>2025-01-28T10:17:34Z</time>
      </trkpt>
      <trkpt lat="47.61988" lon="-2.79194">
        <ele>10</ele>
        <time>2025-01-28T10:17:35Z</time>
      </trkpt>
      <trkpt lat="47.61989" lon="-2.79196">
        <ele>9.7</ele>
        <time>2025-01-28T10:17:36Z</time>
      </trkpt>
      <trkpt lat="47.61989" lon="-2.79197">
        <ele>9.4</ele>
        <time>2025-01-28T10:17:37Z</time>
      </trkpt>
      <trkpt lat="47.61989" lon="-2.79199">
        <ele>9</ele>
        <time>2025-01-28T10:17:38Z</time>
      </trkpt>
      <trkpt lat="47.6199" lon="-2.79201">
        <ele>8.7</ele>
        <time>2025-01-28T10:17:39Z</time>
      </trkpt>
      <trkpt lat="47.6199" lon="-2.79202">
        <ele>8.3</ele>
        <time>2025-01-28T10:17:40Z</time>
      </trkpt>
      <trkpt lat="47.61991" lon="-2.79204">
        <ele>7.9</ele>
        <time>2025-01-28T10:17:41Z</time>
      </trkpt>
      <trkpt lat="47.61991" lon="-2.79206">
        <ele>7.4</ele>
        <time>2025-01-28T10:17:42Z</time>
      </trkpt>
      <trkpt lat="47.61991" lon="-2.79208">
        <ele>7</ele>
        <time>2025-01-28T10:17:43Z</time>
      </trkpt>
      <trkpt lat="47.61992" lon="-2.79211">
        <ele>6.5</ele>
        <time>2025-01-28T10:17:44Z</time>
      </trkpt>
      <trkpt lat="47.61992" lon="-2.79212">
        <ele>6.1</ele>
        <time>2025-01-28T10:17:45Z</time>
      </trkpt>
      <trkpt lat="47.61992" lon="-2.79214">
        <ele>5.8</ele>
        <time>2025-01-28T10:17:46Z</time>
      </trkpt>
      <trkpt lat="47.61993" lon="-2.79216">
        <ele>5.4</ele>
        <time>2025-01-28T10:17:47Z</time>
      </trkpt>
      <trkpt lat="47.61993" lon="-2.79217">
        <ele>5</ele>
        <time>2025-01-28T10:17:48Z</time>
      </trkpt>
      <trkpt lat="47.61994" lon="-2.79219">
        <ele>4.7</ele>
        <time>2025-01-28T10:17:49Z</time>
      </trkpt>
      <trkpt lat="47.61994" lon="-2.79221">
        <ele>4.2</ele>
        <time>2025-01-28T10:17:50Z</time>
      </trkpt>
      <trkpt lat="47.61994" lon="-2.79223">
        <ele>3.9</ele>
        <time>2025-01-28T10:17:51Z</time>
      </trkpt>
      <trkpt lat="47.61995" lon="-2.79225">
        <ele>3.8</ele>
        <time>2025-01-28T10:17:52Z</time>
      </trkpt>
      <trkpt lat="47.61995" lon="-2.79227">
        <ele>3.7</ele>
        <time>2025-01-28T10:17:53Z</time>
      </trkpt>
      <trkpt lat="47.61996" lon="-2.79229">
        <ele>3.5</ele>
        <time>2025-01-28T10:17:54Z</time>
      </trkpt>
      <trkpt lat="47.61996" lon="-2.7923">
        <ele>3.4</ele>
        <time>2025-01-28T10:17:55Z</time>
      </trkpt>
      <trkpt lat="47.61997" lon="-2.79232">
        <ele>3.3</ele>
        <time>2025-01-28T10:17:56Z</time>
      </trkpt>
      <trkpt lat="47.61997" lon="-2.79233">
        <ele>3.2</ele>
        <time>2025-01-28T10:17:57Z</time>
      </trkpt>
      <trkpt lat="47.61998" lon="-2.79235">
        <ele>3.1</ele>
        <time>2025-01-28T10:17:58Z</time>
      </trkpt>
      <trkpt lat="47.61998" lon="-2.79237">
        <ele>2.9</ele>
        <time>2025-01-28T10:17:59Z</time>
      </trkpt>
      <trkpt lat="47.61997" lon="-2.79239">
        <ele>2.8</ele>
        <time>2025-01-28T10:18:00Z</time>
      </trkpt>
      <trkpt lat="47.61997" lon="-2.79241">
        <ele>2.7</ele>
        <time>2025-01-28T10:18:01Z</time>
      </trkpt>
      <trkpt lat="47.61997" lon="-2.79243">
        <ele>2.5</ele>
        <time>2025-01-28T10:18:02Z</time>
      </trkpt>
      <trkpt lat="47.61996" lon="-2.79245">
        <ele>2.4</ele>
        <time>2025-01-28T10:18:03Z</time>
      </trkpt>
      <trkpt lat="47.61996" lon="-2.79247">
        <ele>2.2</ele>
        <time>2025-01-28T10:18:04Z</time>
      </trkpt>
      <trkpt lat="47.61996" lon="-2.79249">
        <ele>2.1</ele>
        <time>2025-01-28T10:18:05Z</time>
      </trkpt>
      <trkpt lat="47.61996" lon="-2.79251">
        <ele>2</ele>
        <time>2025-01-28T10:18:06Z</time>
      </trkpt>
      <trkpt lat="47.61996" lon="-2.79253">
        <ele>2.1</ele>
        <time>2025-01-28T10:18:07Z</time>
      </trkpt>
      <trkpt lat="47.61996" lon="-2.79255">
        <ele>2.2</ele>
        <time>2025-01-28T10:18:08Z</time>
      </trkpt>
      <trkpt lat="47.61996" lon="-2.79257">
        <ele>2.3</ele>
        <time>2025-01-28T10:18:09Z</time>
      </trkpt>
      <trkpt lat="47.61996" lon="-2.79259">
        <ele>2.3</ele>
        <time>2025-01-28T10:18:10Z</time>
      </trkpt>
      <trkpt lat="47.61996" lon="-2.79261">
        <ele>2.4</ele>
        <time>2025-01-28T10:18:11Z</time>
      </trkpt>
      <trkpt lat="47.61996" lon="-2.79263">
        <ele>2.5</ele>
        <time>2025-01-28T10:18:12Z</time>
      </trkpt>
      <trkpt lat="47.61997" lon="-2.79265">
        <ele>2.5</ele>
        <time>2025-01-28T10:18:13Z</time>
      </trkpt>
      <trkpt lat="47.61997" lon="-2.79268">
        <ele>2.6</ele>
        <time>2025-01-28T10:18:14Z</time>
      </trkpt>
      <trkpt lat="47.61997" lon="-2.7927">
        <ele>2.7</ele>
        <time>2025-01-28T10:18:15Z</time>
      </trkpt>
      <trkpt lat="47.61997" lon="-2.79272">
        <ele>2.6</ele>
        <time>2025-01-28T10:18:16Z</time>
      </trkpt>
      <trkpt lat="47.61998" lon="-2.79274">
        <ele>2.6</ele>
        <time>2025-01-28T10:18:17Z</time>
      </trkpt>
      <trkpt lat="47.61998" lon="-2.79276">
        <ele>2.6</ele>
        <time>2025-01-28T10:18:18Z</time>
      </trkpt>
      <trkpt lat="47.61998" lon="-2.79277">
        <ele>2.6</ele>
        <time>2025-01-28T10:18:19Z</time>
      </trkpt>
      <trkpt lat="47.61998" lon="-2.79279">
        <ele>2.5</ele>
        <time>2025-01-28T10:18:20Z</time>
      </trkpt>
      <trkpt lat="47.61998" lon="-2.79281">
        <ele>2.4</ele>
        <time>2025-01-28T10:18:21Z</time>
      </trkpt>
      <trkpt lat="47.61999" lon="-2.79283">
        <ele>2.2</ele>
        <time>2025-01-28T10:18:22Z</time>
      </trkpt>
      <trkpt lat="47.61998" lon="-2.79284">
        <ele>2.1</ele>
        <time>2025-01-28T10:18:23Z</time>
      </trkpt>
      <trkpt lat="47.61998" lon="-2.79286">
        <ele>2.1</ele>
        <time>2025-01-28T10:18:24Z</time>
      </trkpt>
      <trkpt lat="47.61998" lon="-2.79288">
        <ele>2.1</ele>
        <time>2025-01-28T10:18:25Z</time>
      </trkpt>
      <trkpt lat="47.61997" lon="-2.79289">
        <ele>2</ele>
        <time>2025-01-28T10:18:26Z</time>
      </trkpt>
      <trkpt lat="47.61997" lon="-2.79291">
        <ele>2</ele>
        <time>2025-01-28T10:18:27Z</time>
      </trkpt>
      <trkpt lat="47.61997" lon="-2.79293">
        <ele>1.9</ele>
        <time>2025-01-28T10:18:28Z</time>
      </trkpt>
      <trkpt lat="47.61997" lon="-2.79295">
        <ele>1.8</ele>
        <time>2025-01-28T10:18:29Z</time>
      </trkpt>
      <trkpt lat="47.61997" lon="-2.79297">
        <ele>1.6</ele>
        <time>2025-01-28T10:18:30Z</time>
      </trkpt>
      <trkpt lat="47.61997" lon="-2.79298">
        <ele>1.5</ele>
        <time>2025-01-28T10:18:31Z</time>
      </trkpt>
      <trkpt lat="47.61997" lon="-2.793">
        <ele>1.4</ele>
        <time>2025-01-28T10:18:32Z</time>
      </trkpt>
      <trkpt lat="47.61996" lon="-2.79302">
        <ele>1.3</ele>
        <time>2025-01-28T10:18:33Z</time>
      </trkpt>
      <trkpt lat="47.61996" lon="-2.79304">
        <ele>1.1</ele>
        <time>2025-01-28T10:18:34Z</time>
      </trkpt>
      <trkpt lat="47.61995" lon="-2.79305">
        <ele>1.1</ele>
        <time>2025-01-28T10:18:35Z</time>
      </trkpt>
      <trkpt lat="47.61994" lon="-2.79306">
        <ele>1</ele>
        <time>2025-01-28T10:18:36Z</time>
      </trkpt>
      <trkpt lat="47.61993" lon="-2.79307">
        <ele>1</ele>
        <time>2025-01-28T10:18:37Z</time>
      </trkpt>
      <trkpt lat="47.61993" lon="-2.79309">
        <ele>1</ele>
        <time>2025-01-28T10:18:38Z</time>
      </trkpt>
      <trkpt lat="47.61993" lon="-2.79309">
        <ele>1</ele>
        <time>2025-01-28T10:18:39Z</time>
      </trkpt>
      <trkpt lat="47.61994" lon="-2.7931">
        <ele>1</ele>
        <time>2025-01-28T10:18:40Z</time>
      </trkpt>
      <trkpt lat="47.61994" lon="-2.7931">
        <ele>1</ele>
        <time>2025-01-28T10:18:41Z</time>
      </trkpt>
      <trkpt lat="47.61995" lon="-2.79311">
        <ele>1</ele>
        <time>2025-01-28T10:18:42Z</time>
      </trkpt>
      <trkpt lat="47.61996" lon="-2.79313">
        <ele>1</ele>
        <time>2025-01-28T10:18:43Z</time>
      </trkpt>
      <trkpt lat="47.61996" lon="-2.79314">
        <ele>1</ele>
        <time>2025-01-28T10:18:44Z</time>
      </trkpt>
      <trkpt lat="47.61996" lon="-2.79316">
        <ele>1</ele>
        <time>2025-01-28T10:18:45Z</time>
      </trkpt>
      <trkpt lat="47.61996" lon="-2.79317">
        <ele>1</ele>
        <time>2025-01-28T10:18:46Z</time>
      </trkpt>
      <trkpt lat="47.61996" lon="-2.79318">
        <ele>1</ele>
        <time>2025-01-28T10:18:47Z</time>
      </trkpt>
      <trkpt lat="47.61997" lon="-2.79319">
        <ele>1</ele>
        <time>2025-01-28T10:18:48Z</time>
      </trkpt>
      <trkpt lat="47.61997" lon="-2.7932">
        <ele>1</ele>
        <time>2025-01-28T10:18:49Z</time>
      </trkpt>
      <trkpt lat="47.61997" lon="-2.79322">
        <ele>1</ele>
        <time>2025-01-28T10:18:50Z</time>
      </trkpt>
      <trkpt lat="47.61998" lon="-2.79322">
        <ele>1</ele>
        <time>2025-01-28T10:18:51Z</time>
      </trkpt>
      <trkpt lat="47.61999" lon="-2.79322">
        <ele>1</ele>
        <time>2025-01-28T10:18:52Z</time>
      </trkpt>
      <trkpt lat="47.62" lon="-2.79323">
        <ele>1</ele>
        <time>2025-01-28T10:18:53Z</time>
      </trkpt>
      <trkpt lat="47.62" lon="-2.79323">
        <ele>1</ele>
        <time>2025-01-28T10:18:54Z</time>
      </trkpt>
      <trkpt lat="47.62001" lon="-2.79324">
        <ele>1.1</ele>
        <time>2025-01-28T10:18:55Z</time>
      </trkpt>
      <trkpt lat="47.62002" lon="-2.79324">
        <ele>1.2</ele>
        <time>2025-01-28T10:18:56Z</time>
      </trkpt>
      <trkpt lat="47.62003" lon="-2.79324">
        <ele>1.4</ele>
        <time>2025-01-28T10:18:57Z</time>
      </trkpt>
      <trkpt lat="47.62004" lon="-2.79324">
        <ele>1.5</ele>
        <time>2025-01-28T10:18:58Z</time>
      </trkpt>
      <trkpt lat="47.62004" lon="-2.79325">
        <ele>1.6</ele>
        <time>2025-01-28T10:18:59Z</time>
      </trkpt>
      <trkpt lat="47.62005" lon="-2.79325">
        <ele>1.8</ele>
        <time>2025-01-28T10:19:00Z</time>
      </trkpt>
      <trkpt lat="47.62006" lon="-2.79325">
        <ele>2</ele>
        <time>2025-01-28T10:19:01Z</time>
      </trkpt>
      <trkpt lat="47.62007" lon="-2.79324">
        <ele>2.1</ele>
        <time>2025-01-28T10:19:02Z</time>
      </trkpt>
      <trkpt lat="47.62008" lon="-2.79324">
        <ele>2.3</ele>
        <time>2025-01-28T10:19:03Z</time>
      </trkpt>
      <trkpt lat="47.62009" lon="-2.79323">
        <ele>2.5</ele>
        <time>2025-01-28T10:19:04Z</time>
      </trkpt>
      <trkpt lat="47.6201" lon="-2.79322">
        <ele>2.7</ele>
        <time>2025-01-28T10:19:05Z</time>
      </trkpt>
      <trkpt lat="47.62011" lon="-2.79322">
        <ele>2.8</ele>
        <time>2025-01-28T10:19:06Z</time>
      </trkpt>
      <trkpt lat="47.62012" lon="-2.79321">
        <ele>3</ele>
        <time>2025-01-28T10:19:07Z</time>
      </trkpt>
      <trkpt lat="47.62013" lon="-2.7932">
        <ele>3.2</ele>
        <time>2025-01-28T10:19:08Z</time>
      </trkpt>
      <trkpt lat="47.62013" lon="-2.7932">
        <ele>3.4</ele>
        <time>2025-01-28T10:19:09Z</time>
      </trkpt>
      <trkpt lat="47.62014" lon="-2.7932">
        <ele>3.5</ele>
        <time>2025-01-28T10:19:10Z</time>
      </trkpt>
      <trkpt lat="47.62015" lon="-2.79319">
        <ele>3.7</ele>
        <time>2025-01-28T10:19:11Z</time>
      </trkpt>
      <trkpt lat="47.62016" lon="-2.79319">
        <ele>3.9</ele>
        <time>2025-01-28T10:19:12Z</time>
      </trkpt>
      <trkpt lat="47.62016" lon="-2.79318">
        <ele>4</ele>
        <time>2025-01-28T10:19:13Z</time>
      </trkpt>
      <trkpt lat="47.62017" lon="-2.79318">
        <ele>4.1</ele>
        <time>2025-01-28T10:19:14Z</time>
      </trkpt>
      <trkpt lat="47.62017" lon="-2.79316">
        <ele>4.3</ele>
        <time>2025-01-28T10:19:15Z</time>
      </trkpt>
      <trkpt lat="47.62017" lon="-2.79315">
        <ele>4.4</ele>
        <time>2025-01-28T10:19:16Z</time>
      </trkpt>
      <trkpt lat="47.62017" lon="-2.79314">
        <ele>4.5</ele>
        <time>2025-01-28T10:19:17Z</time>
      </trkpt>
      <trkpt lat="47.62018" lon="-2.79314">
        <ele>4.7</ele>
        <time>2025-01-28T10:19:18Z</time>
      </trkpt>
      <trkpt lat="47.62018" lon="-2.79315">
        <ele>4.7</ele>
        <time>2025-01-28T10:19:19Z</time>
      </trkpt>
      <trkpt lat="47.62019" lon="-2.79316">
        <ele>4.8</ele>
        <time>2025-01-28T10:19:20Z</time>
      </trkpt>
      <trkpt lat="47.62019" lon="-2.79317">
        <ele>4.7</ele>
        <time>2025-01-28T10:19:21Z</time>
      </trkpt>
      <trkpt lat="47.6202" lon="-2.79318">
        <ele>4.7</ele>
        <time>2025-01-28T10:19:22Z</time>
      </trkpt>
      <trkpt lat="47.6202" lon="-2.79319">
        <ele>4.7</ele>
        <time>2025-01-28T10:19:23Z</time>
      </trkpt>
      <trkpt lat="47.62021" lon="-2.79321">
        <ele>4.6</ele>
        <time>2025-01-28T10:19:24Z</time>
      </trkpt>
      <trkpt lat="47.62021" lon="-2.79323">
        <ele>4.5</ele>
        <time>2025-01-28T10:19:25Z</time>
      </trkpt>
      <trkpt lat="47.62022" lon="-2.79324">
        <ele>4.4</ele>
        <time>2025-01-28T10:19:26Z</time>
      </trkpt>
      <trkpt lat="47.62022" lon="-2.79326">
        <ele>4.2</ele>
        <time>2025-01-28T10:19:27Z</time>
      </trkpt>
      <trkpt lat="47.62023" lon="-2.79328">
        <ele>4.1</ele>
        <time>2025-01-28T10:19:28Z</time>
      </trkpt>
      <trkpt lat="47.62023" lon="-2.79329">
        <ele>3.9</ele>
        <time>2025-01-28T10:19:29Z</time>
      </trkpt>
      <trkpt lat="47.62023" lon="-2.79331">
        <ele>3.8</ele>
        <time>2025-01-28T10:19:30Z</time>
      </trkpt>
      <trkpt lat="47.62024" lon="-2.79333">
        <ele>3.6</ele>
        <time>2025-01-28T10:19:31Z</time>
      </trkpt>
      <trkpt lat="47.62024" lon="-2.79334">
        <ele>3.5</ele>
        <time>2025-01-28T10:19:32Z</time>
      </trkpt>
      <trkpt lat="47.62024" lon="-2.79336">
        <ele>3.4</ele>
        <time>2025-01-28T10:19:33Z</time>
      </trkpt>
      <trkpt lat="47.62024" lon="-2.79338">
        <ele>3.4</ele>
        <time>2025-01-28T10:19:34Z</time>
      </trkpt>
      <trkpt lat="47.62025" lon="-2.7934">
        <ele>3.3</ele>
        <time>2025-01-28T10:19:35Z</time>
      </trkpt>
      <trkpt lat="47.62025" lon="-2.79341">
        <ele>3.2</ele>
        <time>2025-01-28T10:19:36Z</time>
      </trkpt>
      <trkpt lat="47.62026" lon="-2.79343">
        <ele>3.1</ele>
        <time>2025-01-28T10:19:37Z</time>
      </trkpt>
      <trkpt lat="47.62026" lon="-2.79345">
        <ele>3.1</ele>
        <time>2025-01-28T10:19:38Z</time>
      </trkpt>
      <trkpt lat="47.62026" lon="-2.79346">
        <ele>3</ele>
        <time>2025-01-28T10:19:39Z</time>
      </trkpt>
      <trkpt lat="47.62027" lon="-2.79347">
        <ele>2.9</ele>
        <time>2025-01-28T10:19:40Z</time>
      </trkpt>
      <trkpt lat="47.62027" lon="-2.79349">
        <ele>2.8</ele>
        <time>2025-01-28T10:19:41Z</time>
      </trkpt>
      <trkpt lat="47.62027" lon="-2.79351">
        <ele>2.7</ele>
        <time>2025-01-28T10:19:42Z</time>
      </trkpt>
      <trkpt lat="47.62027" lon="-2.79353">
        <ele>2.5</ele>
        <time>2025-01-28T10:19:43Z</time>
      </trkpt>
      <trkpt lat="47.62027" lon="-2.79355">
        <ele>2.4</ele>
        <time>2025-01-28T10:19:44Z</time>
      </trkpt>
      <trkpt lat="47.62027" lon="-2.79357">
        <ele>2.3</ele>
        <time>2025-01-28T10:19:45Z</time>
      </trkpt>
      <trkpt lat="47.62028" lon="-2.79359">
        <ele>2.2</ele>
        <time>2025-01-28T10:19:46Z</time>
      </trkpt>
      <trkpt lat="47.62028" lon="-2.7936">
        <ele>2.1</ele>
        <time>2025-01-28T10:19:47Z</time>
      </trkpt>
      <trkpt lat="47.62028" lon="-2.79362">
        <ele>2</ele>
        <time>2025-01-28T10:19:48Z</time>
      </trkpt>
      <trkpt lat="47.62028" lon="-2.79364">
        <ele>2</ele>
        <time>2025-01-28T10:19:49Z</time>
      </trkpt>
      <trkpt lat="47.62028" lon="-2.79366">
        <ele>1.9</ele>
        <time>2025-01-28T10:19:50Z</time>
      </trkpt>
      <trkpt lat="47.62028" lon="-2.79368">
        <ele>1.9</ele>
        <time>2025-01-28T10:19:51Z</time>
      </trkpt>
      <trkpt lat="47.62029" lon="-2.7937">
        <ele>2</ele>
        <time>2025-01-28T10:19:52Z</time>
      </trkpt>
      <trkpt lat="47.6203" lon="-2.79371">
        <ele>2.3</ele>
        <time>2025-01-28T10:19:53Z</time>
      </trkpt>
      <trkpt lat="47.62031" lon="-2.79371">
        <ele>2.6</ele>
        <time>2025-01-28T10:19:54Z</time>
      </trkpt>
      <trkpt lat="47.62033" lon="-2.79371">
        <ele>3</ele>
        <time>2025-01-28T10:19:55Z</time>
      </trkpt>
      <trkpt lat="47.62034" lon="-2.79371">
        <ele>3.3</ele>
        <time>2025-01-28T10:19:56Z</time>
      </trkpt>
      <trkpt lat="47.62035" lon="-2.79372">
        <ele>3.5</ele>
        <time>2025-01-28T10:19:57Z</time>
      </trkpt>
      <trkpt lat="47.62035" lon="-2.79375">
        <ele>3.4</ele>
        <time>2025-01-28T10:19:58Z</time>
      </trkpt>
      <trkpt lat="47.62035" lon="-2.79376">
        <ele>3.4</ele>
        <time>2025-01-28T10:19:59Z</time>
      </trkpt>
      <trkpt lat="47.62035" lon="-2.79378">
        <ele>3.4</ele>
        <time>2025-01-28T10:20:00Z</time>
      </trkpt>
      <trkpt lat="47.62036" lon="-2.7938">
        <ele>3.4</ele>
        <time>2025-01-28T10:20:01Z</time>
      </trkpt>
      <trkpt lat="47.62036" lon="-2.79381">
        <ele>3.4</ele>
        <time>2025-01-28T10:20:02Z</time>
      </trkpt>
      <trkpt lat="47.62036" lon="-2.79383">
        <ele>3.3</ele>
        <time>2025-01-28T10:20:03Z</time>
      </trkpt>
      <trkpt lat="47.62036" lon="-2.79385">
        <ele>3.3</ele>
        <time>2025-01-28T10:20:04Z</time>
      </trkpt>
      <trkpt lat="47.62036" lon="-2.79387">
        <ele>3.2</ele>
        <time>2025-01-28T10:20:05Z</time>
      </trkpt>
      <trkpt lat="47.62036" lon="-2.79388">
        <ele>3.1</ele>
        <time>2025-01-28T10:20:06Z</time>
      </trkpt>
      <trkpt lat="47.62036" lon="-2.7939">
        <ele>3.1</ele>
        <time>2025-01-28T10:20:07Z</time>
      </trkpt>
      <trkpt lat="47.62036" lon="-2.79392">
        <ele>3.1</ele>
        <time>2025-01-28T10:20:08Z</time>
      </trkpt>
      <trkpt lat="47.62037" lon="-2.79393">
        <ele>3.2</ele>
        <time>2025-01-28T10:20:09Z</time>
      </trkpt>
      <trkpt lat="47.62038" lon="-2.79395">
        <ele>3.4</ele>
        <time>2025-01-28T10:20:10Z</time>
      </trkpt>
      <trkpt lat="47.62038" lon="-2.79395">
        <ele>3.4</ele>
        <time>2025-01-28T10:20:11Z</time>
      </trkpt>
      <trkpt lat="47.62038" lon="-2.79395">
        <ele>3.4</ele>
        <time>2025-01-28T10:20:12Z</time>
      </trkpt>
      <trkpt lat="47.62038" lon="-2.79395">
        <ele>3.4</ele>
        <time>2025-01-28T10:20:13Z</time>
      </trkpt>
      <trkpt lat="47.62038" lon="-2.79395">
        <ele>3.4</ele>
        <time>2025-01-28T10:20:14Z</time>
      </trkpt>
      <trkpt lat="47.62038" lon="-2.79395">
        <ele>3.4</ele>
        <time>2025-01-28T10:20:15Z</time>
      </trkpt>
      <trkpt lat="47.62038" lon="-2.79395">
        <ele>3.4</ele>
        <time>2025-01-28T10:20:16Z</time>
      </trkpt>
      <trkpt lat="47.62038" lon="-2.79397">
        <ele>3.4</ele>
        <time>2025-01-28T10:20:17Z</time>
      </trkpt>
      <trkpt lat="47.62037" lon="-2.79398">
        <ele>3.3</ele>
        <time>2025-01-28T10:20:18Z</time>
      </trkpt>
      <trkpt lat="47.62037" lon="-2.794">
        <ele>3.1</ele>
        <time>2025-01-28T10:20:19Z</time>
      </trkpt>
      <trkpt lat="47.62037" lon="-2.79402">
        <ele>3.1</ele>
        <time>2025-01-28T10:20:20Z</time>
      </trkpt>
      <trkpt lat="47.62037" lon="-2.79403">
        <ele>3.2</ele>
        <time>2025-01-28T10:20:21Z</time>
      </trkpt>
      <trkpt lat="47.62038" lon="-2.79405">
        <ele>3.3</ele>
        <time>2025-01-28T10:20:22Z</time>
      </trkpt>
      <trkpt lat="47.62038" lon="-2.79406">
        <ele>3.3</ele>
        <time>2025-01-28T10:20:23Z</time>
      </trkpt>
      <trkpt lat="47.62037" lon="-2.79408">
        <ele>3.1</ele>
        <time>2025-01-28T10:20:24Z</time>
      </trkpt>
      <trkpt lat="47.62037" lon="-2.7941">
        <ele>3.1</ele>
        <time>2025-01-28T10:20:25Z</time>
      </trkpt>
      <trkpt lat="47.62037" lon="-2.79412">
        <ele>3</ele>
        <time>2025-01-28T10:20:26Z</time>
      </trkpt>
      <trkpt lat="47.62037" lon="-2.79414">
        <ele>3.1</ele>
        <time>2025-01-28T10:20:27Z</time>
      </trkpt>
      <trkpt lat="47.62038" lon="-2.79415">
        <ele>3.1</ele>
        <time>2025-01-28T10:20:28Z</time>
      </trkpt>
      <trkpt lat="47.62038" lon="-2.79417">
        <ele>3.1</ele>
        <time>2025-01-28T10:20:29Z</time>
      </trkpt>
      <trkpt lat="47.62038" lon="-2.79418">
        <ele>3.1</ele>
        <time>2025-01-28T10:20:30Z</time>
      </trkpt>
      <trkpt lat="47.62038" lon="-2.7942">
        <ele>3.2</ele>
        <time>2025-01-28T10:20:31Z</time>
      </trkpt>
      <trkpt lat="47.62038" lon="-2.79422">
        <ele>3.2</ele>
        <time>2025-01-28T10:20:32Z</time>
      </trkpt>
      <trkpt lat="47.62039" lon="-2.79423">
        <ele>3.2</ele>
        <time>2025-01-28T10:20:33Z</time>
      </trkpt>
      <trkpt lat="47.62039" lon="-2.79425">
        <ele>3.2</ele>
        <time>2025-01-28T10:20:34Z</time>
      </trkpt>
      <trkpt lat="47.62039" lon="-2.79426">
        <ele>3.2</ele>
        <time>2025-01-28T10:20:35Z</time>
      </trkpt>
      <trkpt lat="47.62039" lon="-2.79428">
        <ele>3.3</ele>
        <time>2025-01-28T10:20:36Z</time>
      </trkpt>
      <trkpt lat="47.62039" lon="-2.7943">
        <ele>3.3</ele>
        <time>2025-01-28T10:20:37Z</time>
      </trkpt>
      <trkpt lat="47.62039" lon="-2.79431">
        <ele>3.3</ele>
        <time>2025-01-28T10:20:38Z</time>
      </trkpt>
      <trkpt lat="47.6204" lon="-2.79433">
        <ele>3.3</ele>
        <time>2025-01-28T10:20:39Z</time>
      </trkpt>
      <trkpt lat="47.6204" lon="-2.79434">
        <ele>3.3</ele>
        <time>2025-01-28T10:20:40Z</time>
      </trkpt>
      <trkpt lat="47.6204" lon="-2.79436">
        <ele>3.3</ele>
        <time>2025-01-28T10:20:41Z</time>
      </trkpt>
      <trkpt lat="47.6204" lon="-2.79437">
        <ele>3.3</ele>
        <time>2025-01-28T10:20:42Z</time>
      </trkpt>
      <trkpt lat="47.62041" lon="-2.79439">
        <ele>3.4</ele>
        <time>2025-01-28T10:20:43Z</time>
      </trkpt>
      <trkpt lat="47.62041" lon="-2.7944">
        <ele>3.4</ele>
        <time>2025-01-28T10:20:44Z</time>
      </trkpt>
      <trkpt lat="47.62041" lon="-2.79442">
        <ele>3.4</ele>
        <time>2025-01-28T10:20:45Z</time>
      </trkpt>
      <trkpt lat="47.62041" lon="-2.79443">
        <ele>3.5</ele>
        <time>2025-01-28T10:20:46Z</time>
      </trkpt>
      <trkpt lat="47.62042" lon="-2.79445">
        <ele>3.5</ele>
        <time>2025-01-28T10:20:47Z</time>
      </trkpt>
      <trkpt lat="47.62041" lon="-2.79447">
        <ele>3.6</ele>
        <time>2025-01-28T10:20:48Z</time>
      </trkpt>
      <trkpt lat="47.62041" lon="-2.79448">
        <ele>3.8</ele>
        <time>2025-01-28T10:20:49Z</time>
      </trkpt>
      <trkpt lat="47.62042" lon="-2.7945">
        <ele>4</ele>
        <time>2025-01-28T10:20:50Z</time>
      </trkpt>
      <trkpt lat="47.62041" lon="-2.79452">
        <ele>4.1</ele>
        <time>2025-01-28T10:20:51Z</time>
      </trkpt>
      <trkpt lat="47.62041" lon="-2.79453">
        <ele>4.1</ele>
        <time>2025-01-28T10:20:52Z</time>
      </trkpt>
      <trkpt lat="47.62039" lon="-2.79454">
        <ele>4.1</ele>
        <time>2025-01-28T10:20:53Z</time>
      </trkpt>
      <trkpt lat="47.62038" lon="-2.79454">
        <ele>4</ele>
        <time>2025-01-28T10:20:54Z</time>
      </trkpt>
      <trkpt lat="47.62038" lon="-2.79456">
        <ele>4.1</ele>
        <time>2025-01-28T10:20:55Z</time>
      </trkpt>
      <trkpt lat="47.62038" lon="-2.79458">
        <ele>4.3</ele>
        <time>2025-01-28T10:20:56Z</time>
      </trkpt>
      <trkpt lat="47.62038" lon="-2.79459">
        <ele>4.5</ele>
        <time>2025-01-28T10:20:57Z</time>
      </trkpt>
      <trkpt lat="47.62038" lon="-2.79461">
        <ele>4.7</ele>
        <time>2025-01-28T10:20:58Z</time>
      </trkpt>
      <trkpt lat="47.62038" lon="-2.7946">
        <ele>4.6</ele>
        <time>2025-01-28T10:20:59Z</time>
      </trkpt>
      <trkpt lat="47.62038" lon="-2.7946">
        <ele>4.6</ele>
        <time>2025-01-28T10:21:00Z</time>
      </trkpt>
      <trkpt lat="47.62038" lon="-2.79462">
        <ele>4.8</ele>
        <time>2025-01-28T10:21:01Z</time>
      </trkpt>
      <trkpt lat="47.6204" lon="-2.79463">
        <ele>5.1</ele>
        <time>2025-01-28T10:21:02Z</time>
      </trkpt>
      <trkpt lat="47.62041" lon="-2.79464">
        <ele>5.2</ele>
        <time>2025-01-28T10:21:03Z</time>
      </trkpt>
      <trkpt lat="47.62042" lon="-2.79464">
        <ele>5.3</ele>
        <time>2025-01-28T10:21:04Z</time>
      </trkpt>
      <trkpt lat="47.62043" lon="-2.79467">
        <ele>5.5</ele>
        <time>2025-01-28T10:21:05Z</time>
      </trkpt>
      <trkpt lat="47.62042" lon="-2.79469">
        <ele>5.7</ele>
        <time>2025-01-28T10:21:06Z</time>
      </trkpt>
      <trkpt lat="47.62042" lon="-2.7947">
        <ele>5.8</ele>
        <time>2025-01-28T10:21:07Z</time>
      </trkpt>
      <trkpt lat="47.62042" lon="-2.79471">
        <ele>5.9</ele>
        <time>2025-01-28T10:21:08Z</time>
      </trkpt>
      <trkpt lat="47.62042" lon="-2.79472">
        <ele>6</ele>
        <time>2025-01-28T10:21:09Z</time>
      </trkpt>
      <trkpt lat="47.62042" lon="-2.79473">
        <ele>5.9</ele>
        <time>2025-01-28T10:21:10Z</time>
      </trkpt>
      <trkpt lat="47.62042" lon="-2.79474">
        <ele>5.9</ele>
        <time>2025-01-28T10:21:11Z</time>
      </trkpt>
      <trkpt lat="47.62042" lon="-2.79476">
        <ele>5.8</ele>
        <time>2025-01-28T10:21:12Z</time>
      </trkpt>
      <trkpt lat="47.62042" lon="-2.79477">
        <ele>5.7</ele>
        <time>2025-01-28T10:21:13Z</time>
      </trkpt>
      <trkpt lat="47.62042" lon="-2.79478">
        <ele>5.6</ele>
        <time>2025-01-28T10:21:14Z</time>
      </trkpt>
      <trkpt lat="47.62042" lon="-2.79479">
        <ele>5.5</ele>
        <time>2025-01-28T10:21:15Z</time>
      </trkpt>
      <trkpt lat="47.62043" lon="-2.7948">
        <ele>5.4</ele>
        <time>2025-01-28T10:21:16Z</time>
      </trkpt>
      <trkpt lat="47.62043" lon="-2.79481">
        <ele>5.4</ele>
        <time>2025-01-28T10:21:17Z</time>
      </trkpt>
      <trkpt lat="47.62043" lon="-2.79482">
        <ele>5.3</ele>
        <time>2025-01-28T10:21:18Z</time>
      </trkpt>
      <trkpt lat="47.62043" lon="-2.79484">
        <ele>5.2</ele>
        <time>2025-01-28T10:21:19Z</time>
      </trkpt>
      <trkpt lat="47.62043" lon="-2.79485">
        <ele>5.1</ele>
        <time>2025-01-28T10:21:20Z</time>
      </trkpt>
      <trkpt lat="47.62043" lon="-2.79487">
        <ele>4.9</ele>
        <time>2025-01-28T10:21:21Z</time>
      </trkpt>
      <trkpt lat="47.62043" lon="-2.79489">
        <ele>4.8</ele>
        <time>2025-01-28T10:21:22Z</time>
      </trkpt>
      <trkpt lat="47.62042" lon="-2.79489">
        <ele>4.8</ele>
        <time>2025-01-28T10:21:23Z</time>
      </trkpt>
      <trkpt lat="47.62041" lon="-2.79489">
        <ele>4.8</ele>
        <time>2025-01-28T10:21:24Z</time>
      </trkpt>
      <trkpt lat="47.6204" lon="-2.7949">
        <ele>4.7</ele>
        <time>2025-01-28T10:21:25Z</time>
      </trkpt>
      <trkpt lat="47.62039" lon="-2.79491">
        <ele>4.6</ele>
        <time>2025-01-28T10:21:26Z</time>
      </trkpt>
      <trkpt lat="47.62039" lon="-2.79493">
        <ele>4.5</ele>
        <time>2025-01-28T10:21:27Z</time>
      </trkpt>
      <trkpt lat="47.62039" lon="-2.79495">
        <ele>4.3</ele>
        <time>2025-01-28T10:21:28Z</time>
      </trkpt>
      <trkpt lat="47.62039" lon="-2.79497">
        <ele>4.2</ele>
        <time>2025-01-28T10:21:29Z</time>
      </trkpt>
      <trkpt lat="47.62039" lon="-2.79498">
        <ele>4.1</ele>
        <time>2025-01-28T10:21:30Z</time>
      </trkpt>
      <trkpt lat="47.62039" lon="-2.795">
        <ele>4</ele>
        <time>2025-01-28T10:21:31Z</time>
      </trkpt>
      <trkpt lat="47.6204" lon="-2.79501">
        <ele>3.9</ele>
        <time>2025-01-28T10:21:32Z</time>
      </trkpt>
      <trkpt lat="47.62041" lon="-2.79503">
        <ele>3.9</ele>
        <time>2025-01-28T10:21:33Z</time>
      </trkpt>
      <trkpt lat="47.62042" lon="-2.79503">
        <ele>3.9</ele>
        <time>2025-01-28T10:21:34Z</time>
      </trkpt>
      <trkpt lat="47.62042" lon="-2.79504">
        <ele>3.9</ele>
        <time>2025-01-28T10:21:35Z</time>
      </trkpt>
      <trkpt lat="47.62043" lon="-2.79505">
        <ele>3.9</ele>
        <time>2025-01-28T10:21:36Z</time>
      </trkpt>
      <trkpt lat="47.62043" lon="-2.79506">
        <ele>3.8</ele>
        <time>2025-01-28T10:21:37Z</time>
      </trkpt>
      <trkpt lat="47.62043" lon="-2.79507">
        <ele>3.8</ele>
        <time>2025-01-28T10:21:38Z</time>
      </trkpt>
      <trkpt lat="47.62043" lon="-2.79508">
        <ele>3.8</ele>
        <time>2025-01-28T10:21:39Z</time>
      </trkpt>
      <trkpt lat="47.62043" lon="-2.79508">
        <ele>3.7</ele>
        <time>2025-01-28T10:21:40Z</time>
      </trkpt>
      <trkpt lat="47.62042" lon="-2.79509">
        <ele>3.7</ele>
        <time>2025-01-28T10:21:41Z</time>
      </trkpt>
      <trkpt lat="47.62042" lon="-2.7951">
        <ele>3.7</ele>
        <time>2025-01-28T10:21:42Z</time>
      </trkpt>
      <trkpt lat="47.62042" lon="-2.7951">
        <ele>3.7</ele>
        <time>2025-01-28T10:21:43Z</time>
      </trkpt>
      <trkpt lat="47.62042" lon="-2.7951">
        <ele>3.7</ele>
        <time>2025-01-28T10:21:44Z</time>
      </trkpt>
      <trkpt lat="47.62042" lon="-2.7951">
        <ele>3.7</ele>
        <time>2025-01-28T10:21:45Z</time>
      </trkpt>
      <trkpt lat="47.62042" lon="-2.7951">
        <ele>3.7</ele>
        <time>2025-01-28T10:21:46Z</time>
      </trkpt>
      <trkpt lat="47.62042" lon="-2.7951">
        <ele>3.7</ele>
        <time>2025-01-28T10:21:47Z</time>
      </trkpt>
      <trkpt lat="47.62042" lon="-2.7951">
        <ele>3.7</ele>
        <time>2025-01-28T10:21:48Z</time>
      </trkpt>
      <trkpt lat="47.62042" lon="-2.7951">
        <ele>3.7</ele>
        <time>2025-01-28T10:21:49Z</time>
      </trkpt>
      <trkpt lat="47.62042" lon="-2.7951">
        <ele>3.7</ele>
        <time>2025-01-28T10:21:50Z</time>
      </trkpt>
      <trkpt lat="47.62042" lon="-2.7951">
        <ele>3.7</ele>
        <time>2025-01-28T10:21:51Z</time>
      </trkpt>
      <trkpt lat="47.62042" lon="-2.7951">
        <ele>3.7</ele>
        <time>2025-01-28T10:21:52Z</time>
      </trkpt>
      <trkpt lat="47.62042" lon="-2.7951">
        <ele>3.7</ele>
        <time>2025-01-28T10:21:53Z</time>
      </trkpt>
      <trkpt lat="47.62042" lon="-2.7951">
        <ele>3.7</ele>
        <time>2025-01-28T10:21:54Z</time>
      </trkpt>
      <trkpt lat="47.62042" lon="-2.7951">
        <ele>3.7</ele>
        <time>2025-01-28T10:21:55Z</time>
      </trkpt>
      <trkpt lat="47.62042" lon="-2.7951">
        <ele>3.7</ele>
        <time>2025-01-28T10:21:56Z</time>
      </trkpt>
      <trkpt lat="47.62041" lon="-2.7951">
        <ele>3.6</ele>
        <time>2025-01-28T10:21:57Z</time>
      </trkpt>
      <trkpt lat="47.62041" lon="-2.79511">
        <ele>3.5</ele>
        <time>2025-01-28T10:21:58Z</time>
      </trkpt>
      <trkpt lat="47.62041" lon="-2.79513">
        <ele>3.5</ele>
        <time>2025-01-28T10:21:59Z</time>
      </trkpt>
      <trkpt lat="47.62041" lon="-2.79515">
        <ele>3.5</ele>
        <time>2025-01-28T10:22:00Z</time>
      </trkpt>
      <trkpt lat="47.62041" lon="-2.79516">
        <ele>3.4</ele>
        <time>2025-01-28T10:22:01Z</time>
      </trkpt>
      <trkpt lat="47.62042" lon="-2.79518">
        <ele>3.3</ele>
        <time>2025-01-28T10:22:02Z</time>
      </trkpt>
      <trkpt lat="47.62042" lon="-2.7952">
        <ele>3.3</ele>
        <time>2025-01-28T10:22:03Z</time>
      </trkpt>
      <trkpt lat="47.62042" lon="-2.79522">
        <ele>3.2</ele>
        <time>2025-01-28T10:22:04Z</time>
      </trkpt>
      <trkpt lat="47.62041" lon="-2.79523">
        <ele>3.1</ele>
        <time>2025-01-28T10:22:05Z</time>
      </trkpt>
      <trkpt lat="47.62041" lon="-2.79525">
        <ele>3.1</ele>
        <time>2025-01-28T10:22:06Z</time>
      </trkpt>
      <trkpt lat="47.62041" lon="-2.79527">
        <ele>3</ele>
        <time>2025-01-28T10:22:07Z</time>
      </trkpt>
      <trkpt lat="47.62041" lon="-2.79529">
        <ele>2.9</ele>
        <time>2025-01-28T10:22:08Z</time>
      </trkpt>
      <trkpt lat="47.62041" lon="-2.7953">
        <ele>2.9</ele>
        <time>2025-01-28T10:22:09Z</time>
      </trkpt>
      <trkpt lat="47.62041" lon="-2.79532">
        <ele>2.9</ele>
        <time>2025-01-28T10:22:10Z</time>
      </trkpt>
      <trkpt lat="47.6204" lon="-2.79534">
        <ele>2.9</ele>
        <time>2025-01-28T10:22:11Z</time>
      </trkpt>
      <trkpt lat="47.6204" lon="-2.79535">
        <ele>2.9</ele>
        <time>2025-01-28T10:22:12Z</time>
      </trkpt>
      <trkpt lat="47.62039" lon="-2.79537">
        <ele>2.8</ele>
        <time>2025-01-28T10:22:13Z</time>
      </trkpt>
      <trkpt lat="47.62039" lon="-2.79539">
        <ele>2.8</ele>
        <time>2025-01-28T10:22:14Z</time>
      </trkpt>
      <trkpt lat="47.62039" lon="-2.7954">
        <ele>2.8</ele>
        <time>2025-01-28T10:22:15Z</time>
      </trkpt>
      <trkpt lat="47.62039" lon="-2.79542">
        <ele>2.8</ele>
        <time>2025-01-28T10:22:16Z</time>
      </trkpt>
      <trkpt lat="47.62039" lon="-2.79543">
        <ele>2.8</ele>
        <time>2025-01-28T10:22:17Z</time>
      </trkpt>
      <trkpt lat="47.6204" lon="-2.79545">
        <ele>2.9</ele>
        <time>2025-01-28T10:22:18Z</time>
      </trkpt>
      <trkpt lat="47.6204" lon="-2.79546">
        <ele>3</ele>
        <time>2025-01-28T10:22:19Z</time>
      </trkpt>
      <trkpt lat="47.6204" lon="-2.79548">
        <ele>3</ele>
        <time>2025-01-28T10:22:20Z</time>
      </trkpt>
      <trkpt lat="47.62039" lon="-2.79549">
        <ele>2.9</ele>
        <time>2025-01-28T10:22:21Z</time>
      </trkpt>
      <trkpt lat="47.62039" lon="-2.79549">
        <ele>2.8</ele>
        <time>2025-01-28T10:22:22Z</time>
      </trkpt>
      <trkpt lat="47.62038" lon="-2.79549">
        <ele>2.8</ele>
        <time>2025-01-28T10:22:23Z</time>
      </trkpt>
      <trkpt lat="47.62038" lon="-2.79549">
        <ele>2.7</ele>
        <time>2025-01-28T10:22:24Z</time>
      </trkpt>
      <trkpt lat="47.62038" lon="-2.79549">
        <ele>2.7</ele>
        <time>2025-01-28T10:22:25Z</time>
      </trkpt>
      <trkpt lat="47.62038" lon="-2.79549">
        <ele>2.7</ele>
        <time>2025-01-28T10:22:26Z</time>
      </trkpt>
      <trkpt lat="47.62038" lon="-2.79549">
        <ele>2.7</ele>
        <time>2025-01-28T10:22:27Z</time>
      </trkpt>
      <trkpt lat="47.62038" lon="-2.79549">
        <ele>2.7</ele>
        <time>2025-01-28T10:22:28Z</time>
      </trkpt>
      <trkpt lat="47.62038" lon="-2.79549">
        <ele>2.7</ele>
        <time>2025-01-28T10:22:29Z</time>
      </trkpt>
      <trkpt lat="47.62038" lon="-2.79549">
        <ele>2.7</ele>
        <time>2025-01-28T10:22:30Z</time>
      </trkpt>
      <trkpt lat="47.62037" lon="-2.79549">
        <ele>2.7</ele>
        <time>2025-01-28T10:22:31Z</time>
      </trkpt>
      <trkpt lat="47.62037" lon="-2.7955">
        <ele>2.6</ele>
        <time>2025-01-28T10:22:32Z</time>
      </trkpt>
      <trkpt lat="47.62037" lon="-2.79551">
        <ele>2.5</ele>
        <time>2025-01-28T10:22:33Z</time>
      </trkpt>
      <trkpt lat="47.62036" lon="-2.79553">
        <ele>2.5</ele>
        <time>2025-01-28T10:22:34Z</time>
      </trkpt>
      <trkpt lat="47.62036" lon="-2.79554">
        <ele>2.4</ele>
        <time>2025-01-28T10:22:35Z</time>
      </trkpt>
      <trkpt lat="47.62036" lon="-2.79555">
        <ele>2.4</ele>
        <time>2025-01-28T10:22:36Z</time>
      </trkpt>
      <trkpt lat="47.62036" lon="-2.79556">
        <ele>2.5</ele>
        <time>2025-01-28T10:22:37Z</time>
      </trkpt>
      <trkpt lat="47.62035" lon="-2.79558">
        <ele>2.6</ele>
        <time>2025-01-28T10:22:38Z</time>
      </trkpt>
      <trkpt lat="47.62035" lon="-2.79559">
        <ele>2.6</ele>
        <time>2025-01-28T10:22:39Z</time>
      </trkpt>
      <trkpt lat="47.62034" lon="-2.7956">
        <ele>2.7</ele>
        <time>2025-01-28T10:22:40Z</time>
      </trkpt>
      <trkpt lat="47.62034" lon="-2.79562">
        <ele>2.8</ele>
        <time>2025-01-28T10:22:41Z</time>
      </trkpt>
      <trkpt lat="47.62033" lon="-2.79563">
        <ele>2.8</ele>
        <time>2025-01-28T10:22:42Z</time>
      </trkpt>
      <trkpt lat="47.62033" lon="-2.79564">
        <ele>2.9</ele>
        <time>2025-01-28T10:22:43Z</time>
      </trkpt>
      <trkpt lat="47.62033" lon="-2.79565">
        <ele>3.1</ele>
        <time>2025-01-28T10:22:44Z</time>
      </trkpt>
      <trkpt lat="47.62033" lon="-2.79567">
        <ele>3.2</ele>
        <time>2025-01-28T10:22:45Z</time>
      </trkpt>
      <trkpt lat="47.62032" lon="-2.79568">
        <ele>3.3</ele>
        <time>2025-01-28T10:22:46Z</time>
      </trkpt>
      <trkpt lat="47.62031" lon="-2.79569">
        <ele>3.4</ele>
        <time>2025-01-28T10:22:47Z</time>
      </trkpt>
      <trkpt lat="47.62031" lon="-2.7957">
        <ele>3.5</ele>
        <time>2025-01-28T10:22:48Z</time>
      </trkpt>
      <trkpt lat="47.6203" lon="-2.79571">
        <ele>3.4</ele>
        <time>2025-01-28T10:22:49Z</time>
      </trkpt>
      <trkpt lat="47.62029" lon="-2.79572">
        <ele>3.4</ele>
        <time>2025-01-28T10:22:50Z</time>
      </trkpt>
      <trkpt lat="47.62028" lon="-2.79572">
        <ele>3.4</ele>
        <time>2025-01-28T10:22:51Z</time>
      </trkpt>
      <trkpt lat="47.62027" lon="-2.79573">
        <ele>3.5</ele>
        <time>2025-01-28T10:22:52Z</time>
      </trkpt>
      <trkpt lat="47.62026" lon="-2.79573">
        <ele>3.6</ele>
        <time>2025-01-28T10:22:53Z</time>
      </trkpt>
      <trkpt lat="47.62025" lon="-2.79574">
        <ele>3.7</ele>
        <time>2025-01-28T10:22:54Z</time>
      </trkpt>
      <trkpt lat="47.62024" lon="-2.79575">
        <ele>3.8</ele>
        <time>2025-01-28T10:22:55Z</time>
      </trkpt>
      <trkpt lat="47.62023" lon="-2.79576">
        <ele>3.9</ele>
        <time>2025-01-28T10:22:56Z</time>
      </trkpt>
      <trkpt lat="47.62022" lon="-2.79577">
        <ele>4</ele>
        <time>2025-01-28T10:22:57Z</time>
      </trkpt>
      <trkpt lat="47.62021" lon="-2.79578">
        <ele>4.2</ele>
        <time>2025-01-28T10:22:58Z</time>
      </trkpt>
      <trkpt lat="47.6202" lon="-2.79579">
        <ele>4.3</ele>
        <time>2025-01-28T10:22:59Z</time>
      </trkpt>
      <trkpt lat="47.6202" lon="-2.7958">
        <ele>4.5</ele>
        <time>2025-01-28T10:23:00Z</time>
      </trkpt>
      <trkpt lat="47.62019" lon="-2.79581">
        <ele>4.7</ele>
        <time>2025-01-28T10:23:01Z</time>
      </trkpt>
      <trkpt lat="47.62019" lon="-2.79582">
        <ele>4.8</ele>
        <time>2025-01-28T10:23:02Z</time>
      </trkpt>
      <trkpt lat="47.62019" lon="-2.79582">
        <ele>4.9</ele>
        <time>2025-01-28T10:23:03Z</time>
      </trkpt>
      <trkpt lat="47.62018" lon="-2.79583">
        <ele>4.9</ele>
        <time>2025-01-28T10:23:04Z</time>
      </trkpt>
      <trkpt lat="47.62017" lon="-2.79584">
        <ele>5</ele>
        <time>2025-01-28T10:23:05Z</time>
      </trkpt>
      <trkpt lat="47.62017" lon="-2.79584">
        <ele>5</ele>
        <time>2025-01-28T10:23:06Z</time>
      </trkpt>
      <trkpt lat="47.62016" lon="-2.79584">
        <ele>5.1</ele>
        <time>2025-01-28T10:23:07Z</time>
      </trkpt>
      <trkpt lat="47.62016" lon="-2.79586">
        <ele>5.2</ele>
        <time>2025-01-28T10:23:08Z</time>
      </trkpt>
      <trkpt lat="47.62015" lon="-2.79588">
        <ele>5.3</ele>
        <time>2025-01-28T10:23:09Z</time>
      </trkpt>
      <trkpt lat="47.62015" lon="-2.79589">
        <ele>5.4</ele>
        <time>2025-01-28T10:23:10Z</time>
      </trkpt>
      <trkpt lat="47.62014" lon="-2.7959">
        <ele>5.5</ele>
        <time>2025-01-28T10:23:11Z</time>
      </trkpt>
      <trkpt lat="47.62014" lon="-2.79591">
        <ele>5.6</ele>
        <time>2025-01-28T10:23:12Z</time>
      </trkpt>
      <trkpt lat="47.62013" lon="-2.79592">
        <ele>5.6</ele>
        <time>2025-01-28T10:23:13Z</time>
      </trkpt>
      <trkpt lat="47.62013" lon="-2.79593">
        <ele>5.7</ele>
        <time>2025-01-28T10:23:14Z</time>
      </trkpt>
      <trkpt lat="47.62013" lon="-2.79594">
        <ele>5.8</ele>
        <time>2025-01-28T10:23:15Z</time>
      </trkpt>
      <trkpt lat="47.62012" lon="-2.79595">
        <ele>5.8</ele>
        <time>2025-01-28T10:23:16Z</time>
      </trkpt>
      <trkpt lat="47.62012" lon="-2.79596">
        <ele>5.9</ele>
        <time>2025-01-28T10:23:17Z</time>
      </trkpt>
      <trkpt lat="47.62012" lon="-2.79597">
        <ele>6</ele>
        <time>2025-01-28T10:23:18Z</time>
      </trkpt>
      <trkpt lat="47.62012" lon="-2.79598">
        <ele>6</ele>
        <time>2025-01-28T10:23:19Z</time>
      </trkpt>
      <trkpt lat="47.62011" lon="-2.79599">
        <ele>6.1</ele>
        <time>2025-01-28T10:23:20Z</time>
      </trkpt>
      <trkpt lat="47.62011" lon="-2.796">
        <ele>6.2</ele>
        <time>2025-01-28T10:23:21Z</time>
      </trkpt>
      <trkpt lat="47.62011" lon="-2.79601">
        <ele>6.3</ele>
        <time>2025-01-28T10:23:22Z</time>
      </trkpt>
      <trkpt lat="47.6201" lon="-2.79602">
        <ele>6.4</ele>
        <time>2025-01-28T10:23:23Z</time>
      </trkpt>
      <trkpt lat="47.6201" lon="-2.79604">
        <ele>6.5</ele>
        <time>2025-01-28T10:23:24Z</time>
      </trkpt>
      <trkpt lat="47.62009" lon="-2.79606">
        <ele>6.6</ele>
        <time>2025-01-28T10:23:25Z</time>
      </trkpt>
      <trkpt lat="47.62009" lon="-2.79608">
        <ele>6.8</ele>
        <time>2025-01-28T10:23:26Z</time>
      </trkpt>
      <trkpt lat="47.62009" lon="-2.7961">
        <ele>6.9</ele>
        <time>2025-01-28T10:23:27Z</time>
      </trkpt>
      <trkpt lat="47.62009" lon="-2.79611">
        <ele>7</ele>
        <time>2025-01-28T10:23:28Z</time>
      </trkpt>
      <trkpt lat="47.6201" lon="-2.79611">
        <ele>7</ele>
        <time>2025-01-28T10:23:29Z</time>
      </trkpt>
      <trkpt lat="47.6201" lon="-2.79613">
        <ele>6.8</ele>
        <time>2025-01-28T10:23:30Z</time>
      </trkpt>
      <trkpt lat="47.6201" lon="-2.79614">
        <ele>6.6</ele>
        <time>2025-01-28T10:23:31Z</time>
      </trkpt>
      <trkpt lat="47.6201" lon="-2.79615">
        <ele>6.5</ele>
        <time>2025-01-28T10:23:32Z</time>
      </trkpt>
      <trkpt lat="47.6201" lon="-2.79616">
        <ele>6.4</ele>
        <time>2025-01-28T10:23:33Z</time>
      </trkpt>
      <trkpt lat="47.6201" lon="-2.79617">
        <ele>6.2</ele>
        <time>2025-01-28T10:23:34Z</time>
      </trkpt>
      <trkpt lat="47.6201" lon="-2.79619">
        <ele>5.9</ele>
        <time>2025-01-28T10:23:35Z</time>
      </trkpt>
      <trkpt lat="47.6201" lon="-2.7962">
        <ele>5.7</ele>
        <time>2025-01-28T10:23:36Z</time>
      </trkpt>
      <trkpt lat="47.6201" lon="-2.79621">
        <ele>5.6</ele>
        <time>2025-01-28T10:23:37Z</time>
      </trkpt>
      <trkpt lat="47.6201" lon="-2.79622">
        <ele>5.4</ele>
        <time>2025-01-28T10:23:38Z</time>
      </trkpt>
      <trkpt lat="47.62009" lon="-2.79624">
        <ele>5.2</ele>
        <time>2025-01-28T10:23:39Z</time>
      </trkpt>
      <trkpt lat="47.62009" lon="-2.79625">
        <ele>5</ele>
        <time>2025-01-28T10:23:40Z</time>
      </trkpt>
      <trkpt lat="47.62009" lon="-2.79626">
        <ele>4.8</ele>
        <time>2025-01-28T10:23:41Z</time>
      </trkpt>
      <trkpt lat="47.62009" lon="-2.79627">
        <ele>4.6</ele>
        <time>2025-01-28T10:23:42Z</time>
      </trkpt>
      <trkpt lat="47.62008" lon="-2.79628">
        <ele>4.4</ele>
        <time>2025-01-28T10:23:43Z</time>
      </trkpt>
      <trkpt lat="47.62008" lon="-2.79629">
        <ele>4.2</ele>
        <time>2025-01-28T10:23:44Z</time>
      </trkpt>
      <trkpt lat="47.62007" lon="-2.7963">
        <ele>4</ele>
        <time>2025-01-28T10:23:45Z</time>
      </trkpt>
      <trkpt lat="47.62007" lon="-2.7963">
        <ele>3.9</ele>
        <time>2025-01-28T10:23:46Z</time>
      </trkpt>
      <trkpt lat="47.62006" lon="-2.7963">
        <ele>3.7</ele>
        <time>2025-01-28T10:23:47Z</time>
      </trkpt>
      <trkpt lat="47.62005" lon="-2.7963">
        <ele>3.6</ele>
        <time>2025-01-28T10:23:48Z</time>
      </trkpt>
      <trkpt lat="47.62004" lon="-2.79631">
        <ele>3.4</ele>
        <time>2025-01-28T10:23:49Z</time>
      </trkpt>
      <trkpt lat="47.62004" lon="-2.79631">
        <ele>3.2</ele>
        <time>2025-01-28T10:23:50Z</time>
      </trkpt>
      <trkpt lat="47.62004" lon="-2.7963">
        <ele>3.5</ele>
        <time>2025-01-28T10:23:51Z</time>
      </trkpt>
      <trkpt lat="47.62005" lon="-2.79629">
        <ele>4</ele>
        <time>2025-01-28T10:23:52Z</time>
      </trkpt>
      <trkpt lat="47.62004" lon="-2.79628">
        <ele>3.9</ele>
        <time>2025-01-28T10:23:53Z</time>
      </trkpt>
      <trkpt lat="47.62004" lon="-2.7963">
        <ele>3.5</ele>
        <time>2025-01-28T10:23:54Z</time>
      </trkpt>
      <trkpt lat="47.62003" lon="-2.79631">
        <ele>3.1</ele>
        <time>2025-01-28T10:23:55Z</time>
      </trkpt>
      <trkpt lat="47.62003" lon="-2.79633">
        <ele>2.8</ele>
        <time>2025-01-28T10:23:56Z</time>
      </trkpt>
      <trkpt lat="47.62002" lon="-2.79635">
        <ele>2.3</ele>
        <time>2025-01-28T10:23:57Z</time>
      </trkpt>
      <trkpt lat="47.62002" lon="-2.79636">
        <ele>2</ele>
        <time>2025-01-28T10:23:58Z</time>
      </trkpt>
      <trkpt lat="47.62001" lon="-2.79638">
        <ele>1.4</ele>
        <time>2025-01-28T10:23:59Z</time>
      </trkpt>
      <trkpt lat="47.62001" lon="-2.7964">
        <ele>1.2</ele>
        <time>2025-01-28T10:24:00Z</time>
      </trkpt>
      <trkpt lat="47.62" lon="-2.79642">
        <ele>1.1</ele>
        <time>2025-01-28T10:24:01Z</time>
      </trkpt>
      <trkpt lat="47.62" lon="-2.79644">
        <ele>1.2</ele>
        <time>2025-01-28T10:24:02Z</time>
      </trkpt>
      <trkpt lat="47.62" lon="-2.79646">
        <ele>1.2</ele>
        <time>2025-01-28T10:24:03Z</time>
      </trkpt>
      <trkpt lat="47.61999" lon="-2.79647">
        <ele>1.3</ele>
        <time>2025-01-28T10:24:04Z</time>
      </trkpt>
      <trkpt lat="47.61999" lon="-2.79648">
        <ele>1.3</ele>
        <time>2025-01-28T10:24:05Z</time>
      </trkpt>
      <trkpt lat="47.61999" lon="-2.79651">
        <ele>1.4</ele>
        <time>2025-01-28T10:24:06Z</time>
      </trkpt>
      <trkpt lat="47.61999" lon="-2.79651">
        <ele>1.4</ele>
        <time>2025-01-28T10:24:07Z</time>
      </trkpt>
      <trkpt lat="47.61999" lon="-2.79652">
        <ele>1.5</ele>
        <time>2025-01-28T10:24:08Z</time>
      </trkpt>
      <trkpt lat="47.61999" lon="-2.79655">
        <ele>1.6</ele>
        <time>2025-01-28T10:24:09Z</time>
      </trkpt>
      <trkpt lat="47.62" lon="-2.79656">
        <ele>1.6</ele>
        <time>2025-01-28T10:24:10Z</time>
      </trkpt>
      <trkpt lat="47.62" lon="-2.79658">
        <ele>1.7</ele>
        <time>2025-01-28T10:24:11Z</time>
      </trkpt>
      <trkpt lat="47.62" lon="-2.79659">
        <ele>1.7</ele>
        <time>2025-01-28T10:24:12Z</time>
      </trkpt>
      <trkpt lat="47.61999" lon="-2.79661">
        <ele>1.8</ele>
        <time>2025-01-28T10:24:13Z</time>
      </trkpt>
      <trkpt lat="47.61999" lon="-2.79663">
        <ele>1.9</ele>
        <time>2025-01-28T10:24:14Z</time>
      </trkpt>
      <trkpt lat="47.61999" lon="-2.79665">
        <ele>1.9</ele>
        <time>2025-01-28T10:24:15Z</time>
      </trkpt>
      <trkpt lat="47.61998" lon="-2.79666">
        <ele>2</ele>
        <time>2025-01-28T10:24:16Z</time>
      </trkpt>
      <trkpt lat="47.61997" lon="-2.79668">
        <ele>2.1</ele>
        <time>2025-01-28T10:24:17Z</time>
      </trkpt>
      <trkpt lat="47.61996" lon="-2.79669">
        <ele>2.2</ele>
        <time>2025-01-28T10:24:18Z</time>
      </trkpt>
      <trkpt lat="47.61996" lon="-2.7967">
        <ele>2.4</ele>
        <time>2025-01-28T10:24:19Z</time>
      </trkpt>
      <trkpt lat="47.61995" lon="-2.79672">
        <ele>2.5</ele>
        <time>2025-01-28T10:24:20Z</time>
      </trkpt>
      <trkpt lat="47.61995" lon="-2.79673">
        <ele>2.7</ele>
        <time>2025-01-28T10:24:21Z</time>
      </trkpt>
      <trkpt lat="47.61994" lon="-2.79675">
        <ele>2.8</ele>
        <time>2025-01-28T10:24:22Z</time>
      </trkpt>
      <trkpt lat="47.61994" lon="-2.79676">
        <ele>3</ele>
        <time>2025-01-28T10:24:23Z</time>
      </trkpt>
      <trkpt lat="47.61993" lon="-2.79677">
        <ele>3.1</ele>
        <time>2025-01-28T10:24:24Z</time>
      </trkpt>
      <trkpt lat="47.61993" lon="-2.79679">
        <ele>3.3</ele>
        <time>2025-01-28T10:24:25Z</time>
      </trkpt>
      <trkpt lat="47.61992" lon="-2.7968">
        <ele>3.5</ele>
        <time>2025-01-28T10:24:26Z</time>
      </trkpt>
      <trkpt lat="47.61992" lon="-2.79682">
        <ele>3.7</ele>
        <time>2025-01-28T10:24:27Z</time>
      </trkpt>
      <trkpt lat="47.61992" lon="-2.79684">
        <ele>3.8</ele>
        <time>2025-01-28T10:24:28Z</time>
      </trkpt>
      <trkpt lat="47.61992" lon="-2.79685">
        <ele>4</ele>
        <time>2025-01-28T10:24:29Z</time>
      </trkpt>
      <trkpt lat="47.61992" lon="-2.79687">
        <ele>4.2</ele>
        <time>2025-01-28T10:24:30Z</time>
      </trkpt>
      <trkpt lat="47.61991" lon="-2.79689">
        <ele>4.4</ele>
        <time>2025-01-28T10:24:31Z</time>
      </trkpt>
      <trkpt lat="47.61992" lon="-2.7969">
        <ele>4.6</ele>
        <time>2025-01-28T10:24:32Z</time>
      </trkpt>
      <trkpt lat="47.61991" lon="-2.79692">
        <ele>4.7</ele>
        <time>2025-01-28T10:24:33Z</time>
      </trkpt>
      <trkpt lat="47.6199" lon="-2.79693">
        <ele>4.9</ele>
        <time>2025-01-28T10:24:34Z</time>
      </trkpt>
      <trkpt lat="47.61989" lon="-2.79695">
        <ele>5</ele>
        <time>2025-01-28T10:24:35Z</time>
      </trkpt>
      <trkpt lat="47.61989" lon="-2.79696">
        <ele>4.9</ele>
        <time>2025-01-28T10:24:36Z</time>
      </trkpt>
      <trkpt lat="47.61989" lon="-2.79697">
        <ele>4.8</ele>
        <time>2025-01-28T10:24:37Z</time>
      </trkpt>
      <trkpt lat="47.61989" lon="-2.79699">
        <ele>4.8</ele>
        <time>2025-01-28T10:24:38Z</time>
      </trkpt>
      <trkpt lat="47.61989" lon="-2.797">
        <ele>4.7</ele>
        <time>2025-01-28T10:24:39Z</time>
      </trkpt>
      <trkpt lat="47.61989" lon="-2.79702">
        <ele>4.6</ele>
        <time>2025-01-28T10:24:40Z</time>
      </trkpt>
      <trkpt lat="47.61989" lon="-2.79703">
        <ele>4.5</ele>
        <time>2025-01-28T10:24:41Z</time>
      </trkpt>
      <trkpt lat="47.61988" lon="-2.79705">
        <ele>4.4</ele>
        <time>2025-01-28T10:24:42Z</time>
      </trkpt>
      <trkpt lat="47.61988" lon="-2.79706">
        <ele>4.3</ele>
        <time>2025-01-28T10:24:43Z</time>
      </trkpt>
      <trkpt lat="47.61988" lon="-2.79708">
        <ele>4.1</ele>
        <time>2025-01-28T10:24:44Z</time>
      </trkpt>
      <trkpt lat="47.61988" lon="-2.7971">
        <ele>4</ele>
        <time>2025-01-28T10:24:45Z</time>
      </trkpt>
      <trkpt lat="47.61987" lon="-2.79711">
        <ele>3.9</ele>
        <time>2025-01-28T10:24:46Z</time>
      </trkpt>
      <trkpt lat="47.61987" lon="-2.79713">
        <ele>3.8</ele>
        <time>2025-01-28T10:24:47Z</time>
      </trkpt>
      <trkpt lat="47.61987" lon="-2.79714">
        <ele>3.7</ele>
        <time>2025-01-28T10:24:48Z</time>
      </trkpt>
      <trkpt lat="47.61987" lon="-2.79715">
        <ele>3.6</ele>
        <time>2025-01-28T10:24:49Z</time>
      </trkpt>
      <trkpt lat="47.61987" lon="-2.79717">
        <ele>3.5</ele>
        <time>2025-01-28T10:24:50Z</time>
      </trkpt>
      <trkpt lat="47.61987" lon="-2.79718">
        <ele>3.4</ele>
        <time>2025-01-28T10:24:51Z</time>
      </trkpt>
      <trkpt lat="47.61987" lon="-2.7972">
        <ele>3.3</ele>
        <time>2025-01-28T10:24:52Z</time>
      </trkpt>
      <trkpt lat="47.61987" lon="-2.79721">
        <ele>3.2</ele>
        <time>2025-01-28T10:24:53Z</time>
      </trkpt>
      <trkpt lat="47.61987" lon="-2.79723">
        <ele>3.1</ele>
        <time>2025-01-28T10:24:54Z</time>
      </trkpt>
      <trkpt lat="47.61987" lon="-2.79724">
        <ele>3.1</ele>
        <time>2025-01-28T10:24:55Z</time>
      </trkpt>
      <trkpt lat="47.61987" lon="-2.79726">
        <ele>3.1</ele>
        <time>2025-01-28T10:24:56Z</time>
      </trkpt>
      <trkpt lat="47.61986" lon="-2.79727">
        <ele>3</ele>
        <time>2025-01-28T10:24:57Z</time>
      </trkpt>
      <trkpt lat="47.61986" lon="-2.79728">
        <ele>3</ele>
        <time>2025-01-28T10:24:58Z</time>
      </trkpt>
      <trkpt lat="47.61986" lon="-2.7973">
        <ele>3</ele>
        <time>2025-01-28T10:24:59Z</time>
      </trkpt>
      <trkpt lat="47.61986" lon="-2.79732">
        <ele>3</ele>
        <time>2025-01-28T10:25:00Z</time>
      </trkpt>
      <trkpt lat="47.61986" lon="-2.79734">
        <ele>2.9</ele>
        <time>2025-01-28T10:25:01Z</time>
      </trkpt>
      <trkpt lat="47.61985" lon="-2.79735">
        <ele>2.9</ele>
        <time>2025-01-28T10:25:02Z</time>
      </trkpt>
      <trkpt lat="47.61985" lon="-2.79737">
        <ele>2.8</ele>
        <time>2025-01-28T10:25:03Z</time>
      </trkpt>
      <trkpt lat="47.61985" lon="-2.79739">
        <ele>2.8</ele>
        <time>2025-01-28T10:25:04Z</time>
      </trkpt>
      <trkpt lat="47.61984" lon="-2.7974">
        <ele>2.7</ele>
        <time>2025-01-28T10:25:05Z</time>
      </trkpt>
      <trkpt lat="47.61984" lon="-2.79743">
        <ele>2.7</ele>
        <time>2025-01-28T10:25:06Z</time>
      </trkpt>
      <trkpt lat="47.61984" lon="-2.79745">
        <ele>2.7</ele>
        <time>2025-01-28T10:25:07Z</time>
      </trkpt>
      <trkpt lat="47.61984" lon="-2.79746">
        <ele>2.6</ele>
        <time>2025-01-28T10:25:08Z</time>
      </trkpt>
      <trkpt lat="47.61983" lon="-2.79748">
        <ele>2.6</ele>
        <time>2025-01-28T10:25:09Z</time>
      </trkpt>
      <trkpt lat="47.61982" lon="-2.7975">
        <ele>2.4</ele>
        <time>2025-01-28T10:25:10Z</time>
      </trkpt>
      <trkpt lat="47.61982" lon="-2.79751">
        <ele>2.3</ele>
        <time>2025-01-28T10:25:11Z</time>
      </trkpt>
      <trkpt lat="47.61981" lon="-2.79753">
        <ele>2.3</ele>
        <time>2025-01-28T10:25:12Z</time>
      </trkpt>
      <trkpt lat="47.6198" lon="-2.79755">
        <ele>2.2</ele>
        <time>2025-01-28T10:25:13Z</time>
      </trkpt>
      <trkpt lat="47.6198" lon="-2.79756">
        <ele>2.1</ele>
        <time>2025-01-28T10:25:14Z</time>
      </trkpt>
      <trkpt lat="47.6198" lon="-2.79758">
        <ele>2.1</ele>
        <time>2025-01-28T10:25:15Z</time>
      </trkpt>
      <trkpt lat="47.61979" lon="-2.7976">
        <ele>2.1</ele>
        <time>2025-01-28T10:25:16Z</time>
      </trkpt>
      <trkpt lat="47.61978" lon="-2.79761">
        <ele>2</ele>
        <time>2025-01-28T10:25:17Z</time>
      </trkpt>
      <trkpt lat="47.61978" lon="-2.79762">
        <ele>2</ele>
        <time>2025-01-28T10:25:18Z</time>
      </trkpt>
      <trkpt lat="47.61977" lon="-2.79764">
        <ele>1.9</ele>
        <time>2025-01-28T10:25:19Z</time>
      </trkpt>
      <trkpt lat="47.61977" lon="-2.79765">
        <ele>1.9</ele>
        <time>2025-01-28T10:25:20Z</time>
      </trkpt>
      <trkpt lat="47.61976" lon="-2.79767">
        <ele>1.9</ele>
        <time>2025-01-28T10:25:21Z</time>
      </trkpt>
      <trkpt lat="47.61975" lon="-2.79769">
        <ele>1.9</ele>
        <time>2025-01-28T10:25:22Z</time>
      </trkpt>
      <trkpt lat="47.61975" lon="-2.7977">
        <ele>1.9</ele>
        <time>2025-01-28T10:25:23Z</time>
      </trkpt>
      <trkpt lat="47.61974" lon="-2.79771">
        <ele>1.9</ele>
        <time>2025-01-28T10:25:24Z</time>
      </trkpt>
      <trkpt lat="47.61973" lon="-2.79773">
        <ele>1.9</ele>
        <time>2025-01-28T10:25:25Z</time>
      </trkpt>
      <trkpt lat="47.61972" lon="-2.79774">
        <ele>1.8</ele>
        <time>2025-01-28T10:25:26Z</time>
      </trkpt>
      <trkpt lat="47.61971" lon="-2.79774">
        <ele>1.8</ele>
        <time>2025-01-28T10:25:27Z</time>
      </trkpt>
      <trkpt lat="47.6197" lon="-2.79775">
        <ele>1.8</ele>
        <time>2025-01-28T10:25:28Z</time>
      </trkpt>
      <trkpt lat="47.61969" lon="-2.79776">
        <ele>1.8</ele>
        <time>2025-01-28T10:25:29Z</time>
      </trkpt>
      <trkpt lat="47.61967" lon="-2.79776">
        <ele>1.8</ele>
        <time>2025-01-28T10:25:30Z</time>
      </trkpt>
      <trkpt lat="47.61966" lon="-2.79777">
        <ele>1.8</ele>
        <time>2025-01-28T10:25:31Z</time>
      </trkpt>
      <trkpt lat="47.61965" lon="-2.79778">
        <ele>1.8</ele>
        <time>2025-01-28T10:25:32Z</time>
      </trkpt>
      <trkpt lat="47.61964" lon="-2.7978">
        <ele>1.8</ele>
        <time>2025-01-28T10:25:33Z</time>
      </trkpt>
      <trkpt lat="47.61964" lon="-2.79781">
        <ele>1.8</ele>
        <time>2025-01-28T10:25:34Z</time>
      </trkpt>
      <trkpt lat="47.61963" lon="-2.79782">
        <ele>1.8</ele>
        <time>2025-01-28T10:25:35Z</time>
      </trkpt>
      <trkpt lat="47.61963" lon="-2.79784">
        <ele>1.8</ele>
        <time>2025-01-28T10:25:36Z</time>
      </trkpt>
      <trkpt lat="47.61962" lon="-2.79785">
        <ele>1.8</ele>
        <time>2025-01-28T10:25:37Z</time>
      </trkpt>
      <trkpt lat="47.61961" lon="-2.79786">
        <ele>1.8</ele>
        <time>2025-01-28T10:25:38Z</time>
      </trkpt>
      <trkpt lat="47.6196" lon="-2.79787">
        <ele>1.8</ele>
        <time>2025-01-28T10:25:39Z</time>
      </trkpt>
      <trkpt lat="47.6196" lon="-2.79788">
        <ele>1.8</ele>
        <time>2025-01-28T10:25:40Z</time>
      </trkpt>
      <trkpt lat="47.61959" lon="-2.79789">
        <ele>1.7</ele>
        <time>2025-01-28T10:25:41Z</time>
      </trkpt>
      <trkpt lat="47.61958" lon="-2.7979">
        <ele>1.7</ele>
        <time>2025-01-28T10:25:42Z</time>
      </trkpt>
      <trkpt lat="47.61957" lon="-2.79791">
        <ele>1.7</ele>
        <time>2025-01-28T10:25:43Z</time>
      </trkpt>
      <trkpt lat="47.61957" lon="-2.79791">
        <ele>1.7</ele>
        <time>2025-01-28T10:25:44Z</time>
      </trkpt>
      <trkpt lat="47.61957" lon="-2.79792">
        <ele>1.6</ele>
        <time>2025-01-28T10:25:45Z</time>
      </trkpt>
      <trkpt lat="47.61956" lon="-2.79793">
        <ele>1.6</ele>
        <time>2025-01-28T10:25:46Z</time>
      </trkpt>
      <trkpt lat="47.61955" lon="-2.79794">
        <ele>1.6</ele>
        <time>2025-01-28T10:25:47Z</time>
      </trkpt>
      <trkpt lat="47.61954" lon="-2.79795">
        <ele>1.6</ele>
        <time>2025-01-28T10:25:48Z</time>
      </trkpt>
      <trkpt lat="47.61954" lon="-2.79797">
        <ele>1.6</ele>
        <time>2025-01-28T10:25:49Z</time>
      </trkpt>
      <trkpt lat="47.61953" lon="-2.79798">
        <ele>1.5</ele>
        <time>2025-01-28T10:25:50Z</time>
      </trkpt>
      <trkpt lat="47.61952" lon="-2.79799">
        <ele>1.5</ele>
        <time>2025-01-28T10:25:51Z</time>
      </trkpt>
      <trkpt lat="47.61952" lon="-2.798">
        <ele>1.5</ele>
        <time>2025-01-28T10:25:52Z</time>
      </trkpt>
      <trkpt lat="47.61951" lon="-2.798">
        <ele>1.4</ele>
        <time>2025-01-28T10:25:53Z</time>
      </trkpt>
      <trkpt lat="47.6195" lon="-2.79802">
        <ele>1.4</ele>
        <time>2025-01-28T10:25:54Z</time>
      </trkpt>
      <trkpt lat="47.6195" lon="-2.79803">
        <ele>1.4</ele>
        <time>2025-01-28T10:25:55Z</time>
      </trkpt>
      <trkpt lat="47.6195" lon="-2.79804">
        <ele>1.4</ele>
        <time>2025-01-28T10:25:56Z</time>
      </trkpt>
      <trkpt lat="47.61949" lon="-2.79804">
        <ele>1.3</ele>
        <time>2025-01-28T10:25:57Z</time>
      </trkpt>
      <trkpt lat="47.61949" lon="-2.79805">
        <ele>1.3</ele>
        <time>2025-01-28T10:25:58Z</time>
      </trkpt>
      <trkpt lat="47.61949" lon="-2.79807">
        <ele>1.5</ele>
        <time>2025-01-28T10:25:59Z</time>
      </trkpt>
      <trkpt lat="47.61949" lon="-2.79808">
        <ele>1.6</ele>
        <time>2025-01-28T10:26:00Z</time>
      </trkpt>
      <trkpt lat="47.61948" lon="-2.79808">
        <ele>1.6</ele>
        <time>2025-01-28T10:26:01Z</time>
      </trkpt>
      <trkpt lat="47.61948" lon="-2.79812">
        <ele>2.1</ele>
        <time>2025-01-28T10:26:02Z</time>
      </trkpt>
      <trkpt lat="47.61948" lon="-2.79813">
        <ele>2.2</ele>
        <time>2025-01-28T10:26:03Z</time>
      </trkpt>
      <trkpt lat="47.61948" lon="-2.79812">
        <ele>2.1</ele>
        <time>2025-01-28T10:26:04Z</time>
      </trkpt>
      <trkpt lat="47.61948" lon="-2.79814">
        <ele>2.3</ele>
        <time>2025-01-28T10:26:05Z</time>
      </trkpt>
      <trkpt lat="47.61948" lon="-2.79815">
        <ele>2.5</ele>
        <time>2025-01-28T10:26:06Z</time>
      </trkpt>
      <trkpt lat="47.61948" lon="-2.79816">
        <ele>2.6</ele>
        <time>2025-01-28T10:26:07Z</time>
      </trkpt>
      <trkpt lat="47.61947" lon="-2.79817">
        <ele>2.7</ele>
        <time>2025-01-28T10:26:08Z</time>
      </trkpt>
      <trkpt lat="47.61946" lon="-2.79818">
        <ele>2.8</ele>
        <time>2025-01-28T10:26:09Z</time>
      </trkpt>
      <trkpt lat="47.61945" lon="-2.79817">
        <ele>2.6</ele>
        <time>2025-01-28T10:26:10Z</time>
      </trkpt>
      <trkpt lat="47.61944" lon="-2.79815">
        <ele>2.4</ele>
        <time>2025-01-28T10:26:11Z</time>
      </trkpt>
      <trkpt lat="47.61943" lon="-2.79814">
        <ele>2.2</ele>
        <time>2025-01-28T10:26:12Z</time>
      </trkpt>
      <trkpt lat="47.61942" lon="-2.79813">
        <ele>2</ele>
        <time>2025-01-28T10:26:13Z</time>
      </trkpt>
      <trkpt lat="47.61942" lon="-2.79812">
        <ele>2</ele>
        <time>2025-01-28T10:26:14Z</time>
      </trkpt>
      <trkpt lat="47.61941" lon="-2.79812">
        <ele>1.9</ele>
        <time>2025-01-28T10:26:15Z</time>
      </trkpt>
      <trkpt lat="47.6194" lon="-2.79812">
        <ele>2</ele>
        <time>2025-01-28T10:26:16Z</time>
      </trkpt>
      <trkpt lat="47.61939" lon="-2.79812">
        <ele>1.9</ele>
        <time>2025-01-28T10:26:17Z</time>
      </trkpt>
      <trkpt lat="47.61938" lon="-2.79812">
        <ele>1.9</ele>
        <time>2025-01-28T10:26:18Z</time>
      </trkpt>
      <trkpt lat="47.61937" lon="-2.79812">
        <ele>1.9</ele>
        <time>2025-01-28T10:26:19Z</time>
      </trkpt>
      <trkpt lat="47.61936" lon="-2.79813">
        <ele>2.1</ele>
        <time>2025-01-28T10:26:20Z</time>
      </trkpt>
      <trkpt lat="47.61935" lon="-2.79813">
        <ele>2.2</ele>
        <time>2025-01-28T10:26:21Z</time>
      </trkpt>
      <trkpt lat="47.61934" lon="-2.79814">
        <ele>2.2</ele>
        <time>2025-01-28T10:26:22Z</time>
      </trkpt>
      <trkpt lat="47.61934" lon="-2.79814">
        <ele>2.3</ele>
        <time>2025-01-28T10:26:23Z</time>
      </trkpt>
      <trkpt lat="47.61933" lon="-2.79814">
        <ele>2.3</ele>
        <time>2025-01-28T10:26:24Z</time>
      </trkpt>
      <trkpt lat="47.61931" lon="-2.79815">
        <ele>2.6</ele>
        <time>2025-01-28T10:26:25Z</time>
      </trkpt>
      <trkpt lat="47.6193" lon="-2.79815">
        <ele>2.6</ele>
        <time>2025-01-28T10:26:26Z</time>
      </trkpt>
      <trkpt lat="47.61929" lon="-2.79816">
        <ele>2.7</ele>
        <time>2025-01-28T10:26:27Z</time>
      </trkpt>
      <trkpt lat="47.61927" lon="-2.79816">
        <ele>2.7</ele>
        <time>2025-01-28T10:26:28Z</time>
      </trkpt>
      <trkpt lat="47.61926" lon="-2.79816">
        <ele>2.7</ele>
        <time>2025-01-28T10:26:29Z</time>
      </trkpt>
      <trkpt lat="47.61925" lon="-2.79817">
        <ele>2.9</ele>
        <time>2025-01-28T10:26:30Z</time>
      </trkpt>
      <trkpt lat="47.61924" lon="-2.79817">
        <ele>3</ele>
        <time>2025-01-28T10:26:31Z</time>
      </trkpt>
      <trkpt lat="47.61923" lon="-2.79818">
        <ele>3.1</ele>
        <time>2025-01-28T10:26:32Z</time>
      </trkpt>
      <trkpt lat="47.61922" lon="-2.79818">
        <ele>3.2</ele>
        <time>2025-01-28T10:26:33Z</time>
      </trkpt>
      <trkpt lat="47.61921" lon="-2.79819">
        <ele>3.4</ele>
        <time>2025-01-28T10:26:34Z</time>
      </trkpt>
      <trkpt lat="47.61919" lon="-2.79819">
        <ele>3.4</ele>
        <time>2025-01-28T10:26:35Z</time>
      </trkpt>
      <trkpt lat="47.61919" lon="-2.7982">
        <ele>3.6</ele>
        <time>2025-01-28T10:26:36Z</time>
      </trkpt>
      <trkpt lat="47.61917" lon="-2.79821">
        <ele>3.7</ele>
        <time>2025-01-28T10:26:37Z</time>
      </trkpt>
      <trkpt lat="47.61916" lon="-2.79821">
        <ele>3.7</ele>
        <time>2025-01-28T10:26:38Z</time>
      </trkpt>
      <trkpt lat="47.61915" lon="-2.79821">
        <ele>3.8</ele>
        <time>2025-01-28T10:26:39Z</time>
      </trkpt>
      <trkpt lat="47.61915" lon="-2.79822">
        <ele>4</ele>
        <time>2025-01-28T10:26:40Z</time>
      </trkpt>
      <trkpt lat="47.61914" lon="-2.79823">
        <ele>4</ele>
        <time>2025-01-28T10:26:41Z</time>
      </trkpt>
      <trkpt lat="47.61913" lon="-2.79822">
        <ele>4</ele>
        <time>2025-01-28T10:26:42Z</time>
      </trkpt>
      <trkpt lat="47.61911" lon="-2.79822">
        <ele>4</ele>
        <time>2025-01-28T10:26:43Z</time>
      </trkpt>
      <trkpt lat="47.6191" lon="-2.79822">
        <ele>3.9</ele>
        <time>2025-01-28T10:26:44Z</time>
      </trkpt>
      <trkpt lat="47.61908" lon="-2.79823">
        <ele>4</ele>
        <time>2025-01-28T10:26:45Z</time>
      </trkpt>
      <trkpt lat="47.61907" lon="-2.79823">
        <ele>4.2</ele>
        <time>2025-01-28T10:26:46Z</time>
      </trkpt>
      <trkpt lat="47.61906" lon="-2.79824">
        <ele>4.2</ele>
        <time>2025-01-28T10:26:47Z</time>
      </trkpt>
      <trkpt lat="47.61905" lon="-2.79824">
        <ele>4.3</ele>
        <time>2025-01-28T10:26:48Z</time>
      </trkpt>
      <trkpt lat="47.61904" lon="-2.79825">
        <ele>4.4</ele>
        <time>2025-01-28T10:26:49Z</time>
      </trkpt>
      <trkpt lat="47.61903" lon="-2.79825">
        <ele>4.5</ele>
        <time>2025-01-28T10:26:50Z</time>
      </trkpt>
      <trkpt lat="47.61902" lon="-2.79826">
        <ele>4.6</ele>
        <time>2025-01-28T10:26:51Z</time>
      </trkpt>
      <trkpt lat="47.61901" lon="-2.79826">
        <ele>4.6</ele>
        <time>2025-01-28T10:26:52Z</time>
      </trkpt>
      <trkpt lat="47.619" lon="-2.79825">
        <ele>4.6</ele>
        <time>2025-01-28T10:26:53Z</time>
      </trkpt>
      <trkpt lat="47.61899" lon="-2.79823">
        <ele>4.2</ele>
        <time>2025-01-28T10:26:54Z</time>
      </trkpt>
      <trkpt lat="47.61898" lon="-2.79822">
        <ele>4</ele>
        <time>2025-01-28T10:26:55Z</time>
      </trkpt>
      <trkpt lat="47.61897" lon="-2.79822">
        <ele>3.9</ele>
        <time>2025-01-28T10:26:56Z</time>
      </trkpt>
      <trkpt lat="47.61896" lon="-2.79822">
        <ele>3.9</ele>
        <time>2025-01-28T10:26:57Z</time>
      </trkpt>
      <trkpt lat="47.61895" lon="-2.79821">
        <ele>3.7</ele>
        <time>2025-01-28T10:26:58Z</time>
      </trkpt>
      <trkpt lat="47.61894" lon="-2.7982">
        <ele>3.6</ele>
        <time>2025-01-28T10:26:59Z</time>
      </trkpt>
      <trkpt lat="47.61893" lon="-2.79819">
        <ele>3.4</ele>
        <time>2025-01-28T10:27:00Z</time>
      </trkpt>
      <trkpt lat="47.61892" lon="-2.79818">
        <ele>3.3</ele>
        <time>2025-01-28T10:27:01Z</time>
      </trkpt>
      <trkpt lat="47.61891" lon="-2.79818">
        <ele>3.2</ele>
        <time>2025-01-28T10:27:02Z</time>
      </trkpt>
      <trkpt lat="47.6189" lon="-2.79817">
        <ele>3.1</ele>
        <time>2025-01-28T10:27:03Z</time>
      </trkpt>
      <trkpt lat="47.61888" lon="-2.79817">
        <ele>3.1</ele>
        <time>2025-01-28T10:27:04Z</time>
      </trkpt>
      <trkpt lat="47.61888" lon="-2.79817">
        <ele>3.1</ele>
        <time>2025-01-28T10:27:05Z</time>
      </trkpt>
      <trkpt lat="47.61887" lon="-2.79816">
        <ele>2.9</ele>
        <time>2025-01-28T10:27:06Z</time>
      </trkpt>
      <trkpt lat="47.61886" lon="-2.79815">
        <ele>3</ele>
        <time>2025-01-28T10:27:07Z</time>
      </trkpt>
      <trkpt lat="47.61885" lon="-2.79814">
        <ele>2.9</ele>
        <time>2025-01-28T10:27:08Z</time>
      </trkpt>
      <trkpt lat="47.61884" lon="-2.79814">
        <ele>2.9</ele>
        <time>2025-01-28T10:27:09Z</time>
      </trkpt>
      <trkpt lat="47.61883" lon="-2.79813">
        <ele>2.9</ele>
        <time>2025-01-28T10:27:10Z</time>
      </trkpt>
      <trkpt lat="47.61882" lon="-2.79812">
        <ele>2.8</ele>
        <time>2025-01-28T10:27:11Z</time>
      </trkpt>
      <trkpt lat="47.61881" lon="-2.79812">
        <ele>2.8</ele>
        <time>2025-01-28T10:27:12Z</time>
      </trkpt>
      <trkpt lat="47.6188" lon="-2.79811">
        <ele>2.8</ele>
        <time>2025-01-28T10:27:13Z</time>
      </trkpt>
      <trkpt lat="47.61878" lon="-2.79812">
        <ele>3</ele>
        <time>2025-01-28T10:27:14Z</time>
      </trkpt>
      <trkpt lat="47.61877" lon="-2.79812">
        <ele>3.1</ele>
        <time>2025-01-28T10:27:15Z</time>
      </trkpt>
      <trkpt lat="47.61876" lon="-2.79811">
        <ele>3.2</ele>
        <time>2025-01-28T10:27:16Z</time>
      </trkpt>
      <trkpt lat="47.61875" lon="-2.79811">
        <ele>3.2</ele>
        <time>2025-01-28T10:27:17Z</time>
      </trkpt>
      <trkpt lat="47.61874" lon="-2.7981">
        <ele>3.1</ele>
        <time>2025-01-28T10:27:18Z</time>
      </trkpt>
      <trkpt lat="47.61873" lon="-2.79809">
        <ele>3.2</ele>
        <time>2025-01-28T10:27:19Z</time>
      </trkpt>
      <trkpt lat="47.61872" lon="-2.79809">
        <ele>3.2</ele>
        <time>2025-01-28T10:27:20Z</time>
      </trkpt>
      <trkpt lat="47.6187" lon="-2.7981">
        <ele>3.4</ele>
        <time>2025-01-28T10:27:21Z</time>
      </trkpt>
      <trkpt lat="47.61869" lon="-2.7981">
        <ele>3.6</ele>
        <time>2025-01-28T10:27:22Z</time>
      </trkpt>
      <trkpt lat="47.61868" lon="-2.7981">
        <ele>3.7</ele>
        <time>2025-01-28T10:27:23Z</time>
      </trkpt>
      <trkpt lat="47.61867" lon="-2.7981">
        <ele>3.8</ele>
        <time>2025-01-28T10:27:24Z</time>
      </trkpt>
      <trkpt lat="47.61866" lon="-2.79809">
        <ele>3.8</ele>
        <time>2025-01-28T10:27:25Z</time>
      </trkpt>
      <trkpt lat="47.61864" lon="-2.79809">
        <ele>3.9</ele>
        <time>2025-01-28T10:27:26Z</time>
      </trkpt>
      <trkpt lat="47.61863" lon="-2.7981">
        <ele>4.1</ele>
        <time>2025-01-28T10:27:27Z</time>
      </trkpt>
      <trkpt lat="47.61863" lon="-2.7981">
        <ele>4.2</ele>
        <time>2025-01-28T10:27:28Z</time>
      </trkpt>
      <trkpt lat="47.61861" lon="-2.7981">
        <ele>4.3</ele>
        <time>2025-01-28T10:27:29Z</time>
      </trkpt>
      <trkpt lat="47.6186" lon="-2.7981">
        <ele>4.1</ele>
        <time>2025-01-28T10:27:30Z</time>
      </trkpt>
      <trkpt lat="47.61859" lon="-2.79809">
        <ele>4</ele>
        <time>2025-01-28T10:27:31Z</time>
      </trkpt>
      <trkpt lat="47.61858" lon="-2.79811">
        <ele>4</ele>
        <time>2025-01-28T10:27:32Z</time>
      </trkpt>
      <trkpt lat="47.61856" lon="-2.79811">
        <ele>3.9</ele>
        <time>2025-01-28T10:27:33Z</time>
      </trkpt>
      <trkpt lat="47.61855" lon="-2.79811">
        <ele>3.7</ele>
        <time>2025-01-28T10:27:34Z</time>
      </trkpt>
      <trkpt lat="47.61854" lon="-2.79811">
        <ele>3.6</ele>
        <time>2025-01-28T10:27:35Z</time>
      </trkpt>
      <trkpt lat="47.61853" lon="-2.79812">
        <ele>3.6</ele>
        <time>2025-01-28T10:27:36Z</time>
      </trkpt>
      <trkpt lat="47.61852" lon="-2.79813">
        <ele>3.5</ele>
        <time>2025-01-28T10:27:37Z</time>
      </trkpt>
      <trkpt lat="47.61851" lon="-2.79813">
        <ele>3.4</ele>
        <time>2025-01-28T10:27:38Z</time>
      </trkpt>
      <trkpt lat="47.61849" lon="-2.79812">
        <ele>3.1</ele>
        <time>2025-01-28T10:27:39Z</time>
      </trkpt>
      <trkpt lat="47.61848" lon="-2.79812">
        <ele>3.1</ele>
        <time>2025-01-28T10:27:40Z</time>
      </trkpt>
      <trkpt lat="47.61846" lon="-2.79812">
        <ele>2.9</ele>
        <time>2025-01-28T10:27:41Z</time>
      </trkpt>
      <trkpt lat="47.61845" lon="-2.79813">
        <ele>2.8</ele>
        <time>2025-01-28T10:27:42Z</time>
      </trkpt>
      <trkpt lat="47.61844" lon="-2.79814">
        <ele>2.8</ele>
        <time>2025-01-28T10:27:43Z</time>
      </trkpt>
      <trkpt lat="47.61844" lon="-2.79815">
        <ele>2.8</ele>
        <time>2025-01-28T10:27:44Z</time>
      </trkpt>
      <trkpt lat="47.61843" lon="-2.79816">
        <ele>2.8</ele>
        <time>2025-01-28T10:27:45Z</time>
      </trkpt>
      <trkpt lat="47.61842" lon="-2.79816">
        <ele>2.7</ele>
        <time>2025-01-28T10:27:46Z</time>
      </trkpt>
      <trkpt lat="47.61841" lon="-2.79817">
        <ele>2.7</ele>
        <time>2025-01-28T10:27:47Z</time>
      </trkpt>
      <trkpt lat="47.61841" lon="-2.79818">
        <ele>2.7</ele>
        <time>2025-01-28T10:27:48Z</time>
      </trkpt>
      <trkpt lat="47.6184" lon="-2.7982">
        <ele>2.8</ele>
        <time>2025-01-28T10:27:49Z</time>
      </trkpt>
      <trkpt lat="47.6184" lon="-2.79821">
        <ele>2.8</ele>
        <time>2025-01-28T10:27:50Z</time>
      </trkpt>
      <trkpt lat="47.61839" lon="-2.79823">
        <ele>2.9</ele>
        <time>2025-01-28T10:27:51Z</time>
      </trkpt>
      <trkpt lat="47.61839" lon="-2.79825">
        <ele>3</ele>
        <time>2025-01-28T10:27:52Z</time>
      </trkpt>
      <trkpt lat="47.61838" lon="-2.79826">
        <ele>3</ele>
        <time>2025-01-28T10:27:53Z</time>
      </trkpt>
      <trkpt lat="47.61838" lon="-2.79828">
        <ele>3.1</ele>
        <time>2025-01-28T10:27:54Z</time>
      </trkpt>
      <trkpt lat="47.61837" lon="-2.79829">
        <ele>3.1</ele>
        <time>2025-01-28T10:27:55Z</time>
      </trkpt>
      <trkpt lat="47.61836" lon="-2.79831">
        <ele>3.1</ele>
        <time>2025-01-28T10:27:56Z</time>
      </trkpt>
      <trkpt lat="47.61835" lon="-2.79832">
        <ele>3.1</ele>
        <time>2025-01-28T10:27:57Z</time>
      </trkpt>
      <trkpt lat="47.61834" lon="-2.79834">
        <ele>3.1</ele>
        <time>2025-01-28T10:27:58Z</time>
      </trkpt>
      <trkpt lat="47.61834" lon="-2.79836">
        <ele>3</ele>
        <time>2025-01-28T10:27:59Z</time>
      </trkpt>
      <trkpt lat="47.61833" lon="-2.79837">
        <ele>3</ele>
        <time>2025-01-28T10:28:00Z</time>
      </trkpt>
      <trkpt lat="47.61833" lon="-2.79839">
        <ele>3</ele>
        <time>2025-01-28T10:28:01Z</time>
      </trkpt>
      <trkpt lat="47.61832" lon="-2.79841">
        <ele>3</ele>
        <time>2025-01-28T10:28:02Z</time>
      </trkpt>
      <trkpt lat="47.61832" lon="-2.79842">
        <ele>3</ele>
        <time>2025-01-28T10:28:03Z</time>
      </trkpt>
      <trkpt lat="47.61832" lon="-2.79844">
        <ele>3</ele>
        <time>2025-01-28T10:28:04Z</time>
      </trkpt>
      <trkpt lat="47.61831" lon="-2.79846">
        <ele>3</ele>
        <time>2025-01-28T10:28:05Z</time>
      </trkpt>
      <trkpt lat="47.61831" lon="-2.79847">
        <ele>3</ele>
        <time>2025-01-28T10:28:06Z</time>
      </trkpt>
      <trkpt lat="47.6183" lon="-2.79848">
        <ele>3</ele>
        <time>2025-01-28T10:28:07Z</time>
      </trkpt>
      <trkpt lat="47.6183" lon="-2.7985">
        <ele>3</ele>
        <time>2025-01-28T10:28:08Z</time>
      </trkpt>
      <trkpt lat="47.6183" lon="-2.79852">
        <ele>3</ele>
        <time>2025-01-28T10:28:09Z</time>
      </trkpt>
      <trkpt lat="47.6183" lon="-2.79854">
        <ele>3</ele>
        <time>2025-01-28T10:28:10Z</time>
      </trkpt>
      <trkpt lat="47.6183" lon="-2.79855">
        <ele>3</ele>
        <time>2025-01-28T10:28:11Z</time>
      </trkpt>
      <trkpt lat="47.61831" lon="-2.79857">
        <ele>3</ele>
        <time>2025-01-28T10:28:12Z</time>
      </trkpt>
      <trkpt lat="47.61832" lon="-2.79858">
        <ele>3</ele>
        <time>2025-01-28T10:28:13Z</time>
      </trkpt>
      <trkpt lat="47.61833" lon="-2.79859">
        <ele>3</ele>
        <time>2025-01-28T10:28:14Z</time>
      </trkpt>
      <trkpt lat="47.61833" lon="-2.79861">
        <ele>3</ele>
        <time>2025-01-28T10:28:15Z</time>
      </trkpt>
      <trkpt lat="47.61834" lon="-2.79862">
        <ele>2.9</ele>
        <time>2025-01-28T10:28:16Z</time>
      </trkpt>
      <trkpt lat="47.61834" lon="-2.79864">
        <ele>2.9</ele>
        <time>2025-01-28T10:28:17Z</time>
      </trkpt>
      <trkpt lat="47.61835" lon="-2.79865">
        <ele>2.9</ele>
        <time>2025-01-28T10:28:18Z</time>
      </trkpt>
      <trkpt lat="47.61835" lon="-2.79867">
        <ele>2.8</ele>
        <time>2025-01-28T10:28:19Z</time>
      </trkpt>
      <trkpt lat="47.61836" lon="-2.79869">
        <ele>2.8</ele>
        <time>2025-01-28T10:28:20Z</time>
      </trkpt>
      <trkpt lat="47.61836" lon="-2.7987">
        <ele>2.7</ele>
        <time>2025-01-28T10:28:21Z</time>
      </trkpt>
      <trkpt lat="47.61837" lon="-2.79872">
        <ele>2.8</ele>
        <time>2025-01-28T10:28:22Z</time>
      </trkpt>
      <trkpt lat="47.61838" lon="-2.79873">
        <ele>2.9</ele>
        <time>2025-01-28T10:28:23Z</time>
      </trkpt>
      <trkpt lat="47.61839" lon="-2.79875">
        <ele>2.8</ele>
        <time>2025-01-28T10:28:24Z</time>
      </trkpt>
      <trkpt lat="47.61839" lon="-2.79876">
        <ele>2.9</ele>
        <time>2025-01-28T10:28:25Z</time>
      </trkpt>
      <trkpt lat="47.6184" lon="-2.79877">
        <ele>3</ele>
        <time>2025-01-28T10:28:26Z</time>
      </trkpt>
      <trkpt lat="47.6184" lon="-2.7988">
        <ele>2.9</ele>
        <time>2025-01-28T10:28:27Z</time>
      </trkpt>
      <trkpt lat="47.61841" lon="-2.79881">
        <ele>2.9</ele>
        <time>2025-01-28T10:28:28Z</time>
      </trkpt>
      <trkpt lat="47.61841" lon="-2.79883">
        <ele>2.9</ele>
        <time>2025-01-28T10:28:29Z</time>
      </trkpt>
      <trkpt lat="47.61841" lon="-2.79885">
        <ele>2.8</ele>
        <time>2025-01-28T10:28:30Z</time>
      </trkpt>
      <trkpt lat="47.61841" lon="-2.79886">
        <ele>2.8</ele>
        <time>2025-01-28T10:28:31Z</time>
      </trkpt>
      <trkpt lat="47.61841" lon="-2.79888">
        <ele>2.8</ele>
        <time>2025-01-28T10:28:32Z</time>
      </trkpt>
      <trkpt lat="47.61842" lon="-2.7989">
        <ele>2.8</ele>
        <time>2025-01-28T10:28:33Z</time>
      </trkpt>
      <trkpt lat="47.61841" lon="-2.79892">
        <ele>2.7</ele>
        <time>2025-01-28T10:28:34Z</time>
      </trkpt>
      <trkpt lat="47.61841" lon="-2.79893">
        <ele>2.7</ele>
        <time>2025-01-28T10:28:35Z</time>
      </trkpt>
      <trkpt lat="47.61841" lon="-2.79895">
        <ele>2.7</ele>
        <time>2025-01-28T10:28:36Z</time>
      </trkpt>
      <trkpt lat="47.61841" lon="-2.79897">
        <ele>2.8</ele>
        <time>2025-01-28T10:28:37Z</time>
      </trkpt>
      <trkpt lat="47.61841" lon="-2.79898">
        <ele>2.8</ele>
        <time>2025-01-28T10:28:38Z</time>
      </trkpt>
      <trkpt lat="47.61841" lon="-2.799">
        <ele>2.8</ele>
        <time>2025-01-28T10:28:39Z</time>
      </trkpt>
      <trkpt lat="47.61841" lon="-2.79902">
        <ele>2.9</ele>
        <time>2025-01-28T10:28:40Z</time>
      </trkpt>
      <trkpt lat="47.61841" lon="-2.79904">
        <ele>2.9</ele>
        <time>2025-01-28T10:28:41Z</time>
      </trkpt>
      <trkpt lat="47.6184" lon="-2.79906">
        <ele>2.8</ele>
        <time>2025-01-28T10:28:42Z</time>
      </trkpt>
      <trkpt lat="47.6184" lon="-2.79907">
        <ele>2.7</ele>
        <time>2025-01-28T10:28:43Z</time>
      </trkpt>
      <trkpt lat="47.61839" lon="-2.79909">
        <ele>2.7</ele>
        <time>2025-01-28T10:28:44Z</time>
      </trkpt>
      <trkpt lat="47.61839" lon="-2.7991">
        <ele>2.7</ele>
        <time>2025-01-28T10:28:45Z</time>
      </trkpt>
      <trkpt lat="47.61839" lon="-2.79912">
        <ele>2.7</ele>
        <time>2025-01-28T10:28:46Z</time>
      </trkpt>
      <trkpt lat="47.61839" lon="-2.79913">
        <ele>2.7</ele>
        <time>2025-01-28T10:28:47Z</time>
      </trkpt>
      <trkpt lat="47.61839" lon="-2.79915">
        <ele>2.8</ele>
        <time>2025-01-28T10:28:48Z</time>
      </trkpt>
      <trkpt lat="47.61839" lon="-2.79917">
        <ele>2.8</ele>
        <time>2025-01-28T10:28:49Z</time>
      </trkpt>
      <trkpt lat="47.61839" lon="-2.79919">
        <ele>2.7</ele>
        <time>2025-01-28T10:28:50Z</time>
      </trkpt>
      <trkpt lat="47.61839" lon="-2.7992">
        <ele>2.7</ele>
        <time>2025-01-28T10:28:51Z</time>
      </trkpt>
      <trkpt lat="47.61839" lon="-2.79922">
        <ele>2.7</ele>
        <time>2025-01-28T10:28:52Z</time>
      </trkpt>
      <trkpt lat="47.61839" lon="-2.79924">
        <ele>2.7</ele>
        <time>2025-01-28T10:28:53Z</time>
      </trkpt>
      <trkpt lat="47.61839" lon="-2.79926">
        <ele>2.6</ele>
        <time>2025-01-28T10:28:54Z</time>
      </trkpt>
      <trkpt lat="47.6184" lon="-2.79928">
        <ele>2.6</ele>
        <time>2025-01-28T10:28:55Z</time>
      </trkpt>
      <trkpt lat="47.6184" lon="-2.7993">
        <ele>2.6</ele>
        <time>2025-01-28T10:28:56Z</time>
      </trkpt>
      <trkpt lat="47.6184" lon="-2.79932">
        <ele>2.6</ele>
        <time>2025-01-28T10:28:57Z</time>
      </trkpt>
      <trkpt lat="47.61841" lon="-2.79933">
        <ele>2.7</ele>
        <time>2025-01-28T10:28:58Z</time>
      </trkpt>
      <trkpt lat="47.61841" lon="-2.79935">
        <ele>2.7</ele>
        <time>2025-01-28T10:28:59Z</time>
      </trkpt>
      <trkpt lat="47.61841" lon="-2.79937">
        <ele>2.6</ele>
        <time>2025-01-28T10:29:00Z</time>
      </trkpt>
      <trkpt lat="47.61841" lon="-2.79939">
        <ele>2.5</ele>
        <time>2025-01-28T10:29:01Z</time>
      </trkpt>
      <trkpt lat="47.61842" lon="-2.7994">
        <ele>2.6</ele>
        <time>2025-01-28T10:29:02Z</time>
      </trkpt>
      <trkpt lat="47.61842" lon="-2.79942">
        <ele>2.6</ele>
        <time>2025-01-28T10:29:03Z</time>
      </trkpt>
      <trkpt lat="47.61842" lon="-2.79944">
        <ele>2.5</ele>
        <time>2025-01-28T10:29:04Z</time>
      </trkpt>
      <trkpt lat="47.61842" lon="-2.79946">
        <ele>2.5</ele>
        <time>2025-01-28T10:29:05Z</time>
      </trkpt>
      <trkpt lat="47.61842" lon="-2.79948">
        <ele>2.4</ele>
        <time>2025-01-28T10:29:06Z</time>
      </trkpt>
      <trkpt lat="47.61841" lon="-2.7995">
        <ele>2.4</ele>
        <time>2025-01-28T10:29:07Z</time>
      </trkpt>
      <trkpt lat="47.61841" lon="-2.79951">
        <ele>2.3</ele>
        <time>2025-01-28T10:29:08Z</time>
      </trkpt>
      <trkpt lat="47.61841" lon="-2.79953">
        <ele>2.4</ele>
        <time>2025-01-28T10:29:09Z</time>
      </trkpt>
      <trkpt lat="47.61841" lon="-2.79955">
        <ele>2.3</ele>
        <time>2025-01-28T10:29:10Z</time>
      </trkpt>
      <trkpt lat="47.61842" lon="-2.79957">
        <ele>2.4</ele>
        <time>2025-01-28T10:29:11Z</time>
      </trkpt>
      <trkpt lat="47.61842" lon="-2.79958">
        <ele>2.4</ele>
        <time>2025-01-28T10:29:12Z</time>
      </trkpt>
      <trkpt lat="47.61841" lon="-2.7996">
        <ele>2.3</ele>
        <time>2025-01-28T10:29:13Z</time>
      </trkpt>
      <trkpt lat="47.61841" lon="-2.79962">
        <ele>2.3</ele>
        <time>2025-01-28T10:29:14Z</time>
      </trkpt>
      <trkpt lat="47.61842" lon="-2.79963">
        <ele>2.3</ele>
        <time>2025-01-28T10:29:15Z</time>
      </trkpt>
      <trkpt lat="47.61842" lon="-2.79965">
        <ele>2.3</ele>
        <time>2025-01-28T10:29:16Z</time>
      </trkpt>
      <trkpt lat="47.61843" lon="-2.79966">
        <ele>2.4</ele>
        <time>2025-01-28T10:29:17Z</time>
      </trkpt>
      <trkpt lat="47.61843" lon="-2.79968">
        <ele>2.4</ele>
        <time>2025-01-28T10:29:18Z</time>
      </trkpt>
      <trkpt lat="47.61843" lon="-2.79969">
        <ele>2.4</ele>
        <time>2025-01-28T10:29:19Z</time>
      </trkpt>
      <trkpt lat="47.61843" lon="-2.79971">
        <ele>2.4</ele>
        <time>2025-01-28T10:29:20Z</time>
      </trkpt>
      <trkpt lat="47.61842" lon="-2.79973">
        <ele>2.3</ele>
        <time>2025-01-28T10:29:21Z</time>
      </trkpt>
      <trkpt lat="47.61842" lon="-2.79974">
        <ele>2.3</ele>
        <time>2025-01-28T10:29:22Z</time>
      </trkpt>
      <trkpt lat="47.61841" lon="-2.79976">
        <ele>2.2</ele>
        <time>2025-01-28T10:29:23Z</time>
      </trkpt>
      <trkpt lat="47.61841" lon="-2.79978">
        <ele>2.2</ele>
        <time>2025-01-28T10:29:24Z</time>
      </trkpt>
      <trkpt lat="47.6184" lon="-2.79979">
        <ele>2.2</ele>
        <time>2025-01-28T10:29:25Z</time>
      </trkpt>
      <trkpt lat="47.6184" lon="-2.79981">
        <ele>2.2</ele>
        <time>2025-01-28T10:29:26Z</time>
      </trkpt>
      <trkpt lat="47.6184" lon="-2.79983">
        <ele>2.2</ele>
        <time>2025-01-28T10:29:27Z</time>
      </trkpt>
      <trkpt lat="47.6184" lon="-2.79985">
        <ele>2.3</ele>
        <time>2025-01-28T10:29:28Z</time>
      </trkpt>
      <trkpt lat="47.61839" lon="-2.79986">
        <ele>2.2</ele>
        <time>2025-01-28T10:29:29Z</time>
      </trkpt>
      <trkpt lat="47.61839" lon="-2.79988">
        <ele>2.2</ele>
        <time>2025-01-28T10:29:30Z</time>
      </trkpt>
      <trkpt lat="47.61838" lon="-2.7999">
        <ele>2.2</ele>
        <time>2025-01-28T10:29:31Z</time>
      </trkpt>
      <trkpt lat="47.61838" lon="-2.79991">
        <ele>2.2</ele>
        <time>2025-01-28T10:29:32Z</time>
      </trkpt>
      <trkpt lat="47.61838" lon="-2.79993">
        <ele>2.2</ele>
        <time>2025-01-28T10:29:33Z</time>
      </trkpt>
      <trkpt lat="47.61838" lon="-2.79995">
        <ele>2.3</ele>
        <time>2025-01-28T10:29:34Z</time>
      </trkpt>
      <trkpt lat="47.61838" lon="-2.79997">
        <ele>2.4</ele>
        <time>2025-01-28T10:29:35Z</time>
      </trkpt>
      <trkpt lat="47.61837" lon="-2.79998">
        <ele>2.4</ele>
        <time>2025-01-28T10:29:36Z</time>
      </trkpt>
      <trkpt lat="47.61837" lon="-2.8">
        <ele>2.4</ele>
        <time>2025-01-28T10:29:37Z</time>
      </trkpt>
      <trkpt lat="47.61836" lon="-2.80002">
        <ele>2.4</ele>
        <time>2025-01-28T10:29:38Z</time>
      </trkpt>
      <trkpt lat="47.61836" lon="-2.80003">
        <ele>2.5</ele>
        <time>2025-01-28T10:29:39Z</time>
      </trkpt>
      <trkpt lat="47.61835" lon="-2.80005">
        <ele>2.5</ele>
        <time>2025-01-28T10:29:40Z</time>
      </trkpt>
      <trkpt lat="47.61834" lon="-2.80006">
        <ele>2.5</ele>
        <time>2025-01-28T10:29:41Z</time>
      </trkpt>
      <trkpt lat="47.61835" lon="-2.80008">
        <ele>2.7</ele>
        <time>2025-01-28T10:29:42Z</time>
      </trkpt>
      <trkpt lat="47.61835" lon="-2.8001">
        <ele>2.8</ele>
        <time>2025-01-28T10:29:43Z</time>
      </trkpt>
      <trkpt lat="47.61834" lon="-2.80011">
        <ele>2.9</ele>
        <time>2025-01-28T10:29:44Z</time>
      </trkpt>
      <trkpt lat="47.61833" lon="-2.80013">
        <ele>2.9</ele>
        <time>2025-01-28T10:29:45Z</time>
      </trkpt>
      <trkpt lat="47.61832" lon="-2.80015">
        <ele>3</ele>
        <time>2025-01-28T10:29:46Z</time>
      </trkpt>
      <trkpt lat="47.61832" lon="-2.80016">
        <ele>3.1</ele>
        <time>2025-01-28T10:29:47Z</time>
      </trkpt>
      <trkpt lat="47.61831" lon="-2.80018">
        <ele>3.3</ele>
        <time>2025-01-28T10:29:48Z</time>
      </trkpt>
      <trkpt lat="47.61831" lon="-2.80019">
        <ele>3.3</ele>
        <time>2025-01-28T10:29:49Z</time>
      </trkpt>
      <trkpt lat="47.6183" lon="-2.80021">
        <ele>3.5</ele>
        <time>2025-01-28T10:29:50Z</time>
      </trkpt>
      <trkpt lat="47.6183" lon="-2.80022">
        <ele>3.6</ele>
        <time>2025-01-28T10:29:51Z</time>
      </trkpt>
      <trkpt lat="47.61829" lon="-2.80023">
        <ele>3.7</ele>
        <time>2025-01-28T10:29:52Z</time>
      </trkpt>
      <trkpt lat="47.61829" lon="-2.80025">
        <ele>3.8</ele>
        <time>2025-01-28T10:29:53Z</time>
      </trkpt>
      <trkpt lat="47.61828" lon="-2.80026">
        <ele>3.9</ele>
        <time>2025-01-28T10:29:54Z</time>
      </trkpt>
      <trkpt lat="47.61828" lon="-2.80028">
        <ele>4</ele>
        <time>2025-01-28T10:29:55Z</time>
      </trkpt>
      <trkpt lat="47.61828" lon="-2.8003">
        <ele>4</ele>
        <time>2025-01-28T10:29:56Z</time>
      </trkpt>
      <trkpt lat="47.61828" lon="-2.80032">
        <ele>3.9</ele>
        <time>2025-01-28T10:29:57Z</time>
      </trkpt>
      <trkpt lat="47.61827" lon="-2.80033">
        <ele>3.9</ele>
        <time>2025-01-28T10:29:58Z</time>
      </trkpt>
      <trkpt lat="47.61827" lon="-2.80035">
        <ele>3.8</ele>
        <time>2025-01-28T10:29:59Z</time>
      </trkpt>
      <trkpt lat="47.61826" lon="-2.80037">
        <ele>3.8</ele>
        <time>2025-01-28T10:30:00Z</time>
      </trkpt>
      <trkpt lat="47.61826" lon="-2.80038">
        <ele>3.7</ele>
        <time>2025-01-28T10:30:01Z</time>
      </trkpt>
      <trkpt lat="47.61826" lon="-2.8004">
        <ele>3.6</ele>
        <time>2025-01-28T10:30:02Z</time>
      </trkpt>
      <trkpt lat="47.61826" lon="-2.80042">
        <ele>3.6</ele>
        <time>2025-01-28T10:30:03Z</time>
      </trkpt>
      <trkpt lat="47.61825" lon="-2.80044">
        <ele>3.5</ele>
        <time>2025-01-28T10:30:04Z</time>
      </trkpt>
      <trkpt lat="47.61825" lon="-2.80045">
        <ele>3.4</ele>
        <time>2025-01-28T10:30:05Z</time>
      </trkpt>
      <trkpt lat="47.61825" lon="-2.80047">
        <ele>3.3</ele>
        <time>2025-01-28T10:30:06Z</time>
      </trkpt>
      <trkpt lat="47.61825" lon="-2.80049">
        <ele>3.3</ele>
        <time>2025-01-28T10:30:07Z</time>
      </trkpt>
      <trkpt lat="47.61824" lon="-2.8005">
        <ele>3.2</ele>
        <time>2025-01-28T10:30:08Z</time>
      </trkpt>
      <trkpt lat="47.61823" lon="-2.80052">
        <ele>3</ele>
        <time>2025-01-28T10:30:09Z</time>
      </trkpt>
      <trkpt lat="47.61822" lon="-2.80053">
        <ele>2.9</ele>
        <time>2025-01-28T10:30:10Z</time>
      </trkpt>
      <trkpt lat="47.61822" lon="-2.80055">
        <ele>2.8</ele>
        <time>2025-01-28T10:30:11Z</time>
      </trkpt>
      <trkpt lat="47.61821" lon="-2.80056">
        <ele>2.7</ele>
        <time>2025-01-28T10:30:12Z</time>
      </trkpt>
      <trkpt lat="47.6182" lon="-2.80057">
        <ele>2.6</ele>
        <time>2025-01-28T10:30:13Z</time>
      </trkpt>
      <trkpt lat="47.61819" lon="-2.80057">
        <ele>2.4</ele>
        <time>2025-01-28T10:30:14Z</time>
      </trkpt>
      <trkpt lat="47.61817" lon="-2.80058">
        <ele>2.3</ele>
        <time>2025-01-28T10:30:15Z</time>
      </trkpt>
      <trkpt lat="47.61817" lon="-2.8006">
        <ele>2.3</ele>
        <time>2025-01-28T10:30:16Z</time>
      </trkpt>
      <trkpt lat="47.61816" lon="-2.80061">
        <ele>2.2</ele>
        <time>2025-01-28T10:30:17Z</time>
      </trkpt>
      <trkpt lat="47.61815" lon="-2.80063">
        <ele>2.2</ele>
        <time>2025-01-28T10:30:18Z</time>
      </trkpt>
      <trkpt lat="47.61814" lon="-2.80065">
        <ele>2.2</ele>
        <time>2025-01-28T10:30:19Z</time>
      </trkpt>
      <trkpt lat="47.61814" lon="-2.80067">
        <ele>2.1</ele>
        <time>2025-01-28T10:30:20Z</time>
      </trkpt>
      <trkpt lat="47.61812" lon="-2.80068">
        <ele>2.1</ele>
        <time>2025-01-28T10:30:21Z</time>
      </trkpt>
      <trkpt lat="47.61811" lon="-2.80069">
        <ele>2</ele>
        <time>2025-01-28T10:30:22Z</time>
      </trkpt>
      <trkpt lat="47.61811" lon="-2.80071">
        <ele>2</ele>
        <time>2025-01-28T10:30:23Z</time>
      </trkpt>
      <trkpt lat="47.6181" lon="-2.80072">
        <ele>2</ele>
        <time>2025-01-28T10:30:24Z</time>
      </trkpt>
      <trkpt lat="47.6181" lon="-2.80073">
        <ele>2</ele>
        <time>2025-01-28T10:30:25Z</time>
      </trkpt>
      <trkpt lat="47.6181" lon="-2.80075">
        <ele>2</ele>
        <time>2025-01-28T10:30:26Z</time>
      </trkpt>
      <trkpt lat="47.6181" lon="-2.80076">
        <ele>2.1</ele>
        <time>2025-01-28T10:30:27Z</time>
      </trkpt>
      <trkpt lat="47.61809" lon="-2.80077">
        <ele>2.1</ele>
        <time>2025-01-28T10:30:28Z</time>
      </trkpt>
      <trkpt lat="47.61809" lon="-2.80079">
        <ele>2.1</ele>
        <time>2025-01-28T10:30:29Z</time>
      </trkpt>
      <trkpt lat="47.61808" lon="-2.8008">
        <ele>2.1</ele>
        <time>2025-01-28T10:30:30Z</time>
      </trkpt>
      <trkpt lat="47.61808" lon="-2.80082">
        <ele>2.1</ele>
        <time>2025-01-28T10:30:31Z</time>
      </trkpt>
      <trkpt lat="47.61808" lon="-2.80084">
        <ele>2.2</ele>
        <time>2025-01-28T10:30:32Z</time>
      </trkpt>
      <trkpt lat="47.61808" lon="-2.80085">
        <ele>2.2</ele>
        <time>2025-01-28T10:30:33Z</time>
      </trkpt>
      <trkpt lat="47.61808" lon="-2.80087">
        <ele>2.3</ele>
        <time>2025-01-28T10:30:34Z</time>
      </trkpt>
      <trkpt lat="47.61808" lon="-2.80089">
        <ele>2.3</ele>
        <time>2025-01-28T10:30:35Z</time>
      </trkpt>
      <trkpt lat="47.61808" lon="-2.8009">
        <ele>2.4</ele>
        <time>2025-01-28T10:30:36Z</time>
      </trkpt>
      <trkpt lat="47.61808" lon="-2.80092">
        <ele>2.4</ele>
        <time>2025-01-28T10:30:37Z</time>
      </trkpt>
      <trkpt lat="47.61807" lon="-2.80093">
        <ele>2.4</ele>
        <time>2025-01-28T10:30:38Z</time>
      </trkpt>
      <trkpt lat="47.61807" lon="-2.80095">
        <ele>2.5</ele>
        <time>2025-01-28T10:30:39Z</time>
      </trkpt>
      <trkpt lat="47.61806" lon="-2.80096">
        <ele>2.5</ele>
        <time>2025-01-28T10:30:40Z</time>
      </trkpt>
      <trkpt lat="47.61805" lon="-2.80097">
        <ele>2.5</ele>
        <time>2025-01-28T10:30:41Z</time>
      </trkpt>
      <trkpt lat="47.61805" lon="-2.80098">
        <ele>2.5</ele>
        <time>2025-01-28T10:30:42Z</time>
      </trkpt>
      <trkpt lat="47.61804" lon="-2.801">
        <ele>2.5</ele>
        <time>2025-01-28T10:30:43Z</time>
      </trkpt>
      <trkpt lat="47.61803" lon="-2.80101">
        <ele>2.5</ele>
        <time>2025-01-28T10:30:44Z</time>
      </trkpt>
      <trkpt lat="47.61803" lon="-2.80102">
        <ele>2.5</ele>
        <time>2025-01-28T10:30:45Z</time>
      </trkpt>
      <trkpt lat="47.61802" lon="-2.80103">
        <ele>2.5</ele>
        <time>2025-01-28T10:30:46Z</time>
      </trkpt>
      <trkpt lat="47.61801" lon="-2.80105">
        <ele>2.5</ele>
        <time>2025-01-28T10:30:47Z</time>
      </trkpt>
      <trkpt lat="47.61801" lon="-2.80105">
        <ele>2.5</ele>
        <time>2025-01-28T10:30:48Z</time>
      </trkpt>
      <trkpt lat="47.618" lon="-2.80107">
        <ele>2.5</ele>
        <time>2025-01-28T10:30:49Z</time>
      </trkpt>
      <trkpt lat="47.618" lon="-2.80107">
        <ele>2.5</ele>
        <time>2025-01-28T10:30:50Z</time>
      </trkpt>
      <trkpt lat="47.618" lon="-2.80108">
        <ele>2.5</ele>
        <time>2025-01-28T10:30:51Z</time>
      </trkpt>
      <trkpt lat="47.618" lon="-2.80109">
        <ele>2.6</ele>
        <time>2025-01-28T10:30:52Z</time>
      </trkpt>
      <trkpt lat="47.61801" lon="-2.80111">
        <ele>2.6</ele>
        <time>2025-01-28T10:30:53Z</time>
      </trkpt>
      <trkpt lat="47.61801" lon="-2.80112">
        <ele>2.6</ele>
        <time>2025-01-28T10:30:54Z</time>
      </trkpt>
      <trkpt lat="47.61801" lon="-2.80113">
        <ele>2.5</ele>
        <time>2025-01-28T10:30:55Z</time>
      </trkpt>
      <trkpt lat="47.61801" lon="-2.80115">
        <ele>2.5</ele>
        <time>2025-01-28T10:30:56Z</time>
      </trkpt>
      <trkpt lat="47.61802" lon="-2.80116">
        <ele>2.4</ele>
        <time>2025-01-28T10:30:57Z</time>
      </trkpt>
      <trkpt lat="47.61802" lon="-2.80117">
        <ele>2.4</ele>
        <time>2025-01-28T10:30:58Z</time>
      </trkpt>
      <trkpt lat="47.61802" lon="-2.80118">
        <ele>2.3</ele>
        <time>2025-01-28T10:30:59Z</time>
      </trkpt>
      <trkpt lat="47.61802" lon="-2.8012">
        <ele>2.2</ele>
        <time>2025-01-28T10:31:00Z</time>
      </trkpt>
      <trkpt lat="47.61802" lon="-2.80121">
        <ele>2.1</ele>
        <time>2025-01-28T10:31:01Z</time>
      </trkpt>
      <trkpt lat="47.61801" lon="-2.80122">
        <ele>2</ele>
        <time>2025-01-28T10:31:02Z</time>
      </trkpt>
      <trkpt lat="47.61801" lon="-2.80123">
        <ele>1.9</ele>
        <time>2025-01-28T10:31:03Z</time>
      </trkpt>
      <trkpt lat="47.61801" lon="-2.80124">
        <ele>1.9</ele>
        <time>2025-01-28T10:31:04Z</time>
      </trkpt>
      <trkpt lat="47.61802" lon="-2.80124">
        <ele>1.9</ele>
        <time>2025-01-28T10:31:05Z</time>
      </trkpt>
      <trkpt lat="47.61803" lon="-2.80124">
        <ele>1.9</ele>
        <time>2025-01-28T10:31:06Z</time>
      </trkpt>
      <trkpt lat="47.61804" lon="-2.80125">
        <ele>2</ele>
        <time>2025-01-28T10:31:07Z</time>
      </trkpt>
      <trkpt lat="47.61805" lon="-2.80124">
        <ele>2</ele>
        <time>2025-01-28T10:31:08Z</time>
      </trkpt>
      <trkpt lat="47.61806" lon="-2.80124">
        <ele>2.1</ele>
        <time>2025-01-28T10:31:09Z</time>
      </trkpt>
      <trkpt lat="47.61806" lon="-2.80124">
        <ele>2.1</ele>
        <time>2025-01-28T10:31:10Z</time>
      </trkpt>
      <trkpt lat="47.61808" lon="-2.80125">
        <ele>2</ele>
        <time>2025-01-28T10:31:11Z</time>
      </trkpt>
      <trkpt lat="47.61809" lon="-2.80126">
        <ele>1.9</ele>
        <time>2025-01-28T10:31:12Z</time>
      </trkpt>
      <trkpt lat="47.61809" lon="-2.80127">
        <ele>1.9</ele>
        <time>2025-01-28T10:31:13Z</time>
      </trkpt>
      <trkpt lat="47.6181" lon="-2.80127">
        <ele>1.8</ele>
        <time>2025-01-28T10:31:14Z</time>
      </trkpt>
      <trkpt lat="47.61811" lon="-2.80128">
        <ele>1.8</ele>
        <time>2025-01-28T10:31:15Z</time>
      </trkpt>
      <trkpt lat="47.61812" lon="-2.80129">
        <ele>1.7</ele>
        <time>2025-01-28T10:31:16Z</time>
      </trkpt>
      <trkpt lat="47.61813" lon="-2.8013">
        <ele>1.6</ele>
        <time>2025-01-28T10:31:17Z</time>
      </trkpt>
      <trkpt lat="47.61813" lon="-2.80132">
        <ele>1.5</ele>
        <time>2025-01-28T10:31:18Z</time>
      </trkpt>
      <trkpt lat="47.61815" lon="-2.80132">
        <ele>1.5</ele>
        <time>2025-01-28T10:31:19Z</time>
      </trkpt>
      <trkpt lat="47.61816" lon="-2.80132">
        <ele>1.5</ele>
        <time>2025-01-28T10:31:20Z</time>
      </trkpt>
      <trkpt lat="47.61817" lon="-2.80133">
        <ele>1.4</ele>
        <time>2025-01-28T10:31:21Z</time>
      </trkpt>
      <trkpt lat="47.61818" lon="-2.80134">
        <ele>1.4</ele>
        <time>2025-01-28T10:31:22Z</time>
      </trkpt>
      <trkpt lat="47.6182" lon="-2.80134">
        <ele>1.3</ele>
        <time>2025-01-28T10:31:23Z</time>
      </trkpt>
      <trkpt lat="47.61821" lon="-2.80134">
        <ele>1.3</ele>
        <time>2025-01-28T10:31:24Z</time>
      </trkpt>
      <trkpt lat="47.61822" lon="-2.80134">
        <ele>1.3</ele>
        <time>2025-01-28T10:31:25Z</time>
      </trkpt>
      <trkpt lat="47.61823" lon="-2.80134">
        <ele>1.4</ele>
        <time>2025-01-28T10:31:26Z</time>
      </trkpt>
      <trkpt lat="47.61824" lon="-2.80134">
        <ele>1.4</ele>
        <time>2025-01-28T10:31:27Z</time>
      </trkpt>
      <trkpt lat="47.61824" lon="-2.80135">
        <ele>1.3</ele>
        <time>2025-01-28T10:31:28Z</time>
      </trkpt>
      <trkpt lat="47.61825" lon="-2.80135">
        <ele>1.3</ele>
        <time>2025-01-28T10:31:29Z</time>
      </trkpt>
      <trkpt lat="47.61826" lon="-2.80137">
        <ele>1.1</ele>
        <time>2025-01-28T10:31:30Z</time>
      </trkpt>
      <trkpt lat="47.61827" lon="-2.80138">
        <ele>1</ele>
        <time>2025-01-28T10:31:31Z</time>
      </trkpt>
      <trkpt lat="47.61828" lon="-2.80139">
        <ele>1</ele>
        <time>2025-01-28T10:31:32Z</time>
      </trkpt>
      <trkpt lat="47.6183" lon="-2.80138">
        <ele>1</ele>
        <time>2025-01-28T10:31:33Z</time>
      </trkpt>
      <trkpt lat="47.61831" lon="-2.80138">
        <ele>1</ele>
        <time>2025-01-28T10:31:34Z</time>
      </trkpt>
      <trkpt lat="47.61831" lon="-2.80138">
        <ele>1.1</ele>
        <time>2025-01-28T10:31:35Z</time>
      </trkpt>
      <trkpt lat="47.61832" lon="-2.80138">
        <ele>1.1</ele>
        <time>2025-01-28T10:31:36Z</time>
      </trkpt>
      <trkpt lat="47.61833" lon="-2.80138">
        <ele>1</ele>
        <time>2025-01-28T10:31:37Z</time>
      </trkpt>
      <trkpt lat="47.61834" lon="-2.80139">
        <ele>1.1</ele>
        <time>2025-01-28T10:31:38Z</time>
      </trkpt>
      <trkpt lat="47.61835" lon="-2.80139">
        <ele>1.2</ele>
        <time>2025-01-28T10:31:39Z</time>
      </trkpt>
      <trkpt lat="47.61836" lon="-2.8014">
        <ele>1.3</ele>
        <time>2025-01-28T10:31:40Z</time>
      </trkpt>
      <trkpt lat="47.61837" lon="-2.80141">
        <ele>1.4</ele>
        <time>2025-01-28T10:31:41Z</time>
      </trkpt>
      <trkpt lat="47.61838" lon="-2.80141">
        <ele>1.5</ele>
        <time>2025-01-28T10:31:42Z</time>
      </trkpt>
      <trkpt lat="47.61839" lon="-2.80141">
        <ele>1.6</ele>
        <time>2025-01-28T10:31:43Z</time>
      </trkpt>
      <trkpt lat="47.6184" lon="-2.80142">
        <ele>1.7</ele>
        <time>2025-01-28T10:31:44Z</time>
      </trkpt>
      <trkpt lat="47.61841" lon="-2.80142">
        <ele>1.8</ele>
        <time>2025-01-28T10:31:45Z</time>
      </trkpt>
      <trkpt lat="47.61842" lon="-2.80142">
        <ele>1.9</ele>
        <time>2025-01-28T10:31:46Z</time>
      </trkpt>
      <trkpt lat="47.61843" lon="-2.80143">
        <ele>1.9</ele>
        <time>2025-01-28T10:31:47Z</time>
      </trkpt>
      <trkpt lat="47.61844" lon="-2.80143">
        <ele>2</ele>
        <time>2025-01-28T10:31:48Z</time>
      </trkpt>
      <trkpt lat="47.61845" lon="-2.80143">
        <ele>2.1</ele>
        <time>2025-01-28T10:31:49Z</time>
      </trkpt>
      <trkpt lat="47.61847" lon="-2.80144">
        <ele>2.2</ele>
        <time>2025-01-28T10:31:50Z</time>
      </trkpt>
      <trkpt lat="47.61847" lon="-2.80144">
        <ele>2.2</ele>
        <time>2025-01-28T10:31:51Z</time>
      </trkpt>
      <trkpt lat="47.61848" lon="-2.80145">
        <ele>2.3</ele>
        <time>2025-01-28T10:31:52Z</time>
      </trkpt>
      <trkpt lat="47.61849" lon="-2.80146">
        <ele>2.3</ele>
        <time>2025-01-28T10:31:53Z</time>
      </trkpt>
      <trkpt lat="47.6185" lon="-2.80147">
        <ele>2.3</ele>
        <time>2025-01-28T10:31:54Z</time>
      </trkpt>
      <trkpt lat="47.61851" lon="-2.80147">
        <ele>2.3</ele>
        <time>2025-01-28T10:31:55Z</time>
      </trkpt>
      <trkpt lat="47.61852" lon="-2.80148">
        <ele>2.3</ele>
        <time>2025-01-28T10:31:56Z</time>
      </trkpt>
      <trkpt lat="47.61852" lon="-2.80149">
        <ele>2.3</ele>
        <time>2025-01-28T10:31:57Z</time>
      </trkpt>
      <trkpt lat="47.61853" lon="-2.8015">
        <ele>2.3</ele>
        <time>2025-01-28T10:31:58Z</time>
      </trkpt>
      <trkpt lat="47.61854" lon="-2.80151">
        <ele>2.3</ele>
        <time>2025-01-28T10:31:59Z</time>
      </trkpt>
      <trkpt lat="47.61855" lon="-2.80151">
        <ele>2.3</ele>
        <time>2025-01-28T10:32:00Z</time>
      </trkpt>
      <trkpt lat="47.61856" lon="-2.80153">
        <ele>2.3</ele>
        <time>2025-01-28T10:32:01Z</time>
      </trkpt>
      <trkpt lat="47.61857" lon="-2.80154">
        <ele>2.2</ele>
        <time>2025-01-28T10:32:02Z</time>
      </trkpt>
      <trkpt lat="47.61858" lon="-2.80154">
        <ele>2.2</ele>
        <time>2025-01-28T10:32:03Z</time>
      </trkpt>
      <trkpt lat="47.61859" lon="-2.80155">
        <ele>2.1</ele>
        <time>2025-01-28T10:32:04Z</time>
      </trkpt>
      <trkpt lat="47.6186" lon="-2.80157">
        <ele>2.1</ele>
        <time>2025-01-28T10:32:05Z</time>
      </trkpt>
      <trkpt lat="47.61861" lon="-2.80158">
        <ele>2</ele>
        <time>2025-01-28T10:32:06Z</time>
      </trkpt>
      <trkpt lat="47.61862" lon="-2.80159">
        <ele>1.9</ele>
        <time>2025-01-28T10:32:07Z</time>
      </trkpt>
      <trkpt lat="47.61862" lon="-2.80159">
        <ele>1.9</ele>
        <time>2025-01-28T10:32:08Z</time>
      </trkpt>
      <trkpt lat="47.61863" lon="-2.8016">
        <ele>1.9</ele>
        <time>2025-01-28T10:32:09Z</time>
      </trkpt>
      <trkpt lat="47.61864" lon="-2.80161">
        <ele>2</ele>
        <time>2025-01-28T10:32:10Z</time>
      </trkpt>
      <trkpt lat="47.61865" lon="-2.80161">
        <ele>2.1</ele>
        <time>2025-01-28T10:32:11Z</time>
      </trkpt>
      <trkpt lat="47.61867" lon="-2.80162">
        <ele>2.2</ele>
        <time>2025-01-28T10:32:12Z</time>
      </trkpt>
      <trkpt lat="47.61867" lon="-2.80163">
        <ele>2.2</ele>
        <time>2025-01-28T10:32:13Z</time>
      </trkpt>
      <trkpt lat="47.61869" lon="-2.80163">
        <ele>2.4</ele>
        <time>2025-01-28T10:32:14Z</time>
      </trkpt>
      <trkpt lat="47.6187" lon="-2.80164">
        <ele>2.4</ele>
        <time>2025-01-28T10:32:15Z</time>
      </trkpt>
      <trkpt lat="47.61871" lon="-2.80166">
        <ele>2.4</ele>
        <time>2025-01-28T10:32:16Z</time>
      </trkpt>
      <trkpt lat="47.61872" lon="-2.80167">
        <ele>2.5</ele>
        <time>2025-01-28T10:32:17Z</time>
      </trkpt>
      <trkpt lat="47.61872" lon="-2.80168">
        <ele>2.6</ele>
        <time>2025-01-28T10:32:18Z</time>
      </trkpt>
      <trkpt lat="47.61873" lon="-2.8017">
        <ele>2.7</ele>
        <time>2025-01-28T10:32:19Z</time>
      </trkpt>
      <trkpt lat="47.61874" lon="-2.80171">
        <ele>2.7</ele>
        <time>2025-01-28T10:32:20Z</time>
      </trkpt>
      <trkpt lat="47.61875" lon="-2.80172">
        <ele>2.8</ele>
        <time>2025-01-28T10:32:21Z</time>
      </trkpt>
      <trkpt lat="47.61876" lon="-2.80173">
        <ele>2.9</ele>
        <time>2025-01-28T10:32:22Z</time>
      </trkpt>
      <trkpt lat="47.61877" lon="-2.80173">
        <ele>2.9</ele>
        <time>2025-01-28T10:32:23Z</time>
      </trkpt>
      <trkpt lat="47.61878" lon="-2.80174">
        <ele>3</ele>
        <time>2025-01-28T10:32:24Z</time>
      </trkpt>
      <trkpt lat="47.61879" lon="-2.80174">
        <ele>3.1</ele>
        <time>2025-01-28T10:32:25Z</time>
      </trkpt>
      <trkpt lat="47.6188" lon="-2.80175">
        <ele>3.1</ele>
        <time>2025-01-28T10:32:26Z</time>
      </trkpt>
      <trkpt lat="47.6188" lon="-2.80176">
        <ele>3.1</ele>
        <time>2025-01-28T10:32:27Z</time>
      </trkpt>
      <trkpt lat="47.61881" lon="-2.80177">
        <ele>3.2</ele>
        <time>2025-01-28T10:32:28Z</time>
      </trkpt>
      <trkpt lat="47.61882" lon="-2.80178">
        <ele>3.1</ele>
        <time>2025-01-28T10:32:29Z</time>
      </trkpt>
      <trkpt lat="47.61883" lon="-2.80179">
        <ele>3.1</ele>
        <time>2025-01-28T10:32:30Z</time>
      </trkpt>
      <trkpt lat="47.61883" lon="-2.8018">
        <ele>3.1</ele>
        <time>2025-01-28T10:32:31Z</time>
      </trkpt>
      <trkpt lat="47.61884" lon="-2.80182">
        <ele>3</ele>
        <time>2025-01-28T10:32:32Z</time>
      </trkpt>
      <trkpt lat="47.61885" lon="-2.80183">
        <ele>3</ele>
        <time>2025-01-28T10:32:33Z</time>
      </trkpt>
      <trkpt lat="47.61886" lon="-2.80182">
        <ele>3.1</ele>
        <time>2025-01-28T10:32:34Z</time>
      </trkpt>
      <trkpt lat="47.61887" lon="-2.80183">
        <ele>3.1</ele>
        <time>2025-01-28T10:32:35Z</time>
      </trkpt>
      <trkpt lat="47.61888" lon="-2.80184">
        <ele>3</ele>
        <time>2025-01-28T10:32:36Z</time>
      </trkpt>
      <trkpt lat="47.61889" lon="-2.80185">
        <ele>3</ele>
        <time>2025-01-28T10:32:37Z</time>
      </trkpt>
      <trkpt lat="47.61889" lon="-2.80186">
        <ele>3</ele>
        <time>2025-01-28T10:32:38Z</time>
      </trkpt>
      <trkpt lat="47.6189" lon="-2.80187">
        <ele>2.9</ele>
        <time>2025-01-28T10:32:39Z</time>
      </trkpt>
      <trkpt lat="47.61891" lon="-2.80188">
        <ele>2.9</ele>
        <time>2025-01-28T10:32:40Z</time>
      </trkpt>
      <trkpt lat="47.61891" lon="-2.80189">
        <ele>2.9</ele>
        <time>2025-01-28T10:32:41Z</time>
      </trkpt>
      <trkpt lat="47.61892" lon="-2.8019">
        <ele>2.8</ele>
        <time>2025-01-28T10:32:42Z</time>
      </trkpt>
      <trkpt lat="47.61893" lon="-2.80191">
        <ele>2.9</ele>
        <time>2025-01-28T10:32:43Z</time>
      </trkpt>
      <trkpt lat="47.61894" lon="-2.80192">
        <ele>2.9</ele>
        <time>2025-01-28T10:32:44Z</time>
      </trkpt>
      <trkpt lat="47.61895" lon="-2.80194">
        <ele>2.9</ele>
        <time>2025-01-28T10:32:45Z</time>
      </trkpt>
      <trkpt lat="47.61896" lon="-2.80195">
        <ele>3</ele>
        <time>2025-01-28T10:32:46Z</time>
      </trkpt>
      <trkpt lat="47.61897" lon="-2.80196">
        <ele>3.1</ele>
        <time>2025-01-28T10:32:47Z</time>
      </trkpt>
      <trkpt lat="47.61897" lon="-2.80197">
        <ele>3.2</ele>
        <time>2025-01-28T10:32:48Z</time>
      </trkpt>
      <trkpt lat="47.61898" lon="-2.80198">
        <ele>3.3</ele>
        <time>2025-01-28T10:32:49Z</time>
      </trkpt>
      <trkpt lat="47.61899" lon="-2.802">
        <ele>3.4</ele>
        <time>2025-01-28T10:32:50Z</time>
      </trkpt>
      <trkpt lat="47.619" lon="-2.80201">
        <ele>3.4</ele>
        <time>2025-01-28T10:32:51Z</time>
      </trkpt>
      <trkpt lat="47.61901" lon="-2.80202">
        <ele>3.5</ele>
        <time>2025-01-28T10:32:52Z</time>
      </trkpt>
      <trkpt lat="47.61901" lon="-2.80204">
        <ele>3.5</ele>
        <time>2025-01-28T10:32:53Z</time>
      </trkpt>
      <trkpt lat="47.61902" lon="-2.80204">
        <ele>3.6</ele>
        <time>2025-01-28T10:32:54Z</time>
      </trkpt>
      <trkpt lat="47.61903" lon="-2.80205">
        <ele>3.6</ele>
        <time>2025-01-28T10:32:55Z</time>
      </trkpt>
      <trkpt lat="47.61904" lon="-2.80206">
        <ele>3.7</ele>
        <time>2025-01-28T10:32:56Z</time>
      </trkpt>
      <trkpt lat="47.61905" lon="-2.80207">
        <ele>3.7</ele>
        <time>2025-01-28T10:32:57Z</time>
      </trkpt>
      <trkpt lat="47.61905" lon="-2.80208">
        <ele>3.7</ele>
        <time>2025-01-28T10:32:58Z</time>
      </trkpt>
      <trkpt lat="47.61906" lon="-2.80209">
        <ele>3.7</ele>
        <time>2025-01-28T10:32:59Z</time>
      </trkpt>
      <trkpt lat="47.61907" lon="-2.8021">
        <ele>3.7</ele>
        <time>2025-01-28T10:33:00Z</time>
      </trkpt>
      <trkpt lat="47.61908" lon="-2.80212">
        <ele>3.6</ele>
        <time>2025-01-28T10:33:01Z</time>
      </trkpt>
      <trkpt lat="47.61909" lon="-2.80213">
        <ele>3.7</ele>
        <time>2025-01-28T10:33:02Z</time>
      </trkpt>
      <trkpt lat="47.6191" lon="-2.80214">
        <ele>3.6</ele>
        <time>2025-01-28T10:33:03Z</time>
      </trkpt>
      <trkpt lat="47.6191" lon="-2.80215">
        <ele>3.5</ele>
        <time>2025-01-28T10:33:04Z</time>
      </trkpt>
      <trkpt lat="47.61911" lon="-2.80216">
        <ele>3.5</ele>
        <time>2025-01-28T10:33:05Z</time>
      </trkpt>
      <trkpt lat="47.61912" lon="-2.80217">
        <ele>3.5</ele>
        <time>2025-01-28T10:33:06Z</time>
      </trkpt>
      <trkpt lat="47.61913" lon="-2.80217">
        <ele>3.4</ele>
        <time>2025-01-28T10:33:07Z</time>
      </trkpt>
      <trkpt lat="47.61914" lon="-2.80219">
        <ele>3.3</ele>
        <time>2025-01-28T10:33:08Z</time>
      </trkpt>
      <trkpt lat="47.61915" lon="-2.8022">
        <ele>3.2</ele>
        <time>2025-01-28T10:33:09Z</time>
      </trkpt>
      <trkpt lat="47.61916" lon="-2.80221">
        <ele>3.1</ele>
        <time>2025-01-28T10:33:10Z</time>
      </trkpt>
      <trkpt lat="47.61917" lon="-2.80222">
        <ele>3.1</ele>
        <time>2025-01-28T10:33:11Z</time>
      </trkpt>
      <trkpt lat="47.61918" lon="-2.80222">
        <ele>3.1</ele>
        <time>2025-01-28T10:33:12Z</time>
      </trkpt>
      <trkpt lat="47.61918" lon="-2.80224">
        <ele>3.2</ele>
        <time>2025-01-28T10:33:13Z</time>
      </trkpt>
      <trkpt lat="47.61919" lon="-2.80225">
        <ele>3.4</ele>
        <time>2025-01-28T10:33:14Z</time>
      </trkpt>
      <trkpt lat="47.6192" lon="-2.80226">
        <ele>3.5</ele>
        <time>2025-01-28T10:33:15Z</time>
      </trkpt>
      <trkpt lat="47.61921" lon="-2.80226">
        <ele>3.6</ele>
        <time>2025-01-28T10:33:16Z</time>
      </trkpt>
      <trkpt lat="47.61922" lon="-2.80227">
        <ele>3.7</ele>
        <time>2025-01-28T10:33:17Z</time>
      </trkpt>
      <trkpt lat="47.61923" lon="-2.80228">
        <ele>3.8</ele>
        <time>2025-01-28T10:33:18Z</time>
      </trkpt>
      <trkpt lat="47.61924" lon="-2.80229">
        <ele>3.9</ele>
        <time>2025-01-28T10:33:19Z</time>
      </trkpt>
      <trkpt lat="47.61925" lon="-2.8023">
        <ele>3.9</ele>
        <time>2025-01-28T10:33:20Z</time>
      </trkpt>
      <trkpt lat="47.61926" lon="-2.80231">
        <ele>4</ele>
        <time>2025-01-28T10:33:21Z</time>
      </trkpt>
      <trkpt lat="47.61927" lon="-2.80233">
        <ele>4.1</ele>
        <time>2025-01-28T10:33:22Z</time>
      </trkpt>
      <trkpt lat="47.61928" lon="-2.80234">
        <ele>4.1</ele>
        <time>2025-01-28T10:33:23Z</time>
      </trkpt>
      <trkpt lat="47.61929" lon="-2.80235">
        <ele>4.2</ele>
        <time>2025-01-28T10:33:24Z</time>
      </trkpt>
      <trkpt lat="47.6193" lon="-2.80236">
        <ele>4.2</ele>
        <time>2025-01-28T10:33:25Z</time>
      </trkpt>
      <trkpt lat="47.61931" lon="-2.80237">
        <ele>4.3</ele>
        <time>2025-01-28T10:33:26Z</time>
      </trkpt>
      <trkpt lat="47.61932" lon="-2.80238">
        <ele>4.3</ele>
        <time>2025-01-28T10:33:27Z</time>
      </trkpt>
      <trkpt lat="47.61934" lon="-2.80238">
        <ele>4.4</ele>
        <time>2025-01-28T10:33:28Z</time>
      </trkpt>
      <trkpt lat="47.61935" lon="-2.80238">
        <ele>4.4</ele>
        <time>2025-01-28T10:33:29Z</time>
      </trkpt>
      <trkpt lat="47.61936" lon="-2.80239">
        <ele>4.4</ele>
        <time>2025-01-28T10:33:30Z</time>
      </trkpt>
      <trkpt lat="47.61937" lon="-2.8024">
        <ele>4.4</ele>
        <time>2025-01-28T10:33:31Z</time>
      </trkpt>
      <trkpt lat="47.61938" lon="-2.80242">
        <ele>4.4</ele>
        <time>2025-01-28T10:33:32Z</time>
      </trkpt>
      <trkpt lat="47.61938" lon="-2.80243">
        <ele>4.3</ele>
        <time>2025-01-28T10:33:33Z</time>
      </trkpt>
      <trkpt lat="47.61939" lon="-2.80244">
        <ele>4.3</ele>
        <time>2025-01-28T10:33:34Z</time>
      </trkpt>
      <trkpt lat="47.6194" lon="-2.80245">
        <ele>4.3</ele>
        <time>2025-01-28T10:33:35Z</time>
      </trkpt>
      <trkpt lat="47.61941" lon="-2.80246">
        <ele>4.2</ele>
        <time>2025-01-28T10:33:36Z</time>
      </trkpt>
      <trkpt lat="47.61941" lon="-2.80248">
        <ele>4.1</ele>
        <time>2025-01-28T10:33:37Z</time>
      </trkpt>
      <trkpt lat="47.61942" lon="-2.80249">
        <ele>4.1</ele>
        <time>2025-01-28T10:33:38Z</time>
      </trkpt>
      <trkpt lat="47.61943" lon="-2.8025">
        <ele>4</ele>
        <time>2025-01-28T10:33:39Z</time>
      </trkpt>
      <trkpt lat="47.61944" lon="-2.80251">
        <ele>4</ele>
        <time>2025-01-28T10:33:40Z</time>
      </trkpt>
      <trkpt lat="47.61944" lon="-2.80252">
        <ele>4</ele>
        <time>2025-01-28T10:33:41Z</time>
      </trkpt>
      <trkpt lat="47.61945" lon="-2.80253">
        <ele>4.1</ele>
        <time>2025-01-28T10:33:42Z</time>
      </trkpt>
      <trkpt lat="47.61946" lon="-2.80254">
        <ele>4.1</ele>
        <time>2025-01-28T10:33:43Z</time>
      </trkpt>
      <trkpt lat="47.61947" lon="-2.80256">
        <ele>4.1</ele>
        <time>2025-01-28T10:33:44Z</time>
      </trkpt>
      <trkpt lat="47.61948" lon="-2.80257">
        <ele>4.2</ele>
        <time>2025-01-28T10:33:45Z</time>
      </trkpt>
      <trkpt lat="47.61949" lon="-2.80258">
        <ele>4.2</ele>
        <time>2025-01-28T10:33:46Z</time>
      </trkpt>
      <trkpt lat="47.6195" lon="-2.80259">
        <ele>4.3</ele>
        <time>2025-01-28T10:33:47Z</time>
      </trkpt>
      <trkpt lat="47.61951" lon="-2.8026">
        <ele>4.3</ele>
        <time>2025-01-28T10:33:48Z</time>
      </trkpt>
      <trkpt lat="47.61952" lon="-2.80261">
        <ele>4.3</ele>
        <time>2025-01-28T10:33:49Z</time>
      </trkpt>
      <trkpt lat="47.61953" lon="-2.80262">
        <ele>4.3</ele>
        <time>2025-01-28T10:33:50Z</time>
      </trkpt>
      <trkpt lat="47.61954" lon="-2.80263">
        <ele>4.3</ele>
        <time>2025-01-28T10:33:51Z</time>
      </trkpt>
      <trkpt lat="47.61955" lon="-2.80264">
        <ele>4.3</ele>
        <time>2025-01-28T10:33:52Z</time>
      </trkpt>
      <trkpt lat="47.61956" lon="-2.80265">
        <ele>4.4</ele>
        <time>2025-01-28T10:33:53Z</time>
      </trkpt>
      <trkpt lat="47.61956" lon="-2.80266">
        <ele>4.4</ele>
        <time>2025-01-28T10:33:54Z</time>
      </trkpt>
      <trkpt lat="47.61957" lon="-2.80267">
        <ele>4.4</ele>
        <time>2025-01-28T10:33:55Z</time>
      </trkpt>
      <trkpt lat="47.61957" lon="-2.80267">
        <ele>4.4</ele>
        <time>2025-01-28T10:33:56Z</time>
      </trkpt>
      <trkpt lat="47.61958" lon="-2.80267">
        <ele>4.4</ele>
        <time>2025-01-28T10:33:57Z</time>
      </trkpt>
      <trkpt lat="47.61959" lon="-2.80269">
        <ele>4.3</ele>
        <time>2025-01-28T10:33:58Z</time>
      </trkpt>
      <trkpt lat="47.61959" lon="-2.8027">
        <ele>4.3</ele>
        <time>2025-01-28T10:33:59Z</time>
      </trkpt>
      <trkpt lat="47.61959" lon="-2.80272">
        <ele>4.2</ele>
        <time>2025-01-28T10:34:00Z</time>
      </trkpt>
      <trkpt lat="47.6196" lon="-2.80273">
        <ele>4.2</ele>
        <time>2025-01-28T10:34:01Z</time>
      </trkpt>
      <trkpt lat="47.61959" lon="-2.80275">
        <ele>4.1</ele>
        <time>2025-01-28T10:34:02Z</time>
      </trkpt>
      <trkpt lat="47.61958" lon="-2.80277">
        <ele>4</ele>
        <time>2025-01-28T10:34:03Z</time>
      </trkpt>
      <trkpt lat="47.61958" lon="-2.80278">
        <ele>4</ele>
        <time>2025-01-28T10:34:04Z</time>
      </trkpt>
      <trkpt lat="47.61958" lon="-2.8028">
        <ele>3.8</ele>
        <time>2025-01-28T10:34:05Z</time>
      </trkpt>
      <trkpt lat="47.61958" lon="-2.80281">
        <ele>3.7</ele>
        <time>2025-01-28T10:34:06Z</time>
      </trkpt>
      <trkpt lat="47.61959" lon="-2.80282">
        <ele>3.6</ele>
        <time>2025-01-28T10:34:07Z</time>
      </trkpt>
      <trkpt lat="47.6196" lon="-2.80282">
        <ele>3.6</ele>
        <time>2025-01-28T10:34:08Z</time>
      </trkpt>
      <trkpt lat="47.61961" lon="-2.80282">
        <ele>3.6</ele>
        <time>2025-01-28T10:34:09Z</time>
      </trkpt>
      <trkpt lat="47.61962" lon="-2.80281">
        <ele>3.7</ele>
        <time>2025-01-28T10:34:10Z</time>
      </trkpt>
      <trkpt lat="47.61962" lon="-2.8028">
        <ele>3.7</ele>
        <time>2025-01-28T10:34:11Z</time>
      </trkpt>
      <trkpt lat="47.61962" lon="-2.8028">
        <ele>3.7</ele>
        <time>2025-01-28T10:34:12Z</time>
      </trkpt>
      <trkpt lat="47.61962" lon="-2.8028">
        <ele>3.7</ele>
        <time>2025-01-28T10:34:13Z</time>
      </trkpt>
      <trkpt lat="47.61963" lon="-2.8028">
        <ele>3.7</ele>
        <time>2025-01-28T10:34:14Z</time>
      </trkpt>
      <trkpt lat="47.61964" lon="-2.80282">
        <ele>3.6</ele>
        <time>2025-01-28T10:34:15Z</time>
      </trkpt>
      <trkpt lat="47.61964" lon="-2.80283">
        <ele>3.5</ele>
        <time>2025-01-28T10:34:16Z</time>
      </trkpt>
      <trkpt lat="47.61964" lon="-2.80284">
        <ele>3.3</ele>
        <time>2025-01-28T10:34:17Z</time>
      </trkpt>
      <trkpt lat="47.61965" lon="-2.80285">
        <ele>3.2</ele>
        <time>2025-01-28T10:34:18Z</time>
      </trkpt>
      <trkpt lat="47.61966" lon="-2.80286">
        <ele>3.1</ele>
        <time>2025-01-28T10:34:19Z</time>
      </trkpt>
      <trkpt lat="47.61967" lon="-2.80287">
        <ele>3</ele>
        <time>2025-01-28T10:34:20Z</time>
      </trkpt>
      <trkpt lat="47.61967" lon="-2.80288">
        <ele>2.9</ele>
        <time>2025-01-28T10:34:21Z</time>
      </trkpt>
      <trkpt lat="47.61968" lon="-2.80289">
        <ele>2.8</ele>
        <time>2025-01-28T10:34:22Z</time>
      </trkpt>
      <trkpt lat="47.61969" lon="-2.8029">
        <ele>2.7</ele>
        <time>2025-01-28T10:34:23Z</time>
      </trkpt>
      <trkpt lat="47.61969" lon="-2.80291">
        <ele>2.6</ele>
        <time>2025-01-28T10:34:24Z</time>
      </trkpt>
      <trkpt lat="47.6197" lon="-2.80293">
        <ele>2.4</ele>
        <time>2025-01-28T10:34:25Z</time>
      </trkpt>
      <trkpt lat="47.6197" lon="-2.80294">
        <ele>2.2</ele>
        <time>2025-01-28T10:34:26Z</time>
      </trkpt>
      <trkpt lat="47.61971" lon="-2.80296">
        <ele>2.1</ele>
        <time>2025-01-28T10:34:27Z</time>
      </trkpt>
      <trkpt lat="47.61972" lon="-2.80297">
        <ele>2</ele>
        <time>2025-01-28T10:34:28Z</time>
      </trkpt>
      <trkpt lat="47.61973" lon="-2.80298">
        <ele>1.8</ele>
        <time>2025-01-28T10:34:29Z</time>
      </trkpt>
      <trkpt lat="47.61973" lon="-2.80299">
        <ele>1.8</ele>
        <time>2025-01-28T10:34:30Z</time>
      </trkpt>
      <trkpt lat="47.61974" lon="-2.80301">
        <ele>1.7</ele>
        <time>2025-01-28T10:34:31Z</time>
      </trkpt>
      <trkpt lat="47.61975" lon="-2.80302">
        <ele>1.6</ele>
        <time>2025-01-28T10:34:32Z</time>
      </trkpt>
      <trkpt lat="47.61975" lon="-2.80304">
        <ele>1.5</ele>
        <time>2025-01-28T10:34:33Z</time>
      </trkpt>
      <trkpt lat="47.61976" lon="-2.80305">
        <ele>1.4</ele>
        <time>2025-01-28T10:34:34Z</time>
      </trkpt>
      <trkpt lat="47.61976" lon="-2.80307">
        <ele>1.5</ele>
        <time>2025-01-28T10:34:35Z</time>
      </trkpt>
      <trkpt lat="47.61977" lon="-2.80309">
        <ele>1.5</ele>
        <time>2025-01-28T10:34:36Z</time>
      </trkpt>
      <trkpt lat="47.61977" lon="-2.8031">
        <ele>1.6</ele>
        <time>2025-01-28T10:34:37Z</time>
      </trkpt>
      <trkpt lat="47.61978" lon="-2.80312">
        <ele>1.7</ele>
        <time>2025-01-28T10:34:38Z</time>
      </trkpt>
      <trkpt lat="47.61979" lon="-2.80313">
        <ele>1.8</ele>
        <time>2025-01-28T10:34:39Z</time>
      </trkpt>
      <trkpt lat="47.6198" lon="-2.80314">
        <ele>1.9</ele>
        <time>2025-01-28T10:34:40Z</time>
      </trkpt>
      <trkpt lat="47.6198" lon="-2.80316">
        <ele>1.9</ele>
        <time>2025-01-28T10:34:41Z</time>
      </trkpt>
      <trkpt lat="47.61981" lon="-2.80317">
        <ele>2</ele>
        <time>2025-01-28T10:34:42Z</time>
      </trkpt>
      <trkpt lat="47.61982" lon="-2.80318">
        <ele>2</ele>
        <time>2025-01-28T10:34:43Z</time>
      </trkpt>
      <trkpt lat="47.61982" lon="-2.8032">
        <ele>2</ele>
        <time>2025-01-28T10:34:44Z</time>
      </trkpt>
      <trkpt lat="47.61983" lon="-2.80321">
        <ele>2.1</ele>
        <time>2025-01-28T10:34:45Z</time>
      </trkpt>
      <trkpt lat="47.61984" lon="-2.80322">
        <ele>2.1</ele>
        <time>2025-01-28T10:34:46Z</time>
      </trkpt>
      <trkpt lat="47.61984" lon="-2.80324">
        <ele>2.1</ele>
        <time>2025-01-28T10:34:47Z</time>
      </trkpt>
      <trkpt lat="47.61985" lon="-2.80325">
        <ele>2.1</ele>
        <time>2025-01-28T10:34:48Z</time>
      </trkpt>
      <trkpt lat="47.61986" lon="-2.80326">
        <ele>2.1</ele>
        <time>2025-01-28T10:34:49Z</time>
      </trkpt>
      <trkpt lat="47.61986" lon="-2.80328">
        <ele>2.1</ele>
        <time>2025-01-28T10:34:50Z</time>
      </trkpt>
      <trkpt lat="47.61987" lon="-2.80329">
        <ele>2.1</ele>
        <time>2025-01-28T10:34:51Z</time>
      </trkpt>
      <trkpt lat="47.61988" lon="-2.80331">
        <ele>2.1</ele>
        <time>2025-01-28T10:34:52Z</time>
      </trkpt>
      <trkpt lat="47.61988" lon="-2.80332">
        <ele>2</ele>
        <time>2025-01-28T10:34:53Z</time>
      </trkpt>
      <trkpt lat="47.61989" lon="-2.80333">
        <ele>2</ele>
        <time>2025-01-28T10:34:54Z</time>
      </trkpt>
      <trkpt lat="47.6199" lon="-2.80334">
        <ele>2.1</ele>
        <time>2025-01-28T10:34:55Z</time>
      </trkpt>
      <trkpt lat="47.61991" lon="-2.80335">
        <ele>2.1</ele>
        <time>2025-01-28T10:34:56Z</time>
      </trkpt>
      <trkpt lat="47.61992" lon="-2.80336">
        <ele>2.2</ele>
        <time>2025-01-28T10:34:57Z</time>
      </trkpt>
      <trkpt lat="47.61993" lon="-2.80337">
        <ele>2.3</ele>
        <time>2025-01-28T10:34:58Z</time>
      </trkpt>
      <trkpt lat="47.61994" lon="-2.80339">
        <ele>2.4</ele>
        <time>2025-01-28T10:34:59Z</time>
      </trkpt>
      <trkpt lat="47.61995" lon="-2.8034">
        <ele>2.5</ele>
        <time>2025-01-28T10:35:00Z</time>
      </trkpt>
      <trkpt lat="47.61996" lon="-2.80341">
        <ele>2.5</ele>
        <time>2025-01-28T10:35:01Z</time>
      </trkpt>
      <trkpt lat="47.61997" lon="-2.80342">
        <ele>2.6</ele>
        <time>2025-01-28T10:35:02Z</time>
      </trkpt>
      <trkpt lat="47.61998" lon="-2.80343">
        <ele>2.7</ele>
        <time>2025-01-28T10:35:03Z</time>
      </trkpt>
      <trkpt lat="47.61999" lon="-2.80344">
        <ele>2.8</ele>
        <time>2025-01-28T10:35:04Z</time>
      </trkpt>
      <trkpt lat="47.62" lon="-2.80345">
        <ele>2.8</ele>
        <time>2025-01-28T10:35:05Z</time>
      </trkpt>
      <trkpt lat="47.62" lon="-2.80346">
        <ele>2.9</ele>
        <time>2025-01-28T10:35:06Z</time>
      </trkpt>
      <trkpt lat="47.62001" lon="-2.80347">
        <ele>3</ele>
        <time>2025-01-28T10:35:07Z</time>
      </trkpt>
      <trkpt lat="47.62002" lon="-2.80348">
        <ele>3.1</ele>
        <time>2025-01-28T10:35:08Z</time>
      </trkpt>
      <trkpt lat="47.62003" lon="-2.8035">
        <ele>3.3</ele>
        <time>2025-01-28T10:35:09Z</time>
      </trkpt>
      <trkpt lat="47.62004" lon="-2.80351">
        <ele>3.4</ele>
        <time>2025-01-28T10:35:10Z</time>
      </trkpt>
      <trkpt lat="47.62004" lon="-2.80352">
        <ele>3.4</ele>
        <time>2025-01-28T10:35:11Z</time>
      </trkpt>
      <trkpt lat="47.62005" lon="-2.80353">
        <ele>3.5</ele>
        <time>2025-01-28T10:35:12Z</time>
      </trkpt>
      <trkpt lat="47.62006" lon="-2.80355">
        <ele>3.6</ele>
        <time>2025-01-28T10:35:13Z</time>
      </trkpt>
      <trkpt lat="47.62007" lon="-2.80356">
        <ele>3.7</ele>
        <time>2025-01-28T10:35:14Z</time>
      </trkpt>
      <trkpt lat="47.62008" lon="-2.80357">
        <ele>3.8</ele>
        <time>2025-01-28T10:35:15Z</time>
      </trkpt>
      <trkpt lat="47.62009" lon="-2.80358">
        <ele>3.8</ele>
        <time>2025-01-28T10:35:16Z</time>
      </trkpt>
      <trkpt lat="47.6201" lon="-2.80359">
        <ele>3.9</ele>
        <time>2025-01-28T10:35:17Z</time>
      </trkpt>
      <trkpt lat="47.62011" lon="-2.80359">
        <ele>3.9</ele>
        <time>2025-01-28T10:35:18Z</time>
      </trkpt>
      <trkpt lat="47.62011" lon="-2.8036">
        <ele>4</ele>
        <time>2025-01-28T10:35:19Z</time>
      </trkpt>
      <trkpt lat="47.62012" lon="-2.80362">
        <ele>4</ele>
        <time>2025-01-28T10:35:20Z</time>
      </trkpt>
      <trkpt lat="47.62013" lon="-2.80363">
        <ele>3.8</ele>
        <time>2025-01-28T10:35:21Z</time>
      </trkpt>
      <trkpt lat="47.62014" lon="-2.80364">
        <ele>3.7</ele>
        <time>2025-01-28T10:35:22Z</time>
      </trkpt>
      <trkpt lat="47.62015" lon="-2.80366">
        <ele>3.5</ele>
        <time>2025-01-28T10:35:23Z</time>
      </trkpt>
      <trkpt lat="47.62015" lon="-2.80367">
        <ele>3.3</ele>
        <time>2025-01-28T10:35:24Z</time>
      </trkpt>
      <trkpt lat="47.62016" lon="-2.80369">
        <ele>3.2</ele>
        <time>2025-01-28T10:35:25Z</time>
      </trkpt>
      <trkpt lat="47.62017" lon="-2.8037">
        <ele>3</ele>
        <time>2025-01-28T10:35:26Z</time>
      </trkpt>
      <trkpt lat="47.62018" lon="-2.80371">
        <ele>2.9</ele>
        <time>2025-01-28T10:35:27Z</time>
      </trkpt>
      <trkpt lat="47.62018" lon="-2.80373">
        <ele>2.8</ele>
        <time>2025-01-28T10:35:28Z</time>
      </trkpt>
      <trkpt lat="47.62019" lon="-2.80374">
        <ele>2.6</ele>
        <time>2025-01-28T10:35:29Z</time>
      </trkpt>
      <trkpt lat="47.6202" lon="-2.80376">
        <ele>2.4</ele>
        <time>2025-01-28T10:35:30Z</time>
      </trkpt>
      <trkpt lat="47.6202" lon="-2.80377">
        <ele>2.3</ele>
        <time>2025-01-28T10:35:31Z</time>
      </trkpt>
      <trkpt lat="47.62021" lon="-2.80378">
        <ele>2.2</ele>
        <time>2025-01-28T10:35:32Z</time>
      </trkpt>
      <trkpt lat="47.62022" lon="-2.80379">
        <ele>2.1</ele>
        <time>2025-01-28T10:35:33Z</time>
      </trkpt>
      <trkpt lat="47.62023" lon="-2.8038">
        <ele>1.9</ele>
        <time>2025-01-28T10:35:34Z</time>
      </trkpt>
      <trkpt lat="47.62024" lon="-2.80381">
        <ele>1.8</ele>
        <time>2025-01-28T10:35:35Z</time>
      </trkpt>
      <trkpt lat="47.62024" lon="-2.80383">
        <ele>1.7</ele>
        <time>2025-01-28T10:35:36Z</time>
      </trkpt>
      <trkpt lat="47.62025" lon="-2.80384">
        <ele>1.5</ele>
        <time>2025-01-28T10:35:37Z</time>
      </trkpt>
      <trkpt lat="47.62026" lon="-2.80385">
        <ele>1.4</ele>
        <time>2025-01-28T10:35:38Z</time>
      </trkpt>
      <trkpt lat="47.62027" lon="-2.80386">
        <ele>1.3</ele>
        <time>2025-01-28T10:35:39Z</time>
      </trkpt>
      <trkpt lat="47.62028" lon="-2.80388">
        <ele>1.2</ele>
        <time>2025-01-28T10:35:40Z</time>
      </trkpt>
      <trkpt lat="47.62029" lon="-2.80389">
        <ele>1.1</ele>
        <time>2025-01-28T10:35:41Z</time>
      </trkpt>
      <trkpt lat="47.62029" lon="-2.80391">
        <ele>1.3</ele>
        <time>2025-01-28T10:35:42Z</time>
      </trkpt>
      <trkpt lat="47.6203" lon="-2.80392">
        <ele>1.5</ele>
        <time>2025-01-28T10:35:43Z</time>
      </trkpt>
      <trkpt lat="47.62031" lon="-2.80393">
        <ele>1.6</ele>
        <time>2025-01-28T10:35:44Z</time>
      </trkpt>
      <trkpt lat="47.62031" lon="-2.80395">
        <ele>1.8</ele>
        <time>2025-01-28T10:35:45Z</time>
      </trkpt>
      <trkpt lat="47.62032" lon="-2.80396">
        <ele>2</ele>
        <time>2025-01-28T10:35:46Z</time>
      </trkpt>
      <trkpt lat="47.62033" lon="-2.80398">
        <ele>2.2</ele>
        <time>2025-01-28T10:35:47Z</time>
      </trkpt>
      <trkpt lat="47.62033" lon="-2.80399">
        <ele>2.3</ele>
        <time>2025-01-28T10:35:48Z</time>
      </trkpt>
      <trkpt lat="47.62034" lon="-2.804">
        <ele>2.5</ele>
        <time>2025-01-28T10:35:49Z</time>
      </trkpt>
      <trkpt lat="47.62035" lon="-2.80402">
        <ele>2.6</ele>
        <time>2025-01-28T10:35:50Z</time>
      </trkpt>
      <trkpt lat="47.62035" lon="-2.80403">
        <ele>2.8</ele>
        <time>2025-01-28T10:35:51Z</time>
      </trkpt>
      <trkpt lat="47.62036" lon="-2.80405">
        <ele>3</ele>
        <time>2025-01-28T10:35:52Z</time>
      </trkpt>
      <trkpt lat="47.62037" lon="-2.80406">
        <ele>3.1</ele>
        <time>2025-01-28T10:35:53Z</time>
      </trkpt>
      <trkpt lat="47.62037" lon="-2.80407">
        <ele>3.2</ele>
        <time>2025-01-28T10:35:54Z</time>
      </trkpt>
      <trkpt lat="47.62038" lon="-2.80409">
        <ele>3.3</ele>
        <time>2025-01-28T10:35:55Z</time>
      </trkpt>
      <trkpt lat="47.62039" lon="-2.8041">
        <ele>3.4</ele>
        <time>2025-01-28T10:35:56Z</time>
      </trkpt>
      <trkpt lat="47.62039" lon="-2.80411">
        <ele>3.5</ele>
        <time>2025-01-28T10:35:57Z</time>
      </trkpt>
      <trkpt lat="47.6204" lon="-2.80412">
        <ele>3.6</ele>
        <time>2025-01-28T10:35:58Z</time>
      </trkpt>
      <trkpt lat="47.62041" lon="-2.80414">
        <ele>3.8</ele>
        <time>2025-01-28T10:35:59Z</time>
      </trkpt>
      <trkpt lat="47.62041" lon="-2.80415">
        <ele>3.9</ele>
        <time>2025-01-28T10:36:00Z</time>
      </trkpt>
      <trkpt lat="47.62042" lon="-2.80416">
        <ele>4</ele>
        <time>2025-01-28T10:36:01Z</time>
      </trkpt>
      <trkpt lat="47.62043" lon="-2.80417">
        <ele>3.9</ele>
        <time>2025-01-28T10:36:02Z</time>
      </trkpt>
      <trkpt lat="47.62044" lon="-2.80419">
        <ele>3.8</ele>
        <time>2025-01-28T10:36:03Z</time>
      </trkpt>
      <trkpt lat="47.62045" lon="-2.8042">
        <ele>3.7</ele>
        <time>2025-01-28T10:36:04Z</time>
      </trkpt>
      <trkpt lat="47.62046" lon="-2.8042">
        <ele>3.6</ele>
        <time>2025-01-28T10:36:05Z</time>
      </trkpt>
      <trkpt lat="47.62047" lon="-2.80421">
        <ele>3.5</ele>
        <time>2025-01-28T10:36:06Z</time>
      </trkpt>
      <trkpt lat="47.62047" lon="-2.80423">
        <ele>3.3</ele>
        <time>2025-01-28T10:36:07Z</time>
      </trkpt>
      <trkpt lat="47.62048" lon="-2.80424">
        <ele>3.2</ele>
        <time>2025-01-28T10:36:08Z</time>
      </trkpt>
      <trkpt lat="47.62049" lon="-2.80426">
        <ele>3</ele>
        <time>2025-01-28T10:36:09Z</time>
      </trkpt>
      <trkpt lat="47.6205" lon="-2.80426">
        <ele>3</ele>
        <time>2025-01-28T10:36:10Z</time>
      </trkpt>
      <trkpt lat="47.62051" lon="-2.80427">
        <ele>2.9</ele>
        <time>2025-01-28T10:36:11Z</time>
      </trkpt>
      <trkpt lat="47.62052" lon="-2.80429">
        <ele>2.7</ele>
        <time>2025-01-28T10:36:12Z</time>
      </trkpt>
      <trkpt lat="47.62052" lon="-2.8043">
        <ele>2.6</ele>
        <time>2025-01-28T10:36:13Z</time>
      </trkpt>
      <trkpt lat="47.62053" lon="-2.80431">
        <ele>2.5</ele>
        <time>2025-01-28T10:36:14Z</time>
      </trkpt>
      <trkpt lat="47.62054" lon="-2.80432">
        <ele>2.3</ele>
        <time>2025-01-28T10:36:15Z</time>
      </trkpt>
      <trkpt lat="47.62055" lon="-2.80434">
        <ele>2.2</ele>
        <time>2025-01-28T10:36:16Z</time>
      </trkpt>
      <trkpt lat="47.62056" lon="-2.80435">
        <ele>2</ele>
        <time>2025-01-28T10:36:17Z</time>
      </trkpt>
      <trkpt lat="47.62056" lon="-2.80436">
        <ele>2</ele>
        <time>2025-01-28T10:36:18Z</time>
      </trkpt>
      <trkpt lat="47.62057" lon="-2.80437">
        <ele>1.9</ele>
        <time>2025-01-28T10:36:19Z</time>
      </trkpt>
      <trkpt lat="47.62058" lon="-2.80438">
        <ele>1.9</ele>
        <time>2025-01-28T10:36:20Z</time>
      </trkpt>
      <trkpt lat="47.62059" lon="-2.80439">
        <ele>1.8</ele>
        <time>2025-01-28T10:36:21Z</time>
      </trkpt>
      <trkpt lat="47.6206" lon="-2.8044">
        <ele>1.8</ele>
        <time>2025-01-28T10:36:22Z</time>
      </trkpt>
      <trkpt lat="47.62061" lon="-2.80442">
        <ele>1.8</ele>
        <time>2025-01-28T10:36:23Z</time>
      </trkpt>
      <trkpt lat="47.62061" lon="-2.80443">
        <ele>1.7</ele>
        <time>2025-01-28T10:36:24Z</time>
      </trkpt>
      <trkpt lat="47.62062" lon="-2.80445">
        <ele>1.6</ele>
        <time>2025-01-28T10:36:25Z</time>
      </trkpt>
      <trkpt lat="47.62062" lon="-2.80446">
        <ele>1.7</ele>
        <time>2025-01-28T10:36:26Z</time>
      </trkpt>
      <trkpt lat="47.62063" lon="-2.80447">
        <ele>1.8</ele>
        <time>2025-01-28T10:36:27Z</time>
      </trkpt>
      <trkpt lat="47.62064" lon="-2.80448">
        <ele>1.9</ele>
        <time>2025-01-28T10:36:28Z</time>
      </trkpt>
      <trkpt lat="47.62064" lon="-2.8045">
        <ele>2</ele>
        <time>2025-01-28T10:36:29Z</time>
      </trkpt>
      <trkpt lat="47.62065" lon="-2.80451">
        <ele>2</ele>
        <time>2025-01-28T10:36:30Z</time>
      </trkpt>
      <trkpt lat="47.62066" lon="-2.80452">
        <ele>2.1</ele>
        <time>2025-01-28T10:36:31Z</time>
      </trkpt>
      <trkpt lat="47.62067" lon="-2.80453">
        <ele>2.1</ele>
        <time>2025-01-28T10:36:32Z</time>
      </trkpt>
      <trkpt lat="47.62068" lon="-2.80455">
        <ele>2.2</ele>
        <time>2025-01-28T10:36:33Z</time>
      </trkpt>
      <trkpt lat="47.62068" lon="-2.80456">
        <ele>2.2</ele>
        <time>2025-01-28T10:36:34Z</time>
      </trkpt>
      <trkpt lat="47.62069" lon="-2.80457">
        <ele>2.3</ele>
        <time>2025-01-28T10:36:35Z</time>
      </trkpt>
      <trkpt lat="47.6207" lon="-2.80458">
        <ele>2.3</ele>
        <time>2025-01-28T10:36:36Z</time>
      </trkpt>
      <trkpt lat="47.62071" lon="-2.80459">
        <ele>2.3</ele>
        <time>2025-01-28T10:36:37Z</time>
      </trkpt>
      <trkpt lat="47.62071" lon="-2.80461">
        <ele>2.3</ele>
        <time>2025-01-28T10:36:38Z</time>
      </trkpt>
      <trkpt lat="47.62072" lon="-2.80462">
        <ele>2.3</ele>
        <time>2025-01-28T10:36:39Z</time>
      </trkpt>
      <trkpt lat="47.62073" lon="-2.80463">
        <ele>2.3</ele>
        <time>2025-01-28T10:36:40Z</time>
      </trkpt>
      <trkpt lat="47.62074" lon="-2.80464">
        <ele>2.3</ele>
        <time>2025-01-28T10:36:41Z</time>
      </trkpt>
      <trkpt lat="47.62075" lon="-2.80465">
        <ele>2.3</ele>
        <time>2025-01-28T10:36:42Z</time>
      </trkpt>
      <trkpt lat="47.62076" lon="-2.80467">
        <ele>2.2</ele>
        <time>2025-01-28T10:36:43Z</time>
      </trkpt>
      <trkpt lat="47.62077" lon="-2.80467">
        <ele>2.2</ele>
        <time>2025-01-28T10:36:44Z</time>
      </trkpt>
      <trkpt lat="47.62078" lon="-2.80469">
        <ele>2.2</ele>
        <time>2025-01-28T10:36:45Z</time>
      </trkpt>
      <trkpt lat="47.62079" lon="-2.8047">
        <ele>2.1</ele>
        <time>2025-01-28T10:36:46Z</time>
      </trkpt>
      <trkpt lat="47.6208" lon="-2.80471">
        <ele>2.1</ele>
        <time>2025-01-28T10:36:47Z</time>
      </trkpt>
      <trkpt lat="47.62081" lon="-2.80471">
        <ele>2.1</ele>
        <time>2025-01-28T10:36:48Z</time>
      </trkpt>
      <trkpt lat="47.62082" lon="-2.80472">
        <ele>2</ele>
        <time>2025-01-28T10:36:49Z</time>
      </trkpt>
      <trkpt lat="47.62083" lon="-2.80473">
        <ele>2</ele>
        <time>2025-01-28T10:36:50Z</time>
      </trkpt>
      <trkpt lat="47.62083" lon="-2.80474">
        <ele>1.9</ele>
        <time>2025-01-28T10:36:51Z</time>
      </trkpt>
      <trkpt lat="47.62084" lon="-2.80476">
        <ele>1.9</ele>
        <time>2025-01-28T10:36:52Z</time>
      </trkpt>
      <trkpt lat="47.62085" lon="-2.80477">
        <ele>1.9</ele>
        <time>2025-01-28T10:36:53Z</time>
      </trkpt>
      <trkpt lat="47.62085" lon="-2.80479">
        <ele>1.9</ele>
        <time>2025-01-28T10:36:54Z</time>
      </trkpt>
      <trkpt lat="47.62087" lon="-2.8048">
        <ele>2</ele>
        <time>2025-01-28T10:36:55Z</time>
      </trkpt>
      <trkpt lat="47.62088" lon="-2.80481">
        <ele>2.1</ele>
        <time>2025-01-28T10:36:56Z</time>
      </trkpt>
      <trkpt lat="47.62089" lon="-2.80482">
        <ele>2.1</ele>
        <time>2025-01-28T10:36:57Z</time>
      </trkpt>
      <trkpt lat="47.62089" lon="-2.80483">
        <ele>2.1</ele>
        <time>2025-01-28T10:36:58Z</time>
      </trkpt>
      <trkpt lat="47.6209" lon="-2.80484">
        <ele>2.2</ele>
        <time>2025-01-28T10:36:59Z</time>
      </trkpt>
      <trkpt lat="47.62091" lon="-2.80485">
        <ele>2.2</ele>
        <time>2025-01-28T10:37:00Z</time>
      </trkpt>
      <trkpt lat="47.62092" lon="-2.80486">
        <ele>2.3</ele>
        <time>2025-01-28T10:37:01Z</time>
      </trkpt>
      <trkpt lat="47.62093" lon="-2.80487">
        <ele>2.4</ele>
        <time>2025-01-28T10:37:02Z</time>
      </trkpt>
      <trkpt lat="47.62094" lon="-2.80488">
        <ele>2.4</ele>
        <time>2025-01-28T10:37:03Z</time>
      </trkpt>
      <trkpt lat="47.62095" lon="-2.80489">
        <ele>2.5</ele>
        <time>2025-01-28T10:37:04Z</time>
      </trkpt>
      <trkpt lat="47.62096" lon="-2.8049">
        <ele>2.5</ele>
        <time>2025-01-28T10:37:05Z</time>
      </trkpt>
      <trkpt lat="47.62097" lon="-2.80491">
        <ele>2.6</ele>
        <time>2025-01-28T10:37:06Z</time>
      </trkpt>
      <trkpt lat="47.62098" lon="-2.80493">
        <ele>2.7</ele>
        <time>2025-01-28T10:37:07Z</time>
      </trkpt>
      <trkpt lat="47.62098" lon="-2.80494">
        <ele>2.7</ele>
        <time>2025-01-28T10:37:08Z</time>
      </trkpt>
      <trkpt lat="47.62099" lon="-2.80495">
        <ele>2.8</ele>
        <time>2025-01-28T10:37:09Z</time>
      </trkpt>
      <trkpt lat="47.621" lon="-2.80495">
        <ele>2.9</ele>
        <time>2025-01-28T10:37:10Z</time>
      </trkpt>
      <trkpt lat="47.62101" lon="-2.80496">
        <ele>3</ele>
        <time>2025-01-28T10:37:11Z</time>
      </trkpt>
      <trkpt lat="47.62102" lon="-2.80496">
        <ele>3.1</ele>
        <time>2025-01-28T10:37:12Z</time>
      </trkpt>
      <trkpt lat="47.62104" lon="-2.80496">
        <ele>3.2</ele>
        <time>2025-01-28T10:37:13Z</time>
      </trkpt>
      <trkpt lat="47.62105" lon="-2.80496">
        <ele>3.3</ele>
        <time>2025-01-28T10:37:14Z</time>
      </trkpt>
      <trkpt lat="47.62106" lon="-2.80498">
        <ele>3.5</ele>
        <time>2025-01-28T10:37:15Z</time>
      </trkpt>
      <trkpt lat="47.62107" lon="-2.805">
        <ele>3.5</ele>
        <time>2025-01-28T10:37:16Z</time>
      </trkpt>
      <trkpt lat="47.62107" lon="-2.80502">
        <ele>3.6</ele>
        <time>2025-01-28T10:37:17Z</time>
      </trkpt>
      <trkpt lat="47.62108" lon="-2.80503">
        <ele>3.7</ele>
        <time>2025-01-28T10:37:18Z</time>
      </trkpt>
      <trkpt lat="47.62108" lon="-2.80504">
        <ele>3.7</ele>
        <time>2025-01-28T10:37:19Z</time>
      </trkpt>
      <trkpt lat="47.62108" lon="-2.80505">
        <ele>3.7</ele>
        <time>2025-01-28T10:37:20Z</time>
      </trkpt>
      <trkpt lat="47.62109" lon="-2.80506">
        <ele>3.8</ele>
        <time>2025-01-28T10:37:21Z</time>
      </trkpt>
      <trkpt lat="47.62109" lon="-2.80508">
        <ele>3.8</ele>
        <time>2025-01-28T10:37:22Z</time>
      </trkpt>
      <trkpt lat="47.62109" lon="-2.8051">
        <ele>3.9</ele>
        <time>2025-01-28T10:37:23Z</time>
      </trkpt>
      <trkpt lat="47.6211" lon="-2.80511">
        <ele>3.9</ele>
        <time>2025-01-28T10:37:24Z</time>
      </trkpt>
      <trkpt lat="47.6211" lon="-2.80512">
        <ele>3.9</ele>
        <time>2025-01-28T10:37:25Z</time>
      </trkpt>
      <trkpt lat="47.6211" lon="-2.80514">
        <ele>3.9</ele>
        <time>2025-01-28T10:37:26Z</time>
      </trkpt>
      <trkpt lat="47.6211" lon="-2.80515">
        <ele>3.9</ele>
        <time>2025-01-28T10:37:27Z</time>
      </trkpt>
      <trkpt lat="47.6211" lon="-2.80517">
        <ele>4</ele>
        <time>2025-01-28T10:37:28Z</time>
      </trkpt>
      <trkpt lat="47.62111" lon="-2.80518">
        <ele>4</ele>
        <time>2025-01-28T10:37:29Z</time>
      </trkpt>
      <trkpt lat="47.62111" lon="-2.8052">
        <ele>4</ele>
        <time>2025-01-28T10:37:30Z</time>
      </trkpt>
      <trkpt lat="47.62112" lon="-2.80521">
        <ele>4.1</ele>
        <time>2025-01-28T10:37:31Z</time>
      </trkpt>
      <trkpt lat="47.62112" lon="-2.80522">
        <ele>4.1</ele>
        <time>2025-01-28T10:37:32Z</time>
      </trkpt>
      <trkpt lat="47.62113" lon="-2.80524">
        <ele>4.2</ele>
        <time>2025-01-28T10:37:33Z</time>
      </trkpt>
      <trkpt lat="47.62113" lon="-2.80526">
        <ele>4.2</ele>
        <time>2025-01-28T10:37:34Z</time>
      </trkpt>
      <trkpt lat="47.62114" lon="-2.80527">
        <ele>4.3</ele>
        <time>2025-01-28T10:37:35Z</time>
      </trkpt>
      <trkpt lat="47.62114" lon="-2.80529">
        <ele>4.2</ele>
        <time>2025-01-28T10:37:36Z</time>
      </trkpt>
      <trkpt lat="47.62114" lon="-2.8053">
        <ele>4.1</ele>
        <time>2025-01-28T10:37:37Z</time>
      </trkpt>
      <trkpt lat="47.62114" lon="-2.80532">
        <ele>4.1</ele>
        <time>2025-01-28T10:37:38Z</time>
      </trkpt>
      <trkpt lat="47.62114" lon="-2.80533">
        <ele>4</ele>
        <time>2025-01-28T10:37:39Z</time>
      </trkpt>
      <trkpt lat="47.62114" lon="-2.80535">
        <ele>3.9</ele>
        <time>2025-01-28T10:37:40Z</time>
      </trkpt>
      <trkpt lat="47.62114" lon="-2.80537">
        <ele>3.8</ele>
        <time>2025-01-28T10:37:41Z</time>
      </trkpt>
      <trkpt lat="47.62115" lon="-2.80538">
        <ele>3.7</ele>
        <time>2025-01-28T10:37:42Z</time>
      </trkpt>
      <trkpt lat="47.62115" lon="-2.8054">
        <ele>3.6</ele>
        <time>2025-01-28T10:37:43Z</time>
      </trkpt>
      <trkpt lat="47.62115" lon="-2.80542">
        <ele>3.6</ele>
        <time>2025-01-28T10:37:44Z</time>
      </trkpt>
      <trkpt lat="47.62115" lon="-2.80543">
        <ele>3.5</ele>
        <time>2025-01-28T10:37:45Z</time>
      </trkpt>
      <trkpt lat="47.62116" lon="-2.80545">
        <ele>3.5</ele>
        <time>2025-01-28T10:37:46Z</time>
      </trkpt>
      <trkpt lat="47.62116" lon="-2.80546">
        <ele>3.5</ele>
        <time>2025-01-28T10:37:47Z</time>
      </trkpt>
      <trkpt lat="47.62117" lon="-2.80548">
        <ele>3.4</ele>
        <time>2025-01-28T10:37:48Z</time>
      </trkpt>
      <trkpt lat="47.62117" lon="-2.80549">
        <ele>3.4</ele>
        <time>2025-01-28T10:37:49Z</time>
      </trkpt>
      <trkpt lat="47.62117" lon="-2.80551">
        <ele>3.2</ele>
        <time>2025-01-28T10:37:50Z</time>
      </trkpt>
      <trkpt lat="47.62117" lon="-2.80553">
        <ele>3.2</ele>
        <time>2025-01-28T10:37:51Z</time>
      </trkpt>
      <trkpt lat="47.62118" lon="-2.80554">
        <ele>3.3</ele>
        <time>2025-01-28T10:37:52Z</time>
      </trkpt>
      <trkpt lat="47.62118" lon="-2.80556">
        <ele>3.3</ele>
        <time>2025-01-28T10:37:53Z</time>
      </trkpt>
      <trkpt lat="47.62118" lon="-2.80557">
        <ele>3.2</ele>
        <time>2025-01-28T10:37:54Z</time>
      </trkpt>
      <trkpt lat="47.62119" lon="-2.80559">
        <ele>3.3</ele>
        <time>2025-01-28T10:37:55Z</time>
      </trkpt>
      <trkpt lat="47.62119" lon="-2.80561">
        <ele>3.3</ele>
        <time>2025-01-28T10:37:56Z</time>
      </trkpt>
      <trkpt lat="47.6212" lon="-2.80562">
        <ele>3.4</ele>
        <time>2025-01-28T10:37:57Z</time>
      </trkpt>
      <trkpt lat="47.62121" lon="-2.80564">
        <ele>3.5</ele>
        <time>2025-01-28T10:37:58Z</time>
      </trkpt>
      <trkpt lat="47.62121" lon="-2.80565">
        <ele>3.6</ele>
        <time>2025-01-28T10:37:59Z</time>
      </trkpt>
      <trkpt lat="47.62122" lon="-2.80567">
        <ele>3.7</ele>
        <time>2025-01-28T10:38:00Z</time>
      </trkpt>
      <trkpt lat="47.62122" lon="-2.80568">
        <ele>3.8</ele>
        <time>2025-01-28T10:38:01Z</time>
      </trkpt>
      <trkpt lat="47.62123" lon="-2.8057">
        <ele>3.9</ele>
        <time>2025-01-28T10:38:02Z</time>
      </trkpt>
      <trkpt lat="47.62124" lon="-2.80571">
        <ele>3.9</ele>
        <time>2025-01-28T10:38:03Z</time>
      </trkpt>
      <trkpt lat="47.62124" lon="-2.80573">
        <ele>4</ele>
        <time>2025-01-28T10:38:04Z</time>
      </trkpt>
      <trkpt lat="47.62125" lon="-2.80574">
        <ele>4.1</ele>
        <time>2025-01-28T10:38:05Z</time>
      </trkpt>
      <trkpt lat="47.62125" lon="-2.80576">
        <ele>4.1</ele>
        <time>2025-01-28T10:38:06Z</time>
      </trkpt>
      <trkpt lat="47.62125" lon="-2.80577">
        <ele>4.1</ele>
        <time>2025-01-28T10:38:07Z</time>
      </trkpt>
      <trkpt lat="47.62125" lon="-2.80579">
        <ele>4.1</ele>
        <time>2025-01-28T10:38:08Z</time>
      </trkpt>
      <trkpt lat="47.62125" lon="-2.80581">
        <ele>4.1</ele>
        <time>2025-01-28T10:38:09Z</time>
      </trkpt>
      <trkpt lat="47.62126" lon="-2.80583">
        <ele>4.1</ele>
        <time>2025-01-28T10:38:10Z</time>
      </trkpt>
      <trkpt lat="47.62126" lon="-2.80584">
        <ele>4.3</ele>
        <time>2025-01-28T10:38:11Z</time>
      </trkpt>
      <trkpt lat="47.62127" lon="-2.80586">
        <ele>4.5</ele>
        <time>2025-01-28T10:38:12Z</time>
      </trkpt>
      <trkpt lat="47.62127" lon="-2.80588">
        <ele>4.6</ele>
        <time>2025-01-28T10:38:13Z</time>
      </trkpt>
      <trkpt lat="47.62127" lon="-2.80589">
        <ele>4.7</ele>
        <time>2025-01-28T10:38:14Z</time>
      </trkpt>
      <trkpt lat="47.62127" lon="-2.80591">
        <ele>4.9</ele>
        <time>2025-01-28T10:38:15Z</time>
      </trkpt>
      <trkpt lat="47.62127" lon="-2.80593">
        <ele>5</ele>
        <time>2025-01-28T10:38:16Z</time>
      </trkpt>
      <trkpt lat="47.62127" lon="-2.80595">
        <ele>5</ele>
        <time>2025-01-28T10:38:17Z</time>
      </trkpt>
      <trkpt lat="47.62126" lon="-2.80596">
        <ele>5</ele>
        <time>2025-01-28T10:38:18Z</time>
      </trkpt>
      <trkpt lat="47.62126" lon="-2.80597">
        <ele>5.1</ele>
        <time>2025-01-28T10:38:19Z</time>
      </trkpt>
      <trkpt lat="47.62126" lon="-2.80597">
        <ele>5.1</ele>
        <time>2025-01-28T10:38:20Z</time>
      </trkpt>
      <trkpt lat="47.62126" lon="-2.80597">
        <ele>5.1</ele>
        <time>2025-01-28T10:38:21Z</time>
      </trkpt>
      <trkpt lat="47.62126" lon="-2.80598">
        <ele>5.1</ele>
        <time>2025-01-28T10:38:22Z</time>
      </trkpt>
      <trkpt lat="47.62126" lon="-2.80598">
        <ele>5.1</ele>
        <time>2025-01-28T10:38:23Z</time>
      </trkpt>
      <trkpt lat="47.62126" lon="-2.80598">
        <ele>5.1</ele>
        <time>2025-01-28T10:38:24Z</time>
      </trkpt>
      <trkpt lat="47.62126" lon="-2.80598">
        <ele>5.1</ele>
        <time>2025-01-28T10:38:25Z</time>
      </trkpt>
      <trkpt lat="47.62126" lon="-2.80598">
        <ele>5.1</ele>
        <time>2025-01-28T10:38:26Z</time>
      </trkpt>
      <trkpt lat="47.62126" lon="-2.80598">
        <ele>5.1</ele>
        <time>2025-01-28T10:38:27Z</time>
      </trkpt>
      <trkpt lat="47.62126" lon="-2.80598">
        <ele>5.1</ele>
        <time>2025-01-28T10:38:28Z</time>
      </trkpt>
      <trkpt lat="47.62126" lon="-2.80598">
        <ele>5.1</ele>
        <time>2025-01-28T10:38:29Z</time>
      </trkpt>
      <trkpt lat="47.62126" lon="-2.80598">
        <ele>5.1</ele>
        <time>2025-01-28T10:38:30Z</time>
      </trkpt>
      <trkpt lat="47.62126" lon="-2.80598">
        <ele>5.1</ele>
        <time>2025-01-28T10:38:31Z</time>
      </trkpt>
      <trkpt lat="47.62126" lon="-2.80598">
        <ele>5.1</ele>
        <time>2025-01-28T10:38:32Z</time>
      </trkpt>
      <trkpt lat="47.62126" lon="-2.80598">
        <ele>5.1</ele>
        <time>2025-01-28T10:38:33Z</time>
      </trkpt>
      <trkpt lat="47.62126" lon="-2.80598">
        <ele>5.1</ele>
        <time>2025-01-28T10:38:34Z</time>
      </trkpt>
      <trkpt lat="47.62126" lon="-2.80598">
        <ele>5.1</ele>
        <time>2025-01-28T10:38:35Z</time>
      </trkpt>
      <trkpt lat="47.62126" lon="-2.80598">
        <ele>5.1</ele>
        <time>2025-01-28T10:38:36Z</time>
      </trkpt>
      <trkpt lat="47.62126" lon="-2.80598">
        <ele>5.1</ele>
        <time>2025-01-28T10:38:37Z</time>
      </trkpt>
      <trkpt lat="47.62126" lon="-2.80598">
        <ele>5.1</ele>
        <time>2025-01-28T10:38:38Z</time>
      </trkpt>
      <trkpt lat="47.62126" lon="-2.80598">
        <ele>5.1</ele>
        <time>2025-01-28T10:38:39Z</time>
      </trkpt>
      <trkpt lat="47.62126" lon="-2.80598">
        <ele>5.1</ele>
        <time>2025-01-28T10:38:40Z</time>
      </trkpt>
      <trkpt lat="47.62126" lon="-2.80598">
        <ele>5.1</ele>
        <time>2025-01-28T10:38:41Z</time>
      </trkpt>
      <trkpt lat="47.62126" lon="-2.80598">
        <ele>5.1</ele>
        <time>2025-01-28T10:38:42Z</time>
      </trkpt>
      <trkpt lat="47.62126" lon="-2.80598">
        <ele>5.1</ele>
        <time>2025-01-28T10:38:43Z</time>
      </trkpt>
      <trkpt lat="47.62126" lon="-2.80598">
        <ele>5.1</ele>
        <time>2025-01-28T10:38:44Z</time>
      </trkpt>
      <trkpt lat="47.62126" lon="-2.80598">
        <ele>5.1</ele>
        <time>2025-01-28T10:38:45Z</time>
      </trkpt>
      <trkpt lat="47.62125" lon="-2.80597">
        <ele>5</ele>
        <time>2025-01-28T10:38:46Z</time>
      </trkpt>
      <trkpt lat="47.62126" lon="-2.80596">
        <ele>5</ele>
        <time>2025-01-28T10:38:47Z</time>
      </trkpt>
      <trkpt lat="47.62127" lon="-2.80595">
        <ele>5.1</ele>
        <time>2025-01-28T10:38:48Z</time>
      </trkpt>
      <trkpt lat="47.62128" lon="-2.80596">
        <ele>5.3</ele>
        <time>2025-01-28T10:38:49Z</time>
      </trkpt>
      <trkpt lat="47.62129" lon="-2.80598">
        <ele>5.4</ele>
        <time>2025-01-28T10:38:50Z</time>
      </trkpt>
      <trkpt lat="47.62129" lon="-2.80598">
        <ele>5.4</ele>
        <time>2025-01-28T10:38:51Z</time>
      </trkpt>
      <trkpt lat="47.62128" lon="-2.806">
        <ele>5.4</ele>
        <time>2025-01-28T10:38:52Z</time>
      </trkpt>
      <trkpt lat="47.62127" lon="-2.806">
        <ele>5.4</ele>
        <time>2025-01-28T10:38:53Z</time>
      </trkpt>
      <trkpt lat="47.62127" lon="-2.806">
        <ele>5.4</ele>
        <time>2025-01-28T10:38:54Z</time>
      </trkpt>
      <trkpt lat="47.62127" lon="-2.80599">
        <ele>5.3</ele>
        <time>2025-01-28T10:38:55Z</time>
      </trkpt>
      <trkpt lat="47.62127" lon="-2.80599">
        <ele>5.3</ele>
        <time>2025-01-28T10:38:56Z</time>
      </trkpt>
      <trkpt lat="47.62127" lon="-2.80599">
        <ele>5.3</ele>
        <time>2025-01-28T10:38:57Z</time>
      </trkpt>
      <trkpt lat="47.62127" lon="-2.80597">
        <ele>5.2</ele>
        <time>2025-01-28T10:38:58Z</time>
      </trkpt>
      <trkpt lat="47.62127" lon="-2.80596">
        <ele>5.2</ele>
        <time>2025-01-28T10:38:59Z</time>
      </trkpt>
      <trkpt lat="47.62129" lon="-2.80595">
        <ele>5.4</ele>
        <time>2025-01-28T10:39:00Z</time>
      </trkpt>
      <trkpt lat="47.6213" lon="-2.80595">
        <ele>5.5</ele>
        <time>2025-01-28T10:39:01Z</time>
      </trkpt>
      <trkpt lat="47.62132" lon="-2.80595">
        <ele>5.7</ele>
        <time>2025-01-28T10:39:02Z</time>
      </trkpt>
      <trkpt lat="47.62133" lon="-2.80596">
        <ele>5.8</ele>
        <time>2025-01-28T10:39:03Z</time>
      </trkpt>
      <trkpt lat="47.62133" lon="-2.80597">
        <ele>5.9</ele>
        <time>2025-01-28T10:39:04Z</time>
      </trkpt>
      <trkpt lat="47.62134" lon="-2.80598">
        <ele>6</ele>
        <time>2025-01-28T10:39:05Z</time>
      </trkpt>
      <trkpt lat="47.62135" lon="-2.80599">
        <ele>6</ele>
        <time>2025-01-28T10:39:06Z</time>
      </trkpt>
      <trkpt lat="47.62135" lon="-2.80601">
        <ele>6.1</ele>
        <time>2025-01-28T10:39:07Z</time>
      </trkpt>
      <trkpt lat="47.62135" lon="-2.80603">
        <ele>6.1</ele>
        <time>2025-01-28T10:39:08Z</time>
      </trkpt>
      <trkpt lat="47.62136" lon="-2.80604">
        <ele>6.1</ele>
        <time>2025-01-28T10:39:09Z</time>
      </trkpt>
      <trkpt lat="47.62136" lon="-2.80605">
        <ele>6.1</ele>
        <time>2025-01-28T10:39:10Z</time>
      </trkpt>
      <trkpt lat="47.62136" lon="-2.80607">
        <ele>6.1</ele>
        <time>2025-01-28T10:39:11Z</time>
      </trkpt>
      <trkpt lat="47.62137" lon="-2.80608">
        <ele>6.1</ele>
        <time>2025-01-28T10:39:12Z</time>
      </trkpt>
      <trkpt lat="47.62137" lon="-2.8061">
        <ele>6</ele>
        <time>2025-01-28T10:39:13Z</time>
      </trkpt>
      <trkpt lat="47.62138" lon="-2.80611">
        <ele>6</ele>
        <time>2025-01-28T10:39:14Z</time>
      </trkpt>
      <trkpt lat="47.62138" lon="-2.80613">
        <ele>5.9</ele>
        <time>2025-01-28T10:39:15Z</time>
      </trkpt>
      <trkpt lat="47.62139" lon="-2.80614">
        <ele>5.8</ele>
        <time>2025-01-28T10:39:16Z</time>
      </trkpt>
      <trkpt lat="47.62139" lon="-2.80616">
        <ele>5.7</ele>
        <time>2025-01-28T10:39:17Z</time>
      </trkpt>
      <trkpt lat="47.62139" lon="-2.80618">
        <ele>5.6</ele>
        <time>2025-01-28T10:39:18Z</time>
      </trkpt>
      <trkpt lat="47.6214" lon="-2.80619">
        <ele>5.6</ele>
        <time>2025-01-28T10:39:19Z</time>
      </trkpt>
      <trkpt lat="47.6214" lon="-2.80621">
        <ele>5.5</ele>
        <time>2025-01-28T10:39:20Z</time>
      </trkpt>
      <trkpt lat="47.62141" lon="-2.80623">
        <ele>5.5</ele>
        <time>2025-01-28T10:39:21Z</time>
      </trkpt>
      <trkpt lat="47.62141" lon="-2.80624">
        <ele>5.4</ele>
        <time>2025-01-28T10:39:22Z</time>
      </trkpt>
      <trkpt lat="47.62142" lon="-2.80625">
        <ele>5.4</ele>
        <time>2025-01-28T10:39:23Z</time>
      </trkpt>
      <trkpt lat="47.62142" lon="-2.80627">
        <ele>5.4</ele>
        <time>2025-01-28T10:39:24Z</time>
      </trkpt>
      <trkpt lat="47.62142" lon="-2.80628">
        <ele>5.3</ele>
        <time>2025-01-28T10:39:25Z</time>
      </trkpt>
      <trkpt lat="47.62142" lon="-2.8063">
        <ele>5.3</ele>
        <time>2025-01-28T10:39:26Z</time>
      </trkpt>
      <trkpt lat="47.62142" lon="-2.80631">
        <ele>5.2</ele>
        <time>2025-01-28T10:39:27Z</time>
      </trkpt>
      <trkpt lat="47.62143" lon="-2.80633">
        <ele>5.2</ele>
        <time>2025-01-28T10:39:28Z</time>
      </trkpt>
      <trkpt lat="47.62143" lon="-2.80634">
        <ele>5.1</ele>
        <time>2025-01-28T10:39:29Z</time>
      </trkpt>
      <trkpt lat="47.62143" lon="-2.80636">
        <ele>5.1</ele>
        <time>2025-01-28T10:39:30Z</time>
      </trkpt>
      <trkpt lat="47.62143" lon="-2.80637">
        <ele>5.1</ele>
        <time>2025-01-28T10:39:31Z</time>
      </trkpt>
      <trkpt lat="47.62144" lon="-2.80639">
        <ele>5.1</ele>
        <time>2025-01-28T10:39:32Z</time>
      </trkpt>
      <trkpt lat="47.62144" lon="-2.8064">
        <ele>5.1</ele>
        <time>2025-01-28T10:39:33Z</time>
      </trkpt>
      <trkpt lat="47.62145" lon="-2.80642">
        <ele>5.1</ele>
        <time>2025-01-28T10:39:34Z</time>
      </trkpt>
      <trkpt lat="47.62145" lon="-2.80643">
        <ele>5.1</ele>
        <time>2025-01-28T10:39:35Z</time>
      </trkpt>
      <trkpt lat="47.62145" lon="-2.80645">
        <ele>5.1</ele>
        <time>2025-01-28T10:39:36Z</time>
      </trkpt>
      <trkpt lat="47.62146" lon="-2.80647">
        <ele>5.2</ele>
        <time>2025-01-28T10:39:37Z</time>
      </trkpt>
      <trkpt lat="47.62146" lon="-2.80648">
        <ele>5.1</ele>
        <time>2025-01-28T10:39:38Z</time>
      </trkpt>
      <trkpt lat="47.62146" lon="-2.8065">
        <ele>5.2</ele>
        <time>2025-01-28T10:39:39Z</time>
      </trkpt>
      <trkpt lat="47.62147" lon="-2.80651">
        <ele>5.1</ele>
        <time>2025-01-28T10:39:40Z</time>
      </trkpt>
      <trkpt lat="47.62147" lon="-2.80653">
        <ele>5.1</ele>
        <time>2025-01-28T10:39:41Z</time>
      </trkpt>
      <trkpt lat="47.62147" lon="-2.80654">
        <ele>5</ele>
        <time>2025-01-28T10:39:42Z</time>
      </trkpt>
      <trkpt lat="47.62147" lon="-2.80656">
        <ele>5</ele>
        <time>2025-01-28T10:39:43Z</time>
      </trkpt>
      <trkpt lat="47.62147" lon="-2.80657">
        <ele>5</ele>
        <time>2025-01-28T10:39:44Z</time>
      </trkpt>
      <trkpt lat="47.62147" lon="-2.80659">
        <ele>4.9</ele>
        <time>2025-01-28T10:39:45Z</time>
      </trkpt>
      <trkpt lat="47.62147" lon="-2.80661">
        <ele>4.9</ele>
        <time>2025-01-28T10:39:46Z</time>
      </trkpt>
      <trkpt lat="47.62147" lon="-2.80662">
        <ele>4.8</ele>
        <time>2025-01-28T10:39:47Z</time>
      </trkpt>
      <trkpt lat="47.62147" lon="-2.80664">
        <ele>4.8</ele>
        <time>2025-01-28T10:39:48Z</time>
      </trkpt>
      <trkpt lat="47.62147" lon="-2.80666">
        <ele>4.7</ele>
        <time>2025-01-28T10:39:49Z</time>
      </trkpt>
      <trkpt lat="47.62147" lon="-2.80668">
        <ele>4.6</ele>
        <time>2025-01-28T10:39:50Z</time>
      </trkpt>
      <trkpt lat="47.62147" lon="-2.80669">
        <ele>4.6</ele>
        <time>2025-01-28T10:39:51Z</time>
      </trkpt>
      <trkpt lat="47.62146" lon="-2.80671">
        <ele>4.6</ele>
        <time>2025-01-28T10:39:52Z</time>
      </trkpt>
      <trkpt lat="47.62146" lon="-2.80673">
        <ele>4.4</ele>
        <time>2025-01-28T10:39:53Z</time>
      </trkpt>
      <trkpt lat="47.62145" lon="-2.80674">
        <ele>4.3</ele>
        <time>2025-01-28T10:39:54Z</time>
      </trkpt>
      <trkpt lat="47.62145" lon="-2.80676">
        <ele>4.1</ele>
        <time>2025-01-28T10:39:55Z</time>
      </trkpt>
      <trkpt lat="47.62144" lon="-2.80678">
        <ele>4</ele>
        <time>2025-01-28T10:39:56Z</time>
      </trkpt>
      <trkpt lat="47.62144" lon="-2.80679">
        <ele>4</ele>
        <time>2025-01-28T10:39:57Z</time>
      </trkpt>
      <trkpt lat="47.62144" lon="-2.80681">
        <ele>4</ele>
        <time>2025-01-28T10:39:58Z</time>
      </trkpt>
      <trkpt lat="47.62144" lon="-2.80683">
        <ele>4.1</ele>
        <time>2025-01-28T10:39:59Z</time>
      </trkpt>
      <trkpt lat="47.62144" lon="-2.80685">
        <ele>4.2</ele>
        <time>2025-01-28T10:40:00Z</time>
      </trkpt>
      <trkpt lat="47.62144" lon="-2.80686">
        <ele>4.3</ele>
        <time>2025-01-28T10:40:01Z</time>
      </trkpt>
      <trkpt lat="47.62144" lon="-2.80688">
        <ele>4.3</ele>
        <time>2025-01-28T10:40:02Z</time>
      </trkpt>
      <trkpt lat="47.62145" lon="-2.80689">
        <ele>4.6</ele>
        <time>2025-01-28T10:40:03Z</time>
      </trkpt>
      <trkpt lat="47.62145" lon="-2.80691">
        <ele>4.7</ele>
        <time>2025-01-28T10:40:04Z</time>
      </trkpt>
      <trkpt lat="47.62145" lon="-2.80693">
        <ele>4.7</ele>
        <time>2025-01-28T10:40:05Z</time>
      </trkpt>
      <trkpt lat="47.62145" lon="-2.80694">
        <ele>4.8</ele>
        <time>2025-01-28T10:40:06Z</time>
      </trkpt>
      <trkpt lat="47.62145" lon="-2.80696">
        <ele>4.9</ele>
        <time>2025-01-28T10:40:07Z</time>
      </trkpt>
      <trkpt lat="47.62146" lon="-2.80698">
        <ele>5.2</ele>
        <time>2025-01-28T10:40:08Z</time>
      </trkpt>
      <trkpt lat="47.62146" lon="-2.807">
        <ele>5.3</ele>
        <time>2025-01-28T10:40:09Z</time>
      </trkpt>
      <trkpt lat="47.62146" lon="-2.80702">
        <ele>5.5</ele>
        <time>2025-01-28T10:40:10Z</time>
      </trkpt>
      <trkpt lat="47.62146" lon="-2.80703">
        <ele>5.6</ele>
        <time>2025-01-28T10:40:11Z</time>
      </trkpt>
      <trkpt lat="47.62146" lon="-2.80705">
        <ele>5.7</ele>
        <time>2025-01-28T10:40:12Z</time>
      </trkpt>
      <trkpt lat="47.62146" lon="-2.80707">
        <ele>5.8</ele>
        <time>2025-01-28T10:40:13Z</time>
      </trkpt>
      <trkpt lat="47.62146" lon="-2.80709">
        <ele>6</ele>
        <time>2025-01-28T10:40:14Z</time>
      </trkpt>
      <trkpt lat="47.62146" lon="-2.80711">
        <ele>6.2</ele>
        <time>2025-01-28T10:40:15Z</time>
      </trkpt>
      <trkpt lat="47.62146" lon="-2.80713">
        <ele>6.3</ele>
        <time>2025-01-28T10:40:16Z</time>
      </trkpt>
      <trkpt lat="47.62146" lon="-2.80715">
        <ele>6.4</ele>
        <time>2025-01-28T10:40:17Z</time>
      </trkpt>
      <trkpt lat="47.62146" lon="-2.80716">
        <ele>6.5</ele>
        <time>2025-01-28T10:40:18Z</time>
      </trkpt>
      <trkpt lat="47.62145" lon="-2.80718">
        <ele>6.6</ele>
        <time>2025-01-28T10:40:19Z</time>
      </trkpt>
      <trkpt lat="47.62145" lon="-2.80719">
        <ele>6.6</ele>
        <time>2025-01-28T10:40:20Z</time>
      </trkpt>
      <trkpt lat="47.62145" lon="-2.80721">
        <ele>6.8</ele>
        <time>2025-01-28T10:40:21Z</time>
      </trkpt>
      <trkpt lat="47.62145" lon="-2.80723">
        <ele>6.9</ele>
        <time>2025-01-28T10:40:22Z</time>
      </trkpt>
      <trkpt lat="47.62145" lon="-2.80725">
        <ele>6.8</ele>
        <time>2025-01-28T10:40:23Z</time>
      </trkpt>
      <trkpt lat="47.62145" lon="-2.80727">
        <ele>6.7</ele>
        <time>2025-01-28T10:40:24Z</time>
      </trkpt>
      <trkpt lat="47.62145" lon="-2.80728">
        <ele>6.6</ele>
        <time>2025-01-28T10:40:25Z</time>
      </trkpt>
      <trkpt lat="47.62145" lon="-2.8073">
        <ele>6.5</ele>
        <time>2025-01-28T10:40:26Z</time>
      </trkpt>
      <trkpt lat="47.62145" lon="-2.80732">
        <ele>6.4</ele>
        <time>2025-01-28T10:40:27Z</time>
      </trkpt>
      <trkpt lat="47.62144" lon="-2.80734">
        <ele>6.3</ele>
        <time>2025-01-28T10:40:28Z</time>
      </trkpt>
      <trkpt lat="47.62144" lon="-2.80736">
        <ele>6.2</ele>
        <time>2025-01-28T10:40:29Z</time>
      </trkpt>
      <trkpt lat="47.62144" lon="-2.80737">
        <ele>6.1</ele>
        <time>2025-01-28T10:40:30Z</time>
      </trkpt>
      <trkpt lat="47.62144" lon="-2.80739">
        <ele>6.1</ele>
        <time>2025-01-28T10:40:31Z</time>
      </trkpt>
      <trkpt lat="47.62145" lon="-2.80741">
        <ele>6</ele>
        <time>2025-01-28T10:40:32Z</time>
      </trkpt>
      <trkpt lat="47.62144" lon="-2.80743">
        <ele>5.9</ele>
        <time>2025-01-28T10:40:33Z</time>
      </trkpt>
      <trkpt lat="47.62144" lon="-2.80743">
        <ele>5.9</ele>
        <time>2025-01-28T10:40:34Z</time>
      </trkpt>
      <trkpt lat="47.62143" lon="-2.80745">
        <ele>5.7</ele>
        <time>2025-01-28T10:40:35Z</time>
      </trkpt>
      <trkpt lat="47.62142" lon="-2.80746">
        <ele>5.5</ele>
        <time>2025-01-28T10:40:36Z</time>
      </trkpt>
      <trkpt lat="47.62141" lon="-2.80747">
        <ele>5.4</ele>
        <time>2025-01-28T10:40:37Z</time>
      </trkpt>
      <trkpt lat="47.62141" lon="-2.80748">
        <ele>5.3</ele>
        <time>2025-01-28T10:40:38Z</time>
      </trkpt>
      <trkpt lat="47.6214" lon="-2.80749">
        <ele>5.1</ele>
        <time>2025-01-28T10:40:39Z</time>
      </trkpt>
      <trkpt lat="47.62139" lon="-2.80751">
        <ele>4.9</ele>
        <time>2025-01-28T10:40:40Z</time>
      </trkpt>
      <trkpt lat="47.62139" lon="-2.80752">
        <ele>4.7</ele>
        <time>2025-01-28T10:40:41Z</time>
      </trkpt>
      <trkpt lat="47.62139" lon="-2.80754">
        <ele>4.5</ele>
        <time>2025-01-28T10:40:42Z</time>
      </trkpt>
      <trkpt lat="47.62139" lon="-2.80754">
        <ele>4.4</ele>
        <time>2025-01-28T10:40:43Z</time>
      </trkpt>
      <trkpt lat="47.62139" lon="-2.80755">
        <ele>4.3</ele>
        <time>2025-01-28T10:40:44Z</time>
      </trkpt>
      <trkpt lat="47.6214" lon="-2.80756">
        <ele>4.2</ele>
        <time>2025-01-28T10:40:45Z</time>
      </trkpt>
      <trkpt lat="47.62141" lon="-2.80758">
        <ele>4.1</ele>
        <time>2025-01-28T10:40:46Z</time>
      </trkpt>
      <trkpt lat="47.62142" lon="-2.80758">
        <ele>4.2</ele>
        <time>2025-01-28T10:40:47Z</time>
      </trkpt>
      <trkpt lat="47.62143" lon="-2.80759">
        <ele>4.2</ele>
        <time>2025-01-28T10:40:48Z</time>
      </trkpt>
      <trkpt lat="47.62143" lon="-2.8076">
        <ele>4.2</ele>
        <time>2025-01-28T10:40:49Z</time>
      </trkpt>
      <trkpt lat="47.62144" lon="-2.80761">
        <ele>4.1</ele>
        <time>2025-01-28T10:40:50Z</time>
      </trkpt>
      <trkpt lat="47.62144" lon="-2.80763">
        <ele>4</ele>
        <time>2025-01-28T10:40:51Z</time>
      </trkpt>
      <trkpt lat="47.62144" lon="-2.80764">
        <ele>3.9</ele>
        <time>2025-01-28T10:40:52Z</time>
      </trkpt>
      <trkpt lat="47.62145" lon="-2.80765">
        <ele>3.7</ele>
        <time>2025-01-28T10:40:53Z</time>
      </trkpt>
      <trkpt lat="47.62145" lon="-2.80767">
        <ele>3.5</ele>
        <time>2025-01-28T10:40:54Z</time>
      </trkpt>
      <trkpt lat="47.62144" lon="-2.80768">
        <ele>3.3</ele>
        <time>2025-01-28T10:40:55Z</time>
      </trkpt>
      <trkpt lat="47.62144" lon="-2.80769">
        <ele>3.3</ele>
        <time>2025-01-28T10:40:56Z</time>
      </trkpt>
      <trkpt lat="47.62145" lon="-2.8077">
        <ele>3.2</ele>
        <time>2025-01-28T10:40:57Z</time>
      </trkpt>
      <trkpt lat="47.62145" lon="-2.80771">
        <ele>3.1</ele>
        <time>2025-01-28T10:40:58Z</time>
      </trkpt>
      <trkpt lat="47.62146" lon="-2.80772">
        <ele>3.3</ele>
        <time>2025-01-28T10:40:59Z</time>
      </trkpt>
      <trkpt lat="47.62147" lon="-2.80773">
        <ele>3.4</ele>
        <time>2025-01-28T10:41:00Z</time>
      </trkpt>
      <trkpt lat="47.62148" lon="-2.80774">
        <ele>3.5</ele>
        <time>2025-01-28T10:41:01Z</time>
      </trkpt>
      <trkpt lat="47.62149" lon="-2.80775">
        <ele>3.5</ele>
        <time>2025-01-28T10:41:02Z</time>
      </trkpt>
      <trkpt lat="47.6215" lon="-2.80776">
        <ele>3.6</ele>
        <time>2025-01-28T10:41:03Z</time>
      </trkpt>
      <trkpt lat="47.62151" lon="-2.80777">
        <ele>3.6</ele>
        <time>2025-01-28T10:41:04Z</time>
      </trkpt>
      <trkpt lat="47.62151" lon="-2.80778">
        <ele>3.7</ele>
        <time>2025-01-28T10:41:05Z</time>
      </trkpt>
      <trkpt lat="47.62152" lon="-2.8078">
        <ele>4</ele>
        <time>2025-01-28T10:41:06Z</time>
      </trkpt>
      <trkpt lat="47.62153" lon="-2.80781">
        <ele>4.3</ele>
        <time>2025-01-28T10:41:07Z</time>
      </trkpt>
      <trkpt lat="47.62153" lon="-2.80783">
        <ele>4.6</ele>
        <time>2025-01-28T10:41:08Z</time>
      </trkpt>
      <trkpt lat="47.62154" lon="-2.80784">
        <ele>4.8</ele>
        <time>2025-01-28T10:41:09Z</time>
      </trkpt>
      <trkpt lat="47.62155" lon="-2.80785">
        <ele>5.1</ele>
        <time>2025-01-28T10:41:10Z</time>
      </trkpt>
      <trkpt lat="47.62155" lon="-2.80786">
        <ele>5.3</ele>
        <time>2025-01-28T10:41:11Z</time>
      </trkpt>
      <trkpt lat="47.62156" lon="-2.80788">
        <ele>5.5</ele>
        <time>2025-01-28T10:41:12Z</time>
      </trkpt>
      <trkpt lat="47.62157" lon="-2.80789">
        <ele>5.7</ele>
        <time>2025-01-28T10:41:13Z</time>
      </trkpt>
      <trkpt lat="47.62157" lon="-2.80791">
        <ele>5.9</ele>
        <time>2025-01-28T10:41:14Z</time>
      </trkpt>
      <trkpt lat="47.62158" lon="-2.80793">
        <ele>6.1</ele>
        <time>2025-01-28T10:41:15Z</time>
      </trkpt>
      <trkpt lat="47.62158" lon="-2.80795">
        <ele>6.3</ele>
        <time>2025-01-28T10:41:16Z</time>
      </trkpt>
      <trkpt lat="47.62158" lon="-2.80797">
        <ele>6.4</ele>
        <time>2025-01-28T10:41:17Z</time>
      </trkpt>
      <trkpt lat="47.62159" lon="-2.80798">
        <ele>6.6</ele>
        <time>2025-01-28T10:41:18Z</time>
      </trkpt>
      <trkpt lat="47.6216" lon="-2.808">
        <ele>6.7</ele>
        <time>2025-01-28T10:41:19Z</time>
      </trkpt>
      <trkpt lat="47.6216" lon="-2.80801">
        <ele>6.8</ele>
        <time>2025-01-28T10:41:20Z</time>
      </trkpt>
      <trkpt lat="47.62161" lon="-2.80803">
        <ele>6.9</ele>
        <time>2025-01-28T10:41:21Z</time>
      </trkpt>
      <trkpt lat="47.62161" lon="-2.80804">
        <ele>6.9</ele>
        <time>2025-01-28T10:41:22Z</time>
      </trkpt>
      <trkpt lat="47.62162" lon="-2.80805">
        <ele>7</ele>
        <time>2025-01-28T10:41:23Z</time>
      </trkpt>
      <trkpt lat="47.62162" lon="-2.80807">
        <ele>6.9</ele>
        <time>2025-01-28T10:41:24Z</time>
      </trkpt>
      <trkpt lat="47.62163" lon="-2.80808">
        <ele>6.8</ele>
        <time>2025-01-28T10:41:25Z</time>
      </trkpt>
      <trkpt lat="47.62163" lon="-2.8081">
        <ele>6.7</ele>
        <time>2025-01-28T10:41:26Z</time>
      </trkpt>
      <trkpt lat="47.62163" lon="-2.80812">
        <ele>6.5</ele>
        <time>2025-01-28T10:41:27Z</time>
      </trkpt>
      <trkpt lat="47.62163" lon="-2.80814">
        <ele>6.4</ele>
        <time>2025-01-28T10:41:28Z</time>
      </trkpt>
      <trkpt lat="47.62163" lon="-2.80816">
        <ele>6.3</ele>
        <time>2025-01-28T10:41:29Z</time>
      </trkpt>
      <trkpt lat="47.62164" lon="-2.80818">
        <ele>6.1</ele>
        <time>2025-01-28T10:41:30Z</time>
      </trkpt>
      <trkpt lat="47.62164" lon="-2.8082">
        <ele>6</ele>
        <time>2025-01-28T10:41:31Z</time>
      </trkpt>
      <trkpt lat="47.62164" lon="-2.80822">
        <ele>5.9</ele>
        <time>2025-01-28T10:41:32Z</time>
      </trkpt>
      <trkpt lat="47.62164" lon="-2.80823">
        <ele>5.7</ele>
        <time>2025-01-28T10:41:33Z</time>
      </trkpt>
      <trkpt lat="47.62164" lon="-2.80825">
        <ele>5.6</ele>
        <time>2025-01-28T10:41:34Z</time>
      </trkpt>
      <trkpt lat="47.62164" lon="-2.80826">
        <ele>5.5</ele>
        <time>2025-01-28T10:41:35Z</time>
      </trkpt>
      <trkpt lat="47.62164" lon="-2.80828">
        <ele>5.4</ele>
        <time>2025-01-28T10:41:36Z</time>
      </trkpt>
      <trkpt lat="47.62165" lon="-2.8083">
        <ele>5.2</ele>
        <time>2025-01-28T10:41:37Z</time>
      </trkpt>
      <trkpt lat="47.62165" lon="-2.80832">
        <ele>5.1</ele>
        <time>2025-01-28T10:41:38Z</time>
      </trkpt>
      <trkpt lat="47.62166" lon="-2.80834">
        <ele>4.9</ele>
        <time>2025-01-28T10:41:39Z</time>
      </trkpt>
      <trkpt lat="47.62167" lon="-2.80835">
        <ele>4.8</ele>
        <time>2025-01-28T10:41:40Z</time>
      </trkpt>
      <trkpt lat="47.62168" lon="-2.80837">
        <ele>4.9</ele>
        <time>2025-01-28T10:41:41Z</time>
      </trkpt>
      <trkpt lat="47.62168" lon="-2.80839">
        <ele>4.7</ele>
        <time>2025-01-28T10:41:42Z</time>
      </trkpt>
      <trkpt lat="47.62169" lon="-2.80841">
        <ele>4.7</ele>
        <time>2025-01-28T10:41:43Z</time>
      </trkpt>
      <trkpt lat="47.62169" lon="-2.80842">
        <ele>4.7</ele>
        <time>2025-01-28T10:41:44Z</time>
      </trkpt>
      <trkpt lat="47.6217" lon="-2.80844">
        <ele>4.7</ele>
        <time>2025-01-28T10:41:45Z</time>
      </trkpt>
      <trkpt lat="47.6217" lon="-2.80845">
        <ele>4.6</ele>
        <time>2025-01-28T10:41:46Z</time>
      </trkpt>
      <trkpt lat="47.6217" lon="-2.80847">
        <ele>4.4</ele>
        <time>2025-01-28T10:41:47Z</time>
      </trkpt>
      <trkpt lat="47.6217" lon="-2.80848">
        <ele>4.3</ele>
        <time>2025-01-28T10:41:48Z</time>
      </trkpt>
      <trkpt lat="47.6217" lon="-2.8085">
        <ele>4.3</ele>
        <time>2025-01-28T10:41:49Z</time>
      </trkpt>
      <trkpt lat="47.62171" lon="-2.80851">
        <ele>4.3</ele>
        <time>2025-01-28T10:41:50Z</time>
      </trkpt>
      <trkpt lat="47.62171" lon="-2.80853">
        <ele>4.1</ele>
        <time>2025-01-28T10:41:51Z</time>
      </trkpt>
      <trkpt lat="47.62171" lon="-2.80855">
        <ele>3.9</ele>
        <time>2025-01-28T10:41:52Z</time>
      </trkpt>
      <trkpt lat="47.6217" lon="-2.80856">
        <ele>3.5</ele>
        <time>2025-01-28T10:41:53Z</time>
      </trkpt>
      <trkpt lat="47.62169" lon="-2.80858">
        <ele>3.2</ele>
        <time>2025-01-28T10:41:54Z</time>
      </trkpt>
      <trkpt lat="47.62169" lon="-2.80859">
        <ele>2.8</ele>
        <time>2025-01-28T10:41:55Z</time>
      </trkpt>
      <trkpt lat="47.62169" lon="-2.8086">
        <ele>2.7</ele>
        <time>2025-01-28T10:41:56Z</time>
      </trkpt>
      <trkpt lat="47.62169" lon="-2.80862">
        <ele>2.8</ele>
        <time>2025-01-28T10:41:57Z</time>
      </trkpt>
      <trkpt lat="47.62169" lon="-2.80863">
        <ele>3.3</ele>
        <time>2025-01-28T10:41:58Z</time>
      </trkpt>
      <trkpt lat="47.6217" lon="-2.80864">
        <ele>3.7</ele>
        <time>2025-01-28T10:41:59Z</time>
      </trkpt>
      <trkpt lat="47.62171" lon="-2.80865">
        <ele>4.1</ele>
        <time>2025-01-28T10:42:00Z</time>
      </trkpt>
      <trkpt lat="47.62171" lon="-2.80866">
        <ele>4.5</ele>
        <time>2025-01-28T10:42:01Z</time>
      </trkpt>
      <trkpt lat="47.62172" lon="-2.80868">
        <ele>4.9</ele>
        <time>2025-01-28T10:42:02Z</time>
      </trkpt>
      <trkpt lat="47.62172" lon="-2.80869">
        <ele>5.3</ele>
        <time>2025-01-28T10:42:03Z</time>
      </trkpt>
      <trkpt lat="47.62173" lon="-2.8087">
        <ele>5.7</ele>
        <time>2025-01-28T10:42:04Z</time>
      </trkpt>
      <trkpt lat="47.62174" lon="-2.80872">
        <ele>6.1</ele>
        <time>2025-01-28T10:42:05Z</time>
      </trkpt>
      <trkpt lat="47.62175" lon="-2.80873">
        <ele>6.5</ele>
        <time>2025-01-28T10:42:06Z</time>
      </trkpt>
      <trkpt lat="47.62175" lon="-2.80874">
        <ele>6.8</ele>
        <time>2025-01-28T10:42:07Z</time>
      </trkpt>
      <trkpt lat="47.62176" lon="-2.80876">
        <ele>7.1</ele>
        <time>2025-01-28T10:42:08Z</time>
      </trkpt>
      <trkpt lat="47.62176" lon="-2.80877">
        <ele>7.2</ele>
        <time>2025-01-28T10:42:09Z</time>
      </trkpt>
      <trkpt lat="47.62176" lon="-2.80877">
        <ele>7.2</ele>
        <time>2025-01-28T10:42:10Z</time>
      </trkpt>
      <trkpt lat="47.62176" lon="-2.80877">
        <ele>7.2</ele>
        <time>2025-01-28T10:42:11Z</time>
      </trkpt>
      <trkpt lat="47.62176" lon="-2.80877">
        <ele>7.2</ele>
        <time>2025-01-28T10:42:12Z</time>
      </trkpt>
      <trkpt lat="47.62176" lon="-2.80877">
        <ele>7.2</ele>
        <time>2025-01-28T10:42:13Z</time>
      </trkpt>
      <trkpt lat="47.62176" lon="-2.80877">
        <ele>7.2</ele>
        <time>2025-01-28T10:42:14Z</time>
      </trkpt>
      <trkpt lat="47.62174" lon="-2.8088">
        <ele>7.6</ele>
        <time>2025-01-28T10:42:15Z</time>
      </trkpt>
      <trkpt lat="47.62174" lon="-2.80881">
        <ele>7.7</ele>
        <time>2025-01-28T10:42:16Z</time>
      </trkpt>
      <trkpt lat="47.62174" lon="-2.80881">
        <ele>7.6</ele>
        <time>2025-01-28T10:42:17Z</time>
      </trkpt>
      <trkpt lat="47.62174" lon="-2.80881">
        <ele>7.6</ele>
        <time>2025-01-28T10:42:18Z</time>
      </trkpt>
      <trkpt lat="47.62174" lon="-2.80881">
        <ele>7.6</ele>
        <time>2025-01-28T10:42:19Z</time>
      </trkpt>
      <trkpt lat="47.62174" lon="-2.80881">
        <ele>7.6</ele>
        <time>2025-01-28T10:42:20Z</time>
      </trkpt>
      <trkpt lat="47.62173" lon="-2.80881">
        <ele>7.6</ele>
        <time>2025-01-28T10:42:21Z</time>
      </trkpt>
      <trkpt lat="47.62174" lon="-2.8088">
        <ele>7.4</ele>
        <time>2025-01-28T10:42:22Z</time>
      </trkpt>
      <trkpt lat="47.62174" lon="-2.80879">
        <ele>7.3</ele>
        <time>2025-01-28T10:42:23Z</time>
      </trkpt>
      <trkpt lat="47.62174" lon="-2.80879">
        <ele>7.3</ele>
        <time>2025-01-28T10:42:24Z</time>
      </trkpt>
      <trkpt lat="47.62174" lon="-2.80879">
        <ele>7.3</ele>
        <time>2025-01-28T10:42:25Z</time>
      </trkpt>
      <trkpt lat="47.62174" lon="-2.80879">
        <ele>7.3</ele>
        <time>2025-01-28T10:42:26Z</time>
      </trkpt>
      <trkpt lat="47.62174" lon="-2.80878">
        <ele>7.1</ele>
        <time>2025-01-28T10:42:27Z</time>
      </trkpt>
      <trkpt lat="47.62174" lon="-2.80877">
        <ele>6.9</ele>
        <time>2025-01-28T10:42:28Z</time>
      </trkpt>
      <trkpt lat="47.62174" lon="-2.80877">
        <ele>6.9</ele>
        <time>2025-01-28T10:42:29Z</time>
      </trkpt>
      <trkpt lat="47.62174" lon="-2.80876">
        <ele>6.8</ele>
        <time>2025-01-28T10:42:30Z</time>
      </trkpt>
      <trkpt lat="47.62174" lon="-2.80876">
        <ele>6.8</ele>
        <time>2025-01-28T10:42:31Z</time>
      </trkpt>
      <trkpt lat="47.62174" lon="-2.80876">
        <ele>6.8</ele>
        <time>2025-01-28T10:42:32Z</time>
      </trkpt>
      <trkpt lat="47.62174" lon="-2.80876">
        <ele>6.8</ele>
        <time>2025-01-28T10:42:33Z</time>
      </trkpt>
      <trkpt lat="47.62174" lon="-2.80876">
        <ele>6.8</ele>
        <time>2025-01-28T10:42:34Z</time>
      </trkpt>
      <trkpt lat="47.62174" lon="-2.80876">
        <ele>6.8</ele>
        <time>2025-01-28T10:42:35Z</time>
      </trkpt>
      <trkpt lat="47.62174" lon="-2.80876">
        <ele>6.8</ele>
        <time>2025-01-28T10:42:36Z</time>
      </trkpt>
      <trkpt lat="47.62174" lon="-2.80876">
        <ele>6.7</ele>
        <time>2025-01-28T10:42:37Z</time>
      </trkpt>
      <trkpt lat="47.62173" lon="-2.80876">
        <ele>6.7</ele>
        <time>2025-01-28T10:42:38Z</time>
      </trkpt>
      <trkpt lat="47.62173" lon="-2.80876">
        <ele>6.7</ele>
        <time>2025-01-28T10:42:39Z</time>
      </trkpt>
      <trkpt lat="47.62173" lon="-2.80876">
        <ele>6.7</ele>
        <time>2025-01-28T10:42:40Z</time>
      </trkpt>
      <trkpt lat="47.62173" lon="-2.80876">
        <ele>6.7</ele>
        <time>2025-01-28T10:42:41Z</time>
      </trkpt>
      <trkpt lat="47.62173" lon="-2.80876">
        <ele>6.7</ele>
        <time>2025-01-28T10:42:42Z</time>
      </trkpt>
      <trkpt lat="47.62173" lon="-2.80876">
        <ele>6.8</ele>
        <time>2025-01-28T10:42:43Z</time>
      </trkpt>
      <trkpt lat="47.62173" lon="-2.80876">
        <ele>6.8</ele>
        <time>2025-01-28T10:42:44Z</time>
      </trkpt>
      <trkpt lat="47.62173" lon="-2.80876">
        <ele>6.8</ele>
        <time>2025-01-28T10:42:45Z</time>
      </trkpt>
      <trkpt lat="47.62173" lon="-2.80876">
        <ele>6.8</ele>
        <time>2025-01-28T10:42:46Z</time>
      </trkpt>
      <trkpt lat="47.62173" lon="-2.80876">
        <ele>6.8</ele>
        <time>2025-01-28T10:42:47Z</time>
      </trkpt>
      <trkpt lat="47.62173" lon="-2.80876">
        <ele>6.8</ele>
        <time>2025-01-28T10:42:48Z</time>
      </trkpt>
      <trkpt lat="47.62173" lon="-2.80876">
        <ele>6.8</ele>
        <time>2025-01-28T10:42:49Z</time>
      </trkpt>
      <trkpt lat="47.62173" lon="-2.80876">
        <ele>6.8</ele>
        <time>2025-01-28T10:42:50Z</time>
      </trkpt>
      <trkpt lat="47.62173" lon="-2.80876">
        <ele>6.8</ele>
        <time>2025-01-28T10:42:51Z</time>
      </trkpt>
      <trkpt lat="47.62173" lon="-2.80876">
        <ele>6.8</ele>
        <time>2025-01-28T10:42:52Z</time>
      </trkpt>
      <trkpt lat="47.62173" lon="-2.80876">
        <ele>6.8</ele>
        <time>2025-01-28T10:42:53Z</time>
      </trkpt>
      <trkpt lat="47.62173" lon="-2.80876">
        <ele>6.8</ele>
        <time>2025-01-28T10:42:54Z</time>
      </trkpt>
      <trkpt lat="47.62173" lon="-2.80876">
        <ele>6.8</ele>
        <time>2025-01-28T10:42:55Z</time>
      </trkpt>
      <trkpt lat="47.62173" lon="-2.80876">
        <ele>6.8</ele>
        <time>2025-01-28T10:42:56Z</time>
      </trkpt>
      <trkpt lat="47.62173" lon="-2.80876">
        <ele>6.8</ele>
        <time>2025-01-28T10:42:57Z</time>
      </trkpt>
      <trkpt lat="47.62173" lon="-2.80876">
        <ele>6.8</ele>
        <time>2025-01-28T10:42:58Z</time>
      </trkpt>
      <trkpt lat="47.62173" lon="-2.80876">
        <ele>6.8</ele>
        <time>2025-01-28T10:42:59Z</time>
      </trkpt>
      <trkpt lat="47.62173" lon="-2.80877">
        <ele>6.8</ele>
        <time>2025-01-28T10:43:00Z</time>
      </trkpt>
      <trkpt lat="47.62173" lon="-2.80877">
        <ele>6.8</ele>
        <time>2025-01-28T10:43:01Z</time>
      </trkpt>
      <trkpt lat="47.62173" lon="-2.80877">
        <ele>6.8</ele>
        <time>2025-01-28T10:43:02Z</time>
      </trkpt>
      <trkpt lat="47.62173" lon="-2.80877">
        <ele>6.8</ele>
        <time>2025-01-28T10:43:03Z</time>
      </trkpt>
      <trkpt lat="47.62173" lon="-2.80876">
        <ele>6.8</ele>
        <time>2025-01-28T10:43:04Z</time>
      </trkpt>
      <trkpt lat="47.62173" lon="-2.80877">
        <ele>6.8</ele>
        <time>2025-01-28T10:43:05Z</time>
      </trkpt>
      <trkpt lat="47.62173" lon="-2.80877">
        <ele>7</ele>
        <time>2025-01-28T10:43:06Z</time>
      </trkpt>
      <trkpt lat="47.62175" lon="-2.80878">
        <ele>7.3</ele>
        <time>2025-01-28T10:43:07Z</time>
      </trkpt>
      <trkpt lat="47.62176" lon="-2.80879">
        <ele>7.5</ele>
        <time>2025-01-28T10:43:08Z</time>
      </trkpt>
      <trkpt lat="47.62175" lon="-2.80884">
        <ele>8.2</ele>
        <time>2025-01-28T10:43:09Z</time>
      </trkpt>
      <trkpt lat="47.62179" lon="-2.80881">
        <ele>8.1</ele>
        <time>2025-01-28T10:43:10Z</time>
      </trkpt>
      <trkpt lat="47.62178" lon="-2.80883">
        <ele>8.3</ele>
        <time>2025-01-28T10:43:11Z</time>
      </trkpt>
      <trkpt lat="47.62179" lon="-2.80883">
        <ele>8.4</ele>
        <time>2025-01-28T10:43:12Z</time>
      </trkpt>
      <trkpt lat="47.6218" lon="-2.80883">
        <ele>8.5</ele>
        <time>2025-01-28T10:43:13Z</time>
      </trkpt>
      <trkpt lat="47.62181" lon="-2.80883">
        <ele>8.5</ele>
        <time>2025-01-28T10:43:14Z</time>
      </trkpt>
      <trkpt lat="47.62182" lon="-2.80886">
        <ele>8.7</ele>
        <time>2025-01-28T10:43:15Z</time>
      </trkpt>
      <trkpt lat="47.62182" lon="-2.80888">
        <ele>8.9</ele>
        <time>2025-01-28T10:43:16Z</time>
      </trkpt>
      <trkpt lat="47.62183" lon="-2.80893">
        <ele>8.1</ele>
        <time>2025-01-28T10:43:17Z</time>
      </trkpt>
      <trkpt lat="47.62184" lon="-2.80895">
        <ele>7.5</ele>
        <time>2025-01-28T10:43:18Z</time>
      </trkpt>
      <trkpt lat="47.62185" lon="-2.80895">
        <ele>7.4</ele>
        <time>2025-01-28T10:43:19Z</time>
      </trkpt>
      <trkpt lat="47.62186" lon="-2.80896">
        <ele>7.3</ele>
        <time>2025-01-28T10:43:20Z</time>
      </trkpt>
      <trkpt lat="47.62188" lon="-2.80897">
        <ele>6.9</ele>
        <time>2025-01-28T10:43:21Z</time>
      </trkpt>
      <trkpt lat="47.6219" lon="-2.80901">
        <ele>6</ele>
        <time>2025-01-28T10:43:22Z</time>
      </trkpt>
      <trkpt lat="47.62191" lon="-2.80905">
        <ele>5</ele>
        <time>2025-01-28T10:43:23Z</time>
      </trkpt>
      <trkpt lat="47.62191" lon="-2.80905">
        <ele>5</ele>
        <time>2025-01-28T10:43:24Z</time>
      </trkpt>
      <trkpt lat="47.62192" lon="-2.80903">
        <ele>5.3</ele>
        <time>2025-01-28T10:43:25Z</time>
      </trkpt>
      <trkpt lat="47.62194" lon="-2.80901">
        <ele>6</ele>
        <time>2025-01-28T10:43:26Z</time>
      </trkpt>
      <trkpt lat="47.62195" lon="-2.80899">
        <ele>6.6</ele>
        <time>2025-01-28T10:43:27Z</time>
      </trkpt>
      <trkpt lat="47.62195" lon="-2.80897">
        <ele>7</ele>
        <time>2025-01-28T10:43:28Z</time>
      </trkpt>
      <trkpt lat="47.62195" lon="-2.80896">
        <ele>7.2</ele>
        <time>2025-01-28T10:43:29Z</time>
      </trkpt>
      <trkpt lat="47.62196" lon="-2.80896">
        <ele>7.3</ele>
        <time>2025-01-28T10:43:30Z</time>
      </trkpt>
      <trkpt lat="47.62197" lon="-2.80897">
        <ele>7.3</ele>
        <time>2025-01-28T10:43:31Z</time>
      </trkpt>
      <trkpt lat="47.62198" lon="-2.80898">
        <ele>7.2</ele>
        <time>2025-01-28T10:43:32Z</time>
      </trkpt>
      <trkpt lat="47.62198" lon="-2.80898">
        <ele>7.3</ele>
        <time>2025-01-28T10:43:33Z</time>
      </trkpt>
      <trkpt lat="47.62199" lon="-2.80898">
        <ele>7.4</ele>
        <time>2025-01-28T10:43:34Z</time>
      </trkpt>
      <trkpt lat="47.622" lon="-2.80898">
        <ele>7.5</ele>
        <time>2025-01-28T10:43:35Z</time>
      </trkpt>
      <trkpt lat="47.622" lon="-2.80903">
        <ele>6.5</ele>
        <time>2025-01-28T10:43:36Z</time>
      </trkpt>
      <trkpt lat="47.622" lon="-2.80907">
        <ele>5.7</ele>
        <time>2025-01-28T10:43:37Z</time>
      </trkpt>
      <trkpt lat="47.622" lon="-2.8091">
        <ele>4.8</ele>
        <time>2025-01-28T10:43:38Z</time>
      </trkpt>
      <trkpt lat="47.622" lon="-2.80913">
        <ele>4.4</ele>
        <time>2025-01-28T10:43:39Z</time>
      </trkpt>
      <trkpt lat="47.622" lon="-2.80916">
        <ele>3.8</ele>
        <time>2025-01-28T10:43:40Z</time>
      </trkpt>
      <trkpt lat="47.62201" lon="-2.80919">
        <ele>3.8</ele>
        <time>2025-01-28T10:43:41Z</time>
      </trkpt>
      <trkpt lat="47.62202" lon="-2.80921">
        <ele>4.1</ele>
        <time>2025-01-28T10:43:42Z</time>
      </trkpt>
      <trkpt lat="47.62203" lon="-2.80923">
        <ele>4.2</ele>
        <time>2025-01-28T10:43:43Z</time>
      </trkpt>
      <trkpt lat="47.62203" lon="-2.80926">
        <ele>4.1</ele>
        <time>2025-01-28T10:43:44Z</time>
      </trkpt>
      <trkpt lat="47.62204" lon="-2.80929">
        <ele>4.1</ele>
        <time>2025-01-28T10:43:45Z</time>
      </trkpt>
      <trkpt lat="47.62204" lon="-2.80931">
        <ele>4</ele>
        <time>2025-01-28T10:43:46Z</time>
      </trkpt>
      <trkpt lat="47.62204" lon="-2.80933">
        <ele>4</ele>
        <time>2025-01-28T10:43:47Z</time>
      </trkpt>
      <trkpt lat="47.62205" lon="-2.80934">
        <ele>4</ele>
        <time>2025-01-28T10:43:48Z</time>
      </trkpt>
      <trkpt lat="47.62205" lon="-2.80936">
        <ele>4.2</ele>
        <time>2025-01-28T10:43:49Z</time>
      </trkpt>
      <trkpt lat="47.62206" lon="-2.80938">
        <ele>4.3</ele>
        <time>2025-01-28T10:43:50Z</time>
      </trkpt>
      <trkpt lat="47.62206" lon="-2.8094">
        <ele>4.1</ele>
        <time>2025-01-28T10:43:51Z</time>
      </trkpt>
      <trkpt lat="47.62206" lon="-2.80943">
        <ele>3.9</ele>
        <time>2025-01-28T10:43:52Z</time>
      </trkpt>
      <trkpt lat="47.62205" lon="-2.80945">
        <ele>3.7</ele>
        <time>2025-01-28T10:43:53Z</time>
      </trkpt>
      <trkpt lat="47.62204" lon="-2.80947">
        <ele>3.5</ele>
        <time>2025-01-28T10:43:54Z</time>
      </trkpt>
      <trkpt lat="47.62204" lon="-2.80949">
        <ele>3.3</ele>
        <time>2025-01-28T10:43:55Z</time>
      </trkpt>
      <trkpt lat="47.62203" lon="-2.80951">
        <ele>3.1</ele>
        <time>2025-01-28T10:43:56Z</time>
      </trkpt>
      <trkpt lat="47.62203" lon="-2.80952">
        <ele>3</ele>
        <time>2025-01-28T10:43:57Z</time>
      </trkpt>
      <trkpt lat="47.62202" lon="-2.80954">
        <ele>2.9</ele>
        <time>2025-01-28T10:43:58Z</time>
      </trkpt>
      <trkpt lat="47.62202" lon="-2.80956">
        <ele>2.8</ele>
        <time>2025-01-28T10:43:59Z</time>
      </trkpt>
      <trkpt lat="47.62201" lon="-2.80957">
        <ele>2.6</ele>
        <time>2025-01-28T10:44:00Z</time>
      </trkpt>
      <trkpt lat="47.62201" lon="-2.80959">
        <ele>2.4</ele>
        <time>2025-01-28T10:44:01Z</time>
      </trkpt>
      <trkpt lat="47.622" lon="-2.8096">
        <ele>2.2</ele>
        <time>2025-01-28T10:44:02Z</time>
      </trkpt>
      <trkpt lat="47.622" lon="-2.80962">
        <ele>2.2</ele>
        <time>2025-01-28T10:44:03Z</time>
      </trkpt>
      <trkpt lat="47.62199" lon="-2.80964">
        <ele>2.1</ele>
        <time>2025-01-28T10:44:04Z</time>
      </trkpt>
      <trkpt lat="47.62198" lon="-2.80965">
        <ele>1.8</ele>
        <time>2025-01-28T10:44:05Z</time>
      </trkpt>
      <trkpt lat="47.62198" lon="-2.80967">
        <ele>1.7</ele>
        <time>2025-01-28T10:44:06Z</time>
      </trkpt>
      <trkpt lat="47.62197" lon="-2.80969">
        <ele>1.6</ele>
        <time>2025-01-28T10:44:07Z</time>
      </trkpt>
      <trkpt lat="47.62198" lon="-2.8097">
        <ele>1.7</ele>
        <time>2025-01-28T10:44:08Z</time>
      </trkpt>
      <trkpt lat="47.62198" lon="-2.80972">
        <ele>1.7</ele>
        <time>2025-01-28T10:44:09Z</time>
      </trkpt>
      <trkpt lat="47.62199" lon="-2.80973">
        <ele>2</ele>
        <time>2025-01-28T10:44:10Z</time>
      </trkpt>
      <trkpt lat="47.622" lon="-2.80975">
        <ele>2.2</ele>
        <time>2025-01-28T10:44:11Z</time>
      </trkpt>
      <trkpt lat="47.62201" lon="-2.80976">
        <ele>2.4</ele>
        <time>2025-01-28T10:44:12Z</time>
      </trkpt>
      <trkpt lat="47.62203" lon="-2.80976">
        <ele>2.8</ele>
        <time>2025-01-28T10:44:13Z</time>
      </trkpt>
      <trkpt lat="47.62204" lon="-2.80977">
        <ele>3</ele>
        <time>2025-01-28T10:44:14Z</time>
      </trkpt>
      <trkpt lat="47.62205" lon="-2.80977">
        <ele>3.3</ele>
        <time>2025-01-28T10:44:15Z</time>
      </trkpt>
      <trkpt lat="47.62206" lon="-2.80977">
        <ele>3.5</ele>
        <time>2025-01-28T10:44:16Z</time>
      </trkpt>
      <trkpt lat="47.62207" lon="-2.80978">
        <ele>3.6</ele>
        <time>2025-01-28T10:44:17Z</time>
      </trkpt>
      <trkpt lat="47.62208" lon="-2.8098">
        <ele>3.6</ele>
        <time>2025-01-28T10:44:18Z</time>
      </trkpt>
      <trkpt lat="47.62209" lon="-2.80981">
        <ele>3.8</ele>
        <time>2025-01-28T10:44:19Z</time>
      </trkpt>
      <trkpt lat="47.6221" lon="-2.80982">
        <ele>3.8</ele>
        <time>2025-01-28T10:44:20Z</time>
      </trkpt>
      <trkpt lat="47.62211" lon="-2.80982">
        <ele>4</ele>
        <time>2025-01-28T10:44:21Z</time>
      </trkpt>
      <trkpt lat="47.62211" lon="-2.80982">
        <ele>4.1</ele>
        <time>2025-01-28T10:44:22Z</time>
      </trkpt>
      <trkpt lat="47.62212" lon="-2.80984">
        <ele>4.1</ele>
        <time>2025-01-28T10:44:23Z</time>
      </trkpt>
      <trkpt lat="47.62213" lon="-2.80985">
        <ele>4</ele>
        <time>2025-01-28T10:44:24Z</time>
      </trkpt>
      <trkpt lat="47.62213" lon="-2.80986">
        <ele>4</ele>
        <time>2025-01-28T10:44:25Z</time>
      </trkpt>
      <trkpt lat="47.62213" lon="-2.80988">
        <ele>3.9</ele>
        <time>2025-01-28T10:44:26Z</time>
      </trkpt>
      <trkpt lat="47.62214" lon="-2.8099">
        <ele>3.8</ele>
        <time>2025-01-28T10:44:27Z</time>
      </trkpt>
      <trkpt lat="47.62215" lon="-2.8099">
        <ele>3.8</ele>
        <time>2025-01-28T10:44:28Z</time>
      </trkpt>
      <trkpt lat="47.62216" lon="-2.80991">
        <ele>3.8</ele>
        <time>2025-01-28T10:44:29Z</time>
      </trkpt>
      <trkpt lat="47.62216" lon="-2.80992">
        <ele>3.7</ele>
        <time>2025-01-28T10:44:30Z</time>
      </trkpt>
      <trkpt lat="47.62217" lon="-2.80994">
        <ele>3.6</ele>
        <time>2025-01-28T10:44:31Z</time>
      </trkpt>
      <trkpt lat="47.62217" lon="-2.80995">
        <ele>3.5</ele>
        <time>2025-01-28T10:44:32Z</time>
      </trkpt>
      <trkpt lat="47.62218" lon="-2.80997">
        <ele>3.4</ele>
        <time>2025-01-28T10:44:33Z</time>
      </trkpt>
      <trkpt lat="47.62219" lon="-2.80998">
        <ele>3.3</ele>
        <time>2025-01-28T10:44:34Z</time>
      </trkpt>
      <trkpt lat="47.62219" lon="-2.80997">
        <ele>3.3</ele>
        <time>2025-01-28T10:44:35Z</time>
      </trkpt>
      <trkpt lat="47.62219" lon="-2.80998">
        <ele>3.2</ele>
        <time>2025-01-28T10:44:36Z</time>
      </trkpt>
      <trkpt lat="47.6222" lon="-2.80999">
        <ele>3.1</ele>
        <time>2025-01-28T10:44:37Z</time>
      </trkpt>
      <trkpt lat="47.62221" lon="-2.81">
        <ele>3</ele>
        <time>2025-01-28T10:44:38Z</time>
      </trkpt>
      <trkpt lat="47.62221" lon="-2.81001">
        <ele>2.9</ele>
        <time>2025-01-28T10:44:39Z</time>
      </trkpt>
      <trkpt lat="47.62222" lon="-2.81002">
        <ele>2.8</ele>
        <time>2025-01-28T10:44:40Z</time>
      </trkpt>
      <trkpt lat="47.62222" lon="-2.81004">
        <ele>2.7</ele>
        <time>2025-01-28T10:44:41Z</time>
      </trkpt>
      <trkpt lat="47.62223" lon="-2.81006">
        <ele>2.6</ele>
        <time>2025-01-28T10:44:42Z</time>
      </trkpt>
      <trkpt lat="47.62223" lon="-2.81007">
        <ele>2.6</ele>
        <time>2025-01-28T10:44:43Z</time>
      </trkpt>
      <trkpt lat="47.62223" lon="-2.81009">
        <ele>2.5</ele>
        <time>2025-01-28T10:44:44Z</time>
      </trkpt>
      <trkpt lat="47.62224" lon="-2.81011">
        <ele>2.5</ele>
        <time>2025-01-28T10:44:45Z</time>
      </trkpt>
      <trkpt lat="47.62224" lon="-2.81012">
        <ele>2.5</ele>
        <time>2025-01-28T10:44:46Z</time>
      </trkpt>
      <trkpt lat="47.62225" lon="-2.81014">
        <ele>2.4</ele>
        <time>2025-01-28T10:44:47Z</time>
      </trkpt>
      <trkpt lat="47.62225" lon="-2.81015">
        <ele>2.3</ele>
        <time>2025-01-28T10:44:48Z</time>
      </trkpt>
      <trkpt lat="47.62225" lon="-2.81016">
        <ele>2.2</ele>
        <time>2025-01-28T10:44:49Z</time>
      </trkpt>
      <trkpt lat="47.62225" lon="-2.81019">
        <ele>2.1</ele>
        <time>2025-01-28T10:44:50Z</time>
      </trkpt>
      <trkpt lat="47.62225" lon="-2.81021">
        <ele>2</ele>
        <time>2025-01-28T10:44:51Z</time>
      </trkpt>
      <trkpt lat="47.62225" lon="-2.81023">
        <ele>1.9</ele>
        <time>2025-01-28T10:44:52Z</time>
      </trkpt>
      <trkpt lat="47.62226" lon="-2.81024">
        <ele>1.9</ele>
        <time>2025-01-28T10:44:53Z</time>
      </trkpt>
      <trkpt lat="47.62226" lon="-2.81025">
        <ele>1.8</ele>
        <time>2025-01-28T10:44:54Z</time>
      </trkpt>
      <trkpt lat="47.62226" lon="-2.81025">
        <ele>1.9</ele>
        <time>2025-01-28T10:44:55Z</time>
      </trkpt>
      <trkpt lat="47.62226" lon="-2.81026">
        <ele>1.9</ele>
        <time>2025-01-28T10:44:56Z</time>
      </trkpt>
      <trkpt lat="47.62227" lon="-2.81027">
        <ele>1.9</ele>
        <time>2025-01-28T10:44:57Z</time>
      </trkpt>
      <trkpt lat="47.62227" lon="-2.81029">
        <ele>2.1</ele>
        <time>2025-01-28T10:44:58Z</time>
      </trkpt>
      <trkpt lat="47.62228" lon="-2.81031">
        <ele>2.4</ele>
        <time>2025-01-28T10:44:59Z</time>
      </trkpt>
      <trkpt lat="47.62228" lon="-2.81033">
        <ele>2.8</ele>
        <time>2025-01-28T10:45:00Z</time>
      </trkpt>
      <trkpt lat="47.62229" lon="-2.81034">
        <ele>3.1</ele>
        <time>2025-01-28T10:45:01Z</time>
      </trkpt>
      <trkpt lat="47.6223" lon="-2.81035">
        <ele>3.3</ele>
        <time>2025-01-28T10:45:02Z</time>
      </trkpt>
      <trkpt lat="47.6223" lon="-2.81037">
        <ele>3.6</ele>
        <time>2025-01-28T10:45:03Z</time>
      </trkpt>
      <trkpt lat="47.62231" lon="-2.81038">
        <ele>3.9</ele>
        <time>2025-01-28T10:45:04Z</time>
      </trkpt>
      <trkpt lat="47.62231" lon="-2.8104">
        <ele>4.1</ele>
        <time>2025-01-28T10:45:05Z</time>
      </trkpt>
      <trkpt lat="47.62232" lon="-2.81042">
        <ele>4.4</ele>
        <time>2025-01-28T10:45:06Z</time>
      </trkpt>
      <trkpt lat="47.62232" lon="-2.81044">
        <ele>4.6</ele>
        <time>2025-01-28T10:45:07Z</time>
      </trkpt>
      <trkpt lat="47.62233" lon="-2.81045">
        <ele>4.8</ele>
        <time>2025-01-28T10:45:08Z</time>
      </trkpt>
      <trkpt lat="47.62233" lon="-2.81047">
        <ele>5.1</ele>
        <time>2025-01-28T10:45:09Z</time>
      </trkpt>
      <trkpt lat="47.62234" lon="-2.81049">
        <ele>5.3</ele>
        <time>2025-01-28T10:45:10Z</time>
      </trkpt>
      <trkpt lat="47.62234" lon="-2.8105">
        <ele>5.4</ele>
        <time>2025-01-28T10:45:11Z</time>
      </trkpt>
      <trkpt lat="47.62235" lon="-2.81051">
        <ele>5.6</ele>
        <time>2025-01-28T10:45:12Z</time>
      </trkpt>
      <trkpt lat="47.62236" lon="-2.81051">
        <ele>5.6</ele>
        <time>2025-01-28T10:45:13Z</time>
      </trkpt>
      <trkpt lat="47.62237" lon="-2.81051">
        <ele>5.6</ele>
        <time>2025-01-28T10:45:14Z</time>
      </trkpt>
      <trkpt lat="47.62238" lon="-2.81052">
        <ele>5.7</ele>
        <time>2025-01-28T10:45:15Z</time>
      </trkpt>
      <trkpt lat="47.62238" lon="-2.81054">
        <ele>5.9</ele>
        <time>2025-01-28T10:45:16Z</time>
      </trkpt>
      <trkpt lat="47.62238" lon="-2.81056">
        <ele>6</ele>
        <time>2025-01-28T10:45:17Z</time>
      </trkpt>
      <trkpt lat="47.62238" lon="-2.81057">
        <ele>5.9</ele>
        <time>2025-01-28T10:45:18Z</time>
      </trkpt>
      <trkpt lat="47.62238" lon="-2.81059">
        <ele>5.8</ele>
        <time>2025-01-28T10:45:19Z</time>
      </trkpt>
      <trkpt lat="47.62238" lon="-2.81061">
        <ele>5.6</ele>
        <time>2025-01-28T10:45:20Z</time>
      </trkpt>
      <trkpt lat="47.62238" lon="-2.81062">
        <ele>5.6</ele>
        <time>2025-01-28T10:45:21Z</time>
      </trkpt>
      <trkpt lat="47.62238" lon="-2.81063">
        <ele>5.4</ele>
        <time>2025-01-28T10:45:22Z</time>
      </trkpt>
      <trkpt lat="47.62239" lon="-2.81065">
        <ele>5.4</ele>
        <time>2025-01-28T10:45:23Z</time>
      </trkpt>
      <trkpt lat="47.6224" lon="-2.81066">
        <ele>5.3</ele>
        <time>2025-01-28T10:45:24Z</time>
      </trkpt>
      <trkpt lat="47.6224" lon="-2.81067">
        <ele>5.2</ele>
        <time>2025-01-28T10:45:25Z</time>
      </trkpt>
      <trkpt lat="47.6224" lon="-2.81069">
        <ele>5.1</ele>
        <time>2025-01-28T10:45:26Z</time>
      </trkpt>
      <trkpt lat="47.62241" lon="-2.8107">
        <ele>4.9</ele>
        <time>2025-01-28T10:45:27Z</time>
      </trkpt>
      <trkpt lat="47.62241" lon="-2.81072">
        <ele>4.8</ele>
        <time>2025-01-28T10:45:28Z</time>
      </trkpt>
      <trkpt lat="47.62241" lon="-2.81074">
        <ele>4.7</ele>
        <time>2025-01-28T10:45:29Z</time>
      </trkpt>
      <trkpt lat="47.62241" lon="-2.81076">
        <ele>4.6</ele>
        <time>2025-01-28T10:45:30Z</time>
      </trkpt>
      <trkpt lat="47.62241" lon="-2.81077">
        <ele>4.4</ele>
        <time>2025-01-28T10:45:31Z</time>
      </trkpt>
      <trkpt lat="47.62241" lon="-2.81079">
        <ele>4.3</ele>
        <time>2025-01-28T10:45:32Z</time>
      </trkpt>
      <trkpt lat="47.62241" lon="-2.81081">
        <ele>4.2</ele>
        <time>2025-01-28T10:45:33Z</time>
      </trkpt>
      <trkpt lat="47.62242" lon="-2.81082">
        <ele>4.1</ele>
        <time>2025-01-28T10:45:34Z</time>
      </trkpt>
      <trkpt lat="47.62242" lon="-2.81084">
        <ele>4</ele>
        <time>2025-01-28T10:45:35Z</time>
      </trkpt>
      <trkpt lat="47.62243" lon="-2.81086">
        <ele>3.9</ele>
        <time>2025-01-28T10:45:36Z</time>
      </trkpt>
      <trkpt lat="47.62243" lon="-2.81087">
        <ele>3.9</ele>
        <time>2025-01-28T10:45:37Z</time>
      </trkpt>
      <trkpt lat="47.62244" lon="-2.81089">
        <ele>3.8</ele>
        <time>2025-01-28T10:45:38Z</time>
      </trkpt>
      <trkpt lat="47.62244" lon="-2.81091">
        <ele>3.7</ele>
        <time>2025-01-28T10:45:39Z</time>
      </trkpt>
      <trkpt lat="47.62244" lon="-2.81092">
        <ele>3.7</ele>
        <time>2025-01-28T10:45:40Z</time>
      </trkpt>
      <trkpt lat="47.62244" lon="-2.81094">
        <ele>3.6</ele>
        <time>2025-01-28T10:45:41Z</time>
      </trkpt>
      <trkpt lat="47.62244" lon="-2.81096">
        <ele>3.5</ele>
        <time>2025-01-28T10:45:42Z</time>
      </trkpt>
      <trkpt lat="47.62244" lon="-2.81098">
        <ele>3.5</ele>
        <time>2025-01-28T10:45:43Z</time>
      </trkpt>
      <trkpt lat="47.62244" lon="-2.811">
        <ele>3.4</ele>
        <time>2025-01-28T10:45:44Z</time>
      </trkpt>
      <trkpt lat="47.62245" lon="-2.81102">
        <ele>3.3</ele>
        <time>2025-01-28T10:45:45Z</time>
      </trkpt>
      <trkpt lat="47.62245" lon="-2.81104">
        <ele>3.3</ele>
        <time>2025-01-28T10:45:46Z</time>
      </trkpt>
      <trkpt lat="47.62246" lon="-2.81105">
        <ele>3.2</ele>
        <time>2025-01-28T10:45:47Z</time>
      </trkpt>
      <trkpt lat="47.62246" lon="-2.81107">
        <ele>3.1</ele>
        <time>2025-01-28T10:45:48Z</time>
      </trkpt>
      <trkpt lat="47.62246" lon="-2.81109">
        <ele>3.1</ele>
        <time>2025-01-28T10:45:49Z</time>
      </trkpt>
      <trkpt lat="47.62247" lon="-2.81111">
        <ele>3</ele>
        <time>2025-01-28T10:45:50Z</time>
      </trkpt>
      <trkpt lat="47.62247" lon="-2.81112">
        <ele>3</ele>
        <time>2025-01-28T10:45:51Z</time>
      </trkpt>
      <trkpt lat="47.62247" lon="-2.81113">
        <ele>2.9</ele>
        <time>2025-01-28T10:45:52Z</time>
      </trkpt>
      <trkpt lat="47.62248" lon="-2.81115">
        <ele>2.9</ele>
        <time>2025-01-28T10:45:53Z</time>
      </trkpt>
      <trkpt lat="47.62248" lon="-2.81116">
        <ele>2.8</ele>
        <time>2025-01-28T10:45:54Z</time>
      </trkpt>
      <trkpt lat="47.62248" lon="-2.81117">
        <ele>2.8</ele>
        <time>2025-01-28T10:45:55Z</time>
      </trkpt>
      <trkpt lat="47.62249" lon="-2.81119">
        <ele>2.7</ele>
        <time>2025-01-28T10:45:56Z</time>
      </trkpt>
      <trkpt lat="47.62249" lon="-2.81121">
        <ele>2.6</ele>
        <time>2025-01-28T10:45:57Z</time>
      </trkpt>
      <trkpt lat="47.62249" lon="-2.81123">
        <ele>2.6</ele>
        <time>2025-01-28T10:45:58Z</time>
      </trkpt>
      <trkpt lat="47.62249" lon="-2.81125">
        <ele>2.5</ele>
        <time>2025-01-28T10:45:59Z</time>
      </trkpt>
      <trkpt lat="47.62249" lon="-2.81127">
        <ele>2.4</ele>
        <time>2025-01-28T10:46:00Z</time>
      </trkpt>
      <trkpt lat="47.6225" lon="-2.81129">
        <ele>2.4</ele>
        <time>2025-01-28T10:46:01Z</time>
      </trkpt>
      <trkpt lat="47.6225" lon="-2.81131">
        <ele>2.3</ele>
        <time>2025-01-28T10:46:02Z</time>
      </trkpt>
      <trkpt lat="47.6225" lon="-2.81133">
        <ele>2.2</ele>
        <time>2025-01-28T10:46:03Z</time>
      </trkpt>
      <trkpt lat="47.62251" lon="-2.81135">
        <ele>2.2</ele>
        <time>2025-01-28T10:46:04Z</time>
      </trkpt>
      <trkpt lat="47.62251" lon="-2.81137">
        <ele>2.1</ele>
        <time>2025-01-28T10:46:05Z</time>
      </trkpt>
      <trkpt lat="47.62251" lon="-2.81139">
        <ele>2</ele>
        <time>2025-01-28T10:46:06Z</time>
      </trkpt>
      <trkpt lat="47.62252" lon="-2.8114">
        <ele>2.1</ele>
        <time>2025-01-28T10:46:07Z</time>
      </trkpt>
      <trkpt lat="47.62252" lon="-2.81142">
        <ele>2.1</ele>
        <time>2025-01-28T10:46:08Z</time>
      </trkpt>
      <trkpt lat="47.62252" lon="-2.81144">
        <ele>2.1</ele>
        <time>2025-01-28T10:46:09Z</time>
      </trkpt>
      <trkpt lat="47.62253" lon="-2.81146">
        <ele>2.1</ele>
        <time>2025-01-28T10:46:10Z</time>
      </trkpt>
      <trkpt lat="47.62253" lon="-2.81148">
        <ele>2.1</ele>
        <time>2025-01-28T10:46:11Z</time>
      </trkpt>
      <trkpt lat="47.62254" lon="-2.81149">
        <ele>2.1</ele>
        <time>2025-01-28T10:46:12Z</time>
      </trkpt>
      <trkpt lat="47.62254" lon="-2.81151">
        <ele>2.1</ele>
        <time>2025-01-28T10:46:13Z</time>
      </trkpt>
      <trkpt lat="47.62254" lon="-2.81153">
        <ele>2.1</ele>
        <time>2025-01-28T10:46:14Z</time>
      </trkpt>
      <trkpt lat="47.62254" lon="-2.81155">
        <ele>2.2</ele>
        <time>2025-01-28T10:46:15Z</time>
      </trkpt>
      <trkpt lat="47.62254" lon="-2.81156">
        <ele>2.2</ele>
        <time>2025-01-28T10:46:16Z</time>
      </trkpt>
      <trkpt lat="47.62255" lon="-2.81158">
        <ele>2.2</ele>
        <time>2025-01-28T10:46:17Z</time>
      </trkpt>
      <trkpt lat="47.62255" lon="-2.81159">
        <ele>2.2</ele>
        <time>2025-01-28T10:46:18Z</time>
      </trkpt>
      <trkpt lat="47.62256" lon="-2.81161">
        <ele>2.2</ele>
        <time>2025-01-28T10:46:19Z</time>
      </trkpt>
      <trkpt lat="47.62256" lon="-2.81163">
        <ele>2.2</ele>
        <time>2025-01-28T10:46:20Z</time>
      </trkpt>
      <trkpt lat="47.62256" lon="-2.81165">
        <ele>2.2</ele>
        <time>2025-01-28T10:46:21Z</time>
      </trkpt>
      <trkpt lat="47.62256" lon="-2.81167">
        <ele>2.2</ele>
        <time>2025-01-28T10:46:22Z</time>
      </trkpt>
      <trkpt lat="47.62257" lon="-2.81169">
        <ele>2.2</ele>
        <time>2025-01-28T10:46:23Z</time>
      </trkpt>
      <trkpt lat="47.62257" lon="-2.81171">
        <ele>2.3</ele>
        <time>2025-01-28T10:46:24Z</time>
      </trkpt>
      <trkpt lat="47.62257" lon="-2.81173">
        <ele>2.3</ele>
        <time>2025-01-28T10:46:25Z</time>
      </trkpt>
      <trkpt lat="47.62256" lon="-2.81175">
        <ele>2.3</ele>
        <time>2025-01-28T10:46:26Z</time>
      </trkpt>
      <trkpt lat="47.62257" lon="-2.81177">
        <ele>2.3</ele>
        <time>2025-01-28T10:46:27Z</time>
      </trkpt>
      <trkpt lat="47.62257" lon="-2.81179">
        <ele>2.3</ele>
        <time>2025-01-28T10:46:28Z</time>
      </trkpt>
      <trkpt lat="47.62257" lon="-2.8118">
        <ele>2.4</ele>
        <time>2025-01-28T10:46:29Z</time>
      </trkpt>
      <trkpt lat="47.62257" lon="-2.81182">
        <ele>2.4</ele>
        <time>2025-01-28T10:46:30Z</time>
      </trkpt>
      <trkpt lat="47.62257" lon="-2.81184">
        <ele>2.4</ele>
        <time>2025-01-28T10:46:31Z</time>
      </trkpt>
      <trkpt lat="47.62257" lon="-2.81185">
        <ele>2.4</ele>
        <time>2025-01-28T10:46:32Z</time>
      </trkpt>
      <trkpt lat="47.62257" lon="-2.81187">
        <ele>2.4</ele>
        <time>2025-01-28T10:46:33Z</time>
      </trkpt>
      <trkpt lat="47.62256" lon="-2.81188">
        <ele>2.4</ele>
        <time>2025-01-28T10:46:34Z</time>
      </trkpt>
      <trkpt lat="47.62255" lon="-2.81188">
        <ele>2.3</ele>
        <time>2025-01-28T10:46:35Z</time>
      </trkpt>
      <trkpt lat="47.62255" lon="-2.8119">
        <ele>2.3</ele>
        <time>2025-01-28T10:46:36Z</time>
      </trkpt>
      <trkpt lat="47.62255" lon="-2.81192">
        <ele>2.3</ele>
        <time>2025-01-28T10:46:37Z</time>
      </trkpt>
      <trkpt lat="47.62255" lon="-2.81193">
        <ele>2.3</ele>
        <time>2025-01-28T10:46:38Z</time>
      </trkpt>
      <trkpt lat="47.62254" lon="-2.81194">
        <ele>2.3</ele>
        <time>2025-01-28T10:46:39Z</time>
      </trkpt>
      <trkpt lat="47.62254" lon="-2.81196">
        <ele>2.2</ele>
        <time>2025-01-28T10:46:40Z</time>
      </trkpt>
      <trkpt lat="47.62253" lon="-2.81197">
        <ele>2.2</ele>
        <time>2025-01-28T10:46:41Z</time>
      </trkpt>
      <trkpt lat="47.62253" lon="-2.81199">
        <ele>2.1</ele>
        <time>2025-01-28T10:46:42Z</time>
      </trkpt>
      <trkpt lat="47.62253" lon="-2.812">
        <ele>2</ele>
        <time>2025-01-28T10:46:43Z</time>
      </trkpt>
      <trkpt lat="47.62252" lon="-2.81201">
        <ele>1.9</ele>
        <time>2025-01-28T10:46:44Z</time>
      </trkpt>
      <trkpt lat="47.62252" lon="-2.81202">
        <ele>1.8</ele>
        <time>2025-01-28T10:46:45Z</time>
      </trkpt>
      <trkpt lat="47.62251" lon="-2.81204">
        <ele>1.8</ele>
        <time>2025-01-28T10:46:46Z</time>
      </trkpt>
      <trkpt lat="47.62251" lon="-2.81206">
        <ele>1.7</ele>
        <time>2025-01-28T10:46:47Z</time>
      </trkpt>
      <trkpt lat="47.62251" lon="-2.81208">
        <ele>1.6</ele>
        <time>2025-01-28T10:46:48Z</time>
      </trkpt>
      <trkpt lat="47.62252" lon="-2.8121">
        <ele>1.6</ele>
        <time>2025-01-28T10:46:49Z</time>
      </trkpt>
      <trkpt lat="47.62252" lon="-2.81211">
        <ele>1.5</ele>
        <time>2025-01-28T10:46:50Z</time>
      </trkpt>
      <trkpt lat="47.62252" lon="-2.81213">
        <ele>1.5</ele>
        <time>2025-01-28T10:46:51Z</time>
      </trkpt>
      <trkpt lat="47.62251" lon="-2.81215">
        <ele>1.4</ele>
        <time>2025-01-28T10:46:52Z</time>
      </trkpt>
      <trkpt lat="47.62251" lon="-2.81216">
        <ele>1.3</ele>
        <time>2025-01-28T10:46:53Z</time>
      </trkpt>
      <trkpt lat="47.62251" lon="-2.81218">
        <ele>1.2</ele>
        <time>2025-01-28T10:46:54Z</time>
      </trkpt>
      <trkpt lat="47.6225" lon="-2.8122">
        <ele>1.1</ele>
        <time>2025-01-28T10:46:55Z</time>
      </trkpt>
      <trkpt lat="47.6225" lon="-2.81221">
        <ele>1.1</ele>
        <time>2025-01-28T10:46:56Z</time>
      </trkpt>
      <trkpt lat="47.6225" lon="-2.81223">
        <ele>1.1</ele>
        <time>2025-01-28T10:46:57Z</time>
      </trkpt>
      <trkpt lat="47.6225" lon="-2.81225">
        <ele>1.2</ele>
        <time>2025-01-28T10:46:58Z</time>
      </trkpt>
      <trkpt lat="47.6225" lon="-2.81227">
        <ele>1.3</ele>
        <time>2025-01-28T10:46:59Z</time>
      </trkpt>
      <trkpt lat="47.6225" lon="-2.81228">
        <ele>1.5</ele>
        <time>2025-01-28T10:47:00Z</time>
      </trkpt>
      <trkpt lat="47.6225" lon="-2.8123">
        <ele>1.6</ele>
        <time>2025-01-28T10:47:01Z</time>
      </trkpt>
      <trkpt lat="47.6225" lon="-2.81232">
        <ele>1.7</ele>
        <time>2025-01-28T10:47:02Z</time>
      </trkpt>
      <trkpt lat="47.6225" lon="-2.81234">
        <ele>1.8</ele>
        <time>2025-01-28T10:47:03Z</time>
      </trkpt>
      <trkpt lat="47.6225" lon="-2.81236">
        <ele>2</ele>
        <time>2025-01-28T10:47:04Z</time>
      </trkpt>
      <trkpt lat="47.6225" lon="-2.81237">
        <ele>2.1</ele>
        <time>2025-01-28T10:47:05Z</time>
      </trkpt>
      <trkpt lat="47.62249" lon="-2.81239">
        <ele>2.2</ele>
        <time>2025-01-28T10:47:06Z</time>
      </trkpt>
      <trkpt lat="47.6225" lon="-2.81241">
        <ele>2.4</ele>
        <time>2025-01-28T10:47:07Z</time>
      </trkpt>
      <trkpt lat="47.6225" lon="-2.81243">
        <ele>2.5</ele>
        <time>2025-01-28T10:47:08Z</time>
      </trkpt>
      <trkpt lat="47.62249" lon="-2.81244">
        <ele>2.6</ele>
        <time>2025-01-28T10:47:09Z</time>
      </trkpt>
      <trkpt lat="47.62248" lon="-2.81246">
        <ele>2.7</ele>
        <time>2025-01-28T10:47:10Z</time>
      </trkpt>
      <trkpt lat="47.62248" lon="-2.81248">
        <ele>2.8</ele>
        <time>2025-01-28T10:47:11Z</time>
      </trkpt>
      <trkpt lat="47.62248" lon="-2.8125">
        <ele>3</ele>
        <time>2025-01-28T10:47:12Z</time>
      </trkpt>
      <trkpt lat="47.62248" lon="-2.81251">
        <ele>3.1</ele>
        <time>2025-01-28T10:47:13Z</time>
      </trkpt>
      <trkpt lat="47.62247" lon="-2.81253">
        <ele>3.1</ele>
        <time>2025-01-28T10:47:14Z</time>
      </trkpt>
      <trkpt lat="47.62247" lon="-2.81254">
        <ele>3.2</ele>
        <time>2025-01-28T10:47:15Z</time>
      </trkpt>
      <trkpt lat="47.62246" lon="-2.81255">
        <ele>3.3</ele>
        <time>2025-01-28T10:47:16Z</time>
      </trkpt>
      <trkpt lat="47.62245" lon="-2.81256">
        <ele>3.3</ele>
        <time>2025-01-28T10:47:17Z</time>
      </trkpt>
      <trkpt lat="47.62245" lon="-2.81257">
        <ele>3.3</ele>
        <time>2025-01-28T10:47:18Z</time>
      </trkpt>
      <trkpt lat="47.62244" lon="-2.81257">
        <ele>3.3</ele>
        <time>2025-01-28T10:47:19Z</time>
      </trkpt>
      <trkpt lat="47.62243" lon="-2.81258">
        <ele>3.3</ele>
        <time>2025-01-28T10:47:20Z</time>
      </trkpt>
      <trkpt lat="47.62242" lon="-2.81258">
        <ele>3.2</ele>
        <time>2025-01-28T10:47:21Z</time>
      </trkpt>
      <trkpt lat="47.62241" lon="-2.81258">
        <ele>3.2</ele>
        <time>2025-01-28T10:47:22Z</time>
      </trkpt>
      <trkpt lat="47.62241" lon="-2.81259">
        <ele>3.2</ele>
        <time>2025-01-28T10:47:23Z</time>
      </trkpt>
      <trkpt lat="47.6224" lon="-2.81259">
        <ele>3.2</ele>
        <time>2025-01-28T10:47:24Z</time>
      </trkpt>
      <trkpt lat="47.62239" lon="-2.8126">
        <ele>3.2</ele>
        <time>2025-01-28T10:47:25Z</time>
      </trkpt>
      <trkpt lat="47.62239" lon="-2.8126">
        <ele>3.1</ele>
        <time>2025-01-28T10:47:26Z</time>
      </trkpt>
      <trkpt lat="47.62238" lon="-2.8126">
        <ele>3.1</ele>
        <time>2025-01-28T10:47:27Z</time>
      </trkpt>
      <trkpt lat="47.62237" lon="-2.8126">
        <ele>3.1</ele>
        <time>2025-01-28T10:47:28Z</time>
      </trkpt>
      <trkpt lat="47.62237" lon="-2.81261">
        <ele>3</ele>
        <time>2025-01-28T10:47:29Z</time>
      </trkpt>
      <trkpt lat="47.62236" lon="-2.81262">
        <ele>3</ele>
        <time>2025-01-28T10:47:30Z</time>
      </trkpt>
      <trkpt lat="47.62236" lon="-2.81263">
        <ele>3</ele>
        <time>2025-01-28T10:47:31Z</time>
      </trkpt>
      <trkpt lat="47.62235" lon="-2.81264">
        <ele>2.9</ele>
        <time>2025-01-28T10:47:32Z</time>
      </trkpt>
      <trkpt lat="47.62234" lon="-2.81265">
        <ele>2.8</ele>
        <time>2025-01-28T10:47:33Z</time>
      </trkpt>
      <trkpt lat="47.62234" lon="-2.81267">
        <ele>2.8</ele>
        <time>2025-01-28T10:47:34Z</time>
      </trkpt>
      <trkpt lat="47.62233" lon="-2.81269">
        <ele>2.7</ele>
        <time>2025-01-28T10:47:35Z</time>
      </trkpt>
      <trkpt lat="47.62233" lon="-2.8127">
        <ele>2.7</ele>
        <time>2025-01-28T10:47:36Z</time>
      </trkpt>
      <trkpt lat="47.62233" lon="-2.81272">
        <ele>2.6</ele>
        <time>2025-01-28T10:47:37Z</time>
      </trkpt>
      <trkpt lat="47.62232" lon="-2.81273">
        <ele>2.6</ele>
        <time>2025-01-28T10:47:38Z</time>
      </trkpt>
      <trkpt lat="47.62232" lon="-2.81275">
        <ele>2.5</ele>
        <time>2025-01-28T10:47:39Z</time>
      </trkpt>
      <trkpt lat="47.62232" lon="-2.81276">
        <ele>2.4</ele>
        <time>2025-01-28T10:47:40Z</time>
      </trkpt>
      <trkpt lat="47.62231" lon="-2.81277">
        <ele>2.3</ele>
        <time>2025-01-28T10:47:41Z</time>
      </trkpt>
      <trkpt lat="47.6223" lon="-2.81277">
        <ele>2.1</ele>
        <time>2025-01-28T10:47:42Z</time>
      </trkpt>
      <trkpt lat="47.62229" lon="-2.81279">
        <ele>2.1</ele>
        <time>2025-01-28T10:47:43Z</time>
      </trkpt>
      <trkpt lat="47.62229" lon="-2.81279">
        <ele>2</ele>
        <time>2025-01-28T10:47:44Z</time>
      </trkpt>
      <trkpt lat="47.62228" lon="-2.8128">
        <ele>2</ele>
        <time>2025-01-28T10:47:45Z</time>
      </trkpt>
      <trkpt lat="47.62227" lon="-2.81281">
        <ele>2</ele>
        <time>2025-01-28T10:47:46Z</time>
      </trkpt>
      <trkpt lat="47.62227" lon="-2.81282">
        <ele>2</ele>
        <time>2025-01-28T10:47:47Z</time>
      </trkpt>
      <trkpt lat="47.62226" lon="-2.81283">
        <ele>2.1</ele>
        <time>2025-01-28T10:47:48Z</time>
      </trkpt>
      <trkpt lat="47.62225" lon="-2.81284">
        <ele>2</ele>
        <time>2025-01-28T10:47:49Z</time>
      </trkpt>
      <trkpt lat="47.62224" lon="-2.81285">
        <ele>2</ele>
        <time>2025-01-28T10:47:50Z</time>
      </trkpt>
      <trkpt lat="47.62224" lon="-2.81286">
        <ele>2.1</ele>
        <time>2025-01-28T10:47:51Z</time>
      </trkpt>
      <trkpt lat="47.62223" lon="-2.81287">
        <ele>2.1</ele>
        <time>2025-01-28T10:47:52Z</time>
      </trkpt>
      <trkpt lat="47.62222" lon="-2.81288">
        <ele>2.1</ele>
        <time>2025-01-28T10:47:53Z</time>
      </trkpt>
      <trkpt lat="47.62221" lon="-2.81289">
        <ele>2.2</ele>
        <time>2025-01-28T10:47:54Z</time>
      </trkpt>
      <trkpt lat="47.6222" lon="-2.81289">
        <ele>2.3</ele>
        <time>2025-01-28T10:47:55Z</time>
      </trkpt>
      <trkpt lat="47.62219" lon="-2.81291">
        <ele>2.4</ele>
        <time>2025-01-28T10:47:56Z</time>
      </trkpt>
      <trkpt lat="47.62218" lon="-2.81292">
        <ele>2.6</ele>
        <time>2025-01-28T10:47:57Z</time>
      </trkpt>
      <trkpt lat="47.62218" lon="-2.81294">
        <ele>2.7</ele>
        <time>2025-01-28T10:47:58Z</time>
      </trkpt>
      <trkpt lat="47.62218" lon="-2.81295">
        <ele>2.9</ele>
        <time>2025-01-28T10:47:59Z</time>
      </trkpt>
      <trkpt lat="47.62218" lon="-2.81297">
        <ele>3.1</ele>
        <time>2025-01-28T10:48:00Z</time>
      </trkpt>
      <trkpt lat="47.62217" lon="-2.81299">
        <ele>3.3</ele>
        <time>2025-01-28T10:48:01Z</time>
      </trkpt>
      <trkpt lat="47.62216" lon="-2.813">
        <ele>3.4</ele>
        <time>2025-01-28T10:48:02Z</time>
      </trkpt>
      <trkpt lat="47.62216" lon="-2.81301">
        <ele>3.5</ele>
        <time>2025-01-28T10:48:03Z</time>
      </trkpt>
      <trkpt lat="47.62215" lon="-2.81303">
        <ele>3.7</ele>
        <time>2025-01-28T10:48:04Z</time>
      </trkpt>
      <trkpt lat="47.62215" lon="-2.81304">
        <ele>3.8</ele>
        <time>2025-01-28T10:48:05Z</time>
      </trkpt>
      <trkpt lat="47.62214" lon="-2.81306">
        <ele>4</ele>
        <time>2025-01-28T10:48:06Z</time>
      </trkpt>
      <trkpt lat="47.62214" lon="-2.81307">
        <ele>3.9</ele>
        <time>2025-01-28T10:48:07Z</time>
      </trkpt>
      <trkpt lat="47.62213" lon="-2.81309">
        <ele>3.9</ele>
        <time>2025-01-28T10:48:08Z</time>
      </trkpt>
      <trkpt lat="47.62213" lon="-2.8131">
        <ele>3.8</ele>
        <time>2025-01-28T10:48:09Z</time>
      </trkpt>
      <trkpt lat="47.62212" lon="-2.81311">
        <ele>3.8</ele>
        <time>2025-01-28T10:48:10Z</time>
      </trkpt>
      <trkpt lat="47.62212" lon="-2.81313">
        <ele>3.7</ele>
        <time>2025-01-28T10:48:11Z</time>
      </trkpt>
      <trkpt lat="47.62211" lon="-2.81314">
        <ele>3.6</ele>
        <time>2025-01-28T10:48:12Z</time>
      </trkpt>
      <trkpt lat="47.62212" lon="-2.81316">
        <ele>3.6</ele>
        <time>2025-01-28T10:48:13Z</time>
      </trkpt>
      <trkpt lat="47.62212" lon="-2.81317">
        <ele>3.5</ele>
        <time>2025-01-28T10:48:14Z</time>
      </trkpt>
      <trkpt lat="47.62211" lon="-2.81318">
        <ele>3.5</ele>
        <time>2025-01-28T10:48:15Z</time>
      </trkpt>
      <trkpt lat="47.62211" lon="-2.8132">
        <ele>3.4</ele>
        <time>2025-01-28T10:48:16Z</time>
      </trkpt>
      <trkpt lat="47.6221" lon="-2.81321">
        <ele>3.3</ele>
        <time>2025-01-28T10:48:17Z</time>
      </trkpt>
      <trkpt lat="47.62209" lon="-2.81322">
        <ele>3.2</ele>
        <time>2025-01-28T10:48:18Z</time>
      </trkpt>
      <trkpt lat="47.62209" lon="-2.81323">
        <ele>3.1</ele>
        <time>2025-01-28T10:48:19Z</time>
      </trkpt>
      <trkpt lat="47.62209" lon="-2.81325">
        <ele>3</ele>
        <time>2025-01-28T10:48:20Z</time>
      </trkpt>
      <trkpt lat="47.62208" lon="-2.81326">
        <ele>2.9</ele>
        <time>2025-01-28T10:48:21Z</time>
      </trkpt>
      <trkpt lat="47.62207" lon="-2.81327">
        <ele>2.8</ele>
        <time>2025-01-28T10:48:22Z</time>
      </trkpt>
      <trkpt lat="47.62207" lon="-2.81328">
        <ele>2.6</ele>
        <time>2025-01-28T10:48:23Z</time>
      </trkpt>
      <trkpt lat="47.62206" lon="-2.8133">
        <ele>2.5</ele>
        <time>2025-01-28T10:48:24Z</time>
      </trkpt>
      <trkpt lat="47.62206" lon="-2.81331">
        <ele>2.4</ele>
        <time>2025-01-28T10:48:25Z</time>
      </trkpt>
      <trkpt lat="47.62206" lon="-2.81333">
        <ele>2.2</ele>
        <time>2025-01-28T10:48:26Z</time>
      </trkpt>
      <trkpt lat="47.62205" lon="-2.81334">
        <ele>2.2</ele>
        <time>2025-01-28T10:48:27Z</time>
      </trkpt>
      <trkpt lat="47.62204" lon="-2.81336">
        <ele>2.1</ele>
        <time>2025-01-28T10:48:28Z</time>
      </trkpt>
      <trkpt lat="47.62203" lon="-2.81336">
        <ele>2.1</ele>
        <time>2025-01-28T10:48:29Z</time>
      </trkpt>
      <trkpt lat="47.62203" lon="-2.81338">
        <ele>2.1</ele>
        <time>2025-01-28T10:48:30Z</time>
      </trkpt>
      <trkpt lat="47.62202" lon="-2.81339">
        <ele>2.1</ele>
        <time>2025-01-28T10:48:31Z</time>
      </trkpt>
      <trkpt lat="47.62202" lon="-2.81341">
        <ele>2.2</ele>
        <time>2025-01-28T10:48:32Z</time>
      </trkpt>
      <trkpt lat="47.62201" lon="-2.81343">
        <ele>2.2</ele>
        <time>2025-01-28T10:48:33Z</time>
      </trkpt>
      <trkpt lat="47.622" lon="-2.81345">
        <ele>2.3</ele>
        <time>2025-01-28T10:48:34Z</time>
      </trkpt>
      <trkpt lat="47.62199" lon="-2.81346">
        <ele>2.3</ele>
        <time>2025-01-28T10:48:35Z</time>
      </trkpt>
      <trkpt lat="47.62199" lon="-2.81348">
        <ele>2.4</ele>
        <time>2025-01-28T10:48:36Z</time>
      </trkpt>
      <trkpt lat="47.62198" lon="-2.8135">
        <ele>2.5</ele>
        <time>2025-01-28T10:48:37Z</time>
      </trkpt>
      <trkpt lat="47.62198" lon="-2.81352">
        <ele>2.5</ele>
        <time>2025-01-28T10:48:38Z</time>
      </trkpt>
      <trkpt lat="47.62198" lon="-2.81354">
        <ele>2.6</ele>
        <time>2025-01-28T10:48:39Z</time>
      </trkpt>
      <trkpt lat="47.62197" lon="-2.81355">
        <ele>2.7</ele>
        <time>2025-01-28T10:48:40Z</time>
      </trkpt>
      <trkpt lat="47.62197" lon="-2.81357">
        <ele>2.8</ele>
        <time>2025-01-28T10:48:41Z</time>
      </trkpt>
      <trkpt lat="47.62196" lon="-2.81359">
        <ele>2.9</ele>
        <time>2025-01-28T10:48:42Z</time>
      </trkpt>
      <trkpt lat="47.62195" lon="-2.8136">
        <ele>3</ele>
        <time>2025-01-28T10:48:43Z</time>
      </trkpt>
      <trkpt lat="47.62194" lon="-2.81361">
        <ele>3</ele>
        <time>2025-01-28T10:48:44Z</time>
      </trkpt>
      <trkpt lat="47.62194" lon="-2.81363">
        <ele>3</ele>
        <time>2025-01-28T10:48:45Z</time>
      </trkpt>
      <trkpt lat="47.62193" lon="-2.81364">
        <ele>2.9</ele>
        <time>2025-01-28T10:48:46Z</time>
      </trkpt>
      <trkpt lat="47.62192" lon="-2.81366">
        <ele>2.9</ele>
        <time>2025-01-28T10:48:47Z</time>
      </trkpt>
      <trkpt lat="47.62192" lon="-2.81367">
        <ele>2.9</ele>
        <time>2025-01-28T10:48:48Z</time>
      </trkpt>
      <trkpt lat="47.62191" lon="-2.81369">
        <ele>2.9</ele>
        <time>2025-01-28T10:48:49Z</time>
      </trkpt>
      <trkpt lat="47.62191" lon="-2.81371">
        <ele>2.8</ele>
        <time>2025-01-28T10:48:50Z</time>
      </trkpt>
      <trkpt lat="47.6219" lon="-2.81373">
        <ele>2.8</ele>
        <time>2025-01-28T10:48:51Z</time>
      </trkpt>
      <trkpt lat="47.6219" lon="-2.81375">
        <ele>2.7</ele>
        <time>2025-01-28T10:48:52Z</time>
      </trkpt>
      <trkpt lat="47.62189" lon="-2.81377">
        <ele>2.7</ele>
        <time>2025-01-28T10:48:53Z</time>
      </trkpt>
      <trkpt lat="47.62188" lon="-2.81378">
        <ele>2.6</ele>
        <time>2025-01-28T10:48:54Z</time>
      </trkpt>
      <trkpt lat="47.62187" lon="-2.81378">
        <ele>2.6</ele>
        <time>2025-01-28T10:48:55Z</time>
      </trkpt>
      <trkpt lat="47.62187" lon="-2.81382">
        <ele>2.5</ele>
        <time>2025-01-28T10:48:56Z</time>
      </trkpt>
      <trkpt lat="47.6219" lon="-2.81383">
        <ele>2.7</ele>
        <time>2025-01-28T10:48:57Z</time>
      </trkpt>
      <trkpt lat="47.62191" lon="-2.81382">
        <ele>2.8</ele>
        <time>2025-01-28T10:48:58Z</time>
      </trkpt>
      <trkpt lat="47.62192" lon="-2.81382">
        <ele>2.8</ele>
        <time>2025-01-28T10:48:59Z</time>
      </trkpt>
      <trkpt lat="47.62193" lon="-2.81382">
        <ele>2.9</ele>
        <time>2025-01-28T10:49:00Z</time>
      </trkpt>
      <trkpt lat="47.62194" lon="-2.81382">
        <ele>3</ele>
        <time>2025-01-28T10:49:01Z</time>
      </trkpt>
      <trkpt lat="47.62195" lon="-2.81382">
        <ele>3</ele>
        <time>2025-01-28T10:49:02Z</time>
      </trkpt>
      <trkpt lat="47.62197" lon="-2.8138">
        <ele>3.1</ele>
        <time>2025-01-28T10:49:03Z</time>
      </trkpt>
      <trkpt lat="47.62197" lon="-2.81379">
        <ele>3.1</ele>
        <time>2025-01-28T10:49:04Z</time>
      </trkpt>
      <trkpt lat="47.62197" lon="-2.81378">
        <ele>3.1</ele>
        <time>2025-01-28T10:49:05Z</time>
      </trkpt>
      <trkpt lat="47.62198" lon="-2.81377">
        <ele>3.1</ele>
        <time>2025-01-28T10:49:06Z</time>
      </trkpt>
      <trkpt lat="47.62198" lon="-2.81377">
        <ele>3.1</ele>
        <time>2025-01-28T10:49:07Z</time>
      </trkpt>
      <trkpt lat="47.62198" lon="-2.81377">
        <ele>3.1</ele>
        <time>2025-01-28T10:49:08Z</time>
      </trkpt>
      <trkpt lat="47.62198" lon="-2.81377">
        <ele>3.1</ele>
        <time>2025-01-28T10:49:09Z</time>
      </trkpt>
      <trkpt lat="47.62198" lon="-2.81377">
        <ele>3.1</ele>
        <time>2025-01-28T10:49:10Z</time>
      </trkpt>
      <trkpt lat="47.62198" lon="-2.81377">
        <ele>3.1</ele>
        <time>2025-01-28T10:49:11Z</time>
      </trkpt>
      <trkpt lat="47.62198" lon="-2.81377">
        <ele>3.1</ele>
        <time>2025-01-28T10:49:12Z</time>
      </trkpt>
      <trkpt lat="47.62198" lon="-2.81377">
        <ele>3.1</ele>
        <time>2025-01-28T10:49:13Z</time>
      </trkpt>
      <trkpt lat="47.62198" lon="-2.81377">
        <ele>3.1</ele>
        <time>2025-01-28T10:49:14Z</time>
      </trkpt>
      <trkpt lat="47.62198" lon="-2.81377">
        <ele>3.1</ele>
        <time>2025-01-28T10:49:15Z</time>
      </trkpt>
      <trkpt lat="47.62198" lon="-2.81377">
        <ele>3.1</ele>
        <time>2025-01-28T10:49:16Z</time>
      </trkpt>
      <trkpt lat="47.62198" lon="-2.81377">
        <ele>3.1</ele>
        <time>2025-01-28T10:49:17Z</time>
      </trkpt>
      <trkpt lat="47.62198" lon="-2.81377">
        <ele>3.1</ele>
        <time>2025-01-28T10:49:18Z</time>
      </trkpt>
      <trkpt lat="47.62198" lon="-2.81377">
        <ele>3.1</ele>
        <time>2025-01-28T10:49:19Z</time>
      </trkpt>
      <trkpt lat="47.62198" lon="-2.81377">
        <ele>3.1</ele>
        <time>2025-01-28T10:49:20Z</time>
      </trkpt>
      <trkpt lat="47.62198" lon="-2.81377">
        <ele>3.1</ele>
        <time>2025-01-28T10:49:21Z</time>
      </trkpt>
      <trkpt lat="47.62198" lon="-2.81377">
        <ele>3.1</ele>
        <time>2025-01-28T10:49:22Z</time>
      </trkpt>
      <trkpt lat="47.62198" lon="-2.81377">
        <ele>3.1</ele>
        <time>2025-01-28T10:49:23Z</time>
      </trkpt>
      <trkpt lat="47.62198" lon="-2.81377">
        <ele>3.1</ele>
        <time>2025-01-28T10:49:24Z</time>
      </trkpt>
      <trkpt lat="47.62198" lon="-2.81377">
        <ele>3.1</ele>
        <time>2025-01-28T10:49:25Z</time>
      </trkpt>
      <trkpt lat="47.62198" lon="-2.81377">
        <ele>3.1</ele>
        <time>2025-01-28T10:49:26Z</time>
      </trkpt>
      <trkpt lat="47.62198" lon="-2.81377">
        <ele>3.1</ele>
        <time>2025-01-28T10:49:27Z</time>
      </trkpt>
      <trkpt lat="47.62198" lon="-2.81377">
        <ele>3.1</ele>
        <time>2025-01-28T10:49:28Z</time>
      </trkpt>
      <trkpt lat="47.62198" lon="-2.81377">
        <ele>3.1</ele>
        <time>2025-01-28T10:49:29Z</time>
      </trkpt>
      <trkpt lat="47.62198" lon="-2.81377">
        <ele>3.1</ele>
        <time>2025-01-28T10:49:30Z</time>
      </trkpt>
      <trkpt lat="47.62198" lon="-2.81377">
        <ele>3.1</ele>
        <time>2025-01-28T10:49:31Z</time>
      </trkpt>
      <trkpt lat="47.62198" lon="-2.81377">
        <ele>3.1</ele>
        <time>2025-01-28T10:49:32Z</time>
      </trkpt>
      <trkpt lat="47.62198" lon="-2.81377">
        <ele>3.1</ele>
        <time>2025-01-28T10:49:33Z</time>
      </trkpt>
      <trkpt lat="47.62198" lon="-2.81377">
        <ele>3.1</ele>
        <time>2025-01-28T10:49:34Z</time>
      </trkpt>
      <trkpt lat="47.62198" lon="-2.81377">
        <ele>3.1</ele>
        <time>2025-01-28T10:49:35Z</time>
      </trkpt>
      <trkpt lat="47.62198" lon="-2.81377">
        <ele>3.1</ele>
        <time>2025-01-28T10:49:36Z</time>
      </trkpt>
      <trkpt lat="47.62198" lon="-2.81377">
        <ele>3.1</ele>
        <time>2025-01-28T10:49:37Z</time>
      </trkpt>
      <trkpt lat="47.62198" lon="-2.81377">
        <ele>3.1</ele>
        <time>2025-01-28T10:49:38Z</time>
      </trkpt>
      <trkpt lat="47.62198" lon="-2.81377">
        <ele>3.1</ele>
        <time>2025-01-28T10:49:39Z</time>
      </trkpt>
      <trkpt lat="47.62198" lon="-2.81377">
        <ele>3.1</ele>
        <time>2025-01-28T10:49:40Z</time>
      </trkpt>
      <trkpt lat="47.62198" lon="-2.81377">
        <ele>3.1</ele>
        <time>2025-01-28T10:49:41Z</time>
      </trkpt>
      <trkpt lat="47.62198" lon="-2.81377">
        <ele>3.1</ele>
        <time>2025-01-28T10:49:42Z</time>
      </trkpt>
      <trkpt lat="47.62198" lon="-2.81377">
        <ele>3.1</ele>
        <time>2025-01-28T10:49:43Z</time>
      </trkpt>
      <trkpt lat="47.62198" lon="-2.81377">
        <ele>3.1</ele>
        <time>2025-01-28T10:49:44Z</time>
      </trkpt>
      <trkpt lat="47.62198" lon="-2.81377">
        <ele>3.1</ele>
        <time>2025-01-28T10:49:45Z</time>
      </trkpt>
      <trkpt lat="47.62198" lon="-2.81377">
        <ele>3.1</ele>
        <time>2025-01-28T10:49:46Z</time>
      </trkpt>
      <trkpt lat="47.62198" lon="-2.81377">
        <ele>3.1</ele>
        <time>2025-01-28T10:49:47Z</time>
      </trkpt>
      <trkpt lat="47.62198" lon="-2.81377">
        <ele>3.1</ele>
        <time>2025-01-28T10:49:48Z</time>
      </trkpt>
      <trkpt lat="47.62198" lon="-2.81377">
        <ele>3.1</ele>
        <time>2025-01-28T10:49:49Z</time>
      </trkpt>
      <trkpt lat="47.62198" lon="-2.81377">
        <ele>3.1</ele>
        <time>2025-01-28T10:49:50Z</time>
      </trkpt>
      <trkpt lat="47.62197" lon="-2.81377">
        <ele>3.1</ele>
        <time>2025-01-28T10:49:51Z</time>
      </trkpt>
      <trkpt lat="47.62197" lon="-2.81377">
        <ele>3.1</ele>
        <time>2025-01-28T10:49:52Z</time>
      </trkpt>
      <trkpt lat="47.62197" lon="-2.81378">
        <ele>3.1</ele>
        <time>2025-01-28T10:49:53Z</time>
      </trkpt>
      <trkpt lat="47.62196" lon="-2.81378">
        <ele>3.1</ele>
        <time>2025-01-28T10:49:54Z</time>
      </trkpt>
      <trkpt lat="47.62195" lon="-2.81379">
        <ele>3</ele>
        <time>2025-01-28T10:49:55Z</time>
      </trkpt>
      <trkpt lat="47.62194" lon="-2.81378">
        <ele>3</ele>
        <time>2025-01-28T10:49:56Z</time>
      </trkpt>
      <trkpt lat="47.62193" lon="-2.81382">
        <ele>2.9</ele>
        <time>2025-01-28T10:49:57Z</time>
      </trkpt>
      <trkpt lat="47.62193" lon="-2.81384">
        <ele>2.9</ele>
        <time>2025-01-28T10:49:58Z</time>
      </trkpt>
      <trkpt lat="47.62194" lon="-2.81385">
        <ele>2.9</ele>
        <time>2025-01-28T10:49:59Z</time>
      </trkpt>
      <trkpt lat="47.62193" lon="-2.81386">
        <ele>2.9</ele>
        <time>2025-01-28T10:50:00Z</time>
      </trkpt>
      <trkpt lat="47.62193" lon="-2.81388">
        <ele>2.9</ele>
        <time>2025-01-28T10:50:01Z</time>
      </trkpt>
      <trkpt lat="47.62193" lon="-2.81389">
        <ele>2.9</ele>
        <time>2025-01-28T10:50:02Z</time>
      </trkpt>
      <trkpt lat="47.62193" lon="-2.81391">
        <ele>2.9</ele>
        <time>2025-01-28T10:50:03Z</time>
      </trkpt>
      <trkpt lat="47.62193" lon="-2.81392">
        <ele>2.9</ele>
        <time>2025-01-28T10:50:04Z</time>
      </trkpt>
      <trkpt lat="47.62193" lon="-2.81393">
        <ele>2.9</ele>
        <time>2025-01-28T10:50:05Z</time>
      </trkpt>
      <trkpt lat="47.62193" lon="-2.81394">
        <ele>2.9</ele>
        <time>2025-01-28T10:50:06Z</time>
      </trkpt>
      <trkpt lat="47.62193" lon="-2.81396">
        <ele>2.9</ele>
        <time>2025-01-28T10:50:07Z</time>
      </trkpt>
      <trkpt lat="47.62192" lon="-2.81397">
        <ele>2.9</ele>
        <time>2025-01-28T10:50:08Z</time>
      </trkpt>
      <trkpt lat="47.62192" lon="-2.81398">
        <ele>2.9</ele>
        <time>2025-01-28T10:50:09Z</time>
      </trkpt>
      <trkpt lat="47.62192" lon="-2.814">
        <ele>2.9</ele>
        <time>2025-01-28T10:50:10Z</time>
      </trkpt>
      <trkpt lat="47.62192" lon="-2.81401">
        <ele>2.9</ele>
        <time>2025-01-28T10:50:11Z</time>
      </trkpt>
      <trkpt lat="47.62192" lon="-2.81403">
        <ele>2.9</ele>
        <time>2025-01-28T10:50:12Z</time>
      </trkpt>
      <trkpt lat="47.62192" lon="-2.81404">
        <ele>2.9</ele>
        <time>2025-01-28T10:50:13Z</time>
      </trkpt>
      <trkpt lat="47.62192" lon="-2.81406">
        <ele>2.9</ele>
        <time>2025-01-28T10:50:14Z</time>
      </trkpt>
      <trkpt lat="47.62192" lon="-2.81407">
        <ele>2.9</ele>
        <time>2025-01-28T10:50:15Z</time>
      </trkpt>
      <trkpt lat="47.62192" lon="-2.81409">
        <ele>3</ele>
        <time>2025-01-28T10:50:16Z</time>
      </trkpt>
      <trkpt lat="47.62192" lon="-2.8141">
        <ele>3</ele>
        <time>2025-01-28T10:50:17Z</time>
      </trkpt>
      <trkpt lat="47.62192" lon="-2.81412">
        <ele>3</ele>
        <time>2025-01-28T10:50:18Z</time>
      </trkpt>
      <trkpt lat="47.62193" lon="-2.81414">
        <ele>3</ele>
        <time>2025-01-28T10:50:19Z</time>
      </trkpt>
      <trkpt lat="47.62193" lon="-2.81416">
        <ele>3</ele>
        <time>2025-01-28T10:50:20Z</time>
      </trkpt>
      <trkpt lat="47.62193" lon="-2.81418">
        <ele>3</ele>
        <time>2025-01-28T10:50:21Z</time>
      </trkpt>
      <trkpt lat="47.62194" lon="-2.8142">
        <ele>2.9</ele>
        <time>2025-01-28T10:50:22Z</time>
      </trkpt>
      <trkpt lat="47.62194" lon="-2.81422">
        <ele>2.8</ele>
        <time>2025-01-28T10:50:23Z</time>
      </trkpt>
      <trkpt lat="47.62194" lon="-2.81423">
        <ele>2.8</ele>
        <time>2025-01-28T10:50:24Z</time>
      </trkpt>
      <trkpt lat="47.62194" lon="-2.81425">
        <ele>2.7</ele>
        <time>2025-01-28T10:50:25Z</time>
      </trkpt>
      <trkpt lat="47.62194" lon="-2.81427">
        <ele>2.6</ele>
        <time>2025-01-28T10:50:26Z</time>
      </trkpt>
      <trkpt lat="47.62194" lon="-2.81428">
        <ele>2.6</ele>
        <time>2025-01-28T10:50:27Z</time>
      </trkpt>
      <trkpt lat="47.62194" lon="-2.8143">
        <ele>2.5</ele>
        <time>2025-01-28T10:50:28Z</time>
      </trkpt>
      <trkpt lat="47.62194" lon="-2.81432">
        <ele>2.5</ele>
        <time>2025-01-28T10:50:29Z</time>
      </trkpt>
      <trkpt lat="47.62193" lon="-2.81434">
        <ele>2.4</ele>
        <time>2025-01-28T10:50:30Z</time>
      </trkpt>
      <trkpt lat="47.62193" lon="-2.81435">
        <ele>2.3</ele>
        <time>2025-01-28T10:50:31Z</time>
      </trkpt>
      <trkpt lat="47.62192" lon="-2.81436">
        <ele>2.3</ele>
        <time>2025-01-28T10:50:32Z</time>
      </trkpt>
      <trkpt lat="47.62191" lon="-2.81437">
        <ele>2.3</ele>
        <time>2025-01-28T10:50:33Z</time>
      </trkpt>
      <trkpt lat="47.62191" lon="-2.81438">
        <ele>2.2</ele>
        <time>2025-01-28T10:50:34Z</time>
      </trkpt>
      <trkpt lat="47.6219" lon="-2.8144">
        <ele>2.2</ele>
        <time>2025-01-28T10:50:35Z</time>
      </trkpt>
      <trkpt lat="47.6219" lon="-2.81441">
        <ele>2.1</ele>
        <time>2025-01-28T10:50:36Z</time>
      </trkpt>
      <trkpt lat="47.6219" lon="-2.81443">
        <ele>2</ele>
        <time>2025-01-28T10:50:37Z</time>
      </trkpt>
      <trkpt lat="47.6219" lon="-2.81445">
        <ele>2</ele>
        <time>2025-01-28T10:50:38Z</time>
      </trkpt>
      <trkpt lat="47.6219" lon="-2.81447">
        <ele>2</ele>
        <time>2025-01-28T10:50:39Z</time>
      </trkpt>
      <trkpt lat="47.6219" lon="-2.81448">
        <ele>2</ele>
        <time>2025-01-28T10:50:40Z</time>
      </trkpt>
      <trkpt lat="47.6219" lon="-2.8145">
        <ele>2</ele>
        <time>2025-01-28T10:50:41Z</time>
      </trkpt>
      <trkpt lat="47.6219" lon="-2.81452">
        <ele>2</ele>
        <time>2025-01-28T10:50:42Z</time>
      </trkpt>
      <trkpt lat="47.6219" lon="-2.81454">
        <ele>1.9</ele>
        <time>2025-01-28T10:50:43Z</time>
      </trkpt>
      <trkpt lat="47.6219" lon="-2.81456">
        <ele>1.9</ele>
        <time>2025-01-28T10:50:44Z</time>
      </trkpt>
      <trkpt lat="47.6219" lon="-2.81458">
        <ele>1.9</ele>
        <time>2025-01-28T10:50:45Z</time>
      </trkpt>
      <trkpt lat="47.6219" lon="-2.81461">
        <ele>1.9</ele>
        <time>2025-01-28T10:50:46Z</time>
      </trkpt>
      <trkpt lat="47.62191" lon="-2.81463">
        <ele>1.9</ele>
        <time>2025-01-28T10:50:47Z</time>
      </trkpt>
      <trkpt lat="47.62191" lon="-2.81464">
        <ele>1.9</ele>
        <time>2025-01-28T10:50:48Z</time>
      </trkpt>
      <trkpt lat="47.62191" lon="-2.81466">
        <ele>1.9</ele>
        <time>2025-01-28T10:50:49Z</time>
      </trkpt>
      <trkpt lat="47.62191" lon="-2.81468">
        <ele>1.9</ele>
        <time>2025-01-28T10:50:50Z</time>
      </trkpt>
      <trkpt lat="47.62192" lon="-2.81469">
        <ele>1.9</ele>
        <time>2025-01-28T10:50:51Z</time>
      </trkpt>
      <trkpt lat="47.62192" lon="-2.81471">
        <ele>1.9</ele>
        <time>2025-01-28T10:50:52Z</time>
      </trkpt>
      <trkpt lat="47.62192" lon="-2.81473">
        <ele>1.9</ele>
        <time>2025-01-28T10:50:53Z</time>
      </trkpt>
      <trkpt lat="47.62192" lon="-2.81475">
        <ele>1.9</ele>
        <time>2025-01-28T10:50:54Z</time>
      </trkpt>
      <trkpt lat="47.62192" lon="-2.81476">
        <ele>1.9</ele>
        <time>2025-01-28T10:50:55Z</time>
      </trkpt>
      <trkpt lat="47.62192" lon="-2.81478">
        <ele>1.9</ele>
        <time>2025-01-28T10:50:56Z</time>
      </trkpt>
      <trkpt lat="47.62193" lon="-2.8148">
        <ele>1.9</ele>
        <time>2025-01-28T10:50:57Z</time>
      </trkpt>
      <trkpt lat="47.62193" lon="-2.81482">
        <ele>1.9</ele>
        <time>2025-01-28T10:50:58Z</time>
      </trkpt>
      <trkpt lat="47.62194" lon="-2.81484">
        <ele>2</ele>
        <time>2025-01-28T10:50:59Z</time>
      </trkpt>
      <trkpt lat="47.62194" lon="-2.81486">
        <ele>2</ele>
        <time>2025-01-28T10:51:00Z</time>
      </trkpt>
      <trkpt lat="47.62194" lon="-2.81488">
        <ele>2</ele>
        <time>2025-01-28T10:51:01Z</time>
      </trkpt>
      <trkpt lat="47.62194" lon="-2.81489">
        <ele>2</ele>
        <time>2025-01-28T10:51:02Z</time>
      </trkpt>
      <trkpt lat="47.62194" lon="-2.81491">
        <ele>2</ele>
        <time>2025-01-28T10:51:03Z</time>
      </trkpt>
      <trkpt lat="47.62194" lon="-2.81493">
        <ele>2</ele>
        <time>2025-01-28T10:51:04Z</time>
      </trkpt>
      <trkpt lat="47.62195" lon="-2.81495">
        <ele>2</ele>
        <time>2025-01-28T10:51:05Z</time>
      </trkpt>
      <trkpt lat="47.62195" lon="-2.81497">
        <ele>2</ele>
        <time>2025-01-28T10:51:06Z</time>
      </trkpt>
      <trkpt lat="47.62195" lon="-2.81498">
        <ele>2</ele>
        <time>2025-01-28T10:51:07Z</time>
      </trkpt>
      <trkpt lat="47.62195" lon="-2.815">
        <ele>2.1</ele>
        <time>2025-01-28T10:51:08Z</time>
      </trkpt>
      <trkpt lat="47.62196" lon="-2.81502">
        <ele>2.1</ele>
        <time>2025-01-28T10:51:09Z</time>
      </trkpt>
      <trkpt lat="47.62196" lon="-2.81504">
        <ele>2.1</ele>
        <time>2025-01-28T10:51:10Z</time>
      </trkpt>
      <trkpt lat="47.62196" lon="-2.81506">
        <ele>2.1</ele>
        <time>2025-01-28T10:51:11Z</time>
      </trkpt>
      <trkpt lat="47.62196" lon="-2.81508">
        <ele>2.1</ele>
        <time>2025-01-28T10:51:12Z</time>
      </trkpt>
      <trkpt lat="47.62196" lon="-2.8151">
        <ele>2.1</ele>
        <time>2025-01-28T10:51:13Z</time>
      </trkpt>
      <trkpt lat="47.62197" lon="-2.81512">
        <ele>2.1</ele>
        <time>2025-01-28T10:51:14Z</time>
      </trkpt>
      <trkpt lat="47.62197" lon="-2.81513">
        <ele>2.2</ele>
        <time>2025-01-28T10:51:15Z</time>
      </trkpt>
      <trkpt lat="47.62198" lon="-2.81515">
        <ele>2.2</ele>
        <time>2025-01-28T10:51:16Z</time>
      </trkpt>
      <trkpt lat="47.62198" lon="-2.81517">
        <ele>2.2</ele>
        <time>2025-01-28T10:51:17Z</time>
      </trkpt>
      <trkpt lat="47.62198" lon="-2.8152">
        <ele>2.2</ele>
        <time>2025-01-28T10:51:18Z</time>
      </trkpt>
      <trkpt lat="47.62199" lon="-2.81521">
        <ele>2.2</ele>
        <time>2025-01-28T10:51:19Z</time>
      </trkpt>
      <trkpt lat="47.62199" lon="-2.81523">
        <ele>2.2</ele>
        <time>2025-01-28T10:51:20Z</time>
      </trkpt>
      <trkpt lat="47.62198" lon="-2.81525">
        <ele>2.2</ele>
        <time>2025-01-28T10:51:21Z</time>
      </trkpt>
      <trkpt lat="47.62198" lon="-2.81527">
        <ele>2.1</ele>
        <time>2025-01-28T10:51:22Z</time>
      </trkpt>
      <trkpt lat="47.62197" lon="-2.81528">
        <ele>2.1</ele>
        <time>2025-01-28T10:51:23Z</time>
      </trkpt>
      <trkpt lat="47.62197" lon="-2.8153">
        <ele>2.1</ele>
        <time>2025-01-28T10:51:24Z</time>
      </trkpt>
      <trkpt lat="47.62196" lon="-2.81532">
        <ele>2.1</ele>
        <time>2025-01-28T10:51:25Z</time>
      </trkpt>
      <trkpt lat="47.62196" lon="-2.81534">
        <ele>2</ele>
        <time>2025-01-28T10:51:26Z</time>
      </trkpt>
      <trkpt lat="47.62195" lon="-2.81536">
        <ele>2</ele>
        <time>2025-01-28T10:51:27Z</time>
      </trkpt>
      <trkpt lat="47.62195" lon="-2.81537">
        <ele>2</ele>
        <time>2025-01-28T10:51:28Z</time>
      </trkpt>
      <trkpt lat="47.62194" lon="-2.81539">
        <ele>2</ele>
        <time>2025-01-28T10:51:29Z</time>
      </trkpt>
      <trkpt lat="47.62194" lon="-2.81541">
        <ele>2</ele>
        <time>2025-01-28T10:51:30Z</time>
      </trkpt>
      <trkpt lat="47.62193" lon="-2.81543">
        <ele>2</ele>
        <time>2025-01-28T10:51:31Z</time>
      </trkpt>
      <trkpt lat="47.62192" lon="-2.81545">
        <ele>2</ele>
        <time>2025-01-28T10:51:32Z</time>
      </trkpt>
      <trkpt lat="47.62192" lon="-2.81546">
        <ele>2</ele>
        <time>2025-01-28T10:51:33Z</time>
      </trkpt>
      <trkpt lat="47.62191" lon="-2.81547">
        <ele>2</ele>
        <time>2025-01-28T10:51:34Z</time>
      </trkpt>
      <trkpt lat="47.62191" lon="-2.81549">
        <ele>2</ele>
        <time>2025-01-28T10:51:35Z</time>
      </trkpt>
      <trkpt lat="47.62191" lon="-2.81551">
        <ele>2</ele>
        <time>2025-01-28T10:51:36Z</time>
      </trkpt>
      <trkpt lat="47.6219" lon="-2.81552">
        <ele>2</ele>
        <time>2025-01-28T10:51:37Z</time>
      </trkpt>
      <trkpt lat="47.6219" lon="-2.81554">
        <ele>2</ele>
        <time>2025-01-28T10:51:38Z</time>
      </trkpt>
      <trkpt lat="47.6219" lon="-2.81557">
        <ele>2</ele>
        <time>2025-01-28T10:51:39Z</time>
      </trkpt>
      <trkpt lat="47.62189" lon="-2.81558">
        <ele>2</ele>
        <time>2025-01-28T10:51:40Z</time>
      </trkpt>
      <trkpt lat="47.62189" lon="-2.8156">
        <ele>2</ele>
        <time>2025-01-28T10:51:41Z</time>
      </trkpt>
      <trkpt lat="47.62188" lon="-2.81561">
        <ele>2</ele>
        <time>2025-01-28T10:51:42Z</time>
      </trkpt>
      <trkpt lat="47.62187" lon="-2.81563">
        <ele>2</ele>
        <time>2025-01-28T10:51:43Z</time>
      </trkpt>
      <trkpt lat="47.62187" lon="-2.81565">
        <ele>2</ele>
        <time>2025-01-28T10:51:44Z</time>
      </trkpt>
      <trkpt lat="47.62186" lon="-2.81566">
        <ele>2</ele>
        <time>2025-01-28T10:51:45Z</time>
      </trkpt>
      <trkpt lat="47.62185" lon="-2.81567">
        <ele>2</ele>
        <time>2025-01-28T10:51:46Z</time>
      </trkpt>
      <trkpt lat="47.62184" lon="-2.81569">
        <ele>2</ele>
        <time>2025-01-28T10:51:47Z</time>
      </trkpt>
      <trkpt lat="47.62183" lon="-2.8157">
        <ele>2</ele>
        <time>2025-01-28T10:51:48Z</time>
      </trkpt>
      <trkpt lat="47.62182" lon="-2.81571">
        <ele>2</ele>
        <time>2025-01-28T10:51:49Z</time>
      </trkpt>
      <trkpt lat="47.62181" lon="-2.81572">
        <ele>2</ele>
        <time>2025-01-28T10:51:50Z</time>
      </trkpt>
      <trkpt lat="47.6218" lon="-2.81574">
        <ele>2</ele>
        <time>2025-01-28T10:51:51Z</time>
      </trkpt>
      <trkpt lat="47.62179" lon="-2.81575">
        <ele>2</ele>
        <time>2025-01-28T10:51:52Z</time>
      </trkpt>
      <trkpt lat="47.62178" lon="-2.81576">
        <ele>2</ele>
        <time>2025-01-28T10:51:53Z</time>
      </trkpt>
      <trkpt lat="47.62177" lon="-2.81577">
        <ele>2</ele>
        <time>2025-01-28T10:51:54Z</time>
      </trkpt>
      <trkpt lat="47.62176" lon="-2.81578">
        <ele>2</ele>
        <time>2025-01-28T10:51:55Z</time>
      </trkpt>
      <trkpt lat="47.62175" lon="-2.81579">
        <ele>2</ele>
        <time>2025-01-28T10:51:56Z</time>
      </trkpt>
      <trkpt lat="47.62174" lon="-2.8158">
        <ele>2</ele>
        <time>2025-01-28T10:51:57Z</time>
      </trkpt>
      <trkpt lat="47.62173" lon="-2.81581">
        <ele>2</ele>
        <time>2025-01-28T10:51:58Z</time>
      </trkpt>
      <trkpt lat="47.62174" lon="-2.8158">
        <ele>2</ele>
        <time>2025-01-28T10:51:59Z</time>
      </trkpt>
      <trkpt lat="47.62174" lon="-2.8158">
        <ele>2</ele>
        <time>2025-01-28T10:52:00Z</time>
      </trkpt>
      <trkpt lat="47.62174" lon="-2.8158">
        <ele>2</ele>
        <time>2025-01-28T10:52:01Z</time>
      </trkpt>
      <trkpt lat="47.62173" lon="-2.81581">
        <ele>2</ele>
        <time>2025-01-28T10:52:02Z</time>
      </trkpt>
      <trkpt lat="47.62172" lon="-2.81582">
        <ele>2</ele>
        <time>2025-01-28T10:52:03Z</time>
      </trkpt>
      <trkpt lat="47.62172" lon="-2.81584">
        <ele>2</ele>
        <time>2025-01-28T10:52:04Z</time>
      </trkpt>
      <trkpt lat="47.62171" lon="-2.81586">
        <ele>2.1</ele>
        <time>2025-01-28T10:52:05Z</time>
      </trkpt>
      <trkpt lat="47.62171" lon="-2.81588">
        <ele>2.2</ele>
        <time>2025-01-28T10:52:06Z</time>
      </trkpt>
      <trkpt lat="47.6217" lon="-2.81589">
        <ele>2.2</ele>
        <time>2025-01-28T10:52:07Z</time>
      </trkpt>
      <trkpt lat="47.62169" lon="-2.8159">
        <ele>2.2</ele>
        <time>2025-01-28T10:52:08Z</time>
      </trkpt>
      <trkpt lat="47.62169" lon="-2.81592">
        <ele>2.3</ele>
        <time>2025-01-28T10:52:09Z</time>
      </trkpt>
      <trkpt lat="47.62168" lon="-2.81593">
        <ele>2.4</ele>
        <time>2025-01-28T10:52:10Z</time>
      </trkpt>
      <trkpt lat="47.62167" lon="-2.81594">
        <ele>2.4</ele>
        <time>2025-01-28T10:52:11Z</time>
      </trkpt>
      <trkpt lat="47.62167" lon="-2.81596">
        <ele>2.5</ele>
        <time>2025-01-28T10:52:12Z</time>
      </trkpt>
      <trkpt lat="47.62166" lon="-2.81597">
        <ele>2.5</ele>
        <time>2025-01-28T10:52:13Z</time>
      </trkpt>
      <trkpt lat="47.62165" lon="-2.81598">
        <ele>2.5</ele>
        <time>2025-01-28T10:52:14Z</time>
      </trkpt>
      <trkpt lat="47.62164" lon="-2.81599">
        <ele>2.6</ele>
        <time>2025-01-28T10:52:15Z</time>
      </trkpt>
      <trkpt lat="47.62163" lon="-2.816">
        <ele>2.6</ele>
        <time>2025-01-28T10:52:16Z</time>
      </trkpt>
      <trkpt lat="47.62163" lon="-2.81602">
        <ele>2.7</ele>
        <time>2025-01-28T10:52:17Z</time>
      </trkpt>
      <trkpt lat="47.62161" lon="-2.81602">
        <ele>2.7</ele>
        <time>2025-01-28T10:52:18Z</time>
      </trkpt>
      <trkpt lat="47.62161" lon="-2.81602">
        <ele>2.7</ele>
        <time>2025-01-28T10:52:19Z</time>
      </trkpt>
      <trkpt lat="47.6216" lon="-2.81602">
        <ele>2.7</ele>
        <time>2025-01-28T10:52:20Z</time>
      </trkpt>
      <trkpt lat="47.6216" lon="-2.81601">
        <ele>2.6</ele>
        <time>2025-01-28T10:52:21Z</time>
      </trkpt>
      <trkpt lat="47.6216" lon="-2.81601">
        <ele>2.6</ele>
        <time>2025-01-28T10:52:22Z</time>
      </trkpt>
      <trkpt lat="47.62159" lon="-2.81602">
        <ele>2.7</ele>
        <time>2025-01-28T10:52:23Z</time>
      </trkpt>
      <trkpt lat="47.62159" lon="-2.81603">
        <ele>2.7</ele>
        <time>2025-01-28T10:52:24Z</time>
      </trkpt>
      <trkpt lat="47.62158" lon="-2.81604">
        <ele>2.8</ele>
        <time>2025-01-28T10:52:25Z</time>
      </trkpt>
      <trkpt lat="47.62157" lon="-2.81605">
        <ele>2.8</ele>
        <time>2025-01-28T10:52:26Z</time>
      </trkpt>
      <trkpt lat="47.62157" lon="-2.81607">
        <ele>2.8</ele>
        <time>2025-01-28T10:52:27Z</time>
      </trkpt>
      <trkpt lat="47.62156" lon="-2.81607">
        <ele>2.8</ele>
        <time>2025-01-28T10:52:28Z</time>
      </trkpt>
      <trkpt lat="47.62155" lon="-2.81608">
        <ele>2.9</ele>
        <time>2025-01-28T10:52:29Z</time>
      </trkpt>
      <trkpt lat="47.62154" lon="-2.81609">
        <ele>2.9</ele>
        <time>2025-01-28T10:52:30Z</time>
      </trkpt>
      <trkpt lat="47.62154" lon="-2.8161">
        <ele>3</ele>
        <time>2025-01-28T10:52:31Z</time>
      </trkpt>
      <trkpt lat="47.62154" lon="-2.81612">
        <ele>3</ele>
        <time>2025-01-28T10:52:32Z</time>
      </trkpt>
      <trkpt lat="47.62153" lon="-2.81613">
        <ele>2.9</ele>
        <time>2025-01-28T10:52:33Z</time>
      </trkpt>
      <trkpt lat="47.62152" lon="-2.81614">
        <ele>2.9</ele>
        <time>2025-01-28T10:52:34Z</time>
      </trkpt>
      <trkpt lat="47.62151" lon="-2.81615">
        <ele>2.9</ele>
        <time>2025-01-28T10:52:35Z</time>
      </trkpt>
      <trkpt lat="47.6215" lon="-2.81616">
        <ele>2.8</ele>
        <time>2025-01-28T10:52:36Z</time>
      </trkpt>
      <trkpt lat="47.6215" lon="-2.81617">
        <ele>2.8</ele>
        <time>2025-01-28T10:52:37Z</time>
      </trkpt>
      <trkpt lat="47.6215" lon="-2.81619">
        <ele>2.7</ele>
        <time>2025-01-28T10:52:38Z</time>
      </trkpt>
      <trkpt lat="47.62149" lon="-2.8162">
        <ele>2.7</ele>
        <time>2025-01-28T10:52:39Z</time>
      </trkpt>
      <trkpt lat="47.62149" lon="-2.81621">
        <ele>2.6</ele>
        <time>2025-01-28T10:52:40Z</time>
      </trkpt>
      <trkpt lat="47.62148" lon="-2.81623">
        <ele>2.6</ele>
        <time>2025-01-28T10:52:41Z</time>
      </trkpt>
      <trkpt lat="47.62147" lon="-2.81624">
        <ele>2.5</ele>
        <time>2025-01-28T10:52:42Z</time>
      </trkpt>
      <trkpt lat="47.62147" lon="-2.81625">
        <ele>2.5</ele>
        <time>2025-01-28T10:52:43Z</time>
      </trkpt>
      <trkpt lat="47.62146" lon="-2.81626">
        <ele>2.5</ele>
        <time>2025-01-28T10:52:44Z</time>
      </trkpt>
      <trkpt lat="47.62145" lon="-2.81627">
        <ele>2.4</ele>
        <time>2025-01-28T10:52:45Z</time>
      </trkpt>
      <trkpt lat="47.62144" lon="-2.81628">
        <ele>2.4</ele>
        <time>2025-01-28T10:52:46Z</time>
      </trkpt>
      <trkpt lat="47.62144" lon="-2.8163">
        <ele>2.3</ele>
        <time>2025-01-28T10:52:47Z</time>
      </trkpt>
      <trkpt lat="47.62143" lon="-2.81631">
        <ele>2.3</ele>
        <time>2025-01-28T10:52:48Z</time>
      </trkpt>
      <trkpt lat="47.62142" lon="-2.81632">
        <ele>2.2</ele>
        <time>2025-01-28T10:52:49Z</time>
      </trkpt>
      <trkpt lat="47.62142" lon="-2.81633">
        <ele>2.2</ele>
        <time>2025-01-28T10:52:50Z</time>
      </trkpt>
      <trkpt lat="47.62141" lon="-2.81634">
        <ele>2.2</ele>
        <time>2025-01-28T10:52:51Z</time>
      </trkpt>
      <trkpt lat="47.6214" lon="-2.81635">
        <ele>2.1</ele>
        <time>2025-01-28T10:52:52Z</time>
      </trkpt>
      <trkpt lat="47.62139" lon="-2.81636">
        <ele>2</ele>
        <time>2025-01-28T10:52:53Z</time>
      </trkpt>
      <trkpt lat="47.62138" lon="-2.81637">
        <ele>2</ele>
        <time>2025-01-28T10:52:54Z</time>
      </trkpt>
      <trkpt lat="47.62137" lon="-2.81638">
        <ele>2</ele>
        <time>2025-01-28T10:52:55Z</time>
      </trkpt>
      <trkpt lat="47.62136" lon="-2.81639">
        <ele>2</ele>
        <time>2025-01-28T10:52:56Z</time>
      </trkpt>
      <trkpt lat="47.62135" lon="-2.8164">
        <ele>2</ele>
        <time>2025-01-28T10:52:57Z</time>
      </trkpt>
      <trkpt lat="47.62134" lon="-2.81641">
        <ele>2</ele>
        <time>2025-01-28T10:52:58Z</time>
      </trkpt>
      <trkpt lat="47.62133" lon="-2.81643">
        <ele>2.1</ele>
        <time>2025-01-28T10:52:59Z</time>
      </trkpt>
      <trkpt lat="47.62132" lon="-2.81644">
        <ele>2.1</ele>
        <time>2025-01-28T10:53:00Z</time>
      </trkpt>
      <trkpt lat="47.62131" lon="-2.81645">
        <ele>2.1</ele>
        <time>2025-01-28T10:53:01Z</time>
      </trkpt>
      <trkpt lat="47.6213" lon="-2.81646">
        <ele>2.1</ele>
        <time>2025-01-28T10:53:02Z</time>
      </trkpt>
      <trkpt lat="47.6213" lon="-2.81647">
        <ele>2.1</ele>
        <time>2025-01-28T10:53:03Z</time>
      </trkpt>
      <trkpt lat="47.62129" lon="-2.81648">
        <ele>2.1</ele>
        <time>2025-01-28T10:53:04Z</time>
      </trkpt>
      <trkpt lat="47.62128" lon="-2.81649">
        <ele>2.1</ele>
        <time>2025-01-28T10:53:05Z</time>
      </trkpt>
      <trkpt lat="47.62127" lon="-2.81651">
        <ele>2.1</ele>
        <time>2025-01-28T10:53:06Z</time>
      </trkpt>
      <trkpt lat="47.62126" lon="-2.81652">
        <ele>2</ele>
        <time>2025-01-28T10:53:07Z</time>
      </trkpt>
      <trkpt lat="47.62126" lon="-2.81654">
        <ele>2</ele>
        <time>2025-01-28T10:53:08Z</time>
      </trkpt>
      <trkpt lat="47.62126" lon="-2.81656">
        <ele>2</ele>
        <time>2025-01-28T10:53:09Z</time>
      </trkpt>
      <trkpt lat="47.62126" lon="-2.81658">
        <ele>2</ele>
        <time>2025-01-28T10:53:10Z</time>
      </trkpt>
      <trkpt lat="47.62125" lon="-2.81659">
        <ele>2</ele>
        <time>2025-01-28T10:53:11Z</time>
      </trkpt>
      <trkpt lat="47.62124" lon="-2.81661">
        <ele>1.9</ele>
        <time>2025-01-28T10:53:12Z</time>
      </trkpt>
      <trkpt lat="47.62124" lon="-2.81663">
        <ele>1.9</ele>
        <time>2025-01-28T10:53:13Z</time>
      </trkpt>
      <trkpt lat="47.62123" lon="-2.81664">
        <ele>1.9</ele>
        <time>2025-01-28T10:53:14Z</time>
      </trkpt>
      <trkpt lat="47.62123" lon="-2.81666">
        <ele>1.8</ele>
        <time>2025-01-28T10:53:15Z</time>
      </trkpt>
      <trkpt lat="47.62122" lon="-2.81668">
        <ele>1.8</ele>
        <time>2025-01-28T10:53:16Z</time>
      </trkpt>
      <trkpt lat="47.62122" lon="-2.8167">
        <ele>1.9</ele>
        <time>2025-01-28T10:53:17Z</time>
      </trkpt>
      <trkpt lat="47.62121" lon="-2.81671">
        <ele>1.9</ele>
        <time>2025-01-28T10:53:18Z</time>
      </trkpt>
      <trkpt lat="47.62121" lon="-2.81673">
        <ele>2</ele>
        <time>2025-01-28T10:53:19Z</time>
      </trkpt>
      <trkpt lat="47.6212" lon="-2.81675">
        <ele>2.1</ele>
        <time>2025-01-28T10:53:20Z</time>
      </trkpt>
      <trkpt lat="47.62119" lon="-2.81677">
        <ele>2.1</ele>
        <time>2025-01-28T10:53:21Z</time>
      </trkpt>
      <trkpt lat="47.62118" lon="-2.81678">
        <ele>2.1</ele>
        <time>2025-01-28T10:53:22Z</time>
      </trkpt>
      <trkpt lat="47.62117" lon="-2.81679">
        <ele>2.1</ele>
        <time>2025-01-28T10:53:23Z</time>
      </trkpt>
      <trkpt lat="47.62115" lon="-2.81679">
        <ele>2</ele>
        <time>2025-01-28T10:53:24Z</time>
      </trkpt>
      <trkpt lat="47.62114" lon="-2.81679">
        <ele>2</ele>
        <time>2025-01-28T10:53:25Z</time>
      </trkpt>
      <trkpt lat="47.62113" lon="-2.81681">
        <ele>2.1</ele>
        <time>2025-01-28T10:53:26Z</time>
      </trkpt>
      <trkpt lat="47.62112" lon="-2.81683">
        <ele>2.2</ele>
        <time>2025-01-28T10:53:27Z</time>
      </trkpt>
      <trkpt lat="47.62112" lon="-2.81684">
        <ele>2.3</ele>
        <time>2025-01-28T10:53:28Z</time>
      </trkpt>
      <trkpt lat="47.62111" lon="-2.81686">
        <ele>2.4</ele>
        <time>2025-01-28T10:53:29Z</time>
      </trkpt>
      <trkpt lat="47.62111" lon="-2.81688">
        <ele>2.5</ele>
        <time>2025-01-28T10:53:30Z</time>
      </trkpt>
      <trkpt lat="47.6211" lon="-2.81689">
        <ele>2.6</ele>
        <time>2025-01-28T10:53:31Z</time>
      </trkpt>
      <trkpt lat="47.62109" lon="-2.8169">
        <ele>2.7</ele>
        <time>2025-01-28T10:53:32Z</time>
      </trkpt>
      <trkpt lat="47.62108" lon="-2.81691">
        <ele>2.7</ele>
        <time>2025-01-28T10:53:33Z</time>
      </trkpt>
      <trkpt lat="47.62107" lon="-2.81693">
        <ele>2.9</ele>
        <time>2025-01-28T10:53:34Z</time>
      </trkpt>
      <trkpt lat="47.62107" lon="-2.81695">
        <ele>3</ele>
        <time>2025-01-28T10:53:35Z</time>
      </trkpt>
      <trkpt lat="47.62107" lon="-2.81696">
        <ele>3.1</ele>
        <time>2025-01-28T10:53:36Z</time>
      </trkpt>
      <trkpt lat="47.62106" lon="-2.81698">
        <ele>3.1</ele>
        <time>2025-01-28T10:53:37Z</time>
      </trkpt>
      <trkpt lat="47.62106" lon="-2.81699">
        <ele>3.2</ele>
        <time>2025-01-28T10:53:38Z</time>
      </trkpt>
      <trkpt lat="47.62105" lon="-2.81701">
        <ele>3.2</ele>
        <time>2025-01-28T10:53:39Z</time>
      </trkpt>
      <trkpt lat="47.62105" lon="-2.81702">
        <ele>3.3</ele>
        <time>2025-01-28T10:53:40Z</time>
      </trkpt>
      <trkpt lat="47.62104" lon="-2.81704">
        <ele>3.3</ele>
        <time>2025-01-28T10:53:41Z</time>
      </trkpt>
      <trkpt lat="47.62104" lon="-2.81706">
        <ele>3.4</ele>
        <time>2025-01-28T10:53:42Z</time>
      </trkpt>
      <trkpt lat="47.62103" lon="-2.81707">
        <ele>3.4</ele>
        <time>2025-01-28T10:53:43Z</time>
      </trkpt>
      <trkpt lat="47.62102" lon="-2.81708">
        <ele>3.5</ele>
        <time>2025-01-28T10:53:44Z</time>
      </trkpt>
      <trkpt lat="47.62102" lon="-2.8171">
        <ele>3.6</ele>
        <time>2025-01-28T10:53:45Z</time>
      </trkpt>
      <trkpt lat="47.62102" lon="-2.81712">
        <ele>3.6</ele>
        <time>2025-01-28T10:53:46Z</time>
      </trkpt>
      <trkpt lat="47.62101" lon="-2.81713">
        <ele>3.7</ele>
        <time>2025-01-28T10:53:47Z</time>
      </trkpt>
      <trkpt lat="47.621" lon="-2.81714">
        <ele>3.7</ele>
        <time>2025-01-28T10:53:48Z</time>
      </trkpt>
      <trkpt lat="47.62099" lon="-2.81716">
        <ele>3.8</ele>
        <time>2025-01-28T10:53:49Z</time>
      </trkpt>
      <trkpt lat="47.62099" lon="-2.81718">
        <ele>3.8</ele>
        <time>2025-01-28T10:53:50Z</time>
      </trkpt>
      <trkpt lat="47.62098" lon="-2.8172">
        <ele>3.9</ele>
        <time>2025-01-28T10:53:51Z</time>
      </trkpt>
      <trkpt lat="47.62098" lon="-2.81721">
        <ele>4</ele>
        <time>2025-01-28T10:53:52Z</time>
      </trkpt>
      <trkpt lat="47.62097" lon="-2.81722">
        <ele>4</ele>
        <time>2025-01-28T10:53:53Z</time>
      </trkpt>
      <trkpt lat="47.62096" lon="-2.81724">
        <ele>4</ele>
        <time>2025-01-28T10:53:54Z</time>
      </trkpt>
      <trkpt lat="47.62096" lon="-2.81726">
        <ele>3.9</ele>
        <time>2025-01-28T10:53:55Z</time>
      </trkpt>
      <trkpt lat="47.62095" lon="-2.81727">
        <ele>3.9</ele>
        <time>2025-01-28T10:53:56Z</time>
      </trkpt>
      <trkpt lat="47.62094" lon="-2.81729">
        <ele>3.9</ele>
        <time>2025-01-28T10:53:57Z</time>
      </trkpt>
      <trkpt lat="47.62094" lon="-2.8173">
        <ele>3.8</ele>
        <time>2025-01-28T10:53:58Z</time>
      </trkpt>
      <trkpt lat="47.62093" lon="-2.81731">
        <ele>3.8</ele>
        <time>2025-01-28T10:53:59Z</time>
      </trkpt>
      <trkpt lat="47.62092" lon="-2.81733">
        <ele>3.7</ele>
        <time>2025-01-28T10:54:00Z</time>
      </trkpt>
      <trkpt lat="47.62091" lon="-2.81734">
        <ele>3.7</ele>
        <time>2025-01-28T10:54:01Z</time>
      </trkpt>
      <trkpt lat="47.6209" lon="-2.81736">
        <ele>3.6</ele>
        <time>2025-01-28T10:54:02Z</time>
      </trkpt>
      <trkpt lat="47.62089" lon="-2.81737">
        <ele>3.6</ele>
        <time>2025-01-28T10:54:03Z</time>
      </trkpt>
      <trkpt lat="47.62088" lon="-2.81738">
        <ele>3.5</ele>
        <time>2025-01-28T10:54:04Z</time>
      </trkpt>
      <trkpt lat="47.62087" lon="-2.8174">
        <ele>3.5</ele>
        <time>2025-01-28T10:54:05Z</time>
      </trkpt>
      <trkpt lat="47.62087" lon="-2.81741">
        <ele>3.4</ele>
        <time>2025-01-28T10:54:06Z</time>
      </trkpt>
      <trkpt lat="47.62086" lon="-2.81742">
        <ele>3.3</ele>
        <time>2025-01-28T10:54:07Z</time>
      </trkpt>
      <trkpt lat="47.62085" lon="-2.81744">
        <ele>3.3</ele>
        <time>2025-01-28T10:54:08Z</time>
      </trkpt>
      <trkpt lat="47.62085" lon="-2.81746">
        <ele>3.2</ele>
        <time>2025-01-28T10:54:09Z</time>
      </trkpt>
      <trkpt lat="47.62084" lon="-2.81747">
        <ele>3.1</ele>
        <time>2025-01-28T10:54:10Z</time>
      </trkpt>
      <trkpt lat="47.62084" lon="-2.81749">
        <ele>3.1</ele>
        <time>2025-01-28T10:54:11Z</time>
      </trkpt>
      <trkpt lat="47.62082" lon="-2.8175">
        <ele>3</ele>
        <time>2025-01-28T10:54:12Z</time>
      </trkpt>
      <trkpt lat="47.62082" lon="-2.81752">
        <ele>3.1</ele>
        <time>2025-01-28T10:54:13Z</time>
      </trkpt>
      <trkpt lat="47.62081" lon="-2.81753">
        <ele>3.2</ele>
        <time>2025-01-28T10:54:14Z</time>
      </trkpt>
      <trkpt lat="47.62081" lon="-2.81755">
        <ele>3.3</ele>
        <time>2025-01-28T10:54:15Z</time>
      </trkpt>
      <trkpt lat="47.6208" lon="-2.81756">
        <ele>3.5</ele>
        <time>2025-01-28T10:54:16Z</time>
      </trkpt>
      <trkpt lat="47.62079" lon="-2.81758">
        <ele>3.6</ele>
        <time>2025-01-28T10:54:17Z</time>
      </trkpt>
      <trkpt lat="47.62079" lon="-2.81759">
        <ele>3.7</ele>
        <time>2025-01-28T10:54:18Z</time>
      </trkpt>
      <trkpt lat="47.62078" lon="-2.81761">
        <ele>3.8</ele>
        <time>2025-01-28T10:54:19Z</time>
      </trkpt>
      <trkpt lat="47.62077" lon="-2.81762">
        <ele>3.8</ele>
        <time>2025-01-28T10:54:20Z</time>
      </trkpt>
      <trkpt lat="47.62076" lon="-2.81763">
        <ele>4</ele>
        <time>2025-01-28T10:54:21Z</time>
      </trkpt>
      <trkpt lat="47.62076" lon="-2.81765">
        <ele>4.1</ele>
        <time>2025-01-28T10:54:22Z</time>
      </trkpt>
      <trkpt lat="47.62075" lon="-2.81766">
        <ele>4.2</ele>
        <time>2025-01-28T10:54:23Z</time>
      </trkpt>
      <trkpt lat="47.62075" lon="-2.81768">
        <ele>4.3</ele>
        <time>2025-01-28T10:54:24Z</time>
      </trkpt>
      <trkpt lat="47.62074" lon="-2.81769">
        <ele>4.4</ele>
        <time>2025-01-28T10:54:25Z</time>
      </trkpt>
      <trkpt lat="47.62073" lon="-2.81771">
        <ele>4.5</ele>
        <time>2025-01-28T10:54:26Z</time>
      </trkpt>
      <trkpt lat="47.62072" lon="-2.81772">
        <ele>4.6</ele>
        <time>2025-01-28T10:54:27Z</time>
      </trkpt>
      <trkpt lat="47.62071" lon="-2.81773">
        <ele>4.6</ele>
        <time>2025-01-28T10:54:28Z</time>
      </trkpt>
      <trkpt lat="47.62071" lon="-2.81774">
        <ele>4.7</ele>
        <time>2025-01-28T10:54:29Z</time>
      </trkpt>
      <trkpt lat="47.6207" lon="-2.81776">
        <ele>4.9</ele>
        <time>2025-01-28T10:54:30Z</time>
      </trkpt>
      <trkpt lat="47.62069" lon="-2.81777">
        <ele>5</ele>
        <time>2025-01-28T10:54:31Z</time>
      </trkpt>
      <trkpt lat="47.62068" lon="-2.81778">
        <ele>5</ele>
        <time>2025-01-28T10:54:32Z</time>
      </trkpt>
      <trkpt lat="47.62067" lon="-2.8178">
        <ele>5</ele>
        <time>2025-01-28T10:54:33Z</time>
      </trkpt>
      <trkpt lat="47.62067" lon="-2.81781">
        <ele>4.9</ele>
        <time>2025-01-28T10:54:34Z</time>
      </trkpt>
      <trkpt lat="47.62066" lon="-2.81782">
        <ele>4.9</ele>
        <time>2025-01-28T10:54:35Z</time>
      </trkpt>
      <trkpt lat="47.62066" lon="-2.81784">
        <ele>4.8</ele>
        <time>2025-01-28T10:54:36Z</time>
      </trkpt>
      <trkpt lat="47.62066" lon="-2.81786">
        <ele>4.7</ele>
        <time>2025-01-28T10:54:37Z</time>
      </trkpt>
      <trkpt lat="47.62065" lon="-2.81787">
        <ele>4.7</ele>
        <time>2025-01-28T10:54:38Z</time>
      </trkpt>
      <trkpt lat="47.62064" lon="-2.81788">
        <ele>4.6</ele>
        <time>2025-01-28T10:54:39Z</time>
      </trkpt>
      <trkpt lat="47.62063" lon="-2.8179">
        <ele>4.5</ele>
        <time>2025-01-28T10:54:40Z</time>
      </trkpt>
      <trkpt lat="47.62063" lon="-2.81791">
        <ele>4.4</ele>
        <time>2025-01-28T10:54:41Z</time>
      </trkpt>
      <trkpt lat="47.62062" lon="-2.81793">
        <ele>4.3</ele>
        <time>2025-01-28T10:54:42Z</time>
      </trkpt>
      <trkpt lat="47.62061" lon="-2.81795">
        <ele>4.2</ele>
        <time>2025-01-28T10:54:43Z</time>
      </trkpt>
      <trkpt lat="47.62061" lon="-2.81796">
        <ele>4</ele>
        <time>2025-01-28T10:54:44Z</time>
      </trkpt>
      <trkpt lat="47.6206" lon="-2.81798">
        <ele>3.9</ele>
        <time>2025-01-28T10:54:45Z</time>
      </trkpt>
      <trkpt lat="47.62059" lon="-2.81799">
        <ele>3.8</ele>
        <time>2025-01-28T10:54:46Z</time>
      </trkpt>
      <trkpt lat="47.62059" lon="-2.81801">
        <ele>3.6</ele>
        <time>2025-01-28T10:54:47Z</time>
      </trkpt>
      <trkpt lat="47.62058" lon="-2.81802">
        <ele>3.4</ele>
        <time>2025-01-28T10:54:48Z</time>
      </trkpt>
      <trkpt lat="47.62057" lon="-2.81804">
        <ele>3.3</ele>
        <time>2025-01-28T10:54:49Z</time>
      </trkpt>
      <trkpt lat="47.62056" lon="-2.81806">
        <ele>3.1</ele>
        <time>2025-01-28T10:54:50Z</time>
      </trkpt>
      <trkpt lat="47.62055" lon="-2.81807">
        <ele>3.1</ele>
        <time>2025-01-28T10:54:51Z</time>
      </trkpt>
      <trkpt lat="47.62055" lon="-2.81808">
        <ele>3.2</ele>
        <time>2025-01-28T10:54:52Z</time>
      </trkpt>
      <trkpt lat="47.62054" lon="-2.8181">
        <ele>3.3</ele>
        <time>2025-01-28T10:54:53Z</time>
      </trkpt>
      <trkpt lat="47.62054" lon="-2.81812">
        <ele>3.4</ele>
        <time>2025-01-28T10:54:54Z</time>
      </trkpt>
      <trkpt lat="47.62053" lon="-2.81813">
        <ele>3.6</ele>
        <time>2025-01-28T10:54:55Z</time>
      </trkpt>
      <trkpt lat="47.62053" lon="-2.81815">
        <ele>3.7</ele>
        <time>2025-01-28T10:54:56Z</time>
      </trkpt>
      <trkpt lat="47.62052" lon="-2.81817">
        <ele>3.8</ele>
        <time>2025-01-28T10:54:57Z</time>
      </trkpt>
      <trkpt lat="47.62052" lon="-2.81818">
        <ele>3.9</ele>
        <time>2025-01-28T10:54:58Z</time>
      </trkpt>
      <trkpt lat="47.62052" lon="-2.8182">
        <ele>4.1</ele>
        <time>2025-01-28T10:54:59Z</time>
      </trkpt>
      <trkpt lat="47.62051" lon="-2.81822">
        <ele>4.2</ele>
        <time>2025-01-28T10:55:00Z</time>
      </trkpt>
      <trkpt lat="47.62051" lon="-2.81824">
        <ele>4.3</ele>
        <time>2025-01-28T10:55:01Z</time>
      </trkpt>
      <trkpt lat="47.6205" lon="-2.81826">
        <ele>4.5</ele>
        <time>2025-01-28T10:55:02Z</time>
      </trkpt>
      <trkpt lat="47.6205" lon="-2.81827">
        <ele>4.6</ele>
        <time>2025-01-28T10:55:03Z</time>
      </trkpt>
      <trkpt lat="47.6205" lon="-2.81829">
        <ele>4.7</ele>
        <time>2025-01-28T10:55:04Z</time>
      </trkpt>
      <trkpt lat="47.62049" lon="-2.81831">
        <ele>4.8</ele>
        <time>2025-01-28T10:55:05Z</time>
      </trkpt>
      <trkpt lat="47.62049" lon="-2.81833">
        <ele>5</ele>
        <time>2025-01-28T10:55:06Z</time>
      </trkpt>
      <trkpt lat="47.62048" lon="-2.81834">
        <ele>5</ele>
        <time>2025-01-28T10:55:07Z</time>
      </trkpt>
      <trkpt lat="47.62048" lon="-2.81836">
        <ele>5</ele>
        <time>2025-01-28T10:55:08Z</time>
      </trkpt>
      <trkpt lat="47.62048" lon="-2.81838">
        <ele>5</ele>
        <time>2025-01-28T10:55:09Z</time>
      </trkpt>
      <trkpt lat="47.62048" lon="-2.8184">
        <ele>4.9</ele>
        <time>2025-01-28T10:55:10Z</time>
      </trkpt>
      <trkpt lat="47.62048" lon="-2.81842">
        <ele>4.9</ele>
        <time>2025-01-28T10:55:11Z</time>
      </trkpt>
      <trkpt lat="47.62048" lon="-2.81844">
        <ele>4.9</ele>
        <time>2025-01-28T10:55:12Z</time>
      </trkpt>
      <trkpt lat="47.62048" lon="-2.81845">
        <ele>4.8</ele>
        <time>2025-01-28T10:55:13Z</time>
      </trkpt>
      <trkpt lat="47.62047" lon="-2.81847">
        <ele>4.8</ele>
        <time>2025-01-28T10:55:14Z</time>
      </trkpt>
      <trkpt lat="47.62047" lon="-2.81848">
        <ele>4.7</ele>
        <time>2025-01-28T10:55:15Z</time>
      </trkpt>
      <trkpt lat="47.62047" lon="-2.8185">
        <ele>4.7</ele>
        <time>2025-01-28T10:55:16Z</time>
      </trkpt>
      <trkpt lat="47.62047" lon="-2.81852">
        <ele>4.6</ele>
        <time>2025-01-28T10:55:17Z</time>
      </trkpt>
      <trkpt lat="47.62046" lon="-2.81854">
        <ele>4.5</ele>
        <time>2025-01-28T10:55:18Z</time>
      </trkpt>
      <trkpt lat="47.62045" lon="-2.81855">
        <ele>4.3</ele>
        <time>2025-01-28T10:55:19Z</time>
      </trkpt>
      <trkpt lat="47.62045" lon="-2.81856">
        <ele>4.3</ele>
        <time>2025-01-28T10:55:20Z</time>
      </trkpt>
      <trkpt lat="47.62045" lon="-2.81858">
        <ele>4.1</ele>
        <time>2025-01-28T10:55:21Z</time>
      </trkpt>
      <trkpt lat="47.62044" lon="-2.81859">
        <ele>4</ele>
        <time>2025-01-28T10:55:22Z</time>
      </trkpt>
      <trkpt lat="47.62044" lon="-2.81861">
        <ele>3.9</ele>
        <time>2025-01-28T10:55:23Z</time>
      </trkpt>
      <trkpt lat="47.62043" lon="-2.81863">
        <ele>3.8</ele>
        <time>2025-01-28T10:55:24Z</time>
      </trkpt>
      <trkpt lat="47.62043" lon="-2.81865">
        <ele>3.8</ele>
        <time>2025-01-28T10:55:25Z</time>
      </trkpt>
      <trkpt lat="47.62043" lon="-2.81866">
        <ele>3.8</ele>
        <time>2025-01-28T10:55:26Z</time>
      </trkpt>
      <trkpt lat="47.62043" lon="-2.81868">
        <ele>3.8</ele>
        <time>2025-01-28T10:55:27Z</time>
      </trkpt>
      <trkpt lat="47.62042" lon="-2.81869">
        <ele>3.7</ele>
        <time>2025-01-28T10:55:28Z</time>
      </trkpt>
      <trkpt lat="47.62042" lon="-2.81871">
        <ele>3.7</ele>
        <time>2025-01-28T10:55:29Z</time>
      </trkpt>
      <trkpt lat="47.62041" lon="-2.81872">
        <ele>3.6</ele>
        <time>2025-01-28T10:55:30Z</time>
      </trkpt>
      <trkpt lat="47.6204" lon="-2.81874">
        <ele>3.5</ele>
        <time>2025-01-28T10:55:31Z</time>
      </trkpt>
      <trkpt lat="47.6204" lon="-2.81875">
        <ele>3.5</ele>
        <time>2025-01-28T10:55:32Z</time>
      </trkpt>
      <trkpt lat="47.62039" lon="-2.81877">
        <ele>3.4</ele>
        <time>2025-01-28T10:55:33Z</time>
      </trkpt>
      <trkpt lat="47.62039" lon="-2.81878">
        <ele>3.3</ele>
        <time>2025-01-28T10:55:34Z</time>
      </trkpt>
      <trkpt lat="47.62038" lon="-2.8188">
        <ele>3.3</ele>
        <time>2025-01-28T10:55:35Z</time>
      </trkpt>
      <trkpt lat="47.62038" lon="-2.81882">
        <ele>3.3</ele>
        <time>2025-01-28T10:55:36Z</time>
      </trkpt>
      <trkpt lat="47.62038" lon="-2.81883">
        <ele>3.3</ele>
        <time>2025-01-28T10:55:37Z</time>
      </trkpt>
      <trkpt lat="47.62037" lon="-2.81885">
        <ele>3.3</ele>
        <time>2025-01-28T10:55:38Z</time>
      </trkpt>
      <trkpt lat="47.62037" lon="-2.81886">
        <ele>3.2</ele>
        <time>2025-01-28T10:55:39Z</time>
      </trkpt>
      <trkpt lat="47.62036" lon="-2.81887">
        <ele>3.1</ele>
        <time>2025-01-28T10:55:40Z</time>
      </trkpt>
      <trkpt lat="47.62036" lon="-2.81889">
        <ele>3.1</ele>
        <time>2025-01-28T10:55:41Z</time>
      </trkpt>
      <trkpt lat="47.62035" lon="-2.8189">
        <ele>3.1</ele>
        <time>2025-01-28T10:55:42Z</time>
      </trkpt>
      <trkpt lat="47.62034" lon="-2.81891">
        <ele>3.1</ele>
        <time>2025-01-28T10:55:43Z</time>
      </trkpt>
      <trkpt lat="47.62033" lon="-2.81892">
        <ele>3.1</ele>
        <time>2025-01-28T10:55:44Z</time>
      </trkpt>
      <trkpt lat="47.62032" lon="-2.81893">
        <ele>3</ele>
        <time>2025-01-28T10:55:45Z</time>
      </trkpt>
      <trkpt lat="47.62031" lon="-2.81894">
        <ele>3.1</ele>
        <time>2025-01-28T10:55:46Z</time>
      </trkpt>
      <trkpt lat="47.6203" lon="-2.81896">
        <ele>3.2</ele>
        <time>2025-01-28T10:55:47Z</time>
      </trkpt>
      <trkpt lat="47.62029" lon="-2.81897">
        <ele>3.3</ele>
        <time>2025-01-28T10:55:48Z</time>
      </trkpt>
      <trkpt lat="47.62028" lon="-2.81898">
        <ele>3.4</ele>
        <time>2025-01-28T10:55:49Z</time>
      </trkpt>
      <trkpt lat="47.62028" lon="-2.81899">
        <ele>3.5</ele>
        <time>2025-01-28T10:55:50Z</time>
      </trkpt>
      <trkpt lat="47.62028" lon="-2.81901">
        <ele>3.8</ele>
        <time>2025-01-28T10:55:51Z</time>
      </trkpt>
      <trkpt lat="47.62028" lon="-2.81903">
        <ele>4</ele>
        <time>2025-01-28T10:55:52Z</time>
      </trkpt>
      <trkpt lat="47.62027" lon="-2.81904">
        <ele>4.2</ele>
        <time>2025-01-28T10:55:53Z</time>
      </trkpt>
      <trkpt lat="47.62026" lon="-2.81906">
        <ele>4.4</ele>
        <time>2025-01-28T10:55:54Z</time>
      </trkpt>
      <trkpt lat="47.62025" lon="-2.81907">
        <ele>4.6</ele>
        <time>2025-01-28T10:55:55Z</time>
      </trkpt>
      <trkpt lat="47.62025" lon="-2.81909">
        <ele>4.9</ele>
        <time>2025-01-28T10:55:56Z</time>
      </trkpt>
      <trkpt lat="47.62025" lon="-2.81911">
        <ele>5.1</ele>
        <time>2025-01-28T10:55:57Z</time>
      </trkpt>
      <trkpt lat="47.62024" lon="-2.81912">
        <ele>5.3</ele>
        <time>2025-01-28T10:55:58Z</time>
      </trkpt>
      <trkpt lat="47.62023" lon="-2.81914">
        <ele>5.6</ele>
        <time>2025-01-28T10:55:59Z</time>
      </trkpt>
      <trkpt lat="47.62023" lon="-2.81915">
        <ele>5.7</ele>
        <time>2025-01-28T10:56:00Z</time>
      </trkpt>
      <trkpt lat="47.62022" lon="-2.81916">
        <ele>5.9</ele>
        <time>2025-01-28T10:56:01Z</time>
      </trkpt>
      <trkpt lat="47.62021" lon="-2.81918">
        <ele>6</ele>
        <time>2025-01-28T10:56:02Z</time>
      </trkpt>
      <trkpt lat="47.62021" lon="-2.81919">
        <ele>6</ele>
        <time>2025-01-28T10:56:03Z</time>
      </trkpt>
      <trkpt lat="47.6202" lon="-2.81921">
        <ele>5.9</ele>
        <time>2025-01-28T10:56:04Z</time>
      </trkpt>
      <trkpt lat="47.6202" lon="-2.81922">
        <ele>5.9</ele>
        <time>2025-01-28T10:56:05Z</time>
      </trkpt>
      <trkpt lat="47.62019" lon="-2.81924">
        <ele>5.8</ele>
        <time>2025-01-28T10:56:06Z</time>
      </trkpt>
      <trkpt lat="47.62018" lon="-2.81925">
        <ele>5.8</ele>
        <time>2025-01-28T10:56:07Z</time>
      </trkpt>
      <trkpt lat="47.62018" lon="-2.81927">
        <ele>5.7</ele>
        <time>2025-01-28T10:56:08Z</time>
      </trkpt>
      <trkpt lat="47.62017" lon="-2.81928">
        <ele>5.7</ele>
        <time>2025-01-28T10:56:09Z</time>
      </trkpt>
      <trkpt lat="47.62016" lon="-2.8193">
        <ele>5.6</ele>
        <time>2025-01-28T10:56:10Z</time>
      </trkpt>
      <trkpt lat="47.62015" lon="-2.81931">
        <ele>5.5</ele>
        <time>2025-01-28T10:56:11Z</time>
      </trkpt>
      <trkpt lat="47.62014" lon="-2.81932">
        <ele>5.5</ele>
        <time>2025-01-28T10:56:12Z</time>
      </trkpt>
      <trkpt lat="47.62013" lon="-2.81934">
        <ele>5.4</ele>
        <time>2025-01-28T10:56:13Z</time>
      </trkpt>
      <trkpt lat="47.62012" lon="-2.81935">
        <ele>5.3</ele>
        <time>2025-01-28T10:56:14Z</time>
      </trkpt>
      <trkpt lat="47.62011" lon="-2.81936">
        <ele>5.2</ele>
        <time>2025-01-28T10:56:15Z</time>
      </trkpt>
      <trkpt lat="47.6201" lon="-2.81937">
        <ele>5.1</ele>
        <time>2025-01-28T10:56:16Z</time>
      </trkpt>
      <trkpt lat="47.62009" lon="-2.81938">
        <ele>5</ele>
        <time>2025-01-28T10:56:17Z</time>
      </trkpt>
      <trkpt lat="47.62009" lon="-2.8194">
        <ele>4.9</ele>
        <time>2025-01-28T10:56:18Z</time>
      </trkpt>
      <trkpt lat="47.62007" lon="-2.8194">
        <ele>4.7</ele>
        <time>2025-01-28T10:56:19Z</time>
      </trkpt>
      <trkpt lat="47.62006" lon="-2.81941">
        <ele>4.6</ele>
        <time>2025-01-28T10:56:20Z</time>
      </trkpt>
      <trkpt lat="47.62005" lon="-2.81942">
        <ele>4.5</ele>
        <time>2025-01-28T10:56:21Z</time>
      </trkpt>
      <trkpt lat="47.62004" lon="-2.81943">
        <ele>4.4</ele>
        <time>2025-01-28T10:56:22Z</time>
      </trkpt>
      <trkpt lat="47.62003" lon="-2.81943">
        <ele>4.3</ele>
        <time>2025-01-28T10:56:23Z</time>
      </trkpt>
      <trkpt lat="47.62002" lon="-2.81944">
        <ele>4.2</ele>
        <time>2025-01-28T10:56:24Z</time>
      </trkpt>
      <trkpt lat="47.62001" lon="-2.81945">
        <ele>4.1</ele>
        <time>2025-01-28T10:56:25Z</time>
      </trkpt>
      <trkpt lat="47.62" lon="-2.81946">
        <ele>4.1</ele>
        <time>2025-01-28T10:56:26Z</time>
      </trkpt>
      <trkpt lat="47.61999" lon="-2.81947">
        <ele>4.2</ele>
        <time>2025-01-28T10:56:27Z</time>
      </trkpt>
      <trkpt lat="47.61998" lon="-2.81948">
        <ele>4.3</ele>
        <time>2025-01-28T10:56:28Z</time>
      </trkpt>
      <trkpt lat="47.61997" lon="-2.8195">
        <ele>4.4</ele>
        <time>2025-01-28T10:56:29Z</time>
      </trkpt>
      <trkpt lat="47.61997" lon="-2.81952">
        <ele>4.5</ele>
        <time>2025-01-28T10:56:30Z</time>
      </trkpt>
      <trkpt lat="47.61996" lon="-2.81953">
        <ele>4.6</ele>
        <time>2025-01-28T10:56:31Z</time>
      </trkpt>
      <trkpt lat="47.61995" lon="-2.81955">
        <ele>4.7</ele>
        <time>2025-01-28T10:56:32Z</time>
      </trkpt>
      <trkpt lat="47.61994" lon="-2.81956">
        <ele>4.8</ele>
        <time>2025-01-28T10:56:33Z</time>
      </trkpt>
      <trkpt lat="47.61993" lon="-2.81957">
        <ele>4.9</ele>
        <time>2025-01-28T10:56:34Z</time>
      </trkpt>
      <trkpt lat="47.61993" lon="-2.81959">
        <ele>5</ele>
        <time>2025-01-28T10:56:35Z</time>
      </trkpt>
      <trkpt lat="47.61991" lon="-2.8196">
        <ele>5.1</ele>
        <time>2025-01-28T10:56:36Z</time>
      </trkpt>
      <trkpt lat="47.61991" lon="-2.81962">
        <ele>5.2</ele>
        <time>2025-01-28T10:56:37Z</time>
      </trkpt>
      <trkpt lat="47.6199" lon="-2.81963">
        <ele>5.3</ele>
        <time>2025-01-28T10:56:38Z</time>
      </trkpt>
      <trkpt lat="47.6199" lon="-2.81964">
        <ele>5.4</ele>
        <time>2025-01-28T10:56:39Z</time>
      </trkpt>
      <trkpt lat="47.61989" lon="-2.81966">
        <ele>5.5</ele>
        <time>2025-01-28T10:56:40Z</time>
      </trkpt>
      <trkpt lat="47.61989" lon="-2.81967">
        <ele>5.6</ele>
        <time>2025-01-28T10:56:41Z</time>
      </trkpt>
      <trkpt lat="47.61989" lon="-2.81969">
        <ele>5.7</ele>
        <time>2025-01-28T10:56:42Z</time>
      </trkpt>
      <trkpt lat="47.61989" lon="-2.8197">
        <ele>5.9</ele>
        <time>2025-01-28T10:56:43Z</time>
      </trkpt>
      <trkpt lat="47.61989" lon="-2.81972">
        <ele>6</ele>
        <time>2025-01-28T10:56:44Z</time>
      </trkpt>
      <trkpt lat="47.61988" lon="-2.81973">
        <ele>6</ele>
        <time>2025-01-28T10:56:45Z</time>
      </trkpt>
      <trkpt lat="47.61988" lon="-2.81975">
        <ele>6.1</ele>
        <time>2025-01-28T10:56:46Z</time>
      </trkpt>
      <trkpt lat="47.61988" lon="-2.81977">
        <ele>6.2</ele>
        <time>2025-01-28T10:56:47Z</time>
      </trkpt>
      <trkpt lat="47.61988" lon="-2.81979">
        <ele>6.2</ele>
        <time>2025-01-28T10:56:48Z</time>
      </trkpt>
      <trkpt lat="47.61988" lon="-2.81981">
        <ele>6.3</ele>
        <time>2025-01-28T10:56:49Z</time>
      </trkpt>
      <trkpt lat="47.61988" lon="-2.81983">
        <ele>6.4</ele>
        <time>2025-01-28T10:56:50Z</time>
      </trkpt>
      <trkpt lat="47.61988" lon="-2.81984">
        <ele>6.4</ele>
        <time>2025-01-28T10:56:51Z</time>
      </trkpt>
      <trkpt lat="47.61988" lon="-2.81986">
        <ele>6.5</ele>
        <time>2025-01-28T10:56:52Z</time>
      </trkpt>
      <trkpt lat="47.61988" lon="-2.81988">
        <ele>6.6</ele>
        <time>2025-01-28T10:56:53Z</time>
      </trkpt>
      <trkpt lat="47.61988" lon="-2.8199">
        <ele>6.6</ele>
        <time>2025-01-28T10:56:54Z</time>
      </trkpt>
      <trkpt lat="47.61988" lon="-2.81991">
        <ele>6.7</ele>
        <time>2025-01-28T10:56:55Z</time>
      </trkpt>
      <trkpt lat="47.61988" lon="-2.81993">
        <ele>6.7</ele>
        <time>2025-01-28T10:56:56Z</time>
      </trkpt>
      <trkpt lat="47.61988" lon="-2.81994">
        <ele>6.8</ele>
        <time>2025-01-28T10:56:57Z</time>
      </trkpt>
      <trkpt lat="47.61988" lon="-2.81996">
        <ele>6.8</ele>
        <time>2025-01-28T10:56:58Z</time>
      </trkpt>
      <trkpt lat="47.61988" lon="-2.81998">
        <ele>6.9</ele>
        <time>2025-01-28T10:56:59Z</time>
      </trkpt>
      <trkpt lat="47.61987" lon="-2.81999">
        <ele>7</ele>
        <time>2025-01-28T10:57:00Z</time>
      </trkpt>
      <trkpt lat="47.61987" lon="-2.81999">
        <ele>7</ele>
        <time>2025-01-28T10:57:01Z</time>
      </trkpt>
      <trkpt lat="47.61987" lon="-2.82001">
        <ele>7</ele>
        <time>2025-01-28T10:57:02Z</time>
      </trkpt>
      <trkpt lat="47.61986" lon="-2.82003">
        <ele>7.1</ele>
        <time>2025-01-28T10:57:03Z</time>
      </trkpt>
      <trkpt lat="47.61986" lon="-2.82004">
        <ele>7.2</ele>
        <time>2025-01-28T10:57:04Z</time>
      </trkpt>
      <trkpt lat="47.61986" lon="-2.82006">
        <ele>7.2</ele>
        <time>2025-01-28T10:57:05Z</time>
      </trkpt>
      <trkpt lat="47.61985" lon="-2.82008">
        <ele>7.3</ele>
        <time>2025-01-28T10:57:06Z</time>
      </trkpt>
      <trkpt lat="47.61985" lon="-2.8201">
        <ele>7.4</ele>
        <time>2025-01-28T10:57:07Z</time>
      </trkpt>
      <trkpt lat="47.61986" lon="-2.82012">
        <ele>7.4</ele>
        <time>2025-01-28T10:57:08Z</time>
      </trkpt>
      <trkpt lat="47.61985" lon="-2.82014">
        <ele>7.5</ele>
        <time>2025-01-28T10:57:09Z</time>
      </trkpt>
      <trkpt lat="47.61985" lon="-2.82016">
        <ele>7.6</ele>
        <time>2025-01-28T10:57:10Z</time>
      </trkpt>
      <trkpt lat="47.61985" lon="-2.82017">
        <ele>7.6</ele>
        <time>2025-01-28T10:57:11Z</time>
      </trkpt>
      <trkpt lat="47.61985" lon="-2.82019">
        <ele>7.7</ele>
        <time>2025-01-28T10:57:12Z</time>
      </trkpt>
      <trkpt lat="47.61984" lon="-2.82021">
        <ele>7.7</ele>
        <time>2025-01-28T10:57:13Z</time>
      </trkpt>
      <trkpt lat="47.61984" lon="-2.82023">
        <ele>7.8</ele>
        <time>2025-01-28T10:57:14Z</time>
      </trkpt>
      <trkpt lat="47.61984" lon="-2.82024">
        <ele>7.9</ele>
        <time>2025-01-28T10:57:15Z</time>
      </trkpt>
      <trkpt lat="47.61984" lon="-2.82026">
        <ele>7.9</ele>
        <time>2025-01-28T10:57:16Z</time>
      </trkpt>
      <trkpt lat="47.61984" lon="-2.82028">
        <ele>8</ele>
        <time>2025-01-28T10:57:17Z</time>
      </trkpt>
      <trkpt lat="47.61984" lon="-2.82029">
        <ele>8</ele>
        <time>2025-01-28T10:57:18Z</time>
      </trkpt>
      <trkpt lat="47.61984" lon="-2.82031">
        <ele>8</ele>
        <time>2025-01-28T10:57:19Z</time>
      </trkpt>
      <trkpt lat="47.61983" lon="-2.82032">
        <ele>8</ele>
        <time>2025-01-28T10:57:20Z</time>
      </trkpt>
      <trkpt lat="47.61983" lon="-2.82033">
        <ele>8</ele>
        <time>2025-01-28T10:57:21Z</time>
      </trkpt>
      <trkpt lat="47.61984" lon="-2.82035">
        <ele>8</ele>
        <time>2025-01-28T10:57:22Z</time>
      </trkpt>
      <trkpt lat="47.61984" lon="-2.82036">
        <ele>8</ele>
        <time>2025-01-28T10:57:23Z</time>
      </trkpt>
      <trkpt lat="47.61984" lon="-2.82037">
        <ele>8</ele>
        <time>2025-01-28T10:57:24Z</time>
      </trkpt>
      <trkpt lat="47.61983" lon="-2.82038">
        <ele>8</ele>
        <time>2025-01-28T10:57:25Z</time>
      </trkpt>
      <trkpt lat="47.61983" lon="-2.82039">
        <ele>8</ele>
        <time>2025-01-28T10:57:26Z</time>
      </trkpt>
      <trkpt lat="47.61984" lon="-2.82041">
        <ele>8</ele>
        <time>2025-01-28T10:57:27Z</time>
      </trkpt>
      <trkpt lat="47.61983" lon="-2.82042">
        <ele>8</ele>
        <time>2025-01-28T10:57:28Z</time>
      </trkpt>
      <trkpt lat="47.61983" lon="-2.82043">
        <ele>8</ele>
        <time>2025-01-28T10:57:29Z</time>
      </trkpt>
      <trkpt lat="47.61983" lon="-2.82045">
        <ele>8</ele>
        <time>2025-01-28T10:57:30Z</time>
      </trkpt>
      <trkpt lat="47.61983" lon="-2.82047">
        <ele>8</ele>
        <time>2025-01-28T10:57:31Z</time>
      </trkpt>
      <trkpt lat="47.61983" lon="-2.82048">
        <ele>8</ele>
        <time>2025-01-28T10:57:32Z</time>
      </trkpt>
      <trkpt lat="47.61982" lon="-2.82049">
        <ele>8</ele>
        <time>2025-01-28T10:57:33Z</time>
      </trkpt>
      <trkpt lat="47.61982" lon="-2.8205">
        <ele>8</ele>
        <time>2025-01-28T10:57:34Z</time>
      </trkpt>
      <trkpt lat="47.61982" lon="-2.82051">
        <ele>8</ele>
        <time>2025-01-28T10:57:35Z</time>
      </trkpt>
      <trkpt lat="47.61981" lon="-2.82053">
        <ele>8</ele>
        <time>2025-01-28T10:57:36Z</time>
      </trkpt>
      <trkpt lat="47.61981" lon="-2.82054">
        <ele>8</ele>
        <time>2025-01-28T10:57:37Z</time>
      </trkpt>
      <trkpt lat="47.6198" lon="-2.82055">
        <ele>8</ele>
        <time>2025-01-28T10:57:38Z</time>
      </trkpt>
      <trkpt lat="47.61978" lon="-2.82055">
        <ele>8</ele>
        <time>2025-01-28T10:57:39Z</time>
      </trkpt>
      <trkpt lat="47.61977" lon="-2.82054">
        <ele>8</ele>
        <time>2025-01-28T10:57:40Z</time>
      </trkpt>
      <trkpt lat="47.61977" lon="-2.82053">
        <ele>8</ele>
        <time>2025-01-28T10:57:41Z</time>
      </trkpt>
      <trkpt lat="47.61976" lon="-2.82053">
        <ele>8</ele>
        <time>2025-01-28T10:57:42Z</time>
      </trkpt>
      <trkpt lat="47.61976" lon="-2.82054">
        <ele>8</ele>
        <time>2025-01-28T10:57:43Z</time>
      </trkpt>
      <trkpt lat="47.61976" lon="-2.82055">
        <ele>8</ele>
        <time>2025-01-28T10:57:44Z</time>
      </trkpt>
      <trkpt lat="47.61977" lon="-2.82056">
        <ele>8</ele>
        <time>2025-01-28T10:57:45Z</time>
      </trkpt>
      <trkpt lat="47.61977" lon="-2.82057">
        <ele>7.8</ele>
        <time>2025-01-28T10:57:46Z</time>
      </trkpt>
      <trkpt lat="47.61978" lon="-2.82058">
        <ele>7.5</ele>
        <time>2025-01-28T10:57:47Z</time>
      </trkpt>
      <trkpt lat="47.61978" lon="-2.82059">
        <ele>7.3</ele>
        <time>2025-01-28T10:57:48Z</time>
      </trkpt>
      <trkpt lat="47.61978" lon="-2.82061">
        <ele>7.1</ele>
        <time>2025-01-28T10:57:49Z</time>
      </trkpt>
      <trkpt lat="47.61978" lon="-2.82062">
        <ele>6.7</ele>
        <time>2025-01-28T10:57:50Z</time>
      </trkpt>
      <trkpt lat="47.61977" lon="-2.82064">
        <ele>6.4</ele>
        <time>2025-01-28T10:57:51Z</time>
      </trkpt>
      <trkpt lat="47.61978" lon="-2.82065">
        <ele>6.2</ele>
        <time>2025-01-28T10:57:52Z</time>
      </trkpt>
      <trkpt lat="47.61977" lon="-2.82066">
        <ele>5.9</ele>
        <time>2025-01-28T10:57:53Z</time>
      </trkpt>
      <trkpt lat="47.61977" lon="-2.82068">
        <ele>5.6</ele>
        <time>2025-01-28T10:57:54Z</time>
      </trkpt>
      <trkpt lat="47.61977" lon="-2.82069">
        <ele>5.2</ele>
        <time>2025-01-28T10:57:55Z</time>
      </trkpt>
      <trkpt lat="47.61977" lon="-2.82071">
        <ele>4.9</ele>
        <time>2025-01-28T10:57:56Z</time>
      </trkpt>
      <trkpt lat="47.61977" lon="-2.82072">
        <ele>4.5</ele>
        <time>2025-01-28T10:57:57Z</time>
      </trkpt>
      <trkpt lat="47.61976" lon="-2.82074">
        <ele>4.2</ele>
        <time>2025-01-28T10:57:58Z</time>
      </trkpt>
      <trkpt lat="47.61976" lon="-2.82075">
        <ele>3.8</ele>
        <time>2025-01-28T10:57:59Z</time>
      </trkpt>
      <trkpt lat="47.61976" lon="-2.82077">
        <ele>3.4</ele>
        <time>2025-01-28T10:58:00Z</time>
      </trkpt>
      <trkpt lat="47.61975" lon="-2.82078">
        <ele>3</ele>
        <time>2025-01-28T10:58:01Z</time>
      </trkpt>
      <trkpt lat="47.61975" lon="-2.8208">
        <ele>2.7</ele>
        <time>2025-01-28T10:58:02Z</time>
      </trkpt>
      <trkpt lat="47.61975" lon="-2.82081">
        <ele>2.2</ele>
        <time>2025-01-28T10:58:03Z</time>
      </trkpt>
      <trkpt lat="47.61975" lon="-2.82083">
        <ele>1.8</ele>
        <time>2025-01-28T10:58:04Z</time>
      </trkpt>
      <trkpt lat="47.61975" lon="-2.82085">
        <ele>1.9</ele>
        <time>2025-01-28T10:58:05Z</time>
      </trkpt>
      <trkpt lat="47.61975" lon="-2.82086">
        <ele>2</ele>
        <time>2025-01-28T10:58:06Z</time>
      </trkpt>
      <trkpt lat="47.61974" lon="-2.82088">
        <ele>2</ele>
        <time>2025-01-28T10:58:07Z</time>
      </trkpt>
      <trkpt lat="47.61974" lon="-2.8209">
        <ele>2</ele>
        <time>2025-01-28T10:58:08Z</time>
      </trkpt>
      <trkpt lat="47.61973" lon="-2.82091">
        <ele>2.1</ele>
        <time>2025-01-28T10:58:09Z</time>
      </trkpt>
      <trkpt lat="47.61973" lon="-2.82092">
        <ele>2.1</ele>
        <time>2025-01-28T10:58:10Z</time>
      </trkpt>
      <trkpt lat="47.61973" lon="-2.82092">
        <ele>2.1</ele>
        <time>2025-01-28T10:58:11Z</time>
      </trkpt>
      <trkpt lat="47.61973" lon="-2.82092">
        <ele>2.3</ele>
        <time>2025-01-28T10:58:12Z</time>
      </trkpt>
      <trkpt lat="47.61974" lon="-2.82093">
        <ele>2.5</ele>
        <time>2025-01-28T10:58:13Z</time>
      </trkpt>
      <trkpt lat="47.61974" lon="-2.82095">
        <ele>2.7</ele>
        <time>2025-01-28T10:58:14Z</time>
      </trkpt>
      <trkpt lat="47.61973" lon="-2.82097">
        <ele>2.7</ele>
        <time>2025-01-28T10:58:15Z</time>
      </trkpt>
      <trkpt lat="47.61973" lon="-2.82099">
        <ele>2.8</ele>
        <time>2025-01-28T10:58:16Z</time>
      </trkpt>
      <trkpt lat="47.61972" lon="-2.821">
        <ele>2.8</ele>
        <time>2025-01-28T10:58:17Z</time>
      </trkpt>
      <trkpt lat="47.61972" lon="-2.82103">
        <ele>3.1</ele>
        <time>2025-01-28T10:58:18Z</time>
      </trkpt>
      <trkpt lat="47.61971" lon="-2.82105">
        <ele>3.4</ele>
        <time>2025-01-28T10:58:19Z</time>
      </trkpt>
      <trkpt lat="47.61972" lon="-2.82107">
        <ele>3.5</ele>
        <time>2025-01-28T10:58:20Z</time>
      </trkpt>
      <trkpt lat="47.61971" lon="-2.82108">
        <ele>3.7</ele>
        <time>2025-01-28T10:58:21Z</time>
      </trkpt>
      <trkpt lat="47.61971" lon="-2.8211">
        <ele>3.8</ele>
        <time>2025-01-28T10:58:22Z</time>
      </trkpt>
      <trkpt lat="47.6197" lon="-2.82111">
        <ele>4</ele>
        <time>2025-01-28T10:58:23Z</time>
      </trkpt>
      <trkpt lat="47.6197" lon="-2.82113">
        <ele>4.2</ele>
        <time>2025-01-28T10:58:24Z</time>
      </trkpt>
      <trkpt lat="47.61969" lon="-2.82115">
        <ele>4.5</ele>
        <time>2025-01-28T10:58:25Z</time>
      </trkpt>
      <trkpt lat="47.61968" lon="-2.82117">
        <ele>4.8</ele>
        <time>2025-01-28T10:58:26Z</time>
      </trkpt>
      <trkpt lat="47.61967" lon="-2.82119">
        <ele>5</ele>
        <time>2025-01-28T10:58:27Z</time>
      </trkpt>
      <trkpt lat="47.61966" lon="-2.8212">
        <ele>5</ele>
        <time>2025-01-28T10:58:28Z</time>
      </trkpt>
      <trkpt lat="47.61965" lon="-2.82121">
        <ele>5</ele>
        <time>2025-01-28T10:58:29Z</time>
      </trkpt>
      <trkpt lat="47.61965" lon="-2.82121">
        <ele>5</ele>
        <time>2025-01-28T10:58:30Z</time>
      </trkpt>
      <trkpt lat="47.61964" lon="-2.82122">
        <ele>5</ele>
        <time>2025-01-28T10:58:31Z</time>
      </trkpt>
      <trkpt lat="47.61963" lon="-2.82123">
        <ele>5</ele>
        <time>2025-01-28T10:58:32Z</time>
      </trkpt>
      <trkpt lat="47.61963" lon="-2.82124">
        <ele>5.1</ele>
        <time>2025-01-28T10:58:33Z</time>
      </trkpt>
      <trkpt lat="47.61962" lon="-2.82125">
        <ele>5.1</ele>
        <time>2025-01-28T10:58:34Z</time>
      </trkpt>
      <trkpt lat="47.61961" lon="-2.82127">
        <ele>5</ele>
        <time>2025-01-28T10:58:35Z</time>
      </trkpt>
      <trkpt lat="47.6196" lon="-2.82127">
        <ele>4.9</ele>
        <time>2025-01-28T10:58:36Z</time>
      </trkpt>
      <trkpt lat="47.6196" lon="-2.82127">
        <ele>4.8</ele>
        <time>2025-01-28T10:58:37Z</time>
      </trkpt>
      <trkpt lat="47.61959" lon="-2.82128">
        <ele>4.7</ele>
        <time>2025-01-28T10:58:38Z</time>
      </trkpt>
      <trkpt lat="47.61958" lon="-2.82129">
        <ele>4.6</ele>
        <time>2025-01-28T10:58:39Z</time>
      </trkpt>
      <trkpt lat="47.61957" lon="-2.8213">
        <ele>4.5</ele>
        <time>2025-01-28T10:58:40Z</time>
      </trkpt>
      <trkpt lat="47.61957" lon="-2.8213">
        <ele>4.4</ele>
        <time>2025-01-28T10:58:41Z</time>
      </trkpt>
      <trkpt lat="47.61956" lon="-2.82132">
        <ele>4.3</ele>
        <time>2025-01-28T10:58:42Z</time>
      </trkpt>
      <trkpt lat="47.61956" lon="-2.82133">
        <ele>4.2</ele>
        <time>2025-01-28T10:58:43Z</time>
      </trkpt>
      <trkpt lat="47.61955" lon="-2.82134">
        <ele>4.1</ele>
        <time>2025-01-28T10:58:44Z</time>
      </trkpt>
      <trkpt lat="47.61954" lon="-2.82135">
        <ele>3.8</ele>
        <time>2025-01-28T10:58:45Z</time>
      </trkpt>
      <trkpt lat="47.61953" lon="-2.82136">
        <ele>3.6</ele>
        <time>2025-01-28T10:58:46Z</time>
      </trkpt>
      <trkpt lat="47.61953" lon="-2.82138">
        <ele>3.4</ele>
        <time>2025-01-28T10:58:47Z</time>
      </trkpt>
      <trkpt lat="47.61952" lon="-2.82139">
        <ele>3.3</ele>
        <time>2025-01-28T10:58:48Z</time>
      </trkpt>
      <trkpt lat="47.61951" lon="-2.82141">
        <ele>3.3</ele>
        <time>2025-01-28T10:58:49Z</time>
      </trkpt>
      <trkpt lat="47.61951" lon="-2.82142">
        <ele>3.2</ele>
        <time>2025-01-28T10:58:50Z</time>
      </trkpt>
      <trkpt lat="47.6195" lon="-2.82144">
        <ele>3.3</ele>
        <time>2025-01-28T10:58:51Z</time>
      </trkpt>
      <trkpt lat="47.61949" lon="-2.82145">
        <ele>3.4</ele>
        <time>2025-01-28T10:58:52Z</time>
      </trkpt>
      <trkpt lat="47.61948" lon="-2.82146">
        <ele>3.3</ele>
        <time>2025-01-28T10:58:53Z</time>
      </trkpt>
      <trkpt lat="47.61948" lon="-2.82148">
        <ele>3.3</ele>
        <time>2025-01-28T10:58:54Z</time>
      </trkpt>
      <trkpt lat="47.61947" lon="-2.82149">
        <ele>3.3</ele>
        <time>2025-01-28T10:58:55Z</time>
      </trkpt>
      <trkpt lat="47.61946" lon="-2.8215">
        <ele>3.4</ele>
        <time>2025-01-28T10:58:56Z</time>
      </trkpt>
      <trkpt lat="47.61945" lon="-2.82151">
        <ele>3.5</ele>
        <time>2025-01-28T10:58:57Z</time>
      </trkpt>
      <trkpt lat="47.61945" lon="-2.82153">
        <ele>3.5</ele>
        <time>2025-01-28T10:58:58Z</time>
      </trkpt>
      <trkpt lat="47.61944" lon="-2.82154">
        <ele>3.6</ele>
        <time>2025-01-28T10:58:59Z</time>
      </trkpt>
      <trkpt lat="47.61943" lon="-2.82155">
        <ele>3.7</ele>
        <time>2025-01-28T10:59:00Z</time>
      </trkpt>
      <trkpt lat="47.61942" lon="-2.82156">
        <ele>3.7</ele>
        <time>2025-01-28T10:59:01Z</time>
      </trkpt>
      <trkpt lat="47.61941" lon="-2.82157">
        <ele>3.8</ele>
        <time>2025-01-28T10:59:02Z</time>
      </trkpt>
      <trkpt lat="47.61941" lon="-2.82158">
        <ele>4</ele>
        <time>2025-01-28T10:59:03Z</time>
      </trkpt>
      <trkpt lat="47.6194" lon="-2.8216">
        <ele>4.2</ele>
        <time>2025-01-28T10:59:04Z</time>
      </trkpt>
      <trkpt lat="47.6194" lon="-2.82161">
        <ele>4.3</ele>
        <time>2025-01-28T10:59:05Z</time>
      </trkpt>
      <trkpt lat="47.6194" lon="-2.82163">
        <ele>4.6</ele>
        <time>2025-01-28T10:59:06Z</time>
      </trkpt>
      <trkpt lat="47.6194" lon="-2.82165">
        <ele>4.8</ele>
        <time>2025-01-28T10:59:07Z</time>
      </trkpt>
      <trkpt lat="47.6194" lon="-2.82166">
        <ele>5.1</ele>
        <time>2025-01-28T10:59:08Z</time>
      </trkpt>
      <trkpt lat="47.61939" lon="-2.82168">
        <ele>5.1</ele>
        <time>2025-01-28T10:59:09Z</time>
      </trkpt>
      <trkpt lat="47.61938" lon="-2.82169">
        <ele>5.1</ele>
        <time>2025-01-28T10:59:10Z</time>
      </trkpt>
      <trkpt lat="47.61937" lon="-2.8217">
        <ele>5.1</ele>
        <time>2025-01-28T10:59:11Z</time>
      </trkpt>
      <trkpt lat="47.61936" lon="-2.82171">
        <ele>5</ele>
        <time>2025-01-28T10:59:12Z</time>
      </trkpt>
      <trkpt lat="47.61935" lon="-2.82172">
        <ele>4.9</ele>
        <time>2025-01-28T10:59:13Z</time>
      </trkpt>
      <trkpt lat="47.61934" lon="-2.82173">
        <ele>4.9</ele>
        <time>2025-01-28T10:59:14Z</time>
      </trkpt>
      <trkpt lat="47.61933" lon="-2.82174">
        <ele>4.9</ele>
        <time>2025-01-28T10:59:15Z</time>
      </trkpt>
      <trkpt lat="47.61932" lon="-2.82175">
        <ele>4.8</ele>
        <time>2025-01-28T10:59:16Z</time>
      </trkpt>
      <trkpt lat="47.61931" lon="-2.82175">
        <ele>4.7</ele>
        <time>2025-01-28T10:59:17Z</time>
      </trkpt>
      <trkpt lat="47.6193" lon="-2.82175">
        <ele>4.7</ele>
        <time>2025-01-28T10:59:18Z</time>
      </trkpt>
      <trkpt lat="47.61929" lon="-2.82176">
        <ele>4.6</ele>
        <time>2025-01-28T10:59:19Z</time>
      </trkpt>
      <trkpt lat="47.61928" lon="-2.82177">
        <ele>4.6</ele>
        <time>2025-01-28T10:59:20Z</time>
      </trkpt>
      <trkpt lat="47.61927" lon="-2.82178">
        <ele>4.6</ele>
        <time>2025-01-28T10:59:21Z</time>
      </trkpt>
      <trkpt lat="47.61925" lon="-2.82179">
        <ele>4.6</ele>
        <time>2025-01-28T10:59:22Z</time>
      </trkpt>
      <trkpt lat="47.61924" lon="-2.82179">
        <ele>4.6</ele>
        <time>2025-01-28T10:59:23Z</time>
      </trkpt>
      <trkpt lat="47.61923" lon="-2.8218">
        <ele>4.5</ele>
        <time>2025-01-28T10:59:24Z</time>
      </trkpt>
      <trkpt lat="47.61922" lon="-2.8218">
        <ele>4.4</ele>
        <time>2025-01-28T10:59:25Z</time>
      </trkpt>
      <trkpt lat="47.61921" lon="-2.8218">
        <ele>4.4</ele>
        <time>2025-01-28T10:59:26Z</time>
      </trkpt>
      <trkpt lat="47.6192" lon="-2.82181">
        <ele>4.3</ele>
        <time>2025-01-28T10:59:27Z</time>
      </trkpt>
      <trkpt lat="47.61918" lon="-2.82181">
        <ele>4.3</ele>
        <time>2025-01-28T10:59:28Z</time>
      </trkpt>
      <trkpt lat="47.61917" lon="-2.82182">
        <ele>4.4</ele>
        <time>2025-01-28T10:59:29Z</time>
      </trkpt>
      <trkpt lat="47.61916" lon="-2.82184">
        <ele>4.6</ele>
        <time>2025-01-28T10:59:30Z</time>
      </trkpt>
      <trkpt lat="47.61915" lon="-2.82185">
        <ele>4.7</ele>
        <time>2025-01-28T10:59:31Z</time>
      </trkpt>
      <trkpt lat="47.61914" lon="-2.82186">
        <ele>4.8</ele>
        <time>2025-01-28T10:59:32Z</time>
      </trkpt>
      <trkpt lat="47.61913" lon="-2.82187">
        <ele>4.9</ele>
        <time>2025-01-28T10:59:33Z</time>
      </trkpt>
      <trkpt lat="47.61912" lon="-2.82188">
        <ele>4.9</ele>
        <time>2025-01-28T10:59:34Z</time>
      </trkpt>
      <trkpt lat="47.61911" lon="-2.82189">
        <ele>4.9</ele>
        <time>2025-01-28T10:59:35Z</time>
      </trkpt>
      <trkpt lat="47.6191" lon="-2.8219">
        <ele>5</ele>
        <time>2025-01-28T10:59:36Z</time>
      </trkpt>
      <trkpt lat="47.61909" lon="-2.82191">
        <ele>4.9</ele>
        <time>2025-01-28T10:59:37Z</time>
      </trkpt>
      <trkpt lat="47.61908" lon="-2.82192">
        <ele>5</ele>
        <time>2025-01-28T10:59:38Z</time>
      </trkpt>
      <trkpt lat="47.61906" lon="-2.82193">
        <ele>4.8</ele>
        <time>2025-01-28T10:59:39Z</time>
      </trkpt>
      <trkpt lat="47.61905" lon="-2.82193">
        <ele>4.7</ele>
        <time>2025-01-28T10:59:40Z</time>
      </trkpt>
      <trkpt lat="47.61904" lon="-2.82194">
        <ele>4.6</ele>
        <time>2025-01-28T10:59:41Z</time>
      </trkpt>
      <trkpt lat="47.61903" lon="-2.82194">
        <ele>4.4</ele>
        <time>2025-01-28T10:59:42Z</time>
      </trkpt>
      <trkpt lat="47.61901" lon="-2.82195">
        <ele>4.3</ele>
        <time>2025-01-28T10:59:43Z</time>
      </trkpt>
      <trkpt lat="47.619" lon="-2.82195">
        <ele>4.1</ele>
        <time>2025-01-28T10:59:44Z</time>
      </trkpt>
      <trkpt lat="47.61899" lon="-2.82196">
        <ele>4</ele>
        <time>2025-01-28T10:59:45Z</time>
      </trkpt>
      <trkpt lat="47.61898" lon="-2.82197">
        <ele>3.9</ele>
        <time>2025-01-28T10:59:46Z</time>
      </trkpt>
      <trkpt lat="47.61897" lon="-2.82197">
        <ele>3.7</ele>
        <time>2025-01-28T10:59:47Z</time>
      </trkpt>
      <trkpt lat="47.61895" lon="-2.82197">
        <ele>3.5</ele>
        <time>2025-01-28T10:59:48Z</time>
      </trkpt>
      <trkpt lat="47.61894" lon="-2.82197">
        <ele>3.4</ele>
        <time>2025-01-28T10:59:49Z</time>
      </trkpt>
      <trkpt lat="47.61893" lon="-2.82198">
        <ele>3.3</ele>
        <time>2025-01-28T10:59:50Z</time>
      </trkpt>
      <trkpt lat="47.61892" lon="-2.82198">
        <ele>3.2</ele>
        <time>2025-01-28T10:59:51Z</time>
      </trkpt>
      <trkpt lat="47.61891" lon="-2.82199">
        <ele>3.1</ele>
        <time>2025-01-28T10:59:52Z</time>
      </trkpt>
      <trkpt lat="47.6189" lon="-2.82199">
        <ele>2.9</ele>
        <time>2025-01-28T10:59:53Z</time>
      </trkpt>
      <trkpt lat="47.61888" lon="-2.82198">
        <ele>2.7</ele>
        <time>2025-01-28T10:59:54Z</time>
      </trkpt>
      <trkpt lat="47.61887" lon="-2.82198">
        <ele>2.5</ele>
        <time>2025-01-28T10:59:55Z</time>
      </trkpt>
      <trkpt lat="47.61886" lon="-2.82197">
        <ele>2.4</ele>
        <time>2025-01-28T10:59:56Z</time>
      </trkpt>
      <trkpt lat="47.61885" lon="-2.82197">
        <ele>2.4</ele>
        <time>2025-01-28T10:59:57Z</time>
      </trkpt>
      <trkpt lat="47.61884" lon="-2.82198">
        <ele>2.4</ele>
        <time>2025-01-28T10:59:58Z</time>
      </trkpt>
      <trkpt lat="47.61883" lon="-2.82199">
        <ele>2.6</ele>
        <time>2025-01-28T10:59:59Z</time>
      </trkpt>
      <trkpt lat="47.61882" lon="-2.822">
        <ele>2.6</ele>
        <time>2025-01-28T11:00:00Z</time>
      </trkpt>
      <trkpt lat="47.61881" lon="-2.822">
        <ele>2.7</ele>
        <time>2025-01-28T11:00:01Z</time>
      </trkpt>
      <trkpt lat="47.6188" lon="-2.82201">
        <ele>2.8</ele>
        <time>2025-01-28T11:00:02Z</time>
      </trkpt>
      <trkpt lat="47.61879" lon="-2.82203">
        <ele>3</ele>
        <time>2025-01-28T11:00:03Z</time>
      </trkpt>
      <trkpt lat="47.61877" lon="-2.82203">
        <ele>3</ele>
        <time>2025-01-28T11:00:04Z</time>
      </trkpt>
      <trkpt lat="47.61876" lon="-2.82203">
        <ele>3</ele>
        <time>2025-01-28T11:00:05Z</time>
      </trkpt>
      <trkpt lat="47.61875" lon="-2.82204">
        <ele>2.9</ele>
        <time>2025-01-28T11:00:06Z</time>
      </trkpt>
      <trkpt lat="47.61873" lon="-2.82204">
        <ele>2.9</ele>
        <time>2025-01-28T11:00:07Z</time>
      </trkpt>
      <trkpt lat="47.61872" lon="-2.82204">
        <ele>2.9</ele>
        <time>2025-01-28T11:00:08Z</time>
      </trkpt>
      <trkpt lat="47.61871" lon="-2.82205">
        <ele>2.9</ele>
        <time>2025-01-28T11:00:09Z</time>
      </trkpt>
      <trkpt lat="47.6187" lon="-2.82205">
        <ele>2.9</ele>
        <time>2025-01-28T11:00:10Z</time>
      </trkpt>
      <trkpt lat="47.61868" lon="-2.82205">
        <ele>2.9</ele>
        <time>2025-01-28T11:00:11Z</time>
      </trkpt>
      <trkpt lat="47.61867" lon="-2.82205">
        <ele>2.8</ele>
        <time>2025-01-28T11:00:12Z</time>
      </trkpt>
      <trkpt lat="47.61866" lon="-2.82204">
        <ele>2.6</ele>
        <time>2025-01-28T11:00:13Z</time>
      </trkpt>
      <trkpt lat="47.61865" lon="-2.82203">
        <ele>2.5</ele>
        <time>2025-01-28T11:00:14Z</time>
      </trkpt>
      <trkpt lat="47.61864" lon="-2.82203">
        <ele>2.4</ele>
        <time>2025-01-28T11:00:15Z</time>
      </trkpt>
      <trkpt lat="47.61863" lon="-2.82202">
        <ele>2.2</ele>
        <time>2025-01-28T11:00:16Z</time>
      </trkpt>
      <trkpt lat="47.61862" lon="-2.82201">
        <ele>2</ele>
        <time>2025-01-28T11:00:17Z</time>
      </trkpt>
      <trkpt lat="47.61861" lon="-2.822">
        <ele>1.8</ele>
        <time>2025-01-28T11:00:18Z</time>
      </trkpt>
      <trkpt lat="47.6186" lon="-2.82199">
        <ele>1.7</ele>
        <time>2025-01-28T11:00:19Z</time>
      </trkpt>
      <trkpt lat="47.61859" lon="-2.82199">
        <ele>1.6</ele>
        <time>2025-01-28T11:00:20Z</time>
      </trkpt>
      <trkpt lat="47.61858" lon="-2.82198">
        <ele>1.4</ele>
        <time>2025-01-28T11:00:21Z</time>
      </trkpt>
      <trkpt lat="47.61856" lon="-2.82196">
        <ele>1.2</ele>
        <time>2025-01-28T11:00:22Z</time>
      </trkpt>
      <trkpt lat="47.61855" lon="-2.82195">
        <ele>1.1</ele>
        <time>2025-01-28T11:00:23Z</time>
      </trkpt>
      <trkpt lat="47.61855" lon="-2.82194">
        <ele>1</ele>
        <time>2025-01-28T11:00:24Z</time>
      </trkpt>
      <trkpt lat="47.61854" lon="-2.82194">
        <ele>1</ele>
        <time>2025-01-28T11:00:25Z</time>
      </trkpt>
      <trkpt lat="47.61853" lon="-2.82195">
        <ele>1</ele>
        <time>2025-01-28T11:00:26Z</time>
      </trkpt>
      <trkpt lat="47.61852" lon="-2.82196">
        <ele>1.1</ele>
        <time>2025-01-28T11:00:27Z</time>
      </trkpt>
      <trkpt lat="47.61851" lon="-2.82196">
        <ele>1.2</ele>
        <time>2025-01-28T11:00:28Z</time>
      </trkpt>
      <trkpt lat="47.61849" lon="-2.82197">
        <ele>1.3</ele>
        <time>2025-01-28T11:00:29Z</time>
      </trkpt>
      <trkpt lat="47.61848" lon="-2.82199">
        <ele>1.5</ele>
        <time>2025-01-28T11:00:30Z</time>
      </trkpt>
      <trkpt lat="47.61847" lon="-2.822">
        <ele>1.6</ele>
        <time>2025-01-28T11:00:31Z</time>
      </trkpt>
      <trkpt lat="47.61846" lon="-2.82201">
        <ele>1.7</ele>
        <time>2025-01-28T11:00:32Z</time>
      </trkpt>
      <trkpt lat="47.61846" lon="-2.82203">
        <ele>1.8</ele>
        <time>2025-01-28T11:00:33Z</time>
      </trkpt>
      <trkpt lat="47.61844" lon="-2.82203">
        <ele>1.9</ele>
        <time>2025-01-28T11:00:34Z</time>
      </trkpt>
      <trkpt lat="47.61844" lon="-2.82204">
        <ele>2</ele>
        <time>2025-01-28T11:00:35Z</time>
      </trkpt>
      <trkpt lat="47.61843" lon="-2.82206">
        <ele>2.1</ele>
        <time>2025-01-28T11:00:36Z</time>
      </trkpt>
      <trkpt lat="47.61842" lon="-2.82207">
        <ele>2.2</ele>
        <time>2025-01-28T11:00:37Z</time>
      </trkpt>
      <trkpt lat="47.61842" lon="-2.82209">
        <ele>2.4</ele>
        <time>2025-01-28T11:00:38Z</time>
      </trkpt>
      <trkpt lat="47.61841" lon="-2.82211">
        <ele>2.5</ele>
        <time>2025-01-28T11:00:39Z</time>
      </trkpt>
      <trkpt lat="47.61841" lon="-2.82213">
        <ele>2.7</ele>
        <time>2025-01-28T11:00:40Z</time>
      </trkpt>
      <trkpt lat="47.6184" lon="-2.82214">
        <ele>2.7</ele>
        <time>2025-01-28T11:00:41Z</time>
      </trkpt>
      <trkpt lat="47.61839" lon="-2.82216">
        <ele>2.9</ele>
        <time>2025-01-28T11:00:42Z</time>
      </trkpt>
      <trkpt lat="47.61838" lon="-2.82217">
        <ele>2.9</ele>
        <time>2025-01-28T11:00:43Z</time>
      </trkpt>
      <trkpt lat="47.61837" lon="-2.82218">
        <ele>2.9</ele>
        <time>2025-01-28T11:00:44Z</time>
      </trkpt>
      <trkpt lat="47.61836" lon="-2.8222">
        <ele>3</ele>
        <time>2025-01-28T11:00:45Z</time>
      </trkpt>
      <trkpt lat="47.61836" lon="-2.82221">
        <ele>3.1</ele>
        <time>2025-01-28T11:00:46Z</time>
      </trkpt>
      <trkpt lat="47.61835" lon="-2.82223">
        <ele>3.2</ele>
        <time>2025-01-28T11:00:47Z</time>
      </trkpt>
      <trkpt lat="47.61835" lon="-2.82224">
        <ele>3.2</ele>
        <time>2025-01-28T11:00:48Z</time>
      </trkpt>
      <trkpt lat="47.61834" lon="-2.82225">
        <ele>3.3</ele>
        <time>2025-01-28T11:00:49Z</time>
      </trkpt>
      <trkpt lat="47.61833" lon="-2.82227">
        <ele>3.3</ele>
        <time>2025-01-28T11:00:50Z</time>
      </trkpt>
      <trkpt lat="47.61833" lon="-2.82228">
        <ele>3.4</ele>
        <time>2025-01-28T11:00:51Z</time>
      </trkpt>
      <trkpt lat="47.61832" lon="-2.8223">
        <ele>3.5</ele>
        <time>2025-01-28T11:00:52Z</time>
      </trkpt>
      <trkpt lat="47.61831" lon="-2.82231">
        <ele>3.5</ele>
        <time>2025-01-28T11:00:53Z</time>
      </trkpt>
      <trkpt lat="47.6183" lon="-2.82231">
        <ele>3.5</ele>
        <time>2025-01-28T11:00:54Z</time>
      </trkpt>
      <trkpt lat="47.61829" lon="-2.82233">
        <ele>3.6</ele>
        <time>2025-01-28T11:00:55Z</time>
      </trkpt>
      <trkpt lat="47.61828" lon="-2.82234">
        <ele>3.6</ele>
        <time>2025-01-28T11:00:56Z</time>
      </trkpt>
      <trkpt lat="47.61827" lon="-2.82235">
        <ele>3.6</ele>
        <time>2025-01-28T11:00:57Z</time>
      </trkpt>
      <trkpt lat="47.61826" lon="-2.82236">
        <ele>3.6</ele>
        <time>2025-01-28T11:00:58Z</time>
      </trkpt>
      <trkpt lat="47.61825" lon="-2.82237">
        <ele>3.6</ele>
        <time>2025-01-28T11:00:59Z</time>
      </trkpt>
      <trkpt lat="47.61824" lon="-2.82238">
        <ele>3.6</ele>
        <time>2025-01-28T11:01:00Z</time>
      </trkpt>
      <trkpt lat="47.61823" lon="-2.82239">
        <ele>3.5</ele>
        <time>2025-01-28T11:01:01Z</time>
      </trkpt>
      <trkpt lat="47.61822" lon="-2.8224">
        <ele>3.5</ele>
        <time>2025-01-28T11:01:02Z</time>
      </trkpt>
      <trkpt lat="47.61821" lon="-2.82241">
        <ele>3.5</ele>
        <time>2025-01-28T11:01:03Z</time>
      </trkpt>
      <trkpt lat="47.61821" lon="-2.82243">
        <ele>3.5</ele>
        <time>2025-01-28T11:01:04Z</time>
      </trkpt>
      <trkpt lat="47.6182" lon="-2.82243">
        <ele>3.4</ele>
        <time>2025-01-28T11:01:05Z</time>
      </trkpt>
      <trkpt lat="47.61819" lon="-2.82244">
        <ele>3.3</ele>
        <time>2025-01-28T11:01:06Z</time>
      </trkpt>
      <trkpt lat="47.61818" lon="-2.82245">
        <ele>3.3</ele>
        <time>2025-01-28T11:01:07Z</time>
      </trkpt>
      <trkpt lat="47.61817" lon="-2.82246">
        <ele>3.2</ele>
        <time>2025-01-28T11:01:08Z</time>
      </trkpt>
      <trkpt lat="47.61816" lon="-2.82247">
        <ele>3.1</ele>
        <time>2025-01-28T11:01:09Z</time>
      </trkpt>
      <trkpt lat="47.61815" lon="-2.82248">
        <ele>3</ele>
        <time>2025-01-28T11:01:10Z</time>
      </trkpt>
      <trkpt lat="47.61814" lon="-2.82249">
        <ele>2.9</ele>
        <time>2025-01-28T11:01:11Z</time>
      </trkpt>
      <trkpt lat="47.61813" lon="-2.8225">
        <ele>2.8</ele>
        <time>2025-01-28T11:01:12Z</time>
      </trkpt>
      <trkpt lat="47.61812" lon="-2.82251">
        <ele>2.8</ele>
        <time>2025-01-28T11:01:13Z</time>
      </trkpt>
      <trkpt lat="47.61811" lon="-2.82253">
        <ele>2.9</ele>
        <time>2025-01-28T11:01:14Z</time>
      </trkpt>
      <trkpt lat="47.6181" lon="-2.82254">
        <ele>2.9</ele>
        <time>2025-01-28T11:01:15Z</time>
      </trkpt>
      <trkpt lat="47.61809" lon="-2.82255">
        <ele>3.1</ele>
        <time>2025-01-28T11:01:16Z</time>
      </trkpt>
      <trkpt lat="47.61809" lon="-2.82256">
        <ele>3.2</ele>
        <time>2025-01-28T11:01:17Z</time>
      </trkpt>
      <trkpt lat="47.61808" lon="-2.82257">
        <ele>3.2</ele>
        <time>2025-01-28T11:01:18Z</time>
      </trkpt>
      <trkpt lat="47.61806" lon="-2.82258">
        <ele>3.2</ele>
        <time>2025-01-28T11:01:19Z</time>
      </trkpt>
      <trkpt lat="47.61805" lon="-2.82259">
        <ele>3.3</ele>
        <time>2025-01-28T11:01:20Z</time>
      </trkpt>
      <trkpt lat="47.61804" lon="-2.8226">
        <ele>3.3</ele>
        <time>2025-01-28T11:01:21Z</time>
      </trkpt>
      <trkpt lat="47.61803" lon="-2.82261">
        <ele>3.3</ele>
        <time>2025-01-28T11:01:22Z</time>
      </trkpt>
      <trkpt lat="47.61802" lon="-2.82261">
        <ele>3.3</ele>
        <time>2025-01-28T11:01:23Z</time>
      </trkpt>
      <trkpt lat="47.61801" lon="-2.82262">
        <ele>3.2</ele>
        <time>2025-01-28T11:01:24Z</time>
      </trkpt>
      <trkpt lat="47.61799" lon="-2.82263">
        <ele>3.2</ele>
        <time>2025-01-28T11:01:25Z</time>
      </trkpt>
      <trkpt lat="47.61798" lon="-2.82263">
        <ele>3.1</ele>
        <time>2025-01-28T11:01:26Z</time>
      </trkpt>
      <trkpt lat="47.61797" lon="-2.82264">
        <ele>3</ele>
        <time>2025-01-28T11:01:27Z</time>
      </trkpt>
      <trkpt lat="47.61796" lon="-2.82263">
        <ele>2.9</ele>
        <time>2025-01-28T11:01:28Z</time>
      </trkpt>
      <trkpt lat="47.61794" lon="-2.82263">
        <ele>2.7</ele>
        <time>2025-01-28T11:01:29Z</time>
      </trkpt>
      <trkpt lat="47.61793" lon="-2.82265">
        <ele>2.7</ele>
        <time>2025-01-28T11:01:30Z</time>
      </trkpt>
      <trkpt lat="47.61793" lon="-2.82267">
        <ele>2.8</ele>
        <time>2025-01-28T11:01:31Z</time>
      </trkpt>
      <trkpt lat="47.61792" lon="-2.82268">
        <ele>2.8</ele>
        <time>2025-01-28T11:01:32Z</time>
      </trkpt>
      <trkpt lat="47.61791" lon="-2.8227">
        <ele>2.8</ele>
        <time>2025-01-28T11:01:33Z</time>
      </trkpt>
      <trkpt lat="47.61791" lon="-2.8227">
        <ele>2.9</ele>
        <time>2025-01-28T11:01:34Z</time>
      </trkpt>
      <trkpt lat="47.61791" lon="-2.8227">
        <ele>2.9</ele>
        <time>2025-01-28T11:01:35Z</time>
      </trkpt>
      <trkpt lat="47.61791" lon="-2.8227">
        <ele>2.9</ele>
        <time>2025-01-28T11:01:36Z</time>
      </trkpt>
      <trkpt lat="47.61791" lon="-2.8227">
        <ele>2.9</ele>
        <time>2025-01-28T11:01:37Z</time>
      </trkpt>
      <trkpt lat="47.61791" lon="-2.8227">
        <ele>2.9</ele>
        <time>2025-01-28T11:01:38Z</time>
      </trkpt>
      <trkpt lat="47.61791" lon="-2.8227">
        <ele>2.9</ele>
        <time>2025-01-28T11:01:39Z</time>
      </trkpt>
      <trkpt lat="47.61791" lon="-2.8227">
        <ele>2.9</ele>
        <time>2025-01-28T11:01:40Z</time>
      </trkpt>
      <trkpt lat="47.61791" lon="-2.8227">
        <ele>2.9</ele>
        <time>2025-01-28T11:01:41Z</time>
      </trkpt>
      <trkpt lat="47.61791" lon="-2.8227">
        <ele>2.9</ele>
        <time>2025-01-28T11:01:42Z</time>
      </trkpt>
      <trkpt lat="47.61791" lon="-2.8227">
        <ele>2.9</ele>
        <time>2025-01-28T11:01:43Z</time>
      </trkpt>
      <trkpt lat="47.61791" lon="-2.8227">
        <ele>2.9</ele>
        <time>2025-01-28T11:01:44Z</time>
      </trkpt>
      <trkpt lat="47.61791" lon="-2.8227">
        <ele>2.9</ele>
        <time>2025-01-28T11:01:45Z</time>
      </trkpt>
      <trkpt lat="47.61791" lon="-2.8227">
        <ele>2.9</ele>
        <time>2025-01-28T11:01:46Z</time>
      </trkpt>
      <trkpt lat="47.61791" lon="-2.8227">
        <ele>2.9</ele>
        <time>2025-01-28T11:01:47Z</time>
      </trkpt>
      <trkpt lat="47.61791" lon="-2.8227">
        <ele>2.9</ele>
        <time>2025-01-28T11:01:48Z</time>
      </trkpt>
      <trkpt lat="47.61791" lon="-2.8227">
        <ele>2.9</ele>
        <time>2025-01-28T11:01:49Z</time>
      </trkpt>
      <trkpt lat="47.61791" lon="-2.8227">
        <ele>2.9</ele>
        <time>2025-01-28T11:01:50Z</time>
      </trkpt>
      <trkpt lat="47.61791" lon="-2.8227">
        <ele>2.9</ele>
        <time>2025-01-28T11:01:51Z</time>
      </trkpt>
      <trkpt lat="47.61791" lon="-2.8227">
        <ele>2.9</ele>
        <time>2025-01-28T11:01:52Z</time>
      </trkpt>
      <trkpt lat="47.61791" lon="-2.8227">
        <ele>2.9</ele>
        <time>2025-01-28T11:01:53Z</time>
      </trkpt>
      <trkpt lat="47.61791" lon="-2.82271">
        <ele>2.8</ele>
        <time>2025-01-28T11:01:54Z</time>
      </trkpt>
      <trkpt lat="47.6179" lon="-2.82272">
        <ele>2.8</ele>
        <time>2025-01-28T11:01:55Z</time>
      </trkpt>
      <trkpt lat="47.61789" lon="-2.82272">
        <ele>2.7</ele>
        <time>2025-01-28T11:01:56Z</time>
      </trkpt>
      <trkpt lat="47.61788" lon="-2.82272">
        <ele>2.5</ele>
        <time>2025-01-28T11:01:57Z</time>
      </trkpt>
      <trkpt lat="47.61787" lon="-2.82272">
        <ele>2.3</ele>
        <time>2025-01-28T11:01:58Z</time>
      </trkpt>
      <trkpt lat="47.61786" lon="-2.82272">
        <ele>2.2</ele>
        <time>2025-01-28T11:01:59Z</time>
      </trkpt>
      <trkpt lat="47.61785" lon="-2.82273">
        <ele>2.2</ele>
        <time>2025-01-28T11:02:00Z</time>
      </trkpt>
      <trkpt lat="47.61785" lon="-2.82274">
        <ele>2.1</ele>
        <time>2025-01-28T11:02:01Z</time>
      </trkpt>
      <trkpt lat="47.61784" lon="-2.82274">
        <ele>2</ele>
        <time>2025-01-28T11:02:02Z</time>
      </trkpt>
      <trkpt lat="47.61783" lon="-2.82275">
        <ele>1.9</ele>
        <time>2025-01-28T11:02:03Z</time>
      </trkpt>
      <trkpt lat="47.61782" lon="-2.82276">
        <ele>1.8</ele>
        <time>2025-01-28T11:02:04Z</time>
      </trkpt>
      <trkpt lat="47.61782" lon="-2.82278">
        <ele>1.7</ele>
        <time>2025-01-28T11:02:05Z</time>
      </trkpt>
      <trkpt lat="47.61781" lon="-2.82279">
        <ele>1.7</ele>
        <time>2025-01-28T11:02:06Z</time>
      </trkpt>
      <trkpt lat="47.6178" lon="-2.8228">
        <ele>1.7</ele>
        <time>2025-01-28T11:02:07Z</time>
      </trkpt>
      <trkpt lat="47.61779" lon="-2.82282">
        <ele>1.9</ele>
        <time>2025-01-28T11:02:08Z</time>
      </trkpt>
      <trkpt lat="47.61778" lon="-2.82283">
        <ele>1.9</ele>
        <time>2025-01-28T11:02:09Z</time>
      </trkpt>
      <trkpt lat="47.61777" lon="-2.82284">
        <ele>2</ele>
        <time>2025-01-28T11:02:10Z</time>
      </trkpt>
      <trkpt lat="47.61777" lon="-2.82284">
        <ele>2.1</ele>
        <time>2025-01-28T11:02:11Z</time>
      </trkpt>
      <trkpt lat="47.61777" lon="-2.82284">
        <ele>2.1</ele>
        <time>2025-01-28T11:02:12Z</time>
      </trkpt>
      <trkpt lat="47.61776" lon="-2.82285">
        <ele>2.3</ele>
        <time>2025-01-28T11:02:13Z</time>
      </trkpt>
      <trkpt lat="47.61775" lon="-2.82286">
        <ele>2.3</ele>
        <time>2025-01-28T11:02:14Z</time>
      </trkpt>
      <trkpt lat="47.61774" lon="-2.82287">
        <ele>2.4</ele>
        <time>2025-01-28T11:02:15Z</time>
      </trkpt>
      <trkpt lat="47.61773" lon="-2.82288">
        <ele>2.5</ele>
        <time>2025-01-28T11:02:16Z</time>
      </trkpt>
      <trkpt lat="47.61772" lon="-2.8229">
        <ele>2.7</ele>
        <time>2025-01-28T11:02:17Z</time>
      </trkpt>
      <trkpt lat="47.61771" lon="-2.82291">
        <ele>2.8</ele>
        <time>2025-01-28T11:02:18Z</time>
      </trkpt>
      <trkpt lat="47.61771" lon="-2.82291">
        <ele>2.8</ele>
        <time>2025-01-28T11:02:19Z</time>
      </trkpt>
      <trkpt lat="47.6177" lon="-2.82292">
        <ele>2.8</ele>
        <time>2025-01-28T11:02:20Z</time>
      </trkpt>
      <trkpt lat="47.61769" lon="-2.82293">
        <ele>2.9</ele>
        <time>2025-01-28T11:02:21Z</time>
      </trkpt>
      <trkpt lat="47.61769" lon="-2.82293">
        <ele>2.9</ele>
        <time>2025-01-28T11:02:22Z</time>
      </trkpt>
      <trkpt lat="47.61768" lon="-2.82295">
        <ele>3</ele>
        <time>2025-01-28T11:02:23Z</time>
      </trkpt>
      <trkpt lat="47.61768" lon="-2.82296">
        <ele>3.1</ele>
        <time>2025-01-28T11:02:24Z</time>
      </trkpt>
      <trkpt lat="47.61767" lon="-2.82297">
        <ele>3.1</ele>
        <time>2025-01-28T11:02:25Z</time>
      </trkpt>
      <trkpt lat="47.61766" lon="-2.82297">
        <ele>3</ele>
        <time>2025-01-28T11:02:26Z</time>
      </trkpt>
      <trkpt lat="47.61765" lon="-2.82298">
        <ele>3</ele>
        <time>2025-01-28T11:02:27Z</time>
      </trkpt>
      <trkpt lat="47.61764" lon="-2.82298">
        <ele>2.9</ele>
        <time>2025-01-28T11:02:28Z</time>
      </trkpt>
      <trkpt lat="47.61763" lon="-2.823">
        <ele>2.9</ele>
        <time>2025-01-28T11:02:29Z</time>
      </trkpt>
      <trkpt lat="47.61762" lon="-2.823">
        <ele>2.7</ele>
        <time>2025-01-28T11:02:30Z</time>
      </trkpt>
      <trkpt lat="47.61761" lon="-2.823">
        <ele>2.6</ele>
        <time>2025-01-28T11:02:31Z</time>
      </trkpt>
      <trkpt lat="47.6176" lon="-2.82301">
        <ele>2.5</ele>
        <time>2025-01-28T11:02:32Z</time>
      </trkpt>
      <trkpt lat="47.61759" lon="-2.82302">
        <ele>2.4</ele>
        <time>2025-01-28T11:02:33Z</time>
      </trkpt>
      <trkpt lat="47.61759" lon="-2.82303">
        <ele>2.4</ele>
        <time>2025-01-28T11:02:34Z</time>
      </trkpt>
      <trkpt lat="47.61758" lon="-2.82304">
        <ele>2.3</ele>
        <time>2025-01-28T11:02:35Z</time>
      </trkpt>
      <trkpt lat="47.61757" lon="-2.82305">
        <ele>2.2</ele>
        <time>2025-01-28T11:02:36Z</time>
      </trkpt>
      <trkpt lat="47.61756" lon="-2.82305">
        <ele>2.1</ele>
        <time>2025-01-28T11:02:37Z</time>
      </trkpt>
      <trkpt lat="47.61756" lon="-2.82306">
        <ele>2.1</ele>
        <time>2025-01-28T11:02:38Z</time>
      </trkpt>
      <trkpt lat="47.61755" lon="-2.82307">
        <ele>2.1</ele>
        <time>2025-01-28T11:02:39Z</time>
      </trkpt>
      <trkpt lat="47.61754" lon="-2.82308">
        <ele>2.1</ele>
        <time>2025-01-28T11:02:40Z</time>
      </trkpt>
      <trkpt lat="47.61753" lon="-2.82309">
        <ele>2.1</ele>
        <time>2025-01-28T11:02:41Z</time>
      </trkpt>
      <trkpt lat="47.61752" lon="-2.82309">
        <ele>2</ele>
        <time>2025-01-28T11:02:42Z</time>
      </trkpt>
      <trkpt lat="47.61751" lon="-2.8231">
        <ele>2.1</ele>
        <time>2025-01-28T11:02:43Z</time>
      </trkpt>
      <trkpt lat="47.6175" lon="-2.82311">
        <ele>2.2</ele>
        <time>2025-01-28T11:02:44Z</time>
      </trkpt>
      <trkpt lat="47.61749" lon="-2.82312">
        <ele>2.2</ele>
        <time>2025-01-28T11:02:45Z</time>
      </trkpt>
      <trkpt lat="47.61747" lon="-2.82312">
        <ele>2.2</ele>
        <time>2025-01-28T11:02:46Z</time>
      </trkpt>
      <trkpt lat="47.61746" lon="-2.82312">
        <ele>2.2</ele>
        <time>2025-01-28T11:02:47Z</time>
      </trkpt>
      <trkpt lat="47.61745" lon="-2.82313">
        <ele>2.3</ele>
        <time>2025-01-28T11:02:48Z</time>
      </trkpt>
      <trkpt lat="47.61744" lon="-2.82313">
        <ele>2.3</ele>
        <time>2025-01-28T11:02:49Z</time>
      </trkpt>
      <trkpt lat="47.61743" lon="-2.82314">
        <ele>2.4</ele>
        <time>2025-01-28T11:02:50Z</time>
      </trkpt>
      <trkpt lat="47.61742" lon="-2.82315">
        <ele>2.5</ele>
        <time>2025-01-28T11:02:51Z</time>
      </trkpt>
      <trkpt lat="47.61741" lon="-2.82316">
        <ele>2.5</ele>
        <time>2025-01-28T11:02:52Z</time>
      </trkpt>
      <trkpt lat="47.6174" lon="-2.82316">
        <ele>2.5</ele>
        <time>2025-01-28T11:02:53Z</time>
      </trkpt>
      <trkpt lat="47.61739" lon="-2.82316">
        <ele>2.4</ele>
        <time>2025-01-28T11:02:54Z</time>
      </trkpt>
      <trkpt lat="47.61738" lon="-2.82316">
        <ele>2.3</ele>
        <time>2025-01-28T11:02:55Z</time>
      </trkpt>
      <trkpt lat="47.61737" lon="-2.82317">
        <ele>2.3</ele>
        <time>2025-01-28T11:02:56Z</time>
      </trkpt>
      <trkpt lat="47.61736" lon="-2.82317">
        <ele>2.3</ele>
        <time>2025-01-28T11:02:57Z</time>
      </trkpt>
      <trkpt lat="47.61735" lon="-2.82318">
        <ele>2.3</ele>
        <time>2025-01-28T11:02:58Z</time>
      </trkpt>
      <trkpt lat="47.61734" lon="-2.8232">
        <ele>2.3</ele>
        <time>2025-01-28T11:02:59Z</time>
      </trkpt>
      <trkpt lat="47.61734" lon="-2.82321">
        <ele>2.4</ele>
        <time>2025-01-28T11:03:00Z</time>
      </trkpt>
      <trkpt lat="47.61733" lon="-2.82323">
        <ele>2.5</ele>
        <time>2025-01-28T11:03:01Z</time>
      </trkpt>
      <trkpt lat="47.61733" lon="-2.82324">
        <ele>2.6</ele>
        <time>2025-01-28T11:03:02Z</time>
      </trkpt>
      <trkpt lat="47.61734" lon="-2.82325">
        <ele>2.7</ele>
        <time>2025-01-28T11:03:03Z</time>
      </trkpt>
      <trkpt lat="47.61734" lon="-2.82325">
        <ele>2.8</ele>
        <time>2025-01-28T11:03:04Z</time>
      </trkpt>
      <trkpt lat="47.61734" lon="-2.82326">
        <ele>2.9</ele>
        <time>2025-01-28T11:03:05Z</time>
      </trkpt>
      <trkpt lat="47.61734" lon="-2.82327">
        <ele>3</ele>
        <time>2025-01-28T11:03:06Z</time>
      </trkpt>
      <trkpt lat="47.61734" lon="-2.82327">
        <ele>2.9</ele>
        <time>2025-01-28T11:03:07Z</time>
      </trkpt>
      <trkpt lat="47.61734" lon="-2.82326">
        <ele>2.9</ele>
        <time>2025-01-28T11:03:08Z</time>
      </trkpt>
      <trkpt lat="47.61734" lon="-2.82327">
        <ele>2.9</ele>
        <time>2025-01-28T11:03:09Z</time>
      </trkpt>
      <trkpt lat="47.61734" lon="-2.82327">
        <ele>3</ele>
        <time>2025-01-28T11:03:10Z</time>
      </trkpt>
      <trkpt lat="47.61734" lon="-2.82328">
        <ele>3.1</ele>
        <time>2025-01-28T11:03:11Z</time>
      </trkpt>
      <trkpt lat="47.61735" lon="-2.82328">
        <ele>3.2</ele>
        <time>2025-01-28T11:03:12Z</time>
      </trkpt>
      <trkpt lat="47.61736" lon="-2.8233">
        <ele>3.6</ele>
        <time>2025-01-28T11:03:13Z</time>
      </trkpt>
      <trkpt lat="47.61737" lon="-2.82331">
        <ele>3.8</ele>
        <time>2025-01-28T11:03:14Z</time>
      </trkpt>
      <trkpt lat="47.61737" lon="-2.82331">
        <ele>3.8</ele>
        <time>2025-01-28T11:03:15Z</time>
      </trkpt>
      <trkpt lat="47.61737" lon="-2.8233">
        <ele>3.9</ele>
        <time>2025-01-28T11:03:16Z</time>
      </trkpt>
      <trkpt lat="47.61737" lon="-2.8233">
        <ele>3.8</ele>
        <time>2025-01-28T11:03:17Z</time>
      </trkpt>
      <trkpt lat="47.61737" lon="-2.82331">
        <ele>3.9</ele>
        <time>2025-01-28T11:03:18Z</time>
      </trkpt>
      <trkpt lat="47.61736" lon="-2.82332">
        <ele>3.8</ele>
        <time>2025-01-28T11:03:19Z</time>
      </trkpt>
      <trkpt lat="47.61735" lon="-2.82333">
        <ele>3.8</ele>
        <time>2025-01-28T11:03:20Z</time>
      </trkpt>
      <trkpt lat="47.61735" lon="-2.82335">
        <ele>3.7</ele>
        <time>2025-01-28T11:03:21Z</time>
      </trkpt>
      <trkpt lat="47.61734" lon="-2.82336">
        <ele>3.6</ele>
        <time>2025-01-28T11:03:22Z</time>
      </trkpt>
      <trkpt lat="47.61733" lon="-2.82337">
        <ele>3.5</ele>
        <time>2025-01-28T11:03:23Z</time>
      </trkpt>
      <trkpt lat="47.61733" lon="-2.82338">
        <ele>3.3</ele>
        <time>2025-01-28T11:03:24Z</time>
      </trkpt>
      <trkpt lat="47.61732" lon="-2.82339">
        <ele>3.2</ele>
        <time>2025-01-28T11:03:25Z</time>
      </trkpt>
      <trkpt lat="47.61732" lon="-2.82341">
        <ele>3.1</ele>
        <time>2025-01-28T11:03:26Z</time>
      </trkpt>
      <trkpt lat="47.61731" lon="-2.82342">
        <ele>3</ele>
        <time>2025-01-28T11:03:27Z</time>
      </trkpt>
      <trkpt lat="47.6173" lon="-2.82344">
        <ele>2.9</ele>
        <time>2025-01-28T11:03:28Z</time>
      </trkpt>
      <trkpt lat="47.6173" lon="-2.82345">
        <ele>2.7</ele>
        <time>2025-01-28T11:03:29Z</time>
      </trkpt>
      <trkpt lat="47.61729" lon="-2.82346">
        <ele>2.5</ele>
        <time>2025-01-28T11:03:30Z</time>
      </trkpt>
      <trkpt lat="47.61728" lon="-2.82346">
        <ele>2.2</ele>
        <time>2025-01-28T11:03:31Z</time>
      </trkpt>
      <trkpt lat="47.61727" lon="-2.82346">
        <ele>2</ele>
        <time>2025-01-28T11:03:32Z</time>
      </trkpt>
      <trkpt lat="47.61726" lon="-2.82346">
        <ele>1.8</ele>
        <time>2025-01-28T11:03:33Z</time>
      </trkpt>
      <trkpt lat="47.61725" lon="-2.82347">
        <ele>1.6</ele>
        <time>2025-01-28T11:03:34Z</time>
      </trkpt>
      <trkpt lat="47.61725" lon="-2.82348">
        <ele>1.5</ele>
        <time>2025-01-28T11:03:35Z</time>
      </trkpt>
      <trkpt lat="47.61724" lon="-2.8235">
        <ele>1.5</ele>
        <time>2025-01-28T11:03:36Z</time>
      </trkpt>
      <trkpt lat="47.61724" lon="-2.82351">
        <ele>1.4</ele>
        <time>2025-01-28T11:03:37Z</time>
      </trkpt>
      <trkpt lat="47.61724" lon="-2.82353">
        <ele>1.4</ele>
        <time>2025-01-28T11:03:38Z</time>
      </trkpt>
      <trkpt lat="47.61724" lon="-2.82355">
        <ele>1.4</ele>
        <time>2025-01-28T11:03:39Z</time>
      </trkpt>
      <trkpt lat="47.61724" lon="-2.82356">
        <ele>1.4</ele>
        <time>2025-01-28T11:03:40Z</time>
      </trkpt>
      <trkpt lat="47.61724" lon="-2.82357">
        <ele>1.4</ele>
        <time>2025-01-28T11:03:41Z</time>
      </trkpt>
      <trkpt lat="47.61724" lon="-2.82358">
        <ele>1.4</ele>
        <time>2025-01-28T11:03:42Z</time>
      </trkpt>
      <trkpt lat="47.61723" lon="-2.8236">
        <ele>1.3</ele>
        <time>2025-01-28T11:03:43Z</time>
      </trkpt>
      <trkpt lat="47.61723" lon="-2.82362">
        <ele>1.2</ele>
        <time>2025-01-28T11:03:44Z</time>
      </trkpt>
      <trkpt lat="47.61722" lon="-2.82363">
        <ele>1.5</ele>
        <time>2025-01-28T11:03:45Z</time>
      </trkpt>
      <trkpt lat="47.61722" lon="-2.82365">
        <ele>1.9</ele>
        <time>2025-01-28T11:03:46Z</time>
      </trkpt>
      <trkpt lat="47.61721" lon="-2.82367">
        <ele>2.2</ele>
        <time>2025-01-28T11:03:47Z</time>
      </trkpt>
      <trkpt lat="47.6172" lon="-2.82368">
        <ele>2.5</ele>
        <time>2025-01-28T11:03:48Z</time>
      </trkpt>
      <trkpt lat="47.6172" lon="-2.82369">
        <ele>2.8</ele>
        <time>2025-01-28T11:03:49Z</time>
      </trkpt>
      <trkpt lat="47.61719" lon="-2.82371">
        <ele>3</ele>
        <time>2025-01-28T11:03:50Z</time>
      </trkpt>
      <trkpt lat="47.61718" lon="-2.82372">
        <ele>3.3</ele>
        <time>2025-01-28T11:03:51Z</time>
      </trkpt>
      <trkpt lat="47.61717" lon="-2.82374">
        <ele>3.5</ele>
        <time>2025-01-28T11:03:52Z</time>
      </trkpt>
      <trkpt lat="47.61716" lon="-2.82374">
        <ele>3.5</ele>
        <time>2025-01-28T11:03:53Z</time>
      </trkpt>
      <trkpt lat="47.61716" lon="-2.82374">
        <ele>3.6</ele>
        <time>2025-01-28T11:03:54Z</time>
      </trkpt>
      <trkpt lat="47.61715" lon="-2.82375">
        <ele>3.6</ele>
        <time>2025-01-28T11:03:55Z</time>
      </trkpt>
      <trkpt lat="47.61714" lon="-2.82376">
        <ele>3.8</ele>
        <time>2025-01-28T11:03:56Z</time>
      </trkpt>
      <trkpt lat="47.61714" lon="-2.82378">
        <ele>3.8</ele>
        <time>2025-01-28T11:03:57Z</time>
      </trkpt>
      <trkpt lat="47.61713" lon="-2.82379">
        <ele>3.9</ele>
        <time>2025-01-28T11:03:58Z</time>
      </trkpt>
      <trkpt lat="47.61712" lon="-2.8238">
        <ele>3.9</ele>
        <time>2025-01-28T11:03:59Z</time>
      </trkpt>
      <trkpt lat="47.61711" lon="-2.82382">
        <ele>3.9</ele>
        <time>2025-01-28T11:04:00Z</time>
      </trkpt>
      <trkpt lat="47.6171" lon="-2.82383">
        <ele>3.9</ele>
        <time>2025-01-28T11:04:01Z</time>
      </trkpt>
      <trkpt lat="47.6171" lon="-2.82384">
        <ele>4</ele>
        <time>2025-01-28T11:04:02Z</time>
      </trkpt>
      <trkpt lat="47.61709" lon="-2.82386">
        <ele>3.9</ele>
        <time>2025-01-28T11:04:03Z</time>
      </trkpt>
      <trkpt lat="47.61708" lon="-2.82387">
        <ele>3.8</ele>
        <time>2025-01-28T11:04:04Z</time>
      </trkpt>
      <trkpt lat="47.61707" lon="-2.82389">
        <ele>3.8</ele>
        <time>2025-01-28T11:04:05Z</time>
      </trkpt>
      <trkpt lat="47.61707" lon="-2.8239">
        <ele>3.8</ele>
        <time>2025-01-28T11:04:06Z</time>
      </trkpt>
      <trkpt lat="47.61706" lon="-2.82391">
        <ele>3.8</ele>
        <time>2025-01-28T11:04:07Z</time>
      </trkpt>
      <trkpt lat="47.61706" lon="-2.82392">
        <ele>3.8</ele>
        <time>2025-01-28T11:04:08Z</time>
      </trkpt>
      <trkpt lat="47.61705" lon="-2.82393">
        <ele>3.8</ele>
        <time>2025-01-28T11:04:09Z</time>
      </trkpt>
      <trkpt lat="47.61704" lon="-2.82394">
        <ele>3.7</ele>
        <time>2025-01-28T11:04:10Z</time>
      </trkpt>
      <trkpt lat="47.61703" lon="-2.82395">
        <ele>3.7</ele>
        <time>2025-01-28T11:04:11Z</time>
      </trkpt>
      <trkpt lat="47.61702" lon="-2.82397">
        <ele>3.8</ele>
        <time>2025-01-28T11:04:12Z</time>
      </trkpt>
      <trkpt lat="47.61701" lon="-2.82398">
        <ele>3.8</ele>
        <time>2025-01-28T11:04:13Z</time>
      </trkpt>
      <trkpt lat="47.61701" lon="-2.824">
        <ele>3.9</ele>
        <time>2025-01-28T11:04:14Z</time>
      </trkpt>
      <trkpt lat="47.617" lon="-2.82401">
        <ele>4</ele>
        <time>2025-01-28T11:04:15Z</time>
      </trkpt>
      <trkpt lat="47.61699" lon="-2.82402">
        <ele>4</ele>
        <time>2025-01-28T11:04:16Z</time>
      </trkpt>
      <trkpt lat="47.61699" lon="-2.82402">
        <ele>4</ele>
        <time>2025-01-28T11:04:17Z</time>
      </trkpt>
      <trkpt lat="47.61698" lon="-2.82401">
        <ele>3.8</ele>
        <time>2025-01-28T11:04:18Z</time>
      </trkpt>
      <trkpt lat="47.61697" lon="-2.82401">
        <ele>3.6</ele>
        <time>2025-01-28T11:04:19Z</time>
      </trkpt>
      <trkpt lat="47.61697" lon="-2.82401">
        <ele>3.5</ele>
        <time>2025-01-28T11:04:20Z</time>
      </trkpt>
      <trkpt lat="47.61696" lon="-2.82402">
        <ele>3.5</ele>
        <time>2025-01-28T11:04:21Z</time>
      </trkpt>
      <trkpt lat="47.61695" lon="-2.82402">
        <ele>3.4</ele>
        <time>2025-01-28T11:04:22Z</time>
      </trkpt>
      <trkpt lat="47.61694" lon="-2.82403">
        <ele>3.5</ele>
        <time>2025-01-28T11:04:23Z</time>
      </trkpt>
      <trkpt lat="47.61693" lon="-2.82403">
        <ele>3.7</ele>
        <time>2025-01-28T11:04:24Z</time>
      </trkpt>
      <trkpt lat="47.61693" lon="-2.82405">
        <ele>4</ele>
        <time>2025-01-28T11:04:25Z</time>
      </trkpt>
      <trkpt lat="47.61692" lon="-2.82405">
        <ele>4.2</ele>
        <time>2025-01-28T11:04:26Z</time>
      </trkpt>
      <trkpt lat="47.61691" lon="-2.82406">
        <ele>4.3</ele>
        <time>2025-01-28T11:04:27Z</time>
      </trkpt>
      <trkpt lat="47.6169" lon="-2.82407">
        <ele>4.5</ele>
        <time>2025-01-28T11:04:28Z</time>
      </trkpt>
      <trkpt lat="47.61689" lon="-2.82408">
        <ele>4.7</ele>
        <time>2025-01-28T11:04:29Z</time>
      </trkpt>
      <trkpt lat="47.61688" lon="-2.82408">
        <ele>4.8</ele>
        <time>2025-01-28T11:04:30Z</time>
      </trkpt>
      <trkpt lat="47.61687" lon="-2.82408">
        <ele>4.9</ele>
        <time>2025-01-28T11:04:31Z</time>
      </trkpt>
      <trkpt lat="47.61686" lon="-2.82409">
        <ele>5</ele>
        <time>2025-01-28T11:04:32Z</time>
      </trkpt>
      <trkpt lat="47.61685" lon="-2.82409">
        <ele>5.1</ele>
        <time>2025-01-28T11:04:33Z</time>
      </trkpt>
      <trkpt lat="47.61685" lon="-2.8241">
        <ele>5.2</ele>
        <time>2025-01-28T11:04:34Z</time>
      </trkpt>
      <trkpt lat="47.61684" lon="-2.82412">
        <ele>5.4</ele>
        <time>2025-01-28T11:04:35Z</time>
      </trkpt>
      <trkpt lat="47.61684" lon="-2.82413">
        <ele>5.6</ele>
        <time>2025-01-28T11:04:36Z</time>
      </trkpt>
      <trkpt lat="47.61683" lon="-2.82414">
        <ele>5.7</ele>
        <time>2025-01-28T11:04:37Z</time>
      </trkpt>
      <trkpt lat="47.61683" lon="-2.82415">
        <ele>5.8</ele>
        <time>2025-01-28T11:04:38Z</time>
      </trkpt>
      <trkpt lat="47.61682" lon="-2.82416">
        <ele>5.9</ele>
        <time>2025-01-28T11:04:39Z</time>
      </trkpt>
      <trkpt lat="47.61681" lon="-2.82417">
        <ele>6</ele>
        <time>2025-01-28T11:04:40Z</time>
      </trkpt>
      <trkpt lat="47.61681" lon="-2.82417">
        <ele>6</ele>
        <time>2025-01-28T11:04:41Z</time>
      </trkpt>
      <trkpt lat="47.6168" lon="-2.82418">
        <ele>6</ele>
        <time>2025-01-28T11:04:42Z</time>
      </trkpt>
      <trkpt lat="47.61679" lon="-2.82418">
        <ele>5.9</ele>
        <time>2025-01-28T11:04:43Z</time>
      </trkpt>
      <trkpt lat="47.61679" lon="-2.8242">
        <ele>5.9</ele>
        <time>2025-01-28T11:04:44Z</time>
      </trkpt>
      <trkpt lat="47.61678" lon="-2.82422">
        <ele>5.8</ele>
        <time>2025-01-28T11:04:45Z</time>
      </trkpt>
      <trkpt lat="47.61677" lon="-2.82423">
        <ele>5.7</ele>
        <time>2025-01-28T11:04:46Z</time>
      </trkpt>
      <trkpt lat="47.61676" lon="-2.82424">
        <ele>5.6</ele>
        <time>2025-01-28T11:04:47Z</time>
      </trkpt>
      <trkpt lat="47.61676" lon="-2.82425">
        <ele>5.5</ele>
        <time>2025-01-28T11:04:48Z</time>
      </trkpt>
      <trkpt lat="47.61675" lon="-2.82426">
        <ele>5.4</ele>
        <time>2025-01-28T11:04:49Z</time>
      </trkpt>
      <trkpt lat="47.61675" lon="-2.82428">
        <ele>5.2</ele>
        <time>2025-01-28T11:04:50Z</time>
      </trkpt>
      <trkpt lat="47.61674" lon="-2.82429">
        <ele>5.1</ele>
        <time>2025-01-28T11:04:51Z</time>
      </trkpt>
      <trkpt lat="47.61673" lon="-2.82429">
        <ele>4.9</ele>
        <time>2025-01-28T11:04:52Z</time>
      </trkpt>
      <trkpt lat="47.61672" lon="-2.8243">
        <ele>4.8</ele>
        <time>2025-01-28T11:04:53Z</time>
      </trkpt>
      <trkpt lat="47.61671" lon="-2.82431">
        <ele>4.6</ele>
        <time>2025-01-28T11:04:54Z</time>
      </trkpt>
      <trkpt lat="47.6167" lon="-2.8243">
        <ele>4.5</ele>
        <time>2025-01-28T11:04:55Z</time>
      </trkpt>
      <trkpt lat="47.61671" lon="-2.8243">
        <ele>4.6</ele>
        <time>2025-01-28T11:04:56Z</time>
      </trkpt>
      <trkpt lat="47.61671" lon="-2.8243">
        <ele>4.7</ele>
        <time>2025-01-28T11:04:57Z</time>
      </trkpt>
      <trkpt lat="47.61671" lon="-2.82429">
        <ele>4.7</ele>
        <time>2025-01-28T11:04:58Z</time>
      </trkpt>
      <trkpt lat="47.61672" lon="-2.82429">
        <ele>4.7</ele>
        <time>2025-01-28T11:04:59Z</time>
      </trkpt>
      <trkpt lat="47.61672" lon="-2.82429">
        <ele>4.8</ele>
        <time>2025-01-28T11:05:00Z</time>
      </trkpt>
      <trkpt lat="47.61672" lon="-2.82429">
        <ele>4.8</ele>
        <time>2025-01-28T11:05:01Z</time>
      </trkpt>
      <trkpt lat="47.61672" lon="-2.82429">
        <ele>4.8</ele>
        <time>2025-01-28T11:05:02Z</time>
      </trkpt>
      <trkpt lat="47.61672" lon="-2.82429">
        <ele>4.8</ele>
        <time>2025-01-28T11:05:03Z</time>
      </trkpt>
      <trkpt lat="47.61672" lon="-2.82429">
        <ele>4.9</ele>
        <time>2025-01-28T11:05:04Z</time>
      </trkpt>
      <trkpt lat="47.61672" lon="-2.82429">
        <ele>4.9</ele>
        <time>2025-01-28T11:05:05Z</time>
      </trkpt>
      <trkpt lat="47.61673" lon="-2.82429">
        <ele>4.9</ele>
        <time>2025-01-28T11:05:06Z</time>
      </trkpt>
      <trkpt lat="47.61673" lon="-2.82429">
        <ele>4.9</ele>
        <time>2025-01-28T11:05:07Z</time>
      </trkpt>
      <trkpt lat="47.61673" lon="-2.82429">
        <ele>4.9</ele>
        <time>2025-01-28T11:05:08Z</time>
      </trkpt>
      <trkpt lat="47.61673" lon="-2.8243">
        <ele>4.8</ele>
        <time>2025-01-28T11:05:09Z</time>
      </trkpt>
      <trkpt lat="47.61673" lon="-2.8243">
        <ele>4.8</ele>
        <time>2025-01-28T11:05:10Z</time>
      </trkpt>
      <trkpt lat="47.61673" lon="-2.82431">
        <ele>4.8</ele>
        <time>2025-01-28T11:05:11Z</time>
      </trkpt>
      <trkpt lat="47.61673" lon="-2.82431">
        <ele>4.8</ele>
        <time>2025-01-28T11:05:12Z</time>
      </trkpt>
      <trkpt lat="47.61673" lon="-2.82431">
        <ele>4.8</ele>
        <time>2025-01-28T11:05:13Z</time>
      </trkpt>
      <trkpt lat="47.61674" lon="-2.82431">
        <ele>4.9</ele>
        <time>2025-01-28T11:05:14Z</time>
      </trkpt>
      <trkpt lat="47.61674" lon="-2.82431">
        <ele>4.9</ele>
        <time>2025-01-28T11:05:15Z</time>
      </trkpt>
      <trkpt lat="47.61674" lon="-2.82431">
        <ele>4.9</ele>
        <time>2025-01-28T11:05:16Z</time>
      </trkpt>
      <trkpt lat="47.61674" lon="-2.82431">
        <ele>4.9</ele>
        <time>2025-01-28T11:05:17Z</time>
      </trkpt>
      <trkpt lat="47.61674" lon="-2.82431">
        <ele>4.9</ele>
        <time>2025-01-28T11:05:18Z</time>
      </trkpt>
      <trkpt lat="47.61673" lon="-2.82431">
        <ele>4.8</ele>
        <time>2025-01-28T11:05:19Z</time>
      </trkpt>
      <trkpt lat="47.61673" lon="-2.82432">
        <ele>4.7</ele>
        <time>2025-01-28T11:05:20Z</time>
      </trkpt>
      <trkpt lat="47.61672" lon="-2.82433">
        <ele>4.5</ele>
        <time>2025-01-28T11:05:21Z</time>
      </trkpt>
      <trkpt lat="47.61671" lon="-2.82434">
        <ele>4.2</ele>
        <time>2025-01-28T11:05:22Z</time>
      </trkpt>
      <trkpt lat="47.6167" lon="-2.82436">
        <ele>3.8</ele>
        <time>2025-01-28T11:05:23Z</time>
      </trkpt>
      <trkpt lat="47.61669" lon="-2.82438">
        <ele>3.4</ele>
        <time>2025-01-28T11:05:24Z</time>
      </trkpt>
      <trkpt lat="47.61668" lon="-2.82439">
        <ele>3.1</ele>
        <time>2025-01-28T11:05:25Z</time>
      </trkpt>
      <trkpt lat="47.61667" lon="-2.8244">
        <ele>2.8</ele>
        <time>2025-01-28T11:05:26Z</time>
      </trkpt>
      <trkpt lat="47.61667" lon="-2.82441">
        <ele>2.5</ele>
        <time>2025-01-28T11:05:27Z</time>
      </trkpt>
      <trkpt lat="47.61666" lon="-2.82442">
        <ele>2.4</ele>
        <time>2025-01-28T11:05:28Z</time>
      </trkpt>
      <trkpt lat="47.61666" lon="-2.82443">
        <ele>2.3</ele>
        <time>2025-01-28T11:05:29Z</time>
      </trkpt>
      <trkpt lat="47.61666" lon="-2.82445">
        <ele>2.2</ele>
        <time>2025-01-28T11:05:30Z</time>
      </trkpt>
      <trkpt lat="47.61665" lon="-2.82446">
        <ele>2.3</ele>
        <time>2025-01-28T11:05:31Z</time>
      </trkpt>
      <trkpt lat="47.61665" lon="-2.82447">
        <ele>2.4</ele>
        <time>2025-01-28T11:05:32Z</time>
      </trkpt>
      <trkpt lat="47.61665" lon="-2.82448">
        <ele>2.5</ele>
        <time>2025-01-28T11:05:33Z</time>
      </trkpt>
      <trkpt lat="47.61665" lon="-2.8245">
        <ele>2.6</ele>
        <time>2025-01-28T11:05:34Z</time>
      </trkpt>
      <trkpt lat="47.61665" lon="-2.82451">
        <ele>2.8</ele>
        <time>2025-01-28T11:05:35Z</time>
      </trkpt>
      <trkpt lat="47.61664" lon="-2.82452">
        <ele>2.9</ele>
        <time>2025-01-28T11:05:36Z</time>
      </trkpt>
      <trkpt lat="47.61664" lon="-2.82453">
        <ele>3</ele>
        <time>2025-01-28T11:05:37Z</time>
      </trkpt>
      <trkpt lat="47.61664" lon="-2.82454">
        <ele>3.1</ele>
        <time>2025-01-28T11:05:38Z</time>
      </trkpt>
      <trkpt lat="47.61664" lon="-2.82456">
        <ele>3.2</ele>
        <time>2025-01-28T11:05:39Z</time>
      </trkpt>
      <trkpt lat="47.61662" lon="-2.82457">
        <ele>3.5</ele>
        <time>2025-01-28T11:05:40Z</time>
      </trkpt>
      <trkpt lat="47.61661" lon="-2.82458">
        <ele>3.8</ele>
        <time>2025-01-28T11:05:41Z</time>
      </trkpt>
      <trkpt lat="47.61661" lon="-2.82459">
        <ele>3.9</ele>
        <time>2025-01-28T11:05:42Z</time>
      </trkpt>
      <trkpt lat="47.61661" lon="-2.8246">
        <ele>3.9</ele>
        <time>2025-01-28T11:05:43Z</time>
      </trkpt>
      <trkpt lat="47.61661" lon="-2.82461">
        <ele>4</ele>
        <time>2025-01-28T11:05:44Z</time>
      </trkpt>
      <trkpt lat="47.61661" lon="-2.82463">
        <ele>4.1</ele>
        <time>2025-01-28T11:05:45Z</time>
      </trkpt>
      <trkpt lat="47.61661" lon="-2.82464">
        <ele>4.2</ele>
        <time>2025-01-28T11:05:46Z</time>
      </trkpt>
      <trkpt lat="47.6166" lon="-2.82465">
        <ele>4.3</ele>
        <time>2025-01-28T11:05:47Z</time>
      </trkpt>
      <trkpt lat="47.6166" lon="-2.82466">
        <ele>4.4</ele>
        <time>2025-01-28T11:05:48Z</time>
      </trkpt>
      <trkpt lat="47.6166" lon="-2.82467">
        <ele>4.4</ele>
        <time>2025-01-28T11:05:49Z</time>
      </trkpt>
      <trkpt lat="47.6166" lon="-2.82468">
        <ele>4.5</ele>
        <time>2025-01-28T11:05:50Z</time>
      </trkpt>
      <trkpt lat="47.6166" lon="-2.8247">
        <ele>4.6</ele>
        <time>2025-01-28T11:05:51Z</time>
      </trkpt>
      <trkpt lat="47.6166" lon="-2.82471">
        <ele>4.6</ele>
        <time>2025-01-28T11:05:52Z</time>
      </trkpt>
      <trkpt lat="47.6166" lon="-2.82473">
        <ele>4.9</ele>
        <time>2025-01-28T11:05:53Z</time>
      </trkpt>
      <trkpt lat="47.6166" lon="-2.82475">
        <ele>5.2</ele>
        <time>2025-01-28T11:05:54Z</time>
      </trkpt>
      <trkpt lat="47.61659" lon="-2.82477">
        <ele>5.5</ele>
        <time>2025-01-28T11:05:55Z</time>
      </trkpt>
      <trkpt lat="47.61659" lon="-2.82478">
        <ele>5.8</ele>
        <time>2025-01-28T11:05:56Z</time>
      </trkpt>
      <trkpt lat="47.61658" lon="-2.82479">
        <ele>6</ele>
        <time>2025-01-28T11:05:57Z</time>
      </trkpt>
      <trkpt lat="47.61658" lon="-2.82481">
        <ele>6.1</ele>
        <time>2025-01-28T11:05:58Z</time>
      </trkpt>
      <trkpt lat="47.61658" lon="-2.82482">
        <ele>6.4</ele>
        <time>2025-01-28T11:05:59Z</time>
      </trkpt>
      <trkpt lat="47.61657" lon="-2.82483">
        <ele>6.6</ele>
        <time>2025-01-28T11:06:00Z</time>
      </trkpt>
      <trkpt lat="47.61656" lon="-2.82484">
        <ele>6.8</ele>
        <time>2025-01-28T11:06:01Z</time>
      </trkpt>
      <trkpt lat="47.61656" lon="-2.82485">
        <ele>6.9</ele>
        <time>2025-01-28T11:06:02Z</time>
      </trkpt>
      <trkpt lat="47.61655" lon="-2.82486">
        <ele>7.1</ele>
        <time>2025-01-28T11:06:03Z</time>
      </trkpt>
      <trkpt lat="47.61655" lon="-2.82487">
        <ele>7.3</ele>
        <time>2025-01-28T11:06:04Z</time>
      </trkpt>
      <trkpt lat="47.61654" lon="-2.82489">
        <ele>7.5</ele>
        <time>2025-01-28T11:06:05Z</time>
      </trkpt>
      <trkpt lat="47.61654" lon="-2.82491">
        <ele>7.8</ele>
        <time>2025-01-28T11:06:06Z</time>
      </trkpt>
      <trkpt lat="47.61653" lon="-2.82492">
        <ele>7.9</ele>
        <time>2025-01-28T11:06:07Z</time>
      </trkpt>
      <trkpt lat="47.61652" lon="-2.82493">
        <ele>8.1</ele>
        <time>2025-01-28T11:06:08Z</time>
      </trkpt>
      <trkpt lat="47.61652" lon="-2.82495">
        <ele>8.3</ele>
        <time>2025-01-28T11:06:09Z</time>
      </trkpt>
      <trkpt lat="47.61652" lon="-2.82496">
        <ele>8.5</ele>
        <time>2025-01-28T11:06:10Z</time>
      </trkpt>
      <trkpt lat="47.61651" lon="-2.82498">
        <ele>8.7</ele>
        <time>2025-01-28T11:06:11Z</time>
      </trkpt>
      <trkpt lat="47.61651" lon="-2.82499">
        <ele>8.9</ele>
        <time>2025-01-28T11:06:12Z</time>
      </trkpt>
      <trkpt lat="47.61651" lon="-2.82501">
        <ele>9</ele>
        <time>2025-01-28T11:06:13Z</time>
      </trkpt>
      <trkpt lat="47.61651" lon="-2.82502">
        <ele>8.9</ele>
        <time>2025-01-28T11:06:14Z</time>
      </trkpt>
      <trkpt lat="47.6165" lon="-2.82504">
        <ele>8.8</ele>
        <time>2025-01-28T11:06:15Z</time>
      </trkpt>
      <trkpt lat="47.6165" lon="-2.82505">
        <ele>8.7</ele>
        <time>2025-01-28T11:06:16Z</time>
      </trkpt>
      <trkpt lat="47.61649" lon="-2.82506">
        <ele>8.7</ele>
        <time>2025-01-28T11:06:17Z</time>
      </trkpt>
      <trkpt lat="47.61649" lon="-2.82508">
        <ele>8.6</ele>
        <time>2025-01-28T11:06:18Z</time>
      </trkpt>
      <trkpt lat="47.61648" lon="-2.82509">
        <ele>8.5</ele>
        <time>2025-01-28T11:06:19Z</time>
      </trkpt>
      <trkpt lat="47.61648" lon="-2.8251">
        <ele>8.4</ele>
        <time>2025-01-28T11:06:20Z</time>
      </trkpt>
      <trkpt lat="47.61647" lon="-2.82511">
        <ele>8.2</ele>
        <time>2025-01-28T11:06:21Z</time>
      </trkpt>
      <trkpt lat="47.61646" lon="-2.82512">
        <ele>8.1</ele>
        <time>2025-01-28T11:06:22Z</time>
      </trkpt>
      <trkpt lat="47.61645" lon="-2.82513">
        <ele>8</ele>
        <time>2025-01-28T11:06:23Z</time>
      </trkpt>
      <trkpt lat="47.61644" lon="-2.82513">
        <ele>8</ele>
        <time>2025-01-28T11:06:24Z</time>
      </trkpt>
      <trkpt lat="47.61644" lon="-2.82515">
        <ele>7.8</ele>
        <time>2025-01-28T11:06:25Z</time>
      </trkpt>
      <trkpt lat="47.61644" lon="-2.82516">
        <ele>7.6</ele>
        <time>2025-01-28T11:06:26Z</time>
      </trkpt>
      <trkpt lat="47.61643" lon="-2.82517">
        <ele>7.5</ele>
        <time>2025-01-28T11:06:27Z</time>
      </trkpt>
      <trkpt lat="47.61642" lon="-2.82518">
        <ele>7.3</ele>
        <time>2025-01-28T11:06:28Z</time>
      </trkpt>
      <trkpt lat="47.61641" lon="-2.8252">
        <ele>7.1</ele>
        <time>2025-01-28T11:06:29Z</time>
      </trkpt>
      <trkpt lat="47.61641" lon="-2.82521">
        <ele>6.9</ele>
        <time>2025-01-28T11:06:30Z</time>
      </trkpt>
      <trkpt lat="47.6164" lon="-2.82522">
        <ele>6.8</ele>
        <time>2025-01-28T11:06:31Z</time>
      </trkpt>
      <trkpt lat="47.61639" lon="-2.82523">
        <ele>6.5</ele>
        <time>2025-01-28T11:06:32Z</time>
      </trkpt>
      <trkpt lat="47.61639" lon="-2.82525">
        <ele>5.93</ele>
        <time>2025-01-28T11:06:33Z</time>
      </trkpt>
      <trkpt lat="47.61638" lon="-2.82526">
        <ele>5.82</ele>
        <time>2025-01-28T11:06:34Z</time>
      </trkpt>
      <trkpt lat="47.61637" lon="-2.82527">
        <ele>5.64</ele>
        <time>2025-01-28T11:06:35Z</time>
      </trkpt>
      <trkpt lat="47.61636" lon="-2.82528">
        <ele>5.5</ele>
        <time>2025-01-28T11:06:36Z</time>
      </trkpt>
      <trkpt lat="47.61635" lon="-2.82529">
        <ele>5.4</ele>
        <time>2025-01-28T11:06:37Z</time>
      </trkpt>
      <trkpt lat="47.61634" lon="-2.82529">
        <ele>5.2</ele>
        <time>2025-01-28T11:06:38Z</time>
      </trkpt>
      <trkpt lat="47.61632" lon="-2.82529">
        <ele>5.1</ele>
        <time>2025-01-28T11:06:39Z</time>
      </trkpt>
      <trkpt lat="47.61631" lon="-2.8253">
        <ele>4.9</ele>
        <time>2025-01-28T11:06:40Z</time>
      </trkpt>
      <trkpt lat="47.6163" lon="-2.8253">
        <ele>4.8</ele>
        <time>2025-01-28T11:06:41Z</time>
      </trkpt>
      <trkpt lat="47.61629" lon="-2.82531">
        <ele>4.7</ele>
        <time>2025-01-28T11:06:42Z</time>
      </trkpt>
      <trkpt lat="47.61627" lon="-2.82531">
        <ele>4.5</ele>
        <time>2025-01-28T11:06:43Z</time>
      </trkpt>
      <trkpt lat="47.61626" lon="-2.82531">
        <ele>4.3</ele>
        <time>2025-01-28T11:06:44Z</time>
      </trkpt>
      <trkpt lat="47.61625" lon="-2.82531">
        <ele>4.2</ele>
        <time>2025-01-28T11:06:45Z</time>
      </trkpt>
      <trkpt lat="47.61624" lon="-2.82531">
        <ele>4.1</ele>
        <time>2025-01-28T11:06:46Z</time>
      </trkpt>
      <trkpt lat="47.61623" lon="-2.82532">
        <ele>3.9</ele>
        <time>2025-01-28T11:06:47Z</time>
      </trkpt>
      <trkpt lat="47.61622" lon="-2.82532">
        <ele>3.8</ele>
        <time>2025-01-28T11:06:48Z</time>
      </trkpt>
      <trkpt lat="47.61621" lon="-2.82532">
        <ele>3.6</ele>
        <time>2025-01-28T11:06:49Z</time>
      </trkpt>
      <trkpt lat="47.6162" lon="-2.82531">
        <ele>3.3</ele>
        <time>2025-01-28T11:06:50Z</time>
      </trkpt>
      <trkpt lat="47.61619" lon="-2.8253">
        <ele>3</ele>
        <time>2025-01-28T11:06:51Z</time>
      </trkpt>
      <trkpt lat="47.61619" lon="-2.82529">
        <ele>2.6</ele>
        <time>2025-01-28T11:06:52Z</time>
      </trkpt>
      <trkpt lat="47.61618" lon="-2.82527">
        <ele>2.29</ele>
        <time>2025-01-28T11:06:53Z</time>
      </trkpt>
      <trkpt lat="47.61618" lon="-2.82526">
        <ele>2.17</ele>
        <time>2025-01-28T11:06:54Z</time>
      </trkpt>
      <trkpt lat="47.61617" lon="-2.82526">
        <ele>2.01</ele>
        <time>2025-01-28T11:06:55Z</time>
      </trkpt>
      <trkpt lat="47.61616" lon="-2.82526">
        <ele>1.84</ele>
        <time>2025-01-28T11:06:56Z</time>
      </trkpt>
      <trkpt lat="47.61615" lon="-2.82526">
        <ele>1.68</ele>
        <time>2025-01-28T11:06:57Z</time>
      </trkpt>
      <trkpt lat="47.61614" lon="-2.82527">
        <ele>1.54</ele>
        <time>2025-01-28T11:06:58Z</time>
      </trkpt>
      <trkpt lat="47.61613" lon="-2.82528">
        <ele>1.41</ele>
        <time>2025-01-28T11:06:59Z</time>
      </trkpt>
      <trkpt lat="47.61613" lon="-2.82528">
        <ele>1.3</ele>
        <time>2025-01-28T11:07:00Z</time>
      </trkpt>
      <trkpt lat="47.61612" lon="-2.82528">
        <ele>1.3</ele>
        <time>2025-01-28T11:07:01Z</time>
      </trkpt>
      <trkpt lat="47.61612" lon="-2.82529">
        <ele>1.5</ele>
        <time>2025-01-28T11:07:02Z</time>
      </trkpt>
      <trkpt lat="47.61611" lon="-2.82531">
        <ele>1.8</ele>
        <time>2025-01-28T11:07:03Z</time>
      </trkpt>
      <trkpt lat="47.6161" lon="-2.82533">
        <ele>2.3</ele>
        <time>2025-01-28T11:07:04Z</time>
      </trkpt>
      <trkpt lat="47.61609" lon="-2.82534">
        <ele>2.6</ele>
        <time>2025-01-28T11:07:05Z</time>
      </trkpt>
      <trkpt lat="47.61608" lon="-2.82535">
        <ele>2.7</ele>
        <time>2025-01-28T11:07:06Z</time>
      </trkpt>
      <trkpt lat="47.61607" lon="-2.82534">
        <ele>2.6</ele>
        <time>2025-01-28T11:07:07Z</time>
      </trkpt>
      <trkpt lat="47.61605" lon="-2.82534">
        <ele>2.6</ele>
        <time>2025-01-28T11:07:08Z</time>
      </trkpt>
      <trkpt lat="47.61604" lon="-2.82535">
        <ele>2.7</ele>
        <time>2025-01-28T11:07:09Z</time>
      </trkpt>
      <trkpt lat="47.61602" lon="-2.82536">
        <ele>2.8</ele>
        <time>2025-01-28T11:07:10Z</time>
      </trkpt>
      <trkpt lat="47.616" lon="-2.82536">
        <ele>2.8</ele>
        <time>2025-01-28T11:07:11Z</time>
      </trkpt>
      <trkpt lat="47.61599" lon="-2.82537">
        <ele>2.8</ele>
        <time>2025-01-28T11:07:12Z</time>
      </trkpt>
      <trkpt lat="47.61598" lon="-2.82537">
        <ele>2.8</ele>
        <time>2025-01-28T11:07:13Z</time>
      </trkpt>
      <trkpt lat="47.61596" lon="-2.82537">
        <ele>2.8</ele>
        <time>2025-01-28T11:07:14Z</time>
      </trkpt>
      <trkpt lat="47.61596" lon="-2.82538">
        <ele>2.8</ele>
        <time>2025-01-28T11:07:15Z</time>
      </trkpt>
      <trkpt lat="47.61595" lon="-2.82538">
        <ele>2.8</ele>
        <time>2025-01-28T11:07:16Z</time>
      </trkpt>
      <trkpt lat="47.61594" lon="-2.82539">
        <ele>2.9</ele>
        <time>2025-01-28T11:07:17Z</time>
      </trkpt>
      <trkpt lat="47.61593" lon="-2.82539">
        <ele>2.9</ele>
        <time>2025-01-28T11:07:18Z</time>
      </trkpt>
      <trkpt lat="47.61593" lon="-2.82538">
        <ele>2.7</ele>
        <time>2025-01-28T11:07:19Z</time>
      </trkpt>
      <trkpt lat="47.61592" lon="-2.82537">
        <ele>2.7</ele>
        <time>2025-01-28T11:07:20Z</time>
      </trkpt>
      <trkpt lat="47.61592" lon="-2.82535">
        <ele>2.5</ele>
        <time>2025-01-28T11:07:21Z</time>
      </trkpt>
      <trkpt lat="47.61591" lon="-2.82534">
        <ele>2.3</ele>
        <time>2025-01-28T11:07:22Z</time>
      </trkpt>
      <trkpt lat="47.61591" lon="-2.82534">
        <ele>2.3</ele>
        <time>2025-01-28T11:07:23Z</time>
      </trkpt>
      <trkpt lat="47.6159" lon="-2.82533">
        <ele>2.2</ele>
        <time>2025-01-28T11:07:24Z</time>
      </trkpt>
      <trkpt lat="47.61589" lon="-2.82533">
        <ele>2.2</ele>
        <time>2025-01-28T11:07:25Z</time>
      </trkpt>
      <trkpt lat="47.61588" lon="-2.82532">
        <ele>2.2</ele>
        <time>2025-01-28T11:07:26Z</time>
      </trkpt>
      <trkpt lat="47.61587" lon="-2.82532">
        <ele>2.2</ele>
        <time>2025-01-28T11:07:27Z</time>
      </trkpt>
      <trkpt lat="47.61586" lon="-2.82532">
        <ele>2.2</ele>
        <time>2025-01-28T11:07:28Z</time>
      </trkpt>
      <trkpt lat="47.61585" lon="-2.82532">
        <ele>2.2</ele>
        <time>2025-01-28T11:07:29Z</time>
      </trkpt>
      <trkpt lat="47.61584" lon="-2.82533">
        <ele>2.2</ele>
        <time>2025-01-28T11:07:30Z</time>
      </trkpt>
      <trkpt lat="47.61583" lon="-2.82533">
        <ele>2.2</ele>
        <time>2025-01-28T11:07:31Z</time>
      </trkpt>
      <trkpt lat="47.61582" lon="-2.82533">
        <ele>2.2</ele>
        <time>2025-01-28T11:07:32Z</time>
      </trkpt>
      <trkpt lat="47.61583" lon="-2.82533">
        <ele>2.2</ele>
        <time>2025-01-28T11:07:33Z</time>
      </trkpt>
      <trkpt lat="47.61584" lon="-2.82531">
        <ele>2.1</ele>
        <time>2025-01-28T11:07:34Z</time>
      </trkpt>
      <trkpt lat="47.61587" lon="-2.82533">
        <ele>2.2</ele>
        <time>2025-01-28T11:07:35Z</time>
      </trkpt>
      <trkpt lat="47.61587" lon="-2.82537">
        <ele>2.4</ele>
        <time>2025-01-28T11:07:36Z</time>
      </trkpt>
      <trkpt lat="47.61586" lon="-2.82538">
        <ele>2.5</ele>
        <time>2025-01-28T11:07:37Z</time>
      </trkpt>
      <trkpt lat="47.61585" lon="-2.82538">
        <ele>2.4</ele>
        <time>2025-01-28T11:07:38Z</time>
      </trkpt>
      <trkpt lat="47.61584" lon="-2.82539">
        <ele>2.4</ele>
        <time>2025-01-28T11:07:39Z</time>
      </trkpt>
      <trkpt lat="47.61584" lon="-2.8254">
        <ele>2.4</ele>
        <time>2025-01-28T11:07:40Z</time>
      </trkpt>
      <trkpt lat="47.61583" lon="-2.8254">
        <ele>2.5</ele>
        <time>2025-01-28T11:07:41Z</time>
      </trkpt>
      <trkpt lat="47.61583" lon="-2.82542">
        <ele>2.5</ele>
        <time>2025-01-28T11:07:42Z</time>
      </trkpt>
      <trkpt lat="47.61583" lon="-2.82542">
        <ele>2.6</ele>
        <time>2025-01-28T11:07:43Z</time>
      </trkpt>
      <trkpt lat="47.61582" lon="-2.82544">
        <ele>2.7</ele>
        <time>2025-01-28T11:07:44Z</time>
      </trkpt>
      <trkpt lat="47.61583" lon="-2.82545">
        <ele>2.7</ele>
        <time>2025-01-28T11:07:45Z</time>
      </trkpt>
      <trkpt lat="47.61583" lon="-2.82546">
        <ele>2.7</ele>
        <time>2025-01-28T11:07:46Z</time>
      </trkpt>
      <trkpt lat="47.61583" lon="-2.82547">
        <ele>2.7</ele>
        <time>2025-01-28T11:07:47Z</time>
      </trkpt>
      <trkpt lat="47.61584" lon="-2.82548">
        <ele>2.8</ele>
        <time>2025-01-28T11:07:48Z</time>
      </trkpt>
      <trkpt lat="47.61584" lon="-2.8255">
        <ele>2.9</ele>
        <time>2025-01-28T11:07:49Z</time>
      </trkpt>
      <trkpt lat="47.61584" lon="-2.82551">
        <ele>3</ele>
        <time>2025-01-28T11:07:50Z</time>
      </trkpt>
      <trkpt lat="47.61584" lon="-2.82552">
        <ele>3</ele>
        <time>2025-01-28T11:07:51Z</time>
      </trkpt>
      <trkpt lat="47.61584" lon="-2.82554">
        <ele>3.1</ele>
        <time>2025-01-28T11:07:52Z</time>
      </trkpt>
      <trkpt lat="47.61584" lon="-2.82556">
        <ele>3.2</ele>
        <time>2025-01-28T11:07:53Z</time>
      </trkpt>
      <trkpt lat="47.61584" lon="-2.82557">
        <ele>3.1</ele>
        <time>2025-01-28T11:07:54Z</time>
      </trkpt>
      <trkpt lat="47.61584" lon="-2.82559">
        <ele>3</ele>
        <time>2025-01-28T11:07:55Z</time>
      </trkpt>
      <trkpt lat="47.61584" lon="-2.8256">
        <ele>2.9</ele>
        <time>2025-01-28T11:07:56Z</time>
      </trkpt>
      <trkpt lat="47.61584" lon="-2.82562">
        <ele>2.9</ele>
        <time>2025-01-28T11:07:57Z</time>
      </trkpt>
      <trkpt lat="47.61584" lon="-2.82564">
        <ele>2.9</ele>
        <time>2025-01-28T11:07:58Z</time>
      </trkpt>
      <trkpt lat="47.61584" lon="-2.82565">
        <ele>2.8</ele>
        <time>2025-01-28T11:07:59Z</time>
      </trkpt>
      <trkpt lat="47.61584" lon="-2.82566">
        <ele>2.8</ele>
        <time>2025-01-28T11:08:00Z</time>
      </trkpt>
      <trkpt lat="47.61585" lon="-2.82567">
        <ele>2.9</ele>
        <time>2025-01-28T11:08:01Z</time>
      </trkpt>
      <trkpt lat="47.61585" lon="-2.82568">
        <ele>2.9</ele>
        <time>2025-01-28T11:08:02Z</time>
      </trkpt>
      <trkpt lat="47.61585" lon="-2.82569">
        <ele>2.9</ele>
        <time>2025-01-28T11:08:03Z</time>
      </trkpt>
      <trkpt lat="47.61585" lon="-2.82571">
        <ele>2.9</ele>
        <time>2025-01-28T11:08:04Z</time>
      </trkpt>
      <trkpt lat="47.61586" lon="-2.82572">
        <ele>2.9</ele>
        <time>2025-01-28T11:08:05Z</time>
      </trkpt>
      <trkpt lat="47.61586" lon="-2.82574">
        <ele>2.9</ele>
        <time>2025-01-28T11:08:06Z</time>
      </trkpt>
      <trkpt lat="47.61586" lon="-2.82575">
        <ele>2.9</ele>
        <time>2025-01-28T11:08:07Z</time>
      </trkpt>
      <trkpt lat="47.61586" lon="-2.82576">
        <ele>2.9</ele>
        <time>2025-01-28T11:08:08Z</time>
      </trkpt>
      <trkpt lat="47.61586" lon="-2.82578">
        <ele>2.9</ele>
        <time>2025-01-28T11:08:09Z</time>
      </trkpt>
      <trkpt lat="47.61586" lon="-2.8258">
        <ele>2.8</ele>
        <time>2025-01-28T11:08:10Z</time>
      </trkpt>
      <trkpt lat="47.61586" lon="-2.82581">
        <ele>2.8</ele>
        <time>2025-01-28T11:08:11Z</time>
      </trkpt>
      <trkpt lat="47.61587" lon="-2.82582">
        <ele>2.9</ele>
        <time>2025-01-28T11:08:12Z</time>
      </trkpt>
      <trkpt lat="47.61588" lon="-2.82583">
        <ele>3.1</ele>
        <time>2025-01-28T11:08:13Z</time>
      </trkpt>
      <trkpt lat="47.61588" lon="-2.82585">
        <ele>3.1</ele>
        <time>2025-01-28T11:08:14Z</time>
      </trkpt>
      <trkpt lat="47.61588" lon="-2.82587">
        <ele>3.2</ele>
        <time>2025-01-28T11:08:15Z</time>
      </trkpt>
      <trkpt lat="47.61589" lon="-2.82589">
        <ele>3.3</ele>
        <time>2025-01-28T11:08:16Z</time>
      </trkpt>
      <trkpt lat="47.61589" lon="-2.82591">
        <ele>3.3</ele>
        <time>2025-01-28T11:08:17Z</time>
      </trkpt>
      <trkpt lat="47.61589" lon="-2.82593">
        <ele>3.2</ele>
        <time>2025-01-28T11:08:18Z</time>
      </trkpt>
      <trkpt lat="47.61589" lon="-2.82594">
        <ele>3.2</ele>
        <time>2025-01-28T11:08:19Z</time>
      </trkpt>
      <trkpt lat="47.61589" lon="-2.82595">
        <ele>3.2</ele>
        <time>2025-01-28T11:08:20Z</time>
      </trkpt>
      <trkpt lat="47.61589" lon="-2.82597">
        <ele>3.1</ele>
        <time>2025-01-28T11:08:21Z</time>
      </trkpt>
      <trkpt lat="47.61589" lon="-2.82599">
        <ele>3.1</ele>
        <time>2025-01-28T11:08:22Z</time>
      </trkpt>
      <trkpt lat="47.61589" lon="-2.82602">
        <ele>3</ele>
        <time>2025-01-28T11:08:23Z</time>
      </trkpt>
      <trkpt lat="47.61589" lon="-2.82604">
        <ele>3</ele>
        <time>2025-01-28T11:08:24Z</time>
      </trkpt>
      <trkpt lat="47.61589" lon="-2.82605">
        <ele>3</ele>
        <time>2025-01-28T11:08:25Z</time>
      </trkpt>
      <trkpt lat="47.61589" lon="-2.82607">
        <ele>3</ele>
        <time>2025-01-28T11:08:26Z</time>
      </trkpt>
      <trkpt lat="47.6159" lon="-2.82608">
        <ele>3.1</ele>
        <time>2025-01-28T11:08:27Z</time>
      </trkpt>
      <trkpt lat="47.6159" lon="-2.82609">
        <ele>3.2</ele>
        <time>2025-01-28T11:08:28Z</time>
      </trkpt>
      <trkpt lat="47.61591" lon="-2.82608">
        <ele>3.4</ele>
        <time>2025-01-28T11:08:29Z</time>
      </trkpt>
      <trkpt lat="47.61591" lon="-2.82608">
        <ele>3.6</ele>
        <time>2025-01-28T11:08:30Z</time>
      </trkpt>
      <trkpt lat="47.61592" lon="-2.82607">
        <ele>3.9</ele>
        <time>2025-01-28T11:08:31Z</time>
      </trkpt>
      <trkpt lat="47.61592" lon="-2.82608">
        <ele>3.9</ele>
        <time>2025-01-28T11:08:32Z</time>
      </trkpt>
      <trkpt lat="47.61593" lon="-2.82609">
        <ele>4.1</ele>
        <time>2025-01-28T11:08:33Z</time>
      </trkpt>
      <trkpt lat="47.61593" lon="-2.8261">
        <ele>4.3</ele>
        <time>2025-01-28T11:08:34Z</time>
      </trkpt>
      <trkpt lat="47.61594" lon="-2.82611">
        <ele>4.3</ele>
        <time>2025-01-28T11:08:35Z</time>
      </trkpt>
      <trkpt lat="47.61593" lon="-2.82609">
        <ele>4.1</ele>
        <time>2025-01-28T11:08:36Z</time>
      </trkpt>
      <trkpt lat="47.61593" lon="-2.82609">
        <ele>4</ele>
        <time>2025-01-28T11:08:37Z</time>
      </trkpt>
      <trkpt lat="47.61594" lon="-2.8261">
        <ele>4.6</ele>
        <time>2025-01-28T11:08:38Z</time>
      </trkpt>
      <trkpt lat="47.61595" lon="-2.8261">
        <ele>4.6</ele>
        <time>2025-01-28T11:08:39Z</time>
      </trkpt>
      <trkpt lat="47.61595" lon="-2.82611">
        <ele>4.8</ele>
        <time>2025-01-28T11:08:40Z</time>
      </trkpt>
      <trkpt lat="47.61596" lon="-2.82613">
        <ele>5.1</ele>
        <time>2025-01-28T11:08:41Z</time>
      </trkpt>
      <trkpt lat="47.61597" lon="-2.82613">
        <ele>5.5</ele>
        <time>2025-01-28T11:08:42Z</time>
      </trkpt>
      <trkpt lat="47.61597" lon="-2.82615">
        <ele>5.5</ele>
        <time>2025-01-28T11:08:43Z</time>
      </trkpt>
      <trkpt lat="47.61597" lon="-2.82617">
        <ele>5.6</ele>
        <time>2025-01-28T11:08:44Z</time>
      </trkpt>
      <trkpt lat="47.61597" lon="-2.82618">
        <ele>5.7</ele>
        <time>2025-01-28T11:08:45Z</time>
      </trkpt>
      <trkpt lat="47.61599" lon="-2.82618">
        <ele>6.2</ele>
        <time>2025-01-28T11:08:46Z</time>
      </trkpt>
      <trkpt lat="47.616" lon="-2.82619">
        <ele>6.4</ele>
        <time>2025-01-28T11:08:47Z</time>
      </trkpt>
      <trkpt lat="47.616" lon="-2.8262">
        <ele>6.7</ele>
        <time>2025-01-28T11:08:48Z</time>
      </trkpt>
      <trkpt lat="47.61601" lon="-2.82621">
        <ele>6.8</ele>
        <time>2025-01-28T11:08:49Z</time>
      </trkpt>
      <trkpt lat="47.61601" lon="-2.82622">
        <ele>6.9</ele>
        <time>2025-01-28T11:08:50Z</time>
      </trkpt>
      <trkpt lat="47.61601" lon="-2.82622">
        <ele>7.1</ele>
        <time>2025-01-28T11:08:51Z</time>
      </trkpt>
      <trkpt lat="47.61601" lon="-2.82624">
        <ele>7.1</ele>
        <time>2025-01-28T11:08:52Z</time>
      </trkpt>
      <trkpt lat="47.61601" lon="-2.82626">
        <ele>7.2</ele>
        <time>2025-01-28T11:08:53Z</time>
      </trkpt>
      <trkpt lat="47.61601" lon="-2.82627">
        <ele>7.2</ele>
        <time>2025-01-28T11:08:54Z</time>
      </trkpt>
      <trkpt lat="47.61601" lon="-2.82628">
        <ele>7.2</ele>
        <time>2025-01-28T11:08:55Z</time>
      </trkpt>
      <trkpt lat="47.61601" lon="-2.8263">
        <ele>7.2</ele>
        <time>2025-01-28T11:08:56Z</time>
      </trkpt>
      <trkpt lat="47.61601" lon="-2.82632">
        <ele>7.3</ele>
        <time>2025-01-28T11:08:57Z</time>
      </trkpt>
      <trkpt lat="47.61601" lon="-2.82633">
        <ele>7.3</ele>
        <time>2025-01-28T11:08:58Z</time>
      </trkpt>
      <trkpt lat="47.61602" lon="-2.82635">
        <ele>7.5</ele>
        <time>2025-01-28T11:08:59Z</time>
      </trkpt>
      <trkpt lat="47.61602" lon="-2.82637">
        <ele>7.5</ele>
        <time>2025-01-28T11:09:00Z</time>
      </trkpt>
      <trkpt lat="47.61602" lon="-2.82639">
        <ele>7.6</ele>
        <time>2025-01-28T11:09:01Z</time>
      </trkpt>
      <trkpt lat="47.61602" lon="-2.8264">
        <ele>7.7</ele>
        <time>2025-01-28T11:09:02Z</time>
      </trkpt>
      <trkpt lat="47.61601" lon="-2.82641">
        <ele>7.7</ele>
        <time>2025-01-28T11:09:03Z</time>
      </trkpt>
      <trkpt lat="47.61601" lon="-2.82642">
        <ele>7.6</ele>
        <time>2025-01-28T11:09:04Z</time>
      </trkpt>
      <trkpt lat="47.61601" lon="-2.82644">
        <ele>7.9</ele>
        <time>2025-01-28T11:09:05Z</time>
      </trkpt>
      <trkpt lat="47.61602" lon="-2.82645">
        <ele>8.1</ele>
        <time>2025-01-28T11:09:06Z</time>
      </trkpt>
      <trkpt lat="47.61602" lon="-2.82646">
        <ele>8.3</ele>
        <time>2025-01-28T11:09:07Z</time>
      </trkpt>
      <trkpt lat="47.61602" lon="-2.82647">
        <ele>8.5</ele>
        <time>2025-01-28T11:09:08Z</time>
      </trkpt>
      <trkpt lat="47.61603" lon="-2.82649">
        <ele>8.6</ele>
        <time>2025-01-28T11:09:09Z</time>
      </trkpt>
      <trkpt lat="47.61603" lon="-2.8265">
        <ele>8.8</ele>
        <time>2025-01-28T11:09:10Z</time>
      </trkpt>
      <trkpt lat="47.61602" lon="-2.82652">
        <ele>8.8</ele>
        <time>2025-01-28T11:09:11Z</time>
      </trkpt>
      <trkpt lat="47.61602" lon="-2.82653">
        <ele>8.9</ele>
        <time>2025-01-28T11:09:12Z</time>
      </trkpt>
      <trkpt lat="47.61602" lon="-2.82654">
        <ele>9</ele>
        <time>2025-01-28T11:09:13Z</time>
      </trkpt>
      <trkpt lat="47.61602" lon="-2.82656">
        <ele>9.1</ele>
        <time>2025-01-28T11:09:14Z</time>
      </trkpt>
      <trkpt lat="47.61602" lon="-2.82657">
        <ele>9.2</ele>
        <time>2025-01-28T11:09:15Z</time>
      </trkpt>
      <trkpt lat="47.61602" lon="-2.82658">
        <ele>9.3</ele>
        <time>2025-01-28T11:09:16Z</time>
      </trkpt>
      <trkpt lat="47.61603" lon="-2.82659">
        <ele>9.5</ele>
        <time>2025-01-28T11:09:17Z</time>
      </trkpt>
      <trkpt lat="47.61603" lon="-2.82661">
        <ele>9.6</ele>
        <time>2025-01-28T11:09:18Z</time>
      </trkpt>
      <trkpt lat="47.61603" lon="-2.82662">
        <ele>9.7</ele>
        <time>2025-01-28T11:09:19Z</time>
      </trkpt>
      <trkpt lat="47.61604" lon="-2.82664">
        <ele>9.8</ele>
        <time>2025-01-28T11:09:20Z</time>
      </trkpt>
      <trkpt lat="47.61604" lon="-2.82665">
        <ele>9.9</ele>
        <time>2025-01-28T11:09:21Z</time>
      </trkpt>
      <trkpt lat="47.61605" lon="-2.82667">
        <ele>10</ele>
        <time>2025-01-28T11:09:22Z</time>
      </trkpt>
      <trkpt lat="47.61605" lon="-2.82668">
        <ele>9.9</ele>
        <time>2025-01-28T11:09:23Z</time>
      </trkpt>
      <trkpt lat="47.61605" lon="-2.8267">
        <ele>9.7</ele>
        <time>2025-01-28T11:09:24Z</time>
      </trkpt>
      <trkpt lat="47.61605" lon="-2.82672">
        <ele>9.5</ele>
        <time>2025-01-28T11:09:25Z</time>
      </trkpt>
      <trkpt lat="47.61605" lon="-2.82673">
        <ele>9.3</ele>
        <time>2025-01-28T11:09:26Z</time>
      </trkpt>
      <trkpt lat="47.61606" lon="-2.82675">
        <ele>9.1</ele>
        <time>2025-01-28T11:09:27Z</time>
      </trkpt>
      <trkpt lat="47.61606" lon="-2.82676">
        <ele>8.9</ele>
        <time>2025-01-28T11:09:28Z</time>
      </trkpt>
      <trkpt lat="47.61606" lon="-2.82678">
        <ele>8.8</ele>
        <time>2025-01-28T11:09:29Z</time>
      </trkpt>
      <trkpt lat="47.61606" lon="-2.8268">
        <ele>8.6</ele>
        <time>2025-01-28T11:09:30Z</time>
      </trkpt>
      <trkpt lat="47.61606" lon="-2.82681">
        <ele>8.5</ele>
        <time>2025-01-28T11:09:31Z</time>
      </trkpt>
      <trkpt lat="47.61606" lon="-2.82682">
        <ele>8.3</ele>
        <time>2025-01-28T11:09:32Z</time>
      </trkpt>
      <trkpt lat="47.61606" lon="-2.82684">
        <ele>8.1</ele>
        <time>2025-01-28T11:09:33Z</time>
      </trkpt>
      <trkpt lat="47.61606" lon="-2.82685">
        <ele>8</ele>
        <time>2025-01-28T11:09:34Z</time>
      </trkpt>
      <trkpt lat="47.61606" lon="-2.82687">
        <ele>7.8</ele>
        <time>2025-01-28T11:09:35Z</time>
      </trkpt>
      <trkpt lat="47.61606" lon="-2.82689">
        <ele>7.6</ele>
        <time>2025-01-28T11:09:36Z</time>
      </trkpt>
      <trkpt lat="47.61607" lon="-2.8269">
        <ele>7.4</ele>
        <time>2025-01-28T11:09:37Z</time>
      </trkpt>
      <trkpt lat="47.61607" lon="-2.82692">
        <ele>7.3</ele>
        <time>2025-01-28T11:09:38Z</time>
      </trkpt>
      <trkpt lat="47.61607" lon="-2.82693">
        <ele>7.1</ele>
        <time>2025-01-28T11:09:39Z</time>
      </trkpt>
      <trkpt lat="47.61607" lon="-2.82696">
        <ele>6.9</ele>
        <time>2025-01-28T11:09:40Z</time>
      </trkpt>
      <trkpt lat="47.61608" lon="-2.82698">
        <ele>6.7</ele>
        <time>2025-01-28T11:09:41Z</time>
      </trkpt>
      <trkpt lat="47.61608" lon="-2.82699">
        <ele>6.6</ele>
        <time>2025-01-28T11:09:42Z</time>
      </trkpt>
      <trkpt lat="47.61609" lon="-2.82701">
        <ele>6.4</ele>
        <time>2025-01-28T11:09:43Z</time>
      </trkpt>
      <trkpt lat="47.6161" lon="-2.82701">
        <ele>6.3</ele>
        <time>2025-01-28T11:09:44Z</time>
      </trkpt>
      <trkpt lat="47.6161" lon="-2.82703">
        <ele>6.2</ele>
        <time>2025-01-28T11:09:45Z</time>
      </trkpt>
      <trkpt lat="47.6161" lon="-2.82705">
        <ele>6</ele>
        <time>2025-01-28T11:09:46Z</time>
      </trkpt>
      <trkpt lat="47.6161" lon="-2.82707">
        <ele>5.8</ele>
        <time>2025-01-28T11:09:47Z</time>
      </trkpt>
      <trkpt lat="47.61609" lon="-2.82708">
        <ele>5.6</ele>
        <time>2025-01-28T11:09:48Z</time>
      </trkpt>
      <trkpt lat="47.61609" lon="-2.8271">
        <ele>5.5</ele>
        <time>2025-01-28T11:09:49Z</time>
      </trkpt>
      <trkpt lat="47.61609" lon="-2.82712">
        <ele>5.4</ele>
        <time>2025-01-28T11:09:50Z</time>
      </trkpt>
      <trkpt lat="47.61609" lon="-2.82713">
        <ele>5.2</ele>
        <time>2025-01-28T11:09:51Z</time>
      </trkpt>
      <trkpt lat="47.61609" lon="-2.82715">
        <ele>5.1</ele>
        <time>2025-01-28T11:09:52Z</time>
      </trkpt>
      <trkpt lat="47.61609" lon="-2.82717">
        <ele>5</ele>
        <time>2025-01-28T11:09:53Z</time>
      </trkpt>
      <trkpt lat="47.61609" lon="-2.82718">
        <ele>4.8</ele>
        <time>2025-01-28T11:09:54Z</time>
      </trkpt>
      <trkpt lat="47.61609" lon="-2.8272">
        <ele>4.6</ele>
        <time>2025-01-28T11:09:55Z</time>
      </trkpt>
      <trkpt lat="47.61609" lon="-2.82722">
        <ele>4.4</ele>
        <time>2025-01-28T11:09:56Z</time>
      </trkpt>
      <trkpt lat="47.6161" lon="-2.82723">
        <ele>4.3</ele>
        <time>2025-01-28T11:09:57Z</time>
      </trkpt>
      <trkpt lat="47.6161" lon="-2.82725">
        <ele>4.2</ele>
        <time>2025-01-28T11:09:58Z</time>
      </trkpt>
      <trkpt lat="47.6161" lon="-2.82727">
        <ele>4.2</ele>
        <time>2025-01-28T11:09:59Z</time>
      </trkpt>
      <trkpt lat="47.6161" lon="-2.82728">
        <ele>4.1</ele>
        <time>2025-01-28T11:10:00Z</time>
      </trkpt>
      <trkpt lat="47.6161" lon="-2.8273">
        <ele>4.1</ele>
        <time>2025-01-28T11:10:01Z</time>
      </trkpt>
      <trkpt lat="47.61611" lon="-2.82731">
        <ele>4</ele>
        <time>2025-01-28T11:10:02Z</time>
      </trkpt>
      <trkpt lat="47.61611" lon="-2.82733">
        <ele>4.1</ele>
        <time>2025-01-28T11:10:03Z</time>
      </trkpt>
      <trkpt lat="47.61612" lon="-2.82734">
        <ele>4.1</ele>
        <time>2025-01-28T11:10:04Z</time>
      </trkpt>
      <trkpt lat="47.61612" lon="-2.82736">
        <ele>4.1</ele>
        <time>2025-01-28T11:10:05Z</time>
      </trkpt>
      <trkpt lat="47.61612" lon="-2.82737">
        <ele>4.2</ele>
        <time>2025-01-28T11:10:06Z</time>
      </trkpt>
      <trkpt lat="47.61612" lon="-2.82738">
        <ele>4.2</ele>
        <time>2025-01-28T11:10:07Z</time>
      </trkpt>
      <trkpt lat="47.61613" lon="-2.82739">
        <ele>4.2</ele>
        <time>2025-01-28T11:10:08Z</time>
      </trkpt>
      <trkpt lat="47.61613" lon="-2.82739">
        <ele>4.2</ele>
        <time>2025-01-28T11:10:09Z</time>
      </trkpt>
      <trkpt lat="47.61613" lon="-2.8274">
        <ele>4.3</ele>
        <time>2025-01-28T11:10:10Z</time>
      </trkpt>
      <trkpt lat="47.61613" lon="-2.82741">
        <ele>4.3</ele>
        <time>2025-01-28T11:10:11Z</time>
      </trkpt>
      <trkpt lat="47.61614" lon="-2.82742">
        <ele>4.3</ele>
        <time>2025-01-28T11:10:12Z</time>
      </trkpt>
      <trkpt lat="47.61614" lon="-2.82744">
        <ele>4.3</ele>
        <time>2025-01-28T11:10:13Z</time>
      </trkpt>
      <trkpt lat="47.61613" lon="-2.82745">
        <ele>4.3</ele>
        <time>2025-01-28T11:10:14Z</time>
      </trkpt>
      <trkpt lat="47.61614" lon="-2.82746">
        <ele>4.3</ele>
        <time>2025-01-28T11:10:15Z</time>
      </trkpt>
      <trkpt lat="47.61614" lon="-2.82748">
        <ele>4.3</ele>
        <time>2025-01-28T11:10:16Z</time>
      </trkpt>
      <trkpt lat="47.61614" lon="-2.82749">
        <ele>4.3</ele>
        <time>2025-01-28T11:10:17Z</time>
      </trkpt>
      <trkpt lat="47.61614" lon="-2.82751">
        <ele>4.3</ele>
        <time>2025-01-28T11:10:18Z</time>
      </trkpt>
      <trkpt lat="47.61614" lon="-2.82752">
        <ele>4.3</ele>
        <time>2025-01-28T11:10:19Z</time>
      </trkpt>
      <trkpt lat="47.61614" lon="-2.82753">
        <ele>4.3</ele>
        <time>2025-01-28T11:10:20Z</time>
      </trkpt>
      <trkpt lat="47.61614" lon="-2.82755">
        <ele>4.3</ele>
        <time>2025-01-28T11:10:21Z</time>
      </trkpt>
      <trkpt lat="47.61613" lon="-2.82757">
        <ele>4.2</ele>
        <time>2025-01-28T11:10:22Z</time>
      </trkpt>
      <trkpt lat="47.61613" lon="-2.82759">
        <ele>4.2</ele>
        <time>2025-01-28T11:10:23Z</time>
      </trkpt>
      <trkpt lat="47.61613" lon="-2.8276">
        <ele>4.2</ele>
        <time>2025-01-28T11:10:24Z</time>
      </trkpt>
      <trkpt lat="47.61612" lon="-2.82762">
        <ele>4.1</ele>
        <time>2025-01-28T11:10:25Z</time>
      </trkpt>
      <trkpt lat="47.61612" lon="-2.82763">
        <ele>4.1</ele>
        <time>2025-01-28T11:10:26Z</time>
      </trkpt>
      <trkpt lat="47.61612" lon="-2.82764">
        <ele>4.1</ele>
        <time>2025-01-28T11:10:27Z</time>
      </trkpt>
      <trkpt lat="47.61612" lon="-2.82766">
        <ele>4.1</ele>
        <time>2025-01-28T11:10:28Z</time>
      </trkpt>
      <trkpt lat="47.61612" lon="-2.82768">
        <ele>4.1</ele>
        <time>2025-01-28T11:10:29Z</time>
      </trkpt>
      <trkpt lat="47.61612" lon="-2.82769">
        <ele>4.1</ele>
        <time>2025-01-28T11:10:30Z</time>
      </trkpt>
      <trkpt lat="47.61612" lon="-2.82771">
        <ele>4.1</ele>
        <time>2025-01-28T11:10:31Z</time>
      </trkpt>
      <trkpt lat="47.61613" lon="-2.82773">
        <ele>4.1</ele>
        <time>2025-01-28T11:10:32Z</time>
      </trkpt>
      <trkpt lat="47.61613" lon="-2.82774">
        <ele>4.1</ele>
        <time>2025-01-28T11:10:33Z</time>
      </trkpt>
      <trkpt lat="47.61613" lon="-2.82776">
        <ele>4.1</ele>
        <time>2025-01-28T11:10:34Z</time>
      </trkpt>
      <trkpt lat="47.61613" lon="-2.82777">
        <ele>4.1</ele>
        <time>2025-01-28T11:10:35Z</time>
      </trkpt>
      <trkpt lat="47.61612" lon="-2.82779">
        <ele>4.1</ele>
        <time>2025-01-28T11:10:36Z</time>
      </trkpt>
      <trkpt lat="47.61612" lon="-2.82781">
        <ele>4.1</ele>
        <time>2025-01-28T11:10:37Z</time>
      </trkpt>
      <trkpt lat="47.61612" lon="-2.82782">
        <ele>4</ele>
        <time>2025-01-28T11:10:38Z</time>
      </trkpt>
      <trkpt lat="47.61612" lon="-2.82783">
        <ele>4</ele>
        <time>2025-01-28T11:10:39Z</time>
      </trkpt>
      <trkpt lat="47.61612" lon="-2.82785">
        <ele>4</ele>
        <time>2025-01-28T11:10:40Z</time>
      </trkpt>
      <trkpt lat="47.61611" lon="-2.82786">
        <ele>4</ele>
        <time>2025-01-28T11:10:41Z</time>
      </trkpt>
      <trkpt lat="47.61611" lon="-2.82787">
        <ele>4</ele>
        <time>2025-01-28T11:10:42Z</time>
      </trkpt>
      <trkpt lat="47.61612" lon="-2.82789">
        <ele>4.1</ele>
        <time>2025-01-28T11:10:43Z</time>
      </trkpt>
      <trkpt lat="47.61612" lon="-2.8279">
        <ele>4.1</ele>
        <time>2025-01-28T11:10:44Z</time>
      </trkpt>
      <trkpt lat="47.61612" lon="-2.82791">
        <ele>4.1</ele>
        <time>2025-01-28T11:10:45Z</time>
      </trkpt>
      <trkpt lat="47.61612" lon="-2.82792">
        <ele>4.1</ele>
        <time>2025-01-28T11:10:46Z</time>
      </trkpt>
      <trkpt lat="47.61612" lon="-2.82793">
        <ele>4.1</ele>
        <time>2025-01-28T11:10:47Z</time>
      </trkpt>
      <trkpt lat="47.61612" lon="-2.82794">
        <ele>4.1</ele>
        <time>2025-01-28T11:10:48Z</time>
      </trkpt>
      <trkpt lat="47.61612" lon="-2.82796">
        <ele>4.1</ele>
        <time>2025-01-28T11:10:49Z</time>
      </trkpt>
      <trkpt lat="47.61612" lon="-2.82797">
        <ele>4.1</ele>
        <time>2025-01-28T11:10:50Z</time>
      </trkpt>
      <trkpt lat="47.61613" lon="-2.82798">
        <ele>4.1</ele>
        <time>2025-01-28T11:10:51Z</time>
      </trkpt>
      <trkpt lat="47.61613" lon="-2.82799">
        <ele>4.1</ele>
        <time>2025-01-28T11:10:52Z</time>
      </trkpt>
      <trkpt lat="47.61613" lon="-2.82801">
        <ele>4.1</ele>
        <time>2025-01-28T11:10:53Z</time>
      </trkpt>
      <trkpt lat="47.61613" lon="-2.82802">
        <ele>4.1</ele>
        <time>2025-01-28T11:10:54Z</time>
      </trkpt>
      <trkpt lat="47.61614" lon="-2.82803">
        <ele>4.2</ele>
        <time>2025-01-28T11:10:55Z</time>
      </trkpt>
      <trkpt lat="47.61615" lon="-2.82803">
        <ele>4.2</ele>
        <time>2025-01-28T11:10:56Z</time>
      </trkpt>
      <trkpt lat="47.61615" lon="-2.82804">
        <ele>4.3</ele>
        <time>2025-01-28T11:10:57Z</time>
      </trkpt>
      <trkpt lat="47.61616" lon="-2.82805">
        <ele>4.3</ele>
        <time>2025-01-28T11:10:58Z</time>
      </trkpt>
      <trkpt lat="47.61616" lon="-2.82804">
        <ele>4.4</ele>
        <time>2025-01-28T11:10:59Z</time>
      </trkpt>
      <trkpt lat="47.61617" lon="-2.82805">
        <ele>4.4</ele>
        <time>2025-01-28T11:11:00Z</time>
      </trkpt>
      <trkpt lat="47.61617" lon="-2.82804">
        <ele>4.4</ele>
        <time>2025-01-28T11:11:01Z</time>
      </trkpt>
      <trkpt lat="47.61617" lon="-2.82804">
        <ele>4.4</ele>
        <time>2025-01-28T11:11:02Z</time>
      </trkpt>
      <trkpt lat="47.61617" lon="-2.82804">
        <ele>4.4</ele>
        <time>2025-01-28T11:11:03Z</time>
      </trkpt>
      <trkpt lat="47.61617" lon="-2.82804">
        <ele>4.4</ele>
        <time>2025-01-28T11:11:04Z</time>
      </trkpt>
      <trkpt lat="47.61617" lon="-2.82804">
        <ele>4.4</ele>
        <time>2025-01-28T11:11:05Z</time>
      </trkpt>
      <trkpt lat="47.61617" lon="-2.82804">
        <ele>4.4</ele>
        <time>2025-01-28T11:11:06Z</time>
      </trkpt>
      <trkpt lat="47.61617" lon="-2.82804">
        <ele>4.4</ele>
        <time>2025-01-28T11:11:07Z</time>
      </trkpt>
      <trkpt lat="47.61617" lon="-2.82804">
        <ele>4.4</ele>
        <time>2025-01-28T11:11:08Z</time>
      </trkpt>
      <trkpt lat="47.61617" lon="-2.82804">
        <ele>4.4</ele>
        <time>2025-01-28T11:11:09Z</time>
      </trkpt>
      <trkpt lat="47.61617" lon="-2.82805">
        <ele>4.4</ele>
        <time>2025-01-28T11:11:10Z</time>
      </trkpt>
      <trkpt lat="47.61617" lon="-2.82806">
        <ele>4.4</ele>
        <time>2025-01-28T11:11:11Z</time>
      </trkpt>
      <trkpt lat="47.61617" lon="-2.82806">
        <ele>4.4</ele>
        <time>2025-01-28T11:11:12Z</time>
      </trkpt>
      <trkpt lat="47.61617" lon="-2.82806">
        <ele>4.4</ele>
        <time>2025-01-28T11:11:13Z</time>
      </trkpt>
      <trkpt lat="47.61617" lon="-2.82806">
        <ele>4.4</ele>
        <time>2025-01-28T11:11:14Z</time>
      </trkpt>
      <trkpt lat="47.61617" lon="-2.82806">
        <ele>4.4</ele>
        <time>2025-01-28T11:11:15Z</time>
      </trkpt>
      <trkpt lat="47.61617" lon="-2.82806">
        <ele>4.4</ele>
        <time>2025-01-28T11:11:16Z</time>
      </trkpt>
      <trkpt lat="47.61617" lon="-2.82806">
        <ele>4.4</ele>
        <time>2025-01-28T11:11:17Z</time>
      </trkpt>
      <trkpt lat="47.61617" lon="-2.82806">
        <ele>4.4</ele>
        <time>2025-01-28T11:11:18Z</time>
      </trkpt>
      <trkpt lat="47.61616" lon="-2.82806">
        <ele>4.4</ele>
        <time>2025-01-28T11:11:19Z</time>
      </trkpt>
      <trkpt lat="47.61616" lon="-2.82805">
        <ele>4.3</ele>
        <time>2025-01-28T11:11:20Z</time>
      </trkpt>
      <trkpt lat="47.61616" lon="-2.82805">
        <ele>4.3</ele>
        <time>2025-01-28T11:11:21Z</time>
      </trkpt>
      <trkpt lat="47.61616" lon="-2.82805">
        <ele>4.3</ele>
        <time>2025-01-28T11:11:22Z</time>
      </trkpt>
      <trkpt lat="47.61616" lon="-2.82805">
        <ele>4.3</ele>
        <time>2025-01-28T11:11:23Z</time>
      </trkpt>
      <trkpt lat="47.61616" lon="-2.82805">
        <ele>4.3</ele>
        <time>2025-01-28T11:11:24Z</time>
      </trkpt>
      <trkpt lat="47.61616" lon="-2.82805">
        <ele>4.3</ele>
        <time>2025-01-28T11:11:25Z</time>
      </trkpt>
      <trkpt lat="47.61616" lon="-2.82805">
        <ele>4.3</ele>
        <time>2025-01-28T11:11:26Z</time>
      </trkpt>
      <trkpt lat="47.61616" lon="-2.82805">
        <ele>4.3</ele>
        <time>2025-01-28T11:11:27Z</time>
      </trkpt>
      <trkpt lat="47.61616" lon="-2.82805">
        <ele>4.3</ele>
        <time>2025-01-28T11:11:28Z</time>
      </trkpt>
      <trkpt lat="47.61616" lon="-2.82805">
        <ele>4.3</ele>
        <time>2025-01-28T11:11:29Z</time>
      </trkpt>
      <trkpt lat="47.61616" lon="-2.82805">
        <ele>4.3</ele>
        <time>2025-01-28T11:11:30Z</time>
      </trkpt>
      <trkpt lat="47.61616" lon="-2.82806">
        <ele>4.4</ele>
        <time>2025-01-28T11:11:31Z</time>
      </trkpt>
      <trkpt lat="47.61616" lon="-2.82807">
        <ele>4.4</ele>
        <time>2025-01-28T11:11:32Z</time>
      </trkpt>
      <trkpt lat="47.61616" lon="-2.82808">
        <ele>4.5</ele>
        <time>2025-01-28T11:11:33Z</time>
      </trkpt>
      <trkpt lat="47.61617" lon="-2.8281">
        <ele>4.6</ele>
        <time>2025-01-28T11:11:34Z</time>
      </trkpt>
      <trkpt lat="47.61617" lon="-2.82811">
        <ele>4.7</ele>
        <time>2025-01-28T11:11:35Z</time>
      </trkpt>
      <trkpt lat="47.61617" lon="-2.82812">
        <ele>4.7</ele>
        <time>2025-01-28T11:11:36Z</time>
      </trkpt>
      <trkpt lat="47.61618" lon="-2.82814">
        <ele>4.8</ele>
        <time>2025-01-28T11:11:37Z</time>
      </trkpt>
      <trkpt lat="47.61618" lon="-2.82815">
        <ele>4.9</ele>
        <time>2025-01-28T11:11:38Z</time>
      </trkpt>
      <trkpt lat="47.61618" lon="-2.82816">
        <ele>5</ele>
        <time>2025-01-28T11:11:39Z</time>
      </trkpt>
      <trkpt lat="47.61618" lon="-2.82818">
        <ele>5.1</ele>
        <time>2025-01-28T11:11:40Z</time>
      </trkpt>
      <trkpt lat="47.61619" lon="-2.82819">
        <ele>5.2</ele>
        <time>2025-01-28T11:11:41Z</time>
      </trkpt>
      <trkpt lat="47.61619" lon="-2.8282">
        <ele>5.3</ele>
        <time>2025-01-28T11:11:42Z</time>
      </trkpt>
      <trkpt lat="47.61619" lon="-2.82822">
        <ele>5.3</ele>
        <time>2025-01-28T11:11:43Z</time>
      </trkpt>
      <trkpt lat="47.61619" lon="-2.82823">
        <ele>5.4</ele>
        <time>2025-01-28T11:11:44Z</time>
      </trkpt>
      <trkpt lat="47.61619" lon="-2.82825">
        <ele>5.5</ele>
        <time>2025-01-28T11:11:45Z</time>
      </trkpt>
      <trkpt lat="47.61619" lon="-2.82826">
        <ele>5.5</ele>
        <time>2025-01-28T11:11:46Z</time>
      </trkpt>
      <trkpt lat="47.61619" lon="-2.82828">
        <ele>5.6</ele>
        <time>2025-01-28T11:11:47Z</time>
      </trkpt>
      <trkpt lat="47.61619" lon="-2.82829">
        <ele>5.6</ele>
        <time>2025-01-28T11:11:48Z</time>
      </trkpt>
      <trkpt lat="47.61618" lon="-2.8283">
        <ele>5.6</ele>
        <time>2025-01-28T11:11:49Z</time>
      </trkpt>
      <trkpt lat="47.61617" lon="-2.82831">
        <ele>5.5</ele>
        <time>2025-01-28T11:11:50Z</time>
      </trkpt>
      <trkpt lat="47.61616" lon="-2.82832">
        <ele>5.4</ele>
        <time>2025-01-28T11:11:51Z</time>
      </trkpt>
      <trkpt lat="47.61615" lon="-2.82833">
        <ele>5.4</ele>
        <time>2025-01-28T11:11:52Z</time>
      </trkpt>
      <trkpt lat="47.61614" lon="-2.82834">
        <ele>5.4</ele>
        <time>2025-01-28T11:11:53Z</time>
      </trkpt>
      <trkpt lat="47.61613" lon="-2.82834">
        <ele>5.4</ele>
        <time>2025-01-28T11:11:54Z</time>
      </trkpt>
      <trkpt lat="47.61612" lon="-2.82835">
        <ele>5.3</ele>
        <time>2025-01-28T11:11:55Z</time>
      </trkpt>
      <trkpt lat="47.61611" lon="-2.82836">
        <ele>5.5</ele>
        <time>2025-01-28T11:11:56Z</time>
      </trkpt>
      <trkpt lat="47.61611" lon="-2.82838">
        <ele>5.6</ele>
        <time>2025-01-28T11:11:57Z</time>
      </trkpt>
      <trkpt lat="47.6161" lon="-2.82839">
        <ele>5.7</ele>
        <time>2025-01-28T11:11:58Z</time>
      </trkpt>
      <trkpt lat="47.6161" lon="-2.82841">
        <ele>5.8</ele>
        <time>2025-01-28T11:11:59Z</time>
      </trkpt>
      <trkpt lat="47.61609" lon="-2.82842">
        <ele>5.8</ele>
        <time>2025-01-28T11:12:00Z</time>
      </trkpt>
      <trkpt lat="47.61608" lon="-2.82843">
        <ele>5.8</ele>
        <time>2025-01-28T11:12:01Z</time>
      </trkpt>
      <trkpt lat="47.61607" lon="-2.82844">
        <ele>5.8</ele>
        <time>2025-01-28T11:12:02Z</time>
      </trkpt>
      <trkpt lat="47.61606" lon="-2.82845">
        <ele>5.8</ele>
        <time>2025-01-28T11:12:03Z</time>
      </trkpt>
      <trkpt lat="47.61606" lon="-2.82847">
        <ele>5.8</ele>
        <time>2025-01-28T11:12:04Z</time>
      </trkpt>
      <trkpt lat="47.61605" lon="-2.82847">
        <ele>5.7</ele>
        <time>2025-01-28T11:12:05Z</time>
      </trkpt>
      <trkpt lat="47.61603" lon="-2.82849">
        <ele>5.6</ele>
        <time>2025-01-28T11:12:06Z</time>
      </trkpt>
      <trkpt lat="47.61603" lon="-2.8285">
        <ele>5.6</ele>
        <time>2025-01-28T11:12:07Z</time>
      </trkpt>
      <trkpt lat="47.61602" lon="-2.82851">
        <ele>5.5</ele>
        <time>2025-01-28T11:12:08Z</time>
      </trkpt>
      <trkpt lat="47.61601" lon="-2.82852">
        <ele>5.4</ele>
        <time>2025-01-28T11:12:09Z</time>
      </trkpt>
      <trkpt lat="47.616" lon="-2.82853">
        <ele>5.4</ele>
        <time>2025-01-28T11:12:10Z</time>
      </trkpt>
      <trkpt lat="47.61599" lon="-2.82855">
        <ele>5.3</ele>
        <time>2025-01-28T11:12:11Z</time>
      </trkpt>
      <trkpt lat="47.61598" lon="-2.82856">
        <ele>5.2</ele>
        <time>2025-01-28T11:12:12Z</time>
      </trkpt>
      <trkpt lat="47.61597" lon="-2.82857">
        <ele>5.1</ele>
        <time>2025-01-28T11:12:13Z</time>
      </trkpt>
      <trkpt lat="47.61596" lon="-2.82859">
        <ele>5.1</ele>
        <time>2025-01-28T11:12:14Z</time>
      </trkpt>
      <trkpt lat="47.61596" lon="-2.8286">
        <ele>5</ele>
        <time>2025-01-28T11:12:15Z</time>
      </trkpt>
      <trkpt lat="47.61595" lon="-2.82861">
        <ele>4.9</ele>
        <time>2025-01-28T11:12:16Z</time>
      </trkpt>
      <trkpt lat="47.61594" lon="-2.82863">
        <ele>4.9</ele>
        <time>2025-01-28T11:12:17Z</time>
      </trkpt>
      <trkpt lat="47.61593" lon="-2.82864">
        <ele>4.8</ele>
        <time>2025-01-28T11:12:18Z</time>
      </trkpt>
      <trkpt lat="47.61592" lon="-2.82865">
        <ele>4.6</ele>
        <time>2025-01-28T11:12:19Z</time>
      </trkpt>
      <trkpt lat="47.61591" lon="-2.82867">
        <ele>4.5</ele>
        <time>2025-01-28T11:12:20Z</time>
      </trkpt>
      <trkpt lat="47.6159" lon="-2.82868">
        <ele>4.4</ele>
        <time>2025-01-28T11:12:21Z</time>
      </trkpt>
      <trkpt lat="47.6159" lon="-2.8287">
        <ele>4.3</ele>
        <time>2025-01-28T11:12:22Z</time>
      </trkpt>
      <trkpt lat="47.61589" lon="-2.82871">
        <ele>4.2</ele>
        <time>2025-01-28T11:12:23Z</time>
      </trkpt>
      <trkpt lat="47.61588" lon="-2.82873">
        <ele>4.1</ele>
        <time>2025-01-28T11:12:24Z</time>
      </trkpt>
      <trkpt lat="47.61587" lon="-2.82875">
        <ele>4</ele>
        <time>2025-01-28T11:12:25Z</time>
      </trkpt>
      <trkpt lat="47.61586" lon="-2.82877">
        <ele>3.9</ele>
        <time>2025-01-28T11:12:26Z</time>
      </trkpt>
      <trkpt lat="47.61585" lon="-2.82878">
        <ele>3.7</ele>
        <time>2025-01-28T11:12:27Z</time>
      </trkpt>
      <trkpt lat="47.61584" lon="-2.82879">
        <ele>3.5</ele>
        <time>2025-01-28T11:12:28Z</time>
      </trkpt>
      <trkpt lat="47.61583" lon="-2.8288">
        <ele>3.4</ele>
        <time>2025-01-28T11:12:29Z</time>
      </trkpt>
      <trkpt lat="47.61583" lon="-2.82882">
        <ele>3.5</ele>
        <time>2025-01-28T11:12:30Z</time>
      </trkpt>
      <trkpt lat="47.61583" lon="-2.82883">
        <ele>3.5</ele>
        <time>2025-01-28T11:12:31Z</time>
      </trkpt>
      <trkpt lat="47.61582" lon="-2.82884">
        <ele>3.6</ele>
        <time>2025-01-28T11:12:32Z</time>
      </trkpt>
      <trkpt lat="47.61582" lon="-2.82886">
        <ele>3.6</ele>
        <time>2025-01-28T11:12:33Z</time>
      </trkpt>
      <trkpt lat="47.61581" lon="-2.82887">
        <ele>3.5</ele>
        <time>2025-01-28T11:12:34Z</time>
      </trkpt>
      <trkpt lat="47.61579" lon="-2.82888">
        <ele>3.5</ele>
        <time>2025-01-28T11:12:35Z</time>
      </trkpt>
      <trkpt lat="47.61578" lon="-2.82889">
        <ele>3.4</ele>
        <time>2025-01-28T11:12:36Z</time>
      </trkpt>
      <trkpt lat="47.61577" lon="-2.8289">
        <ele>3.5</ele>
        <time>2025-01-28T11:12:37Z</time>
      </trkpt>
      <trkpt lat="47.61576" lon="-2.82891">
        <ele>3.5</ele>
        <time>2025-01-28T11:12:38Z</time>
      </trkpt>
      <trkpt lat="47.61575" lon="-2.82891">
        <ele>3.6</ele>
        <time>2025-01-28T11:12:39Z</time>
      </trkpt>
      <trkpt lat="47.61574" lon="-2.82892">
        <ele>3.7</ele>
        <time>2025-01-28T11:12:40Z</time>
      </trkpt>
      <trkpt lat="47.61573" lon="-2.82893">
        <ele>3.8</ele>
        <time>2025-01-28T11:12:41Z</time>
      </trkpt>
      <trkpt lat="47.61572" lon="-2.82895">
        <ele>3.9</ele>
        <time>2025-01-28T11:12:42Z</time>
      </trkpt>
      <trkpt lat="47.61571" lon="-2.82896">
        <ele>3.9</ele>
        <time>2025-01-28T11:12:43Z</time>
      </trkpt>
      <trkpt lat="47.61571" lon="-2.82897">
        <ele>4</ele>
        <time>2025-01-28T11:12:44Z</time>
      </trkpt>
      <trkpt lat="47.6157" lon="-2.82898">
        <ele>4.1</ele>
        <time>2025-01-28T11:12:45Z</time>
      </trkpt>
      <trkpt lat="47.61569" lon="-2.829">
        <ele>4.2</ele>
        <time>2025-01-28T11:12:46Z</time>
      </trkpt>
      <trkpt lat="47.61568" lon="-2.82901">
        <ele>4.2</ele>
        <time>2025-01-28T11:12:47Z</time>
      </trkpt>
      <trkpt lat="47.61568" lon="-2.82902">
        <ele>4.2</ele>
        <time>2025-01-28T11:12:48Z</time>
      </trkpt>
      <trkpt lat="47.61567" lon="-2.82903">
        <ele>4.2</ele>
        <time>2025-01-28T11:12:49Z</time>
      </trkpt>
      <trkpt lat="47.61566" lon="-2.82905">
        <ele>4.2</ele>
        <time>2025-01-28T11:12:50Z</time>
      </trkpt>
      <trkpt lat="47.61565" lon="-2.82906">
        <ele>4.2</ele>
        <time>2025-01-28T11:12:51Z</time>
      </trkpt>
      <trkpt lat="47.61564" lon="-2.82907">
        <ele>3.9</ele>
        <time>2025-01-28T11:12:52Z</time>
      </trkpt>
      <trkpt lat="47.61563" lon="-2.82907">
        <ele>3.7</ele>
        <time>2025-01-28T11:12:53Z</time>
      </trkpt>
      <trkpt lat="47.61562" lon="-2.82909">
        <ele>3.7</ele>
        <time>2025-01-28T11:12:54Z</time>
      </trkpt>
      <trkpt lat="47.61561" lon="-2.8291">
        <ele>3.5</ele>
        <time>2025-01-28T11:12:55Z</time>
      </trkpt>
      <trkpt lat="47.61561" lon="-2.82911">
        <ele>3.4</ele>
        <time>2025-01-28T11:12:56Z</time>
      </trkpt>
      <trkpt lat="47.6156" lon="-2.82913">
        <ele>3.2</ele>
        <time>2025-01-28T11:12:57Z</time>
      </trkpt>
      <trkpt lat="47.61559" lon="-2.82914">
        <ele>3</ele>
        <time>2025-01-28T11:12:58Z</time>
      </trkpt>
      <trkpt lat="47.61558" lon="-2.82915">
        <ele>2.8</ele>
        <time>2025-01-28T11:12:59Z</time>
      </trkpt>
      <trkpt lat="47.61557" lon="-2.82916">
        <ele>2.6</ele>
        <time>2025-01-28T11:13:00Z</time>
      </trkpt>
      <trkpt lat="47.61556" lon="-2.82918">
        <ele>2.3</ele>
        <time>2025-01-28T11:13:01Z</time>
      </trkpt>
      <trkpt lat="47.61555" lon="-2.82919">
        <ele>2.3</ele>
        <time>2025-01-28T11:13:02Z</time>
      </trkpt>
      <trkpt lat="47.61554" lon="-2.8292">
        <ele>2.4</ele>
        <time>2025-01-28T11:13:03Z</time>
      </trkpt>
      <trkpt lat="47.61554" lon="-2.82922">
        <ele>2.6</ele>
        <time>2025-01-28T11:13:04Z</time>
      </trkpt>
      <trkpt lat="47.61553" lon="-2.82923">
        <ele>2.7</ele>
        <time>2025-01-28T11:13:05Z</time>
      </trkpt>
      <trkpt lat="47.61552" lon="-2.82924">
        <ele>2.9</ele>
        <time>2025-01-28T11:13:06Z</time>
      </trkpt>
      <trkpt lat="47.61551" lon="-2.82925">
        <ele>2.9</ele>
        <time>2025-01-28T11:13:07Z</time>
      </trkpt>
      <trkpt lat="47.6155" lon="-2.82927">
        <ele>3</ele>
        <time>2025-01-28T11:13:08Z</time>
      </trkpt>
      <trkpt lat="47.61549" lon="-2.82928">
        <ele>3.1</ele>
        <time>2025-01-28T11:13:09Z</time>
      </trkpt>
      <trkpt lat="47.61548" lon="-2.82929">
        <ele>3.1</ele>
        <time>2025-01-28T11:13:10Z</time>
      </trkpt>
      <trkpt lat="47.61547" lon="-2.8293">
        <ele>3.1</ele>
        <time>2025-01-28T11:13:11Z</time>
      </trkpt>
      <trkpt lat="47.61546" lon="-2.82931">
        <ele>3.2</ele>
        <time>2025-01-28T11:13:12Z</time>
      </trkpt>
      <trkpt lat="47.61545" lon="-2.82932">
        <ele>3.2</ele>
        <time>2025-01-28T11:13:13Z</time>
      </trkpt>
      <trkpt lat="47.61544" lon="-2.82934">
        <ele>3.2</ele>
        <time>2025-01-28T11:13:14Z</time>
      </trkpt>
      <trkpt lat="47.61543" lon="-2.82935">
        <ele>3.3</ele>
        <time>2025-01-28T11:13:15Z</time>
      </trkpt>
      <trkpt lat="47.61542" lon="-2.82936">
        <ele>3.3</ele>
        <time>2025-01-28T11:13:16Z</time>
      </trkpt>
      <trkpt lat="47.61542" lon="-2.82938">
        <ele>3.4</ele>
        <time>2025-01-28T11:13:17Z</time>
      </trkpt>
      <trkpt lat="47.6154" lon="-2.82939">
        <ele>3.3</ele>
        <time>2025-01-28T11:13:18Z</time>
      </trkpt>
      <trkpt lat="47.61539" lon="-2.8294">
        <ele>3.3</ele>
        <time>2025-01-28T11:13:19Z</time>
      </trkpt>
      <trkpt lat="47.61539" lon="-2.82941">
        <ele>3.3</ele>
        <time>2025-01-28T11:13:20Z</time>
      </trkpt>
      <trkpt lat="47.61538" lon="-2.82943">
        <ele>3.3</ele>
        <time>2025-01-28T11:13:21Z</time>
      </trkpt>
      <trkpt lat="47.61537" lon="-2.82944">
        <ele>3.2</ele>
        <time>2025-01-28T11:13:22Z</time>
      </trkpt>
      <trkpt lat="47.61536" lon="-2.82945">
        <ele>3.2</ele>
        <time>2025-01-28T11:13:23Z</time>
      </trkpt>
      <trkpt lat="47.61535" lon="-2.82946">
        <ele>3.1</ele>
        <time>2025-01-28T11:13:24Z</time>
      </trkpt>
      <trkpt lat="47.61534" lon="-2.82947">
        <ele>3.1</ele>
        <time>2025-01-28T11:13:25Z</time>
      </trkpt>
      <trkpt lat="47.61533" lon="-2.82948">
        <ele>3.1</ele>
        <time>2025-01-28T11:13:26Z</time>
      </trkpt>
      <trkpt lat="47.61532" lon="-2.8295">
        <ele>3.1</ele>
        <time>2025-01-28T11:13:27Z</time>
      </trkpt>
      <trkpt lat="47.61531" lon="-2.82951">
        <ele>3</ele>
        <time>2025-01-28T11:13:28Z</time>
      </trkpt>
      <trkpt lat="47.6153" lon="-2.82952">
        <ele>2.9</ele>
        <time>2025-01-28T11:13:29Z</time>
      </trkpt>
      <trkpt lat="47.61529" lon="-2.82953">
        <ele>2.8</ele>
        <time>2025-01-28T11:13:30Z</time>
      </trkpt>
      <trkpt lat="47.61528" lon="-2.82954">
        <ele>2.7</ele>
        <time>2025-01-28T11:13:31Z</time>
      </trkpt>
      <trkpt lat="47.61527" lon="-2.82955">
        <ele>2.7</ele>
        <time>2025-01-28T11:13:32Z</time>
      </trkpt>
      <trkpt lat="47.61526" lon="-2.82956">
        <ele>2.8</ele>
        <time>2025-01-28T11:13:33Z</time>
      </trkpt>
      <trkpt lat="47.61524" lon="-2.82957">
        <ele>2.8</ele>
        <time>2025-01-28T11:13:34Z</time>
      </trkpt>
      <trkpt lat="47.61523" lon="-2.82957">
        <ele>2.8</ele>
        <time>2025-01-28T11:13:35Z</time>
      </trkpt>
      <trkpt lat="47.61522" lon="-2.82958">
        <ele>2.8</ele>
        <time>2025-01-28T11:13:36Z</time>
      </trkpt>
      <trkpt lat="47.61521" lon="-2.82959">
        <ele>2.8</ele>
        <time>2025-01-28T11:13:37Z</time>
      </trkpt>
      <trkpt lat="47.6152" lon="-2.8296">
        <ele>2.8</ele>
        <time>2025-01-28T11:13:38Z</time>
      </trkpt>
      <trkpt lat="47.61519" lon="-2.82961">
        <ele>2.8</ele>
        <time>2025-01-28T11:13:39Z</time>
      </trkpt>
      <trkpt lat="47.61518" lon="-2.82962">
        <ele>2.8</ele>
        <time>2025-01-28T11:13:40Z</time>
      </trkpt>
      <trkpt lat="47.61517" lon="-2.82963">
        <ele>2.8</ele>
        <time>2025-01-28T11:13:41Z</time>
      </trkpt>
      <trkpt lat="47.61516" lon="-2.82964">
        <ele>2.8</ele>
        <time>2025-01-28T11:13:42Z</time>
      </trkpt>
      <trkpt lat="47.61515" lon="-2.82965">
        <ele>2.8</ele>
        <time>2025-01-28T11:13:43Z</time>
      </trkpt>
      <trkpt lat="47.61514" lon="-2.82966">
        <ele>2.8</ele>
        <time>2025-01-28T11:13:44Z</time>
      </trkpt>
      <trkpt lat="47.61512" lon="-2.82967">
        <ele>2.7</ele>
        <time>2025-01-28T11:13:45Z</time>
      </trkpt>
      <trkpt lat="47.61511" lon="-2.82967">
        <ele>2.7</ele>
        <time>2025-01-28T11:13:46Z</time>
      </trkpt>
      <trkpt lat="47.6151" lon="-2.82968">
        <ele>2.6</ele>
        <time>2025-01-28T11:13:47Z</time>
      </trkpt>
      <trkpt lat="47.61509" lon="-2.82969">
        <ele>2.5</ele>
        <time>2025-01-28T11:13:48Z</time>
      </trkpt>
      <trkpt lat="47.61508" lon="-2.8297">
        <ele>2.5</ele>
        <time>2025-01-28T11:13:49Z</time>
      </trkpt>
      <trkpt lat="47.61506" lon="-2.82971">
        <ele>2.4</ele>
        <time>2025-01-28T11:13:50Z</time>
      </trkpt>
      <trkpt lat="47.61505" lon="-2.82972">
        <ele>2.4</ele>
        <time>2025-01-28T11:13:51Z</time>
      </trkpt>
      <trkpt lat="47.61504" lon="-2.82973">
        <ele>2.4</ele>
        <time>2025-01-28T11:13:52Z</time>
      </trkpt>
      <trkpt lat="47.61503" lon="-2.82974">
        <ele>2.4</ele>
        <time>2025-01-28T11:13:53Z</time>
      </trkpt>
      <trkpt lat="47.61502" lon="-2.82975">
        <ele>2.4</ele>
        <time>2025-01-28T11:13:54Z</time>
      </trkpt>
      <trkpt lat="47.61501" lon="-2.82976">
        <ele>2.3</ele>
        <time>2025-01-28T11:13:55Z</time>
      </trkpt>
      <trkpt lat="47.615" lon="-2.82976">
        <ele>2.3</ele>
        <time>2025-01-28T11:13:56Z</time>
      </trkpt>
      <trkpt lat="47.61499" lon="-2.82977">
        <ele>2.4</ele>
        <time>2025-01-28T11:13:57Z</time>
      </trkpt>
      <trkpt lat="47.61498" lon="-2.82978">
        <ele>2.5</ele>
        <time>2025-01-28T11:13:58Z</time>
      </trkpt>
      <trkpt lat="47.61497" lon="-2.82979">
        <ele>2.6</ele>
        <time>2025-01-28T11:13:59Z</time>
      </trkpt>
      <trkpt lat="47.61496" lon="-2.8298">
        <ele>2.6</ele>
        <time>2025-01-28T11:14:00Z</time>
      </trkpt>
      <trkpt lat="47.61495" lon="-2.82981">
        <ele>2.7</ele>
        <time>2025-01-28T11:14:01Z</time>
      </trkpt>
      <trkpt lat="47.61494" lon="-2.82982">
        <ele>2.8</ele>
        <time>2025-01-28T11:14:02Z</time>
      </trkpt>
      <trkpt lat="47.61493" lon="-2.82983">
        <ele>2.8</ele>
        <time>2025-01-28T11:14:03Z</time>
      </trkpt>
      <trkpt lat="47.61492" lon="-2.82984">
        <ele>2.9</ele>
        <time>2025-01-28T11:14:04Z</time>
      </trkpt>
      <trkpt lat="47.61491" lon="-2.82985">
        <ele>2.9</ele>
        <time>2025-01-28T11:14:05Z</time>
      </trkpt>
      <trkpt lat="47.6149" lon="-2.82986">
        <ele>3</ele>
        <time>2025-01-28T11:14:06Z</time>
      </trkpt>
      <trkpt lat="47.61489" lon="-2.82987">
        <ele>3</ele>
        <time>2025-01-28T11:14:07Z</time>
      </trkpt>
      <trkpt lat="47.61488" lon="-2.82987">
        <ele>3.1</ele>
        <time>2025-01-28T11:14:08Z</time>
      </trkpt>
      <trkpt lat="47.61487" lon="-2.82988">
        <ele>3.1</ele>
        <time>2025-01-28T11:14:09Z</time>
      </trkpt>
      <trkpt lat="47.61486" lon="-2.82989">
        <ele>3.1</ele>
        <time>2025-01-28T11:14:10Z</time>
      </trkpt>
      <trkpt lat="47.61486" lon="-2.82991">
        <ele>3.2</ele>
        <time>2025-01-28T11:14:11Z</time>
      </trkpt>
      <trkpt lat="47.61485" lon="-2.82992">
        <ele>3.2</ele>
        <time>2025-01-28T11:14:12Z</time>
      </trkpt>
      <trkpt lat="47.61485" lon="-2.82993">
        <ele>3.2</ele>
        <time>2025-01-28T11:14:13Z</time>
      </trkpt>
      <trkpt lat="47.61484" lon="-2.82995">
        <ele>3.3</ele>
        <time>2025-01-28T11:14:14Z</time>
      </trkpt>
      <trkpt lat="47.61483" lon="-2.82996">
        <ele>3.3</ele>
        <time>2025-01-28T11:14:15Z</time>
      </trkpt>
      <trkpt lat="47.61482" lon="-2.82997">
        <ele>3.3</ele>
        <time>2025-01-28T11:14:16Z</time>
      </trkpt>
      <trkpt lat="47.61481" lon="-2.82998">
        <ele>3.3</ele>
        <time>2025-01-28T11:14:17Z</time>
      </trkpt>
      <trkpt lat="47.61481" lon="-2.82999">
        <ele>3.3</ele>
        <time>2025-01-28T11:14:18Z</time>
      </trkpt>
      <trkpt lat="47.6148" lon="-2.83001">
        <ele>3.3</ele>
        <time>2025-01-28T11:14:19Z</time>
      </trkpt>
      <trkpt lat="47.61479" lon="-2.83002">
        <ele>3.3</ele>
        <time>2025-01-28T11:14:20Z</time>
      </trkpt>
      <trkpt lat="47.61478" lon="-2.83004">
        <ele>3.3</ele>
        <time>2025-01-28T11:14:21Z</time>
      </trkpt>
      <trkpt lat="47.61477" lon="-2.83006">
        <ele>3.4</ele>
        <time>2025-01-28T11:14:22Z</time>
      </trkpt>
      <trkpt lat="47.61477" lon="-2.83007">
        <ele>3.4</ele>
        <time>2025-01-28T11:14:23Z</time>
      </trkpt>
      <trkpt lat="47.61476" lon="-2.83008">
        <ele>3.4</ele>
        <time>2025-01-28T11:14:24Z</time>
      </trkpt>
      <trkpt lat="47.61475" lon="-2.83009">
        <ele>3.4</ele>
        <time>2025-01-28T11:14:25Z</time>
      </trkpt>
      <trkpt lat="47.61474" lon="-2.83011">
        <ele>3.5</ele>
        <time>2025-01-28T11:14:26Z</time>
      </trkpt>
      <trkpt lat="47.61474" lon="-2.83012">
        <ele>3.5</ele>
        <time>2025-01-28T11:14:27Z</time>
      </trkpt>
      <trkpt lat="47.61473" lon="-2.83014">
        <ele>3.5</ele>
        <time>2025-01-28T11:14:28Z</time>
      </trkpt>
      <trkpt lat="47.61472" lon="-2.83015">
        <ele>3.6</ele>
        <time>2025-01-28T11:14:29Z</time>
      </trkpt>
      <trkpt lat="47.61471" lon="-2.83016">
        <ele>3.7</ele>
        <time>2025-01-28T11:14:30Z</time>
      </trkpt>
      <trkpt lat="47.6147" lon="-2.83017">
        <ele>3.8</ele>
        <time>2025-01-28T11:14:31Z</time>
      </trkpt>
      <trkpt lat="47.6147" lon="-2.83019">
        <ele>3.9</ele>
        <time>2025-01-28T11:14:32Z</time>
      </trkpt>
      <trkpt lat="47.61469" lon="-2.83021">
        <ele>4</ele>
        <time>2025-01-28T11:14:33Z</time>
      </trkpt>
      <trkpt lat="47.61469" lon="-2.83022">
        <ele>4.1</ele>
        <time>2025-01-28T11:14:34Z</time>
      </trkpt>
      <trkpt lat="47.61469" lon="-2.83024">
        <ele>4.2</ele>
        <time>2025-01-28T11:14:35Z</time>
      </trkpt>
      <trkpt lat="47.61468" lon="-2.83025">
        <ele>4.3</ele>
        <time>2025-01-28T11:14:36Z</time>
      </trkpt>
      <trkpt lat="47.61468" lon="-2.83027">
        <ele>4.4</ele>
        <time>2025-01-28T11:14:37Z</time>
      </trkpt>
      <trkpt lat="47.61468" lon="-2.83028">
        <ele>4.6</ele>
        <time>2025-01-28T11:14:38Z</time>
      </trkpt>
      <trkpt lat="47.61467" lon="-2.8303">
        <ele>4.8</ele>
        <time>2025-01-28T11:14:39Z</time>
      </trkpt>
      <trkpt lat="47.61467" lon="-2.83032">
        <ele>5</ele>
        <time>2025-01-28T11:14:40Z</time>
      </trkpt>
      <trkpt lat="47.61466" lon="-2.83034">
        <ele>5.1</ele>
        <time>2025-01-28T11:14:41Z</time>
      </trkpt>
      <trkpt lat="47.61466" lon="-2.83035">
        <ele>5.3</ele>
        <time>2025-01-28T11:14:42Z</time>
      </trkpt>
      <trkpt lat="47.61465" lon="-2.83036">
        <ele>5.4</ele>
        <time>2025-01-28T11:14:43Z</time>
      </trkpt>
      <trkpt lat="47.61465" lon="-2.83037">
        <ele>5.4</ele>
        <time>2025-01-28T11:14:44Z</time>
      </trkpt>
      <trkpt lat="47.61464" lon="-2.83039">
        <ele>5.5</ele>
        <time>2025-01-28T11:14:45Z</time>
      </trkpt>
      <trkpt lat="47.61464" lon="-2.8304">
        <ele>5.6</ele>
        <time>2025-01-28T11:14:46Z</time>
      </trkpt>
      <trkpt lat="47.61463" lon="-2.83042">
        <ele>5.7</ele>
        <time>2025-01-28T11:14:47Z</time>
      </trkpt>
      <trkpt lat="47.61463" lon="-2.83043">
        <ele>5.8</ele>
        <time>2025-01-28T11:14:48Z</time>
      </trkpt>
      <trkpt lat="47.61462" lon="-2.83045">
        <ele>5.8</ele>
        <time>2025-01-28T11:14:49Z</time>
      </trkpt>
      <trkpt lat="47.61462" lon="-2.83046">
        <ele>5.8</ele>
        <time>2025-01-28T11:14:50Z</time>
      </trkpt>
      <trkpt lat="47.61461" lon="-2.83048">
        <ele>5.8</ele>
        <time>2025-01-28T11:14:51Z</time>
      </trkpt>
      <trkpt lat="47.61461" lon="-2.83049">
        <ele>5.8</ele>
        <time>2025-01-28T11:14:52Z</time>
      </trkpt>
      <trkpt lat="47.6146" lon="-2.83051">
        <ele>5.7</ele>
        <time>2025-01-28T11:14:53Z</time>
      </trkpt>
      <trkpt lat="47.61459" lon="-2.83053">
        <ele>5.7</ele>
        <time>2025-01-28T11:14:54Z</time>
      </trkpt>
      <trkpt lat="47.61458" lon="-2.83054">
        <ele>5.5</ele>
        <time>2025-01-28T11:14:55Z</time>
      </trkpt>
      <trkpt lat="47.61458" lon="-2.83055">
        <ele>5.4</ele>
        <time>2025-01-28T11:14:56Z</time>
      </trkpt>
      <trkpt lat="47.61457" lon="-2.83057">
        <ele>5.4</ele>
        <time>2025-01-28T11:14:57Z</time>
      </trkpt>
      <trkpt lat="47.61457" lon="-2.83059">
        <ele>5.3</ele>
        <time>2025-01-28T11:14:58Z</time>
      </trkpt>
      <trkpt lat="47.61457" lon="-2.83061">
        <ele>5.4</ele>
        <time>2025-01-28T11:14:59Z</time>
      </trkpt>
      <trkpt lat="47.61456" lon="-2.83062">
        <ele>5.3</ele>
        <time>2025-01-28T11:15:00Z</time>
      </trkpt>
      <trkpt lat="47.61455" lon="-2.83064">
        <ele>5.2</ele>
        <time>2025-01-28T11:15:01Z</time>
      </trkpt>
      <trkpt lat="47.61454" lon="-2.83066">
        <ele>5.1</ele>
        <time>2025-01-28T11:15:02Z</time>
      </trkpt>
      <trkpt lat="47.61453" lon="-2.83067">
        <ele>5</ele>
        <time>2025-01-28T11:15:03Z</time>
      </trkpt>
      <trkpt lat="47.61453" lon="-2.83069">
        <ele>4.9</ele>
        <time>2025-01-28T11:15:04Z</time>
      </trkpt>
      <trkpt lat="47.61452" lon="-2.83071">
        <ele>4.8</ele>
        <time>2025-01-28T11:15:05Z</time>
      </trkpt>
      <trkpt lat="47.61452" lon="-2.83073">
        <ele>4.8</ele>
        <time>2025-01-28T11:15:06Z</time>
      </trkpt>
      <trkpt lat="47.61451" lon="-2.83075">
        <ele>4.6</ele>
        <time>2025-01-28T11:15:07Z</time>
      </trkpt>
      <trkpt lat="47.61451" lon="-2.83077">
        <ele>4.6</ele>
        <time>2025-01-28T11:15:08Z</time>
      </trkpt>
      <trkpt lat="47.6145" lon="-2.83079">
        <ele>4.5</ele>
        <time>2025-01-28T11:15:09Z</time>
      </trkpt>
      <trkpt lat="47.6145" lon="-2.8308">
        <ele>4.5</ele>
        <time>2025-01-28T11:15:10Z</time>
      </trkpt>
      <trkpt lat="47.61451" lon="-2.83082">
        <ele>4.7</ele>
        <time>2025-01-28T11:15:11Z</time>
      </trkpt>
      <trkpt lat="47.61451" lon="-2.83084">
        <ele>4.9</ele>
        <time>2025-01-28T11:15:12Z</time>
      </trkpt>
      <trkpt lat="47.6145" lon="-2.83086">
        <ele>4.9</ele>
        <time>2025-01-28T11:15:13Z</time>
      </trkpt>
      <trkpt lat="47.6145" lon="-2.83089">
        <ele>5.3</ele>
        <time>2025-01-28T11:15:14Z</time>
      </trkpt>
      <trkpt lat="47.6145" lon="-2.8309">
        <ele>5.4</ele>
        <time>2025-01-28T11:15:15Z</time>
      </trkpt>
      <trkpt lat="47.61449" lon="-2.83092">
        <ele>5.3</ele>
        <time>2025-01-28T11:15:16Z</time>
      </trkpt>
      <trkpt lat="47.61449" lon="-2.83094">
        <ele>5.4</ele>
        <time>2025-01-28T11:15:17Z</time>
      </trkpt>
      <trkpt lat="47.61448" lon="-2.83095">
        <ele>5.3</ele>
        <time>2025-01-28T11:15:18Z</time>
      </trkpt>
      <trkpt lat="47.61447" lon="-2.83097">
        <ele>5.2</ele>
        <time>2025-01-28T11:15:19Z</time>
      </trkpt>
      <trkpt lat="47.61446" lon="-2.83098">
        <ele>5.2</ele>
        <time>2025-01-28T11:15:20Z</time>
      </trkpt>
      <trkpt lat="47.61446" lon="-2.831">
        <ele>5.1</ele>
        <time>2025-01-28T11:15:21Z</time>
      </trkpt>
      <trkpt lat="47.61445" lon="-2.83101">
        <ele>5</ele>
        <time>2025-01-28T11:15:22Z</time>
      </trkpt>
      <trkpt lat="47.61444" lon="-2.83102">
        <ele>5.1</ele>
        <time>2025-01-28T11:15:23Z</time>
      </trkpt>
      <trkpt lat="47.61443" lon="-2.83104">
        <ele>5.3</ele>
        <time>2025-01-28T11:15:24Z</time>
      </trkpt>
      <trkpt lat="47.61442" lon="-2.83105">
        <ele>5.6</ele>
        <time>2025-01-28T11:15:25Z</time>
      </trkpt>
      <trkpt lat="47.61442" lon="-2.83106">
        <ele>5.8</ele>
        <time>2025-01-28T11:15:26Z</time>
      </trkpt>
      <trkpt lat="47.61441" lon="-2.83107">
        <ele>6</ele>
        <time>2025-01-28T11:15:27Z</time>
      </trkpt>
      <trkpt lat="47.6144" lon="-2.83108">
        <ele>6.2</ele>
        <time>2025-01-28T11:15:28Z</time>
      </trkpt>
      <trkpt lat="47.61439" lon="-2.8311">
        <ele>6.5</ele>
        <time>2025-01-28T11:15:29Z</time>
      </trkpt>
      <trkpt lat="47.61439" lon="-2.83112">
        <ele>6.9</ele>
        <time>2025-01-28T11:15:30Z</time>
      </trkpt>
      <trkpt lat="47.61439" lon="-2.83114">
        <ele>7.5</ele>
        <time>2025-01-28T11:15:31Z</time>
      </trkpt>
      <trkpt lat="47.61438" lon="-2.83116">
        <ele>8</ele>
        <time>2025-01-28T11:15:32Z</time>
      </trkpt>
      <trkpt lat="47.61438" lon="-2.83117">
        <ele>8.5</ele>
        <time>2025-01-28T11:15:33Z</time>
      </trkpt>
      <trkpt lat="47.61437" lon="-2.83119">
        <ele>9</ele>
        <time>2025-01-28T11:15:34Z</time>
      </trkpt>
      <trkpt lat="47.61437" lon="-2.8312">
        <ele>9.4</ele>
        <time>2025-01-28T11:15:35Z</time>
      </trkpt>
      <trkpt lat="47.61436" lon="-2.83121">
        <ele>9.8</ele>
        <time>2025-01-28T11:15:36Z</time>
      </trkpt>
      <trkpt lat="47.61436" lon="-2.83123">
        <ele>10.4</ele>
        <time>2025-01-28T11:15:37Z</time>
      </trkpt>
      <trkpt lat="47.61435" lon="-2.83125">
        <ele>10.9</ele>
        <time>2025-01-28T11:15:38Z</time>
      </trkpt>
      <trkpt lat="47.61435" lon="-2.83127">
        <ele>11.4</ele>
        <time>2025-01-28T11:15:39Z</time>
      </trkpt>
      <trkpt lat="47.61435" lon="-2.83128">
        <ele>11.9</ele>
        <time>2025-01-28T11:15:40Z</time>
      </trkpt>
      <trkpt lat="47.61434" lon="-2.8313">
        <ele>12.3</ele>
        <time>2025-01-28T11:15:41Z</time>
      </trkpt>
      <trkpt lat="47.61434" lon="-2.83131">
        <ele>12.8</ele>
        <time>2025-01-28T11:15:42Z</time>
      </trkpt>
      <trkpt lat="47.61433" lon="-2.83133">
        <ele>13.2</ele>
        <time>2025-01-28T11:15:43Z</time>
      </trkpt>
      <trkpt lat="47.61433" lon="-2.83134">
        <ele>13.7</ele>
        <time>2025-01-28T11:15:44Z</time>
      </trkpt>
      <trkpt lat="47.61432" lon="-2.83136">
        <ele>14.1</ele>
        <time>2025-01-28T11:15:45Z</time>
      </trkpt>
      <trkpt lat="47.61431" lon="-2.83137">
        <ele>14.5</ele>
        <time>2025-01-28T11:15:46Z</time>
      </trkpt>
      <trkpt lat="47.6143" lon="-2.83138">
        <ele>14.8</ele>
        <time>2025-01-28T11:15:47Z</time>
      </trkpt>
      <trkpt lat="47.6143" lon="-2.8314">
        <ele>14.9</ele>
        <time>2025-01-28T11:15:48Z</time>
      </trkpt>
      <trkpt lat="47.61429" lon="-2.83141">
        <ele>14.6</ele>
        <time>2025-01-28T11:15:49Z</time>
      </trkpt>
      <trkpt lat="47.61429" lon="-2.83143">
        <ele>14.4</ele>
        <time>2025-01-28T11:15:50Z</time>
      </trkpt>
      <trkpt lat="47.61428" lon="-2.83144">
        <ele>14.1</ele>
        <time>2025-01-28T11:15:51Z</time>
      </trkpt>
      <trkpt lat="47.61427" lon="-2.83145">
        <ele>13.7</ele>
        <time>2025-01-28T11:15:52Z</time>
      </trkpt>
      <trkpt lat="47.61426" lon="-2.83147">
        <ele>13.4</ele>
        <time>2025-01-28T11:15:53Z</time>
      </trkpt>
      <trkpt lat="47.61426" lon="-2.83149">
        <ele>12.8</ele>
        <time>2025-01-28T11:15:54Z</time>
      </trkpt>
      <trkpt lat="47.61425" lon="-2.83151">
        <ele>12.3</ele>
        <time>2025-01-28T11:15:55Z</time>
      </trkpt>
      <trkpt lat="47.61425" lon="-2.83153">
        <ele>11.8</ele>
        <time>2025-01-28T11:15:56Z</time>
      </trkpt>
      <trkpt lat="47.61425" lon="-2.83154">
        <ele>11.3</ele>
        <time>2025-01-28T11:15:57Z</time>
      </trkpt>
      <trkpt lat="47.61424" lon="-2.83156">
        <ele>10.7</ele>
        <time>2025-01-28T11:15:58Z</time>
      </trkpt>
      <trkpt lat="47.61423" lon="-2.83158">
        <ele>10</ele>
        <time>2025-01-28T11:15:59Z</time>
      </trkpt>
      <trkpt lat="47.61423" lon="-2.8316">
        <ele>9.3</ele>
        <time>2025-01-28T11:16:00Z</time>
      </trkpt>
      <trkpt lat="47.61423" lon="-2.83161">
        <ele>8.7</ele>
        <time>2025-01-28T11:16:01Z</time>
      </trkpt>
      <trkpt lat="47.61422" lon="-2.83163">
        <ele>8.1</ele>
        <time>2025-01-28T11:16:02Z</time>
      </trkpt>
      <trkpt lat="47.61422" lon="-2.83164">
        <ele>7.5</ele>
        <time>2025-01-28T11:16:03Z</time>
      </trkpt>
      <trkpt lat="47.61421" lon="-2.83166">
        <ele>6.6</ele>
        <time>2025-01-28T11:16:04Z</time>
      </trkpt>
      <trkpt lat="47.6142" lon="-2.83167">
        <ele>5.8</ele>
        <time>2025-01-28T11:16:05Z</time>
      </trkpt>
      <trkpt lat="47.61419" lon="-2.83168">
        <ele>5.6</ele>
        <time>2025-01-28T11:16:06Z</time>
      </trkpt>
      <trkpt lat="47.61418" lon="-2.8317">
        <ele>5.6</ele>
        <time>2025-01-28T11:16:07Z</time>
      </trkpt>
      <trkpt lat="47.61418" lon="-2.83171">
        <ele>6</ele>
        <time>2025-01-28T11:16:08Z</time>
      </trkpt>
      <trkpt lat="47.61418" lon="-2.83173">
        <ele>6.2</ele>
        <time>2025-01-28T11:16:09Z</time>
      </trkpt>
      <trkpt lat="47.61417" lon="-2.83174">
        <ele>6.5</ele>
        <time>2025-01-28T11:16:10Z</time>
      </trkpt>
      <trkpt lat="47.61417" lon="-2.83175">
        <ele>6.5</ele>
        <time>2025-01-28T11:16:11Z</time>
      </trkpt>
      <trkpt lat="47.61416" lon="-2.83177">
        <ele>7.1</ele>
        <time>2025-01-28T11:16:12Z</time>
      </trkpt>
      <trkpt lat="47.61414" lon="-2.83177">
        <ele>7.4</ele>
        <time>2025-01-28T11:16:13Z</time>
      </trkpt>
      <trkpt lat="47.61414" lon="-2.83178">
        <ele>7.9</ele>
        <time>2025-01-28T11:16:14Z</time>
      </trkpt>
      <trkpt lat="47.61413" lon="-2.83179">
        <ele>8.2</ele>
        <time>2025-01-28T11:16:15Z</time>
      </trkpt>
      <trkpt lat="47.61412" lon="-2.8318">
        <ele>8.5</ele>
        <time>2025-01-28T11:16:16Z</time>
      </trkpt>
      <trkpt lat="47.61411" lon="-2.8318">
        <ele>8.7</ele>
        <time>2025-01-28T11:16:17Z</time>
      </trkpt>
      <trkpt lat="47.6141" lon="-2.8318">
        <ele>8.9</ele>
        <time>2025-01-28T11:16:18Z</time>
      </trkpt>
      <trkpt lat="47.61409" lon="-2.8318">
        <ele>9.1</ele>
        <time>2025-01-28T11:16:19Z</time>
      </trkpt>
      <trkpt lat="47.61409" lon="-2.8318">
        <ele>9.1</ele>
        <time>2025-01-28T11:16:20Z</time>
      </trkpt>
      <trkpt lat="47.61409" lon="-2.83181">
        <ele>9.5</ele>
        <time>2025-01-28T11:16:21Z</time>
      </trkpt>
      <trkpt lat="47.61408" lon="-2.83183">
        <ele>9.9</ele>
        <time>2025-01-28T11:16:22Z</time>
      </trkpt>
      <trkpt lat="47.61407" lon="-2.83184">
        <ele>10.3</ele>
        <time>2025-01-28T11:16:23Z</time>
      </trkpt>
      <trkpt lat="47.61407" lon="-2.83186">
        <ele>10.8</ele>
        <time>2025-01-28T11:16:24Z</time>
      </trkpt>
      <trkpt lat="47.61406" lon="-2.83188">
        <ele>11.3</ele>
        <time>2025-01-28T11:16:25Z</time>
      </trkpt>
      <trkpt lat="47.61405" lon="-2.83189">
        <ele>11.7</ele>
        <time>2025-01-28T11:16:26Z</time>
      </trkpt>
      <trkpt lat="47.61405" lon="-2.8319">
        <ele>12</ele>
        <time>2025-01-28T11:16:27Z</time>
      </trkpt>
      <trkpt lat="47.61404" lon="-2.83192">
        <ele>12.4</ele>
        <time>2025-01-28T11:16:28Z</time>
      </trkpt>
      <trkpt lat="47.61403" lon="-2.83193">
        <ele>12.7</ele>
        <time>2025-01-28T11:16:29Z</time>
      </trkpt>
      <trkpt lat="47.61402" lon="-2.83194">
        <ele>13</ele>
        <time>2025-01-28T11:16:30Z</time>
      </trkpt>
      <trkpt lat="47.61402" lon="-2.83196">
        <ele>12.8</ele>
        <time>2025-01-28T11:16:31Z</time>
      </trkpt>
      <trkpt lat="47.61401" lon="-2.83197">
        <ele>12.6</ele>
        <time>2025-01-28T11:16:32Z</time>
      </trkpt>
      <trkpt lat="47.61401" lon="-2.83199">
        <ele>12.3</ele>
        <time>2025-01-28T11:16:33Z</time>
      </trkpt>
      <trkpt lat="47.614" lon="-2.832">
        <ele>12</ele>
        <time>2025-01-28T11:16:34Z</time>
      </trkpt>
      <trkpt lat="47.614" lon="-2.83202">
        <ele>11.6</ele>
        <time>2025-01-28T11:16:35Z</time>
      </trkpt>
      <trkpt lat="47.61399" lon="-2.83204">
        <ele>11.2</ele>
        <time>2025-01-28T11:16:36Z</time>
      </trkpt>
      <trkpt lat="47.61399" lon="-2.83205">
        <ele>10.8</ele>
        <time>2025-01-28T11:16:37Z</time>
      </trkpt>
      <trkpt lat="47.61398" lon="-2.83207">
        <ele>10.3</ele>
        <time>2025-01-28T11:16:38Z</time>
      </trkpt>
      <trkpt lat="47.61398" lon="-2.83208">
        <ele>9.8</ele>
        <time>2025-01-28T11:16:39Z</time>
      </trkpt>
      <trkpt lat="47.61397" lon="-2.8321">
        <ele>9.2</ele>
        <time>2025-01-28T11:16:40Z</time>
      </trkpt>
      <trkpt lat="47.61397" lon="-2.83211">
        <ele>8.7</ele>
        <time>2025-01-28T11:16:41Z</time>
      </trkpt>
      <trkpt lat="47.61396" lon="-2.83213">
        <ele>8.1</ele>
        <time>2025-01-28T11:16:42Z</time>
      </trkpt>
      <trkpt lat="47.61397" lon="-2.83214">
        <ele>7.7</ele>
        <time>2025-01-28T11:16:43Z</time>
      </trkpt>
      <trkpt lat="47.61397" lon="-2.83216">
        <ele>7.2</ele>
        <time>2025-01-28T11:16:44Z</time>
      </trkpt>
      <trkpt lat="47.61396" lon="-2.83218">
        <ele>6.5</ele>
        <time>2025-01-28T11:16:45Z</time>
      </trkpt>
      <trkpt lat="47.61395" lon="-2.83219">
        <ele>5.8</ele>
        <time>2025-01-28T11:16:46Z</time>
      </trkpt>
      <trkpt lat="47.61394" lon="-2.83219">
        <ele>5</ele>
        <time>2025-01-28T11:16:47Z</time>
      </trkpt>
      <trkpt lat="47.61393" lon="-2.8322">
        <ele>4.2</ele>
        <time>2025-01-28T11:16:48Z</time>
      </trkpt>
      <trkpt lat="47.61392" lon="-2.8322">
        <ele>3.8</ele>
        <time>2025-01-28T11:16:49Z</time>
      </trkpt>
      <trkpt lat="47.61391" lon="-2.8322">
        <ele>3.2</ele>
        <time>2025-01-28T11:16:50Z</time>
      </trkpt>
      <trkpt lat="47.6139" lon="-2.83221">
        <ele>2</ele>
        <time>2025-01-28T11:16:51Z</time>
      </trkpt>
      <trkpt lat="47.61389" lon="-2.83222">
        <ele>1.1</ele>
        <time>2025-01-28T11:16:52Z</time>
      </trkpt>
      <trkpt lat="47.61387" lon="-2.83224">
        <ele>1.9</ele>
        <time>2025-01-28T11:16:53Z</time>
      </trkpt>
      <trkpt lat="47.61386" lon="-2.83225">
        <ele>2.6</ele>
        <time>2025-01-28T11:16:54Z</time>
      </trkpt>
      <trkpt lat="47.61385" lon="-2.83226">
        <ele>3.2</ele>
        <time>2025-01-28T11:16:55Z</time>
      </trkpt>
      <trkpt lat="47.61385" lon="-2.83227">
        <ele>3.6</ele>
        <time>2025-01-28T11:16:56Z</time>
      </trkpt>
      <trkpt lat="47.61383" lon="-2.83227">
        <ele>4.1</ele>
        <time>2025-01-28T11:16:57Z</time>
      </trkpt>
      <trkpt lat="47.61382" lon="-2.83228">
        <ele>4.5</ele>
        <time>2025-01-28T11:16:58Z</time>
      </trkpt>
      <trkpt lat="47.61381" lon="-2.83229">
        <ele>5</ele>
        <time>2025-01-28T11:16:59Z</time>
      </trkpt>
      <trkpt lat="47.6138" lon="-2.8323">
        <ele>5.5</ele>
        <time>2025-01-28T11:17:00Z</time>
      </trkpt>
      <trkpt lat="47.61379" lon="-2.8323">
        <ele>5.9</ele>
        <time>2025-01-28T11:17:01Z</time>
      </trkpt>
      <trkpt lat="47.61378" lon="-2.83231">
        <ele>6.3</ele>
        <time>2025-01-28T11:17:02Z</time>
      </trkpt>
      <trkpt lat="47.61377" lon="-2.83232">
        <ele>6.6</ele>
        <time>2025-01-28T11:17:03Z</time>
      </trkpt>
      <trkpt lat="47.61376" lon="-2.83232">
        <ele>6.9</ele>
        <time>2025-01-28T11:17:04Z</time>
      </trkpt>
      <trkpt lat="47.61376" lon="-2.83233">
        <ele>7.2</ele>
        <time>2025-01-28T11:17:05Z</time>
      </trkpt>
      <trkpt lat="47.61375" lon="-2.83233">
        <ele>7.4</ele>
        <time>2025-01-28T11:17:06Z</time>
      </trkpt>
      <trkpt lat="47.61375" lon="-2.83234">
        <ele>7.6</ele>
        <time>2025-01-28T11:17:07Z</time>
      </trkpt>
      <trkpt lat="47.61374" lon="-2.83235">
        <ele>7.9</ele>
        <time>2025-01-28T11:17:08Z</time>
      </trkpt>
      <trkpt lat="47.61374" lon="-2.83236">
        <ele>8.2</ele>
        <time>2025-01-28T11:17:09Z</time>
      </trkpt>
      <trkpt lat="47.61373" lon="-2.83237">
        <ele>8.5</ele>
        <time>2025-01-28T11:17:10Z</time>
      </trkpt>
      <trkpt lat="47.61373" lon="-2.83238">
        <ele>8.8</ele>
        <time>2025-01-28T11:17:11Z</time>
      </trkpt>
      <trkpt lat="47.61373" lon="-2.83238">
        <ele>8.7</ele>
        <time>2025-01-28T11:17:12Z</time>
      </trkpt>
      <trkpt lat="47.61372" lon="-2.8324">
        <ele>9.1</ele>
        <time>2025-01-28T11:17:13Z</time>
      </trkpt>
      <trkpt lat="47.61371" lon="-2.83241">
        <ele>9.4</ele>
        <time>2025-01-28T11:17:14Z</time>
      </trkpt>
      <trkpt lat="47.6137" lon="-2.83243">
        <ele>9.8</ele>
        <time>2025-01-28T11:17:15Z</time>
      </trkpt>
      <trkpt lat="47.6137" lon="-2.83243">
        <ele>9.9</ele>
        <time>2025-01-28T11:17:16Z</time>
      </trkpt>
      <trkpt lat="47.6137" lon="-2.83245">
        <ele>10.1</ele>
        <time>2025-01-28T11:17:17Z</time>
      </trkpt>
      <trkpt lat="47.61369" lon="-2.83245">
        <ele>10.2</ele>
        <time>2025-01-28T11:17:18Z</time>
      </trkpt>
      <trkpt lat="47.61369" lon="-2.83246">
        <ele>10.4</ele>
        <time>2025-01-28T11:17:19Z</time>
      </trkpt>
      <trkpt lat="47.61369" lon="-2.83247">
        <ele>10.5</ele>
        <time>2025-01-28T11:17:20Z</time>
      </trkpt>
      <trkpt lat="47.61369" lon="-2.83248">
        <ele>10.6</ele>
        <time>2025-01-28T11:17:21Z</time>
      </trkpt>
      <trkpt lat="47.61369" lon="-2.83249">
        <ele>10.8</ele>
        <time>2025-01-28T11:17:22Z</time>
      </trkpt>
      <trkpt lat="47.61369" lon="-2.83249">
        <ele>10.9</ele>
        <time>2025-01-28T11:17:23Z</time>
      </trkpt>
      <trkpt lat="47.61368" lon="-2.8325">
        <ele>11</ele>
        <time>2025-01-28T11:17:24Z</time>
      </trkpt>
      <trkpt lat="47.61368" lon="-2.8325">
        <ele>11</ele>
        <time>2025-01-28T11:17:25Z</time>
      </trkpt>
      <trkpt lat="47.61368" lon="-2.8325">
        <ele>11</ele>
        <time>2025-01-28T11:17:26Z</time>
      </trkpt>
      <trkpt lat="47.61368" lon="-2.8325">
        <ele>11</ele>
        <time>2025-01-28T11:17:27Z</time>
      </trkpt>
      <trkpt lat="47.61368" lon="-2.8325">
        <ele>11</ele>
        <time>2025-01-28T11:17:28Z</time>
      </trkpt>
      <trkpt lat="47.61368" lon="-2.83251">
        <ele>10.8</ele>
        <time>2025-01-28T11:17:29Z</time>
      </trkpt>
      <trkpt lat="47.61367" lon="-2.83252">
        <ele>10.4</ele>
        <time>2025-01-28T11:17:30Z</time>
      </trkpt>
      <trkpt lat="47.61366" lon="-2.83254">
        <ele>10.1</ele>
        <time>2025-01-28T11:17:31Z</time>
      </trkpt>
      <trkpt lat="47.61366" lon="-2.83255">
        <ele>9.6</ele>
        <time>2025-01-28T11:17:32Z</time>
      </trkpt>
      <trkpt lat="47.61365" lon="-2.83257">
        <ele>9.1</ele>
        <time>2025-01-28T11:17:33Z</time>
      </trkpt>
      <trkpt lat="47.61365" lon="-2.83257">
        <ele>8.9</ele>
        <time>2025-01-28T11:17:34Z</time>
      </trkpt>
      <trkpt lat="47.61364" lon="-2.83258">
        <ele>8.5</ele>
        <time>2025-01-28T11:17:35Z</time>
      </trkpt>
      <trkpt lat="47.61364" lon="-2.83259">
        <ele>8.1</ele>
        <time>2025-01-28T11:17:36Z</time>
      </trkpt>
      <trkpt lat="47.61363" lon="-2.83261">
        <ele>7.6</ele>
        <time>2025-01-28T11:17:37Z</time>
      </trkpt>
      <trkpt lat="47.61363" lon="-2.83262">
        <ele>7.2</ele>
        <time>2025-01-28T11:17:38Z</time>
      </trkpt>
      <trkpt lat="47.61363" lon="-2.83262">
        <ele>6.9</ele>
        <time>2025-01-28T11:17:39Z</time>
      </trkpt>
      <trkpt lat="47.61363" lon="-2.83263">
        <ele>6.7</ele>
        <time>2025-01-28T11:17:40Z</time>
      </trkpt>
      <trkpt lat="47.61362" lon="-2.83264">
        <ele>6.1</ele>
        <time>2025-01-28T11:17:41Z</time>
      </trkpt>
      <trkpt lat="47.61362" lon="-2.83266">
        <ele>5.3</ele>
        <time>2025-01-28T11:17:42Z</time>
      </trkpt>
      <trkpt lat="47.61361" lon="-2.83268">
        <ele>3.2</ele>
        <time>2025-01-28T11:17:43Z</time>
      </trkpt>
      <trkpt lat="47.6136" lon="-2.83269">
        <ele>3</ele>
        <time>2025-01-28T11:17:44Z</time>
      </trkpt>
      <trkpt lat="47.6136" lon="-2.8327">
        <ele>2.9</ele>
        <time>2025-01-28T11:17:45Z</time>
      </trkpt>
      <trkpt lat="47.61359" lon="-2.8327">
        <ele>2.9</ele>
        <time>2025-01-28T11:17:46Z</time>
      </trkpt>
      <trkpt lat="47.61358" lon="-2.83271">
        <ele>2.8</ele>
        <time>2025-01-28T11:17:47Z</time>
      </trkpt>
      <trkpt lat="47.61357" lon="-2.83272">
        <ele>2.8</ele>
        <time>2025-01-28T11:17:48Z</time>
      </trkpt>
      <trkpt lat="47.61356" lon="-2.83273">
        <ele>2.7</ele>
        <time>2025-01-28T11:17:49Z</time>
      </trkpt>
      <trkpt lat="47.61356" lon="-2.83274">
        <ele>2.7</ele>
        <time>2025-01-28T11:17:50Z</time>
      </trkpt>
      <trkpt lat="47.61355" lon="-2.83274">
        <ele>2.8</ele>
        <time>2025-01-28T11:17:51Z</time>
      </trkpt>
      <trkpt lat="47.61354" lon="-2.83274">
        <ele>2.9</ele>
        <time>2025-01-28T11:17:52Z</time>
      </trkpt>
      <trkpt lat="47.61353" lon="-2.83275">
        <ele>2.9</ele>
        <time>2025-01-28T11:17:53Z</time>
      </trkpt>
      <trkpt lat="47.61353" lon="-2.83276">
        <ele>2.9</ele>
        <time>2025-01-28T11:17:54Z</time>
      </trkpt>
      <trkpt lat="47.61352" lon="-2.83278">
        <ele>2.6</ele>
        <time>2025-01-28T11:17:55Z</time>
      </trkpt>
      <trkpt lat="47.61352" lon="-2.83279">
        <ele>2.8</ele>
        <time>2025-01-28T11:17:56Z</time>
      </trkpt>
      <trkpt lat="47.61352" lon="-2.8328">
        <ele>3.1</ele>
        <time>2025-01-28T11:17:57Z</time>
      </trkpt>
      <trkpt lat="47.61352" lon="-2.83282">
        <ele>3.3</ele>
        <time>2025-01-28T11:17:58Z</time>
      </trkpt>
      <trkpt lat="47.61351" lon="-2.83283">
        <ele>3.5</ele>
        <time>2025-01-28T11:17:59Z</time>
      </trkpt>
      <trkpt lat="47.61351" lon="-2.83284">
        <ele>3.8</ele>
        <time>2025-01-28T11:18:00Z</time>
      </trkpt>
      <trkpt lat="47.6135" lon="-2.83285">
        <ele>4.1</ele>
        <time>2025-01-28T11:18:01Z</time>
      </trkpt>
      <trkpt lat="47.6135" lon="-2.83286">
        <ele>4.3</ele>
        <time>2025-01-28T11:18:02Z</time>
      </trkpt>
      <trkpt lat="47.61349" lon="-2.83288">
        <ele>4.5</ele>
        <time>2025-01-28T11:18:03Z</time>
      </trkpt>
      <trkpt lat="47.61349" lon="-2.83289">
        <ele>4.7</ele>
        <time>2025-01-28T11:18:04Z</time>
      </trkpt>
      <trkpt lat="47.61348" lon="-2.8329">
        <ele>4.9</ele>
        <time>2025-01-28T11:18:05Z</time>
      </trkpt>
      <trkpt lat="47.61348" lon="-2.83291">
        <ele>5.1</ele>
        <time>2025-01-28T11:18:06Z</time>
      </trkpt>
      <trkpt lat="47.61347" lon="-2.83293">
        <ele>5.4</ele>
        <time>2025-01-28T11:18:07Z</time>
      </trkpt>
      <trkpt lat="47.61347" lon="-2.83294">
        <ele>5.5</ele>
        <time>2025-01-28T11:18:08Z</time>
      </trkpt>
      <trkpt lat="47.61349" lon="-2.83292">
        <ele>5.2</ele>
        <time>2025-01-28T11:18:09Z</time>
      </trkpt>
      <trkpt lat="47.61348" lon="-2.83293">
        <ele>5.3</ele>
        <time>2025-01-28T11:18:10Z</time>
      </trkpt>
      <trkpt lat="47.61348" lon="-2.83294">
        <ele>5.5</ele>
        <time>2025-01-28T11:18:11Z</time>
      </trkpt>
      <trkpt lat="47.61349" lon="-2.83293">
        <ele>5.3</ele>
        <time>2025-01-28T11:18:12Z</time>
      </trkpt>
      <trkpt lat="47.61348" lon="-2.83294">
        <ele>5.5</ele>
        <time>2025-01-28T11:18:13Z</time>
      </trkpt>
      <trkpt lat="47.61348" lon="-2.83296">
        <ele>5.7</ele>
        <time>2025-01-28T11:18:14Z</time>
      </trkpt>
      <trkpt lat="47.61347" lon="-2.83297">
        <ele>5.9</ele>
        <time>2025-01-28T11:18:15Z</time>
      </trkpt>
      <trkpt lat="47.61347" lon="-2.83298">
        <ele>6</ele>
        <time>2025-01-28T11:18:16Z</time>
      </trkpt>
      <trkpt lat="47.61347" lon="-2.83297">
        <ele>6</ele>
        <time>2025-01-28T11:18:17Z</time>
      </trkpt>
      <trkpt lat="47.61346" lon="-2.83299">
        <ele>6.2</ele>
        <time>2025-01-28T11:18:18Z</time>
      </trkpt>
      <trkpt lat="47.61346" lon="-2.83301">
        <ele>6.4</ele>
        <time>2025-01-28T11:18:19Z</time>
      </trkpt>
      <trkpt lat="47.61346" lon="-2.83301">
        <ele>6.4</ele>
        <time>2025-01-28T11:18:20Z</time>
      </trkpt>
      <trkpt lat="47.61347" lon="-2.83303">
        <ele>6.6</ele>
        <time>2025-01-28T11:18:21Z</time>
      </trkpt>
      <trkpt lat="47.61347" lon="-2.83304">
        <ele>6.8</ele>
        <time>2025-01-28T11:18:22Z</time>
      </trkpt>
      <trkpt lat="47.61347" lon="-2.83306">
        <ele>7</ele>
        <time>2025-01-28T11:18:23Z</time>
      </trkpt>
      <trkpt lat="47.61347" lon="-2.83308">
        <ele>7.1</ele>
        <time>2025-01-28T11:18:24Z</time>
      </trkpt>
      <trkpt lat="47.61347" lon="-2.83309">
        <ele>7.1</ele>
        <time>2025-01-28T11:18:25Z</time>
      </trkpt>
      <trkpt lat="47.61347" lon="-2.83311">
        <ele>7.2</ele>
        <time>2025-01-28T11:18:26Z</time>
      </trkpt>
      <trkpt lat="47.61347" lon="-2.83313">
        <ele>7.2</ele>
        <time>2025-01-28T11:18:27Z</time>
      </trkpt>
      <trkpt lat="47.61347" lon="-2.83315">
        <ele>7.3</ele>
        <time>2025-01-28T11:18:28Z</time>
      </trkpt>
      <trkpt lat="47.61348" lon="-2.83315">
        <ele>7.5</ele>
        <time>2025-01-28T11:18:29Z</time>
      </trkpt>
      <trkpt lat="47.61348" lon="-2.83316">
        <ele>7.5</ele>
        <time>2025-01-28T11:18:30Z</time>
      </trkpt>
      <trkpt lat="47.61349" lon="-2.83318">
        <ele>7.7</ele>
        <time>2025-01-28T11:18:31Z</time>
      </trkpt>
      <trkpt lat="47.61351" lon="-2.83319">
        <ele>8.2</ele>
        <time>2025-01-28T11:18:32Z</time>
      </trkpt>
      <trkpt lat="47.61351" lon="-2.83318">
        <ele>8.2</ele>
        <time>2025-01-28T11:18:33Z</time>
      </trkpt>
      <trkpt lat="47.61352" lon="-2.83318">
        <ele>8.4</ele>
        <time>2025-01-28T11:18:34Z</time>
      </trkpt>
      <trkpt lat="47.61352" lon="-2.83317">
        <ele>8.2</ele>
        <time>2025-01-28T11:18:35Z</time>
      </trkpt>
      <trkpt lat="47.61353" lon="-2.83318">
        <ele>8.5</ele>
        <time>2025-01-28T11:18:36Z</time>
      </trkpt>
      <trkpt lat="47.61353" lon="-2.83321">
        <ele>8.9</ele>
        <time>2025-01-28T11:18:37Z</time>
      </trkpt>
      <trkpt lat="47.61352" lon="-2.83324">
        <ele>8.9</ele>
        <time>2025-01-28T11:18:38Z</time>
      </trkpt>
      <trkpt lat="47.6135" lon="-2.83326">
        <ele>8.6</ele>
        <time>2025-01-28T11:18:39Z</time>
      </trkpt>
      <trkpt lat="47.61349" lon="-2.83326">
        <ele>8.3</ele>
        <time>2025-01-28T11:18:40Z</time>
      </trkpt>
      <trkpt lat="47.61348" lon="-2.83327">
        <ele>7.9</ele>
        <time>2025-01-28T11:18:41Z</time>
      </trkpt>
      <trkpt lat="47.61346" lon="-2.83328">
        <ele>7.5</ele>
        <time>2025-01-28T11:18:42Z</time>
      </trkpt>
      <trkpt lat="47.61346" lon="-2.83329">
        <ele>7.2</ele>
        <time>2025-01-28T11:18:43Z</time>
      </trkpt>
      <trkpt lat="47.61345" lon="-2.8333">
        <ele>6.9</ele>
        <time>2025-01-28T11:18:44Z</time>
      </trkpt>
      <trkpt lat="47.61344" lon="-2.83331">
        <ele>6.6</ele>
        <time>2025-01-28T11:18:45Z</time>
      </trkpt>
      <trkpt lat="47.61342" lon="-2.83331">
        <ele>5.9</ele>
        <time>2025-01-28T11:18:46Z</time>
      </trkpt>
      <trkpt lat="47.61342" lon="-2.83329">
        <ele>6</ele>
        <time>2025-01-28T11:18:47Z</time>
      </trkpt>
      <trkpt lat="47.61342" lon="-2.83329">
        <ele>6</ele>
        <time>2025-01-28T11:18:48Z</time>
      </trkpt>
      <trkpt lat="47.61342" lon="-2.83329">
        <ele>5.9</ele>
        <time>2025-01-28T11:18:49Z</time>
      </trkpt>
      <trkpt lat="47.61341" lon="-2.83331">
        <ele>5.5</ele>
        <time>2025-01-28T11:18:50Z</time>
      </trkpt>
      <trkpt lat="47.61341" lon="-2.83332">
        <ele>5.2</ele>
        <time>2025-01-28T11:18:51Z</time>
      </trkpt>
      <trkpt lat="47.61339" lon="-2.83334">
        <ele>4.4</ele>
        <time>2025-01-28T11:18:52Z</time>
      </trkpt>
      <trkpt lat="47.61337" lon="-2.83335">
        <ele>4</ele>
        <time>2025-01-28T11:18:53Z</time>
      </trkpt>
      <trkpt lat="47.61336" lon="-2.83336">
        <ele>3.9</ele>
        <time>2025-01-28T11:18:54Z</time>
      </trkpt>
      <trkpt lat="47.61335" lon="-2.83337">
        <ele>3.9</ele>
        <time>2025-01-28T11:18:55Z</time>
      </trkpt>
      <trkpt lat="47.61335" lon="-2.83339">
        <ele>3.9</ele>
        <time>2025-01-28T11:18:56Z</time>
      </trkpt>
      <trkpt lat="47.61334" lon="-2.8334">
        <ele>3.9</ele>
        <time>2025-01-28T11:18:57Z</time>
      </trkpt>
      <trkpt lat="47.61333" lon="-2.83341">
        <ele>4</ele>
        <time>2025-01-28T11:18:58Z</time>
      </trkpt>
      <trkpt lat="47.61333" lon="-2.83342">
        <ele>4.1</ele>
        <time>2025-01-28T11:18:59Z</time>
      </trkpt>
      <trkpt lat="47.61333" lon="-2.83343">
        <ele>4.4</ele>
        <time>2025-01-28T11:19:00Z</time>
      </trkpt>
      <trkpt lat="47.61332" lon="-2.83345">
        <ele>4.6</ele>
        <time>2025-01-28T11:19:01Z</time>
      </trkpt>
      <trkpt lat="47.61331" lon="-2.83346">
        <ele>5</ele>
        <time>2025-01-28T11:19:02Z</time>
      </trkpt>
      <trkpt lat="47.61331" lon="-2.83348">
        <ele>5.4</ele>
        <time>2025-01-28T11:19:03Z</time>
      </trkpt>
      <trkpt lat="47.6133" lon="-2.8335">
        <ele>5.6</ele>
        <time>2025-01-28T11:19:04Z</time>
      </trkpt>
      <trkpt lat="47.61329" lon="-2.83351">
        <ele>5.6</ele>
        <time>2025-01-28T11:19:05Z</time>
      </trkpt>
      <trkpt lat="47.61328" lon="-2.83353">
        <ele>5.8</ele>
        <time>2025-01-28T11:19:06Z</time>
      </trkpt>
      <trkpt lat="47.61327" lon="-2.83354">
        <ele>5.8</ele>
        <time>2025-01-28T11:19:07Z</time>
      </trkpt>
      <trkpt lat="47.61326" lon="-2.83355">
        <ele>5.9</ele>
        <time>2025-01-28T11:19:08Z</time>
      </trkpt>
      <trkpt lat="47.61326" lon="-2.83356">
        <ele>6</ele>
        <time>2025-01-28T11:19:09Z</time>
      </trkpt>
      <trkpt lat="47.61327" lon="-2.83359">
        <ele>6.7</ele>
        <time>2025-01-28T11:19:10Z</time>
      </trkpt>
      <trkpt lat="47.61328" lon="-2.83358">
        <ele>6.9</ele>
        <time>2025-01-28T11:19:11Z</time>
      </trkpt>
      <trkpt lat="47.61329" lon="-2.83358">
        <ele>6.9</ele>
        <time>2025-01-28T11:19:12Z</time>
      </trkpt>
      <trkpt lat="47.61329" lon="-2.83358">
        <ele>6.9</ele>
        <time>2025-01-28T11:19:13Z</time>
      </trkpt>
      <trkpt lat="47.61329" lon="-2.83358">
        <ele>6.9</ele>
        <time>2025-01-28T11:19:14Z</time>
      </trkpt>
      <trkpt lat="47.61329" lon="-2.83358">
        <ele>6.9</ele>
        <time>2025-01-28T11:19:15Z</time>
      </trkpt>
      <trkpt lat="47.61329" lon="-2.83358">
        <ele>6.9</ele>
        <time>2025-01-28T11:19:16Z</time>
      </trkpt>
      <trkpt lat="47.61329" lon="-2.83358">
        <ele>6.9</ele>
        <time>2025-01-28T11:19:17Z</time>
      </trkpt>
      <trkpt lat="47.61329" lon="-2.83358">
        <ele>6.9</ele>
        <time>2025-01-28T11:19:18Z</time>
      </trkpt>
      <trkpt lat="47.61329" lon="-2.83358">
        <ele>6.9</ele>
        <time>2025-01-28T11:19:19Z</time>
      </trkpt>
      <trkpt lat="47.61329" lon="-2.83358">
        <ele>6.9</ele>
        <time>2025-01-28T11:19:20Z</time>
      </trkpt>
      <trkpt lat="47.61329" lon="-2.83358">
        <ele>6.9</ele>
        <time>2025-01-28T11:19:21Z</time>
      </trkpt>
      <trkpt lat="47.61329" lon="-2.83358">
        <ele>6.9</ele>
        <time>2025-01-28T11:19:22Z</time>
      </trkpt>
      <trkpt lat="47.61328" lon="-2.83357">
        <ele>6.8</ele>
        <time>2025-01-28T11:19:23Z</time>
      </trkpt>
      <trkpt lat="47.61328" lon="-2.83357">
        <ele>6.7</ele>
        <time>2025-01-28T11:19:24Z</time>
      </trkpt>
      <trkpt lat="47.61328" lon="-2.83357">
        <ele>6.7</ele>
        <time>2025-01-28T11:19:25Z</time>
      </trkpt>
      <trkpt lat="47.61328" lon="-2.83357">
        <ele>6.7</ele>
        <time>2025-01-28T11:19:26Z</time>
      </trkpt>
      <trkpt lat="47.61328" lon="-2.83357">
        <ele>6.7</ele>
        <time>2025-01-28T11:19:27Z</time>
      </trkpt>
      <trkpt lat="47.61328" lon="-2.83357">
        <ele>6.6</ele>
        <time>2025-01-28T11:19:28Z</time>
      </trkpt>
      <trkpt lat="47.61328" lon="-2.83357">
        <ele>6.5</ele>
        <time>2025-01-28T11:19:29Z</time>
      </trkpt>
      <trkpt lat="47.61328" lon="-2.83357">
        <ele>6.5</ele>
        <time>2025-01-28T11:19:30Z</time>
      </trkpt>
      <trkpt lat="47.61328" lon="-2.83357">
        <ele>6.5</ele>
        <time>2025-01-28T11:19:31Z</time>
      </trkpt>
      <trkpt lat="47.61328" lon="-2.83357">
        <ele>6.5</ele>
        <time>2025-01-28T11:19:32Z</time>
      </trkpt>
      <trkpt lat="47.61328" lon="-2.83357">
        <ele>6.5</ele>
        <time>2025-01-28T11:19:33Z</time>
      </trkpt>
      <trkpt lat="47.61328" lon="-2.83357">
        <ele>6.5</ele>
        <time>2025-01-28T11:19:34Z</time>
      </trkpt>
      <trkpt lat="47.61328" lon="-2.83357">
        <ele>6.5</ele>
        <time>2025-01-28T11:19:35Z</time>
      </trkpt>
      <trkpt lat="47.61328" lon="-2.83357">
        <ele>6.5</ele>
        <time>2025-01-28T11:19:36Z</time>
      </trkpt>
      <trkpt lat="47.61328" lon="-2.83357">
        <ele>6.5</ele>
        <time>2025-01-28T11:19:37Z</time>
      </trkpt>
      <trkpt lat="47.61328" lon="-2.83357">
        <ele>6.5</ele>
        <time>2025-01-28T11:19:38Z</time>
      </trkpt>
      <trkpt lat="47.61328" lon="-2.83356">
        <ele>6.4</ele>
        <time>2025-01-28T11:19:39Z</time>
      </trkpt>
      <trkpt lat="47.61328" lon="-2.83356">
        <ele>6.4</ele>
        <time>2025-01-28T11:19:40Z</time>
      </trkpt>
      <trkpt lat="47.61327" lon="-2.83357">
        <ele>6.4</ele>
        <time>2025-01-28T11:19:41Z</time>
      </trkpt>
      <trkpt lat="47.61327" lon="-2.83357">
        <ele>6.3</ele>
        <time>2025-01-28T11:19:42Z</time>
      </trkpt>
      <trkpt lat="47.61327" lon="-2.83357">
        <ele>6.3</ele>
        <time>2025-01-28T11:19:43Z</time>
      </trkpt>
      <trkpt lat="47.61327" lon="-2.83357">
        <ele>6.3</ele>
        <time>2025-01-28T11:19:44Z</time>
      </trkpt>
      <trkpt lat="47.61327" lon="-2.83357">
        <ele>6.3</ele>
        <time>2025-01-28T11:19:45Z</time>
      </trkpt>
      <trkpt lat="47.61327" lon="-2.83356">
        <ele>6.3</ele>
        <time>2025-01-28T11:19:46Z</time>
      </trkpt>
      <trkpt lat="47.61327" lon="-2.83356">
        <ele>6.3</ele>
        <time>2025-01-28T11:19:47Z</time>
      </trkpt>
      <trkpt lat="47.61327" lon="-2.83356">
        <ele>6.3</ele>
        <time>2025-01-28T11:19:48Z</time>
      </trkpt>
      <trkpt lat="47.61327" lon="-2.83356">
        <ele>6.3</ele>
        <time>2025-01-28T11:19:49Z</time>
      </trkpt>
      <trkpt lat="47.61327" lon="-2.83356">
        <ele>6.3</ele>
        <time>2025-01-28T11:19:50Z</time>
      </trkpt>
      <trkpt lat="47.61327" lon="-2.83356">
        <ele>6.2</ele>
        <time>2025-01-28T11:19:51Z</time>
      </trkpt>
      <trkpt lat="47.61327" lon="-2.83356">
        <ele>6.2</ele>
        <time>2025-01-28T11:19:52Z</time>
      </trkpt>
      <trkpt lat="47.61327" lon="-2.83356">
        <ele>6.2</ele>
        <time>2025-01-28T11:19:53Z</time>
      </trkpt>
      <trkpt lat="47.61327" lon="-2.83356">
        <ele>6.1</ele>
        <time>2025-01-28T11:19:54Z</time>
      </trkpt>
      <trkpt lat="47.61327" lon="-2.83355">
        <ele>6</ele>
        <time>2025-01-28T11:19:55Z</time>
      </trkpt>
      <trkpt lat="47.61327" lon="-2.83355">
        <ele>6</ele>
        <time>2025-01-28T11:19:56Z</time>
      </trkpt>
      <trkpt lat="47.61327" lon="-2.83355">
        <ele>6</ele>
        <time>2025-01-28T11:19:57Z</time>
      </trkpt>
      <trkpt lat="47.61327" lon="-2.83355">
        <ele>6</ele>
        <time>2025-01-28T11:19:58Z</time>
      </trkpt>
      <trkpt lat="47.61327" lon="-2.83355">
        <ele>6</ele>
        <time>2025-01-28T11:19:59Z</time>
      </trkpt>
      <trkpt lat="47.61327" lon="-2.83355">
        <ele>6</ele>
        <time>2025-01-28T11:20:00Z</time>
      </trkpt>
      <trkpt lat="47.61327" lon="-2.83355">
        <ele>6</ele>
        <time>2025-01-28T11:20:01Z</time>
      </trkpt>
      <trkpt lat="47.61327" lon="-2.83355">
        <ele>6</ele>
        <time>2025-01-28T11:20:02Z</time>
      </trkpt>
      <trkpt lat="47.61327" lon="-2.83355">
        <ele>6</ele>
        <time>2025-01-28T11:20:03Z</time>
      </trkpt>
      <trkpt lat="47.61327" lon="-2.83355">
        <ele>6</ele>
        <time>2025-01-28T11:20:04Z</time>
      </trkpt>
      <trkpt lat="47.61327" lon="-2.83355">
        <ele>6</ele>
        <time>2025-01-28T11:20:05Z</time>
      </trkpt>
      <trkpt lat="47.61327" lon="-2.83355">
        <ele>6</ele>
        <time>2025-01-28T11:20:06Z</time>
      </trkpt>
      <trkpt lat="47.61327" lon="-2.83355">
        <ele>6</ele>
        <time>2025-01-28T11:20:07Z</time>
      </trkpt>
      <trkpt lat="47.61327" lon="-2.83355">
        <ele>6</ele>
        <time>2025-01-28T11:20:08Z</time>
      </trkpt>
      <trkpt lat="47.61327" lon="-2.83355">
        <ele>6</ele>
        <time>2025-01-28T11:20:09Z</time>
      </trkpt>
      <trkpt lat="47.61327" lon="-2.83355">
        <ele>6</ele>
        <time>2025-01-28T11:20:10Z</time>
      </trkpt>
      <trkpt lat="47.61327" lon="-2.83355">
        <ele>6</ele>
        <time>2025-01-28T11:20:11Z</time>
      </trkpt>
      <trkpt lat="47.61327" lon="-2.83355">
        <ele>6</ele>
        <time>2025-01-28T11:20:12Z</time>
      </trkpt>
      <trkpt lat="47.61327" lon="-2.83355">
        <ele>6</ele>
        <time>2025-01-28T11:20:13Z</time>
      </trkpt>
      <trkpt lat="47.61327" lon="-2.83355">
        <ele>6</ele>
        <time>2025-01-28T11:20:14Z</time>
      </trkpt>
      <trkpt lat="47.61327" lon="-2.83355">
        <ele>6</ele>
        <time>2025-01-28T11:20:15Z</time>
      </trkpt>
      <trkpt lat="47.61327" lon="-2.83355">
        <ele>6</ele>
        <time>2025-01-28T11:20:16Z</time>
      </trkpt>
      <trkpt lat="47.61327" lon="-2.83355">
        <ele>6</ele>
        <time>2025-01-28T11:20:17Z</time>
      </trkpt>
      <trkpt lat="47.61327" lon="-2.83355">
        <ele>6</ele>
        <time>2025-01-28T11:20:18Z</time>
      </trkpt>
      <trkpt lat="47.61327" lon="-2.83355">
        <ele>6</ele>
        <time>2025-01-28T11:20:19Z</time>
      </trkpt>
      <trkpt lat="47.61327" lon="-2.83355">
        <ele>6</ele>
        <time>2025-01-28T11:20:20Z</time>
      </trkpt>
      <trkpt lat="47.61327" lon="-2.83355">
        <ele>6</ele>
        <time>2025-01-28T11:20:21Z</time>
      </trkpt>
      <trkpt lat="47.61326" lon="-2.83355">
        <ele>6</ele>
        <time>2025-01-28T11:20:22Z</time>
      </trkpt>
      <trkpt lat="47.61326" lon="-2.83355">
        <ele>5.9</ele>
        <time>2025-01-28T11:20:23Z</time>
      </trkpt>
      <trkpt lat="47.61326" lon="-2.83355">
        <ele>5.9</ele>
        <time>2025-01-28T11:20:24Z</time>
      </trkpt>
      <trkpt lat="47.61326" lon="-2.83355">
        <ele>5.9</ele>
        <time>2025-01-28T11:20:25Z</time>
      </trkpt>
      <trkpt lat="47.61326" lon="-2.83355">
        <ele>5.8</ele>
        <time>2025-01-28T11:20:26Z</time>
      </trkpt>
      <trkpt lat="47.61326" lon="-2.83355">
        <ele>5.8</ele>
        <time>2025-01-28T11:20:27Z</time>
      </trkpt>
      <trkpt lat="47.61326" lon="-2.83355">
        <ele>5.8</ele>
        <time>2025-01-28T11:20:28Z</time>
      </trkpt>
      <trkpt lat="47.61326" lon="-2.83355">
        <ele>5.8</ele>
        <time>2025-01-28T11:20:29Z</time>
      </trkpt>
      <trkpt lat="47.61326" lon="-2.83355">
        <ele>5.8</ele>
        <time>2025-01-28T11:20:30Z</time>
      </trkpt>
      <trkpt lat="47.61326" lon="-2.83355">
        <ele>5.8</ele>
        <time>2025-01-28T11:20:31Z</time>
      </trkpt>
      <trkpt lat="47.61326" lon="-2.83355">
        <ele>5.8</ele>
        <time>2025-01-28T11:20:32Z</time>
      </trkpt>
      <trkpt lat="47.61326" lon="-2.83355">
        <ele>5.8</ele>
        <time>2025-01-28T11:20:33Z</time>
      </trkpt>
      <trkpt lat="47.61326" lon="-2.83355">
        <ele>5.8</ele>
        <time>2025-01-28T11:20:34Z</time>
      </trkpt>
      <trkpt lat="47.61326" lon="-2.83355">
        <ele>5.8</ele>
        <time>2025-01-28T11:20:35Z</time>
      </trkpt>
      <trkpt lat="47.61326" lon="-2.83355">
        <ele>5.8</ele>
        <time>2025-01-28T11:20:36Z</time>
      </trkpt>
      <trkpt lat="47.61326" lon="-2.83355">
        <ele>5.8</ele>
        <time>2025-01-28T11:20:37Z</time>
      </trkpt>
      <trkpt lat="47.61326" lon="-2.83355">
        <ele>5.8</ele>
        <time>2025-01-28T11:20:38Z</time>
      </trkpt>
      <trkpt lat="47.61326" lon="-2.83355">
        <ele>5.8</ele>
        <time>2025-01-28T11:20:39Z</time>
      </trkpt>
      <trkpt lat="47.61326" lon="-2.83355">
        <ele>5.8</ele>
        <time>2025-01-28T11:20:40Z</time>
      </trkpt>
      <trkpt lat="47.61326" lon="-2.83355">
        <ele>5.8</ele>
        <time>2025-01-28T11:20:41Z</time>
      </trkpt>
      <trkpt lat="47.61326" lon="-2.83355">
        <ele>5.8</ele>
        <time>2025-01-28T11:20:42Z</time>
      </trkpt>
      <trkpt lat="47.61326" lon="-2.83355">
        <ele>5.8</ele>
        <time>2025-01-28T11:20:43Z</time>
      </trkpt>
      <trkpt lat="47.61326" lon="-2.83355">
        <ele>5.8</ele>
        <time>2025-01-28T11:20:44Z</time>
      </trkpt>
      <trkpt lat="47.61326" lon="-2.83355">
        <ele>5.8</ele>
        <time>2025-01-28T11:20:45Z</time>
      </trkpt>
      <trkpt lat="47.61326" lon="-2.83355">
        <ele>5.8</ele>
        <time>2025-01-28T11:20:46Z</time>
      </trkpt>
      <trkpt lat="47.61326" lon="-2.83355">
        <ele>5.8</ele>
        <time>2025-01-28T11:20:47Z</time>
      </trkpt>
      <trkpt lat="47.61326" lon="-2.83355">
        <ele>5.8</ele>
        <time>2025-01-28T11:20:48Z</time>
      </trkpt>
      <trkpt lat="47.61326" lon="-2.83355">
        <ele>5.8</ele>
        <time>2025-01-28T11:20:49Z</time>
      </trkpt>
      <trkpt lat="47.61326" lon="-2.83355">
        <ele>5.8</ele>
        <time>2025-01-28T11:20:50Z</time>
      </trkpt>
      <trkpt lat="47.61326" lon="-2.83355">
        <ele>5.8</ele>
        <time>2025-01-28T11:20:51Z</time>
      </trkpt>
      <trkpt lat="47.61326" lon="-2.83355">
        <ele>5.8</ele>
        <time>2025-01-28T11:20:52Z</time>
      </trkpt>
      <trkpt lat="47.61326" lon="-2.83355">
        <ele>5.8</ele>
        <time>2025-01-28T11:20:53Z</time>
      </trkpt>
      <trkpt lat="47.61326" lon="-2.83355">
        <ele>5.8</ele>
        <time>2025-01-28T11:20:54Z</time>
      </trkpt>
      <trkpt lat="47.61326" lon="-2.83355">
        <ele>5.8</ele>
        <time>2025-01-28T11:20:55Z</time>
      </trkpt>
      <trkpt lat="47.61326" lon="-2.83355">
        <ele>5.8</ele>
        <time>2025-01-28T11:20:56Z</time>
      </trkpt>
      <trkpt lat="47.61326" lon="-2.83355">
        <ele>5.8</ele>
        <time>2025-01-28T11:20:57Z</time>
      </trkpt>
      <trkpt lat="47.61326" lon="-2.83355">
        <ele>5.8</ele>
        <time>2025-01-28T11:20:58Z</time>
      </trkpt>
      <trkpt lat="47.61326" lon="-2.83355">
        <ele>5.8</ele>
        <time>2025-01-28T11:20:59Z</time>
      </trkpt>
      <trkpt lat="47.61326" lon="-2.83355">
        <ele>5.8</ele>
        <time>2025-01-28T11:21:00Z</time>
      </trkpt>
      <trkpt lat="47.61326" lon="-2.83355">
        <ele>5.8</ele>
        <time>2025-01-28T11:21:01Z</time>
      </trkpt>
      <trkpt lat="47.61326" lon="-2.83355">
        <ele>5.8</ele>
        <time>2025-01-28T11:21:02Z</time>
      </trkpt>
      <trkpt lat="47.61326" lon="-2.83355">
        <ele>5.8</ele>
        <time>2025-01-28T11:21:03Z</time>
      </trkpt>
      <trkpt lat="47.61326" lon="-2.83355">
        <ele>5.8</ele>
        <time>2025-01-28T11:21:04Z</time>
      </trkpt>
      <trkpt lat="47.61326" lon="-2.83355">
        <ele>5.8</ele>
        <time>2025-01-28T11:21:05Z</time>
      </trkpt>
      <trkpt lat="47.61326" lon="-2.83355">
        <ele>5.8</ele>
        <time>2025-01-28T11:21:06Z</time>
      </trkpt>
      <trkpt lat="47.61326" lon="-2.83355">
        <ele>5.8</ele>
        <time>2025-01-28T11:21:07Z</time>
      </trkpt>
      <trkpt lat="47.61326" lon="-2.83355">
        <ele>5.8</ele>
        <time>2025-01-28T11:21:08Z</time>
      </trkpt>
      <trkpt lat="47.61326" lon="-2.83355">
        <ele>5.8</ele>
        <time>2025-01-28T11:21:09Z</time>
      </trkpt>
      <trkpt lat="47.61326" lon="-2.83355">
        <ele>5.8</ele>
        <time>2025-01-28T11:21:10Z</time>
      </trkpt>
      <trkpt lat="47.61326" lon="-2.83355">
        <ele>5.8</ele>
        <time>2025-01-28T11:21:11Z</time>
      </trkpt>
      <trkpt lat="47.61326" lon="-2.83355">
        <ele>5.8</ele>
        <time>2025-01-28T11:21:12Z</time>
      </trkpt>
      <trkpt lat="47.61326" lon="-2.83355">
        <ele>5.8</ele>
        <time>2025-01-28T11:21:13Z</time>
      </trkpt>
      <trkpt lat="47.61326" lon="-2.83355">
        <ele>5.8</ele>
        <time>2025-01-28T11:21:14Z</time>
      </trkpt>
      <trkpt lat="47.61326" lon="-2.83355">
        <ele>5.8</ele>
        <time>2025-01-28T11:21:15Z</time>
      </trkpt>
      <trkpt lat="47.61326" lon="-2.83355">
        <ele>5.8</ele>
        <time>2025-01-28T11:21:16Z</time>
      </trkpt>
      <trkpt lat="47.61326" lon="-2.83354">
        <ele>5.6</ele>
        <time>2025-01-28T11:21:17Z</time>
      </trkpt>
      <trkpt lat="47.61325" lon="-2.83354">
        <ele>5.5</ele>
        <time>2025-01-28T11:21:18Z</time>
      </trkpt>
      <trkpt lat="47.61325" lon="-2.83354">
        <ele>5.4</ele>
        <time>2025-01-28T11:21:19Z</time>
      </trkpt>
      <trkpt lat="47.61325" lon="-2.83353">
        <ele>5.3</ele>
        <time>2025-01-28T11:21:20Z</time>
      </trkpt>
      <trkpt lat="47.61325" lon="-2.83353">
        <ele>5.2</ele>
        <time>2025-01-28T11:21:21Z</time>
      </trkpt>
      <trkpt lat="47.61325" lon="-2.83353">
        <ele>5.2</ele>
        <time>2025-01-28T11:21:22Z</time>
      </trkpt>
      <trkpt lat="47.61325" lon="-2.83353">
        <ele>5.2</ele>
        <time>2025-01-28T11:21:23Z</time>
      </trkpt>
      <trkpt lat="47.61325" lon="-2.83353">
        <ele>5.2</ele>
        <time>2025-01-28T11:21:24Z</time>
      </trkpt>
      <trkpt lat="47.61325" lon="-2.83353">
        <ele>5.2</ele>
        <time>2025-01-28T11:21:25Z</time>
      </trkpt>
      <trkpt lat="47.61325" lon="-2.83353">
        <ele>5.2</ele>
        <time>2025-01-28T11:21:26Z</time>
      </trkpt>
      <trkpt lat="47.61325" lon="-2.83353">
        <ele>5.2</ele>
        <time>2025-01-28T11:21:27Z</time>
      </trkpt>
      <trkpt lat="47.61325" lon="-2.83353">
        <ele>5.2</ele>
        <time>2025-01-28T11:21:28Z</time>
      </trkpt>
      <trkpt lat="47.61325" lon="-2.83353">
        <ele>5.2</ele>
        <time>2025-01-28T11:21:29Z</time>
      </trkpt>
      <trkpt lat="47.61325" lon="-2.83353">
        <ele>5.2</ele>
        <time>2025-01-28T11:21:30Z</time>
      </trkpt>
      <trkpt lat="47.61325" lon="-2.83353">
        <ele>5.2</ele>
        <time>2025-01-28T11:21:31Z</time>
      </trkpt>
      <trkpt lat="47.61325" lon="-2.83353">
        <ele>5.2</ele>
        <time>2025-01-28T11:21:32Z</time>
      </trkpt>
      <trkpt lat="47.61325" lon="-2.83353">
        <ele>5.2</ele>
        <time>2025-01-28T11:21:33Z</time>
      </trkpt>
      <trkpt lat="47.61325" lon="-2.83353">
        <ele>5.2</ele>
        <time>2025-01-28T11:21:34Z</time>
      </trkpt>
      <trkpt lat="47.61325" lon="-2.83352">
        <ele>5.1</ele>
        <time>2025-01-28T11:21:35Z</time>
      </trkpt>
      <trkpt lat="47.61325" lon="-2.83352">
        <ele>5</ele>
        <time>2025-01-28T11:21:36Z</time>
      </trkpt>
      <trkpt lat="47.61324" lon="-2.83352">
        <ele>5</ele>
        <time>2025-01-28T11:21:37Z</time>
      </trkpt>
      <trkpt lat="47.61324" lon="-2.83352">
        <ele>5</ele>
        <time>2025-01-28T11:21:38Z</time>
      </trkpt>
      <trkpt lat="47.61324" lon="-2.83352">
        <ele>5</ele>
        <time>2025-01-28T11:21:39Z</time>
      </trkpt>
      <trkpt lat="47.61324" lon="-2.83352">
        <ele>5</ele>
        <time>2025-01-28T11:21:40Z</time>
      </trkpt>
      <trkpt lat="47.61324" lon="-2.83352">
        <ele>5</ele>
        <time>2025-01-28T11:21:41Z</time>
      </trkpt>
      <trkpt lat="47.61324" lon="-2.83352">
        <ele>5</ele>
        <time>2025-01-28T11:21:42Z</time>
      </trkpt>
      <trkpt lat="47.61325" lon="-2.83352">
        <ele>5</ele>
        <time>2025-01-28T11:21:43Z</time>
      </trkpt>
      <trkpt lat="47.61325" lon="-2.83352">
        <ele>5</ele>
        <time>2025-01-28T11:21:44Z</time>
      </trkpt>
      <trkpt lat="47.61325" lon="-2.83352">
        <ele>5</ele>
        <time>2025-01-28T11:21:45Z</time>
      </trkpt>
      <trkpt lat="47.61325" lon="-2.83352">
        <ele>5</ele>
        <time>2025-01-28T11:21:46Z</time>
      </trkpt>
      <trkpt lat="47.61325" lon="-2.83352">
        <ele>5</ele>
        <time>2025-01-28T11:21:47Z</time>
      </trkpt>
      <trkpt lat="47.61325" lon="-2.83352">
        <ele>5</ele>
        <time>2025-01-28T11:21:48Z</time>
      </trkpt>
      <trkpt lat="47.61325" lon="-2.83352">
        <ele>5</ele>
        <time>2025-01-28T11:21:49Z</time>
      </trkpt>
      <trkpt lat="47.61325" lon="-2.83352">
        <ele>5</ele>
        <time>2025-01-28T11:21:50Z</time>
      </trkpt>
      <trkpt lat="47.61325" lon="-2.83352">
        <ele>5</ele>
        <time>2025-01-28T11:21:51Z</time>
      </trkpt>
      <trkpt lat="47.61325" lon="-2.83352">
        <ele>5</ele>
        <time>2025-01-28T11:21:52Z</time>
      </trkpt>
      <trkpt lat="47.61325" lon="-2.83352">
        <ele>5</ele>
        <time>2025-01-28T11:21:53Z</time>
      </trkpt>
      <trkpt lat="47.61325" lon="-2.83352">
        <ele>5</ele>
        <time>2025-01-28T11:21:54Z</time>
      </trkpt>
      <trkpt lat="47.61325" lon="-2.83352">
        <ele>5</ele>
        <time>2025-01-28T11:21:55Z</time>
      </trkpt>
      <trkpt lat="47.61325" lon="-2.83352">
        <ele>5</ele>
        <time>2025-01-28T11:21:56Z</time>
      </trkpt>
      <trkpt lat="47.61325" lon="-2.83352">
        <ele>5</ele>
        <time>2025-01-28T11:21:57Z</time>
      </trkpt>
      <trkpt lat="47.61325" lon="-2.83352">
        <ele>5</ele>
        <time>2025-01-28T11:21:58Z</time>
      </trkpt>
      <trkpt lat="47.61325" lon="-2.83352">
        <ele>5</ele>
        <time>2025-01-28T11:21:59Z</time>
      </trkpt>
      <trkpt lat="47.61325" lon="-2.83352">
        <ele>5</ele>
        <time>2025-01-28T11:22:00Z</time>
      </trkpt>
      <trkpt lat="47.61325" lon="-2.83352">
        <ele>5</ele>
        <time>2025-01-28T11:22:01Z</time>
      </trkpt>
      <trkpt lat="47.61325" lon="-2.83352">
        <ele>5</ele>
        <time>2025-01-28T11:22:02Z</time>
      </trkpt>
      <trkpt lat="47.61325" lon="-2.83352">
        <ele>5</ele>
        <time>2025-01-28T11:22:03Z</time>
      </trkpt>
      <trkpt lat="47.61325" lon="-2.83352">
        <ele>5</ele>
        <time>2025-01-28T11:22:04Z</time>
      </trkpt>
      <trkpt lat="47.61325" lon="-2.83352">
        <ele>5</ele>
        <time>2025-01-28T11:22:05Z</time>
      </trkpt>
      <trkpt lat="47.61325" lon="-2.83352">
        <ele>5</ele>
        <time>2025-01-28T11:22:06Z</time>
      </trkpt>
      <trkpt lat="47.61325" lon="-2.83352">
        <ele>5</ele>
        <time>2025-01-28T11:22:07Z</time>
      </trkpt>
      <trkpt lat="47.61325" lon="-2.83352">
        <ele>5</ele>
        <time>2025-01-28T11:22:08Z</time>
      </trkpt>
      <trkpt lat="47.61324" lon="-2.83352">
        <ele>4.9</ele>
        <time>2025-01-28T11:22:09Z</time>
      </trkpt>
      <trkpt lat="47.61324" lon="-2.83352">
        <ele>4.9</ele>
        <time>2025-01-28T11:22:10Z</time>
      </trkpt>
      <trkpt lat="47.61324" lon="-2.83352">
        <ele>4.9</ele>
        <time>2025-01-28T11:22:11Z</time>
      </trkpt>
      <trkpt lat="47.61324" lon="-2.83352">
        <ele>4.9</ele>
        <time>2025-01-28T11:22:12Z</time>
      </trkpt>
      <trkpt lat="47.61324" lon="-2.83352">
        <ele>4.9</ele>
        <time>2025-01-28T11:22:13Z</time>
      </trkpt>
      <trkpt lat="47.61324" lon="-2.83352">
        <ele>4.9</ele>
        <time>2025-01-28T11:22:14Z</time>
      </trkpt>
      <trkpt lat="47.61324" lon="-2.83352">
        <ele>4.9</ele>
        <time>2025-01-28T11:22:15Z</time>
      </trkpt>
      <trkpt lat="47.61324" lon="-2.83352">
        <ele>4.9</ele>
        <time>2025-01-28T11:22:16Z</time>
      </trkpt>
      <trkpt lat="47.61324" lon="-2.83352">
        <ele>4.9</ele>
        <time>2025-01-28T11:22:17Z</time>
      </trkpt>
      <trkpt lat="47.61324" lon="-2.83352">
        <ele>4.9</ele>
        <time>2025-01-28T11:22:18Z</time>
      </trkpt>
      <trkpt lat="47.61324" lon="-2.83352">
        <ele>4.9</ele>
        <time>2025-01-28T11:22:19Z</time>
      </trkpt>
      <trkpt lat="47.61324" lon="-2.83352">
        <ele>4.9</ele>
        <time>2025-01-28T11:22:20Z</time>
      </trkpt>
      <trkpt lat="47.61324" lon="-2.83352">
        <ele>4.9</ele>
        <time>2025-01-28T11:22:21Z</time>
      </trkpt>
      <trkpt lat="47.61324" lon="-2.83352">
        <ele>4.9</ele>
        <time>2025-01-28T11:22:22Z</time>
      </trkpt>
      <trkpt lat="47.61324" lon="-2.83352">
        <ele>4.9</ele>
        <time>2025-01-28T11:22:23Z</time>
      </trkpt>
      <trkpt lat="47.61324" lon="-2.83352">
        <ele>4.9</ele>
        <time>2025-01-28T11:22:24Z</time>
      </trkpt>
      <trkpt lat="47.61324" lon="-2.83352">
        <ele>4.9</ele>
        <time>2025-01-28T11:22:25Z</time>
      </trkpt>
      <trkpt lat="47.61324" lon="-2.83352">
        <ele>4.9</ele>
        <time>2025-01-28T11:22:26Z</time>
      </trkpt>
      <trkpt lat="47.61324" lon="-2.83352">
        <ele>4.9</ele>
        <time>2025-01-28T11:22:27Z</time>
      </trkpt>
      <trkpt lat="47.61324" lon="-2.83352">
        <ele>4.9</ele>
        <time>2025-01-28T11:22:28Z</time>
      </trkpt>
      <trkpt lat="47.61324" lon="-2.83352">
        <ele>4.9</ele>
        <time>2025-01-28T11:22:29Z</time>
      </trkpt>
      <trkpt lat="47.61324" lon="-2.83352">
        <ele>4.9</ele>
        <time>2025-01-28T11:22:30Z</time>
      </trkpt>
      <trkpt lat="47.61324" lon="-2.83352">
        <ele>4.9</ele>
        <time>2025-01-28T11:22:31Z</time>
      </trkpt>
      <trkpt lat="47.61324" lon="-2.83352">
        <ele>4.9</ele>
        <time>2025-01-28T11:22:32Z</time>
      </trkpt>
      <trkpt lat="47.61324" lon="-2.83352">
        <ele>4.9</ele>
        <time>2025-01-28T11:22:33Z</time>
      </trkpt>
      <trkpt lat="47.61324" lon="-2.83352">
        <ele>4.9</ele>
        <time>2025-01-28T11:22:34Z</time>
      </trkpt>
      <trkpt lat="47.61324" lon="-2.83352">
        <ele>4.9</ele>
        <time>2025-01-28T11:22:35Z</time>
      </trkpt>
      <trkpt lat="47.61324" lon="-2.83352">
        <ele>4.9</ele>
        <time>2025-01-28T11:22:36Z</time>
      </trkpt>
      <trkpt lat="47.61324" lon="-2.83352">
        <ele>4.9</ele>
        <time>2025-01-28T11:22:37Z</time>
      </trkpt>
      <trkpt lat="47.61324" lon="-2.83352">
        <ele>4.9</ele>
        <time>2025-01-28T11:22:38Z</time>
      </trkpt>
      <trkpt lat="47.61324" lon="-2.83352">
        <ele>4.9</ele>
        <time>2025-01-28T11:22:39Z</time>
      </trkpt>
      <trkpt lat="47.61324" lon="-2.83352">
        <ele>4.9</ele>
        <time>2025-01-28T11:22:40Z</time>
      </trkpt>
      <trkpt lat="47.61324" lon="-2.83352">
        <ele>4.9</ele>
        <time>2025-01-28T11:22:41Z</time>
      </trkpt>
      <trkpt lat="47.61324" lon="-2.83352">
        <ele>4.9</ele>
        <time>2025-01-28T11:22:42Z</time>
      </trkpt>
      <trkpt lat="47.61324" lon="-2.83352">
        <ele>4.9</ele>
        <time>2025-01-28T11:22:43Z</time>
      </trkpt>
      <trkpt lat="47.61324" lon="-2.83352">
        <ele>4.9</ele>
        <time>2025-01-28T11:22:44Z</time>
      </trkpt>
      <trkpt lat="47.61324" lon="-2.83352">
        <ele>4.9</ele>
        <time>2025-01-28T11:22:45Z</time>
      </trkpt>
      <trkpt lat="47.61324" lon="-2.83352">
        <ele>4.9</ele>
        <time>2025-01-28T11:22:46Z</time>
      </trkpt>
      <trkpt lat="47.61324" lon="-2.83352">
        <ele>4.9</ele>
        <time>2025-01-28T11:22:47Z</time>
      </trkpt>
      <trkpt lat="47.61324" lon="-2.83352">
        <ele>4.9</ele>
        <time>2025-01-28T11:22:48Z</time>
      </trkpt>
      <trkpt lat="47.61324" lon="-2.83352">
        <ele>4.9</ele>
        <time>2025-01-28T11:22:49Z</time>
      </trkpt>
      <trkpt lat="47.61324" lon="-2.83352">
        <ele>4.9</ele>
        <time>2025-01-28T11:22:50Z</time>
      </trkpt>
      <trkpt lat="47.61324" lon="-2.83352">
        <ele>4.9</ele>
        <time>2025-01-28T11:22:51Z</time>
      </trkpt>
      <trkpt lat="47.61324" lon="-2.83352">
        <ele>4.9</ele>
        <time>2025-01-28T11:22:52Z</time>
      </trkpt>
      <trkpt lat="47.61324" lon="-2.83352">
        <ele>4.9</ele>
        <time>2025-01-28T11:22:53Z</time>
      </trkpt>
      <trkpt lat="47.61324" lon="-2.83352">
        <ele>4.9</ele>
        <time>2025-01-28T11:22:54Z</time>
      </trkpt>
      <trkpt lat="47.61324" lon="-2.83352">
        <ele>4.9</ele>
        <time>2025-01-28T11:22:55Z</time>
      </trkpt>
      <trkpt lat="47.61324" lon="-2.83352">
        <ele>4.9</ele>
        <time>2025-01-28T11:22:56Z</time>
      </trkpt>
      <trkpt lat="47.61324" lon="-2.83352">
        <ele>4.9</ele>
        <time>2025-01-28T11:22:57Z</time>
      </trkpt>
      <trkpt lat="47.61324" lon="-2.83352">
        <ele>4.9</ele>
        <time>2025-01-28T11:22:58Z</time>
      </trkpt>
      <trkpt lat="47.61324" lon="-2.83352">
        <ele>4.9</ele>
        <time>2025-01-28T11:22:59Z</time>
      </trkpt>
      <trkpt lat="47.61324" lon="-2.83352">
        <ele>4.9</ele>
        <time>2025-01-28T11:23:00Z</time>
      </trkpt>
      <trkpt lat="47.61324" lon="-2.83351">
        <ele>4.9</ele>
        <time>2025-01-28T11:23:01Z</time>
      </trkpt>
      <trkpt lat="47.61324" lon="-2.83351">
        <ele>4.9</ele>
        <time>2025-01-28T11:23:02Z</time>
      </trkpt>
      <trkpt lat="47.61324" lon="-2.83351">
        <ele>4.9</ele>
        <time>2025-01-28T11:23:03Z</time>
      </trkpt>
      <trkpt lat="47.61324" lon="-2.83351">
        <ele>4.9</ele>
        <time>2025-01-28T11:23:04Z</time>
      </trkpt>
      <trkpt lat="47.61324" lon="-2.83351">
        <ele>4.9</ele>
        <time>2025-01-28T11:23:05Z</time>
      </trkpt>
      <trkpt lat="47.61324" lon="-2.83351">
        <ele>4.9</ele>
        <time>2025-01-28T11:23:06Z</time>
      </trkpt>
      <trkpt lat="47.61324" lon="-2.83351">
        <ele>4.9</ele>
        <time>2025-01-28T11:23:07Z</time>
      </trkpt>
      <trkpt lat="47.61324" lon="-2.83351">
        <ele>4.9</ele>
        <time>2025-01-28T11:23:08Z</time>
      </trkpt>
      <trkpt lat="47.61324" lon="-2.83352">
        <ele>4.9</ele>
        <time>2025-01-28T11:23:09Z</time>
      </trkpt>
      <trkpt lat="47.61324" lon="-2.83352">
        <ele>4.9</ele>
        <time>2025-01-28T11:23:10Z</time>
      </trkpt>
      <trkpt lat="47.61324" lon="-2.83352">
        <ele>4.9</ele>
        <time>2025-01-28T11:23:11Z</time>
      </trkpt>
      <trkpt lat="47.61324" lon="-2.83352">
        <ele>4.9</ele>
        <time>2025-01-28T11:23:12Z</time>
      </trkpt>
      <trkpt lat="47.61324" lon="-2.83352">
        <ele>4.9</ele>
        <time>2025-01-28T11:23:13Z</time>
      </trkpt>
      <trkpt lat="47.61324" lon="-2.83352">
        <ele>4.9</ele>
        <time>2025-01-28T11:23:14Z</time>
      </trkpt>
      <trkpt lat="47.61324" lon="-2.83352">
        <ele>4.9</ele>
        <time>2025-01-28T11:23:15Z</time>
      </trkpt>
      <trkpt lat="47.61324" lon="-2.83352">
        <ele>4.9</ele>
        <time>2025-01-28T11:23:16Z</time>
      </trkpt>
      <trkpt lat="47.61324" lon="-2.83352">
        <ele>4.9</ele>
        <time>2025-01-28T11:23:17Z</time>
      </trkpt>
      <trkpt lat="47.61324" lon="-2.83352">
        <ele>4.9</ele>
        <time>2025-01-28T11:23:18Z</time>
      </trkpt>
      <trkpt lat="47.61324" lon="-2.83352">
        <ele>4.9</ele>
        <time>2025-01-28T11:23:19Z</time>
      </trkpt>
      <trkpt lat="47.61324" lon="-2.83352">
        <ele>4.9</ele>
        <time>2025-01-28T11:23:20Z</time>
      </trkpt>
      <trkpt lat="47.61324" lon="-2.83352">
        <ele>4.9</ele>
        <time>2025-01-28T11:23:21Z</time>
      </trkpt>
      <trkpt lat="47.61324" lon="-2.83352">
        <ele>4.9</ele>
        <time>2025-01-28T11:23:22Z</time>
      </trkpt>
      <trkpt lat="47.61324" lon="-2.83352">
        <ele>4.9</ele>
        <time>2025-01-28T11:23:23Z</time>
      </trkpt>
      <trkpt lat="47.61324" lon="-2.83352">
        <ele>4.9</ele>
        <time>2025-01-28T11:23:24Z</time>
      </trkpt>
      <trkpt lat="47.61324" lon="-2.83352">
        <ele>4.9</ele>
        <time>2025-01-28T11:23:25Z</time>
      </trkpt>
      <trkpt lat="47.61324" lon="-2.83352">
        <ele>4.9</ele>
        <time>2025-01-28T11:23:26Z</time>
      </trkpt>
      <trkpt lat="47.61324" lon="-2.83352">
        <ele>4.9</ele>
        <time>2025-01-28T11:23:27Z</time>
      </trkpt>
      <trkpt lat="47.61324" lon="-2.83352">
        <ele>4.9</ele>
        <time>2025-01-28T11:23:28Z</time>
      </trkpt>
      <trkpt lat="47.61324" lon="-2.83351">
        <ele>4.8</ele>
        <time>2025-01-28T11:23:29Z</time>
      </trkpt>
      <trkpt lat="47.61324" lon="-2.83351">
        <ele>4.8</ele>
        <time>2025-01-28T11:23:30Z</time>
      </trkpt>
      <trkpt lat="47.61324" lon="-2.83351">
        <ele>4.8</ele>
        <time>2025-01-28T11:23:31Z</time>
      </trkpt>
      <trkpt lat="47.61324" lon="-2.83351">
        <ele>4.8</ele>
        <time>2025-01-28T11:23:32Z</time>
      </trkpt>
      <trkpt lat="47.61324" lon="-2.83351">
        <ele>4.9</ele>
        <time>2025-01-28T11:23:33Z</time>
      </trkpt>
      <trkpt lat="47.61325" lon="-2.83351">
        <ele>4.8</ele>
        <time>2025-01-28T11:23:34Z</time>
      </trkpt>
      <trkpt lat="47.61325" lon="-2.8335">
        <ele>4.8</ele>
        <time>2025-01-28T11:23:35Z</time>
      </trkpt>
      <trkpt lat="47.61325" lon="-2.8335">
        <ele>4.7</ele>
        <time>2025-01-28T11:23:36Z</time>
      </trkpt>
      <trkpt lat="47.61325" lon="-2.8335">
        <ele>4.7</ele>
        <time>2025-01-28T11:23:37Z</time>
      </trkpt>
      <trkpt lat="47.61325" lon="-2.8335">
        <ele>4.7</ele>
        <time>2025-01-28T11:23:38Z</time>
      </trkpt>
      <trkpt lat="47.61325" lon="-2.8335">
        <ele>4.7</ele>
        <time>2025-01-28T11:23:39Z</time>
      </trkpt>
      <trkpt lat="47.61325" lon="-2.8335">
        <ele>4.7</ele>
        <time>2025-01-28T11:23:40Z</time>
      </trkpt>
      <trkpt lat="47.61325" lon="-2.8335">
        <ele>4.7</ele>
        <time>2025-01-28T11:23:41Z</time>
      </trkpt>
      <trkpt lat="47.61325" lon="-2.8335">
        <ele>4.7</ele>
        <time>2025-01-28T11:23:42Z</time>
      </trkpt>
      <trkpt lat="47.61325" lon="-2.8335">
        <ele>4.7</ele>
        <time>2025-01-28T11:23:43Z</time>
      </trkpt>
      <trkpt lat="47.61325" lon="-2.8335">
        <ele>4.7</ele>
        <time>2025-01-28T11:23:44Z</time>
      </trkpt>
      <trkpt lat="47.61325" lon="-2.8335">
        <ele>4.7</ele>
        <time>2025-01-28T11:23:45Z</time>
      </trkpt>
      <trkpt lat="47.61325" lon="-2.8335">
        <ele>4.8</ele>
        <time>2025-01-28T11:23:46Z</time>
      </trkpt>
      <trkpt lat="47.61325" lon="-2.83351">
        <ele>4.8</ele>
        <time>2025-01-28T11:23:47Z</time>
      </trkpt>
      <trkpt lat="47.61325" lon="-2.83351">
        <ele>4.8</ele>
        <time>2025-01-28T11:23:48Z</time>
      </trkpt>
      <trkpt lat="47.61325" lon="-2.83351">
        <ele>4.8</ele>
        <time>2025-01-28T11:23:49Z</time>
      </trkpt>
      <trkpt lat="47.61325" lon="-2.83351">
        <ele>4.8</ele>
        <time>2025-01-28T11:23:50Z</time>
      </trkpt>
      <trkpt lat="47.61325" lon="-2.83351">
        <ele>4.8</ele>
        <time>2025-01-28T11:23:51Z</time>
      </trkpt>
      <trkpt lat="47.61325" lon="-2.83351">
        <ele>4.8</ele>
        <time>2025-01-28T11:23:52Z</time>
      </trkpt>
      <trkpt lat="47.61325" lon="-2.83351">
        <ele>4.8</ele>
        <time>2025-01-28T11:23:53Z</time>
      </trkpt>
      <trkpt lat="47.61325" lon="-2.83351">
        <ele>4.8</ele>
        <time>2025-01-28T11:23:54Z</time>
      </trkpt>
      <trkpt lat="47.61325" lon="-2.83351">
        <ele>4.8</ele>
        <time>2025-01-28T11:23:55Z</time>
      </trkpt>
      <trkpt lat="47.61325" lon="-2.83351">
        <ele>4.8</ele>
        <time>2025-01-28T11:23:56Z</time>
      </trkpt>
      <trkpt lat="47.61325" lon="-2.83351">
        <ele>4.8</ele>
        <time>2025-01-28T11:23:57Z</time>
      </trkpt>
      <trkpt lat="47.61325" lon="-2.8335">
        <ele>4.8</ele>
        <time>2025-01-28T11:23:58Z</time>
      </trkpt>
      <trkpt lat="47.61325" lon="-2.8335">
        <ele>4.8</ele>
        <time>2025-01-28T11:23:59Z</time>
      </trkpt>
      <trkpt lat="47.61325" lon="-2.8335">
        <ele>4.8</ele>
        <time>2025-01-28T11:24:00Z</time>
      </trkpt>
      <trkpt lat="47.61325" lon="-2.8335">
        <ele>4.8</ele>
        <time>2025-01-28T11:24:01Z</time>
      </trkpt>
      <trkpt lat="47.61325" lon="-2.8335">
        <ele>4.8</ele>
        <time>2025-01-28T11:24:02Z</time>
      </trkpt>
      <trkpt lat="47.61325" lon="-2.8335">
        <ele>4.8</ele>
        <time>2025-01-28T11:24:03Z</time>
      </trkpt>
      <trkpt lat="47.61325" lon="-2.8335">
        <ele>4.8</ele>
        <time>2025-01-28T11:24:04Z</time>
      </trkpt>
      <trkpt lat="47.61325" lon="-2.8335">
        <ele>4.8</ele>
        <time>2025-01-28T11:24:05Z</time>
      </trkpt>
      <trkpt lat="47.61325" lon="-2.8335">
        <ele>4.8</ele>
        <time>2025-01-28T11:24:06Z</time>
      </trkpt>
      <trkpt lat="47.61325" lon="-2.8335">
        <ele>4.8</ele>
        <time>2025-01-28T11:24:07Z</time>
      </trkpt>
      <trkpt lat="47.61325" lon="-2.8335">
        <ele>4.8</ele>
        <time>2025-01-28T11:24:08Z</time>
      </trkpt>
      <trkpt lat="47.61325" lon="-2.8335">
        <ele>4.8</ele>
        <time>2025-01-28T11:24:09Z</time>
      </trkpt>
      <trkpt lat="47.61325" lon="-2.8335">
        <ele>4.8</ele>
        <time>2025-01-28T11:24:10Z</time>
      </trkpt>
      <trkpt lat="47.61325" lon="-2.8335">
        <ele>4.8</ele>
        <time>2025-01-28T11:24:11Z</time>
      </trkpt>
      <trkpt lat="47.61325" lon="-2.8335">
        <ele>4.8</ele>
        <time>2025-01-28T11:24:12Z</time>
      </trkpt>
      <trkpt lat="47.61325" lon="-2.8335">
        <ele>4.8</ele>
        <time>2025-01-28T11:24:13Z</time>
      </trkpt>
      <trkpt lat="47.61325" lon="-2.8335">
        <ele>4.8</ele>
        <time>2025-01-28T11:24:14Z</time>
      </trkpt>
      <trkpt lat="47.61325" lon="-2.8335">
        <ele>4.8</ele>
        <time>2025-01-28T11:24:15Z</time>
      </trkpt>
      <trkpt lat="47.61325" lon="-2.8335">
        <ele>4.8</ele>
        <time>2025-01-28T11:24:16Z</time>
      </trkpt>
      <trkpt lat="47.61325" lon="-2.8335">
        <ele>4.8</ele>
        <time>2025-01-28T11:24:17Z</time>
      </trkpt>
      <trkpt lat="47.61325" lon="-2.8335">
        <ele>4.8</ele>
        <time>2025-01-28T11:24:18Z</time>
      </trkpt>
      <trkpt lat="47.61325" lon="-2.8335">
        <ele>4.8</ele>
        <time>2025-01-28T11:24:19Z</time>
      </trkpt>
      <trkpt lat="47.61325" lon="-2.8335">
        <ele>4.8</ele>
        <time>2025-01-28T11:24:20Z</time>
      </trkpt>
      <trkpt lat="47.61325" lon="-2.8335">
        <ele>4.8</ele>
        <time>2025-01-28T11:24:21Z</time>
      </trkpt>
      <trkpt lat="47.61325" lon="-2.8335">
        <ele>4.8</ele>
        <time>2025-01-28T11:24:22Z</time>
      </trkpt>
      <trkpt lat="47.61325" lon="-2.8335">
        <ele>4.8</ele>
        <time>2025-01-28T11:24:23Z</time>
      </trkpt>
      <trkpt lat="47.61325" lon="-2.8335">
        <ele>4.8</ele>
        <time>2025-01-28T11:24:24Z</time>
      </trkpt>
      <trkpt lat="47.61325" lon="-2.8335">
        <ele>4.8</ele>
        <time>2025-01-28T11:24:25Z</time>
      </trkpt>
      <trkpt lat="47.61325" lon="-2.8335">
        <ele>4.8</ele>
        <time>2025-01-28T11:24:26Z</time>
      </trkpt>
      <trkpt lat="47.61325" lon="-2.8335">
        <ele>4.8</ele>
        <time>2025-01-28T11:24:27Z</time>
      </trkpt>
      <trkpt lat="47.61325" lon="-2.8335">
        <ele>4.8</ele>
        <time>2025-01-28T11:24:28Z</time>
      </trkpt>
      <trkpt lat="47.61325" lon="-2.8335">
        <ele>4.8</ele>
        <time>2025-01-28T11:24:29Z</time>
      </trkpt>
      <trkpt lat="47.61325" lon="-2.8335">
        <ele>4.8</ele>
        <time>2025-01-28T11:24:30Z</time>
      </trkpt>
      <trkpt lat="47.61325" lon="-2.8335">
        <ele>4.8</ele>
        <time>2025-01-28T11:24:31Z</time>
      </trkpt>
      <trkpt lat="47.61325" lon="-2.8335">
        <ele>4.8</ele>
        <time>2025-01-28T11:24:32Z</time>
      </trkpt>
      <trkpt lat="47.61325" lon="-2.8335">
        <ele>4.8</ele>
        <time>2025-01-28T11:24:33Z</time>
      </trkpt>
      <trkpt lat="47.61325" lon="-2.8335">
        <ele>4.8</ele>
        <time>2025-01-28T11:24:34Z</time>
      </trkpt>
      <trkpt lat="47.61325" lon="-2.8335">
        <ele>4.8</ele>
        <time>2025-01-28T11:24:35Z</time>
      </trkpt>
      <trkpt lat="47.61325" lon="-2.8335">
        <ele>4.8</ele>
        <time>2025-01-28T11:24:36Z</time>
      </trkpt>
      <trkpt lat="47.61325" lon="-2.8335">
        <ele>4.8</ele>
        <time>2025-01-28T11:24:37Z</time>
      </trkpt>
      <trkpt lat="47.61325" lon="-2.8335">
        <ele>4.8</ele>
        <time>2025-01-28T11:24:38Z</time>
      </trkpt>
      <trkpt lat="47.61325" lon="-2.8335">
        <ele>4.8</ele>
        <time>2025-01-28T11:24:39Z</time>
      </trkpt>
      <trkpt lat="47.61325" lon="-2.8335">
        <ele>4.8</ele>
        <time>2025-01-28T11:24:40Z</time>
      </trkpt>
      <trkpt lat="47.61325" lon="-2.8335">
        <ele>4.8</ele>
        <time>2025-01-28T11:24:41Z</time>
      </trkpt>
      <trkpt lat="47.61325" lon="-2.8335">
        <ele>4.8</ele>
        <time>2025-01-28T11:24:42Z</time>
      </trkpt>
      <trkpt lat="47.61325" lon="-2.8335">
        <ele>4.8</ele>
        <time>2025-01-28T11:24:43Z</time>
      </trkpt>
      <trkpt lat="47.61325" lon="-2.8335">
        <ele>4.8</ele>
        <time>2025-01-28T11:24:44Z</time>
      </trkpt>
      <trkpt lat="47.61325" lon="-2.8335">
        <ele>4.8</ele>
        <time>2025-01-28T11:24:45Z</time>
      </trkpt>
      <trkpt lat="47.61325" lon="-2.8335">
        <ele>4.8</ele>
        <time>2025-01-28T11:24:46Z</time>
      </trkpt>
      <trkpt lat="47.61325" lon="-2.8335">
        <ele>4.8</ele>
        <time>2025-01-28T11:24:47Z</time>
      </trkpt>
      <trkpt lat="47.61325" lon="-2.8335">
        <ele>4.8</ele>
        <time>2025-01-28T11:24:48Z</time>
      </trkpt>
      <trkpt lat="47.61325" lon="-2.8335">
        <ele>4.8</ele>
        <time>2025-01-28T11:24:49Z</time>
      </trkpt>
      <trkpt lat="47.61325" lon="-2.8335">
        <ele>4.8</ele>
        <time>2025-01-28T11:24:50Z</time>
      </trkpt>
      <trkpt lat="47.61325" lon="-2.83351">
        <ele>4.8</ele>
        <time>2025-01-28T11:24:51Z</time>
      </trkpt>
      <trkpt lat="47.61324" lon="-2.83351">
        <ele>4.7</ele>
        <time>2025-01-28T11:24:52Z</time>
      </trkpt>
      <trkpt lat="47.61324" lon="-2.83351">
        <ele>4.7</ele>
        <time>2025-01-28T11:24:53Z</time>
      </trkpt>
      <trkpt lat="47.61324" lon="-2.83351">
        <ele>4.8</ele>
        <time>2025-01-28T11:24:54Z</time>
      </trkpt>
      <trkpt lat="47.61324" lon="-2.83351">
        <ele>4.8</ele>
        <time>2025-01-28T11:24:55Z</time>
      </trkpt>
      <trkpt lat="47.61324" lon="-2.83351">
        <ele>4.8</ele>
        <time>2025-01-28T11:24:56Z</time>
      </trkpt>
      <trkpt lat="47.61324" lon="-2.83351">
        <ele>4.8</ele>
        <time>2025-01-28T11:24:57Z</time>
      </trkpt>
      <trkpt lat="47.61324" lon="-2.83351">
        <ele>4.8</ele>
        <time>2025-01-28T11:24:58Z</time>
      </trkpt>
      <trkpt lat="47.61324" lon="-2.83351">
        <ele>4.8</ele>
        <time>2025-01-28T11:24:59Z</time>
      </trkpt>
      <trkpt lat="47.61324" lon="-2.83351">
        <ele>4.8</ele>
        <time>2025-01-28T11:25:00Z</time>
      </trkpt>
      <trkpt lat="47.61324" lon="-2.83351">
        <ele>4.8</ele>
        <time>2025-01-28T11:25:01Z</time>
      </trkpt>
      <trkpt lat="47.61324" lon="-2.83351">
        <ele>4.8</ele>
        <time>2025-01-28T11:25:02Z</time>
      </trkpt>
      <trkpt lat="47.61324" lon="-2.83351">
        <ele>4.8</ele>
        <time>2025-01-28T11:25:03Z</time>
      </trkpt>
      <trkpt lat="47.61324" lon="-2.83351">
        <ele>4.8</ele>
        <time>2025-01-28T11:25:04Z</time>
      </trkpt>
      <trkpt lat="47.61324" lon="-2.83351">
        <ele>4.8</ele>
        <time>2025-01-28T11:25:05Z</time>
      </trkpt>
      <trkpt lat="47.61324" lon="-2.83351">
        <ele>4.8</ele>
        <time>2025-01-28T11:25:06Z</time>
      </trkpt>
      <trkpt lat="47.61324" lon="-2.83352">
        <ele>4.9</ele>
        <time>2025-01-28T11:25:07Z</time>
      </trkpt>
      <trkpt lat="47.61324" lon="-2.83352">
        <ele>5</ele>
        <time>2025-01-28T11:25:08Z</time>
      </trkpt>
      <trkpt lat="47.61325" lon="-2.83352">
        <ele>5</ele>
        <time>2025-01-28T11:25:09Z</time>
      </trkpt>
      <trkpt lat="47.61325" lon="-2.83352">
        <ele>5</ele>
        <time>2025-01-28T11:25:10Z</time>
      </trkpt>
      <trkpt lat="47.61325" lon="-2.83352">
        <ele>5</ele>
        <time>2025-01-28T11:25:11Z</time>
      </trkpt>
      <trkpt lat="47.61325" lon="-2.83352">
        <ele>5</ele>
        <time>2025-01-28T11:25:12Z</time>
      </trkpt>
      <trkpt lat="47.61325" lon="-2.83352">
        <ele>5</ele>
        <time>2025-01-28T11:25:13Z</time>
      </trkpt>
      <trkpt lat="47.61325" lon="-2.83352">
        <ele>5</ele>
        <time>2025-01-28T11:25:14Z</time>
      </trkpt>
      <trkpt lat="47.61325" lon="-2.83352">
        <ele>5</ele>
        <time>2025-01-28T11:25:15Z</time>
      </trkpt>
      <trkpt lat="47.61325" lon="-2.83352">
        <ele>5</ele>
        <time>2025-01-28T11:25:16Z</time>
      </trkpt>
      <trkpt lat="47.61325" lon="-2.83352">
        <ele>5</ele>
        <time>2025-01-28T11:25:17Z</time>
      </trkpt>
      <trkpt lat="47.61325" lon="-2.83352">
        <ele>5</ele>
        <time>2025-01-28T11:25:18Z</time>
      </trkpt>
      <trkpt lat="47.61325" lon="-2.83352">
        <ele>5</ele>
        <time>2025-01-28T11:25:19Z</time>
      </trkpt>
      <trkpt lat="47.61325" lon="-2.83352">
        <ele>5</ele>
        <time>2025-01-28T11:25:20Z</time>
      </trkpt>
      <trkpt lat="47.61325" lon="-2.83352">
        <ele>5</ele>
        <time>2025-01-28T11:25:21Z</time>
      </trkpt>
      <trkpt lat="47.61325" lon="-2.83352">
        <ele>5</ele>
        <time>2025-01-28T11:25:22Z</time>
      </trkpt>
      <trkpt lat="47.61325" lon="-2.83352">
        <ele>5</ele>
        <time>2025-01-28T11:25:23Z</time>
      </trkpt>
      <trkpt lat="47.61325" lon="-2.83351">
        <ele>4.9</ele>
        <time>2025-01-28T11:25:24Z</time>
      </trkpt>
      <trkpt lat="47.61324" lon="-2.83352">
        <ele>5</ele>
        <time>2025-01-28T11:25:25Z</time>
      </trkpt>
      <trkpt lat="47.61326" lon="-2.83354">
        <ele>5.7</ele>
        <time>2025-01-28T11:25:26Z</time>
      </trkpt>
      <trkpt lat="47.61327" lon="-2.83354">
        <ele>5.8</ele>
        <time>2025-01-28T11:25:27Z</time>
      </trkpt>
      <trkpt lat="47.61327" lon="-2.83353">
        <ele>5.6</ele>
        <time>2025-01-28T11:25:28Z</time>
      </trkpt>
      <trkpt lat="47.61327" lon="-2.83352">
        <ele>5.5</ele>
        <time>2025-01-28T11:25:29Z</time>
      </trkpt>
      <trkpt lat="47.61327" lon="-2.83352">
        <ele>5.4</ele>
        <time>2025-01-28T11:25:30Z</time>
      </trkpt>
      <trkpt lat="47.61327" lon="-2.83352">
        <ele>5.4</ele>
        <time>2025-01-28T11:25:31Z</time>
      </trkpt>
      <trkpt lat="47.61327" lon="-2.83353">
        <ele>5.5</ele>
        <time>2025-01-28T11:25:32Z</time>
      </trkpt>
      <trkpt lat="47.61327" lon="-2.83353">
        <ele>5.6</ele>
        <time>2025-01-28T11:25:33Z</time>
      </trkpt>
      <trkpt lat="47.61327" lon="-2.83353">
        <ele>5.6</ele>
        <time>2025-01-28T11:25:34Z</time>
      </trkpt>
      <trkpt lat="47.61327" lon="-2.83353">
        <ele>5.6</ele>
        <time>2025-01-28T11:25:35Z</time>
      </trkpt>
      <trkpt lat="47.61327" lon="-2.83353">
        <ele>5.6</ele>
        <time>2025-01-28T11:25:36Z</time>
      </trkpt>
      <trkpt lat="47.61327" lon="-2.83353">
        <ele>5.6</ele>
        <time>2025-01-28T11:25:37Z</time>
      </trkpt>
      <trkpt lat="47.61327" lon="-2.83353">
        <ele>5.6</ele>
        <time>2025-01-28T11:25:38Z</time>
      </trkpt>
      <trkpt lat="47.61327" lon="-2.83353">
        <ele>5.6</ele>
        <time>2025-01-28T11:25:39Z</time>
      </trkpt>
      <trkpt lat="47.61327" lon="-2.83353">
        <ele>5.6</ele>
        <time>2025-01-28T11:25:40Z</time>
      </trkpt>
      <trkpt lat="47.61327" lon="-2.83353">
        <ele>5.6</ele>
        <time>2025-01-28T11:25:41Z</time>
      </trkpt>
      <trkpt lat="47.61327" lon="-2.83353">
        <ele>5.6</ele>
        <time>2025-01-28T11:25:42Z</time>
      </trkpt>
      <trkpt lat="47.61327" lon="-2.83353">
        <ele>5.6</ele>
        <time>2025-01-28T11:25:43Z</time>
      </trkpt>
      <trkpt lat="47.61327" lon="-2.83353">
        <ele>5.6</ele>
        <time>2025-01-28T11:25:44Z</time>
      </trkpt>
      <trkpt lat="47.61327" lon="-2.83353">
        <ele>5.6</ele>
        <time>2025-01-28T11:25:45Z</time>
      </trkpt>
      <trkpt lat="47.61327" lon="-2.83353">
        <ele>5.6</ele>
        <time>2025-01-28T11:25:46Z</time>
      </trkpt>
      <trkpt lat="47.61327" lon="-2.83354">
        <ele>5.9</ele>
        <time>2025-01-28T11:25:47Z</time>
      </trkpt>
      <trkpt lat="47.61327" lon="-2.83354">
        <ele>6</ele>
        <time>2025-01-28T11:25:48Z</time>
      </trkpt>
      <trkpt lat="47.61327" lon="-2.83354">
        <ele>6</ele>
        <time>2025-01-28T11:25:49Z</time>
      </trkpt>
      <trkpt lat="47.61327" lon="-2.83354">
        <ele>6</ele>
        <time>2025-01-28T11:25:50Z</time>
      </trkpt>
      <trkpt lat="47.61327" lon="-2.83354">
        <ele>6</ele>
        <time>2025-01-28T11:25:51Z</time>
      </trkpt>
      <trkpt lat="47.61327" lon="-2.83355">
        <ele>6</ele>
        <time>2025-01-28T11:25:52Z</time>
      </trkpt>
      <trkpt lat="47.61327" lon="-2.83355">
        <ele>6.1</ele>
        <time>2025-01-28T11:25:53Z</time>
      </trkpt>
      <trkpt lat="47.61327" lon="-2.83355">
        <ele>6.1</ele>
        <time>2025-01-28T11:25:54Z</time>
      </trkpt>
      <trkpt lat="47.61327" lon="-2.83355">
        <ele>6.1</ele>
        <time>2025-01-28T11:25:55Z</time>
      </trkpt>
      <trkpt lat="47.61327" lon="-2.83355">
        <ele>6.1</ele>
        <time>2025-01-28T11:25:56Z</time>
      </trkpt>
      <trkpt lat="47.61327" lon="-2.83355">
        <ele>6.1</ele>
        <time>2025-01-28T11:25:57Z</time>
      </trkpt>
      <trkpt lat="47.61327" lon="-2.83355">
        <ele>6.1</ele>
        <time>2025-01-28T11:25:58Z</time>
      </trkpt>
      <trkpt lat="47.61327" lon="-2.83355">
        <ele>6.1</ele>
        <time>2025-01-28T11:25:59Z</time>
      </trkpt>
      <trkpt lat="47.61327" lon="-2.83355">
        <ele>6.1</ele>
        <time>2025-01-28T11:26:00Z</time>
      </trkpt>
      <trkpt lat="47.61327" lon="-2.83355">
        <ele>6.1</ele>
        <time>2025-01-28T11:26:01Z</time>
      </trkpt>
      <trkpt lat="47.61327" lon="-2.83355">
        <ele>6.1</ele>
        <time>2025-01-28T11:26:02Z</time>
      </trkpt>
      <trkpt lat="47.61327" lon="-2.83355">
        <ele>6.1</ele>
        <time>2025-01-28T11:26:03Z</time>
      </trkpt>
      <trkpt lat="47.61327" lon="-2.83355">
        <ele>6.1</ele>
        <time>2025-01-28T11:26:04Z</time>
      </trkpt>
      <trkpt lat="47.61327" lon="-2.83355">
        <ele>6.1</ele>
        <time>2025-01-28T11:26:05Z</time>
      </trkpt>
      <trkpt lat="47.61327" lon="-2.83355">
        <ele>6.1</ele>
        <time>2025-01-28T11:26:06Z</time>
      </trkpt>
      <trkpt lat="47.61327" lon="-2.83355">
        <ele>6.1</ele>
        <time>2025-01-28T11:26:07Z</time>
      </trkpt>
      <trkpt lat="47.61327" lon="-2.83355">
        <ele>6.1</ele>
        <time>2025-01-28T11:26:08Z</time>
      </trkpt>
      <trkpt lat="47.61327" lon="-2.83355">
        <ele>6.1</ele>
        <time>2025-01-28T11:26:09Z</time>
      </trkpt>
      <trkpt lat="47.61327" lon="-2.83355">
        <ele>6.1</ele>
        <time>2025-01-28T11:26:10Z</time>
      </trkpt>
      <trkpt lat="47.61327" lon="-2.83355">
        <ele>6</ele>
        <time>2025-01-28T11:26:11Z</time>
      </trkpt>
      <trkpt lat="47.61327" lon="-2.83355">
        <ele>6</ele>
        <time>2025-01-28T11:26:12Z</time>
      </trkpt>
      <trkpt lat="47.61327" lon="-2.83355">
        <ele>6</ele>
        <time>2025-01-28T11:26:13Z</time>
      </trkpt>
      <trkpt lat="47.61327" lon="-2.83355">
        <ele>6</ele>
        <time>2025-01-28T11:26:14Z</time>
      </trkpt>
      <trkpt lat="47.61327" lon="-2.83355">
        <ele>6</ele>
        <time>2025-01-28T11:26:15Z</time>
      </trkpt>
      <trkpt lat="47.61327" lon="-2.83355">
        <ele>6</ele>
        <time>2025-01-28T11:26:16Z</time>
      </trkpt>
      <trkpt lat="47.61327" lon="-2.83355">
        <ele>6</ele>
        <time>2025-01-28T11:26:17Z</time>
      </trkpt>
      <trkpt lat="47.61327" lon="-2.83355">
        <ele>6</ele>
        <time>2025-01-28T11:26:18Z</time>
      </trkpt>
      <trkpt lat="47.61327" lon="-2.83355">
        <ele>6.1</ele>
        <time>2025-01-28T11:26:19Z</time>
      </trkpt>
      <trkpt lat="47.61327" lon="-2.83355">
        <ele>6.1</ele>
        <time>2025-01-28T11:26:20Z</time>
      </trkpt>
      <trkpt lat="47.61327" lon="-2.83355">
        <ele>6.1</ele>
        <time>2025-01-28T11:26:21Z</time>
      </trkpt>
      <trkpt lat="47.61327" lon="-2.83355">
        <ele>6.1</ele>
        <time>2025-01-28T11:26:22Z</time>
      </trkpt>
      <trkpt lat="47.61327" lon="-2.83355">
        <ele>6.1</ele>
        <time>2025-01-28T11:26:23Z</time>
      </trkpt>
      <trkpt lat="47.61327" lon="-2.83355">
        <ele>6.1</ele>
        <time>2025-01-28T11:26:24Z</time>
      </trkpt>
      <trkpt lat="47.61327" lon="-2.83355">
        <ele>6.1</ele>
        <time>2025-01-28T11:26:25Z</time>
      </trkpt>
      <trkpt lat="47.61327" lon="-2.83355">
        <ele>6.1</ele>
        <time>2025-01-28T11:26:26Z</time>
      </trkpt>
      <trkpt lat="47.61327" lon="-2.83355">
        <ele>6.1</ele>
        <time>2025-01-28T11:26:27Z</time>
      </trkpt>
      <trkpt lat="47.61327" lon="-2.83355">
        <ele>6.1</ele>
        <time>2025-01-28T11:26:28Z</time>
      </trkpt>
      <trkpt lat="47.61327" lon="-2.83355">
        <ele>6.1</ele>
        <time>2025-01-28T11:26:29Z</time>
      </trkpt>
      <trkpt lat="47.61327" lon="-2.83355">
        <ele>6.1</ele>
        <time>2025-01-28T11:26:30Z</time>
      </trkpt>
      <trkpt lat="47.61327" lon="-2.83355">
        <ele>6.1</ele>
        <time>2025-01-28T11:26:31Z</time>
      </trkpt>
      <trkpt lat="47.61327" lon="-2.83355">
        <ele>6.1</ele>
        <time>2025-01-28T11:26:32Z</time>
      </trkpt>
      <trkpt lat="47.61327" lon="-2.83355">
        <ele>6.1</ele>
        <time>2025-01-28T11:26:33Z</time>
      </trkpt>
      <trkpt lat="47.61327" lon="-2.83355">
        <ele>6.1</ele>
        <time>2025-01-28T11:26:34Z</time>
      </trkpt>
      <trkpt lat="47.61327" lon="-2.83355">
        <ele>6</ele>
        <time>2025-01-28T11:26:35Z</time>
      </trkpt>
      <trkpt lat="47.61327" lon="-2.83354">
        <ele>5.8</ele>
        <time>2025-01-28T11:26:36Z</time>
      </trkpt>
      <trkpt lat="47.61327" lon="-2.83354">
        <ele>5.7</ele>
        <time>2025-01-28T11:26:37Z</time>
      </trkpt>
      <trkpt lat="47.61326" lon="-2.83354">
        <ele>5.7</ele>
        <time>2025-01-28T11:26:38Z</time>
      </trkpt>
      <trkpt lat="47.61326" lon="-2.83354">
        <ele>5.7</ele>
        <time>2025-01-28T11:26:39Z</time>
      </trkpt>
      <trkpt lat="47.61326" lon="-2.83354">
        <ele>5.7</ele>
        <time>2025-01-28T11:26:40Z</time>
      </trkpt>
      <trkpt lat="47.61326" lon="-2.83354">
        <ele>5.7</ele>
        <time>2025-01-28T11:26:41Z</time>
      </trkpt>
      <trkpt lat="47.61326" lon="-2.83354">
        <ele>5.7</ele>
        <time>2025-01-28T11:26:42Z</time>
      </trkpt>
      <trkpt lat="47.61327" lon="-2.83354">
        <ele>5.7</ele>
        <time>2025-01-28T11:26:43Z</time>
      </trkpt>
      <trkpt lat="47.61326" lon="-2.83354">
        <ele>5.7</ele>
        <time>2025-01-28T11:26:44Z</time>
      </trkpt>
      <trkpt lat="47.61327" lon="-2.83354">
        <ele>5.8</ele>
        <time>2025-01-28T11:26:45Z</time>
      </trkpt>
      <trkpt lat="47.61327" lon="-2.83354">
        <ele>5.8</ele>
        <time>2025-01-28T11:26:46Z</time>
      </trkpt>
      <trkpt lat="47.61327" lon="-2.83354">
        <ele>5.8</ele>
        <time>2025-01-28T11:26:47Z</time>
      </trkpt>
      <trkpt lat="47.61327" lon="-2.83354">
        <ele>5.8</ele>
        <time>2025-01-28T11:26:48Z</time>
      </trkpt>
      <trkpt lat="47.61326" lon="-2.83354">
        <ele>5.6</ele>
        <time>2025-01-28T11:26:49Z</time>
      </trkpt>
      <trkpt lat="47.61326" lon="-2.83354">
        <ele>5.4</ele>
        <time>2025-01-28T11:26:50Z</time>
      </trkpt>
      <trkpt lat="47.61326" lon="-2.83353">
        <ele>5.4</ele>
        <time>2025-01-28T11:26:51Z</time>
      </trkpt>
      <trkpt lat="47.61326" lon="-2.83353">
        <ele>5.4</ele>
        <time>2025-01-28T11:26:52Z</time>
      </trkpt>
      <trkpt lat="47.61326" lon="-2.83353">
        <ele>5.4</ele>
        <time>2025-01-28T11:26:53Z</time>
      </trkpt>
      <trkpt lat="47.61325" lon="-2.83353">
        <ele>5.3</ele>
        <time>2025-01-28T11:26:54Z</time>
      </trkpt>
      <trkpt lat="47.61325" lon="-2.83353">
        <ele>5.3</ele>
        <time>2025-01-28T11:26:55Z</time>
      </trkpt>
      <trkpt lat="47.61325" lon="-2.83353">
        <ele>5.3</ele>
        <time>2025-01-28T11:26:56Z</time>
      </trkpt>
      <trkpt lat="47.61325" lon="-2.83353">
        <ele>5.3</ele>
        <time>2025-01-28T11:26:57Z</time>
      </trkpt>
      <trkpt lat="47.61325" lon="-2.83353">
        <ele>5.3</ele>
        <time>2025-01-28T11:26:58Z</time>
      </trkpt>
      <trkpt lat="47.61325" lon="-2.83353">
        <ele>5.3</ele>
        <time>2025-01-28T11:26:59Z</time>
      </trkpt>
      <trkpt lat="47.61325" lon="-2.83353">
        <ele>5.3</ele>
        <time>2025-01-28T11:27:00Z</time>
      </trkpt>
      <trkpt lat="47.61325" lon="-2.83353">
        <ele>5.3</ele>
        <time>2025-01-28T11:27:01Z</time>
      </trkpt>
      <trkpt lat="47.61325" lon="-2.83353">
        <ele>5.3</ele>
        <time>2025-01-28T11:27:02Z</time>
      </trkpt>
      <trkpt lat="47.61325" lon="-2.83353">
        <ele>5.3</ele>
        <time>2025-01-28T11:27:03Z</time>
      </trkpt>
      <trkpt lat="47.61325" lon="-2.83353">
        <ele>5.3</ele>
        <time>2025-01-28T11:27:04Z</time>
      </trkpt>
      <trkpt lat="47.61325" lon="-2.83353">
        <ele>5.3</ele>
        <time>2025-01-28T11:27:05Z</time>
      </trkpt>
      <trkpt lat="47.61325" lon="-2.83353">
        <ele>5.3</ele>
        <time>2025-01-28T11:27:06Z</time>
      </trkpt>
      <trkpt lat="47.61325" lon="-2.83353">
        <ele>5.3</ele>
        <time>2025-01-28T11:27:07Z</time>
      </trkpt>
      <trkpt lat="47.61325" lon="-2.83353">
        <ele>5.3</ele>
        <time>2025-01-28T11:27:08Z</time>
      </trkpt>
      <trkpt lat="47.61325" lon="-2.83353">
        <ele>5.3</ele>
        <time>2025-01-28T11:27:09Z</time>
      </trkpt>
      <trkpt lat="47.61325" lon="-2.83353">
        <ele>5.3</ele>
        <time>2025-01-28T11:27:10Z</time>
      </trkpt>
      <trkpt lat="47.61325" lon="-2.83353">
        <ele>5.3</ele>
        <time>2025-01-28T11:27:11Z</time>
      </trkpt>
      <trkpt lat="47.61325" lon="-2.83353">
        <ele>5.2</ele>
        <time>2025-01-28T11:27:12Z</time>
      </trkpt>
      <trkpt lat="47.61325" lon="-2.83353">
        <ele>5.2</ele>
        <time>2025-01-28T11:27:13Z</time>
      </trkpt>
      <trkpt lat="47.61325" lon="-2.83353">
        <ele>5.2</ele>
        <time>2025-01-28T11:27:14Z</time>
      </trkpt>
      <trkpt lat="47.61325" lon="-2.83353">
        <ele>5.2</ele>
        <time>2025-01-28T11:27:15Z</time>
      </trkpt>
      <trkpt lat="47.61325" lon="-2.83353">
        <ele>5.2</ele>
        <time>2025-01-28T11:27:16Z</time>
      </trkpt>
      <trkpt lat="47.61325" lon="-2.83353">
        <ele>5.2</ele>
        <time>2025-01-28T11:27:17Z</time>
      </trkpt>
      <trkpt lat="47.61325" lon="-2.83353">
        <ele>5.2</ele>
        <time>2025-01-28T11:27:18Z</time>
      </trkpt>
      <trkpt lat="47.61325" lon="-2.83353">
        <ele>5.2</ele>
        <time>2025-01-28T11:27:19Z</time>
      </trkpt>
      <trkpt lat="47.61325" lon="-2.83353">
        <ele>5.2</ele>
        <time>2025-01-28T11:27:20Z</time>
      </trkpt>
      <trkpt lat="47.61325" lon="-2.83353">
        <ele>5.2</ele>
        <time>2025-01-28T11:27:21Z</time>
      </trkpt>
      <trkpt lat="47.61325" lon="-2.83353">
        <ele>5.2</ele>
        <time>2025-01-28T11:27:22Z</time>
      </trkpt>
      <trkpt lat="47.61325" lon="-2.83353">
        <ele>5.2</ele>
        <time>2025-01-28T11:27:23Z</time>
      </trkpt>
      <trkpt lat="47.61325" lon="-2.83353">
        <ele>5.2</ele>
        <time>2025-01-28T11:27:24Z</time>
      </trkpt>
      <trkpt lat="47.61325" lon="-2.83353">
        <ele>5.2</ele>
        <time>2025-01-28T11:27:25Z</time>
      </trkpt>
      <trkpt lat="47.61325" lon="-2.83353">
        <ele>5.2</ele>
        <time>2025-01-28T11:27:26Z</time>
      </trkpt>
      <trkpt lat="47.61325" lon="-2.83353">
        <ele>5.2</ele>
        <time>2025-01-28T11:27:27Z</time>
      </trkpt>
      <trkpt lat="47.61324" lon="-2.83353">
        <ele>5</ele>
        <time>2025-01-28T11:27:28Z</time>
      </trkpt>
      <trkpt lat="47.61324" lon="-2.83353">
        <ele>5</ele>
        <time>2025-01-28T11:27:29Z</time>
      </trkpt>
      <trkpt lat="47.61324" lon="-2.83353">
        <ele>5</ele>
        <time>2025-01-28T11:27:30Z</time>
      </trkpt>
      <trkpt lat="47.61324" lon="-2.83353">
        <ele>5</ele>
        <time>2025-01-28T11:27:31Z</time>
      </trkpt>
      <trkpt lat="47.61324" lon="-2.83353">
        <ele>5</ele>
        <time>2025-01-28T11:27:32Z</time>
      </trkpt>
      <trkpt lat="47.61324" lon="-2.83353">
        <ele>5</ele>
        <time>2025-01-28T11:27:33Z</time>
      </trkpt>
      <trkpt lat="47.61324" lon="-2.83353">
        <ele>5</ele>
        <time>2025-01-28T11:27:34Z</time>
      </trkpt>
      <trkpt lat="47.61324" lon="-2.83353">
        <ele>5</ele>
        <time>2025-01-28T11:27:35Z</time>
      </trkpt>
      <trkpt lat="47.61324" lon="-2.83353">
        <ele>5.1</ele>
        <time>2025-01-28T11:27:36Z</time>
      </trkpt>
      <trkpt lat="47.61324" lon="-2.83353">
        <ele>5.1</ele>
        <time>2025-01-28T11:27:37Z</time>
      </trkpt>
      <trkpt lat="47.61324" lon="-2.83353">
        <ele>5.1</ele>
        <time>2025-01-28T11:27:38Z</time>
      </trkpt>
      <trkpt lat="47.61324" lon="-2.83353">
        <ele>5.1</ele>
        <time>2025-01-28T11:27:39Z</time>
      </trkpt>
      <trkpt lat="47.61324" lon="-2.83353">
        <ele>5.1</ele>
        <time>2025-01-28T11:27:40Z</time>
      </trkpt>
      <trkpt lat="47.61324" lon="-2.83353">
        <ele>5.1</ele>
        <time>2025-01-28T11:27:41Z</time>
      </trkpt>
      <trkpt lat="47.61324" lon="-2.83353">
        <ele>5.1</ele>
        <time>2025-01-28T11:27:42Z</time>
      </trkpt>
      <trkpt lat="47.61324" lon="-2.83353">
        <ele>5.1</ele>
        <time>2025-01-28T11:27:43Z</time>
      </trkpt>
      <trkpt lat="47.61324" lon="-2.83353">
        <ele>5.1</ele>
        <time>2025-01-28T11:27:44Z</time>
      </trkpt>
      <trkpt lat="47.61324" lon="-2.83353">
        <ele>5.1</ele>
        <time>2025-01-28T11:27:45Z</time>
      </trkpt>
      <trkpt lat="47.61324" lon="-2.83353">
        <ele>5.1</ele>
        <time>2025-01-28T11:27:46Z</time>
      </trkpt>
      <trkpt lat="47.61324" lon="-2.83353">
        <ele>5.1</ele>
        <time>2025-01-28T11:27:47Z</time>
      </trkpt>
      <trkpt lat="47.61324" lon="-2.83353">
        <ele>5.1</ele>
        <time>2025-01-28T11:27:48Z</time>
      </trkpt>
      <trkpt lat="47.61324" lon="-2.83353">
        <ele>5.1</ele>
        <time>2025-01-28T11:27:49Z</time>
      </trkpt>
      <trkpt lat="47.61324" lon="-2.83353">
        <ele>5.1</ele>
        <time>2025-01-28T11:27:50Z</time>
      </trkpt>
      <trkpt lat="47.61324" lon="-2.83353">
        <ele>5.1</ele>
        <time>2025-01-28T11:27:51Z</time>
      </trkpt>
      <trkpt lat="47.61324" lon="-2.83353">
        <ele>5.1</ele>
        <time>2025-01-28T11:27:52Z</time>
      </trkpt>
      <trkpt lat="47.61324" lon="-2.83353">
        <ele>5.1</ele>
        <time>2025-01-28T11:27:53Z</time>
      </trkpt>
      <trkpt lat="47.61324" lon="-2.83353">
        <ele>5.1</ele>
        <time>2025-01-28T11:27:54Z</time>
      </trkpt>
      <trkpt lat="47.61324" lon="-2.83353">
        <ele>5.1</ele>
        <time>2025-01-28T11:27:55Z</time>
      </trkpt>
      <trkpt lat="47.61324" lon="-2.83353">
        <ele>5.1</ele>
        <time>2025-01-28T11:27:56Z</time>
      </trkpt>
      <trkpt lat="47.61324" lon="-2.83353">
        <ele>5.1</ele>
        <time>2025-01-28T11:27:57Z</time>
      </trkpt>
      <trkpt lat="47.61324" lon="-2.83353">
        <ele>5.1</ele>
        <time>2025-01-28T11:27:58Z</time>
      </trkpt>
      <trkpt lat="47.61324" lon="-2.83353">
        <ele>5.1</ele>
        <time>2025-01-28T11:27:59Z</time>
      </trkpt>
      <trkpt lat="47.61324" lon="-2.83353">
        <ele>5.1</ele>
        <time>2025-01-28T11:28:00Z</time>
      </trkpt>
      <trkpt lat="47.61324" lon="-2.83353">
        <ele>5.1</ele>
        <time>2025-01-28T11:28:01Z</time>
      </trkpt>
      <trkpt lat="47.61324" lon="-2.83353">
        <ele>5.1</ele>
        <time>2025-01-28T11:28:02Z</time>
      </trkpt>
      <trkpt lat="47.61324" lon="-2.83353">
        <ele>5</ele>
        <time>2025-01-28T11:28:03Z</time>
      </trkpt>
      <trkpt lat="47.61324" lon="-2.83353">
        <ele>5.1</ele>
        <time>2025-01-28T11:28:04Z</time>
      </trkpt>
      <trkpt lat="47.61324" lon="-2.83353">
        <ele>5</ele>
        <time>2025-01-28T11:28:05Z</time>
      </trkpt>
      <trkpt lat="47.61324" lon="-2.83353">
        <ele>5</ele>
        <time>2025-01-28T11:28:06Z</time>
      </trkpt>
      <trkpt lat="47.61324" lon="-2.83353">
        <ele>5</ele>
        <time>2025-01-28T11:28:07Z</time>
      </trkpt>
      <trkpt lat="47.61324" lon="-2.83353">
        <ele>5</ele>
        <time>2025-01-28T11:28:08Z</time>
      </trkpt>
      <trkpt lat="47.61324" lon="-2.83353">
        <ele>5</ele>
        <time>2025-01-28T11:28:09Z</time>
      </trkpt>
      <trkpt lat="47.61324" lon="-2.83353">
        <ele>5</ele>
        <time>2025-01-28T11:28:10Z</time>
      </trkpt>
      <trkpt lat="47.61324" lon="-2.83353">
        <ele>5</ele>
        <time>2025-01-28T11:28:11Z</time>
      </trkpt>
      <trkpt lat="47.61324" lon="-2.83353">
        <ele>5</ele>
        <time>2025-01-28T11:28:12Z</time>
      </trkpt>
      <trkpt lat="47.61324" lon="-2.83353">
        <ele>5</ele>
        <time>2025-01-28T11:28:13Z</time>
      </trkpt>
      <trkpt lat="47.61324" lon="-2.83353">
        <ele>5</ele>
        <time>2025-01-28T11:28:14Z</time>
      </trkpt>
      <trkpt lat="47.61324" lon="-2.83353">
        <ele>5</ele>
        <time>2025-01-28T11:28:15Z</time>
      </trkpt>
      <trkpt lat="47.61324" lon="-2.83353">
        <ele>5</ele>
        <time>2025-01-28T11:28:16Z</time>
      </trkpt>
      <trkpt lat="47.61324" lon="-2.83353">
        <ele>5</ele>
        <time>2025-01-28T11:28:17Z</time>
      </trkpt>
      <trkpt lat="47.61324" lon="-2.83353">
        <ele>5</ele>
        <time>2025-01-28T11:28:18Z</time>
      </trkpt>
      <trkpt lat="47.61324" lon="-2.83353">
        <ele>5</ele>
        <time>2025-01-28T11:28:19Z</time>
      </trkpt>
      <trkpt lat="47.61324" lon="-2.83353">
        <ele>5</ele>
        <time>2025-01-28T11:28:20Z</time>
      </trkpt>
      <trkpt lat="47.61324" lon="-2.83353">
        <ele>5</ele>
        <time>2025-01-28T11:28:21Z</time>
      </trkpt>
      <trkpt lat="47.61324" lon="-2.83353">
        <ele>5</ele>
        <time>2025-01-28T11:28:22Z</time>
      </trkpt>
      <trkpt lat="47.61324" lon="-2.83353">
        <ele>5</ele>
        <time>2025-01-28T11:28:23Z</time>
      </trkpt>
      <trkpt lat="47.61324" lon="-2.83353">
        <ele>5</ele>
        <time>2025-01-28T11:28:24Z</time>
      </trkpt>
      <trkpt lat="47.61324" lon="-2.83353">
        <ele>5</ele>
        <time>2025-01-28T11:28:25Z</time>
      </trkpt>
      <trkpt lat="47.61324" lon="-2.83353">
        <ele>5</ele>
        <time>2025-01-28T11:28:26Z</time>
      </trkpt>
      <trkpt lat="47.61324" lon="-2.83353">
        <ele>5</ele>
        <time>2025-01-28T11:28:27Z</time>
      </trkpt>
      <trkpt lat="47.61324" lon="-2.83353">
        <ele>5</ele>
        <time>2025-01-28T11:28:28Z</time>
      </trkpt>
      <trkpt lat="47.61324" lon="-2.83353">
        <ele>5</ele>
        <time>2025-01-28T11:28:29Z</time>
      </trkpt>
      <trkpt lat="47.61324" lon="-2.83353">
        <ele>5</ele>
        <time>2025-01-28T11:28:30Z</time>
      </trkpt>
      <trkpt lat="47.61324" lon="-2.83353">
        <ele>5</ele>
        <time>2025-01-28T11:28:31Z</time>
      </trkpt>
      <trkpt lat="47.61324" lon="-2.83353">
        <ele>5</ele>
        <time>2025-01-28T11:28:32Z</time>
      </trkpt>
      <trkpt lat="47.61324" lon="-2.83353">
        <ele>5</ele>
        <time>2025-01-28T11:28:33Z</time>
      </trkpt>
      <trkpt lat="47.61324" lon="-2.83353">
        <ele>5</ele>
        <time>2025-01-28T11:28:34Z</time>
      </trkpt>
      <trkpt lat="47.61324" lon="-2.83353">
        <ele>5</ele>
        <time>2025-01-28T11:28:35Z</time>
      </trkpt>
      <trkpt lat="47.61324" lon="-2.83353">
        <ele>5</ele>
        <time>2025-01-28T11:28:36Z</time>
      </trkpt>
      <trkpt lat="47.61324" lon="-2.83353">
        <ele>5</ele>
        <time>2025-01-28T11:28:37Z</time>
      </trkpt>
      <trkpt lat="47.61324" lon="-2.83353">
        <ele>5</ele>
        <time>2025-01-28T11:28:38Z</time>
      </trkpt>
      <trkpt lat="47.61324" lon="-2.83353">
        <ele>5</ele>
        <time>2025-01-28T11:28:39Z</time>
      </trkpt>
      <trkpt lat="47.61324" lon="-2.83353">
        <ele>5</ele>
        <time>2025-01-28T11:28:40Z</time>
      </trkpt>
      <trkpt lat="47.61324" lon="-2.83353">
        <ele>5</ele>
        <time>2025-01-28T11:28:41Z</time>
      </trkpt>
      <trkpt lat="47.61324" lon="-2.83353">
        <ele>5</ele>
        <time>2025-01-28T11:28:42Z</time>
      </trkpt>
      <trkpt lat="47.61324" lon="-2.83353">
        <ele>5</ele>
        <time>2025-01-28T11:28:43Z</time>
      </trkpt>
      <trkpt lat="47.61324" lon="-2.83353">
        <ele>5</ele>
        <time>2025-01-28T11:28:44Z</time>
      </trkpt>
      <trkpt lat="47.61324" lon="-2.83353">
        <ele>5</ele>
        <time>2025-01-28T11:28:45Z</time>
      </trkpt>
      <trkpt lat="47.61324" lon="-2.83353">
        <ele>5</ele>
        <time>2025-01-28T11:28:46Z</time>
      </trkpt>
      <trkpt lat="47.61324" lon="-2.83353">
        <ele>5</ele>
        <time>2025-01-28T11:28:47Z</time>
      </trkpt>
      <trkpt lat="47.61324" lon="-2.83353">
        <ele>5</ele>
        <time>2025-01-28T11:28:48Z</time>
      </trkpt>
      <trkpt lat="47.61324" lon="-2.83353">
        <ele>5</ele>
        <time>2025-01-28T11:28:49Z</time>
      </trkpt>
      <trkpt lat="47.61324" lon="-2.83353">
        <ele>5</ele>
        <time>2025-01-28T11:28:50Z</time>
      </trkpt>
      <trkpt lat="47.61324" lon="-2.83353">
        <ele>5</ele>
        <time>2025-01-28T11:28:51Z</time>
      </trkpt>
      <trkpt lat="47.61324" lon="-2.83353">
        <ele>5</ele>
        <time>2025-01-28T11:28:52Z</time>
      </trkpt>
      <trkpt lat="47.61324" lon="-2.83353">
        <ele>5</ele>
        <time>2025-01-28T11:28:53Z</time>
      </trkpt>
      <trkpt lat="47.61324" lon="-2.83353">
        <ele>5</ele>
        <time>2025-01-28T11:28:54Z</time>
      </trkpt>
      <trkpt lat="47.61324" lon="-2.83353">
        <ele>5</ele>
        <time>2025-01-28T11:28:55Z</time>
      </trkpt>
      <trkpt lat="47.61324" lon="-2.83353">
        <ele>5</ele>
        <time>2025-01-28T11:28:56Z</time>
      </trkpt>
      <trkpt lat="47.61324" lon="-2.83353">
        <ele>5</ele>
        <time>2025-01-28T11:28:57Z</time>
      </trkpt>
      <trkpt lat="47.61324" lon="-2.83353">
        <ele>5</ele>
        <time>2025-01-28T11:28:58Z</time>
      </trkpt>
      <trkpt lat="47.61324" lon="-2.83353">
        <ele>5</ele>
        <time>2025-01-28T11:28:59Z</time>
      </trkpt>
      <trkpt lat="47.61324" lon="-2.83353">
        <ele>5</ele>
        <time>2025-01-28T11:29:00Z</time>
      </trkpt>
      <trkpt lat="47.61324" lon="-2.83353">
        <ele>5</ele>
        <time>2025-01-28T11:29:01Z</time>
      </trkpt>
      <trkpt lat="47.61324" lon="-2.83353">
        <ele>5</ele>
        <time>2025-01-28T11:29:02Z</time>
      </trkpt>
      <trkpt lat="47.61324" lon="-2.83353">
        <ele>5</ele>
        <time>2025-01-28T11:29:03Z</time>
      </trkpt>
      <trkpt lat="47.61324" lon="-2.83353">
        <ele>5</ele>
        <time>2025-01-28T11:29:04Z</time>
      </trkpt>
      <trkpt lat="47.61324" lon="-2.83353">
        <ele>5</ele>
        <time>2025-01-28T11:29:05Z</time>
      </trkpt>
      <trkpt lat="47.61324" lon="-2.83353">
        <ele>5</ele>
        <time>2025-01-28T11:29:06Z</time>
      </trkpt>
      <trkpt lat="47.61324" lon="-2.83353">
        <ele>5</ele>
        <time>2025-01-28T11:29:07Z</time>
      </trkpt>
      <trkpt lat="47.61324" lon="-2.83353">
        <ele>5</ele>
        <time>2025-01-28T11:29:08Z</time>
      </trkpt>
      <trkpt lat="47.61324" lon="-2.83353">
        <ele>5</ele>
        <time>2025-01-28T11:29:09Z</time>
      </trkpt>
      <trkpt lat="47.61324" lon="-2.83353">
        <ele>5</ele>
        <time>2025-01-28T11:29:10Z</time>
      </trkpt>
      <trkpt lat="47.61324" lon="-2.83353">
        <ele>5</ele>
        <time>2025-01-28T11:29:11Z</time>
      </trkpt>
      <trkpt lat="47.61324" lon="-2.83353">
        <ele>5</ele>
        <time>2025-01-28T11:29:12Z</time>
      </trkpt>
      <trkpt lat="47.61324" lon="-2.83353">
        <ele>5</ele>
        <time>2025-01-28T11:29:13Z</time>
      </trkpt>
      <trkpt lat="47.61324" lon="-2.83353">
        <ele>5</ele>
        <time>2025-01-28T11:29:14Z</time>
      </trkpt>
      <trkpt lat="47.61324" lon="-2.83353">
        <ele>5</ele>
        <time>2025-01-28T11:29:15Z</time>
      </trkpt>
      <trkpt lat="47.61324" lon="-2.83353">
        <ele>5</ele>
        <time>2025-01-28T11:29:16Z</time>
      </trkpt>
      <trkpt lat="47.61324" lon="-2.83353">
        <ele>5</ele>
        <time>2025-01-28T11:29:17Z</time>
      </trkpt>
      <trkpt lat="47.61324" lon="-2.83353">
        <ele>5</ele>
        <time>2025-01-28T11:29:18Z</time>
      </trkpt>
      <trkpt lat="47.61324" lon="-2.83353">
        <ele>5</ele>
        <time>2025-01-28T11:29:19Z</time>
      </trkpt>
      <trkpt lat="47.61324" lon="-2.83353">
        <ele>5</ele>
        <time>2025-01-28T11:29:20Z</time>
      </trkpt>
      <trkpt lat="47.61324" lon="-2.83353">
        <ele>5</ele>
        <time>2025-01-28T11:29:21Z</time>
      </trkpt>
      <trkpt lat="47.61324" lon="-2.83353">
        <ele>5</ele>
        <time>2025-01-28T11:29:22Z</time>
      </trkpt>
      <trkpt lat="47.61324" lon="-2.83353">
        <ele>5</ele>
        <time>2025-01-28T11:29:23Z</time>
      </trkpt>
      <trkpt lat="47.61324" lon="-2.83353">
        <ele>5</ele>
        <time>2025-01-28T11:29:24Z</time>
      </trkpt>
      <trkpt lat="47.61324" lon="-2.83353">
        <ele>5</ele>
        <time>2025-01-28T11:29:25Z</time>
      </trkpt>
      <trkpt lat="47.61324" lon="-2.83353">
        <ele>5</ele>
        <time>2025-01-28T11:29:26Z</time>
      </trkpt>
      <trkpt lat="47.61324" lon="-2.83353">
        <ele>5</ele>
        <time>2025-01-28T11:29:27Z</time>
      </trkpt>
      <trkpt lat="47.61324" lon="-2.83353">
        <ele>5</ele>
        <time>2025-01-28T11:29:28Z</time>
      </trkpt>
      <trkpt lat="47.61324" lon="-2.83353">
        <ele>5</ele>
        <time>2025-01-28T11:29:29Z</time>
      </trkpt>
      <trkpt lat="47.61324" lon="-2.83353">
        <ele>5</ele>
        <time>2025-01-28T11:29:30Z</time>
      </trkpt>
      <trkpt lat="47.61324" lon="-2.83353">
        <ele>5</ele>
        <time>2025-01-28T11:29:31Z</time>
      </trkpt>
      <trkpt lat="47.61324" lon="-2.83353">
        <ele>5</ele>
        <time>2025-01-28T11:29:32Z</time>
      </trkpt>
      <trkpt lat="47.61324" lon="-2.83353">
        <ele>5</ele>
        <time>2025-01-28T11:29:33Z</time>
      </trkpt>
      <trkpt lat="47.61324" lon="-2.83353">
        <ele>5</ele>
        <time>2025-01-28T11:29:34Z</time>
      </trkpt>
      <trkpt lat="47.61324" lon="-2.83353">
        <ele>5</ele>
        <time>2025-01-28T11:29:35Z</time>
      </trkpt>
      <trkpt lat="47.61324" lon="-2.83352">
        <ele>5</ele>
        <time>2025-01-28T11:29:36Z</time>
      </trkpt>
      <trkpt lat="47.61324" lon="-2.83352">
        <ele>5</ele>
        <time>2025-01-28T11:29:37Z</time>
      </trkpt>
      <trkpt lat="47.61324" lon="-2.83352">
        <ele>5</ele>
        <time>2025-01-28T11:29:38Z</time>
      </trkpt>
      <trkpt lat="47.61324" lon="-2.83352">
        <ele>5</ele>
        <time>2025-01-28T11:29:39Z</time>
      </trkpt>
      <trkpt lat="47.61324" lon="-2.83352">
        <ele>5</ele>
        <time>2025-01-28T11:29:40Z</time>
      </trkpt>
      <trkpt lat="47.61324" lon="-2.83352">
        <ele>5</ele>
        <time>2025-01-28T11:29:41Z</time>
      </trkpt>
      <trkpt lat="47.61324" lon="-2.83352">
        <ele>4.9</ele>
        <time>2025-01-28T11:29:42Z</time>
      </trkpt>
      <trkpt lat="47.61324" lon="-2.83352">
        <ele>4.9</ele>
        <time>2025-01-28T11:29:43Z</time>
      </trkpt>
      <trkpt lat="47.61324" lon="-2.83352">
        <ele>4.9</ele>
        <time>2025-01-28T11:29:44Z</time>
      </trkpt>
      <trkpt lat="47.61324" lon="-2.83352">
        <ele>5</ele>
        <time>2025-01-28T11:29:45Z</time>
      </trkpt>
      <trkpt lat="47.61324" lon="-2.83352">
        <ele>5</ele>
        <time>2025-01-28T11:29:46Z</time>
      </trkpt>
      <trkpt lat="47.61324" lon="-2.83352">
        <ele>5</ele>
        <time>2025-01-28T11:29:47Z</time>
      </trkpt>
      <trkpt lat="47.61324" lon="-2.83352">
        <ele>5</ele>
        <time>2025-01-28T11:29:48Z</time>
      </trkpt>
      <trkpt lat="47.61324" lon="-2.83352">
        <ele>5</ele>
        <time>2025-01-28T11:29:49Z</time>
      </trkpt>
      <trkpt lat="47.61324" lon="-2.83352">
        <ele>5</ele>
        <time>2025-01-28T11:29:50Z</time>
      </trkpt>
      <trkpt lat="47.61324" lon="-2.83352">
        <ele>5</ele>
        <time>2025-01-28T11:29:51Z</time>
      </trkpt>
      <trkpt lat="47.61324" lon="-2.83352">
        <ele>4.9</ele>
        <time>2025-01-28T11:29:52Z</time>
      </trkpt>
      <trkpt lat="47.61324" lon="-2.83352">
        <ele>4.9</ele>
        <time>2025-01-28T11:29:53Z</time>
      </trkpt>
      <trkpt lat="47.61324" lon="-2.83352">
        <ele>4.9</ele>
        <time>2025-01-28T11:29:54Z</time>
      </trkpt>
      <trkpt lat="47.61324" lon="-2.83352">
        <ele>4.9</ele>
        <time>2025-01-28T11:29:55Z</time>
      </trkpt>
      <trkpt lat="47.61324" lon="-2.83352">
        <ele>4.9</ele>
        <time>2025-01-28T11:29:56Z</time>
      </trkpt>
      <trkpt lat="47.61324" lon="-2.83352">
        <ele>4.9</ele>
        <time>2025-01-28T11:29:57Z</time>
      </trkpt>
      <trkpt lat="47.61324" lon="-2.83352">
        <ele>4.9</ele>
        <time>2025-01-28T11:29:58Z</time>
      </trkpt>
      <trkpt lat="47.61324" lon="-2.83352">
        <ele>4.9</ele>
        <time>2025-01-28T11:29:59Z</time>
      </trkpt>
      <trkpt lat="47.61324" lon="-2.83352">
        <ele>5</ele>
        <time>2025-01-28T11:30:00Z</time>
      </trkpt>
      <trkpt lat="47.61324" lon="-2.83353">
        <ele>5</ele>
        <time>2025-01-28T11:30:01Z</time>
      </trkpt>
      <trkpt lat="47.61324" lon="-2.83353">
        <ele>5</ele>
        <time>2025-01-28T11:30:02Z</time>
      </trkpt>
      <trkpt lat="47.61324" lon="-2.83353">
        <ele>5</ele>
        <time>2025-01-28T11:30:03Z</time>
      </trkpt>
      <trkpt lat="47.61324" lon="-2.83353">
        <ele>5</ele>
        <time>2025-01-28T11:30:04Z</time>
      </trkpt>
      <trkpt lat="47.61324" lon="-2.83353">
        <ele>5</ele>
        <time>2025-01-28T11:30:05Z</time>
      </trkpt>
      <trkpt lat="47.61324" lon="-2.83353">
        <ele>5</ele>
        <time>2025-01-28T11:30:06Z</time>
      </trkpt>
      <trkpt lat="47.61324" lon="-2.83353">
        <ele>5</ele>
        <time>2025-01-28T11:30:07Z</time>
      </trkpt>
      <trkpt lat="47.61324" lon="-2.83353">
        <ele>5</ele>
        <time>2025-01-28T11:30:08Z</time>
      </trkpt>
      <trkpt lat="47.61324" lon="-2.83353">
        <ele>5</ele>
        <time>2025-01-28T11:30:09Z</time>
      </trkpt>
      <trkpt lat="47.61324" lon="-2.83353">
        <ele>5</ele>
        <time>2025-01-28T11:30:10Z</time>
      </trkpt>
      <trkpt lat="47.61324" lon="-2.83353">
        <ele>5</ele>
        <time>2025-01-28T11:30:11Z</time>
      </trkpt>
      <trkpt lat="47.61324" lon="-2.83353">
        <ele>5</ele>
        <time>2025-01-28T11:30:12Z</time>
      </trkpt>
      <trkpt lat="47.61324" lon="-2.83353">
        <ele>5</ele>
        <time>2025-01-28T11:30:13Z</time>
      </trkpt>
      <trkpt lat="47.61324" lon="-2.83353">
        <ele>5</ele>
        <time>2025-01-28T11:30:14Z</time>
      </trkpt>
      <trkpt lat="47.61324" lon="-2.83353">
        <ele>5</ele>
        <time>2025-01-28T11:30:15Z</time>
      </trkpt>
      <trkpt lat="47.61324" lon="-2.83353">
        <ele>5</ele>
        <time>2025-01-28T11:30:16Z</time>
      </trkpt>
      <trkpt lat="47.61324" lon="-2.83353">
        <ele>5</ele>
        <time>2025-01-28T11:30:17Z</time>
      </trkpt>
      <trkpt lat="47.61324" lon="-2.83353">
        <ele>5</ele>
        <time>2025-01-28T11:30:18Z</time>
      </trkpt>
      <trkpt lat="47.61324" lon="-2.83353">
        <ele>5</ele>
        <time>2025-01-28T11:30:19Z</time>
      </trkpt>
      <trkpt lat="47.61324" lon="-2.83352">
        <ele>5</ele>
        <time>2025-01-28T11:30:20Z</time>
      </trkpt>
      <trkpt lat="47.61324" lon="-2.83352">
        <ele>5</ele>
        <time>2025-01-28T11:30:21Z</time>
      </trkpt>
      <trkpt lat="47.61324" lon="-2.83352">
        <ele>5</ele>
        <time>2025-01-28T11:30:22Z</time>
      </trkpt>
      <trkpt lat="47.61324" lon="-2.83352">
        <ele>5</ele>
        <time>2025-01-28T11:30:23Z</time>
      </trkpt>
      <trkpt lat="47.61324" lon="-2.83352">
        <ele>5</ele>
        <time>2025-01-28T11:30:24Z</time>
      </trkpt>
      <trkpt lat="47.61324" lon="-2.83352">
        <ele>5</ele>
        <time>2025-01-28T11:30:25Z</time>
      </trkpt>
      <trkpt lat="47.61324" lon="-2.83352">
        <ele>5</ele>
        <time>2025-01-28T11:30:26Z</time>
      </trkpt>
      <trkpt lat="47.61324" lon="-2.83352">
        <ele>5</ele>
        <time>2025-01-28T11:30:27Z</time>
      </trkpt>
      <trkpt lat="47.61324" lon="-2.83353">
        <ele>5</ele>
        <time>2025-01-28T11:30:28Z</time>
      </trkpt>
      <trkpt lat="47.61324" lon="-2.83353">
        <ele>5</ele>
        <time>2025-01-28T11:30:29Z</time>
      </trkpt>
      <trkpt lat="47.61324" lon="-2.83353">
        <ele>5</ele>
        <time>2025-01-28T11:30:30Z</time>
      </trkpt>
      <trkpt lat="47.61324" lon="-2.83352">
        <ele>5</ele>
        <time>2025-01-28T11:30:31Z</time>
      </trkpt>
      <trkpt lat="47.61324" lon="-2.83352">
        <ele>5</ele>
        <time>2025-01-28T11:30:32Z</time>
      </trkpt>
      <trkpt lat="47.61324" lon="-2.83352">
        <ele>5</ele>
        <time>2025-01-28T11:30:33Z</time>
      </trkpt>
      <trkpt lat="47.61324" lon="-2.83352">
        <ele>5</ele>
        <time>2025-01-28T11:30:34Z</time>
      </trkpt>
      <trkpt lat="47.61324" lon="-2.83352">
        <ele>5</ele>
        <time>2025-01-28T11:30:35Z</time>
      </trkpt>
      <trkpt lat="47.61324" lon="-2.83352">
        <ele>5</ele>
        <time>2025-01-28T11:30:36Z</time>
      </trkpt>
      <trkpt lat="47.61324" lon="-2.83352">
        <ele>5</ele>
        <time>2025-01-28T11:30:37Z</time>
      </trkpt>
      <trkpt lat="47.61324" lon="-2.83352">
        <ele>5</ele>
        <time>2025-01-28T11:30:38Z</time>
      </trkpt>
      <trkpt lat="47.61324" lon="-2.83352">
        <ele>5</ele>
        <time>2025-01-28T11:30:39Z</time>
      </trkpt>
      <trkpt lat="47.61324" lon="-2.83352">
        <ele>5</ele>
        <time>2025-01-28T11:30:40Z</time>
      </trkpt>
      <trkpt lat="47.61324" lon="-2.83352">
        <ele>5</ele>
        <time>2025-01-28T11:30:41Z</time>
      </trkpt>
      <trkpt lat="47.61324" lon="-2.83352">
        <ele>5</ele>
        <time>2025-01-28T11:30:42Z</time>
      </trkpt>
      <trkpt lat="47.61324" lon="-2.83352">
        <ele>5</ele>
        <time>2025-01-28T11:30:43Z</time>
      </trkpt>
      <trkpt lat="47.61324" lon="-2.83352">
        <ele>5</ele>
        <time>2025-01-28T11:30:44Z</time>
      </trkpt>
      <trkpt lat="47.61324" lon="-2.83352">
        <ele>5</ele>
        <time>2025-01-28T11:30:45Z</time>
      </trkpt>
      <trkpt lat="47.61324" lon="-2.83352">
        <ele>5</ele>
        <time>2025-01-28T11:30:46Z</time>
      </trkpt>
      <trkpt lat="47.61324" lon="-2.83352">
        <ele>5</ele>
        <time>2025-01-28T11:30:47Z</time>
      </trkpt>
      <trkpt lat="47.61324" lon="-2.83352">
        <ele>5</ele>
        <time>2025-01-28T11:30:48Z</time>
      </trkpt>
      <trkpt lat="47.61324" lon="-2.83352">
        <ele>5</ele>
        <time>2025-01-28T11:30:49Z</time>
      </trkpt>
      <trkpt lat="47.61324" lon="-2.83352">
        <ele>5</ele>
        <time>2025-01-28T11:30:50Z</time>
      </trkpt>
      <trkpt lat="47.61324" lon="-2.83352">
        <ele>5</ele>
        <time>2025-01-28T11:30:51Z</time>
      </trkpt>
      <trkpt lat="47.61324" lon="-2.83352">
        <ele>5</ele>
        <time>2025-01-28T11:30:52Z</time>
      </trkpt>
      <trkpt lat="47.61324" lon="-2.83352">
        <ele>5</ele>
        <time>2025-01-28T11:30:53Z</time>
      </trkpt>
      <trkpt lat="47.61324" lon="-2.83352">
        <ele>5</ele>
        <time>2025-01-28T11:30:54Z</time>
      </trkpt>
      <trkpt lat="47.61324" lon="-2.83352">
        <ele>5</ele>
        <time>2025-01-28T11:30:55Z</time>
      </trkpt>
      <trkpt lat="47.61324" lon="-2.83353">
        <ele>5</ele>
        <time>2025-01-28T11:30:56Z</time>
      </trkpt>
      <trkpt lat="47.61324" lon="-2.83353">
        <ele>5</ele>
        <time>2025-01-28T11:30:57Z</time>
      </trkpt>
      <trkpt lat="47.61324" lon="-2.83353">
        <ele>5</ele>
        <time>2025-01-28T11:30:58Z</time>
      </trkpt>
      <trkpt lat="47.61324" lon="-2.83353">
        <ele>5</ele>
        <time>2025-01-28T11:30:59Z</time>
      </trkpt>
      <trkpt lat="47.61324" lon="-2.83352">
        <ele>5</ele>
        <time>2025-01-28T11:31:00Z</time>
      </trkpt>
      <trkpt lat="47.61324" lon="-2.83352">
        <ele>4.9</ele>
        <time>2025-01-28T11:31:01Z</time>
      </trkpt>
      <trkpt lat="47.61324" lon="-2.83352">
        <ele>4.9</ele>
        <time>2025-01-28T11:31:02Z</time>
      </trkpt>
      <trkpt lat="47.61324" lon="-2.83352">
        <ele>5</ele>
        <time>2025-01-28T11:31:03Z</time>
      </trkpt>
      <trkpt lat="47.61324" lon="-2.83352">
        <ele>5</ele>
        <time>2025-01-28T11:31:04Z</time>
      </trkpt>
      <trkpt lat="47.61324" lon="-2.83352">
        <ele>5</ele>
        <time>2025-01-28T11:31:05Z</time>
      </trkpt>
      <trkpt lat="47.61324" lon="-2.83352">
        <ele>5</ele>
        <time>2025-01-28T11:31:06Z</time>
      </trkpt>
      <trkpt lat="47.61324" lon="-2.83352">
        <ele>5</ele>
        <time>2025-01-28T11:31:07Z</time>
      </trkpt>
      <trkpt lat="47.61324" lon="-2.83352">
        <ele>5</ele>
        <time>2025-01-28T11:31:08Z</time>
      </trkpt>
      <trkpt lat="47.61324" lon="-2.83352">
        <ele>5</ele>
        <time>2025-01-28T11:31:09Z</time>
      </trkpt>
      <trkpt lat="47.61324" lon="-2.83352">
        <ele>5</ele>
        <time>2025-01-28T11:31:10Z</time>
      </trkpt>
      <trkpt lat="47.61324" lon="-2.83352">
        <ele>5</ele>
        <time>2025-01-28T11:31:11Z</time>
      </trkpt>
      <trkpt lat="47.61324" lon="-2.83352">
        <ele>5</ele>
        <time>2025-01-28T11:31:12Z</time>
      </trkpt>
      <trkpt lat="47.61324" lon="-2.83352">
        <ele>5</ele>
        <time>2025-01-28T11:31:13Z</time>
      </trkpt>
      <trkpt lat="47.61324" lon="-2.83352">
        <ele>5</ele>
        <time>2025-01-28T11:31:14Z</time>
      </trkpt>
      <trkpt lat="47.61324" lon="-2.83352">
        <ele>5</ele>
        <time>2025-01-28T11:31:15Z</time>
      </trkpt>
      <trkpt lat="47.61324" lon="-2.83352">
        <ele>5</ele>
        <time>2025-01-28T11:31:16Z</time>
      </trkpt>
      <trkpt lat="47.61324" lon="-2.83352">
        <ele>5</ele>
        <time>2025-01-28T11:31:17Z</time>
      </trkpt>
      <trkpt lat="47.61324" lon="-2.83352">
        <ele>5</ele>
        <time>2025-01-28T11:31:18Z</time>
      </trkpt>
      <trkpt lat="47.61324" lon="-2.83352">
        <ele>5</ele>
        <time>2025-01-28T11:31:19Z</time>
      </trkpt>
      <trkpt lat="47.61324" lon="-2.83352">
        <ele>5</ele>
        <time>2025-01-28T11:31:20Z</time>
      </trkpt>
      <trkpt lat="47.61324" lon="-2.83352">
        <ele>5</ele>
        <time>2025-01-28T11:31:21Z</time>
      </trkpt>
      <trkpt lat="47.61324" lon="-2.83352">
        <ele>5</ele>
        <time>2025-01-28T11:31:22Z</time>
      </trkpt>
      <trkpt lat="47.61324" lon="-2.83352">
        <ele>5</ele>
        <time>2025-01-28T11:31:23Z</time>
      </trkpt>
      <trkpt lat="47.61324" lon="-2.83352">
        <ele>5</ele>
        <time>2025-01-28T11:31:24Z</time>
      </trkpt>
      <trkpt lat="47.61324" lon="-2.83352">
        <ele>5</ele>
        <time>2025-01-28T11:31:25Z</time>
      </trkpt>
      <trkpt lat="47.61324" lon="-2.83352">
        <ele>5</ele>
        <time>2025-01-28T11:31:26Z</time>
      </trkpt>
      <trkpt lat="47.61324" lon="-2.83352">
        <ele>5</ele>
        <time>2025-01-28T11:31:27Z</time>
      </trkpt>
      <trkpt lat="47.61324" lon="-2.83352">
        <ele>5</ele>
        <time>2025-01-28T11:31:28Z</time>
      </trkpt>
      <trkpt lat="47.61324" lon="-2.83352">
        <ele>5</ele>
        <time>2025-01-28T11:31:29Z</time>
      </trkpt>
      <trkpt lat="47.61324" lon="-2.83352">
        <ele>5</ele>
        <time>2025-01-28T11:31:30Z</time>
      </trkpt>
      <trkpt lat="47.61324" lon="-2.83353">
        <ele>5</ele>
        <time>2025-01-28T11:31:31Z</time>
      </trkpt>
      <trkpt lat="47.61324" lon="-2.83353">
        <ele>5</ele>
        <time>2025-01-28T11:31:32Z</time>
      </trkpt>
      <trkpt lat="47.61324" lon="-2.83353">
        <ele>5</ele>
        <time>2025-01-28T11:31:33Z</time>
      </trkpt>
      <trkpt lat="47.61324" lon="-2.83353">
        <ele>5</ele>
        <time>2025-01-28T11:31:34Z</time>
      </trkpt>
      <trkpt lat="47.61324" lon="-2.83353">
        <ele>5</ele>
        <time>2025-01-28T11:31:35Z</time>
      </trkpt>
      <trkpt lat="47.61324" lon="-2.83353">
        <ele>5</ele>
        <time>2025-01-28T11:31:36Z</time>
      </trkpt>
      <trkpt lat="47.61324" lon="-2.83353">
        <ele>5</ele>
        <time>2025-01-28T11:31:37Z</time>
      </trkpt>
      <trkpt lat="47.61324" lon="-2.83353">
        <ele>5</ele>
        <time>2025-01-28T11:31:38Z</time>
      </trkpt>
      <trkpt lat="47.61324" lon="-2.83353">
        <ele>5</ele>
        <time>2025-01-28T11:31:39Z</time>
      </trkpt>
      <trkpt lat="47.61324" lon="-2.83353">
        <ele>5</ele>
        <time>2025-01-28T11:31:40Z</time>
      </trkpt>
      <trkpt lat="47.61324" lon="-2.83353">
        <ele>5</ele>
        <time>2025-01-28T11:31:41Z</time>
      </trkpt>
      <trkpt lat="47.61324" lon="-2.83353">
        <ele>5</ele>
        <time>2025-01-28T11:31:42Z</time>
      </trkpt>
      <trkpt lat="47.61324" lon="-2.83353">
        <ele>5</ele>
        <time>2025-01-28T11:31:43Z</time>
      </trkpt>
      <trkpt lat="47.61324" lon="-2.83353">
        <ele>5</ele>
        <time>2025-01-28T11:31:44Z</time>
      </trkpt>
      <trkpt lat="47.61324" lon="-2.83353">
        <ele>5</ele>
        <time>2025-01-28T11:31:45Z</time>
      </trkpt>
      <trkpt lat="47.61324" lon="-2.83353">
        <ele>5</ele>
        <time>2025-01-28T11:31:46Z</time>
      </trkpt>
      <trkpt lat="47.61324" lon="-2.83353">
        <ele>5</ele>
        <time>2025-01-28T11:31:47Z</time>
      </trkpt>
      <trkpt lat="47.61324" lon="-2.83353">
        <ele>5</ele>
        <time>2025-01-28T11:31:48Z</time>
      </trkpt>
      <trkpt lat="47.61324" lon="-2.83353">
        <ele>5</ele>
        <time>2025-01-28T11:31:49Z</time>
      </trkpt>
      <trkpt lat="47.61324" lon="-2.83353">
        <ele>5</ele>
        <time>2025-01-28T11:31:50Z</time>
      </trkpt>
      <trkpt lat="47.61324" lon="-2.83353">
        <ele>5</ele>
        <time>2025-01-28T11:31:51Z</time>
      </trkpt>
      <trkpt lat="47.61324" lon="-2.83353">
        <ele>5</ele>
        <time>2025-01-28T11:31:52Z</time>
      </trkpt>
      <trkpt lat="47.61324" lon="-2.83353">
        <ele>5</ele>
        <time>2025-01-28T11:31:53Z</time>
      </trkpt>
      <trkpt lat="47.61324" lon="-2.83353">
        <ele>5</ele>
        <time>2025-01-28T11:31:54Z</time>
      </trkpt>
      <trkpt lat="47.61324" lon="-2.83353">
        <ele>5</ele>
        <time>2025-01-28T11:31:55Z</time>
      </trkpt>
      <trkpt lat="47.61324" lon="-2.83353">
        <ele>5</ele>
        <time>2025-01-28T11:31:56Z</time>
      </trkpt>
      <trkpt lat="47.61324" lon="-2.83353">
        <ele>5</ele>
        <time>2025-01-28T11:31:57Z</time>
      </trkpt>
      <trkpt lat="47.61324" lon="-2.83353">
        <ele>5</ele>
        <time>2025-01-28T11:31:58Z</time>
      </trkpt>
      <trkpt lat="47.61324" lon="-2.83353">
        <ele>5</ele>
        <time>2025-01-28T11:31:59Z</time>
      </trkpt>
      <trkpt lat="47.61324" lon="-2.83353">
        <ele>5</ele>
        <time>2025-01-28T11:32:00Z</time>
      </trkpt>
      <trkpt lat="47.61324" lon="-2.83353">
        <ele>5</ele>
        <time>2025-01-28T11:32:01Z</time>
      </trkpt>
      <trkpt lat="47.61324" lon="-2.83353">
        <ele>5</ele>
        <time>2025-01-28T11:32:02Z</time>
      </trkpt>
      <trkpt lat="47.61324" lon="-2.83353">
        <ele>5</ele>
        <time>2025-01-28T11:32:03Z</time>
      </trkpt>
      <trkpt lat="47.61324" lon="-2.83353">
        <ele>5</ele>
        <time>2025-01-28T11:32:04Z</time>
      </trkpt>
      <trkpt lat="47.61324" lon="-2.83353">
        <ele>5</ele>
        <time>2025-01-28T11:32:05Z</time>
      </trkpt>
      <trkpt lat="47.61324" lon="-2.83353">
        <ele>5</ele>
        <time>2025-01-28T11:32:06Z</time>
      </trkpt>
      <trkpt lat="47.61324" lon="-2.83353">
        <ele>5</ele>
        <time>2025-01-28T11:32:07Z</time>
      </trkpt>
      <trkpt lat="47.61324" lon="-2.83353">
        <ele>5</ele>
        <time>2025-01-28T11:32:08Z</time>
      </trkpt>
      <trkpt lat="47.61324" lon="-2.83353">
        <ele>5</ele>
        <time>2025-01-28T11:32:09Z</time>
      </trkpt>
      <trkpt lat="47.61324" lon="-2.83353">
        <ele>5</ele>
        <time>2025-01-28T11:32:10Z</time>
      </trkpt>
      <trkpt lat="47.61324" lon="-2.83353">
        <ele>5</ele>
        <time>2025-01-28T11:32:11Z</time>
      </trkpt>
      <trkpt lat="47.61324" lon="-2.83353">
        <ele>5</ele>
        <time>2025-01-28T11:32:12Z</time>
      </trkpt>
      <trkpt lat="47.61324" lon="-2.83353">
        <ele>5</ele>
        <time>2025-01-28T11:32:13Z</time>
      </trkpt>
      <trkpt lat="47.61324" lon="-2.83353">
        <ele>5</ele>
        <time>2025-01-28T11:32:14Z</time>
      </trkpt>
      <trkpt lat="47.61324" lon="-2.83353">
        <ele>5</ele>
        <time>2025-01-28T11:32:15Z</time>
      </trkpt>
      <trkpt lat="47.61324" lon="-2.83353">
        <ele>5</ele>
        <time>2025-01-28T11:32:16Z</time>
      </trkpt>
      <trkpt lat="47.61324" lon="-2.83353">
        <ele>5</ele>
        <time>2025-01-28T11:32:17Z</time>
      </trkpt>
      <trkpt lat="47.61324" lon="-2.83353">
        <ele>5</ele>
        <time>2025-01-28T11:32:18Z</time>
      </trkpt>
      <trkpt lat="47.61324" lon="-2.83353">
        <ele>5</ele>
        <time>2025-01-28T11:32:19Z</time>
      </trkpt>
      <trkpt lat="47.61324" lon="-2.83353">
        <ele>5</ele>
        <time>2025-01-28T11:32:20Z</time>
      </trkpt>
      <trkpt lat="47.61324" lon="-2.83353">
        <ele>5</ele>
        <time>2025-01-28T11:32:21Z</time>
      </trkpt>
      <trkpt lat="47.61324" lon="-2.83353">
        <ele>5</ele>
        <time>2025-01-28T11:32:22Z</time>
      </trkpt>
      <trkpt lat="47.61324" lon="-2.83353">
        <ele>5</ele>
        <time>2025-01-28T11:32:23Z</time>
      </trkpt>
      <trkpt lat="47.61324" lon="-2.83353">
        <ele>5</ele>
        <time>2025-01-28T11:32:24Z</time>
      </trkpt>
      <trkpt lat="47.61324" lon="-2.83353">
        <ele>5</ele>
        <time>2025-01-28T11:32:25Z</time>
      </trkpt>
      <trkpt lat="47.61324" lon="-2.83353">
        <ele>5</ele>
        <time>2025-01-28T11:32:26Z</time>
      </trkpt>
      <trkpt lat="47.61324" lon="-2.83353">
        <ele>5</ele>
        <time>2025-01-28T11:32:27Z</time>
      </trkpt>
      <trkpt lat="47.61324" lon="-2.83353">
        <ele>5</ele>
        <time>2025-01-28T11:32:28Z</time>
      </trkpt>
      <trkpt lat="47.61324" lon="-2.83353">
        <ele>4.9</ele>
        <time>2025-01-28T11:32:29Z</time>
      </trkpt>
      <trkpt lat="47.61324" lon="-2.83353">
        <ele>5</ele>
        <time>2025-01-28T11:32:30Z</time>
      </trkpt>
      <trkpt lat="47.61324" lon="-2.83353">
        <ele>5</ele>
        <time>2025-01-28T11:32:31Z</time>
      </trkpt>
      <trkpt lat="47.61324" lon="-2.83353">
        <ele>5</ele>
        <time>2025-01-28T11:32:32Z</time>
      </trkpt>
      <trkpt lat="47.61324" lon="-2.83353">
        <ele>5</ele>
        <time>2025-01-28T11:32:33Z</time>
      </trkpt>
      <trkpt lat="47.61324" lon="-2.83353">
        <ele>5</ele>
        <time>2025-01-28T11:32:34Z</time>
      </trkpt>
      <trkpt lat="47.61324" lon="-2.83353">
        <ele>5</ele>
        <time>2025-01-28T11:32:35Z</time>
      </trkpt>
      <trkpt lat="47.61324" lon="-2.83353">
        <ele>5</ele>
        <time>2025-01-28T11:32:36Z</time>
      </trkpt>
      <trkpt lat="47.61324" lon="-2.83353">
        <ele>5</ele>
        <time>2025-01-28T11:32:37Z</time>
      </trkpt>
      <trkpt lat="47.61324" lon="-2.83353">
        <ele>5</ele>
        <time>2025-01-28T11:32:38Z</time>
      </trkpt>
      <trkpt lat="47.61324" lon="-2.83353">
        <ele>5</ele>
        <time>2025-01-28T11:32:39Z</time>
      </trkpt>
      <trkpt lat="47.61324" lon="-2.83353">
        <ele>5</ele>
        <time>2025-01-28T11:32:40Z</time>
      </trkpt>
      <trkpt lat="47.61324" lon="-2.83353">
        <ele>5</ele>
        <time>2025-01-28T11:32:41Z</time>
      </trkpt>
      <trkpt lat="47.61324" lon="-2.83353">
        <ele>5</ele>
        <time>2025-01-28T11:32:42Z</time>
      </trkpt>
      <trkpt lat="47.61324" lon="-2.83353">
        <ele>5</ele>
        <time>2025-01-28T11:32:43Z</time>
      </trkpt>
      <trkpt lat="47.61324" lon="-2.83353">
        <ele>5</ele>
        <time>2025-01-28T11:32:44Z</time>
      </trkpt>
      <trkpt lat="47.61324" lon="-2.83353">
        <ele>5</ele>
        <time>2025-01-28T11:32:45Z</time>
      </trkpt>
      <trkpt lat="47.61324" lon="-2.83353">
        <ele>5</ele>
        <time>2025-01-28T11:32:46Z</time>
      </trkpt>
      <trkpt lat="47.61324" lon="-2.83352">
        <ele>4.9</ele>
        <time>2025-01-28T11:32:47Z</time>
      </trkpt>
      <trkpt lat="47.61324" lon="-2.83352">
        <ele>4.9</ele>
        <time>2025-01-28T11:32:48Z</time>
      </trkpt>
      <trkpt lat="47.61324" lon="-2.83352">
        <ele>4.9</ele>
        <time>2025-01-28T11:32:49Z</time>
      </trkpt>
      <trkpt lat="47.61324" lon="-2.83352">
        <ele>4.9</ele>
        <time>2025-01-28T11:32:50Z</time>
      </trkpt>
      <trkpt lat="47.61324" lon="-2.83352">
        <ele>4.9</ele>
        <time>2025-01-28T11:32:51Z</time>
      </trkpt>
      <trkpt lat="47.61324" lon="-2.83352">
        <ele>4.9</ele>
        <time>2025-01-28T11:32:52Z</time>
      </trkpt>
      <trkpt lat="47.61324" lon="-2.83352">
        <ele>4.9</ele>
        <time>2025-01-28T11:32:53Z</time>
      </trkpt>
      <trkpt lat="47.61324" lon="-2.83352">
        <ele>4.9</ele>
        <time>2025-01-28T11:32:54Z</time>
      </trkpt>
      <trkpt lat="47.61324" lon="-2.83352">
        <ele>4.9</ele>
        <time>2025-01-28T11:32:55Z</time>
      </trkpt>
      <trkpt lat="47.61324" lon="-2.83352">
        <ele>4.9</ele>
        <time>2025-01-28T11:32:56Z</time>
      </trkpt>
      <trkpt lat="47.61324" lon="-2.83352">
        <ele>4.9</ele>
        <time>2025-01-28T11:32:57Z</time>
      </trkpt>
      <trkpt lat="47.61324" lon="-2.83352">
        <ele>4.9</ele>
        <time>2025-01-28T11:32:58Z</time>
      </trkpt>
      <trkpt lat="47.61324" lon="-2.83352">
        <ele>4.9</ele>
        <time>2025-01-28T11:32:59Z</time>
      </trkpt>
      <trkpt lat="47.61324" lon="-2.83352">
        <ele>4.9</ele>
        <time>2025-01-28T11:33:00Z</time>
      </trkpt>
      <trkpt lat="47.61324" lon="-2.83352">
        <ele>4.9</ele>
        <time>2025-01-28T11:33:01Z</time>
      </trkpt>
      <trkpt lat="47.61324" lon="-2.83352">
        <ele>4.9</ele>
        <time>2025-01-28T11:33:02Z</time>
      </trkpt>
      <trkpt lat="47.61324" lon="-2.83352">
        <ele>4.9</ele>
        <time>2025-01-28T11:33:03Z</time>
      </trkpt>
      <trkpt lat="47.61324" lon="-2.83352">
        <ele>4.9</ele>
        <time>2025-01-28T11:33:04Z</time>
      </trkpt>
      <trkpt lat="47.61324" lon="-2.83352">
        <ele>4.9</ele>
        <time>2025-01-28T11:33:05Z</time>
      </trkpt>
      <trkpt lat="47.61324" lon="-2.83352">
        <ele>4.9</ele>
        <time>2025-01-28T11:33:06Z</time>
      </trkpt>
      <trkpt lat="47.61324" lon="-2.83352">
        <ele>4.9</ele>
        <time>2025-01-28T11:33:07Z</time>
      </trkpt>
      <trkpt lat="47.61324" lon="-2.83352">
        <ele>4.9</ele>
        <time>2025-01-28T11:33:08Z</time>
      </trkpt>
      <trkpt lat="47.61324" lon="-2.83352">
        <ele>4.9</ele>
        <time>2025-01-28T11:33:09Z</time>
      </trkpt>
      <trkpt lat="47.61324" lon="-2.83352">
        <ele>4.9</ele>
        <time>2025-01-28T11:33:10Z</time>
      </trkpt>
      <trkpt lat="47.61324" lon="-2.83352">
        <ele>4.9</ele>
        <time>2025-01-28T11:33:11Z</time>
      </trkpt>
      <trkpt lat="47.61324" lon="-2.83353">
        <ele>4.9</ele>
        <time>2025-01-28T11:33:12Z</time>
      </trkpt>
      <trkpt lat="47.61324" lon="-2.83353">
        <ele>4.9</ele>
        <time>2025-01-28T11:33:13Z</time>
      </trkpt>
      <trkpt lat="47.61324" lon="-2.83353">
        <ele>4.9</ele>
        <time>2025-01-28T11:33:14Z</time>
      </trkpt>
      <trkpt lat="47.61324" lon="-2.83353">
        <ele>4.9</ele>
        <time>2025-01-28T11:33:15Z</time>
      </trkpt>
      <trkpt lat="47.61324" lon="-2.83353">
        <ele>4.9</ele>
        <time>2025-01-28T11:33:16Z</time>
      </trkpt>
      <trkpt lat="47.61324" lon="-2.83353">
        <ele>4.9</ele>
        <time>2025-01-28T11:33:17Z</time>
      </trkpt>
      <trkpt lat="47.61324" lon="-2.83353">
        <ele>4.9</ele>
        <time>2025-01-28T11:33:18Z</time>
      </trkpt>
      <trkpt lat="47.61324" lon="-2.83353">
        <ele>4.9</ele>
        <time>2025-01-28T11:33:19Z</time>
      </trkpt>
      <trkpt lat="47.61324" lon="-2.83353">
        <ele>4.9</ele>
        <time>2025-01-28T11:33:20Z</time>
      </trkpt>
      <trkpt lat="47.61324" lon="-2.83353">
        <ele>4.9</ele>
        <time>2025-01-28T11:33:21Z</time>
      </trkpt>
      <trkpt lat="47.61324" lon="-2.83353">
        <ele>4.9</ele>
        <time>2025-01-28T11:33:22Z</time>
      </trkpt>
      <trkpt lat="47.61324" lon="-2.83353">
        <ele>4.9</ele>
        <time>2025-01-28T11:33:23Z</time>
      </trkpt>
      <trkpt lat="47.61324" lon="-2.83353">
        <ele>4.9</ele>
        <time>2025-01-28T11:33:24Z</time>
      </trkpt>
      <trkpt lat="47.61324" lon="-2.83353">
        <ele>4.9</ele>
        <time>2025-01-28T11:33:25Z</time>
      </trkpt>
      <trkpt lat="47.61324" lon="-2.83353">
        <ele>4.9</ele>
        <time>2025-01-28T11:33:26Z</time>
      </trkpt>
      <trkpt lat="47.61324" lon="-2.83353">
        <ele>4.9</ele>
        <time>2025-01-28T11:33:27Z</time>
      </trkpt>
      <trkpt lat="47.61324" lon="-2.83353">
        <ele>4.9</ele>
        <time>2025-01-28T11:33:28Z</time>
      </trkpt>
      <trkpt lat="47.61324" lon="-2.83353">
        <ele>4.9</ele>
        <time>2025-01-28T11:33:29Z</time>
      </trkpt>
      <trkpt lat="47.61324" lon="-2.83353">
        <ele>4.9</ele>
        <time>2025-01-28T11:33:30Z</time>
      </trkpt>
      <trkpt lat="47.61324" lon="-2.83353">
        <ele>4.9</ele>
        <time>2025-01-28T11:33:31Z</time>
      </trkpt>
      <trkpt lat="47.61324" lon="-2.83353">
        <ele>4.9</ele>
        <time>2025-01-28T11:33:32Z</time>
      </trkpt>
      <trkpt lat="47.61324" lon="-2.83353">
        <ele>4.9</ele>
        <time>2025-01-28T11:33:33Z</time>
      </trkpt>
      <trkpt lat="47.61324" lon="-2.83353">
        <ele>4.9</ele>
        <time>2025-01-28T11:33:34Z</time>
      </trkpt>
      <trkpt lat="47.61324" lon="-2.83353">
        <ele>4.9</ele>
        <time>2025-01-28T11:33:35Z</time>
      </trkpt>
      <trkpt lat="47.61324" lon="-2.83353">
        <ele>4.9</ele>
        <time>2025-01-28T11:33:36Z</time>
      </trkpt>
      <trkpt lat="47.61324" lon="-2.83353">
        <ele>4.9</ele>
        <time>2025-01-28T11:33:37Z</time>
      </trkpt>
      <trkpt lat="47.61324" lon="-2.83353">
        <ele>4.9</ele>
        <time>2025-01-28T11:33:38Z</time>
      </trkpt>
      <trkpt lat="47.61324" lon="-2.83353">
        <ele>4.9</ele>
        <time>2025-01-28T11:33:39Z</time>
      </trkpt>
      <trkpt lat="47.61324" lon="-2.83353">
        <ele>4.9</ele>
        <time>2025-01-28T11:33:40Z</time>
      </trkpt>
      <trkpt lat="47.61324" lon="-2.83353">
        <ele>4.9</ele>
        <time>2025-01-28T11:33:41Z</time>
      </trkpt>
      <trkpt lat="47.61324" lon="-2.83353">
        <ele>4.9</ele>
        <time>2025-01-28T11:33:42Z</time>
      </trkpt>
      <trkpt lat="47.61324" lon="-2.83353">
        <ele>4.9</ele>
        <time>2025-01-28T11:33:43Z</time>
      </trkpt>
      <trkpt lat="47.61324" lon="-2.83353">
        <ele>4.9</ele>
        <time>2025-01-28T11:33:44Z</time>
      </trkpt>
      <trkpt lat="47.61324" lon="-2.83353">
        <ele>4.9</ele>
        <time>2025-01-28T11:33:45Z</time>
      </trkpt>
      <trkpt lat="47.61324" lon="-2.83353">
        <ele>4.9</ele>
        <time>2025-01-28T11:33:46Z</time>
      </trkpt>
      <trkpt lat="47.61324" lon="-2.83353">
        <ele>4.9</ele>
        <time>2025-01-28T11:33:47Z</time>
      </trkpt>
      <trkpt lat="47.61324" lon="-2.83352">
        <ele>4.9</ele>
        <time>2025-01-28T11:33:48Z</time>
      </trkpt>
      <trkpt lat="47.61324" lon="-2.83352">
        <ele>4.9</ele>
        <time>2025-01-28T11:33:49Z</time>
      </trkpt>
      <trkpt lat="47.61324" lon="-2.83352">
        <ele>4.9</ele>
        <time>2025-01-28T11:33:50Z</time>
      </trkpt>
      <trkpt lat="47.61324" lon="-2.83352">
        <ele>4.9</ele>
        <time>2025-01-28T11:33:51Z</time>
      </trkpt>
      <trkpt lat="47.61324" lon="-2.83353">
        <ele>4.9</ele>
        <time>2025-01-28T11:33:52Z</time>
      </trkpt>
      <trkpt lat="47.61324" lon="-2.83353">
        <ele>4.9</ele>
        <time>2025-01-28T11:33:53Z</time>
      </trkpt>
      <trkpt lat="47.61324" lon="-2.83353">
        <ele>4.9</ele>
        <time>2025-01-28T11:33:54Z</time>
      </trkpt>
      <trkpt lat="47.61324" lon="-2.83353">
        <ele>4.9</ele>
        <time>2025-01-28T11:33:55Z</time>
      </trkpt>
      <trkpt lat="47.61324" lon="-2.83353">
        <ele>4.9</ele>
        <time>2025-01-28T11:33:56Z</time>
      </trkpt>
      <trkpt lat="47.61324" lon="-2.83353">
        <ele>4.9</ele>
        <time>2025-01-28T11:33:57Z</time>
      </trkpt>
      <trkpt lat="47.61324" lon="-2.83353">
        <ele>4.9</ele>
        <time>2025-01-28T11:33:58Z</time>
      </trkpt>
      <trkpt lat="47.61324" lon="-2.83353">
        <ele>4.9</ele>
        <time>2025-01-28T11:33:59Z</time>
      </trkpt>
      <trkpt lat="47.61324" lon="-2.83353">
        <ele>4.9</ele>
        <time>2025-01-28T11:34:00Z</time>
      </trkpt>
      <trkpt lat="47.61324" lon="-2.83353">
        <ele>4.9</ele>
        <time>2025-01-28T11:34:01Z</time>
      </trkpt>
      <trkpt lat="47.61324" lon="-2.83353">
        <ele>4.9</ele>
        <time>2025-01-28T11:34:02Z</time>
      </trkpt>
      <trkpt lat="47.61324" lon="-2.83353">
        <ele>4.9</ele>
        <time>2025-01-28T11:34:03Z</time>
      </trkpt>
      <trkpt lat="47.61324" lon="-2.83353">
        <ele>4.9</ele>
        <time>2025-01-28T11:34:04Z</time>
      </trkpt>
      <trkpt lat="47.61324" lon="-2.83353">
        <ele>4.9</ele>
        <time>2025-01-28T11:34:05Z</time>
      </trkpt>
      <trkpt lat="47.61324" lon="-2.83353">
        <ele>4.9</ele>
        <time>2025-01-28T11:34:06Z</time>
      </trkpt>
      <trkpt lat="47.61324" lon="-2.83353">
        <ele>4.9</ele>
        <time>2025-01-28T11:34:07Z</time>
      </trkpt>
      <trkpt lat="47.61324" lon="-2.83353">
        <ele>4.9</ele>
        <time>2025-01-28T11:34:08Z</time>
      </trkpt>
      <trkpt lat="47.61324" lon="-2.83353">
        <ele>4.9</ele>
        <time>2025-01-28T11:34:09Z</time>
      </trkpt>
      <trkpt lat="47.61324" lon="-2.83353">
        <ele>4.9</ele>
        <time>2025-01-28T11:34:10Z</time>
      </trkpt>
      <trkpt lat="47.61324" lon="-2.83353">
        <ele>4.9</ele>
        <time>2025-01-28T11:34:11Z</time>
      </trkpt>
      <trkpt lat="47.61324" lon="-2.83353">
        <ele>4.9</ele>
        <time>2025-01-28T11:34:12Z</time>
      </trkpt>
      <trkpt lat="47.61324" lon="-2.83353">
        <ele>4.9</ele>
        <time>2025-01-28T11:34:13Z</time>
      </trkpt>
      <trkpt lat="47.61324" lon="-2.83353">
        <ele>4.9</ele>
        <time>2025-01-28T11:34:14Z</time>
      </trkpt>
      <trkpt lat="47.61324" lon="-2.83353">
        <ele>4.9</ele>
        <time>2025-01-28T11:34:15Z</time>
      </trkpt>
      <trkpt lat="47.61324" lon="-2.83353">
        <ele>4.9</ele>
        <time>2025-01-28T11:34:16Z</time>
      </trkpt>
      <trkpt lat="47.61324" lon="-2.83353">
        <ele>4.9</ele>
        <time>2025-01-28T11:34:17Z</time>
      </trkpt>
      <trkpt lat="47.61324" lon="-2.83353">
        <ele>4.9</ele>
        <time>2025-01-28T11:34:18Z</time>
      </trkpt>
      <trkpt lat="47.61324" lon="-2.83353">
        <ele>4.9</ele>
        <time>2025-01-28T11:34:19Z</time>
      </trkpt>
      <trkpt lat="47.61324" lon="-2.83353">
        <ele>4.9</ele>
        <time>2025-01-28T11:34:20Z</time>
      </trkpt>
      <trkpt lat="47.61324" lon="-2.83353">
        <ele>4.9</ele>
        <time>2025-01-28T11:34:21Z</time>
      </trkpt>
      <trkpt lat="47.61324" lon="-2.83353">
        <ele>4.9</ele>
        <time>2025-01-28T11:34:22Z</time>
      </trkpt>
      <trkpt lat="47.61324" lon="-2.83353">
        <ele>4.9</ele>
        <time>2025-01-28T11:34:23Z</time>
      </trkpt>
      <trkpt lat="47.61324" lon="-2.83353">
        <ele>4.9</ele>
        <time>2025-01-28T11:34:24Z</time>
      </trkpt>
      <trkpt lat="47.61324" lon="-2.83353">
        <ele>4.9</ele>
        <time>2025-01-28T11:34:25Z</time>
      </trkpt>
      <trkpt lat="47.61324" lon="-2.83353">
        <ele>4.9</ele>
        <time>2025-01-28T11:34:26Z</time>
      </trkpt>
      <trkpt lat="47.61324" lon="-2.83353">
        <ele>4.9</ele>
        <time>2025-01-28T11:34:27Z</time>
      </trkpt>
      <trkpt lat="47.61324" lon="-2.83353">
        <ele>4.9</ele>
        <time>2025-01-28T11:34:28Z</time>
      </trkpt>
      <trkpt lat="47.61324" lon="-2.83353">
        <ele>4.9</ele>
        <time>2025-01-28T11:34:29Z</time>
      </trkpt>
      <trkpt lat="47.61324" lon="-2.83353">
        <ele>4.9</ele>
        <time>2025-01-28T11:34:30Z</time>
      </trkpt>
      <trkpt lat="47.61324" lon="-2.83353">
        <ele>4.9</ele>
        <time>2025-01-28T11:34:31Z</time>
      </trkpt>
      <trkpt lat="47.61324" lon="-2.83353">
        <ele>4.9</ele>
        <time>2025-01-28T11:34:32Z</time>
      </trkpt>
      <trkpt lat="47.61324" lon="-2.83353">
        <ele>4.9</ele>
        <time>2025-01-28T11:34:33Z</time>
      </trkpt>
      <trkpt lat="47.61324" lon="-2.83353">
        <ele>4.9</ele>
        <time>2025-01-28T11:34:34Z</time>
      </trkpt>
      <trkpt lat="47.61324" lon="-2.83353">
        <ele>4.9</ele>
        <time>2025-01-28T11:34:35Z</time>
      </trkpt>
      <trkpt lat="47.61324" lon="-2.83353">
        <ele>4.9</ele>
        <time>2025-01-28T11:34:36Z</time>
      </trkpt>
      <trkpt lat="47.61324" lon="-2.83353">
        <ele>4.9</ele>
        <time>2025-01-28T11:34:37Z</time>
      </trkpt>
      <trkpt lat="47.61324" lon="-2.83353">
        <ele>4.9</ele>
        <time>2025-01-28T11:34:38Z</time>
      </trkpt>
      <trkpt lat="47.61324" lon="-2.83353">
        <ele>4.9</ele>
        <time>2025-01-28T11:34:39Z</time>
      </trkpt>
      <trkpt lat="47.61324" lon="-2.83353">
        <ele>4.9</ele>
        <time>2025-01-28T11:34:40Z</time>
      </trkpt>
      <trkpt lat="47.61324" lon="-2.83353">
        <ele>4.9</ele>
        <time>2025-01-28T11:34:41Z</time>
      </trkpt>
      <trkpt lat="47.61324" lon="-2.83353">
        <ele>4.9</ele>
        <time>2025-01-28T11:34:42Z</time>
      </trkpt>
      <trkpt lat="47.61324" lon="-2.83353">
        <ele>4.9</ele>
        <time>2025-01-28T11:34:43Z</time>
      </trkpt>
      <trkpt lat="47.61324" lon="-2.83353">
        <ele>4.9</ele>
        <time>2025-01-28T11:34:44Z</time>
      </trkpt>
      <trkpt lat="47.61324" lon="-2.83353">
        <ele>4.9</ele>
        <time>2025-01-28T11:34:45Z</time>
      </trkpt>
      <trkpt lat="47.61324" lon="-2.83353">
        <ele>4.9</ele>
        <time>2025-01-28T11:34:46Z</time>
      </trkpt>
      <trkpt lat="47.61324" lon="-2.83353">
        <ele>4.9</ele>
        <time>2025-01-28T11:34:47Z</time>
      </trkpt>
      <trkpt lat="47.61324" lon="-2.83353">
        <ele>4.9</ele>
        <time>2025-01-28T11:34:48Z</time>
      </trkpt>
      <trkpt lat="47.61324" lon="-2.83353">
        <ele>4.9</ele>
        <time>2025-01-28T11:34:49Z</time>
      </trkpt>
      <trkpt lat="47.61324" lon="-2.83353">
        <ele>4.9</ele>
        <time>2025-01-28T11:34:50Z</time>
      </trkpt>
      <trkpt lat="47.61324" lon="-2.83353">
        <ele>4.9</ele>
        <time>2025-01-28T11:34:51Z</time>
      </trkpt>
      <trkpt lat="47.61324" lon="-2.83353">
        <ele>4.9</ele>
        <time>2025-01-28T11:34:52Z</time>
      </trkpt>
      <trkpt lat="47.61324" lon="-2.83353">
        <ele>4.9</ele>
        <time>2025-01-28T11:34:53Z</time>
      </trkpt>
      <trkpt lat="47.61324" lon="-2.83353">
        <ele>4.9</ele>
        <time>2025-01-28T11:34:54Z</time>
      </trkpt>
      <trkpt lat="47.61324" lon="-2.83353">
        <ele>4.9</ele>
        <time>2025-01-28T11:34:55Z</time>
      </trkpt>
      <trkpt lat="47.61324" lon="-2.83353">
        <ele>4.9</ele>
        <time>2025-01-28T11:34:56Z</time>
      </trkpt>
      <trkpt lat="47.61324" lon="-2.83353">
        <ele>4.9</ele>
        <time>2025-01-28T11:34:57Z</time>
      </trkpt>
      <trkpt lat="47.61324" lon="-2.83353">
        <ele>4.9</ele>
        <time>2025-01-28T11:34:58Z</time>
      </trkpt>
      <trkpt lat="47.61324" lon="-2.83353">
        <ele>4.9</ele>
        <time>2025-01-28T11:34:59Z</time>
      </trkpt>
      <trkpt lat="47.61324" lon="-2.83353">
        <ele>4.9</ele>
        <time>2025-01-28T11:35:00Z</time>
      </trkpt>
      <trkpt lat="47.61324" lon="-2.83353">
        <ele>4.9</ele>
        <time>2025-01-28T11:35:01Z</time>
      </trkpt>
      <trkpt lat="47.61324" lon="-2.83353">
        <ele>4.9</ele>
        <time>2025-01-28T11:35:02Z</time>
      </trkpt>
      <trkpt lat="47.61324" lon="-2.83353">
        <ele>4.9</ele>
        <time>2025-01-28T11:35:03Z</time>
      </trkpt>
      <trkpt lat="47.61324" lon="-2.83353">
        <ele>4.9</ele>
        <time>2025-01-28T11:35:04Z</time>
      </trkpt>
      <trkpt lat="47.61324" lon="-2.83353">
        <ele>4.9</ele>
        <time>2025-01-28T11:35:05Z</time>
      </trkpt>
      <trkpt lat="47.61324" lon="-2.83353">
        <ele>4.9</ele>
        <time>2025-01-28T11:35:06Z</time>
      </trkpt>
      <trkpt lat="47.61324" lon="-2.83353">
        <ele>4.9</ele>
        <time>2025-01-28T11:35:07Z</time>
      </trkpt>
      <trkpt lat="47.61324" lon="-2.83353">
        <ele>4.9</ele>
        <time>2025-01-28T11:35:08Z</time>
      </trkpt>
      <trkpt lat="47.61324" lon="-2.83353">
        <ele>4.9</ele>
        <time>2025-01-28T11:35:09Z</time>
      </trkpt>
      <trkpt lat="47.61324" lon="-2.83353">
        <ele>4.9</ele>
        <time>2025-01-28T11:35:10Z</time>
      </trkpt>
      <trkpt lat="47.61324" lon="-2.83353">
        <ele>4.9</ele>
        <time>2025-01-28T11:35:11Z</time>
      </trkpt>
      <trkpt lat="47.61324" lon="-2.83353">
        <ele>4.9</ele>
        <time>2025-01-28T11:35:12Z</time>
      </trkpt>
      <trkpt lat="47.61324" lon="-2.83353">
        <ele>4.9</ele>
        <time>2025-01-28T11:35:13Z</time>
      </trkpt>
      <trkpt lat="47.61324" lon="-2.83353">
        <ele>4.9</ele>
        <time>2025-01-28T11:35:14Z</time>
      </trkpt>
      <trkpt lat="47.61324" lon="-2.83353">
        <ele>4.9</ele>
        <time>2025-01-28T11:35:15Z</time>
      </trkpt>
      <trkpt lat="47.61324" lon="-2.83353">
        <ele>4.9</ele>
        <time>2025-01-28T11:35:16Z</time>
      </trkpt>
      <trkpt lat="47.61324" lon="-2.83353">
        <ele>4.9</ele>
        <time>2025-01-28T11:35:17Z</time>
      </trkpt>
      <trkpt lat="47.61324" lon="-2.83353">
        <ele>4.9</ele>
        <time>2025-01-28T11:35:18Z</time>
      </trkpt>
      <trkpt lat="47.61324" lon="-2.83353">
        <ele>4.9</ele>
        <time>2025-01-28T11:35:19Z</time>
      </trkpt>
      <trkpt lat="47.61324" lon="-2.83353">
        <ele>4.9</ele>
        <time>2025-01-28T11:35:20Z</time>
      </trkpt>
      <trkpt lat="47.61324" lon="-2.83353">
        <ele>4.9</ele>
        <time>2025-01-28T11:35:21Z</time>
      </trkpt>
      <trkpt lat="47.61324" lon="-2.83353">
        <ele>4.9</ele>
        <time>2025-01-28T11:35:22Z</time>
      </trkpt>
      <trkpt lat="47.61324" lon="-2.83353">
        <ele>4.9</ele>
        <time>2025-01-28T11:35:23Z</time>
      </trkpt>
      <trkpt lat="47.61324" lon="-2.83353">
        <ele>4.9</ele>
        <time>2025-01-28T11:35:24Z</time>
      </trkpt>
      <trkpt lat="47.61324" lon="-2.83353">
        <ele>4.9</ele>
        <time>2025-01-28T11:35:25Z</time>
      </trkpt>
      <trkpt lat="47.61324" lon="-2.83353">
        <ele>4.9</ele>
        <time>2025-01-28T11:35:26Z</time>
      </trkpt>
      <trkpt lat="47.61324" lon="-2.83353">
        <ele>4.9</ele>
        <time>2025-01-28T11:35:27Z</time>
      </trkpt>
      <trkpt lat="47.61324" lon="-2.83353">
        <ele>4.9</ele>
        <time>2025-01-28T11:35:28Z</time>
      </trkpt>
      <trkpt lat="47.61324" lon="-2.83353">
        <ele>4.9</ele>
        <time>2025-01-28T11:35:29Z</time>
      </trkpt>
      <trkpt lat="47.61324" lon="-2.83353">
        <ele>4.9</ele>
        <time>2025-01-28T11:35:30Z</time>
      </trkpt>
      <trkpt lat="47.61324" lon="-2.83353">
        <ele>4.9</ele>
        <time>2025-01-28T11:35:31Z</time>
      </trkpt>
      <trkpt lat="47.61324" lon="-2.83353">
        <ele>4.9</ele>
        <time>2025-01-28T11:35:32Z</time>
      </trkpt>
      <trkpt lat="47.61324" lon="-2.83353">
        <ele>4.9</ele>
        <time>2025-01-28T11:35:33Z</time>
      </trkpt>
      <trkpt lat="47.61324" lon="-2.83353">
        <ele>4.9</ele>
        <time>2025-01-28T11:35:34Z</time>
      </trkpt>
      <trkpt lat="47.61324" lon="-2.83353">
        <ele>4.9</ele>
        <time>2025-01-28T11:35:35Z</time>
      </trkpt>
      <trkpt lat="47.61324" lon="-2.83353">
        <ele>4.9</ele>
        <time>2025-01-28T11:35:36Z</time>
      </trkpt>
      <trkpt lat="47.61324" lon="-2.83353">
        <ele>4.9</ele>
        <time>2025-01-28T11:35:37Z</time>
      </trkpt>
      <trkpt lat="47.61324" lon="-2.83353">
        <ele>4.9</ele>
        <time>2025-01-28T11:35:38Z</time>
      </trkpt>
      <trkpt lat="47.61324" lon="-2.83353">
        <ele>4.9</ele>
        <time>2025-01-28T11:35:39Z</time>
      </trkpt>
      <trkpt lat="47.61324" lon="-2.83353">
        <ele>4.9</ele>
        <time>2025-01-28T11:35:40Z</time>
      </trkpt>
      <trkpt lat="47.61324" lon="-2.83353">
        <ele>4.9</ele>
        <time>2025-01-28T11:35:41Z</time>
      </trkpt>
      <trkpt lat="47.61324" lon="-2.83353">
        <ele>4.9</ele>
        <time>2025-01-28T11:35:42Z</time>
      </trkpt>
      <trkpt lat="47.61324" lon="-2.83353">
        <ele>4.9</ele>
        <time>2025-01-28T11:35:43Z</time>
      </trkpt>
      <trkpt lat="47.61324" lon="-2.83353">
        <ele>4.9</ele>
        <time>2025-01-28T11:35:44Z</time>
      </trkpt>
      <trkpt lat="47.61324" lon="-2.83353">
        <ele>4.9</ele>
        <time>2025-01-28T11:35:45Z</time>
      </trkpt>
      <trkpt lat="47.61324" lon="-2.83353">
        <ele>4.9</ele>
        <time>2025-01-28T11:35:46Z</time>
      </trkpt>
      <trkpt lat="47.61324" lon="-2.83353">
        <ele>4.9</ele>
        <time>2025-01-28T11:35:47Z</time>
      </trkpt>
      <trkpt lat="47.61324" lon="-2.83353">
        <ele>4.9</ele>
        <time>2025-01-28T11:35:48Z</time>
      </trkpt>
      <trkpt lat="47.61324" lon="-2.83353">
        <ele>4.9</ele>
        <time>2025-01-28T11:35:49Z</time>
      </trkpt>
      <trkpt lat="47.61324" lon="-2.83353">
        <ele>4.9</ele>
        <time>2025-01-28T11:35:50Z</time>
      </trkpt>
      <trkpt lat="47.61324" lon="-2.83353">
        <ele>4.9</ele>
        <time>2025-01-28T11:35:51Z</time>
      </trkpt>
      <trkpt lat="47.61324" lon="-2.83353">
        <ele>4.9</ele>
        <time>2025-01-28T11:35:52Z</time>
      </trkpt>
      <trkpt lat="47.61324" lon="-2.83353">
        <ele>4.9</ele>
        <time>2025-01-28T11:35:53Z</time>
      </trkpt>
      <trkpt lat="47.61324" lon="-2.83353">
        <ele>4.9</ele>
        <time>2025-01-28T11:35:54Z</time>
      </trkpt>
      <trkpt lat="47.61324" lon="-2.83353">
        <ele>4.9</ele>
        <time>2025-01-28T11:35:55Z</time>
      </trkpt>
      <trkpt lat="47.61324" lon="-2.83353">
        <ele>4.9</ele>
        <time>2025-01-28T11:35:56Z</time>
      </trkpt>
      <trkpt lat="47.61324" lon="-2.83353">
        <ele>4.9</ele>
        <time>2025-01-28T11:35:57Z</time>
      </trkpt>
      <trkpt lat="47.61324" lon="-2.83353">
        <ele>4.9</ele>
        <time>2025-01-28T11:35:58Z</time>
      </trkpt>
      <trkpt lat="47.61324" lon="-2.83353">
        <ele>4.9</ele>
        <time>2025-01-28T11:35:59Z</time>
      </trkpt>
      <trkpt lat="47.61324" lon="-2.83353">
        <ele>4.9</ele>
        <time>2025-01-28T11:36:00Z</time>
      </trkpt>
      <trkpt lat="47.61324" lon="-2.83353">
        <ele>4.9</ele>
        <time>2025-01-28T11:36:01Z</time>
      </trkpt>
      <trkpt lat="47.61324" lon="-2.83353">
        <ele>4.9</ele>
        <time>2025-01-28T11:36:02Z</time>
      </trkpt>
      <trkpt lat="47.61324" lon="-2.83353">
        <ele>4.9</ele>
        <time>2025-01-28T11:36:03Z</time>
      </trkpt>
      <trkpt lat="47.61324" lon="-2.83353">
        <ele>4.9</ele>
        <time>2025-01-28T11:36:04Z</time>
      </trkpt>
      <trkpt lat="47.61324" lon="-2.83352">
        <ele>4.9</ele>
        <time>2025-01-28T11:36:05Z</time>
      </trkpt>
      <trkpt lat="47.61324" lon="-2.83352">
        <ele>4.9</ele>
        <time>2025-01-28T11:36:06Z</time>
      </trkpt>
      <trkpt lat="47.61324" lon="-2.83352">
        <ele>4.9</ele>
        <time>2025-01-28T11:36:07Z</time>
      </trkpt>
      <trkpt lat="47.61324" lon="-2.83352">
        <ele>4.9</ele>
        <time>2025-01-28T11:36:08Z</time>
      </trkpt>
      <trkpt lat="47.61324" lon="-2.83352">
        <ele>4.9</ele>
        <time>2025-01-28T11:36:09Z</time>
      </trkpt>
      <trkpt lat="47.61324" lon="-2.83352">
        <ele>4.9</ele>
        <time>2025-01-28T11:36:10Z</time>
      </trkpt>
      <trkpt lat="47.61324" lon="-2.83352">
        <ele>4.9</ele>
        <time>2025-01-28T11:36:11Z</time>
      </trkpt>
      <trkpt lat="47.61324" lon="-2.83352">
        <ele>4.9</ele>
        <time>2025-01-28T11:36:12Z</time>
      </trkpt>
      <trkpt lat="47.61324" lon="-2.83352">
        <ele>4.9</ele>
        <time>2025-01-28T11:36:13Z</time>
      </trkpt>
      <trkpt lat="47.61324" lon="-2.83353">
        <ele>4.9</ele>
        <time>2025-01-28T11:36:14Z</time>
      </trkpt>
      <trkpt lat="47.61324" lon="-2.83353">
        <ele>4.9</ele>
        <time>2025-01-28T11:36:15Z</time>
      </trkpt>
      <trkpt lat="47.61324" lon="-2.83353">
        <ele>4.9</ele>
        <time>2025-01-28T11:36:16Z</time>
      </trkpt>
      <trkpt lat="47.61324" lon="-2.83353">
        <ele>4.9</ele>
        <time>2025-01-28T11:36:17Z</time>
      </trkpt>
      <trkpt lat="47.61324" lon="-2.83353">
        <ele>4.9</ele>
        <time>2025-01-28T11:36:18Z</time>
      </trkpt>
      <trkpt lat="47.61324" lon="-2.83353">
        <ele>4.9</ele>
        <time>2025-01-28T11:36:19Z</time>
      </trkpt>
      <trkpt lat="47.61324" lon="-2.83353">
        <ele>4.9</ele>
        <time>2025-01-28T11:36:20Z</time>
      </trkpt>
      <trkpt lat="47.61324" lon="-2.83353">
        <ele>4.9</ele>
        <time>2025-01-28T11:36:21Z</time>
      </trkpt>
      <trkpt lat="47.61324" lon="-2.83353">
        <ele>4.9</ele>
        <time>2025-01-28T11:36:22Z</time>
      </trkpt>
      <trkpt lat="47.61324" lon="-2.83353">
        <ele>4.9</ele>
        <time>2025-01-28T11:36:23Z</time>
      </trkpt>
      <trkpt lat="47.61324" lon="-2.83353">
        <ele>4.9</ele>
        <time>2025-01-28T11:36:24Z</time>
      </trkpt>
      <trkpt lat="47.61324" lon="-2.83353">
        <ele>4.9</ele>
        <time>2025-01-28T11:36:25Z</time>
      </trkpt>
      <trkpt lat="47.61324" lon="-2.83353">
        <ele>4.9</ele>
        <time>2025-01-28T11:36:26Z</time>
      </trkpt>
      <trkpt lat="47.61324" lon="-2.83353">
        <ele>4.9</ele>
        <time>2025-01-28T11:36:27Z</time>
      </trkpt>
      <trkpt lat="47.61324" lon="-2.83353">
        <ele>4.9</ele>
        <time>2025-01-28T11:36:28Z</time>
      </trkpt>
      <trkpt lat="47.61324" lon="-2.83353">
        <ele>4.9</ele>
        <time>2025-01-28T11:36:29Z</time>
      </trkpt>
      <trkpt lat="47.61324" lon="-2.83353">
        <ele>4.9</ele>
        <time>2025-01-28T11:36:30Z</time>
      </trkpt>
      <trkpt lat="47.61324" lon="-2.83353">
        <ele>4.9</ele>
        <time>2025-01-28T11:36:31Z</time>
      </trkpt>
      <trkpt lat="47.61324" lon="-2.83353">
        <ele>4.9</ele>
        <time>2025-01-28T11:36:32Z</time>
      </trkpt>
      <trkpt lat="47.61324" lon="-2.83353">
        <ele>4.9</ele>
        <time>2025-01-28T11:36:33Z</time>
      </trkpt>
      <trkpt lat="47.61324" lon="-2.83353">
        <ele>4.9</ele>
        <time>2025-01-28T11:36:34Z</time>
      </trkpt>
      <trkpt lat="47.61324" lon="-2.83353">
        <ele>4.9</ele>
        <time>2025-01-28T11:36:35Z</time>
      </trkpt>
      <trkpt lat="47.61324" lon="-2.83353">
        <ele>4.9</ele>
        <time>2025-01-28T11:36:36Z</time>
      </trkpt>
      <trkpt lat="47.61324" lon="-2.83353">
        <ele>4.9</ele>
        <time>2025-01-28T11:36:37Z</time>
      </trkpt>
      <trkpt lat="47.61324" lon="-2.83353">
        <ele>4.9</ele>
        <time>2025-01-28T11:36:38Z</time>
      </trkpt>
      <trkpt lat="47.61324" lon="-2.83353">
        <ele>4.9</ele>
        <time>2025-01-28T11:36:39Z</time>
      </trkpt>
      <trkpt lat="47.61324" lon="-2.83353">
        <ele>4.9</ele>
        <time>2025-01-28T11:36:40Z</time>
      </trkpt>
      <trkpt lat="47.61324" lon="-2.83353">
        <ele>4.9</ele>
        <time>2025-01-28T11:36:41Z</time>
      </trkpt>
      <trkpt lat="47.61324" lon="-2.83353">
        <ele>4.9</ele>
        <time>2025-01-28T11:36:42Z</time>
      </trkpt>
      <trkpt lat="47.61324" lon="-2.83353">
        <ele>4.9</ele>
        <time>2025-01-28T11:36:43Z</time>
      </trkpt>
      <trkpt lat="47.61324" lon="-2.83353">
        <ele>4.9</ele>
        <time>2025-01-28T11:36:44Z</time>
      </trkpt>
      <trkpt lat="47.61324" lon="-2.83353">
        <ele>4.9</ele>
        <time>2025-01-28T11:36:45Z</time>
      </trkpt>
      <trkpt lat="47.61324" lon="-2.83353">
        <ele>4.9</ele>
        <time>2025-01-28T11:36:46Z</time>
      </trkpt>
      <trkpt lat="47.61324" lon="-2.83353">
        <ele>4.9</ele>
        <time>2025-01-28T11:36:47Z</time>
      </trkpt>
      <trkpt lat="47.61324" lon="-2.83353">
        <ele>4.9</ele>
        <time>2025-01-28T11:36:48Z</time>
      </trkpt>
      <trkpt lat="47.61324" lon="-2.83353">
        <ele>4.9</ele>
        <time>2025-01-28T11:36:49Z</time>
      </trkpt>
      <trkpt lat="47.61324" lon="-2.83353">
        <ele>4.9</ele>
        <time>2025-01-28T11:36:50Z</time>
      </trkpt>
      <trkpt lat="47.61324" lon="-2.83353">
        <ele>4.9</ele>
        <time>2025-01-28T11:36:51Z</time>
      </trkpt>
      <trkpt lat="47.61324" lon="-2.83353">
        <ele>4.9</ele>
        <time>2025-01-28T11:36:52Z</time>
      </trkpt>
      <trkpt lat="47.61324" lon="-2.83353">
        <ele>4.9</ele>
        <time>2025-01-28T11:36:53Z</time>
      </trkpt>
      <trkpt lat="47.61324" lon="-2.83353">
        <ele>4.9</ele>
        <time>2025-01-28T11:36:54Z</time>
      </trkpt>
      <trkpt lat="47.61324" lon="-2.83353">
        <ele>4.9</ele>
        <time>2025-01-28T11:36:55Z</time>
      </trkpt>
      <trkpt lat="47.61324" lon="-2.83353">
        <ele>4.9</ele>
        <time>2025-01-28T11:36:56Z</time>
      </trkpt>
      <trkpt lat="47.61324" lon="-2.83353">
        <ele>4.9</ele>
        <time>2025-01-28T11:36:57Z</time>
      </trkpt>
      <trkpt lat="47.61324" lon="-2.83353">
        <ele>4.9</ele>
        <time>2025-01-28T11:36:58Z</time>
      </trkpt>
      <trkpt lat="47.61324" lon="-2.83353">
        <ele>4.9</ele>
        <time>2025-01-28T11:36:59Z</time>
      </trkpt>
      <trkpt lat="47.61324" lon="-2.83353">
        <ele>4.9</ele>
        <time>2025-01-28T11:37:00Z</time>
      </trkpt>
      <trkpt lat="47.61324" lon="-2.83353">
        <ele>4.9</ele>
        <time>2025-01-28T11:37:01Z</time>
      </trkpt>
      <trkpt lat="47.61324" lon="-2.83353">
        <ele>4.9</ele>
        <time>2025-01-28T11:37:02Z</time>
      </trkpt>
      <trkpt lat="47.61324" lon="-2.83353">
        <ele>4.9</ele>
        <time>2025-01-28T11:37:03Z</time>
      </trkpt>
      <trkpt lat="47.61324" lon="-2.83353">
        <ele>4.9</ele>
        <time>2025-01-28T11:37:04Z</time>
      </trkpt>
      <trkpt lat="47.61324" lon="-2.83353">
        <ele>4.9</ele>
        <time>2025-01-28T11:37:05Z</time>
      </trkpt>
      <trkpt lat="47.61324" lon="-2.83353">
        <ele>4.9</ele>
        <time>2025-01-28T11:37:06Z</time>
      </trkpt>
      <trkpt lat="47.61324" lon="-2.83353">
        <ele>4.9</ele>
        <time>2025-01-28T11:37:07Z</time>
      </trkpt>
      <trkpt lat="47.61324" lon="-2.83353">
        <ele>4.9</ele>
        <time>2025-01-28T11:37:08Z</time>
      </trkpt>
      <trkpt lat="47.61324" lon="-2.83353">
        <ele>4.9</ele>
        <time>2025-01-28T11:37:09Z</time>
      </trkpt>
      <trkpt lat="47.61324" lon="-2.83353">
        <ele>4.9</ele>
        <time>2025-01-28T11:37:10Z</time>
      </trkpt>
      <trkpt lat="47.61324" lon="-2.83353">
        <ele>4.9</ele>
        <time>2025-01-28T11:37:11Z</time>
      </trkpt>
      <trkpt lat="47.61324" lon="-2.83353">
        <ele>4.9</ele>
        <time>2025-01-28T11:37:12Z</time>
      </trkpt>
      <trkpt lat="47.61324" lon="-2.83353">
        <ele>4.9</ele>
        <time>2025-01-28T11:37:13Z</time>
      </trkpt>
      <trkpt lat="47.61324" lon="-2.83353">
        <ele>4.9</ele>
        <time>2025-01-28T11:37:14Z</time>
      </trkpt>
      <trkpt lat="47.61324" lon="-2.83353">
        <ele>4.9</ele>
        <time>2025-01-28T11:37:15Z</time>
      </trkpt>
      <trkpt lat="47.61324" lon="-2.83353">
        <ele>4.9</ele>
        <time>2025-01-28T11:37:16Z</time>
      </trkpt>
      <trkpt lat="47.61324" lon="-2.83353">
        <ele>4.9</ele>
        <time>2025-01-28T11:37:17Z</time>
      </trkpt>
      <trkpt lat="47.61324" lon="-2.83353">
        <ele>4.9</ele>
        <time>2025-01-28T11:37:18Z</time>
      </trkpt>
      <trkpt lat="47.61324" lon="-2.83353">
        <ele>4.9</ele>
        <time>2025-01-28T11:37:19Z</time>
      </trkpt>
      <trkpt lat="47.61324" lon="-2.83353">
        <ele>4.9</ele>
        <time>2025-01-28T11:37:20Z</time>
      </trkpt>
      <trkpt lat="47.61324" lon="-2.83353">
        <ele>4.9</ele>
        <time>2025-01-28T11:37:21Z</time>
      </trkpt>
      <trkpt lat="47.61324" lon="-2.83353">
        <ele>4.9</ele>
        <time>2025-01-28T11:37:22Z</time>
      </trkpt>
      <trkpt lat="47.61324" lon="-2.83353">
        <ele>4.9</ele>
        <time>2025-01-28T11:37:23Z</time>
      </trkpt>
      <trkpt lat="47.61324" lon="-2.83353">
        <ele>4.9</ele>
        <time>2025-01-28T11:37:24Z</time>
      </trkpt>
      <trkpt lat="47.61324" lon="-2.83353">
        <ele>4.9</ele>
        <time>2025-01-28T11:37:25Z</time>
      </trkpt>
      <trkpt lat="47.61324" lon="-2.83353">
        <ele>4.9</ele>
        <time>2025-01-28T11:37:26Z</time>
      </trkpt>
      <trkpt lat="47.61324" lon="-2.83353">
        <ele>4.9</ele>
        <time>2025-01-28T11:37:27Z</time>
      </trkpt>
      <trkpt lat="47.61324" lon="-2.83353">
        <ele>4.9</ele>
        <time>2025-01-28T11:37:28Z</time>
      </trkpt>
      <trkpt lat="47.61324" lon="-2.83353">
        <ele>4.9</ele>
        <time>2025-01-28T11:37:29Z</time>
      </trkpt>
      <trkpt lat="47.61324" lon="-2.83353">
        <ele>4.9</ele>
        <time>2025-01-28T11:37:30Z</time>
      </trkpt>
      <trkpt lat="47.61324" lon="-2.83353">
        <ele>4.9</ele>
        <time>2025-01-28T11:37:31Z</time>
      </trkpt>
      <trkpt lat="47.61324" lon="-2.83353">
        <ele>4.9</ele>
        <time>2025-01-28T11:37:32Z</time>
      </trkpt>
      <trkpt lat="47.61324" lon="-2.83353">
        <ele>4.9</ele>
        <time>2025-01-28T11:37:33Z</time>
      </trkpt>
      <trkpt lat="47.61324" lon="-2.83353">
        <ele>4.9</ele>
        <time>2025-01-28T11:37:34Z</time>
      </trkpt>
      <trkpt lat="47.61324" lon="-2.83353">
        <ele>4.9</ele>
        <time>2025-01-28T11:37:35Z</time>
      </trkpt>
      <trkpt lat="47.61324" lon="-2.83353">
        <ele>4.9</ele>
        <time>2025-01-28T11:37:36Z</time>
      </trkpt>
      <trkpt lat="47.61324" lon="-2.83353">
        <ele>4.9</ele>
        <time>2025-01-28T11:37:37Z</time>
      </trkpt>
      <trkpt lat="47.61324" lon="-2.83353">
        <ele>4.9</ele>
        <time>2025-01-28T11:37:38Z</time>
      </trkpt>
      <trkpt lat="47.61324" lon="-2.83353">
        <ele>4.9</ele>
        <time>2025-01-28T11:37:39Z</time>
      </trkpt>
      <trkpt lat="47.61324" lon="-2.83353">
        <ele>4.9</ele>
        <time>2025-01-28T11:37:40Z</time>
      </trkpt>
      <trkpt lat="47.61324" lon="-2.83353">
        <ele>4.9</ele>
        <time>2025-01-28T11:37:41Z</time>
      </trkpt>
      <trkpt lat="47.61324" lon="-2.83353">
        <ele>4.9</ele>
        <time>2025-01-28T11:37:42Z</time>
      </trkpt>
      <trkpt lat="47.61324" lon="-2.83353">
        <ele>4.9</ele>
        <time>2025-01-28T11:37:43Z</time>
      </trkpt>
      <trkpt lat="47.61324" lon="-2.83353">
        <ele>4.9</ele>
        <time>2025-01-28T11:37:44Z</time>
      </trkpt>
      <trkpt lat="47.61324" lon="-2.83353">
        <ele>4.9</ele>
        <time>2025-01-28T11:37:45Z</time>
      </trkpt>
      <trkpt lat="47.61324" lon="-2.83353">
        <ele>4.9</ele>
        <time>2025-01-28T11:37:46Z</time>
      </trkpt>
      <trkpt lat="47.61324" lon="-2.83353">
        <ele>4.9</ele>
        <time>2025-01-28T11:37:47Z</time>
      </trkpt>
      <trkpt lat="47.61324" lon="-2.83353">
        <ele>4.9</ele>
        <time>2025-01-28T11:37:48Z</time>
      </trkpt>
      <trkpt lat="47.61324" lon="-2.83353">
        <ele>4.9</ele>
        <time>2025-01-28T11:37:49Z</time>
      </trkpt>
      <trkpt lat="47.61324" lon="-2.83353">
        <ele>4.9</ele>
        <time>2025-01-28T11:37:50Z</time>
      </trkpt>
      <trkpt lat="47.61324" lon="-2.83353">
        <ele>4.9</ele>
        <time>2025-01-28T11:37:51Z</time>
      </trkpt>
      <trkpt lat="47.61324" lon="-2.83353">
        <ele>4.9</ele>
        <time>2025-01-28T11:37:52Z</time>
      </trkpt>
      <trkpt lat="47.61324" lon="-2.83353">
        <ele>4.9</ele>
        <time>2025-01-28T11:37:53Z</time>
      </trkpt>
      <trkpt lat="47.61324" lon="-2.83353">
        <ele>4.9</ele>
        <time>2025-01-28T11:37:54Z</time>
      </trkpt>
      <trkpt lat="47.61324" lon="-2.83353">
        <ele>4.9</ele>
        <time>2025-01-28T11:37:55Z</time>
      </trkpt>
      <trkpt lat="47.61324" lon="-2.83353">
        <ele>4.9</ele>
        <time>2025-01-28T11:37:56Z</time>
      </trkpt>
      <trkpt lat="47.61324" lon="-2.83353">
        <ele>4.9</ele>
        <time>2025-01-28T11:37:57Z</time>
      </trkpt>
      <trkpt lat="47.61324" lon="-2.83353">
        <ele>4.9</ele>
        <time>2025-01-28T11:37:58Z</time>
      </trkpt>
      <trkpt lat="47.61324" lon="-2.83353">
        <ele>4.9</ele>
        <time>2025-01-28T11:37:59Z</time>
      </trkpt>
      <trkpt lat="47.61324" lon="-2.83353">
        <ele>4.9</ele>
        <time>2025-01-28T11:38:00Z</time>
      </trkpt>
      <trkpt lat="47.61324" lon="-2.83353">
        <ele>4.9</ele>
        <time>2025-01-28T11:38:01Z</time>
      </trkpt>
      <trkpt lat="47.61324" lon="-2.83353">
        <ele>4.9</ele>
        <time>2025-01-28T11:38:02Z</time>
      </trkpt>
      <trkpt lat="47.61324" lon="-2.83353">
        <ele>4.9</ele>
        <time>2025-01-28T11:38:03Z</time>
      </trkpt>
      <trkpt lat="47.61324" lon="-2.83353">
        <ele>4.9</ele>
        <time>2025-01-28T11:38:04Z</time>
      </trkpt>
      <trkpt lat="47.61324" lon="-2.83353">
        <ele>4.9</ele>
        <time>2025-01-28T11:38:05Z</time>
      </trkpt>
      <trkpt lat="47.61324" lon="-2.83353">
        <ele>4.9</ele>
        <time>2025-01-28T11:38:06Z</time>
      </trkpt>
      <trkpt lat="47.61324" lon="-2.83353">
        <ele>4.9</ele>
        <time>2025-01-28T11:38:07Z</time>
      </trkpt>
      <trkpt lat="47.61324" lon="-2.83353">
        <ele>4.9</ele>
        <time>2025-01-28T11:38:08Z</time>
      </trkpt>
      <trkpt lat="47.61324" lon="-2.83353">
        <ele>4.9</ele>
        <time>2025-01-28T11:38:09Z</time>
      </trkpt>
      <trkpt lat="47.61324" lon="-2.83353">
        <ele>4.9</ele>
        <time>2025-01-28T11:38:10Z</time>
      </trkpt>
      <trkpt lat="47.61324" lon="-2.83353">
        <ele>4.9</ele>
        <time>2025-01-28T11:38:11Z</time>
      </trkpt>
      <trkpt lat="47.61324" lon="-2.83353">
        <ele>4.9</ele>
        <time>2025-01-28T11:38:12Z</time>
      </trkpt>
      <trkpt lat="47.61324" lon="-2.83353">
        <ele>4.9</ele>
        <time>2025-01-28T11:38:13Z</time>
      </trkpt>
      <trkpt lat="47.61324" lon="-2.83353">
        <ele>4.9</ele>
        <time>2025-01-28T11:38:14Z</time>
      </trkpt>
      <trkpt lat="47.61324" lon="-2.83353">
        <ele>4.9</ele>
        <time>2025-01-28T11:38:15Z</time>
      </trkpt>
      <trkpt lat="47.61324" lon="-2.83353">
        <ele>4.9</ele>
        <time>2025-01-28T11:38:16Z</time>
      </trkpt>
      <trkpt lat="47.61324" lon="-2.83353">
        <ele>4.9</ele>
        <time>2025-01-28T11:38:17Z</time>
      </trkpt>
      <trkpt lat="47.61324" lon="-2.83353">
        <ele>4.9</ele>
        <time>2025-01-28T11:38:18Z</time>
      </trkpt>
      <trkpt lat="47.61324" lon="-2.83353">
        <ele>4.9</ele>
        <time>2025-01-28T11:38:19Z</time>
      </trkpt>
      <trkpt lat="47.61324" lon="-2.83353">
        <ele>4.9</ele>
        <time>2025-01-28T11:38:20Z</time>
      </trkpt>
      <trkpt lat="47.61324" lon="-2.83353">
        <ele>4.9</ele>
        <time>2025-01-28T11:38:21Z</time>
      </trkpt>
      <trkpt lat="47.61324" lon="-2.83353">
        <ele>4.9</ele>
        <time>2025-01-28T11:38:22Z</time>
      </trkpt>
      <trkpt lat="47.61324" lon="-2.83352">
        <ele>4.9</ele>
        <time>2025-01-28T11:38:23Z</time>
      </trkpt>
      <trkpt lat="47.61324" lon="-2.83352">
        <ele>4.9</ele>
        <time>2025-01-28T11:38:24Z</time>
      </trkpt>
      <trkpt lat="47.61324" lon="-2.83352">
        <ele>4.9</ele>
        <time>2025-01-28T11:38:25Z</time>
      </trkpt>
      <trkpt lat="47.61324" lon="-2.83352">
        <ele>4.9</ele>
        <time>2025-01-28T11:38:26Z</time>
      </trkpt>
      <trkpt lat="47.61324" lon="-2.83353">
        <ele>4.9</ele>
        <time>2025-01-28T11:38:27Z</time>
      </trkpt>
      <trkpt lat="47.61324" lon="-2.83353">
        <ele>4.9</ele>
        <time>2025-01-28T11:38:28Z</time>
      </trkpt>
      <trkpt lat="47.61324" lon="-2.83353">
        <ele>4.9</ele>
        <time>2025-01-28T11:38:29Z</time>
      </trkpt>
      <trkpt lat="47.61324" lon="-2.83353">
        <ele>4.9</ele>
        <time>2025-01-28T11:38:30Z</time>
      </trkpt>
      <trkpt lat="47.61324" lon="-2.83353">
        <ele>4.9</ele>
        <time>2025-01-28T11:38:31Z</time>
      </trkpt>
      <trkpt lat="47.61324" lon="-2.83353">
        <ele>4.9</ele>
        <time>2025-01-28T11:38:32Z</time>
      </trkpt>
      <trkpt lat="47.61324" lon="-2.83353">
        <ele>4.9</ele>
        <time>2025-01-28T11:38:33Z</time>
      </trkpt>
      <trkpt lat="47.61324" lon="-2.83353">
        <ele>4.9</ele>
        <time>2025-01-28T11:38:34Z</time>
      </trkpt>
      <trkpt lat="47.61324" lon="-2.83353">
        <ele>4.9</ele>
        <time>2025-01-28T11:38:35Z</time>
      </trkpt>
      <trkpt lat="47.61324" lon="-2.83352">
        <ele>4.9</ele>
        <time>2025-01-28T11:38:36Z</time>
      </trkpt>
      <trkpt lat="47.61324" lon="-2.83352">
        <ele>4.9</ele>
        <time>2025-01-28T11:38:37Z</time>
      </trkpt>
      <trkpt lat="47.61324" lon="-2.83352">
        <ele>4.9</ele>
        <time>2025-01-28T11:38:38Z</time>
      </trkpt>
      <trkpt lat="47.61324" lon="-2.83352">
        <ele>4.9</ele>
        <time>2025-01-28T11:38:39Z</time>
      </trkpt>
      <trkpt lat="47.61324" lon="-2.83352">
        <ele>4.9</ele>
        <time>2025-01-28T11:38:40Z</time>
      </trkpt>
      <trkpt lat="47.61324" lon="-2.83352">
        <ele>4.9</ele>
        <time>2025-01-28T11:38:41Z</time>
      </trkpt>
      <trkpt lat="47.61324" lon="-2.83352">
        <ele>4.9</ele>
        <time>2025-01-28T11:38:42Z</time>
      </trkpt>
      <trkpt lat="47.61324" lon="-2.83352">
        <ele>4.9</ele>
        <time>2025-01-28T11:38:43Z</time>
      </trkpt>
      <trkpt lat="47.61324" lon="-2.83352">
        <ele>4.9</ele>
        <time>2025-01-28T11:38:44Z</time>
      </trkpt>
      <trkpt lat="47.61324" lon="-2.83352">
        <ele>4.9</ele>
        <time>2025-01-28T11:38:45Z</time>
      </trkpt>
      <trkpt lat="47.61324" lon="-2.83352">
        <ele>4.8</ele>
        <time>2025-01-28T11:38:46Z</time>
      </trkpt>
      <trkpt lat="47.61324" lon="-2.83352">
        <ele>4.8</ele>
        <time>2025-01-28T11:38:47Z</time>
      </trkpt>
      <trkpt lat="47.61324" lon="-2.83352">
        <ele>4.8</ele>
        <time>2025-01-28T11:38:48Z</time>
      </trkpt>
      <trkpt lat="47.61324" lon="-2.83352">
        <ele>4.8</ele>
        <time>2025-01-28T11:38:49Z</time>
      </trkpt>
      <trkpt lat="47.61324" lon="-2.83352">
        <ele>4.8</ele>
        <time>2025-01-28T11:38:50Z</time>
      </trkpt>
      <trkpt lat="47.61324" lon="-2.83352">
        <ele>4.8</ele>
        <time>2025-01-28T11:38:51Z</time>
      </trkpt>
      <trkpt lat="47.61324" lon="-2.83352">
        <ele>4.8</ele>
        <time>2025-01-28T11:38:52Z</time>
      </trkpt>
      <trkpt lat="47.61324" lon="-2.83352">
        <ele>4.8</ele>
        <time>2025-01-28T11:38:53Z</time>
      </trkpt>
      <trkpt lat="47.61324" lon="-2.83352">
        <ele>4.8</ele>
        <time>2025-01-28T11:38:54Z</time>
      </trkpt>
      <trkpt lat="47.61324" lon="-2.83352">
        <ele>4.9</ele>
        <time>2025-01-28T11:38:55Z</time>
      </trkpt>
      <trkpt lat="47.61324" lon="-2.83352">
        <ele>4.9</ele>
        <time>2025-01-28T11:38:56Z</time>
      </trkpt>
      <trkpt lat="47.61324" lon="-2.83352">
        <ele>4.9</ele>
        <time>2025-01-28T11:38:57Z</time>
      </trkpt>
      <trkpt lat="47.61324" lon="-2.83352">
        <ele>4.9</ele>
        <time>2025-01-28T11:38:58Z</time>
      </trkpt>
      <trkpt lat="47.61324" lon="-2.83352">
        <ele>4.9</ele>
        <time>2025-01-28T11:38:59Z</time>
      </trkpt>
      <trkpt lat="47.61324" lon="-2.83352">
        <ele>4.9</ele>
        <time>2025-01-28T11:39:00Z</time>
      </trkpt>
      <trkpt lat="47.61324" lon="-2.83352">
        <ele>4.9</ele>
        <time>2025-01-28T11:39:01Z</time>
      </trkpt>
      <trkpt lat="47.61324" lon="-2.83352">
        <ele>4.9</ele>
        <time>2025-01-28T11:39:02Z</time>
      </trkpt>
      <trkpt lat="47.61324" lon="-2.83352">
        <ele>4.9</ele>
        <time>2025-01-28T11:39:03Z</time>
      </trkpt>
      <trkpt lat="47.61324" lon="-2.83352">
        <ele>4.9</ele>
        <time>2025-01-28T11:39:04Z</time>
      </trkpt>
      <trkpt lat="47.61324" lon="-2.83352">
        <ele>4.9</ele>
        <time>2025-01-28T11:39:05Z</time>
      </trkpt>
      <trkpt lat="47.61324" lon="-2.83352">
        <ele>4.9</ele>
        <time>2025-01-28T11:39:06Z</time>
      </trkpt>
      <trkpt lat="47.61324" lon="-2.83352">
        <ele>4.9</ele>
        <time>2025-01-28T11:39:07Z</time>
      </trkpt>
      <trkpt lat="47.61324" lon="-2.83352">
        <ele>4.9</ele>
        <time>2025-01-28T11:39:08Z</time>
      </trkpt>
      <trkpt lat="47.61324" lon="-2.83352">
        <ele>4.9</ele>
        <time>2025-01-28T11:39:09Z</time>
      </trkpt>
      <trkpt lat="47.61324" lon="-2.83352">
        <ele>4.9</ele>
        <time>2025-01-28T11:39:10Z</time>
      </trkpt>
      <trkpt lat="47.61324" lon="-2.83352">
        <ele>4.9</ele>
        <time>2025-01-28T11:39:11Z</time>
      </trkpt>
      <trkpt lat="47.61324" lon="-2.83352">
        <ele>4.9</ele>
        <time>2025-01-28T11:39:12Z</time>
      </trkpt>
      <trkpt lat="47.61324" lon="-2.83352">
        <ele>4.9</ele>
        <time>2025-01-28T11:39:13Z</time>
      </trkpt>
      <trkpt lat="47.61324" lon="-2.83352">
        <ele>4.9</ele>
        <time>2025-01-28T11:39:14Z</time>
      </trkpt>
      <trkpt lat="47.61324" lon="-2.83352">
        <ele>4.9</ele>
        <time>2025-01-28T11:39:15Z</time>
      </trkpt>
      <trkpt lat="47.61324" lon="-2.83352">
        <ele>4.8</ele>
        <time>2025-01-28T11:39:16Z</time>
      </trkpt>
      <trkpt lat="47.61324" lon="-2.83352">
        <ele>4.8</ele>
        <time>2025-01-28T11:39:17Z</time>
      </trkpt>
      <trkpt lat="47.61324" lon="-2.83352">
        <ele>4.8</ele>
        <time>2025-01-28T11:39:18Z</time>
      </trkpt>
      <trkpt lat="47.61324" lon="-2.83352">
        <ele>4.8</ele>
        <time>2025-01-28T11:39:19Z</time>
      </trkpt>
      <trkpt lat="47.61324" lon="-2.83352">
        <ele>4.8</ele>
        <time>2025-01-28T11:39:20Z</time>
      </trkpt>
      <trkpt lat="47.61324" lon="-2.83352">
        <ele>4.8</ele>
        <time>2025-01-28T11:39:21Z</time>
      </trkpt>
      <trkpt lat="47.61324" lon="-2.83352">
        <ele>4.8</ele>
        <time>2025-01-28T11:39:22Z</time>
      </trkpt>
      <trkpt lat="47.61324" lon="-2.83352">
        <ele>4.8</ele>
        <time>2025-01-28T11:39:23Z</time>
      </trkpt>
      <trkpt lat="47.61324" lon="-2.83352">
        <ele>4.8</ele>
        <time>2025-01-28T11:39:24Z</time>
      </trkpt>
      <trkpt lat="47.61324" lon="-2.83352">
        <ele>4.8</ele>
        <time>2025-01-28T11:39:25Z</time>
      </trkpt>
      <trkpt lat="47.61324" lon="-2.83352">
        <ele>4.8</ele>
        <time>2025-01-28T11:39:26Z</time>
      </trkpt>
      <trkpt lat="47.61324" lon="-2.83352">
        <ele>4.8</ele>
        <time>2025-01-28T11:39:27Z</time>
      </trkpt>
      <trkpt lat="47.61324" lon="-2.83352">
        <ele>4.8</ele>
        <time>2025-01-28T11:39:28Z</time>
      </trkpt>
      <trkpt lat="47.61324" lon="-2.83352">
        <ele>4.8</ele>
        <time>2025-01-28T11:39:29Z</time>
      </trkpt>
      <trkpt lat="47.61324" lon="-2.83352">
        <ele>4.8</ele>
        <time>2025-01-28T11:39:30Z</time>
      </trkpt>
      <trkpt lat="47.61324" lon="-2.83352">
        <ele>4.8</ele>
        <time>2025-01-28T11:39:31Z</time>
      </trkpt>
      <trkpt lat="47.61324" lon="-2.83352">
        <ele>4.8</ele>
        <time>2025-01-28T11:39:32Z</time>
      </trkpt>
      <trkpt lat="47.61324" lon="-2.83352">
        <ele>4.8</ele>
        <time>2025-01-28T11:39:33Z</time>
      </trkpt>
      <trkpt lat="47.61324" lon="-2.83352">
        <ele>4.8</ele>
        <time>2025-01-28T11:39:34Z</time>
      </trkpt>
      <trkpt lat="47.61324" lon="-2.83352">
        <ele>4.8</ele>
        <time>2025-01-28T11:39:35Z</time>
      </trkpt>
      <trkpt lat="47.61324" lon="-2.83352">
        <ele>4.8</ele>
        <time>2025-01-28T11:39:36Z</time>
      </trkpt>
      <trkpt lat="47.61324" lon="-2.83352">
        <ele>4.8</ele>
        <time>2025-01-28T11:39:37Z</time>
      </trkpt>
      <trkpt lat="47.61324" lon="-2.83352">
        <ele>4.8</ele>
        <time>2025-01-28T11:39:38Z</time>
      </trkpt>
      <trkpt lat="47.61324" lon="-2.83352">
        <ele>4.8</ele>
        <time>2025-01-28T11:39:39Z</time>
      </trkpt>
      <trkpt lat="47.61324" lon="-2.83352">
        <ele>4.8</ele>
        <time>2025-01-28T11:39:40Z</time>
      </trkpt>
      <trkpt lat="47.61324" lon="-2.83352">
        <ele>4.8</ele>
        <time>2025-01-28T11:39:41Z</time>
      </trkpt>
      <trkpt lat="47.61324" lon="-2.83352">
        <ele>4.8</ele>
        <time>2025-01-28T11:39:42Z</time>
      </trkpt>
      <trkpt lat="47.61324" lon="-2.83352">
        <ele>4.8</ele>
        <time>2025-01-28T11:39:43Z</time>
      </trkpt>
      <trkpt lat="47.61324" lon="-2.83352">
        <ele>4.8</ele>
        <time>2025-01-28T11:39:44Z</time>
      </trkpt>
      <trkpt lat="47.61324" lon="-2.83352">
        <ele>4.8</ele>
        <time>2025-01-28T11:39:45Z</time>
      </trkpt>
      <trkpt lat="47.61324" lon="-2.83352">
        <ele>4.8</ele>
        <time>2025-01-28T11:39:46Z</time>
      </trkpt>
      <trkpt lat="47.61324" lon="-2.83352">
        <ele>4.8</ele>
        <time>2025-01-28T11:39:47Z</time>
      </trkpt>
      <trkpt lat="47.61324" lon="-2.83352">
        <ele>4.8</ele>
        <time>2025-01-28T11:39:48Z</time>
      </trkpt>
      <trkpt lat="47.61324" lon="-2.83352">
        <ele>4.8</ele>
        <time>2025-01-28T11:39:49Z</time>
      </trkpt>
      <trkpt lat="47.61324" lon="-2.83352">
        <ele>4.8</ele>
        <time>2025-01-28T11:39:50Z</time>
      </trkpt>
      <trkpt lat="47.61324" lon="-2.83352">
        <ele>4.8</ele>
        <time>2025-01-28T11:39:51Z</time>
      </trkpt>
      <trkpt lat="47.61324" lon="-2.83352">
        <ele>4.8</ele>
        <time>2025-01-28T11:39:52Z</time>
      </trkpt>
      <trkpt lat="47.61324" lon="-2.83352">
        <ele>4.8</ele>
        <time>2025-01-28T11:39:53Z</time>
      </trkpt>
      <trkpt lat="47.61324" lon="-2.83352">
        <ele>4.8</ele>
        <time>2025-01-28T11:39:54Z</time>
      </trkpt>
      <trkpt lat="47.61324" lon="-2.83352">
        <ele>4.8</ele>
        <time>2025-01-28T11:39:55Z</time>
      </trkpt>
      <trkpt lat="47.61324" lon="-2.83352">
        <ele>4.8</ele>
        <time>2025-01-28T11:39:56Z</time>
      </trkpt>
      <trkpt lat="47.61324" lon="-2.83352">
        <ele>4.8</ele>
        <time>2025-01-28T11:39:57Z</time>
      </trkpt>
      <trkpt lat="47.61324" lon="-2.83352">
        <ele>4.8</ele>
        <time>2025-01-28T11:39:58Z</time>
      </trkpt>
      <trkpt lat="47.61324" lon="-2.83352">
        <ele>4.8</ele>
        <time>2025-01-28T11:39:59Z</time>
      </trkpt>
      <trkpt lat="47.61324" lon="-2.83352">
        <ele>4.8</ele>
        <time>2025-01-28T11:40:00Z</time>
      </trkpt>
      <trkpt lat="47.61324" lon="-2.83352">
        <ele>4.8</ele>
        <time>2025-01-28T11:40:01Z</time>
      </trkpt>
      <trkpt lat="47.61324" lon="-2.83352">
        <ele>4.8</ele>
        <time>2025-01-28T11:40:02Z</time>
      </trkpt>
      <trkpt lat="47.61324" lon="-2.83352">
        <ele>4.8</ele>
        <time>2025-01-28T11:40:03Z</time>
      </trkpt>
      <trkpt lat="47.61324" lon="-2.83352">
        <ele>4.8</ele>
        <time>2025-01-28T11:40:04Z</time>
      </trkpt>
      <trkpt lat="47.61324" lon="-2.83352">
        <ele>4.8</ele>
        <time>2025-01-28T11:40:05Z</time>
      </trkpt>
      <trkpt lat="47.61324" lon="-2.83352">
        <ele>4.8</ele>
        <time>2025-01-28T11:40:06Z</time>
      </trkpt>
      <trkpt lat="47.61324" lon="-2.83352">
        <ele>4.8</ele>
        <time>2025-01-28T11:40:07Z</time>
      </trkpt>
      <trkpt lat="47.61324" lon="-2.83352">
        <ele>4.8</ele>
        <time>2025-01-28T11:40:08Z</time>
      </trkpt>
      <trkpt lat="47.61324" lon="-2.83352">
        <ele>4.8</ele>
        <time>2025-01-28T11:40:09Z</time>
      </trkpt>
      <trkpt lat="47.61324" lon="-2.83352">
        <ele>4.8</ele>
        <time>2025-01-28T11:40:10Z</time>
      </trkpt>
      <trkpt lat="47.61324" lon="-2.83352">
        <ele>4.8</ele>
        <time>2025-01-28T11:40:11Z</time>
      </trkpt>
      <trkpt lat="47.61324" lon="-2.83352">
        <ele>4.8</ele>
        <time>2025-01-28T11:40:12Z</time>
      </trkpt>
      <trkpt lat="47.61324" lon="-2.83352">
        <ele>4.8</ele>
        <time>2025-01-28T11:40:13Z</time>
      </trkpt>
      <trkpt lat="47.61324" lon="-2.83352">
        <ele>4.8</ele>
        <time>2025-01-28T11:40:14Z</time>
      </trkpt>
      <trkpt lat="47.61324" lon="-2.83352">
        <ele>4.8</ele>
        <time>2025-01-28T11:40:15Z</time>
      </trkpt>
      <trkpt lat="47.61324" lon="-2.83352">
        <ele>4.8</ele>
        <time>2025-01-28T11:40:16Z</time>
      </trkpt>
      <trkpt lat="47.61324" lon="-2.83352">
        <ele>4.8</ele>
        <time>2025-01-28T11:40:17Z</time>
      </trkpt>
      <trkpt lat="47.61324" lon="-2.83352">
        <ele>4.8</ele>
        <time>2025-01-28T11:40:18Z</time>
      </trkpt>
      <trkpt lat="47.61324" lon="-2.83352">
        <ele>4.8</ele>
        <time>2025-01-28T11:40:19Z</time>
      </trkpt>
      <trkpt lat="47.61324" lon="-2.83352">
        <ele>4.8</ele>
        <time>2025-01-28T11:40:20Z</time>
      </trkpt>
      <trkpt lat="47.61324" lon="-2.83352">
        <ele>4.8</ele>
        <time>2025-01-28T11:40:21Z</time>
      </trkpt>
      <trkpt lat="47.61324" lon="-2.83352">
        <ele>4.8</ele>
        <time>2025-01-28T11:40:22Z</time>
      </trkpt>
      <trkpt lat="47.61324" lon="-2.83352">
        <ele>4.8</ele>
        <time>2025-01-28T11:40:23Z</time>
      </trkpt>
      <trkpt lat="47.61324" lon="-2.83352">
        <ele>4.8</ele>
        <time>2025-01-28T11:40:24Z</time>
      </trkpt>
      <trkpt lat="47.61324" lon="-2.83352">
        <ele>4.8</ele>
        <time>2025-01-28T11:40:25Z</time>
      </trkpt>
      <trkpt lat="47.61324" lon="-2.83352">
        <ele>4.8</ele>
        <time>2025-01-28T11:40:26Z</time>
      </trkpt>
      <trkpt lat="47.61324" lon="-2.83352">
        <ele>4.8</ele>
        <time>2025-01-28T11:40:27Z</time>
      </trkpt>
      <trkpt lat="47.61324" lon="-2.83352">
        <ele>4.8</ele>
        <time>2025-01-28T11:40:28Z</time>
      </trkpt>
      <trkpt lat="47.61324" lon="-2.83352">
        <ele>4.8</ele>
        <time>2025-01-28T11:40:29Z</time>
      </trkpt>
      <trkpt lat="47.61324" lon="-2.83352">
        <ele>4.8</ele>
        <time>2025-01-28T11:40:30Z</time>
      </trkpt>
      <trkpt lat="47.61324" lon="-2.83352">
        <ele>4.8</ele>
        <time>2025-01-28T11:40:31Z</time>
      </trkpt>
      <trkpt lat="47.61324" lon="-2.83352">
        <ele>4.8</ele>
        <time>2025-01-28T11:40:32Z</time>
      </trkpt>
      <trkpt lat="47.61324" lon="-2.83352">
        <ele>4.8</ele>
        <time>2025-01-28T11:40:33Z</time>
      </trkpt>
      <trkpt lat="47.61324" lon="-2.83352">
        <ele>4.8</ele>
        <time>2025-01-28T11:40:34Z</time>
      </trkpt>
      <trkpt lat="47.61324" lon="-2.83352">
        <ele>4.8</ele>
        <time>2025-01-28T11:40:35Z</time>
      </trkpt>
      <trkpt lat="47.61324" lon="-2.83352">
        <ele>4.8</ele>
        <time>2025-01-28T11:40:36Z</time>
      </trkpt>
      <trkpt lat="47.61324" lon="-2.83352">
        <ele>4.8</ele>
        <time>2025-01-28T11:40:37Z</time>
      </trkpt>
      <trkpt lat="47.61324" lon="-2.83352">
        <ele>4.8</ele>
        <time>2025-01-28T11:40:38Z</time>
      </trkpt>
      <trkpt lat="47.61324" lon="-2.83352">
        <ele>4.8</ele>
        <time>2025-01-28T11:40:39Z</time>
      </trkpt>
      <trkpt lat="47.61324" lon="-2.83352">
        <ele>4.8</ele>
        <time>2025-01-28T11:40:40Z</time>
      </trkpt>
      <trkpt lat="47.61324" lon="-2.83352">
        <ele>4.8</ele>
        <time>2025-01-28T11:40:41Z</time>
      </trkpt>
      <trkpt lat="47.61324" lon="-2.83352">
        <ele>4.8</ele>
        <time>2025-01-28T11:40:42Z</time>
      </trkpt>
      <trkpt lat="47.61324" lon="-2.83352">
        <ele>4.8</ele>
        <time>2025-01-28T11:40:43Z</time>
      </trkpt>
      <trkpt lat="47.61324" lon="-2.83352">
        <ele>4.8</ele>
        <time>2025-01-28T11:40:44Z</time>
      </trkpt>
      <trkpt lat="47.61324" lon="-2.83352">
        <ele>4.8</ele>
        <time>2025-01-28T11:40:45Z</time>
      </trkpt>
      <trkpt lat="47.61324" lon="-2.83352">
        <ele>4.8</ele>
        <time>2025-01-28T11:40:46Z</time>
      </trkpt>
      <trkpt lat="47.61324" lon="-2.83352">
        <ele>4.8</ele>
        <time>2025-01-28T11:40:47Z</time>
      </trkpt>
      <trkpt lat="47.61324" lon="-2.83352">
        <ele>4.8</ele>
        <time>2025-01-28T11:40:48Z</time>
      </trkpt>
      <trkpt lat="47.61324" lon="-2.83352">
        <ele>4.8</ele>
        <time>2025-01-28T11:40:49Z</time>
      </trkpt>
      <trkpt lat="47.61324" lon="-2.83352">
        <ele>4.8</ele>
        <time>2025-01-28T11:40:50Z</time>
      </trkpt>
      <trkpt lat="47.61324" lon="-2.83352">
        <ele>4.8</ele>
        <time>2025-01-28T11:40:51Z</time>
      </trkpt>
      <trkpt lat="47.61324" lon="-2.83352">
        <ele>4.8</ele>
        <time>2025-01-28T11:40:52Z</time>
      </trkpt>
      <trkpt lat="47.61324" lon="-2.83352">
        <ele>4.8</ele>
        <time>2025-01-28T11:40:53Z</time>
      </trkpt>
      <trkpt lat="47.61324" lon="-2.83352">
        <ele>4.8</ele>
        <time>2025-01-28T11:40:54Z</time>
      </trkpt>
      <trkpt lat="47.61324" lon="-2.83352">
        <ele>4.8</ele>
        <time>2025-01-28T11:40:55Z</time>
      </trkpt>
      <trkpt lat="47.61324" lon="-2.83352">
        <ele>4.8</ele>
        <time>2025-01-28T11:40:56Z</time>
      </trkpt>
      <trkpt lat="47.61324" lon="-2.83352">
        <ele>4.8</ele>
        <time>2025-01-28T11:40:57Z</time>
      </trkpt>
      <trkpt lat="47.61324" lon="-2.83352">
        <ele>4.8</ele>
        <time>2025-01-28T11:40:58Z</time>
      </trkpt>
      <trkpt lat="47.61324" lon="-2.83352">
        <ele>4.8</ele>
        <time>2025-01-28T11:40:59Z</time>
      </trkpt>
      <trkpt lat="47.61324" lon="-2.83352">
        <ele>4.8</ele>
        <time>2025-01-28T11:41:00Z</time>
      </trkpt>
      <trkpt lat="47.61324" lon="-2.83352">
        <ele>4.8</ele>
        <time>2025-01-28T11:41:01Z</time>
      </trkpt>
      <trkpt lat="47.61324" lon="-2.83352">
        <ele>4.8</ele>
        <time>2025-01-28T11:41:02Z</time>
      </trkpt>
      <trkpt lat="47.61324" lon="-2.83352">
        <ele>4.8</ele>
        <time>2025-01-28T11:41:03Z</time>
      </trkpt>
      <trkpt lat="47.61324" lon="-2.83352">
        <ele>4.8</ele>
        <time>2025-01-28T11:41:04Z</time>
      </trkpt>
      <trkpt lat="47.61324" lon="-2.83352">
        <ele>4.8</ele>
        <time>2025-01-28T11:41:05Z</time>
      </trkpt>
      <trkpt lat="47.61324" lon="-2.83352">
        <ele>4.8</ele>
        <time>2025-01-28T11:41:06Z</time>
      </trkpt>
      <trkpt lat="47.61324" lon="-2.83352">
        <ele>4.8</ele>
        <time>2025-01-28T11:41:07Z</time>
      </trkpt>
      <trkpt lat="47.61324" lon="-2.83352">
        <ele>4.8</ele>
        <time>2025-01-28T11:41:08Z</time>
      </trkpt>
      <trkpt lat="47.61324" lon="-2.83352">
        <ele>4.8</ele>
        <time>2025-01-28T11:41:09Z</time>
      </trkpt>
      <trkpt lat="47.61324" lon="-2.83352">
        <ele>4.8</ele>
        <time>2025-01-28T11:41:10Z</time>
      </trkpt>
      <trkpt lat="47.61324" lon="-2.83352">
        <ele>4.8</ele>
        <time>2025-01-28T11:41:11Z</time>
      </trkpt>
      <trkpt lat="47.61324" lon="-2.83352">
        <ele>4.8</ele>
        <time>2025-01-28T11:41:12Z</time>
      </trkpt>
      <trkpt lat="47.61324" lon="-2.83352">
        <ele>4.8</ele>
        <time>2025-01-28T11:41:13Z</time>
      </trkpt>
      <trkpt lat="47.61324" lon="-2.83352">
        <ele>4.8</ele>
        <time>2025-01-28T11:41:14Z</time>
      </trkpt>
      <trkpt lat="47.61324" lon="-2.83352">
        <ele>4.8</ele>
        <time>2025-01-28T11:41:15Z</time>
      </trkpt>
      <trkpt lat="47.61324" lon="-2.83352">
        <ele>4.8</ele>
        <time>2025-01-28T11:41:16Z</time>
      </trkpt>
      <trkpt lat="47.61324" lon="-2.83352">
        <ele>4.8</ele>
        <time>2025-01-28T11:41:17Z</time>
      </trkpt>
      <trkpt lat="47.61324" lon="-2.83352">
        <ele>4.8</ele>
        <time>2025-01-28T11:41:18Z</time>
      </trkpt>
      <trkpt lat="47.61324" lon="-2.83352">
        <ele>4.8</ele>
        <time>2025-01-28T11:41:19Z</time>
      </trkpt>
      <trkpt lat="47.61324" lon="-2.83352">
        <ele>4.8</ele>
        <time>2025-01-28T11:41:20Z</time>
      </trkpt>
      <trkpt lat="47.61324" lon="-2.83352">
        <ele>4.8</ele>
        <time>2025-01-28T11:41:21Z</time>
      </trkpt>
      <trkpt lat="47.61324" lon="-2.83352">
        <ele>4.8</ele>
        <time>2025-01-28T11:41:22Z</time>
      </trkpt>
      <trkpt lat="47.61324" lon="-2.83352">
        <ele>4.8</ele>
        <time>2025-01-28T11:41:23Z</time>
      </trkpt>
      <trkpt lat="47.61324" lon="-2.83352">
        <ele>4.8</ele>
        <time>2025-01-28T11:41:24Z</time>
      </trkpt>
      <trkpt lat="47.61324" lon="-2.83352">
        <ele>4.8</ele>
        <time>2025-01-28T11:41:25Z</time>
      </trkpt>
      <trkpt lat="47.61324" lon="-2.83352">
        <ele>4.8</ele>
        <time>2025-01-28T11:41:26Z</time>
      </trkpt>
      <trkpt lat="47.61324" lon="-2.83352">
        <ele>4.8</ele>
        <time>2025-01-28T11:41:27Z</time>
      </trkpt>
      <trkpt lat="47.61324" lon="-2.83352">
        <ele>4.8</ele>
        <time>2025-01-28T11:41:28Z</time>
      </trkpt>
      <trkpt lat="47.61324" lon="-2.83352">
        <ele>4.8</ele>
        <time>2025-01-28T11:41:29Z</time>
      </trkpt>
      <trkpt lat="47.61324" lon="-2.83352">
        <ele>4.8</ele>
        <time>2025-01-28T11:41:30Z</time>
      </trkpt>
      <trkpt lat="47.61324" lon="-2.83352">
        <ele>4.8</ele>
        <time>2025-01-28T11:41:31Z</time>
      </trkpt>
      <trkpt lat="47.61324" lon="-2.83352">
        <ele>4.8</ele>
        <time>2025-01-28T11:41:32Z</time>
      </trkpt>
      <trkpt lat="47.61324" lon="-2.83352">
        <ele>4.8</ele>
        <time>2025-01-28T11:41:33Z</time>
      </trkpt>
      <trkpt lat="47.61324" lon="-2.83352">
        <ele>4.8</ele>
        <time>2025-01-28T11:41:34Z</time>
      </trkpt>
      <trkpt lat="47.61324" lon="-2.83352">
        <ele>4.8</ele>
        <time>2025-01-28T11:41:35Z</time>
      </trkpt>
      <trkpt lat="47.61324" lon="-2.83352">
        <ele>4.8</ele>
        <time>2025-01-28T11:41:36Z</time>
      </trkpt>
      <trkpt lat="47.61324" lon="-2.83352">
        <ele>4.8</ele>
        <time>2025-01-28T11:41:37Z</time>
      </trkpt>
      <trkpt lat="47.61324" lon="-2.83352">
        <ele>4.8</ele>
        <time>2025-01-28T11:41:38Z</time>
      </trkpt>
      <trkpt lat="47.61324" lon="-2.83352">
        <ele>4.8</ele>
        <time>2025-01-28T11:41:39Z</time>
      </trkpt>
      <trkpt lat="47.61324" lon="-2.83352">
        <ele>4.8</ele>
        <time>2025-01-28T11:41:40Z</time>
      </trkpt>
      <trkpt lat="47.61324" lon="-2.83352">
        <ele>4.8</ele>
        <time>2025-01-28T11:41:41Z</time>
      </trkpt>
      <trkpt lat="47.61324" lon="-2.83352">
        <ele>4.8</ele>
        <time>2025-01-28T11:41:42Z</time>
      </trkpt>
      <trkpt lat="47.61324" lon="-2.83352">
        <ele>4.8</ele>
        <time>2025-01-28T11:41:43Z</time>
      </trkpt>
      <trkpt lat="47.61324" lon="-2.83352">
        <ele>4.8</ele>
        <time>2025-01-28T11:41:44Z</time>
      </trkpt>
      <trkpt lat="47.61324" lon="-2.83352">
        <ele>4.8</ele>
        <time>2025-01-28T11:41:45Z</time>
      </trkpt>
      <trkpt lat="47.61324" lon="-2.83352">
        <ele>4.8</ele>
        <time>2025-01-28T11:41:46Z</time>
      </trkpt>
      <trkpt lat="47.61323" lon="-2.83352">
        <ele>4.7</ele>
        <time>2025-01-28T11:41:47Z</time>
      </trkpt>
      <trkpt lat="47.61323" lon="-2.83352">
        <ele>4.7</ele>
        <time>2025-01-28T11:41:48Z</time>
      </trkpt>
      <trkpt lat="47.61323" lon="-2.83352">
        <ele>4.7</ele>
        <time>2025-01-28T11:41:49Z</time>
      </trkpt>
      <trkpt lat="47.61323" lon="-2.83352">
        <ele>4.7</ele>
        <time>2025-01-28T11:41:50Z</time>
      </trkpt>
      <trkpt lat="47.61323" lon="-2.83352">
        <ele>4.7</ele>
        <time>2025-01-28T11:41:51Z</time>
      </trkpt>
      <trkpt lat="47.61323" lon="-2.83352">
        <ele>4.7</ele>
        <time>2025-01-28T11:41:52Z</time>
      </trkpt>
      <trkpt lat="47.61323" lon="-2.83352">
        <ele>4.7</ele>
        <time>2025-01-28T11:41:53Z</time>
      </trkpt>
      <trkpt lat="47.61323" lon="-2.83352">
        <ele>4.7</ele>
        <time>2025-01-28T11:41:54Z</time>
      </trkpt>
      <trkpt lat="47.61323" lon="-2.83352">
        <ele>4.7</ele>
        <time>2025-01-28T11:41:55Z</time>
      </trkpt>
      <trkpt lat="47.61323" lon="-2.83352">
        <ele>4.7</ele>
        <time>2025-01-28T11:41:56Z</time>
      </trkpt>
      <trkpt lat="47.61323" lon="-2.83352">
        <ele>4.7</ele>
        <time>2025-01-28T11:41:57Z</time>
      </trkpt>
      <trkpt lat="47.61323" lon="-2.83352">
        <ele>4.7</ele>
        <time>2025-01-28T11:41:58Z</time>
      </trkpt>
      <trkpt lat="47.61323" lon="-2.83352">
        <ele>4.7</ele>
        <time>2025-01-28T11:41:59Z</time>
      </trkpt>
      <trkpt lat="47.61323" lon="-2.83352">
        <ele>4.7</ele>
        <time>2025-01-28T11:42:00Z</time>
      </trkpt>
      <trkpt lat="47.61323" lon="-2.83352">
        <ele>4.7</ele>
        <time>2025-01-28T11:42:01Z</time>
      </trkpt>
      <trkpt lat="47.61323" lon="-2.83352">
        <ele>4.8</ele>
        <time>2025-01-28T11:42:02Z</time>
      </trkpt>
      <trkpt lat="47.61323" lon="-2.83352">
        <ele>4.8</ele>
        <time>2025-01-28T11:42:03Z</time>
      </trkpt>
      <trkpt lat="47.61323" lon="-2.83352">
        <ele>4.7</ele>
        <time>2025-01-28T11:42:04Z</time>
      </trkpt>
      <trkpt lat="47.61323" lon="-2.83351">
        <ele>4.7</ele>
        <time>2025-01-28T11:42:05Z</time>
      </trkpt>
      <trkpt lat="47.61323" lon="-2.83351">
        <ele>4.5</ele>
        <time>2025-01-28T11:42:06Z</time>
      </trkpt>
      <trkpt lat="47.61322" lon="-2.83351">
        <ele>4.5</ele>
        <time>2025-01-28T11:42:07Z</time>
      </trkpt>
      <trkpt lat="47.61322" lon="-2.83352">
        <ele>4.5</ele>
        <time>2025-01-28T11:42:08Z</time>
      </trkpt>
      <trkpt lat="47.61322" lon="-2.83352">
        <ele>4.5</ele>
        <time>2025-01-28T11:42:09Z</time>
      </trkpt>
      <trkpt lat="47.61322" lon="-2.83352">
        <ele>4.5</ele>
        <time>2025-01-28T11:42:10Z</time>
      </trkpt>
      <trkpt lat="47.61322" lon="-2.83352">
        <ele>4.5</ele>
        <time>2025-01-28T11:42:11Z</time>
      </trkpt>
      <trkpt lat="47.61322" lon="-2.83352">
        <ele>4.5</ele>
        <time>2025-01-28T11:42:12Z</time>
      </trkpt>
      <trkpt lat="47.61322" lon="-2.83352">
        <ele>4.6</ele>
        <time>2025-01-28T11:42:13Z</time>
      </trkpt>
      <trkpt lat="47.61322" lon="-2.83352">
        <ele>4.6</ele>
        <time>2025-01-28T11:42:14Z</time>
      </trkpt>
      <trkpt lat="47.61322" lon="-2.83352">
        <ele>4.6</ele>
        <time>2025-01-28T11:42:15Z</time>
      </trkpt>
      <trkpt lat="47.61322" lon="-2.83352">
        <ele>4.6</ele>
        <time>2025-01-28T11:42:16Z</time>
      </trkpt>
      <trkpt lat="47.61322" lon="-2.83352">
        <ele>4.6</ele>
        <time>2025-01-28T11:42:17Z</time>
      </trkpt>
      <trkpt lat="47.61322" lon="-2.83352">
        <ele>4.6</ele>
        <time>2025-01-28T11:42:18Z</time>
      </trkpt>
      <trkpt lat="47.61322" lon="-2.83352">
        <ele>4.6</ele>
        <time>2025-01-28T11:42:19Z</time>
      </trkpt>
      <trkpt lat="47.61322" lon="-2.83352">
        <ele>4.6</ele>
        <time>2025-01-28T11:42:20Z</time>
      </trkpt>
      <trkpt lat="47.61322" lon="-2.83352">
        <ele>4.6</ele>
        <time>2025-01-28T11:42:21Z</time>
      </trkpt>
      <trkpt lat="47.61322" lon="-2.83352">
        <ele>4.6</ele>
        <time>2025-01-28T11:42:22Z</time>
      </trkpt>
      <trkpt lat="47.61322" lon="-2.83352">
        <ele>4.6</ele>
        <time>2025-01-28T11:42:23Z</time>
      </trkpt>
      <trkpt lat="47.61322" lon="-2.83352">
        <ele>4.6</ele>
        <time>2025-01-28T11:42:24Z</time>
      </trkpt>
      <trkpt lat="47.61322" lon="-2.83352">
        <ele>4.6</ele>
        <time>2025-01-28T11:42:25Z</time>
      </trkpt>
      <trkpt lat="47.61322" lon="-2.83352">
        <ele>4.6</ele>
        <time>2025-01-28T11:42:26Z</time>
      </trkpt>
      <trkpt lat="47.61322" lon="-2.83352">
        <ele>4.6</ele>
        <time>2025-01-28T11:42:27Z</time>
      </trkpt>
      <trkpt lat="47.61322" lon="-2.83352">
        <ele>4.6</ele>
        <time>2025-01-28T11:42:28Z</time>
      </trkpt>
      <trkpt lat="47.61322" lon="-2.83352">
        <ele>4.6</ele>
        <time>2025-01-28T11:42:29Z</time>
      </trkpt>
      <trkpt lat="47.61322" lon="-2.83352">
        <ele>4.6</ele>
        <time>2025-01-28T11:42:30Z</time>
      </trkpt>
      <trkpt lat="47.61322" lon="-2.83352">
        <ele>4.6</ele>
        <time>2025-01-28T11:42:31Z</time>
      </trkpt>
      <trkpt lat="47.61322" lon="-2.83352">
        <ele>4.6</ele>
        <time>2025-01-28T11:42:32Z</time>
      </trkpt>
      <trkpt lat="47.61322" lon="-2.83352">
        <ele>4.6</ele>
        <time>2025-01-28T11:42:33Z</time>
      </trkpt>
      <trkpt lat="47.61322" lon="-2.83352">
        <ele>4.6</ele>
        <time>2025-01-28T11:42:34Z</time>
      </trkpt>
      <trkpt lat="47.61322" lon="-2.83352">
        <ele>4.6</ele>
        <time>2025-01-28T11:42:35Z</time>
      </trkpt>
      <trkpt lat="47.61322" lon="-2.83352">
        <ele>4.6</ele>
        <time>2025-01-28T11:42:36Z</time>
      </trkpt>
      <trkpt lat="47.61322" lon="-2.83352">
        <ele>4.6</ele>
        <time>2025-01-28T11:42:37Z</time>
      </trkpt>
      <trkpt lat="47.61322" lon="-2.83352">
        <ele>4.6</ele>
        <time>2025-01-28T11:42:38Z</time>
      </trkpt>
      <trkpt lat="47.61322" lon="-2.83352">
        <ele>4.6</ele>
        <time>2025-01-28T11:42:39Z</time>
      </trkpt>
      <trkpt lat="47.61322" lon="-2.83352">
        <ele>4.6</ele>
        <time>2025-01-28T11:42:40Z</time>
      </trkpt>
      <trkpt lat="47.61322" lon="-2.83352">
        <ele>4.6</ele>
        <time>2025-01-28T11:42:41Z</time>
      </trkpt>
      <trkpt lat="47.61322" lon="-2.83352">
        <ele>4.6</ele>
        <time>2025-01-28T11:42:42Z</time>
      </trkpt>
      <trkpt lat="47.61322" lon="-2.83352">
        <ele>4.6</ele>
        <time>2025-01-28T11:42:43Z</time>
      </trkpt>
      <trkpt lat="47.61322" lon="-2.83352">
        <ele>4.6</ele>
        <time>2025-01-28T11:42:44Z</time>
      </trkpt>
      <trkpt lat="47.61322" lon="-2.83352">
        <ele>4.6</ele>
        <time>2025-01-28T11:42:45Z</time>
      </trkpt>
      <trkpt lat="47.61322" lon="-2.83352">
        <ele>4.6</ele>
        <time>2025-01-28T11:42:46Z</time>
      </trkpt>
      <trkpt lat="47.61322" lon="-2.83352">
        <ele>4.6</ele>
        <time>2025-01-28T11:42:47Z</time>
      </trkpt>
      <trkpt lat="47.61322" lon="-2.83352">
        <ele>4.6</ele>
        <time>2025-01-28T11:42:48Z</time>
      </trkpt>
      <trkpt lat="47.61322" lon="-2.83352">
        <ele>4.6</ele>
        <time>2025-01-28T11:42:49Z</time>
      </trkpt>
      <trkpt lat="47.61322" lon="-2.83352">
        <ele>4.6</ele>
        <time>2025-01-28T11:42:50Z</time>
      </trkpt>
      <trkpt lat="47.61322" lon="-2.83352">
        <ele>4.6</ele>
        <time>2025-01-28T11:42:51Z</time>
      </trkpt>
      <trkpt lat="47.61322" lon="-2.83352">
        <ele>4.6</ele>
        <time>2025-01-28T11:42:52Z</time>
      </trkpt>
      <trkpt lat="47.61322" lon="-2.83352">
        <ele>4.6</ele>
        <time>2025-01-28T11:42:53Z</time>
      </trkpt>
      <trkpt lat="47.61322" lon="-2.83352">
        <ele>4.6</ele>
        <time>2025-01-28T11:42:54Z</time>
      </trkpt>
      <trkpt lat="47.61322" lon="-2.83352">
        <ele>4.6</ele>
        <time>2025-01-28T11:42:55Z</time>
      </trkpt>
      <trkpt lat="47.61322" lon="-2.83352">
        <ele>4.6</ele>
        <time>2025-01-28T11:42:56Z</time>
      </trkpt>
      <trkpt lat="47.61322" lon="-2.83352">
        <ele>4.6</ele>
        <time>2025-01-28T11:42:57Z</time>
      </trkpt>
      <trkpt lat="47.61322" lon="-2.83352">
        <ele>4.6</ele>
        <time>2025-01-28T11:42:58Z</time>
      </trkpt>
      <trkpt lat="47.61322" lon="-2.83352">
        <ele>4.6</ele>
        <time>2025-01-28T11:42:59Z</time>
      </trkpt>
      <trkpt lat="47.61322" lon="-2.83352">
        <ele>4.6</ele>
        <time>2025-01-28T11:43:00Z</time>
      </trkpt>
      <trkpt lat="47.61322" lon="-2.83352">
        <ele>4.6</ele>
        <time>2025-01-28T11:43:01Z</time>
      </trkpt>
      <trkpt lat="47.61322" lon="-2.83352">
        <ele>4.6</ele>
        <time>2025-01-28T11:43:02Z</time>
      </trkpt>
      <trkpt lat="47.61322" lon="-2.83352">
        <ele>4.6</ele>
        <time>2025-01-28T11:43:03Z</time>
      </trkpt>
      <trkpt lat="47.61322" lon="-2.83352">
        <ele>4.6</ele>
        <time>2025-01-28T11:43:04Z</time>
      </trkpt>
      <trkpt lat="47.61322" lon="-2.83352">
        <ele>4.6</ele>
        <time>2025-01-28T11:43:05Z</time>
      </trkpt>
      <trkpt lat="47.61322" lon="-2.83352">
        <ele>4.6</ele>
        <time>2025-01-28T11:43:06Z</time>
      </trkpt>
      <trkpt lat="47.61322" lon="-2.83352">
        <ele>4.6</ele>
        <time>2025-01-28T11:43:07Z</time>
      </trkpt>
      <trkpt lat="47.61322" lon="-2.83352">
        <ele>4.6</ele>
        <time>2025-01-28T11:43:08Z</time>
      </trkpt>
      <trkpt lat="47.61322" lon="-2.83352">
        <ele>4.6</ele>
        <time>2025-01-28T11:43:09Z</time>
      </trkpt>
      <trkpt lat="47.61322" lon="-2.83352">
        <ele>4.6</ele>
        <time>2025-01-28T11:43:10Z</time>
      </trkpt>
      <trkpt lat="47.61322" lon="-2.83352">
        <ele>4.6</ele>
        <time>2025-01-28T11:43:11Z</time>
      </trkpt>
      <trkpt lat="47.61322" lon="-2.83352">
        <ele>4.6</ele>
        <time>2025-01-28T11:43:12Z</time>
      </trkpt>
      <trkpt lat="47.61322" lon="-2.83352">
        <ele>4.6</ele>
        <time>2025-01-28T11:43:13Z</time>
      </trkpt>
      <trkpt lat="47.61322" lon="-2.83352">
        <ele>4.6</ele>
        <time>2025-01-28T11:43:14Z</time>
      </trkpt>
      <trkpt lat="47.61322" lon="-2.83352">
        <ele>4.6</ele>
        <time>2025-01-28T11:43:15Z</time>
      </trkpt>
      <trkpt lat="47.61322" lon="-2.83352">
        <ele>4.6</ele>
        <time>2025-01-28T11:43:16Z</time>
      </trkpt>
      <trkpt lat="47.61322" lon="-2.83352">
        <ele>4.6</ele>
        <time>2025-01-28T11:43:17Z</time>
      </trkpt>
      <trkpt lat="47.61322" lon="-2.83352">
        <ele>4.6</ele>
        <time>2025-01-28T11:43:18Z</time>
      </trkpt>
      <trkpt lat="47.61322" lon="-2.83352">
        <ele>4.6</ele>
        <time>2025-01-28T11:43:19Z</time>
      </trkpt>
      <trkpt lat="47.61322" lon="-2.83352">
        <ele>4.6</ele>
        <time>2025-01-28T11:43:20Z</time>
      </trkpt>
      <trkpt lat="47.61322" lon="-2.83352">
        <ele>4.6</ele>
        <time>2025-01-28T11:43:21Z</time>
      </trkpt>
      <trkpt lat="47.61322" lon="-2.83352">
        <ele>4.6</ele>
        <time>2025-01-28T11:43:22Z</time>
      </trkpt>
      <trkpt lat="47.61322" lon="-2.83352">
        <ele>4.6</ele>
        <time>2025-01-28T11:43:23Z</time>
      </trkpt>
      <trkpt lat="47.61322" lon="-2.83352">
        <ele>4.6</ele>
        <time>2025-01-28T11:43:24Z</time>
      </trkpt>
      <trkpt lat="47.61322" lon="-2.83352">
        <ele>4.6</ele>
        <time>2025-01-28T11:43:25Z</time>
      </trkpt>
      <trkpt lat="47.61322" lon="-2.83352">
        <ele>4.6</ele>
        <time>2025-01-28T11:43:26Z</time>
      </trkpt>
      <trkpt lat="47.61322" lon="-2.83352">
        <ele>4.6</ele>
        <time>2025-01-28T11:43:27Z</time>
      </trkpt>
      <trkpt lat="47.61322" lon="-2.83352">
        <ele>4.6</ele>
        <time>2025-01-28T11:43:28Z</time>
      </trkpt>
      <trkpt lat="47.61322" lon="-2.83352">
        <ele>4.6</ele>
        <time>2025-01-28T11:43:29Z</time>
      </trkpt>
      <trkpt lat="47.61322" lon="-2.83352">
        <ele>4.6</ele>
        <time>2025-01-28T11:43:30Z</time>
      </trkpt>
      <trkpt lat="47.61322" lon="-2.83352">
        <ele>4.6</ele>
        <time>2025-01-28T11:43:31Z</time>
      </trkpt>
      <trkpt lat="47.61322" lon="-2.83352">
        <ele>4.6</ele>
        <time>2025-01-28T11:43:32Z</time>
      </trkpt>
      <trkpt lat="47.61322" lon="-2.83352">
        <ele>4.6</ele>
        <time>2025-01-28T11:43:33Z</time>
      </trkpt>
      <trkpt lat="47.61322" lon="-2.83352">
        <ele>4.6</ele>
        <time>2025-01-28T11:43:34Z</time>
      </trkpt>
      <trkpt lat="47.61322" lon="-2.83352">
        <ele>4.6</ele>
        <time>2025-01-28T11:43:35Z</time>
      </trkpt>
      <trkpt lat="47.61322" lon="-2.83352">
        <ele>4.6</ele>
        <time>2025-01-28T11:43:36Z</time>
      </trkpt>
      <trkpt lat="47.61322" lon="-2.83352">
        <ele>4.6</ele>
        <time>2025-01-28T11:43:37Z</time>
      </trkpt>
      <trkpt lat="47.61322" lon="-2.83352">
        <ele>4.6</ele>
        <time>2025-01-28T11:43:38Z</time>
      </trkpt>
      <trkpt lat="47.61322" lon="-2.83352">
        <ele>4.6</ele>
        <time>2025-01-28T11:43:39Z</time>
      </trkpt>
      <trkpt lat="47.61322" lon="-2.83352">
        <ele>4.6</ele>
        <time>2025-01-28T11:43:40Z</time>
      </trkpt>
      <trkpt lat="47.61322" lon="-2.83352">
        <ele>4.6</ele>
        <time>2025-01-28T11:43:41Z</time>
      </trkpt>
      <trkpt lat="47.61322" lon="-2.83352">
        <ele>4.6</ele>
        <time>2025-01-28T11:43:42Z</time>
      </trkpt>
      <trkpt lat="47.61322" lon="-2.83352">
        <ele>4.6</ele>
        <time>2025-01-28T11:43:43Z</time>
      </trkpt>
      <trkpt lat="47.61322" lon="-2.83352">
        <ele>4.6</ele>
        <time>2025-01-28T11:43:44Z</time>
      </trkpt>
      <trkpt lat="47.61322" lon="-2.83352">
        <ele>4.6</ele>
        <time>2025-01-28T11:43:45Z</time>
      </trkpt>
      <trkpt lat="47.61322" lon="-2.83352">
        <ele>4.6</ele>
        <time>2025-01-28T11:43:46Z</time>
      </trkpt>
      <trkpt lat="47.61322" lon="-2.83352">
        <ele>4.5</ele>
        <time>2025-01-28T11:43:47Z</time>
      </trkpt>
      <trkpt lat="47.61322" lon="-2.83352">
        <ele>4.5</ele>
        <time>2025-01-28T11:43:48Z</time>
      </trkpt>
      <trkpt lat="47.61322" lon="-2.83352">
        <ele>4.5</ele>
        <time>2025-01-28T11:43:49Z</time>
      </trkpt>
      <trkpt lat="47.61322" lon="-2.83352">
        <ele>4.5</ele>
        <time>2025-01-28T11:43:50Z</time>
      </trkpt>
      <trkpt lat="47.61322" lon="-2.83352">
        <ele>4.5</ele>
        <time>2025-01-28T11:43:51Z</time>
      </trkpt>
      <trkpt lat="47.61322" lon="-2.83352">
        <ele>4.5</ele>
        <time>2025-01-28T11:43:52Z</time>
      </trkpt>
      <trkpt lat="47.61322" lon="-2.83352">
        <ele>4.5</ele>
        <time>2025-01-28T11:43:53Z</time>
      </trkpt>
      <trkpt lat="47.61322" lon="-2.83352">
        <ele>4.5</ele>
        <time>2025-01-28T11:43:54Z</time>
      </trkpt>
      <trkpt lat="47.61322" lon="-2.83352">
        <ele>4.5</ele>
        <time>2025-01-28T11:43:55Z</time>
      </trkpt>
      <trkpt lat="47.61322" lon="-2.83352">
        <ele>4.5</ele>
        <time>2025-01-28T11:43:56Z</time>
      </trkpt>
      <trkpt lat="47.61322" lon="-2.83352">
        <ele>4.5</ele>
        <time>2025-01-28T11:43:57Z</time>
      </trkpt>
      <trkpt lat="47.61322" lon="-2.83352">
        <ele>4.5</ele>
        <time>2025-01-28T11:43:58Z</time>
      </trkpt>
      <trkpt lat="47.61322" lon="-2.83352">
        <ele>4.5</ele>
        <time>2025-01-28T11:43:59Z</time>
      </trkpt>
      <trkpt lat="47.61322" lon="-2.83352">
        <ele>4.5</ele>
        <time>2025-01-28T11:44:00Z</time>
      </trkpt>
      <trkpt lat="47.61322" lon="-2.83352">
        <ele>4.5</ele>
        <time>2025-01-28T11:44:01Z</time>
      </trkpt>
      <trkpt lat="47.61322" lon="-2.83352">
        <ele>4.5</ele>
        <time>2025-01-28T11:44:02Z</time>
      </trkpt>
      <trkpt lat="47.61322" lon="-2.83352">
        <ele>4.5</ele>
        <time>2025-01-28T11:44:03Z</time>
      </trkpt>
      <trkpt lat="47.61322" lon="-2.83352">
        <ele>4.5</ele>
        <time>2025-01-28T11:44:04Z</time>
      </trkpt>
      <trkpt lat="47.61322" lon="-2.83352">
        <ele>4.5</ele>
        <time>2025-01-28T11:44:05Z</time>
      </trkpt>
      <trkpt lat="47.61322" lon="-2.83352">
        <ele>4.5</ele>
        <time>2025-01-28T11:44:06Z</time>
      </trkpt>
      <trkpt lat="47.61322" lon="-2.83352">
        <ele>4.5</ele>
        <time>2025-01-28T11:44:07Z</time>
      </trkpt>
      <trkpt lat="47.61322" lon="-2.83352">
        <ele>4.5</ele>
        <time>2025-01-28T11:44:08Z</time>
      </trkpt>
      <trkpt lat="47.61322" lon="-2.83352">
        <ele>4.5</ele>
        <time>2025-01-28T11:44:09Z</time>
      </trkpt>
      <trkpt lat="47.61322" lon="-2.83352">
        <ele>4.5</ele>
        <time>2025-01-28T11:44:10Z</time>
      </trkpt>
      <trkpt lat="47.61322" lon="-2.83352">
        <ele>4.5</ele>
        <time>2025-01-28T11:44:11Z</time>
      </trkpt>
      <trkpt lat="47.61322" lon="-2.83352">
        <ele>4.5</ele>
        <time>2025-01-28T11:44:12Z</time>
      </trkpt>
      <trkpt lat="47.61322" lon="-2.83352">
        <ele>4.5</ele>
        <time>2025-01-28T11:44:13Z</time>
      </trkpt>
      <trkpt lat="47.61322" lon="-2.83352">
        <ele>4.5</ele>
        <time>2025-01-28T11:44:14Z</time>
      </trkpt>
      <trkpt lat="47.61322" lon="-2.83352">
        <ele>4.5</ele>
        <time>2025-01-28T11:44:15Z</time>
      </trkpt>
      <trkpt lat="47.61322" lon="-2.83352">
        <ele>4.5</ele>
        <time>2025-01-28T11:44:16Z</time>
      </trkpt>
      <trkpt lat="47.61322" lon="-2.83352">
        <ele>4.5</ele>
        <time>2025-01-28T11:44:17Z</time>
      </trkpt>
      <trkpt lat="47.61322" lon="-2.83352">
        <ele>4.5</ele>
        <time>2025-01-28T11:44:18Z</time>
      </trkpt>
      <trkpt lat="47.61322" lon="-2.83352">
        <ele>4.5</ele>
        <time>2025-01-28T11:44:19Z</time>
      </trkpt>
      <trkpt lat="47.61322" lon="-2.83352">
        <ele>4.5</ele>
        <time>2025-01-28T11:44:20Z</time>
      </trkpt>
      <trkpt lat="47.61322" lon="-2.83352">
        <ele>4.5</ele>
        <time>2025-01-28T11:44:21Z</time>
      </trkpt>
      <trkpt lat="47.61322" lon="-2.83352">
        <ele>4.5</ele>
        <time>2025-01-28T11:44:22Z</time>
      </trkpt>
      <trkpt lat="47.61322" lon="-2.83352">
        <ele>4.5</ele>
        <time>2025-01-28T11:44:23Z</time>
      </trkpt>
      <trkpt lat="47.61322" lon="-2.83352">
        <ele>4.5</ele>
        <time>2025-01-28T11:44:24Z</time>
      </trkpt>
      <trkpt lat="47.61322" lon="-2.83352">
        <ele>4.5</ele>
        <time>2025-01-28T11:44:25Z</time>
      </trkpt>
      <trkpt lat="47.61322" lon="-2.83352">
        <ele>4.5</ele>
        <time>2025-01-28T11:44:26Z</time>
      </trkpt>
      <trkpt lat="47.61322" lon="-2.83352">
        <ele>4.5</ele>
        <time>2025-01-28T11:44:27Z</time>
      </trkpt>
      <trkpt lat="47.61322" lon="-2.83352">
        <ele>4.5</ele>
        <time>2025-01-28T11:44:28Z</time>
      </trkpt>
      <trkpt lat="47.61322" lon="-2.83352">
        <ele>4.5</ele>
        <time>2025-01-28T11:44:29Z</time>
      </trkpt>
      <trkpt lat="47.61322" lon="-2.83352">
        <ele>4.5</ele>
        <time>2025-01-28T11:44:30Z</time>
      </trkpt>
      <trkpt lat="47.61322" lon="-2.83352">
        <ele>4.5</ele>
        <time>2025-01-28T11:44:31Z</time>
      </trkpt>
      <trkpt lat="47.61322" lon="-2.83352">
        <ele>4.5</ele>
        <time>2025-01-28T11:44:32Z</time>
      </trkpt>
      <trkpt lat="47.61322" lon="-2.83352">
        <ele>4.5</ele>
        <time>2025-01-28T11:44:33Z</time>
      </trkpt>
      <trkpt lat="47.61322" lon="-2.83352">
        <ele>4.5</ele>
        <time>2025-01-28T11:44:34Z</time>
      </trkpt>
      <trkpt lat="47.61322" lon="-2.83352">
        <ele>4.5</ele>
        <time>2025-01-28T11:44:35Z</time>
      </trkpt>
      <trkpt lat="47.61322" lon="-2.83352">
        <ele>4.5</ele>
        <time>2025-01-28T11:44:36Z</time>
      </trkpt>
      <trkpt lat="47.61322" lon="-2.83352">
        <ele>4.5</ele>
        <time>2025-01-28T11:44:37Z</time>
      </trkpt>
      <trkpt lat="47.61322" lon="-2.83352">
        <ele>4.5</ele>
        <time>2025-01-28T11:44:38Z</time>
      </trkpt>
      <trkpt lat="47.61322" lon="-2.83352">
        <ele>4.5</ele>
        <time>2025-01-28T11:44:39Z</time>
      </trkpt>
      <trkpt lat="47.61322" lon="-2.83352">
        <ele>4.5</ele>
        <time>2025-01-28T11:44:40Z</time>
      </trkpt>
      <trkpt lat="47.61322" lon="-2.83352">
        <ele>4.5</ele>
        <time>2025-01-28T11:44:41Z</time>
      </trkpt>
      <trkpt lat="47.61322" lon="-2.83352">
        <ele>4.5</ele>
        <time>2025-01-28T11:44:42Z</time>
      </trkpt>
      <trkpt lat="47.61322" lon="-2.83352">
        <ele>4.5</ele>
        <time>2025-01-28T11:44:43Z</time>
      </trkpt>
      <trkpt lat="47.61322" lon="-2.83352">
        <ele>4.5</ele>
        <time>2025-01-28T11:44:44Z</time>
      </trkpt>
      <trkpt lat="47.61322" lon="-2.83352">
        <ele>4.5</ele>
        <time>2025-01-28T11:44:45Z</time>
      </trkpt>
      <trkpt lat="47.61322" lon="-2.83352">
        <ele>4.5</ele>
        <time>2025-01-28T11:44:46Z</time>
      </trkpt>
      <trkpt lat="47.61322" lon="-2.83352">
        <ele>4.5</ele>
        <time>2025-01-28T11:44:47Z</time>
      </trkpt>
      <trkpt lat="47.61322" lon="-2.83352">
        <ele>4.5</ele>
        <time>2025-01-28T11:44:48Z</time>
      </trkpt>
      <trkpt lat="47.61322" lon="-2.83352">
        <ele>4.5</ele>
        <time>2025-01-28T11:44:49Z</time>
      </trkpt>
      <trkpt lat="47.61322" lon="-2.83352">
        <ele>4.5</ele>
        <time>2025-01-28T11:44:50Z</time>
      </trkpt>
      <trkpt lat="47.61322" lon="-2.83352">
        <ele>4.5</ele>
        <time>2025-01-28T11:44:51Z</time>
      </trkpt>
      <trkpt lat="47.61322" lon="-2.83352">
        <ele>4.5</ele>
        <time>2025-01-28T11:44:52Z</time>
      </trkpt>
      <trkpt lat="47.61322" lon="-2.83352">
        <ele>4.5</ele>
        <time>2025-01-28T11:44:53Z</time>
      </trkpt>
      <trkpt lat="47.61322" lon="-2.83352">
        <ele>4.5</ele>
        <time>2025-01-28T11:44:54Z</time>
      </trkpt>
      <trkpt lat="47.61322" lon="-2.83352">
        <ele>4.5</ele>
        <time>2025-01-28T11:44:55Z</time>
      </trkpt>
      <trkpt lat="47.61322" lon="-2.83352">
        <ele>4.5</ele>
        <time>2025-01-28T11:44:56Z</time>
      </trkpt>
      <trkpt lat="47.61322" lon="-2.83352">
        <ele>4.5</ele>
        <time>2025-01-28T11:44:57Z</time>
      </trkpt>
      <trkpt lat="47.61322" lon="-2.83352">
        <ele>4.5</ele>
        <time>2025-01-28T11:44:58Z</time>
      </trkpt>
      <trkpt lat="47.61322" lon="-2.83352">
        <ele>4.5</ele>
        <time>2025-01-28T11:44:59Z</time>
      </trkpt>
      <trkpt lat="47.61322" lon="-2.83352">
        <ele>4.5</ele>
        <time>2025-01-28T11:45:00Z</time>
      </trkpt>
      <trkpt lat="47.61322" lon="-2.83352">
        <ele>4.5</ele>
        <time>2025-01-28T11:45:01Z</time>
      </trkpt>
      <trkpt lat="47.61322" lon="-2.83352">
        <ele>4.5</ele>
        <time>2025-01-28T11:45:02Z</time>
      </trkpt>
      <trkpt lat="47.61322" lon="-2.83352">
        <ele>4.5</ele>
        <time>2025-01-28T11:45:03Z</time>
      </trkpt>
      <trkpt lat="47.61322" lon="-2.83352">
        <ele>4.5</ele>
        <time>2025-01-28T11:45:04Z</time>
      </trkpt>
      <trkpt lat="47.61322" lon="-2.83352">
        <ele>4.5</ele>
        <time>2025-01-28T11:45:05Z</time>
      </trkpt>
      <trkpt lat="47.61322" lon="-2.83352">
        <ele>4.5</ele>
        <time>2025-01-28T11:45:06Z</time>
      </trkpt>
      <trkpt lat="47.61322" lon="-2.83352">
        <ele>4.5</ele>
        <time>2025-01-28T11:45:07Z</time>
      </trkpt>
      <trkpt lat="47.61322" lon="-2.83352">
        <ele>4.5</ele>
        <time>2025-01-28T11:45:08Z</time>
      </trkpt>
      <trkpt lat="47.61322" lon="-2.83352">
        <ele>4.5</ele>
        <time>2025-01-28T11:45:09Z</time>
      </trkpt>
      <trkpt lat="47.61322" lon="-2.83352">
        <ele>4.5</ele>
        <time>2025-01-28T11:45:10Z</time>
      </trkpt>
      <trkpt lat="47.61322" lon="-2.83352">
        <ele>4.5</ele>
        <time>2025-01-28T11:45:11Z</time>
      </trkpt>
      <trkpt lat="47.61322" lon="-2.83352">
        <ele>4.5</ele>
        <time>2025-01-28T11:45:12Z</time>
      </trkpt>
      <trkpt lat="47.61322" lon="-2.83352">
        <ele>4.5</ele>
        <time>2025-01-28T11:45:13Z</time>
      </trkpt>
      <trkpt lat="47.61322" lon="-2.83352">
        <ele>4.5</ele>
        <time>2025-01-28T11:45:14Z</time>
      </trkpt>
      <trkpt lat="47.61322" lon="-2.83352">
        <ele>4.5</ele>
        <time>2025-01-28T11:45:15Z</time>
      </trkpt>
      <trkpt lat="47.61322" lon="-2.83352">
        <ele>4.5</ele>
        <time>2025-01-28T11:45:16Z</time>
      </trkpt>
      <trkpt lat="47.61322" lon="-2.83352">
        <ele>4.5</ele>
        <time>2025-01-28T11:45:17Z</time>
      </trkpt>
      <trkpt lat="47.61322" lon="-2.83352">
        <ele>4.5</ele>
        <time>2025-01-28T11:45:18Z</time>
      </trkpt>
      <trkpt lat="47.61322" lon="-2.83352">
        <ele>4.5</ele>
        <time>2025-01-28T11:45:19Z</time>
      </trkpt>
      <trkpt lat="47.61322" lon="-2.83352">
        <ele>4.5</ele>
        <time>2025-01-28T11:45:20Z</time>
      </trkpt>
      <trkpt lat="47.61322" lon="-2.83352">
        <ele>4.5</ele>
        <time>2025-01-28T11:45:21Z</time>
      </trkpt>
      <trkpt lat="47.61322" lon="-2.83352">
        <ele>4.5</ele>
        <time>2025-01-28T11:45:22Z</time>
      </trkpt>
      <trkpt lat="47.61322" lon="-2.83352">
        <ele>4.5</ele>
        <time>2025-01-28T11:45:23Z</time>
      </trkpt>
      <trkpt lat="47.61322" lon="-2.83352">
        <ele>4.5</ele>
        <time>2025-01-28T11:45:24Z</time>
      </trkpt>
      <trkpt lat="47.61323" lon="-2.83352">
        <ele>4.6</ele>
        <time>2025-01-28T11:45:25Z</time>
      </trkpt>
      <trkpt lat="47.61323" lon="-2.83352">
        <ele>4.6</ele>
        <time>2025-01-28T11:45:26Z</time>
      </trkpt>
      <trkpt lat="47.61323" lon="-2.83352">
        <ele>4.6</ele>
        <time>2025-01-28T11:45:27Z</time>
      </trkpt>
      <trkpt lat="47.61323" lon="-2.83352">
        <ele>4.6</ele>
        <time>2025-01-28T11:45:28Z</time>
      </trkpt>
      <trkpt lat="47.61323" lon="-2.83352">
        <ele>4.6</ele>
        <time>2025-01-28T11:45:29Z</time>
      </trkpt>
      <trkpt lat="47.61323" lon="-2.83352">
        <ele>4.6</ele>
        <time>2025-01-28T11:45:30Z</time>
      </trkpt>
      <trkpt lat="47.61323" lon="-2.83352">
        <ele>4.6</ele>
        <time>2025-01-28T11:45:31Z</time>
      </trkpt>
      <trkpt lat="47.61323" lon="-2.83352">
        <ele>4.6</ele>
        <time>2025-01-28T11:45:32Z</time>
      </trkpt>
      <trkpt lat="47.61323" lon="-2.83352">
        <ele>4.6</ele>
        <time>2025-01-28T11:45:33Z</time>
      </trkpt>
      <trkpt lat="47.61323" lon="-2.83352">
        <ele>4.6</ele>
        <time>2025-01-28T11:45:34Z</time>
      </trkpt>
      <trkpt lat="47.61323" lon="-2.83352">
        <ele>4.6</ele>
        <time>2025-01-28T11:45:35Z</time>
      </trkpt>
      <trkpt lat="47.61323" lon="-2.83352">
        <ele>4.6</ele>
        <time>2025-01-28T11:45:36Z</time>
      </trkpt>
      <trkpt lat="47.61323" lon="-2.83352">
        <ele>4.6</ele>
        <time>2025-01-28T11:45:37Z</time>
      </trkpt>
      <trkpt lat="47.61323" lon="-2.83352">
        <ele>4.6</ele>
        <time>2025-01-28T11:45:38Z</time>
      </trkpt>
      <trkpt lat="47.61323" lon="-2.83352">
        <ele>4.6</ele>
        <time>2025-01-28T11:45:39Z</time>
      </trkpt>
      <trkpt lat="47.61323" lon="-2.83352">
        <ele>4.6</ele>
        <time>2025-01-28T11:45:40Z</time>
      </trkpt>
      <trkpt lat="47.61323" lon="-2.83352">
        <ele>4.6</ele>
        <time>2025-01-28T11:45:41Z</time>
      </trkpt>
      <trkpt lat="47.61323" lon="-2.83352">
        <ele>4.6</ele>
        <time>2025-01-28T11:45:42Z</time>
      </trkpt>
      <trkpt lat="47.61323" lon="-2.83352">
        <ele>4.6</ele>
        <time>2025-01-28T11:45:43Z</time>
      </trkpt>
      <trkpt lat="47.61323" lon="-2.83352">
        <ele>4.6</ele>
        <time>2025-01-28T11:45:44Z</time>
      </trkpt>
      <trkpt lat="47.61323" lon="-2.83352">
        <ele>4.6</ele>
        <time>2025-01-28T11:45:45Z</time>
      </trkpt>
      <trkpt lat="47.61323" lon="-2.83352">
        <ele>4.6</ele>
        <time>2025-01-28T11:45:46Z</time>
      </trkpt>
      <trkpt lat="47.61323" lon="-2.83352">
        <ele>4.6</ele>
        <time>2025-01-28T11:45:47Z</time>
      </trkpt>
      <trkpt lat="47.61323" lon="-2.83352">
        <ele>4.6</ele>
        <time>2025-01-28T11:45:48Z</time>
      </trkpt>
      <trkpt lat="47.61323" lon="-2.83352">
        <ele>4.6</ele>
        <time>2025-01-28T11:45:49Z</time>
      </trkpt>
      <trkpt lat="47.61323" lon="-2.83352">
        <ele>4.6</ele>
        <time>2025-01-28T11:45:50Z</time>
      </trkpt>
      <trkpt lat="47.61323" lon="-2.83352">
        <ele>4.6</ele>
        <time>2025-01-28T11:45:51Z</time>
      </trkpt>
      <trkpt lat="47.61323" lon="-2.83352">
        <ele>4.6</ele>
        <time>2025-01-28T11:45:52Z</time>
      </trkpt>
      <trkpt lat="47.61323" lon="-2.83352">
        <ele>4.6</ele>
        <time>2025-01-28T11:45:53Z</time>
      </trkpt>
      <trkpt lat="47.61323" lon="-2.83352">
        <ele>4.6</ele>
        <time>2025-01-28T11:45:54Z</time>
      </trkpt>
      <trkpt lat="47.61323" lon="-2.83352">
        <ele>4.6</ele>
        <time>2025-01-28T11:45:55Z</time>
      </trkpt>
      <trkpt lat="47.61323" lon="-2.83352">
        <ele>4.6</ele>
        <time>2025-01-28T11:45:56Z</time>
      </trkpt>
      <trkpt lat="47.61323" lon="-2.83352">
        <ele>4.6</ele>
        <time>2025-01-28T11:45:57Z</time>
      </trkpt>
      <trkpt lat="47.61323" lon="-2.83352">
        <ele>4.6</ele>
        <time>2025-01-28T11:45:58Z</time>
      </trkpt>
      <trkpt lat="47.61323" lon="-2.83352">
        <ele>4.6</ele>
        <time>2025-01-28T11:45:59Z</time>
      </trkpt>
      <trkpt lat="47.61323" lon="-2.83352">
        <ele>4.6</ele>
        <time>2025-01-28T11:46:00Z</time>
      </trkpt>
      <trkpt lat="47.61323" lon="-2.83352">
        <ele>4.6</ele>
        <time>2025-01-28T11:46:01Z</time>
      </trkpt>
      <trkpt lat="47.61323" lon="-2.83352">
        <ele>4.6</ele>
        <time>2025-01-28T11:46:02Z</time>
      </trkpt>
      <trkpt lat="47.61323" lon="-2.83352">
        <ele>4.6</ele>
        <time>2025-01-28T11:46:03Z</time>
      </trkpt>
      <trkpt lat="47.61323" lon="-2.83352">
        <ele>4.6</ele>
        <time>2025-01-28T11:46:04Z</time>
      </trkpt>
      <trkpt lat="47.61323" lon="-2.83352">
        <ele>4.6</ele>
        <time>2025-01-28T11:46:05Z</time>
      </trkpt>
      <trkpt lat="47.61323" lon="-2.83352">
        <ele>4.6</ele>
        <time>2025-01-28T11:46:06Z</time>
      </trkpt>
      <trkpt lat="47.61323" lon="-2.83352">
        <ele>4.6</ele>
        <time>2025-01-28T11:46:07Z</time>
      </trkpt>
      <trkpt lat="47.61323" lon="-2.83352">
        <ele>4.6</ele>
        <time>2025-01-28T11:46:08Z</time>
      </trkpt>
      <trkpt lat="47.61323" lon="-2.83352">
        <ele>4.6</ele>
        <time>2025-01-28T11:46:09Z</time>
      </trkpt>
      <trkpt lat="47.61323" lon="-2.83352">
        <ele>4.6</ele>
        <time>2025-01-28T11:46:10Z</time>
      </trkpt>
      <trkpt lat="47.61323" lon="-2.83352">
        <ele>4.6</ele>
        <time>2025-01-28T11:46:11Z</time>
      </trkpt>
      <trkpt lat="47.61323" lon="-2.83352">
        <ele>4.6</ele>
        <time>2025-01-28T11:46:12Z</time>
      </trkpt>
      <trkpt lat="47.61323" lon="-2.83352">
        <ele>4.6</ele>
        <time>2025-01-28T11:46:13Z</time>
      </trkpt>
      <trkpt lat="47.61323" lon="-2.83352">
        <ele>4.6</ele>
        <time>2025-01-28T11:46:14Z</time>
      </trkpt>
      <trkpt lat="47.61323" lon="-2.83352">
        <ele>4.6</ele>
        <time>2025-01-28T11:46:15Z</time>
      </trkpt>
      <trkpt lat="47.61323" lon="-2.83352">
        <ele>4.6</ele>
        <time>2025-01-28T11:46:16Z</time>
      </trkpt>
      <trkpt lat="47.61323" lon="-2.83352">
        <ele>4.6</ele>
        <time>2025-01-28T11:46:17Z</time>
      </trkpt>
      <trkpt lat="47.61323" lon="-2.83352">
        <ele>4.6</ele>
        <time>2025-01-28T11:46:18Z</time>
      </trkpt>
      <trkpt lat="47.61323" lon="-2.83352">
        <ele>4.6</ele>
        <time>2025-01-28T11:46:19Z</time>
      </trkpt>
      <trkpt lat="47.61323" lon="-2.83352">
        <ele>4.6</ele>
        <time>2025-01-28T11:46:20Z</time>
      </trkpt>
      <trkpt lat="47.61323" lon="-2.83352">
        <ele>4.6</ele>
        <time>2025-01-28T11:46:21Z</time>
      </trkpt>
      <trkpt lat="47.61323" lon="-2.83352">
        <ele>4.6</ele>
        <time>2025-01-28T11:46:22Z</time>
      </trkpt>
      <trkpt lat="47.61323" lon="-2.83352">
        <ele>4.6</ele>
        <time>2025-01-28T11:46:23Z</time>
      </trkpt>
      <trkpt lat="47.61323" lon="-2.83352">
        <ele>4.6</ele>
        <time>2025-01-28T11:46:24Z</time>
      </trkpt>
      <trkpt lat="47.61323" lon="-2.83352">
        <ele>4.6</ele>
        <time>2025-01-28T11:46:25Z</time>
      </trkpt>
      <trkpt lat="47.61323" lon="-2.83352">
        <ele>4.6</ele>
        <time>2025-01-28T11:46:26Z</time>
      </trkpt>
      <trkpt lat="47.61323" lon="-2.83352">
        <ele>4.6</ele>
        <time>2025-01-28T11:46:27Z</time>
      </trkpt>
      <trkpt lat="47.61323" lon="-2.83352">
        <ele>4.6</ele>
        <time>2025-01-28T11:46:28Z</time>
      </trkpt>
      <trkpt lat="47.61323" lon="-2.83352">
        <ele>4.6</ele>
        <time>2025-01-28T11:46:29Z</time>
      </trkpt>
      <trkpt lat="47.61323" lon="-2.83352">
        <ele>4.6</ele>
        <time>2025-01-28T11:46:30Z</time>
      </trkpt>
      <trkpt lat="47.61323" lon="-2.83352">
        <ele>4.6</ele>
        <time>2025-01-28T11:46:31Z</time>
      </trkpt>
      <trkpt lat="47.61323" lon="-2.83352">
        <ele>4.6</ele>
        <time>2025-01-28T11:46:32Z</time>
      </trkpt>
      <trkpt lat="47.61323" lon="-2.83352">
        <ele>4.6</ele>
        <time>2025-01-28T11:46:33Z</time>
      </trkpt>
      <trkpt lat="47.61323" lon="-2.83352">
        <ele>4.6</ele>
        <time>2025-01-28T11:46:34Z</time>
      </trkpt>
      <trkpt lat="47.61323" lon="-2.83352">
        <ele>4.6</ele>
        <time>2025-01-28T11:46:35Z</time>
      </trkpt>
      <trkpt lat="47.61323" lon="-2.83352">
        <ele>4.6</ele>
        <time>2025-01-28T11:46:36Z</time>
      </trkpt>
      <trkpt lat="47.61323" lon="-2.83352">
        <ele>4.6</ele>
        <time>2025-01-28T11:46:37Z</time>
      </trkpt>
      <trkpt lat="47.61323" lon="-2.83352">
        <ele>4.6</ele>
        <time>2025-01-28T11:46:38Z</time>
      </trkpt>
      <trkpt lat="47.61323" lon="-2.83352">
        <ele>4.6</ele>
        <time>2025-01-28T11:46:39Z</time>
      </trkpt>
      <trkpt lat="47.61323" lon="-2.83352">
        <ele>4.6</ele>
        <time>2025-01-28T11:46:40Z</time>
      </trkpt>
      <trkpt lat="47.61323" lon="-2.83352">
        <ele>4.6</ele>
        <time>2025-01-28T11:46:41Z</time>
      </trkpt>
      <trkpt lat="47.61323" lon="-2.83352">
        <ele>4.6</ele>
        <time>2025-01-28T11:46:42Z</time>
      </trkpt>
      <trkpt lat="47.61323" lon="-2.83352">
        <ele>4.6</ele>
        <time>2025-01-28T11:46:43Z</time>
      </trkpt>
      <trkpt lat="47.61323" lon="-2.83352">
        <ele>4.6</ele>
        <time>2025-01-28T11:46:44Z</time>
      </trkpt>
      <trkpt lat="47.61323" lon="-2.83352">
        <ele>4.6</ele>
        <time>2025-01-28T11:46:45Z</time>
      </trkpt>
      <trkpt lat="47.61323" lon="-2.83352">
        <ele>4.6</ele>
        <time>2025-01-28T11:46:46Z</time>
      </trkpt>
      <trkpt lat="47.61323" lon="-2.83352">
        <ele>4.6</ele>
        <time>2025-01-28T11:46:47Z</time>
      </trkpt>
      <trkpt lat="47.61323" lon="-2.83352">
        <ele>4.6</ele>
        <time>2025-01-28T11:46:48Z</time>
      </trkpt>
      <trkpt lat="47.61323" lon="-2.83352">
        <ele>4.6</ele>
        <time>2025-01-28T11:46:49Z</time>
      </trkpt>
      <trkpt lat="47.61323" lon="-2.83352">
        <ele>4.6</ele>
        <time>2025-01-28T11:46:50Z</time>
      </trkpt>
      <trkpt lat="47.61323" lon="-2.83352">
        <ele>4.6</ele>
        <time>2025-01-28T11:46:51Z</time>
      </trkpt>
      <trkpt lat="47.61323" lon="-2.83352">
        <ele>4.6</ele>
        <time>2025-01-28T11:46:52Z</time>
      </trkpt>
      <trkpt lat="47.61323" lon="-2.83352">
        <ele>4.6</ele>
        <time>2025-01-28T11:46:53Z</time>
      </trkpt>
      <trkpt lat="47.61323" lon="-2.83352">
        <ele>4.6</ele>
        <time>2025-01-28T11:46:54Z</time>
      </trkpt>
      <trkpt lat="47.61323" lon="-2.83352">
        <ele>4.6</ele>
        <time>2025-01-28T11:46:55Z</time>
      </trkpt>
      <trkpt lat="47.61323" lon="-2.83352">
        <ele>4.6</ele>
        <time>2025-01-28T11:46:56Z</time>
      </trkpt>
      <trkpt lat="47.61323" lon="-2.83352">
        <ele>4.6</ele>
        <time>2025-01-28T11:46:57Z</time>
      </trkpt>
      <trkpt lat="47.61323" lon="-2.83352">
        <ele>4.6</ele>
        <time>2025-01-28T11:46:58Z</time>
      </trkpt>
      <trkpt lat="47.61323" lon="-2.83352">
        <ele>4.6</ele>
        <time>2025-01-28T11:46:59Z</time>
      </trkpt>
      <trkpt lat="47.61323" lon="-2.83352">
        <ele>4.6</ele>
        <time>2025-01-28T11:47:00Z</time>
      </trkpt>
      <trkpt lat="47.61323" lon="-2.83352">
        <ele>4.6</ele>
        <time>2025-01-28T11:47:01Z</time>
      </trkpt>
      <trkpt lat="47.61323" lon="-2.83352">
        <ele>4.6</ele>
        <time>2025-01-28T11:47:02Z</time>
      </trkpt>
      <trkpt lat="47.61323" lon="-2.83352">
        <ele>4.6</ele>
        <time>2025-01-28T11:47:03Z</time>
      </trkpt>
      <trkpt lat="47.61323" lon="-2.83352">
        <ele>4.6</ele>
        <time>2025-01-28T11:47:04Z</time>
      </trkpt>
      <trkpt lat="47.61323" lon="-2.83352">
        <ele>4.6</ele>
        <time>2025-01-28T11:47:05Z</time>
      </trkpt>
      <trkpt lat="47.61323" lon="-2.83352">
        <ele>4.6</ele>
        <time>2025-01-28T11:47:06Z</time>
      </trkpt>
      <trkpt lat="47.61323" lon="-2.83352">
        <ele>4.6</ele>
        <time>2025-01-28T11:47:07Z</time>
      </trkpt>
      <trkpt lat="47.61323" lon="-2.83352">
        <ele>4.6</ele>
        <time>2025-01-28T11:47:08Z</time>
      </trkpt>
      <trkpt lat="47.61323" lon="-2.83352">
        <ele>4.6</ele>
        <time>2025-01-28T11:47:09Z</time>
      </trkpt>
      <trkpt lat="47.61323" lon="-2.83352">
        <ele>4.6</ele>
        <time>2025-01-28T11:47:10Z</time>
      </trkpt>
      <trkpt lat="47.61323" lon="-2.83352">
        <ele>4.6</ele>
        <time>2025-01-28T11:47:11Z</time>
      </trkpt>
      <trkpt lat="47.61323" lon="-2.83352">
        <ele>4.6</ele>
        <time>2025-01-28T11:47:12Z</time>
      </trkpt>
      <trkpt lat="47.61323" lon="-2.83352">
        <ele>4.6</ele>
        <time>2025-01-28T11:47:13Z</time>
      </trkpt>
      <trkpt lat="47.61323" lon="-2.83352">
        <ele>4.6</ele>
        <time>2025-01-28T11:47:14Z</time>
      </trkpt>
      <trkpt lat="47.61323" lon="-2.83352">
        <ele>4.6</ele>
        <time>2025-01-28T11:47:15Z</time>
      </trkpt>
      <trkpt lat="47.61323" lon="-2.83352">
        <ele>4.6</ele>
        <time>2025-01-28T11:47:16Z</time>
      </trkpt>
      <trkpt lat="47.61323" lon="-2.83352">
        <ele>4.6</ele>
        <time>2025-01-28T11:47:17Z</time>
      </trkpt>
      <trkpt lat="47.61323" lon="-2.83352">
        <ele>4.6</ele>
        <time>2025-01-28T11:47:18Z</time>
      </trkpt>
      <trkpt lat="47.61323" lon="-2.83352">
        <ele>4.6</ele>
        <time>2025-01-28T11:47:19Z</time>
      </trkpt>
      <trkpt lat="47.61323" lon="-2.83352">
        <ele>4.6</ele>
        <time>2025-01-28T11:47:20Z</time>
      </trkpt>
      <trkpt lat="47.61323" lon="-2.83352">
        <ele>4.6</ele>
        <time>2025-01-28T11:47:21Z</time>
      </trkpt>
      <trkpt lat="47.61323" lon="-2.83352">
        <ele>4.6</ele>
        <time>2025-01-28T11:47:22Z</time>
      </trkpt>
      <trkpt lat="47.61323" lon="-2.83352">
        <ele>4.6</ele>
        <time>2025-01-28T11:47:23Z</time>
      </trkpt>
      <trkpt lat="47.61323" lon="-2.83352">
        <ele>4.6</ele>
        <time>2025-01-28T11:47:24Z</time>
      </trkpt>
      <trkpt lat="47.61323" lon="-2.83352">
        <ele>4.6</ele>
        <time>2025-01-28T11:47:25Z</time>
      </trkpt>
      <trkpt lat="47.61323" lon="-2.83352">
        <ele>4.6</ele>
        <time>2025-01-28T11:47:26Z</time>
      </trkpt>
      <trkpt lat="47.61323" lon="-2.83352">
        <ele>4.6</ele>
        <time>2025-01-28T11:47:27Z</time>
      </trkpt>
      <trkpt lat="47.61323" lon="-2.83352">
        <ele>4.6</ele>
        <time>2025-01-28T11:47:28Z</time>
      </trkpt>
      <trkpt lat="47.61323" lon="-2.83352">
        <ele>4.6</ele>
        <time>2025-01-28T11:47:29Z</time>
      </trkpt>
      <trkpt lat="47.61323" lon="-2.83352">
        <ele>4.6</ele>
        <time>2025-01-28T11:47:30Z</time>
      </trkpt>
      <trkpt lat="47.61323" lon="-2.83352">
        <ele>4.6</ele>
        <time>2025-01-28T11:47:31Z</time>
      </trkpt>
      <trkpt lat="47.61323" lon="-2.83352">
        <ele>4.6</ele>
        <time>2025-01-28T11:47:32Z</time>
      </trkpt>
      <trkpt lat="47.61323" lon="-2.83352">
        <ele>4.6</ele>
        <time>2025-01-28T11:47:33Z</time>
      </trkpt>
      <trkpt lat="47.61323" lon="-2.83352">
        <ele>4.6</ele>
        <time>2025-01-28T11:47:34Z</time>
      </trkpt>
      <trkpt lat="47.61323" lon="-2.83352">
        <ele>4.6</ele>
        <time>2025-01-28T11:47:35Z</time>
      </trkpt>
      <trkpt lat="47.61323" lon="-2.83352">
        <ele>4.6</ele>
        <time>2025-01-28T11:47:36Z</time>
      </trkpt>
      <trkpt lat="47.61323" lon="-2.83352">
        <ele>4.6</ele>
        <time>2025-01-28T11:47:37Z</time>
      </trkpt>
      <trkpt lat="47.61323" lon="-2.83352">
        <ele>4.6</ele>
        <time>2025-01-28T11:47:38Z</time>
      </trkpt>
      <trkpt lat="47.61323" lon="-2.83352">
        <ele>4.6</ele>
        <time>2025-01-28T11:47:39Z</time>
      </trkpt>
      <trkpt lat="47.61323" lon="-2.83352">
        <ele>4.6</ele>
        <time>2025-01-28T11:47:40Z</time>
      </trkpt>
      <trkpt lat="47.61323" lon="-2.83352">
        <ele>4.6</ele>
        <time>2025-01-28T11:47:41Z</time>
      </trkpt>
      <trkpt lat="47.61323" lon="-2.83352">
        <ele>4.6</ele>
        <time>2025-01-28T11:47:42Z</time>
      </trkpt>
      <trkpt lat="47.61323" lon="-2.83352">
        <ele>4.6</ele>
        <time>2025-01-28T11:47:43Z</time>
      </trkpt>
      <trkpt lat="47.61323" lon="-2.83352">
        <ele>4.6</ele>
        <time>2025-01-28T11:47:44Z</time>
      </trkpt>
      <trkpt lat="47.61323" lon="-2.83352">
        <ele>4.6</ele>
        <time>2025-01-28T11:47:45Z</time>
      </trkpt>
      <trkpt lat="47.61323" lon="-2.83352">
        <ele>4.6</ele>
        <time>2025-01-28T11:47:46Z</time>
      </trkpt>
      <trkpt lat="47.61323" lon="-2.83352">
        <ele>4.6</ele>
        <time>2025-01-28T11:47:47Z</time>
      </trkpt>
      <trkpt lat="47.61323" lon="-2.83352">
        <ele>4.6</ele>
        <time>2025-01-28T11:47:48Z</time>
      </trkpt>
      <trkpt lat="47.61323" lon="-2.83352">
        <ele>4.6</ele>
        <time>2025-01-28T11:47:49Z</time>
      </trkpt>
      <trkpt lat="47.61323" lon="-2.83352">
        <ele>4.6</ele>
        <time>2025-01-28T11:47:50Z</time>
      </trkpt>
      <trkpt lat="47.61323" lon="-2.83352">
        <ele>4.6</ele>
        <time>2025-01-28T11:47:51Z</time>
      </trkpt>
      <trkpt lat="47.61323" lon="-2.83352">
        <ele>4.6</ele>
        <time>2025-01-28T11:47:52Z</time>
      </trkpt>
      <trkpt lat="47.61323" lon="-2.83352">
        <ele>4.6</ele>
        <time>2025-01-28T11:47:53Z</time>
      </trkpt>
      <trkpt lat="47.61323" lon="-2.83352">
        <ele>4.6</ele>
        <time>2025-01-28T11:47:54Z</time>
      </trkpt>
      <trkpt lat="47.61323" lon="-2.83352">
        <ele>4.6</ele>
        <time>2025-01-28T11:47:55Z</time>
      </trkpt>
      <trkpt lat="47.61323" lon="-2.83352">
        <ele>4.6</ele>
        <time>2025-01-28T11:47:56Z</time>
      </trkpt>
      <trkpt lat="47.61323" lon="-2.83352">
        <ele>4.6</ele>
        <time>2025-01-28T11:47:57Z</time>
      </trkpt>
      <trkpt lat="47.61323" lon="-2.83352">
        <ele>4.6</ele>
        <time>2025-01-28T11:47:58Z</time>
      </trkpt>
      <trkpt lat="47.61323" lon="-2.83352">
        <ele>4.6</ele>
        <time>2025-01-28T11:47:59Z</time>
      </trkpt>
      <trkpt lat="47.61323" lon="-2.83352">
        <ele>4.6</ele>
        <time>2025-01-28T11:48:00Z</time>
      </trkpt>
      <trkpt lat="47.61323" lon="-2.83352">
        <ele>4.6</ele>
        <time>2025-01-28T11:48:01Z</time>
      </trkpt>
      <trkpt lat="47.61323" lon="-2.83352">
        <ele>4.6</ele>
        <time>2025-01-28T11:48:02Z</time>
      </trkpt>
      <trkpt lat="47.61323" lon="-2.83352">
        <ele>4.6</ele>
        <time>2025-01-28T11:48:03Z</time>
      </trkpt>
      <trkpt lat="47.61323" lon="-2.83352">
        <ele>4.6</ele>
        <time>2025-01-28T11:48:04Z</time>
      </trkpt>
      <trkpt lat="47.61323" lon="-2.83352">
        <ele>4.6</ele>
        <time>2025-01-28T11:48:05Z</time>
      </trkpt>
      <trkpt lat="47.61323" lon="-2.83352">
        <ele>4.6</ele>
        <time>2025-01-28T11:48:06Z</time>
      </trkpt>
      <trkpt lat="47.61323" lon="-2.83352">
        <ele>4.6</ele>
        <time>2025-01-28T11:48:07Z</time>
      </trkpt>
      <trkpt lat="47.61323" lon="-2.83352">
        <ele>4.6</ele>
        <time>2025-01-28T11:48:08Z</time>
      </trkpt>
      <trkpt lat="47.61323" lon="-2.83352">
        <ele>4.6</ele>
        <time>2025-01-28T11:48:09Z</time>
      </trkpt>
      <trkpt lat="47.61323" lon="-2.83352">
        <ele>4.6</ele>
        <time>2025-01-28T11:48:10Z</time>
      </trkpt>
      <trkpt lat="47.61323" lon="-2.83352">
        <ele>4.6</ele>
        <time>2025-01-28T11:48:11Z</time>
      </trkpt>
      <trkpt lat="47.61323" lon="-2.83352">
        <ele>4.6</ele>
        <time>2025-01-28T11:48:12Z</time>
      </trkpt>
      <trkpt lat="47.61323" lon="-2.83352">
        <ele>4.6</ele>
        <time>2025-01-28T11:48:13Z</time>
      </trkpt>
      <trkpt lat="47.61323" lon="-2.83352">
        <ele>4.6</ele>
        <time>2025-01-28T11:48:14Z</time>
      </trkpt>
      <trkpt lat="47.61323" lon="-2.83352">
        <ele>4.6</ele>
        <time>2025-01-28T11:48:15Z</time>
      </trkpt>
      <trkpt lat="47.61323" lon="-2.83352">
        <ele>4.6</ele>
        <time>2025-01-28T11:48:16Z</time>
      </trkpt>
      <trkpt lat="47.61323" lon="-2.83352">
        <ele>4.6</ele>
        <time>2025-01-28T11:48:17Z</time>
      </trkpt>
      <trkpt lat="47.61323" lon="-2.83352">
        <ele>4.6</ele>
        <time>2025-01-28T11:48:18Z</time>
      </trkpt>
      <trkpt lat="47.61323" lon="-2.83352">
        <ele>4.6</ele>
        <time>2025-01-28T11:48:19Z</time>
      </trkpt>
      <trkpt lat="47.61323" lon="-2.83352">
        <ele>4.6</ele>
        <time>2025-01-28T11:48:20Z</time>
      </trkpt>
      <trkpt lat="47.61323" lon="-2.83352">
        <ele>4.6</ele>
        <time>2025-01-28T11:48:21Z</time>
      </trkpt>
      <trkpt lat="47.61323" lon="-2.83352">
        <ele>4.6</ele>
        <time>2025-01-28T11:48:22Z</time>
      </trkpt>
      <trkpt lat="47.61323" lon="-2.83352">
        <ele>4.6</ele>
        <time>2025-01-28T11:48:23Z</time>
      </trkpt>
      <trkpt lat="47.61323" lon="-2.83352">
        <ele>4.6</ele>
        <time>2025-01-28T11:48:24Z</time>
      </trkpt>
      <trkpt lat="47.61323" lon="-2.83352">
        <ele>4.6</ele>
        <time>2025-01-28T11:48:25Z</time>
      </trkpt>
      <trkpt lat="47.61323" lon="-2.83352">
        <ele>4.6</ele>
        <time>2025-01-28T11:48:26Z</time>
      </trkpt>
      <trkpt lat="47.61323" lon="-2.83352">
        <ele>4.6</ele>
        <time>2025-01-28T11:48:27Z</time>
      </trkpt>
      <trkpt lat="47.61323" lon="-2.83352">
        <ele>4.6</ele>
        <time>2025-01-28T11:48:28Z</time>
      </trkpt>
      <trkpt lat="47.61323" lon="-2.83352">
        <ele>4.6</ele>
        <time>2025-01-28T11:48:29Z</time>
      </trkpt>
      <trkpt lat="47.61323" lon="-2.83352">
        <ele>4.7</ele>
        <time>2025-01-28T11:48:30Z</time>
      </trkpt>
      <trkpt lat="47.61323" lon="-2.83352">
        <ele>4.7</ele>
        <time>2025-01-28T11:48:31Z</time>
      </trkpt>
      <trkpt lat="47.61323" lon="-2.83352">
        <ele>4.7</ele>
        <time>2025-01-28T11:48:32Z</time>
      </trkpt>
      <trkpt lat="47.61323" lon="-2.83352">
        <ele>4.7</ele>
        <time>2025-01-28T11:48:33Z</time>
      </trkpt>
      <trkpt lat="47.61323" lon="-2.83352">
        <ele>4.7</ele>
        <time>2025-01-28T11:48:34Z</time>
      </trkpt>
      <trkpt lat="47.61323" lon="-2.83352">
        <ele>4.7</ele>
        <time>2025-01-28T11:48:35Z</time>
      </trkpt>
      <trkpt lat="47.61323" lon="-2.83352">
        <ele>4.7</ele>
        <time>2025-01-28T11:48:36Z</time>
      </trkpt>
      <trkpt lat="47.61323" lon="-2.83352">
        <ele>4.7</ele>
        <time>2025-01-28T11:48:37Z</time>
      </trkpt>
      <trkpt lat="47.61323" lon="-2.83352">
        <ele>4.7</ele>
        <time>2025-01-28T11:48:38Z</time>
      </trkpt>
      <trkpt lat="47.61323" lon="-2.83352">
        <ele>4.7</ele>
        <time>2025-01-28T11:48:39Z</time>
      </trkpt>
      <trkpt lat="47.61323" lon="-2.83352">
        <ele>4.7</ele>
        <time>2025-01-28T11:48:40Z</time>
      </trkpt>
      <trkpt lat="47.61323" lon="-2.83352">
        <ele>4.7</ele>
        <time>2025-01-28T11:48:41Z</time>
      </trkpt>
      <trkpt lat="47.61323" lon="-2.83352">
        <ele>4.7</ele>
        <time>2025-01-28T11:48:42Z</time>
      </trkpt>
      <trkpt lat="47.61323" lon="-2.83352">
        <ele>4.7</ele>
        <time>2025-01-28T11:48:43Z</time>
      </trkpt>
      <trkpt lat="47.61323" lon="-2.83352">
        <ele>4.7</ele>
        <time>2025-01-28T11:48:44Z</time>
      </trkpt>
      <trkpt lat="47.61323" lon="-2.83352">
        <ele>4.7</ele>
        <time>2025-01-28T11:48:45Z</time>
      </trkpt>
      <trkpt lat="47.61323" lon="-2.83352">
        <ele>4.7</ele>
        <time>2025-01-28T11:48:46Z</time>
      </trkpt>
      <trkpt lat="47.61323" lon="-2.83352">
        <ele>4.7</ele>
        <time>2025-01-28T11:48:47Z</time>
      </trkpt>
      <trkpt lat="47.61323" lon="-2.83352">
        <ele>4.7</ele>
        <time>2025-01-28T11:48:48Z</time>
      </trkpt>
      <trkpt lat="47.61323" lon="-2.83352">
        <ele>4.7</ele>
        <time>2025-01-28T11:48:49Z</time>
      </trkpt>
      <trkpt lat="47.61323" lon="-2.83352">
        <ele>4.7</ele>
        <time>2025-01-28T11:48:50Z</time>
      </trkpt>
      <trkpt lat="47.61323" lon="-2.83352">
        <ele>4.7</ele>
        <time>2025-01-28T11:48:51Z</time>
      </trkpt>
      <trkpt lat="47.61323" lon="-2.83352">
        <ele>4.7</ele>
        <time>2025-01-28T11:48:52Z</time>
      </trkpt>
      <trkpt lat="47.61323" lon="-2.83352">
        <ele>4.7</ele>
        <time>2025-01-28T11:48:53Z</time>
      </trkpt>
      <trkpt lat="47.61323" lon="-2.83352">
        <ele>4.7</ele>
        <time>2025-01-28T11:48:54Z</time>
      </trkpt>
      <trkpt lat="47.61323" lon="-2.83352">
        <ele>4.7</ele>
        <time>2025-01-28T11:48:55Z</time>
      </trkpt>
      <trkpt lat="47.61323" lon="-2.83352">
        <ele>4.7</ele>
        <time>2025-01-28T11:48:56Z</time>
      </trkpt>
      <trkpt lat="47.61323" lon="-2.83352">
        <ele>4.7</ele>
        <time>2025-01-28T11:48:57Z</time>
      </trkpt>
      <trkpt lat="47.61323" lon="-2.83352">
        <ele>4.7</ele>
        <time>2025-01-28T11:48:58Z</time>
      </trkpt>
      <trkpt lat="47.61323" lon="-2.83352">
        <ele>4.7</ele>
        <time>2025-01-28T11:48:59Z</time>
      </trkpt>
      <trkpt lat="47.61323" lon="-2.83352">
        <ele>4.7</ele>
        <time>2025-01-28T11:49:00Z</time>
      </trkpt>
      <trkpt lat="47.61323" lon="-2.83352">
        <ele>4.7</ele>
        <time>2025-01-28T11:49:01Z</time>
      </trkpt>
      <trkpt lat="47.61323" lon="-2.83352">
        <ele>4.7</ele>
        <time>2025-01-28T11:49:02Z</time>
      </trkpt>
      <trkpt lat="47.61323" lon="-2.83352">
        <ele>4.7</ele>
        <time>2025-01-28T11:49:03Z</time>
      </trkpt>
      <trkpt lat="47.61323" lon="-2.83352">
        <ele>4.7</ele>
        <time>2025-01-28T11:49:04Z</time>
      </trkpt>
      <trkpt lat="47.61323" lon="-2.83352">
        <ele>4.7</ele>
        <time>2025-01-28T11:49:05Z</time>
      </trkpt>
      <trkpt lat="47.61323" lon="-2.83352">
        <ele>4.7</ele>
        <time>2025-01-28T11:49:06Z</time>
      </trkpt>
      <trkpt lat="47.61323" lon="-2.83352">
        <ele>4.7</ele>
        <time>2025-01-28T11:49:07Z</time>
      </trkpt>
      <trkpt lat="47.61323" lon="-2.83352">
        <ele>4.7</ele>
        <time>2025-01-28T11:49:08Z</time>
      </trkpt>
      <trkpt lat="47.61323" lon="-2.83352">
        <ele>4.7</ele>
        <time>2025-01-28T11:49:09Z</time>
      </trkpt>
      <trkpt lat="47.61323" lon="-2.83352">
        <ele>4.7</ele>
        <time>2025-01-28T11:49:10Z</time>
      </trkpt>
      <trkpt lat="47.61323" lon="-2.83352">
        <ele>4.7</ele>
        <time>2025-01-28T11:49:11Z</time>
      </trkpt>
      <trkpt lat="47.61323" lon="-2.83352">
        <ele>4.7</ele>
        <time>2025-01-28T11:49:12Z</time>
      </trkpt>
      <trkpt lat="47.61323" lon="-2.83352">
        <ele>4.7</ele>
        <time>2025-01-28T11:49:13Z</time>
      </trkpt>
      <trkpt lat="47.61323" lon="-2.83352">
        <ele>4.7</ele>
        <time>2025-01-28T11:49:14Z</time>
      </trkpt>
      <trkpt lat="47.61323" lon="-2.83352">
        <ele>4.7</ele>
        <time>2025-01-28T11:49:15Z</time>
      </trkpt>
      <trkpt lat="47.61323" lon="-2.83352">
        <ele>4.7</ele>
        <time>2025-01-28T11:49:16Z</time>
      </trkpt>
      <trkpt lat="47.61323" lon="-2.83352">
        <ele>4.7</ele>
        <time>2025-01-28T11:49:17Z</time>
      </trkpt>
      <trkpt lat="47.61323" lon="-2.83352">
        <ele>4.7</ele>
        <time>2025-01-28T11:49:18Z</time>
      </trkpt>
      <trkpt lat="47.61323" lon="-2.83352">
        <ele>4.7</ele>
        <time>2025-01-28T11:49:19Z</time>
      </trkpt>
      <trkpt lat="47.61323" lon="-2.83352">
        <ele>4.7</ele>
        <time>2025-01-28T11:49:20Z</time>
      </trkpt>
      <trkpt lat="47.61323" lon="-2.83352">
        <ele>4.7</ele>
        <time>2025-01-28T11:49:21Z</time>
      </trkpt>
      <trkpt lat="47.61323" lon="-2.83352">
        <ele>4.7</ele>
        <time>2025-01-28T11:49:22Z</time>
      </trkpt>
      <trkpt lat="47.61323" lon="-2.83352">
        <ele>4.7</ele>
        <time>2025-01-28T11:49:23Z</time>
      </trkpt>
      <trkpt lat="47.61323" lon="-2.83352">
        <ele>4.7</ele>
        <time>2025-01-28T11:49:24Z</time>
      </trkpt>
      <trkpt lat="47.61323" lon="-2.83352">
        <ele>4.7</ele>
        <time>2025-01-28T11:49:25Z</time>
      </trkpt>
      <trkpt lat="47.61323" lon="-2.83352">
        <ele>4.7</ele>
        <time>2025-01-28T11:49:26Z</time>
      </trkpt>
      <trkpt lat="47.61323" lon="-2.83352">
        <ele>4.7</ele>
        <time>2025-01-28T11:49:27Z</time>
      </trkpt>
      <trkpt lat="47.61323" lon="-2.83352">
        <ele>4.7</ele>
        <time>2025-01-28T11:49:28Z</time>
      </trkpt>
      <trkpt lat="47.61323" lon="-2.83352">
        <ele>4.7</ele>
        <time>2025-01-28T11:49:29Z</time>
      </trkpt>
      <trkpt lat="47.61323" lon="-2.83352">
        <ele>4.7</ele>
        <time>2025-01-28T11:49:30Z</time>
      </trkpt>
      <trkpt lat="47.61323" lon="-2.83352">
        <ele>4.7</ele>
        <time>2025-01-28T11:49:31Z</time>
      </trkpt>
      <trkpt lat="47.61323" lon="-2.83352">
        <ele>4.7</ele>
        <time>2025-01-28T11:49:32Z</time>
      </trkpt>
      <trkpt lat="47.61323" lon="-2.83352">
        <ele>4.7</ele>
        <time>2025-01-28T11:49:33Z</time>
      </trkpt>
      <trkpt lat="47.61323" lon="-2.83352">
        <ele>4.7</ele>
        <time>2025-01-28T11:49:34Z</time>
      </trkpt>
      <trkpt lat="47.61323" lon="-2.83352">
        <ele>4.7</ele>
        <time>2025-01-28T11:49:35Z</time>
      </trkpt>
      <trkpt lat="47.61323" lon="-2.83352">
        <ele>4.7</ele>
        <time>2025-01-28T11:49:36Z</time>
      </trkpt>
      <trkpt lat="47.61323" lon="-2.83352">
        <ele>4.7</ele>
        <time>2025-01-28T11:49:37Z</time>
      </trkpt>
      <trkpt lat="47.61323" lon="-2.83352">
        <ele>4.7</ele>
        <time>2025-01-28T11:49:38Z</time>
      </trkpt>
      <trkpt lat="47.61323" lon="-2.83352">
        <ele>4.7</ele>
        <time>2025-01-28T11:49:39Z</time>
      </trkpt>
      <trkpt lat="47.61323" lon="-2.83352">
        <ele>4.7</ele>
        <time>2025-01-28T11:49:40Z</time>
      </trkpt>
      <trkpt lat="47.61323" lon="-2.83352">
        <ele>4.7</ele>
        <time>2025-01-28T11:49:41Z</time>
      </trkpt>
      <trkpt lat="47.61323" lon="-2.83352">
        <ele>4.7</ele>
        <time>2025-01-28T11:49:42Z</time>
      </trkpt>
      <trkpt lat="47.61323" lon="-2.83352">
        <ele>4.7</ele>
        <time>2025-01-28T11:49:43Z</time>
      </trkpt>
      <trkpt lat="47.61323" lon="-2.83352">
        <ele>4.7</ele>
        <time>2025-01-28T11:49:44Z</time>
      </trkpt>
      <trkpt lat="47.61323" lon="-2.83352">
        <ele>4.7</ele>
        <time>2025-01-28T11:49:45Z</time>
      </trkpt>
      <trkpt lat="47.61323" lon="-2.83352">
        <ele>4.7</ele>
        <time>2025-01-28T11:49:46Z</time>
      </trkpt>
      <trkpt lat="47.61323" lon="-2.83352">
        <ele>4.7</ele>
        <time>2025-01-28T11:49:47Z</time>
      </trkpt>
      <trkpt lat="47.61323" lon="-2.83352">
        <ele>4.7</ele>
        <time>2025-01-28T11:49:48Z</time>
      </trkpt>
      <trkpt lat="47.61323" lon="-2.83352">
        <ele>4.7</ele>
        <time>2025-01-28T11:49:49Z</time>
      </trkpt>
      <trkpt lat="47.61323" lon="-2.83352">
        <ele>4.7</ele>
        <time>2025-01-28T11:49:50Z</time>
      </trkpt>
      <trkpt lat="47.61323" lon="-2.83352">
        <ele>4.7</ele>
        <time>2025-01-28T11:49:51Z</time>
      </trkpt>
      <trkpt lat="47.61323" lon="-2.83352">
        <ele>4.7</ele>
        <time>2025-01-28T11:49:52Z</time>
      </trkpt>
      <trkpt lat="47.61323" lon="-2.83352">
        <ele>4.7</ele>
        <time>2025-01-28T11:49:53Z</time>
      </trkpt>
      <trkpt lat="47.61323" lon="-2.83352">
        <ele>4.7</ele>
        <time>2025-01-28T11:49:54Z</time>
      </trkpt>
      <trkpt lat="47.61323" lon="-2.83352">
        <ele>4.7</ele>
        <time>2025-01-28T11:49:55Z</time>
      </trkpt>
      <trkpt lat="47.61323" lon="-2.83352">
        <ele>4.7</ele>
        <time>2025-01-28T11:49:56Z</time>
      </trkpt>
      <trkpt lat="47.61323" lon="-2.83352">
        <ele>4.7</ele>
        <time>2025-01-28T11:49:57Z</time>
      </trkpt>
      <trkpt lat="47.61323" lon="-2.83352">
        <ele>4.7</ele>
        <time>2025-01-28T11:49:58Z</time>
      </trkpt>
      <trkpt lat="47.61323" lon="-2.83352">
        <ele>4.8</ele>
        <time>2025-01-28T11:49:59Z</time>
      </trkpt>
      <trkpt lat="47.61324" lon="-2.83352">
        <ele>4.8</ele>
        <time>2025-01-28T11:50:00Z</time>
      </trkpt>
      <trkpt lat="47.61324" lon="-2.83352">
        <ele>4.8</ele>
        <time>2025-01-28T11:50:01Z</time>
      </trkpt>
      <trkpt lat="47.61324" lon="-2.83352">
        <ele>4.8</ele>
        <time>2025-01-28T11:50:02Z</time>
      </trkpt>
      <trkpt lat="47.61324" lon="-2.83352">
        <ele>4.8</ele>
        <time>2025-01-28T11:50:03Z</time>
      </trkpt>
      <trkpt lat="47.61324" lon="-2.83352">
        <ele>4.8</ele>
        <time>2025-01-28T11:50:04Z</time>
      </trkpt>
      <trkpt lat="47.61324" lon="-2.83352">
        <ele>4.8</ele>
        <time>2025-01-28T11:50:05Z</time>
      </trkpt>
      <trkpt lat="47.61324" lon="-2.83352">
        <ele>4.8</ele>
        <time>2025-01-28T11:50:06Z</time>
      </trkpt>
      <trkpt lat="47.61324" lon="-2.83352">
        <ele>4.8</ele>
        <time>2025-01-28T11:50:07Z</time>
      </trkpt>
      <trkpt lat="47.61324" lon="-2.83352">
        <ele>4.8</ele>
        <time>2025-01-28T11:50:08Z</time>
      </trkpt>
      <trkpt lat="47.61324" lon="-2.83352">
        <ele>4.8</ele>
        <time>2025-01-28T11:50:09Z</time>
      </trkpt>
      <trkpt lat="47.61324" lon="-2.83352">
        <ele>4.8</ele>
        <time>2025-01-28T11:50:10Z</time>
      </trkpt>
      <trkpt lat="47.61324" lon="-2.83352">
        <ele>4.8</ele>
        <time>2025-01-28T11:50:11Z</time>
      </trkpt>
      <trkpt lat="47.61324" lon="-2.83352">
        <ele>4.8</ele>
        <time>2025-01-28T11:50:12Z</time>
      </trkpt>
      <trkpt lat="47.61324" lon="-2.83352">
        <ele>4.8</ele>
        <time>2025-01-28T11:50:13Z</time>
      </trkpt>
      <trkpt lat="47.61324" lon="-2.83352">
        <ele>4.8</ele>
        <time>2025-01-28T11:50:14Z</time>
      </trkpt>
      <trkpt lat="47.61324" lon="-2.83352">
        <ele>4.8</ele>
        <time>2025-01-28T11:50:15Z</time>
      </trkpt>
      <trkpt lat="47.61324" lon="-2.83352">
        <ele>4.8</ele>
        <time>2025-01-28T11:50:16Z</time>
      </trkpt>
      <trkpt lat="47.61324" lon="-2.83352">
        <ele>4.8</ele>
        <time>2025-01-28T11:50:17Z</time>
      </trkpt>
      <trkpt lat="47.61324" lon="-2.83352">
        <ele>4.8</ele>
        <time>2025-01-28T11:50:18Z</time>
      </trkpt>
      <trkpt lat="47.61324" lon="-2.83352">
        <ele>4.8</ele>
        <time>2025-01-28T11:50:19Z</time>
      </trkpt>
      <trkpt lat="47.61324" lon="-2.83352">
        <ele>4.8</ele>
        <time>2025-01-28T11:50:20Z</time>
      </trkpt>
      <trkpt lat="47.61324" lon="-2.83352">
        <ele>4.8</ele>
        <time>2025-01-28T11:50:21Z</time>
      </trkpt>
      <trkpt lat="47.61324" lon="-2.83352">
        <ele>4.8</ele>
        <time>2025-01-28T11:50:22Z</time>
      </trkpt>
      <trkpt lat="47.61324" lon="-2.83352">
        <ele>4.8</ele>
        <time>2025-01-28T11:50:23Z</time>
      </trkpt>
      <trkpt lat="47.61324" lon="-2.83352">
        <ele>4.8</ele>
        <time>2025-01-28T11:50:24Z</time>
      </trkpt>
      <trkpt lat="47.61324" lon="-2.83352">
        <ele>4.8</ele>
        <time>2025-01-28T11:50:25Z</time>
      </trkpt>
      <trkpt lat="47.61324" lon="-2.83352">
        <ele>4.8</ele>
        <time>2025-01-28T11:50:26Z</time>
      </trkpt>
      <trkpt lat="47.61324" lon="-2.83352">
        <ele>4.8</ele>
        <time>2025-01-28T11:50:27Z</time>
      </trkpt>
      <trkpt lat="47.61324" lon="-2.83352">
        <ele>4.8</ele>
        <time>2025-01-28T11:50:28Z</time>
      </trkpt>
      <trkpt lat="47.61324" lon="-2.83352">
        <ele>4.8</ele>
        <time>2025-01-28T11:50:29Z</time>
      </trkpt>
      <trkpt lat="47.61324" lon="-2.83352">
        <ele>4.8</ele>
        <time>2025-01-28T11:50:30Z</time>
      </trkpt>
      <trkpt lat="47.61324" lon="-2.83352">
        <ele>4.8</ele>
        <time>2025-01-28T11:50:31Z</time>
      </trkpt>
      <trkpt lat="47.61324" lon="-2.83352">
        <ele>4.8</ele>
        <time>2025-01-28T11:50:32Z</time>
      </trkpt>
      <trkpt lat="47.61324" lon="-2.83352">
        <ele>4.8</ele>
        <time>2025-01-28T11:50:33Z</time>
      </trkpt>
      <trkpt lat="47.61324" lon="-2.83352">
        <ele>4.8</ele>
        <time>2025-01-28T11:50:34Z</time>
      </trkpt>
      <trkpt lat="47.61324" lon="-2.83352">
        <ele>4.8</ele>
        <time>2025-01-28T11:50:35Z</time>
      </trkpt>
      <trkpt lat="47.61324" lon="-2.83352">
        <ele>4.8</ele>
        <time>2025-01-28T11:50:36Z</time>
      </trkpt>
      <trkpt lat="47.61324" lon="-2.83352">
        <ele>4.8</ele>
        <time>2025-01-28T11:50:37Z</time>
      </trkpt>
      <trkpt lat="47.61324" lon="-2.83352">
        <ele>4.8</ele>
        <time>2025-01-28T11:50:38Z</time>
      </trkpt>
      <trkpt lat="47.61324" lon="-2.83352">
        <ele>4.8</ele>
        <time>2025-01-28T11:50:39Z</time>
      </trkpt>
      <trkpt lat="47.61324" lon="-2.83352">
        <ele>4.8</ele>
        <time>2025-01-28T11:50:40Z</time>
      </trkpt>
      <trkpt lat="47.61324" lon="-2.83352">
        <ele>4.8</ele>
        <time>2025-01-28T11:50:41Z</time>
      </trkpt>
      <trkpt lat="47.61324" lon="-2.83352">
        <ele>4.8</ele>
        <time>2025-01-28T11:50:42Z</time>
      </trkpt>
      <trkpt lat="47.61324" lon="-2.83352">
        <ele>4.8</ele>
        <time>2025-01-28T11:50:43Z</time>
      </trkpt>
      <trkpt lat="47.61324" lon="-2.83352">
        <ele>4.8</ele>
        <time>2025-01-28T11:50:44Z</time>
      </trkpt>
      <trkpt lat="47.61324" lon="-2.83352">
        <ele>4.8</ele>
        <time>2025-01-28T11:50:45Z</time>
      </trkpt>
      <trkpt lat="47.61324" lon="-2.83352">
        <ele>4.8</ele>
        <time>2025-01-28T11:50:46Z</time>
      </trkpt>
      <trkpt lat="47.61324" lon="-2.83352">
        <ele>4.8</ele>
        <time>2025-01-28T11:50:47Z</time>
      </trkpt>
      <trkpt lat="47.61324" lon="-2.83352">
        <ele>4.8</ele>
        <time>2025-01-28T11:50:48Z</time>
      </trkpt>
      <trkpt lat="47.61324" lon="-2.83352">
        <ele>4.8</ele>
        <time>2025-01-28T11:50:49Z</time>
      </trkpt>
      <trkpt lat="47.61324" lon="-2.83352">
        <ele>4.8</ele>
        <time>2025-01-28T11:50:50Z</time>
      </trkpt>
      <trkpt lat="47.61324" lon="-2.83352">
        <ele>4.8</ele>
        <time>2025-01-28T11:50:51Z</time>
      </trkpt>
      <trkpt lat="47.61324" lon="-2.83352">
        <ele>4.8</ele>
        <time>2025-01-28T11:50:52Z</time>
      </trkpt>
      <trkpt lat="47.61324" lon="-2.83352">
        <ele>4.8</ele>
        <time>2025-01-28T11:50:53Z</time>
      </trkpt>
      <trkpt lat="47.61324" lon="-2.83352">
        <ele>4.8</ele>
        <time>2025-01-28T11:50:54Z</time>
      </trkpt>
      <trkpt lat="47.61324" lon="-2.83352">
        <ele>4.8</ele>
        <time>2025-01-28T11:50:55Z</time>
      </trkpt>
      <trkpt lat="47.61324" lon="-2.83352">
        <ele>4.8</ele>
        <time>2025-01-28T11:50:56Z</time>
      </trkpt>
      <trkpt lat="47.61324" lon="-2.83352">
        <ele>4.8</ele>
        <time>2025-01-28T11:50:57Z</time>
      </trkpt>
      <trkpt lat="47.61324" lon="-2.83352">
        <ele>4.8</ele>
        <time>2025-01-28T11:50:58Z</time>
      </trkpt>
      <trkpt lat="47.61324" lon="-2.83352">
        <ele>4.8</ele>
        <time>2025-01-28T11:50:59Z</time>
      </trkpt>
      <trkpt lat="47.61324" lon="-2.83352">
        <ele>4.8</ele>
        <time>2025-01-28T11:51:00Z</time>
      </trkpt>
      <trkpt lat="47.61324" lon="-2.83352">
        <ele>4.8</ele>
        <time>2025-01-28T11:51:01Z</time>
      </trkpt>
      <trkpt lat="47.61324" lon="-2.83352">
        <ele>4.8</ele>
        <time>2025-01-28T11:51:02Z</time>
      </trkpt>
      <trkpt lat="47.61324" lon="-2.83352">
        <ele>4.8</ele>
        <time>2025-01-28T11:51:03Z</time>
      </trkpt>
      <trkpt lat="47.61324" lon="-2.83352">
        <ele>4.8</ele>
        <time>2025-01-28T11:51:04Z</time>
      </trkpt>
      <trkpt lat="47.61324" lon="-2.83352">
        <ele>4.8</ele>
        <time>2025-01-28T11:51:05Z</time>
      </trkpt>
      <trkpt lat="47.61324" lon="-2.83352">
        <ele>4.8</ele>
        <time>2025-01-28T11:51:06Z</time>
      </trkpt>
      <trkpt lat="47.61324" lon="-2.83352">
        <ele>4.8</ele>
        <time>2025-01-28T11:51:07Z</time>
      </trkpt>
      <trkpt lat="47.61324" lon="-2.83352">
        <ele>4.8</ele>
        <time>2025-01-28T11:51:08Z</time>
      </trkpt>
      <trkpt lat="47.61324" lon="-2.83352">
        <ele>4.8</ele>
        <time>2025-01-28T11:51:09Z</time>
      </trkpt>
      <trkpt lat="47.61324" lon="-2.83352">
        <ele>4.8</ele>
        <time>2025-01-28T11:51:10Z</time>
      </trkpt>
      <trkpt lat="47.61324" lon="-2.83352">
        <ele>4.8</ele>
        <time>2025-01-28T11:51:11Z</time>
      </trkpt>
      <trkpt lat="47.61324" lon="-2.83352">
        <ele>4.8</ele>
        <time>2025-01-28T11:51:12Z</time>
      </trkpt>
      <trkpt lat="47.61324" lon="-2.83352">
        <ele>4.8</ele>
        <time>2025-01-28T11:51:13Z</time>
      </trkpt>
      <trkpt lat="47.61324" lon="-2.83352">
        <ele>4.8</ele>
        <time>2025-01-28T11:51:14Z</time>
      </trkpt>
      <trkpt lat="47.61324" lon="-2.83352">
        <ele>4.8</ele>
        <time>2025-01-28T11:51:15Z</time>
      </trkpt>
      <trkpt lat="47.61324" lon="-2.83352">
        <ele>4.8</ele>
        <time>2025-01-28T11:51:16Z</time>
      </trkpt>
      <trkpt lat="47.61324" lon="-2.83352">
        <ele>4.8</ele>
        <time>2025-01-28T11:51:17Z</time>
      </trkpt>
      <trkpt lat="47.61324" lon="-2.83352">
        <ele>4.8</ele>
        <time>2025-01-28T11:51:18Z</time>
      </trkpt>
      <trkpt lat="47.61324" lon="-2.83352">
        <ele>4.8</ele>
        <time>2025-01-28T11:51:19Z</time>
      </trkpt>
      <trkpt lat="47.61324" lon="-2.83352">
        <ele>4.8</ele>
        <time>2025-01-28T11:51:20Z</time>
      </trkpt>
      <trkpt lat="47.61324" lon="-2.83352">
        <ele>4.8</ele>
        <time>2025-01-28T11:51:21Z</time>
      </trkpt>
      <trkpt lat="47.61324" lon="-2.83352">
        <ele>4.8</ele>
        <time>2025-01-28T11:51:22Z</time>
      </trkpt>
      <trkpt lat="47.61324" lon="-2.83352">
        <ele>4.8</ele>
        <time>2025-01-28T11:51:23Z</time>
      </trkpt>
      <trkpt lat="47.61324" lon="-2.83352">
        <ele>4.8</ele>
        <time>2025-01-28T11:51:24Z</time>
      </trkpt>
      <trkpt lat="47.61324" lon="-2.83352">
        <ele>4.8</ele>
        <time>2025-01-28T11:51:25Z</time>
      </trkpt>
      <trkpt lat="47.61324" lon="-2.83352">
        <ele>4.8</ele>
        <time>2025-01-28T11:51:26Z</time>
      </trkpt>
      <trkpt lat="47.61324" lon="-2.83352">
        <ele>4.8</ele>
        <time>2025-01-28T11:51:27Z</time>
      </trkpt>
      <trkpt lat="47.61324" lon="-2.83352">
        <ele>4.8</ele>
        <time>2025-01-28T11:51:28Z</time>
      </trkpt>
      <trkpt lat="47.61324" lon="-2.83352">
        <ele>4.8</ele>
        <time>2025-01-28T11:51:29Z</time>
      </trkpt>
      <trkpt lat="47.61324" lon="-2.83352">
        <ele>4.8</ele>
        <time>2025-01-28T11:51:30Z</time>
      </trkpt>
      <trkpt lat="47.61324" lon="-2.83352">
        <ele>4.8</ele>
        <time>2025-01-28T11:51:31Z</time>
      </trkpt>
      <trkpt lat="47.61324" lon="-2.83352">
        <ele>4.8</ele>
        <time>2025-01-28T11:51:32Z</time>
      </trkpt>
      <trkpt lat="47.61324" lon="-2.83352">
        <ele>4.8</ele>
        <time>2025-01-28T11:51:33Z</time>
      </trkpt>
      <trkpt lat="47.61324" lon="-2.83352">
        <ele>4.8</ele>
        <time>2025-01-28T11:51:34Z</time>
      </trkpt>
      <trkpt lat="47.61324" lon="-2.83352">
        <ele>4.8</ele>
        <time>2025-01-28T11:51:35Z</time>
      </trkpt>
      <trkpt lat="47.61324" lon="-2.83352">
        <ele>4.8</ele>
        <time>2025-01-28T11:51:36Z</time>
      </trkpt>
      <trkpt lat="47.61324" lon="-2.83352">
        <ele>4.8</ele>
        <time>2025-01-28T11:51:37Z</time>
      </trkpt>
      <trkpt lat="47.61324" lon="-2.83352">
        <ele>4.8</ele>
        <time>2025-01-28T11:51:38Z</time>
      </trkpt>
      <trkpt lat="47.61324" lon="-2.83352">
        <ele>4.8</ele>
        <time>2025-01-28T11:51:39Z</time>
      </trkpt>
      <trkpt lat="47.61324" lon="-2.83352">
        <ele>4.8</ele>
        <time>2025-01-28T11:51:40Z</time>
      </trkpt>
      <trkpt lat="47.61324" lon="-2.83352">
        <ele>4.8</ele>
        <time>2025-01-28T11:51:41Z</time>
      </trkpt>
      <trkpt lat="47.61324" lon="-2.83352">
        <ele>4.8</ele>
        <time>2025-01-28T11:51:42Z</time>
      </trkpt>
      <trkpt lat="47.61324" lon="-2.83352">
        <ele>4.8</ele>
        <time>2025-01-28T11:51:43Z</time>
      </trkpt>
      <trkpt lat="47.61324" lon="-2.83352">
        <ele>4.8</ele>
        <time>2025-01-28T11:51:44Z</time>
      </trkpt>
      <trkpt lat="47.61324" lon="-2.83352">
        <ele>4.8</ele>
        <time>2025-01-28T11:51:45Z</time>
      </trkpt>
      <trkpt lat="47.61324" lon="-2.83352">
        <ele>4.8</ele>
        <time>2025-01-28T11:51:46Z</time>
      </trkpt>
      <trkpt lat="47.61324" lon="-2.83352">
        <ele>4.8</ele>
        <time>2025-01-28T11:51:47Z</time>
      </trkpt>
      <trkpt lat="47.61324" lon="-2.83352">
        <ele>4.8</ele>
        <time>2025-01-28T11:51:48Z</time>
      </trkpt>
      <trkpt lat="47.61324" lon="-2.83352">
        <ele>4.8</ele>
        <time>2025-01-28T11:51:49Z</time>
      </trkpt>
      <trkpt lat="47.61324" lon="-2.83352">
        <ele>4.8</ele>
        <time>2025-01-28T11:51:50Z</time>
      </trkpt>
      <trkpt lat="47.61324" lon="-2.83352">
        <ele>4.8</ele>
        <time>2025-01-28T11:51:51Z</time>
      </trkpt>
      <trkpt lat="47.61324" lon="-2.83352">
        <ele>4.8</ele>
        <time>2025-01-28T11:51:52Z</time>
      </trkpt>
      <trkpt lat="47.61324" lon="-2.83352">
        <ele>4.8</ele>
        <time>2025-01-28T11:51:53Z</time>
      </trkpt>
      <trkpt lat="47.61324" lon="-2.83352">
        <ele>4.8</ele>
        <time>2025-01-28T11:51:54Z</time>
      </trkpt>
      <trkpt lat="47.61324" lon="-2.83352">
        <ele>4.8</ele>
        <time>2025-01-28T11:51:55Z</time>
      </trkpt>
      <trkpt lat="47.61324" lon="-2.83352">
        <ele>4.8</ele>
        <time>2025-01-28T11:51:56Z</time>
      </trkpt>
      <trkpt lat="47.61324" lon="-2.83352">
        <ele>4.8</ele>
        <time>2025-01-28T11:51:57Z</time>
      </trkpt>
      <trkpt lat="47.61323" lon="-2.83352">
        <ele>4.8</ele>
        <time>2025-01-28T11:51:58Z</time>
      </trkpt>
      <trkpt lat="47.61323" lon="-2.83352">
        <ele>4.8</ele>
        <time>2025-01-28T11:51:59Z</time>
      </trkpt>
      <trkpt lat="47.61323" lon="-2.83352">
        <ele>4.8</ele>
        <time>2025-01-28T11:52:00Z</time>
      </trkpt>
      <trkpt lat="47.61323" lon="-2.83352">
        <ele>4.8</ele>
        <time>2025-01-28T11:52:01Z</time>
      </trkpt>
      <trkpt lat="47.61323" lon="-2.83352">
        <ele>4.8</ele>
        <time>2025-01-28T11:52:02Z</time>
      </trkpt>
      <trkpt lat="47.61323" lon="-2.83352">
        <ele>4.8</ele>
        <time>2025-01-28T11:52:03Z</time>
      </trkpt>
      <trkpt lat="47.61323" lon="-2.83352">
        <ele>4.8</ele>
        <time>2025-01-28T11:52:04Z</time>
      </trkpt>
      <trkpt lat="47.61323" lon="-2.83352">
        <ele>4.8</ele>
        <time>2025-01-28T11:52:05Z</time>
      </trkpt>
      <trkpt lat="47.61323" lon="-2.83352">
        <ele>4.8</ele>
        <time>2025-01-28T11:52:06Z</time>
      </trkpt>
      <trkpt lat="47.61323" lon="-2.83352">
        <ele>4.8</ele>
        <time>2025-01-28T11:52:07Z</time>
      </trkpt>
      <trkpt lat="47.61323" lon="-2.83352">
        <ele>4.8</ele>
        <time>2025-01-28T11:52:08Z</time>
      </trkpt>
      <trkpt lat="47.61323" lon="-2.83352">
        <ele>4.8</ele>
        <time>2025-01-28T11:52:09Z</time>
      </trkpt>
      <trkpt lat="47.61323" lon="-2.83352">
        <ele>4.8</ele>
        <time>2025-01-28T11:52:10Z</time>
      </trkpt>
      <trkpt lat="47.61323" lon="-2.83352">
        <ele>4.8</ele>
        <time>2025-01-28T11:52:11Z</time>
      </trkpt>
      <trkpt lat="47.61323" lon="-2.83352">
        <ele>4.8</ele>
        <time>2025-01-28T11:52:12Z</time>
      </trkpt>
      <trkpt lat="47.61323" lon="-2.83352">
        <ele>4.8</ele>
        <time>2025-01-28T11:52:13Z</time>
      </trkpt>
      <trkpt lat="47.61323" lon="-2.83352">
        <ele>4.8</ele>
        <time>2025-01-28T11:52:14Z</time>
      </trkpt>
      <trkpt lat="47.61323" lon="-2.83352">
        <ele>4.8</ele>
        <time>2025-01-28T11:52:15Z</time>
      </trkpt>
      <trkpt lat="47.61323" lon="-2.83352">
        <ele>4.8</ele>
        <time>2025-01-28T11:52:16Z</time>
      </trkpt>
      <trkpt lat="47.61323" lon="-2.83352">
        <ele>4.8</ele>
        <time>2025-01-28T11:52:17Z</time>
      </trkpt>
      <trkpt lat="47.61323" lon="-2.83352">
        <ele>4.8</ele>
        <time>2025-01-28T11:52:18Z</time>
      </trkpt>
      <trkpt lat="47.61323" lon="-2.83352">
        <ele>4.8</ele>
        <time>2025-01-28T11:52:19Z</time>
      </trkpt>
      <trkpt lat="47.61323" lon="-2.83352">
        <ele>4.8</ele>
        <time>2025-01-28T11:52:20Z</time>
      </trkpt>
      <trkpt lat="47.61323" lon="-2.83352">
        <ele>4.8</ele>
        <time>2025-01-28T11:52:21Z</time>
      </trkpt>
      <trkpt lat="47.61323" lon="-2.83352">
        <ele>4.8</ele>
        <time>2025-01-28T11:52:22Z</time>
      </trkpt>
      <trkpt lat="47.61323" lon="-2.83352">
        <ele>4.8</ele>
        <time>2025-01-28T11:52:23Z</time>
      </trkpt>
      <trkpt lat="47.61323" lon="-2.83352">
        <ele>4.8</ele>
        <time>2025-01-28T11:52:24Z</time>
      </trkpt>
      <trkpt lat="47.61324" lon="-2.83352">
        <ele>4.8</ele>
        <time>2025-01-28T11:52:25Z</time>
      </trkpt>
      <trkpt lat="47.61324" lon="-2.83352">
        <ele>4.8</ele>
        <time>2025-01-28T11:52:26Z</time>
      </trkpt>
      <trkpt lat="47.61324" lon="-2.83352">
        <ele>4.8</ele>
        <time>2025-01-28T11:52:27Z</time>
      </trkpt>
      <trkpt lat="47.61324" lon="-2.83352">
        <ele>4.8</ele>
        <time>2025-01-28T11:52:28Z</time>
      </trkpt>
      <trkpt lat="47.61324" lon="-2.83352">
        <ele>4.8</ele>
        <time>2025-01-28T11:52:29Z</time>
      </trkpt>
      <trkpt lat="47.61324" lon="-2.83352">
        <ele>4.8</ele>
        <time>2025-01-28T11:52:30Z</time>
      </trkpt>
      <trkpt lat="47.61324" lon="-2.83352">
        <ele>4.8</ele>
        <time>2025-01-28T11:52:31Z</time>
      </trkpt>
      <trkpt lat="47.61324" lon="-2.83352">
        <ele>4.8</ele>
        <time>2025-01-28T11:52:32Z</time>
      </trkpt>
      <trkpt lat="47.61324" lon="-2.83352">
        <ele>4.8</ele>
        <time>2025-01-28T11:52:33Z</time>
      </trkpt>
      <trkpt lat="47.61324" lon="-2.83352">
        <ele>4.8</ele>
        <time>2025-01-28T11:52:34Z</time>
      </trkpt>
      <trkpt lat="47.61324" lon="-2.83352">
        <ele>4.8</ele>
        <time>2025-01-28T11:52:35Z</time>
      </trkpt>
      <trkpt lat="47.61324" lon="-2.83352">
        <ele>4.8</ele>
        <time>2025-01-28T11:52:36Z</time>
      </trkpt>
      <trkpt lat="47.61324" lon="-2.83352">
        <ele>4.8</ele>
        <time>2025-01-28T11:52:37Z</time>
      </trkpt>
      <trkpt lat="47.61324" lon="-2.83352">
        <ele>4.8</ele>
        <time>2025-01-28T11:52:38Z</time>
      </trkpt>
      <trkpt lat="47.61324" lon="-2.83352">
        <ele>4.8</ele>
        <time>2025-01-28T11:52:39Z</time>
      </trkpt>
      <trkpt lat="47.61324" lon="-2.83352">
        <ele>4.8</ele>
        <time>2025-01-28T11:52:40Z</time>
      </trkpt>
      <trkpt lat="47.61324" lon="-2.83352">
        <ele>4.8</ele>
        <time>2025-01-28T11:52:41Z</time>
      </trkpt>
      <trkpt lat="47.61324" lon="-2.83352">
        <ele>4.8</ele>
        <time>2025-01-28T11:52:42Z</time>
      </trkpt>
      <trkpt lat="47.61324" lon="-2.83352">
        <ele>4.8</ele>
        <time>2025-01-28T11:52:43Z</time>
      </trkpt>
      <trkpt lat="47.61324" lon="-2.83352">
        <ele>4.8</ele>
        <time>2025-01-28T11:52:44Z</time>
      </trkpt>
      <trkpt lat="47.61324" lon="-2.83352">
        <ele>4.8</ele>
        <time>2025-01-28T11:52:45Z</time>
      </trkpt>
      <trkpt lat="47.61324" lon="-2.83352">
        <ele>4.8</ele>
        <time>2025-01-28T11:52:46Z</time>
      </trkpt>
      <trkpt lat="47.61324" lon="-2.83352">
        <ele>4.8</ele>
        <time>2025-01-28T11:52:47Z</time>
      </trkpt>
      <trkpt lat="47.61324" lon="-2.83352">
        <ele>4.8</ele>
        <time>2025-01-28T11:52:48Z</time>
      </trkpt>
      <trkpt lat="47.61324" lon="-2.83352">
        <ele>4.8</ele>
        <time>2025-01-28T11:52:49Z</time>
      </trkpt>
      <trkpt lat="47.61324" lon="-2.83352">
        <ele>4.8</ele>
        <time>2025-01-28T11:52:50Z</time>
      </trkpt>
      <trkpt lat="47.61324" lon="-2.83352">
        <ele>4.8</ele>
        <time>2025-01-28T11:52:51Z</time>
      </trkpt>
      <trkpt lat="47.61324" lon="-2.83352">
        <ele>4.8</ele>
        <time>2025-01-28T11:52:52Z</time>
      </trkpt>
      <trkpt lat="47.61324" lon="-2.83352">
        <ele>4.8</ele>
        <time>2025-01-28T11:52:53Z</time>
      </trkpt>
      <trkpt lat="47.61324" lon="-2.83352">
        <ele>4.8</ele>
        <time>2025-01-28T11:52:54Z</time>
      </trkpt>
      <trkpt lat="47.61324" lon="-2.83352">
        <ele>4.8</ele>
        <time>2025-01-28T11:52:55Z</time>
      </trkpt>
      <trkpt lat="47.61324" lon="-2.83352">
        <ele>4.8</ele>
        <time>2025-01-28T11:52:56Z</time>
      </trkpt>
      <trkpt lat="47.61324" lon="-2.83352">
        <ele>4.8</ele>
        <time>2025-01-28T11:52:57Z</time>
      </trkpt>
      <trkpt lat="47.61324" lon="-2.83352">
        <ele>4.8</ele>
        <time>2025-01-28T11:52:58Z</time>
      </trkpt>
      <trkpt lat="47.61324" lon="-2.83352">
        <ele>4.8</ele>
        <time>2025-01-28T11:52:59Z</time>
      </trkpt>
      <trkpt lat="47.61324" lon="-2.83352">
        <ele>4.8</ele>
        <time>2025-01-28T11:53:00Z</time>
      </trkpt>
      <trkpt lat="47.61324" lon="-2.83352">
        <ele>4.8</ele>
        <time>2025-01-28T11:53:01Z</time>
      </trkpt>
      <trkpt lat="47.61324" lon="-2.83352">
        <ele>4.8</ele>
        <time>2025-01-28T11:53:02Z</time>
      </trkpt>
      <trkpt lat="47.61324" lon="-2.83352">
        <ele>4.8</ele>
        <time>2025-01-28T11:53:03Z</time>
      </trkpt>
      <trkpt lat="47.61324" lon="-2.83352">
        <ele>4.8</ele>
        <time>2025-01-28T11:53:04Z</time>
      </trkpt>
      <trkpt lat="47.61324" lon="-2.83352">
        <ele>4.8</ele>
        <time>2025-01-28T11:53:05Z</time>
      </trkpt>
      <trkpt lat="47.61324" lon="-2.83352">
        <ele>4.8</ele>
        <time>2025-01-28T11:53:06Z</time>
      </trkpt>
      <trkpt lat="47.61324" lon="-2.83352">
        <ele>4.8</ele>
        <time>2025-01-28T11:53:07Z</time>
      </trkpt>
      <trkpt lat="47.61324" lon="-2.83352">
        <ele>4.8</ele>
        <time>2025-01-28T11:53:08Z</time>
      </trkpt>
      <trkpt lat="47.61324" lon="-2.83352">
        <ele>4.8</ele>
        <time>2025-01-28T11:53:09Z</time>
      </trkpt>
      <trkpt lat="47.61324" lon="-2.83352">
        <ele>4.8</ele>
        <time>2025-01-28T11:53:10Z</time>
      </trkpt>
      <trkpt lat="47.61324" lon="-2.83352">
        <ele>4.8</ele>
        <time>2025-01-28T11:53:11Z</time>
      </trkpt>
      <trkpt lat="47.61324" lon="-2.83352">
        <ele>4.8</ele>
        <time>2025-01-28T11:53:12Z</time>
      </trkpt>
      <trkpt lat="47.61324" lon="-2.83352">
        <ele>4.8</ele>
        <time>2025-01-28T11:53:13Z</time>
      </trkpt>
      <trkpt lat="47.61324" lon="-2.83352">
        <ele>4.8</ele>
        <time>2025-01-28T11:53:14Z</time>
      </trkpt>
      <trkpt lat="47.61324" lon="-2.83352">
        <ele>4.8</ele>
        <time>2025-01-28T11:53:15Z</time>
      </trkpt>
      <trkpt lat="47.61324" lon="-2.83352">
        <ele>4.8</ele>
        <time>2025-01-28T11:53:16Z</time>
      </trkpt>
      <trkpt lat="47.61324" lon="-2.83352">
        <ele>4.8</ele>
        <time>2025-01-28T11:53:17Z</time>
      </trkpt>
      <trkpt lat="47.61324" lon="-2.83352">
        <ele>4.8</ele>
        <time>2025-01-28T11:53:18Z</time>
      </trkpt>
      <trkpt lat="47.61324" lon="-2.83352">
        <ele>4.8</ele>
        <time>2025-01-28T11:53:19Z</time>
      </trkpt>
      <trkpt lat="47.61324" lon="-2.83352">
        <ele>4.8</ele>
        <time>2025-01-28T11:53:20Z</time>
      </trkpt>
      <trkpt lat="47.61324" lon="-2.83352">
        <ele>4.8</ele>
        <time>2025-01-28T11:53:21Z</time>
      </trkpt>
      <trkpt lat="47.61324" lon="-2.83352">
        <ele>4.8</ele>
        <time>2025-01-28T11:53:22Z</time>
      </trkpt>
      <trkpt lat="47.61324" lon="-2.83352">
        <ele>4.8</ele>
        <time>2025-01-28T11:53:23Z</time>
      </trkpt>
      <trkpt lat="47.61324" lon="-2.83352">
        <ele>4.8</ele>
        <time>2025-01-28T11:53:24Z</time>
      </trkpt>
      <trkpt lat="47.61324" lon="-2.83352">
        <ele>4.8</ele>
        <time>2025-01-28T11:53:25Z</time>
      </trkpt>
      <trkpt lat="47.61324" lon="-2.83352">
        <ele>4.8</ele>
        <time>2025-01-28T11:53:26Z</time>
      </trkpt>
      <trkpt lat="47.61324" lon="-2.83352">
        <ele>4.8</ele>
        <time>2025-01-28T11:53:27Z</time>
      </trkpt>
      <trkpt lat="47.61324" lon="-2.83352">
        <ele>4.8</ele>
        <time>2025-01-28T11:53:28Z</time>
      </trkpt>
      <trkpt lat="47.61324" lon="-2.83352">
        <ele>4.8</ele>
        <time>2025-01-28T11:53:29Z</time>
      </trkpt>
      <trkpt lat="47.61324" lon="-2.83352">
        <ele>4.8</ele>
        <time>2025-01-28T11:53:30Z</time>
      </trkpt>
      <trkpt lat="47.61324" lon="-2.83352">
        <ele>4.8</ele>
        <time>2025-01-28T11:53:31Z</time>
      </trkpt>
      <trkpt lat="47.61324" lon="-2.83352">
        <ele>4.8</ele>
        <time>2025-01-28T11:53:32Z</time>
      </trkpt>
      <trkpt lat="47.61324" lon="-2.83352">
        <ele>4.8</ele>
        <time>2025-01-28T11:53:33Z</time>
      </trkpt>
      <trkpt lat="47.61324" lon="-2.83352">
        <ele>4.8</ele>
        <time>2025-01-28T11:53:34Z</time>
      </trkpt>
      <trkpt lat="47.61324" lon="-2.83352">
        <ele>4.8</ele>
        <time>2025-01-28T11:53:35Z</time>
      </trkpt>
      <trkpt lat="47.61324" lon="-2.83352">
        <ele>4.8</ele>
        <time>2025-01-28T11:53:36Z</time>
      </trkpt>
      <trkpt lat="47.61324" lon="-2.83352">
        <ele>4.8</ele>
        <time>2025-01-28T11:53:37Z</time>
      </trkpt>
      <trkpt lat="47.61324" lon="-2.83352">
        <ele>4.8</ele>
        <time>2025-01-28T11:53:38Z</time>
      </trkpt>
      <trkpt lat="47.61324" lon="-2.83352">
        <ele>4.8</ele>
        <time>2025-01-28T11:53:39Z</time>
      </trkpt>
      <trkpt lat="47.61324" lon="-2.83352">
        <ele>4.8</ele>
        <time>2025-01-28T11:53:40Z</time>
      </trkpt>
      <trkpt lat="47.61324" lon="-2.83352">
        <ele>4.8</ele>
        <time>2025-01-28T11:53:41Z</time>
      </trkpt>
      <trkpt lat="47.61324" lon="-2.83352">
        <ele>4.8</ele>
        <time>2025-01-28T11:53:42Z</time>
      </trkpt>
      <trkpt lat="47.61324" lon="-2.83352">
        <ele>4.8</ele>
        <time>2025-01-28T11:53:43Z</time>
      </trkpt>
      <trkpt lat="47.61324" lon="-2.83352">
        <ele>4.8</ele>
        <time>2025-01-28T11:53:44Z</time>
      </trkpt>
      <trkpt lat="47.61324" lon="-2.83352">
        <ele>4.8</ele>
        <time>2025-01-28T11:53:45Z</time>
      </trkpt>
      <trkpt lat="47.61324" lon="-2.83352">
        <ele>4.8</ele>
        <time>2025-01-28T11:53:46Z</time>
      </trkpt>
      <trkpt lat="47.61324" lon="-2.83352">
        <ele>4.8</ele>
        <time>2025-01-28T11:53:47Z</time>
      </trkpt>
      <trkpt lat="47.61324" lon="-2.83352">
        <ele>4.8</ele>
        <time>2025-01-28T11:53:48Z</time>
      </trkpt>
      <trkpt lat="47.61324" lon="-2.83352">
        <ele>4.8</ele>
        <time>2025-01-28T11:53:49Z</time>
      </trkpt>
      <trkpt lat="47.61324" lon="-2.83351">
        <ele>4.7</ele>
        <time>2025-01-28T11:53:50Z</time>
      </trkpt>
      <trkpt lat="47.61323" lon="-2.83351">
        <ele>4.6</ele>
        <time>2025-01-28T11:53:51Z</time>
      </trkpt>
      <trkpt lat="47.61323" lon="-2.83351">
        <ele>4.6</ele>
        <time>2025-01-28T11:53:52Z</time>
      </trkpt>
      <trkpt lat="47.61323" lon="-2.83351">
        <ele>4.6</ele>
        <time>2025-01-28T11:53:53Z</time>
      </trkpt>
      <trkpt lat="47.61323" lon="-2.83351">
        <ele>4.6</ele>
        <time>2025-01-28T11:53:54Z</time>
      </trkpt>
      <trkpt lat="47.61323" lon="-2.83351">
        <ele>4.6</ele>
        <time>2025-01-28T11:53:55Z</time>
      </trkpt>
      <trkpt lat="47.61323" lon="-2.83351">
        <ele>4.6</ele>
        <time>2025-01-28T11:53:56Z</time>
      </trkpt>
      <trkpt lat="47.61323" lon="-2.83351">
        <ele>4.6</ele>
        <time>2025-01-28T11:53:57Z</time>
      </trkpt>
      <trkpt lat="47.61323" lon="-2.83351">
        <ele>4.6</ele>
        <time>2025-01-28T11:53:58Z</time>
      </trkpt>
      <trkpt lat="47.61323" lon="-2.83351">
        <ele>4.6</ele>
        <time>2025-01-28T11:53:59Z</time>
      </trkpt>
      <trkpt lat="47.61323" lon="-2.83351">
        <ele>4.6</ele>
        <time>2025-01-28T11:54:00Z</time>
      </trkpt>
      <trkpt lat="47.61323" lon="-2.83351">
        <ele>4.6</ele>
        <time>2025-01-28T11:54:01Z</time>
      </trkpt>
      <trkpt lat="47.61323" lon="-2.83351">
        <ele>4.6</ele>
        <time>2025-01-28T11:54:02Z</time>
      </trkpt>
      <trkpt lat="47.61323" lon="-2.83351">
        <ele>4.6</ele>
        <time>2025-01-28T11:54:03Z</time>
      </trkpt>
      <trkpt lat="47.61323" lon="-2.8335">
        <ele>4.5</ele>
        <time>2025-01-28T11:54:04Z</time>
      </trkpt>
      <trkpt lat="47.61323" lon="-2.83351">
        <ele>4.5</ele>
        <time>2025-01-28T11:54:05Z</time>
      </trkpt>
      <trkpt lat="47.61323" lon="-2.83351">
        <ele>4.5</ele>
        <time>2025-01-28T11:54:06Z</time>
      </trkpt>
      <trkpt lat="47.61323" lon="-2.83351">
        <ele>4.5</ele>
        <time>2025-01-28T11:54:07Z</time>
      </trkpt>
      <trkpt lat="47.61323" lon="-2.83351">
        <ele>4.5</ele>
        <time>2025-01-28T11:54:08Z</time>
      </trkpt>
      <trkpt lat="47.61323" lon="-2.83351">
        <ele>4.5</ele>
        <time>2025-01-28T11:54:09Z</time>
      </trkpt>
      <trkpt lat="47.61323" lon="-2.83351">
        <ele>4.5</ele>
        <time>2025-01-28T11:54:10Z</time>
      </trkpt>
      <trkpt lat="47.61323" lon="-2.83351">
        <ele>4.5</ele>
        <time>2025-01-28T11:54:11Z</time>
      </trkpt>
      <trkpt lat="47.61323" lon="-2.83351">
        <ele>4.5</ele>
        <time>2025-01-28T11:54:12Z</time>
      </trkpt>
      <trkpt lat="47.61323" lon="-2.83351">
        <ele>4.5</ele>
        <time>2025-01-28T11:54:13Z</time>
      </trkpt>
      <trkpt lat="47.61323" lon="-2.83351">
        <ele>4.5</ele>
        <time>2025-01-28T11:54:14Z</time>
      </trkpt>
      <trkpt lat="47.61323" lon="-2.83351">
        <ele>4.5</ele>
        <time>2025-01-28T11:54:15Z</time>
      </trkpt>
      <trkpt lat="47.61323" lon="-2.83351">
        <ele>4.5</ele>
        <time>2025-01-28T11:54:16Z</time>
      </trkpt>
      <trkpt lat="47.61323" lon="-2.83351">
        <ele>4.5</ele>
        <time>2025-01-28T11:54:17Z</time>
      </trkpt>
      <trkpt lat="47.61323" lon="-2.83351">
        <ele>4.5</ele>
        <time>2025-01-28T11:54:18Z</time>
      </trkpt>
      <trkpt lat="47.61323" lon="-2.83351">
        <ele>4.5</ele>
        <time>2025-01-28T11:54:19Z</time>
      </trkpt>
      <trkpt lat="47.61323" lon="-2.83351">
        <ele>4.5</ele>
        <time>2025-01-28T11:54:20Z</time>
      </trkpt>
      <trkpt lat="47.61323" lon="-2.83351">
        <ele>4.5</ele>
        <time>2025-01-28T11:54:21Z</time>
      </trkpt>
      <trkpt lat="47.61323" lon="-2.83351">
        <ele>4.5</ele>
        <time>2025-01-28T11:54:22Z</time>
      </trkpt>
      <trkpt lat="47.61323" lon="-2.83351">
        <ele>4.5</ele>
        <time>2025-01-28T11:54:23Z</time>
      </trkpt>
      <trkpt lat="47.61323" lon="-2.83351">
        <ele>4.4</ele>
        <time>2025-01-28T11:54:24Z</time>
      </trkpt>
      <trkpt lat="47.61323" lon="-2.83351">
        <ele>4.4</ele>
        <time>2025-01-28T11:54:25Z</time>
      </trkpt>
      <trkpt lat="47.61323" lon="-2.83351">
        <ele>4.4</ele>
        <time>2025-01-28T11:54:26Z</time>
      </trkpt>
      <trkpt lat="47.61323" lon="-2.83351">
        <ele>4.4</ele>
        <time>2025-01-28T11:54:27Z</time>
      </trkpt>
      <trkpt lat="47.61323" lon="-2.83351">
        <ele>4.4</ele>
        <time>2025-01-28T11:54:28Z</time>
      </trkpt>
      <trkpt lat="47.61323" lon="-2.83351">
        <ele>4.4</ele>
        <time>2025-01-28T11:54:29Z</time>
      </trkpt>
      <trkpt lat="47.61323" lon="-2.83351">
        <ele>4.4</ele>
        <time>2025-01-28T11:54:30Z</time>
      </trkpt>
      <trkpt lat="47.61323" lon="-2.83351">
        <ele>4.4</ele>
        <time>2025-01-28T11:54:31Z</time>
      </trkpt>
      <trkpt lat="47.61323" lon="-2.83351">
        <ele>4.4</ele>
        <time>2025-01-28T11:54:32Z</time>
      </trkpt>
      <trkpt lat="47.61323" lon="-2.83351">
        <ele>4.4</ele>
        <time>2025-01-28T11:54:33Z</time>
      </trkpt>
      <trkpt lat="47.61322" lon="-2.8335">
        <ele>4.2</ele>
        <time>2025-01-28T11:54:34Z</time>
      </trkpt>
      <trkpt lat="47.61322" lon="-2.8335">
        <ele>4.1</ele>
        <time>2025-01-28T11:54:35Z</time>
      </trkpt>
      <trkpt lat="47.61322" lon="-2.8335">
        <ele>4.1</ele>
        <time>2025-01-28T11:54:36Z</time>
      </trkpt>
      <trkpt lat="47.61322" lon="-2.8335">
        <ele>4.1</ele>
        <time>2025-01-28T11:54:37Z</time>
      </trkpt>
      <trkpt lat="47.61322" lon="-2.8335">
        <ele>4.1</ele>
        <time>2025-01-28T11:54:38Z</time>
      </trkpt>
      <trkpt lat="47.61322" lon="-2.8335">
        <ele>4.1</ele>
        <time>2025-01-28T11:54:39Z</time>
      </trkpt>
      <trkpt lat="47.61322" lon="-2.8335">
        <ele>4.1</ele>
        <time>2025-01-28T11:54:40Z</time>
      </trkpt>
      <trkpt lat="47.61322" lon="-2.8335">
        <ele>4.1</ele>
        <time>2025-01-28T11:54:41Z</time>
      </trkpt>
      <trkpt lat="47.61322" lon="-2.8335">
        <ele>4.2</ele>
        <time>2025-01-28T11:54:42Z</time>
      </trkpt>
      <trkpt lat="47.61322" lon="-2.8335">
        <ele>4.2</ele>
        <time>2025-01-28T11:54:43Z</time>
      </trkpt>
      <trkpt lat="47.61322" lon="-2.8335">
        <ele>4.2</ele>
        <time>2025-01-28T11:54:44Z</time>
      </trkpt>
      <trkpt lat="47.61322" lon="-2.8335">
        <ele>4.2</ele>
        <time>2025-01-28T11:54:45Z</time>
      </trkpt>
      <trkpt lat="47.61322" lon="-2.8335">
        <ele>4.2</ele>
        <time>2025-01-28T11:54:46Z</time>
      </trkpt>
      <trkpt lat="47.61322" lon="-2.8335">
        <ele>4.2</ele>
        <time>2025-01-28T11:54:47Z</time>
      </trkpt>
      <trkpt lat="47.61322" lon="-2.8335">
        <ele>4.2</ele>
        <time>2025-01-28T11:54:48Z</time>
      </trkpt>
      <trkpt lat="47.61322" lon="-2.8335">
        <ele>4.2</ele>
        <time>2025-01-28T11:54:49Z</time>
      </trkpt>
      <trkpt lat="47.61322" lon="-2.8335">
        <ele>4.2</ele>
        <time>2025-01-28T11:54:50Z</time>
      </trkpt>
      <trkpt lat="47.61322" lon="-2.8335">
        <ele>4.2</ele>
        <time>2025-01-28T11:54:51Z</time>
      </trkpt>
      <trkpt lat="47.61322" lon="-2.83349">
        <ele>4.1</ele>
        <time>2025-01-28T11:54:52Z</time>
      </trkpt>
      <trkpt lat="47.61322" lon="-2.83349">
        <ele>4.1</ele>
        <time>2025-01-28T11:54:53Z</time>
      </trkpt>
      <trkpt lat="47.61322" lon="-2.8335">
        <ele>4.2</ele>
        <time>2025-01-28T11:54:54Z</time>
      </trkpt>
      <trkpt lat="47.61322" lon="-2.8335">
        <ele>4.2</ele>
        <time>2025-01-28T11:54:55Z</time>
      </trkpt>
      <trkpt lat="47.61322" lon="-2.8335">
        <ele>4.2</ele>
        <time>2025-01-28T11:54:56Z</time>
      </trkpt>
      <trkpt lat="47.61322" lon="-2.8335">
        <ele>4.2</ele>
        <time>2025-01-28T11:54:57Z</time>
      </trkpt>
      <trkpt lat="47.61322" lon="-2.8335">
        <ele>4.2</ele>
        <time>2025-01-28T11:54:58Z</time>
      </trkpt>
      <trkpt lat="47.61322" lon="-2.8335">
        <ele>4.2</ele>
        <time>2025-01-28T11:54:59Z</time>
      </trkpt>
      <trkpt lat="47.61322" lon="-2.8335">
        <ele>4.2</ele>
        <time>2025-01-28T11:55:00Z</time>
      </trkpt>
      <trkpt lat="47.61322" lon="-2.8335">
        <ele>4.2</ele>
        <time>2025-01-28T11:55:01Z</time>
      </trkpt>
      <trkpt lat="47.61322" lon="-2.83349">
        <ele>4.2</ele>
        <time>2025-01-28T11:55:02Z</time>
      </trkpt>
      <trkpt lat="47.61322" lon="-2.83349">
        <ele>4.1</ele>
        <time>2025-01-28T11:55:03Z</time>
      </trkpt>
      <trkpt lat="47.61322" lon="-2.83349">
        <ele>4.1</ele>
        <time>2025-01-28T11:55:04Z</time>
      </trkpt>
      <trkpt lat="47.61322" lon="-2.83349">
        <ele>4.1</ele>
        <time>2025-01-28T11:55:05Z</time>
      </trkpt>
      <trkpt lat="47.61322" lon="-2.83349">
        <ele>4.1</ele>
        <time>2025-01-28T11:55:06Z</time>
      </trkpt>
      <trkpt lat="47.61322" lon="-2.83349">
        <ele>4.1</ele>
        <time>2025-01-28T11:55:07Z</time>
      </trkpt>
      <trkpt lat="47.61322" lon="-2.83349">
        <ele>4.1</ele>
        <time>2025-01-28T11:55:08Z</time>
      </trkpt>
      <trkpt lat="47.61322" lon="-2.8335">
        <ele>4.2</ele>
        <time>2025-01-28T11:55:09Z</time>
      </trkpt>
      <trkpt lat="47.61322" lon="-2.8335">
        <ele>4.2</ele>
        <time>2025-01-28T11:55:10Z</time>
      </trkpt>
      <trkpt lat="47.61322" lon="-2.8335">
        <ele>4.2</ele>
        <time>2025-01-28T11:55:11Z</time>
      </trkpt>
      <trkpt lat="47.61322" lon="-2.83349">
        <ele>4.2</ele>
        <time>2025-01-28T11:55:12Z</time>
      </trkpt>
      <trkpt lat="47.61322" lon="-2.83349">
        <ele>4.2</ele>
        <time>2025-01-28T11:55:13Z</time>
      </trkpt>
      <trkpt lat="47.61322" lon="-2.83349">
        <ele>4.2</ele>
        <time>2025-01-28T11:55:14Z</time>
      </trkpt>
      <trkpt lat="47.61322" lon="-2.83349">
        <ele>4.2</ele>
        <time>2025-01-28T11:55:15Z</time>
      </trkpt>
      <trkpt lat="47.61322" lon="-2.83349">
        <ele>4.2</ele>
        <time>2025-01-28T11:55:16Z</time>
      </trkpt>
      <trkpt lat="47.61322" lon="-2.83349">
        <ele>4.2</ele>
        <time>2025-01-28T11:55:17Z</time>
      </trkpt>
      <trkpt lat="47.61322" lon="-2.83349">
        <ele>4.2</ele>
        <time>2025-01-28T11:55:18Z</time>
      </trkpt>
      <trkpt lat="47.61322" lon="-2.83349">
        <ele>4.2</ele>
        <time>2025-01-28T11:55:19Z</time>
      </trkpt>
      <trkpt lat="47.61322" lon="-2.83349">
        <ele>4.2</ele>
        <time>2025-01-28T11:55:20Z</time>
      </trkpt>
      <trkpt lat="47.61322" lon="-2.83349">
        <ele>4.2</ele>
        <time>2025-01-28T11:55:21Z</time>
      </trkpt>
      <trkpt lat="47.61322" lon="-2.83349">
        <ele>4.2</ele>
        <time>2025-01-28T11:55:22Z</time>
      </trkpt>
      <trkpt lat="47.61322" lon="-2.83349">
        <ele>4.2</ele>
        <time>2025-01-28T11:55:23Z</time>
      </trkpt>
      <trkpt lat="47.61322" lon="-2.83349">
        <ele>4.2</ele>
        <time>2025-01-28T11:55:24Z</time>
      </trkpt>
      <trkpt lat="47.61322" lon="-2.83349">
        <ele>4.2</ele>
        <time>2025-01-28T11:55:25Z</time>
      </trkpt>
      <trkpt lat="47.61322" lon="-2.83349">
        <ele>4.2</ele>
        <time>2025-01-28T11:55:26Z</time>
      </trkpt>
      <trkpt lat="47.61322" lon="-2.83349">
        <ele>4.2</ele>
        <time>2025-01-28T11:55:27Z</time>
      </trkpt>
      <trkpt lat="47.61322" lon="-2.83349">
        <ele>4.2</ele>
        <time>2025-01-28T11:55:28Z</time>
      </trkpt>
      <trkpt lat="47.61322" lon="-2.83349">
        <ele>4.2</ele>
        <time>2025-01-28T11:55:29Z</time>
      </trkpt>
      <trkpt lat="47.61322" lon="-2.83349">
        <ele>4.2</ele>
        <time>2025-01-28T11:55:30Z</time>
      </trkpt>
      <trkpt lat="47.61322" lon="-2.83349">
        <ele>4.2</ele>
        <time>2025-01-28T11:55:31Z</time>
      </trkpt>
      <trkpt lat="47.61322" lon="-2.83349">
        <ele>4.2</ele>
        <time>2025-01-28T11:55:32Z</time>
      </trkpt>
      <trkpt lat="47.61322" lon="-2.83349">
        <ele>4.2</ele>
        <time>2025-01-28T11:55:33Z</time>
      </trkpt>
      <trkpt lat="47.61322" lon="-2.83349">
        <ele>4.2</ele>
        <time>2025-01-28T11:55:34Z</time>
      </trkpt>
      <trkpt lat="47.61322" lon="-2.83349">
        <ele>4.2</ele>
        <time>2025-01-28T11:55:35Z</time>
      </trkpt>
      <trkpt lat="47.61322" lon="-2.8335">
        <ele>4.2</ele>
        <time>2025-01-28T11:55:36Z</time>
      </trkpt>
      <trkpt lat="47.61322" lon="-2.8335">
        <ele>4.2</ele>
        <time>2025-01-28T11:55:37Z</time>
      </trkpt>
      <trkpt lat="47.61322" lon="-2.8335">
        <ele>4.2</ele>
        <time>2025-01-28T11:55:38Z</time>
      </trkpt>
      <trkpt lat="47.61322" lon="-2.8335">
        <ele>4.2</ele>
        <time>2025-01-28T11:55:39Z</time>
      </trkpt>
      <trkpt lat="47.61322" lon="-2.8335">
        <ele>4.2</ele>
        <time>2025-01-28T11:55:40Z</time>
      </trkpt>
      <trkpt lat="47.61322" lon="-2.8335">
        <ele>4.2</ele>
        <time>2025-01-28T11:55:41Z</time>
      </trkpt>
      <trkpt lat="47.61322" lon="-2.83351">
        <ele>4.3</ele>
        <time>2025-01-28T11:55:42Z</time>
      </trkpt>
      <trkpt lat="47.61322" lon="-2.83351">
        <ele>4.3</ele>
        <time>2025-01-28T11:55:43Z</time>
      </trkpt>
      <trkpt lat="47.61322" lon="-2.83351">
        <ele>4.3</ele>
        <time>2025-01-28T11:55:44Z</time>
      </trkpt>
      <trkpt lat="47.61322" lon="-2.8335">
        <ele>4.2</ele>
        <time>2025-01-28T11:55:45Z</time>
      </trkpt>
      <trkpt lat="47.61321" lon="-2.8335">
        <ele>4.2</ele>
        <time>2025-01-28T11:55:46Z</time>
      </trkpt>
      <trkpt lat="47.61322" lon="-2.83351">
        <ele>4.2</ele>
        <time>2025-01-28T11:55:47Z</time>
      </trkpt>
      <trkpt lat="47.61322" lon="-2.83351">
        <ele>4.3</ele>
        <time>2025-01-28T11:55:48Z</time>
      </trkpt>
      <trkpt lat="47.61321" lon="-2.83351">
        <ele>4.2</ele>
        <time>2025-01-28T11:55:49Z</time>
      </trkpt>
      <trkpt lat="47.61321" lon="-2.83351">
        <ele>4.2</ele>
        <time>2025-01-28T11:55:50Z</time>
      </trkpt>
      <trkpt lat="47.61321" lon="-2.83351">
        <ele>4.2</ele>
        <time>2025-01-28T11:55:51Z</time>
      </trkpt>
      <trkpt lat="47.61321" lon="-2.83351">
        <ele>4.2</ele>
        <time>2025-01-28T11:55:52Z</time>
      </trkpt>
      <trkpt lat="47.61321" lon="-2.83351">
        <ele>4.2</ele>
        <time>2025-01-28T11:55:53Z</time>
      </trkpt>
      <trkpt lat="47.61321" lon="-2.83351">
        <ele>4.2</ele>
        <time>2025-01-28T11:55:54Z</time>
      </trkpt>
      <trkpt lat="47.61321" lon="-2.83351">
        <ele>4.2</ele>
        <time>2025-01-28T11:55:55Z</time>
      </trkpt>
      <trkpt lat="47.61321" lon="-2.83351">
        <ele>4.2</ele>
        <time>2025-01-28T11:55:56Z</time>
      </trkpt>
      <trkpt lat="47.61321" lon="-2.83351">
        <ele>4.2</ele>
        <time>2025-01-28T11:55:57Z</time>
      </trkpt>
      <trkpt lat="47.61321" lon="-2.83351">
        <ele>4.2</ele>
        <time>2025-01-28T11:55:58Z</time>
      </trkpt>
      <trkpt lat="47.61321" lon="-2.83351">
        <ele>4.2</ele>
        <time>2025-01-28T11:55:59Z</time>
      </trkpt>
      <trkpt lat="47.61321" lon="-2.83351">
        <ele>4.2</ele>
        <time>2025-01-28T11:56:00Z</time>
      </trkpt>
      <trkpt lat="47.61321" lon="-2.83351">
        <ele>4.2</ele>
        <time>2025-01-28T11:56:01Z</time>
      </trkpt>
      <trkpt lat="47.61321" lon="-2.83351">
        <ele>4.2</ele>
        <time>2025-01-28T11:56:02Z</time>
      </trkpt>
      <trkpt lat="47.61321" lon="-2.83351">
        <ele>4.2</ele>
        <time>2025-01-28T11:56:03Z</time>
      </trkpt>
      <trkpt lat="47.61321" lon="-2.83351">
        <ele>4.2</ele>
        <time>2025-01-28T11:56:04Z</time>
      </trkpt>
      <trkpt lat="47.61321" lon="-2.83351">
        <ele>4.2</ele>
        <time>2025-01-28T11:56:05Z</time>
      </trkpt>
      <trkpt lat="47.61321" lon="-2.83351">
        <ele>4.2</ele>
        <time>2025-01-28T11:56:06Z</time>
      </trkpt>
      <trkpt lat="47.61321" lon="-2.83351">
        <ele>4.2</ele>
        <time>2025-01-28T11:56:07Z</time>
      </trkpt>
      <trkpt lat="47.61321" lon="-2.83351">
        <ele>4.2</ele>
        <time>2025-01-28T11:56:08Z</time>
      </trkpt>
      <trkpt lat="47.61321" lon="-2.83351">
        <ele>4.2</ele>
        <time>2025-01-28T11:56:09Z</time>
      </trkpt>
      <trkpt lat="47.61321" lon="-2.83351">
        <ele>4.3</ele>
        <time>2025-01-28T11:56:10Z</time>
      </trkpt>
      <trkpt lat="47.61321" lon="-2.83351">
        <ele>4.2</ele>
        <time>2025-01-28T11:56:11Z</time>
      </trkpt>
      <trkpt lat="47.61321" lon="-2.83351">
        <ele>4.2</ele>
        <time>2025-01-28T11:56:12Z</time>
      </trkpt>
      <trkpt lat="47.61321" lon="-2.83351">
        <ele>4.2</ele>
        <time>2025-01-28T11:56:13Z</time>
      </trkpt>
      <trkpt lat="47.61321" lon="-2.83351">
        <ele>4.2</ele>
        <time>2025-01-28T11:56:14Z</time>
      </trkpt>
      <trkpt lat="47.61321" lon="-2.83351">
        <ele>4.2</ele>
        <time>2025-01-28T11:56:15Z</time>
      </trkpt>
      <trkpt lat="47.61321" lon="-2.83351">
        <ele>4.2</ele>
        <time>2025-01-28T11:56:16Z</time>
      </trkpt>
      <trkpt lat="47.61321" lon="-2.83351">
        <ele>4.2</ele>
        <time>2025-01-28T11:56:17Z</time>
      </trkpt>
      <trkpt lat="47.61321" lon="-2.83351">
        <ele>4.2</ele>
        <time>2025-01-28T11:56:18Z</time>
      </trkpt>
      <trkpt lat="47.61321" lon="-2.83351">
        <ele>4.2</ele>
        <time>2025-01-28T11:56:19Z</time>
      </trkpt>
      <trkpt lat="47.61321" lon="-2.83351">
        <ele>4.2</ele>
        <time>2025-01-28T11:56:20Z</time>
      </trkpt>
      <trkpt lat="47.61321" lon="-2.83351">
        <ele>4.2</ele>
        <time>2025-01-28T11:56:21Z</time>
      </trkpt>
      <trkpt lat="47.61321" lon="-2.83351">
        <ele>4.2</ele>
        <time>2025-01-28T11:56:22Z</time>
      </trkpt>
      <trkpt lat="47.61321" lon="-2.83351">
        <ele>4.2</ele>
        <time>2025-01-28T11:56:23Z</time>
      </trkpt>
      <trkpt lat="47.61321" lon="-2.83351">
        <ele>4.2</ele>
        <time>2025-01-28T11:56:24Z</time>
      </trkpt>
      <trkpt lat="47.61321" lon="-2.83351">
        <ele>4.2</ele>
        <time>2025-01-28T11:56:25Z</time>
      </trkpt>
      <trkpt lat="47.61321" lon="-2.83351">
        <ele>4.2</ele>
        <time>2025-01-28T11:56:26Z</time>
      </trkpt>
      <trkpt lat="47.61321" lon="-2.83351">
        <ele>4.2</ele>
        <time>2025-01-28T11:56:27Z</time>
      </trkpt>
      <trkpt lat="47.61321" lon="-2.83351">
        <ele>4.2</ele>
        <time>2025-01-28T11:56:28Z</time>
      </trkpt>
      <trkpt lat="47.61321" lon="-2.83351">
        <ele>4.2</ele>
        <time>2025-01-28T11:56:29Z</time>
      </trkpt>
      <trkpt lat="47.61321" lon="-2.83351">
        <ele>4.2</ele>
        <time>2025-01-28T11:56:30Z</time>
      </trkpt>
      <trkpt lat="47.61321" lon="-2.83351">
        <ele>4.2</ele>
        <time>2025-01-28T11:56:31Z</time>
      </trkpt>
      <trkpt lat="47.61321" lon="-2.83351">
        <ele>4.2</ele>
        <time>2025-01-28T11:56:32Z</time>
      </trkpt>
      <trkpt lat="47.61321" lon="-2.83351">
        <ele>4.2</ele>
        <time>2025-01-28T11:56:33Z</time>
      </trkpt>
      <trkpt lat="47.61321" lon="-2.83351">
        <ele>4.2</ele>
        <time>2025-01-28T11:56:34Z</time>
      </trkpt>
      <trkpt lat="47.61321" lon="-2.83351">
        <ele>4.2</ele>
        <time>2025-01-28T11:56:35Z</time>
      </trkpt>
      <trkpt lat="47.61321" lon="-2.83351">
        <ele>4.2</ele>
        <time>2025-01-28T11:56:36Z</time>
      </trkpt>
      <trkpt lat="47.61321" lon="-2.83351">
        <ele>4.2</ele>
        <time>2025-01-28T11:56:37Z</time>
      </trkpt>
      <trkpt lat="47.61321" lon="-2.83351">
        <ele>4.2</ele>
        <time>2025-01-28T11:56:38Z</time>
      </trkpt>
      <trkpt lat="47.61321" lon="-2.83351">
        <ele>4.2</ele>
        <time>2025-01-28T11:56:39Z</time>
      </trkpt>
      <trkpt lat="47.61321" lon="-2.83351">
        <ele>4.2</ele>
        <time>2025-01-28T11:56:40Z</time>
      </trkpt>
      <trkpt lat="47.61321" lon="-2.83351">
        <ele>4.2</ele>
        <time>2025-01-28T11:56:41Z</time>
      </trkpt>
      <trkpt lat="47.61321" lon="-2.83351">
        <ele>4.2</ele>
        <time>2025-01-28T11:56:42Z</time>
      </trkpt>
      <trkpt lat="47.61321" lon="-2.83351">
        <ele>4.2</ele>
        <time>2025-01-28T11:56:43Z</time>
      </trkpt>
      <trkpt lat="47.61321" lon="-2.83351">
        <ele>4.2</ele>
        <time>2025-01-28T11:56:44Z</time>
      </trkpt>
      <trkpt lat="47.61321" lon="-2.83351">
        <ele>4.2</ele>
        <time>2025-01-28T11:56:45Z</time>
      </trkpt>
      <trkpt lat="47.61321" lon="-2.83351">
        <ele>4.2</ele>
        <time>2025-01-28T11:56:46Z</time>
      </trkpt>
      <trkpt lat="47.61321" lon="-2.83351">
        <ele>4.2</ele>
        <time>2025-01-28T11:56:47Z</time>
      </trkpt>
      <trkpt lat="47.61321" lon="-2.83351">
        <ele>4.2</ele>
        <time>2025-01-28T11:56:48Z</time>
      </trkpt>
      <trkpt lat="47.61321" lon="-2.83351">
        <ele>4.2</ele>
        <time>2025-01-28T11:56:49Z</time>
      </trkpt>
      <trkpt lat="47.61322" lon="-2.8335">
        <ele>4.2</ele>
        <time>2025-01-28T11:56:50Z</time>
      </trkpt>
      <trkpt lat="47.61322" lon="-2.8335">
        <ele>4.3</ele>
        <time>2025-01-28T11:56:51Z</time>
      </trkpt>
      <trkpt lat="47.61322" lon="-2.8335">
        <ele>4.3</ele>
        <time>2025-01-28T11:56:52Z</time>
      </trkpt>
      <trkpt lat="47.61322" lon="-2.8335">
        <ele>4.3</ele>
        <time>2025-01-28T11:56:53Z</time>
      </trkpt>
      <trkpt lat="47.61322" lon="-2.8335">
        <ele>4.3</ele>
        <time>2025-01-28T11:56:54Z</time>
      </trkpt>
      <trkpt lat="47.61322" lon="-2.8335">
        <ele>4.3</ele>
        <time>2025-01-28T11:56:55Z</time>
      </trkpt>
      <trkpt lat="47.61322" lon="-2.8335">
        <ele>4.3</ele>
        <time>2025-01-28T11:56:56Z</time>
      </trkpt>
      <trkpt lat="47.61322" lon="-2.8335">
        <ele>4.3</ele>
        <time>2025-01-28T11:56:57Z</time>
      </trkpt>
      <trkpt lat="47.61322" lon="-2.8335">
        <ele>4.3</ele>
        <time>2025-01-28T11:56:58Z</time>
      </trkpt>
      <trkpt lat="47.61322" lon="-2.8335">
        <ele>4.3</ele>
        <time>2025-01-28T11:56:59Z</time>
      </trkpt>
      <trkpt lat="47.61322" lon="-2.8335">
        <ele>4.3</ele>
        <time>2025-01-28T11:57:00Z</time>
      </trkpt>
      <trkpt lat="47.61322" lon="-2.8335">
        <ele>4.3</ele>
        <time>2025-01-28T11:57:01Z</time>
      </trkpt>
      <trkpt lat="47.61322" lon="-2.8335">
        <ele>4.3</ele>
        <time>2025-01-28T11:57:02Z</time>
      </trkpt>
      <trkpt lat="47.61322" lon="-2.8335">
        <ele>4.3</ele>
        <time>2025-01-28T11:57:03Z</time>
      </trkpt>
      <trkpt lat="47.61322" lon="-2.8335">
        <ele>4.3</ele>
        <time>2025-01-28T11:57:04Z</time>
      </trkpt>
      <trkpt lat="47.61322" lon="-2.8335">
        <ele>4.3</ele>
        <time>2025-01-28T11:57:05Z</time>
      </trkpt>
      <trkpt lat="47.61322" lon="-2.8335">
        <ele>4.3</ele>
        <time>2025-01-28T11:57:06Z</time>
      </trkpt>
      <trkpt lat="47.61322" lon="-2.8335">
        <ele>4.3</ele>
        <time>2025-01-28T11:57:07Z</time>
      </trkpt>
      <trkpt lat="47.61322" lon="-2.8335">
        <ele>4.3</ele>
        <time>2025-01-28T11:57:08Z</time>
      </trkpt>
      <trkpt lat="47.61322" lon="-2.8335">
        <ele>4.3</ele>
        <time>2025-01-28T11:57:09Z</time>
      </trkpt>
      <trkpt lat="47.61322" lon="-2.8335">
        <ele>4.3</ele>
        <time>2025-01-28T11:57:10Z</time>
      </trkpt>
      <trkpt lat="47.61322" lon="-2.8335">
        <ele>4.3</ele>
        <time>2025-01-28T11:57:11Z</time>
      </trkpt>
      <trkpt lat="47.61322" lon="-2.8335">
        <ele>4.3</ele>
        <time>2025-01-28T11:57:12Z</time>
      </trkpt>
      <trkpt lat="47.61322" lon="-2.8335">
        <ele>4.3</ele>
        <time>2025-01-28T11:57:13Z</time>
      </trkpt>
      <trkpt lat="47.61322" lon="-2.8335">
        <ele>4.3</ele>
        <time>2025-01-28T11:57:14Z</time>
      </trkpt>
      <trkpt lat="47.61322" lon="-2.8335">
        <ele>4.3</ele>
        <time>2025-01-28T11:57:15Z</time>
      </trkpt>
      <trkpt lat="47.61322" lon="-2.83351">
        <ele>4.5</ele>
        <time>2025-01-28T11:57:16Z</time>
      </trkpt>
      <trkpt lat="47.61322" lon="-2.83352">
        <ele>4.5</ele>
        <time>2025-01-28T11:57:17Z</time>
      </trkpt>
      <trkpt lat="47.61322" lon="-2.83352">
        <ele>4.5</ele>
        <time>2025-01-28T11:57:18Z</time>
      </trkpt>
      <trkpt lat="47.61322" lon="-2.83352">
        <ele>4.5</ele>
        <time>2025-01-28T11:57:19Z</time>
      </trkpt>
      <trkpt lat="47.61322" lon="-2.83353">
        <ele>4.6</ele>
        <time>2025-01-28T11:57:20Z</time>
      </trkpt>
      <trkpt lat="47.61322" lon="-2.83353">
        <ele>4.6</ele>
        <time>2025-01-28T11:57:21Z</time>
      </trkpt>
      <trkpt lat="47.61322" lon="-2.83353">
        <ele>4.6</ele>
        <time>2025-01-28T11:57:22Z</time>
      </trkpt>
      <trkpt lat="47.61322" lon="-2.83353">
        <ele>4.6</ele>
        <time>2025-01-28T11:57:23Z</time>
      </trkpt>
      <trkpt lat="47.61322" lon="-2.83353">
        <ele>4.7</ele>
        <time>2025-01-28T11:57:24Z</time>
      </trkpt>
      <trkpt lat="47.61322" lon="-2.83353">
        <ele>4.7</ele>
        <time>2025-01-28T11:57:25Z</time>
      </trkpt>
      <trkpt lat="47.61322" lon="-2.83353">
        <ele>4.7</ele>
        <time>2025-01-28T11:57:26Z</time>
      </trkpt>
      <trkpt lat="47.61322" lon="-2.83353">
        <ele>4.7</ele>
        <time>2025-01-28T11:57:27Z</time>
      </trkpt>
      <trkpt lat="47.61322" lon="-2.83353">
        <ele>4.7</ele>
        <time>2025-01-28T11:57:28Z</time>
      </trkpt>
      <trkpt lat="47.61322" lon="-2.83354">
        <ele>4.7</ele>
        <time>2025-01-28T11:57:29Z</time>
      </trkpt>
      <trkpt lat="47.61321" lon="-2.83356">
        <ele>4.8</ele>
        <time>2025-01-28T11:57:30Z</time>
      </trkpt>
      <trkpt lat="47.61321" lon="-2.83356">
        <ele>4.9</ele>
        <time>2025-01-28T11:57:31Z</time>
      </trkpt>
      <trkpt lat="47.61322" lon="-2.83357">
        <ele>5</ele>
        <time>2025-01-28T11:57:32Z</time>
      </trkpt>
      <trkpt lat="47.61322" lon="-2.83357">
        <ele>5.1</ele>
        <time>2025-01-28T11:57:33Z</time>
      </trkpt>
      <trkpt lat="47.61322" lon="-2.83358">
        <ele>5.2</ele>
        <time>2025-01-28T11:57:34Z</time>
      </trkpt>
      <trkpt lat="47.61321" lon="-2.83359">
        <ele>5.3</ele>
        <time>2025-01-28T11:57:35Z</time>
      </trkpt>
      <trkpt lat="47.6132" lon="-2.83361">
        <ele>5.2</ele>
        <time>2025-01-28T11:57:36Z</time>
      </trkpt>
      <trkpt lat="47.6132" lon="-2.83362">
        <ele>5.1</ele>
        <time>2025-01-28T11:57:37Z</time>
      </trkpt>
      <trkpt lat="47.61318" lon="-2.83363">
        <ele>5</ele>
        <time>2025-01-28T11:57:38Z</time>
      </trkpt>
      <trkpt lat="47.61318" lon="-2.83364">
        <ele>4.8</ele>
        <time>2025-01-28T11:57:39Z</time>
      </trkpt>
      <trkpt lat="47.61317" lon="-2.83364">
        <ele>4.6</ele>
        <time>2025-01-28T11:57:40Z</time>
      </trkpt>
      <trkpt lat="47.61316" lon="-2.83365">
        <ele>4.4</ele>
        <time>2025-01-28T11:57:41Z</time>
      </trkpt>
      <trkpt lat="47.61315" lon="-2.83366">
        <ele>4.4</ele>
        <time>2025-01-28T11:57:42Z</time>
      </trkpt>
      <trkpt lat="47.61315" lon="-2.83367">
        <ele>4.3</ele>
        <time>2025-01-28T11:57:43Z</time>
      </trkpt>
      <trkpt lat="47.61314" lon="-2.83368">
        <ele>4.3</ele>
        <time>2025-01-28T11:57:44Z</time>
      </trkpt>
      <trkpt lat="47.61314" lon="-2.83369">
        <ele>4.5</ele>
        <time>2025-01-28T11:57:45Z</time>
      </trkpt>
      <trkpt lat="47.61313" lon="-2.83371">
        <ele>4.5</ele>
        <time>2025-01-28T11:57:46Z</time>
      </trkpt>
      <trkpt lat="47.61313" lon="-2.83372">
        <ele>4.5</ele>
        <time>2025-01-28T11:57:47Z</time>
      </trkpt>
      <trkpt lat="47.61312" lon="-2.83373">
        <ele>4.5</ele>
        <time>2025-01-28T11:57:48Z</time>
      </trkpt>
      <trkpt lat="47.61312" lon="-2.83374">
        <ele>4.5</ele>
        <time>2025-01-28T11:57:49Z</time>
      </trkpt>
      <trkpt lat="47.61312" lon="-2.83376">
        <ele>4.5</ele>
        <time>2025-01-28T11:57:50Z</time>
      </trkpt>
      <trkpt lat="47.61311" lon="-2.83377">
        <ele>4.4</ele>
        <time>2025-01-28T11:57:51Z</time>
      </trkpt>
      <trkpt lat="47.6131" lon="-2.83377">
        <ele>4.2</ele>
        <time>2025-01-28T11:57:52Z</time>
      </trkpt>
      <trkpt lat="47.61309" lon="-2.83378">
        <ele>4.1</ele>
        <time>2025-01-28T11:57:53Z</time>
      </trkpt>
      <trkpt lat="47.61309" lon="-2.83379">
        <ele>3.9</ele>
        <time>2025-01-28T11:57:54Z</time>
      </trkpt>
      <trkpt lat="47.61308" lon="-2.8338">
        <ele>3.8</ele>
        <time>2025-01-28T11:57:55Z</time>
      </trkpt>
      <trkpt lat="47.61307" lon="-2.8338">
        <ele>3.6</ele>
        <time>2025-01-28T11:57:56Z</time>
      </trkpt>
      <trkpt lat="47.61306" lon="-2.83381">
        <ele>3.3</ele>
        <time>2025-01-28T11:57:57Z</time>
      </trkpt>
      <trkpt lat="47.61305" lon="-2.83381">
        <ele>3.2</ele>
        <time>2025-01-28T11:57:58Z</time>
      </trkpt>
      <trkpt lat="47.61305" lon="-2.83382">
        <ele>3.3</ele>
        <time>2025-01-28T11:57:59Z</time>
      </trkpt>
      <trkpt lat="47.61304" lon="-2.83383">
        <ele>3.4</ele>
        <time>2025-01-28T11:58:00Z</time>
      </trkpt>
      <trkpt lat="47.61303" lon="-2.83384">
        <ele>3.5</ele>
        <time>2025-01-28T11:58:01Z</time>
      </trkpt>
      <trkpt lat="47.61302" lon="-2.83385">
        <ele>3.6</ele>
        <time>2025-01-28T11:58:02Z</time>
      </trkpt>
      <trkpt lat="47.61301" lon="-2.83386">
        <ele>3.7</ele>
        <time>2025-01-28T11:58:03Z</time>
      </trkpt>
      <trkpt lat="47.61301" lon="-2.83387">
        <ele>3.8</ele>
        <time>2025-01-28T11:58:04Z</time>
      </trkpt>
      <trkpt lat="47.613" lon="-2.83388">
        <ele>3.9</ele>
        <time>2025-01-28T11:58:05Z</time>
      </trkpt>
      <trkpt lat="47.61299" lon="-2.83389">
        <ele>4</ele>
        <time>2025-01-28T11:58:06Z</time>
      </trkpt>
      <trkpt lat="47.61298" lon="-2.83389">
        <ele>4.1</ele>
        <time>2025-01-28T11:58:07Z</time>
      </trkpt>
      <trkpt lat="47.61297" lon="-2.8339">
        <ele>4.1</ele>
        <time>2025-01-28T11:58:08Z</time>
      </trkpt>
      <trkpt lat="47.61296" lon="-2.83391">
        <ele>4.2</ele>
        <time>2025-01-28T11:58:09Z</time>
      </trkpt>
      <trkpt lat="47.61296" lon="-2.83391">
        <ele>4.3</ele>
        <time>2025-01-28T11:58:10Z</time>
      </trkpt>
      <trkpt lat="47.61295" lon="-2.83392">
        <ele>4.4</ele>
        <time>2025-01-28T11:58:11Z</time>
      </trkpt>
      <trkpt lat="47.61294" lon="-2.83394">
        <ele>4.5</ele>
        <time>2025-01-28T11:58:12Z</time>
      </trkpt>
      <trkpt lat="47.61293" lon="-2.83395">
        <ele>4.6</ele>
        <time>2025-01-28T11:58:13Z</time>
      </trkpt>
      <trkpt lat="47.61292" lon="-2.83395">
        <ele>4.6</ele>
        <time>2025-01-28T11:58:14Z</time>
      </trkpt>
      <trkpt lat="47.61292" lon="-2.83397">
        <ele>4.7</ele>
        <time>2025-01-28T11:58:15Z</time>
      </trkpt>
      <trkpt lat="47.61291" lon="-2.83398">
        <ele>4.7</ele>
        <time>2025-01-28T11:58:16Z</time>
      </trkpt>
      <trkpt lat="47.6129" lon="-2.83399">
        <ele>4.7</ele>
        <time>2025-01-28T11:58:17Z</time>
      </trkpt>
      <trkpt lat="47.6129" lon="-2.83401">
        <ele>4.8</ele>
        <time>2025-01-28T11:58:18Z</time>
      </trkpt>
      <trkpt lat="47.61289" lon="-2.83402">
        <ele>4.9</ele>
        <time>2025-01-28T11:58:19Z</time>
      </trkpt>
      <trkpt lat="47.61289" lon="-2.83404">
        <ele>4.9</ele>
        <time>2025-01-28T11:58:20Z</time>
      </trkpt>
      <trkpt lat="47.61289" lon="-2.83405">
        <ele>4.9</ele>
        <time>2025-01-28T11:58:21Z</time>
      </trkpt>
      <trkpt lat="47.61288" lon="-2.83407">
        <ele>4.8</ele>
        <time>2025-01-28T11:58:22Z</time>
      </trkpt>
      <trkpt lat="47.61287" lon="-2.83408">
        <ele>4.8</ele>
        <time>2025-01-28T11:58:23Z</time>
      </trkpt>
      <trkpt lat="47.61287" lon="-2.83409">
        <ele>4.6</ele>
        <time>2025-01-28T11:58:24Z</time>
      </trkpt>
      <trkpt lat="47.61286" lon="-2.83411">
        <ele>4.5</ele>
        <time>2025-01-28T11:58:25Z</time>
      </trkpt>
      <trkpt lat="47.61286" lon="-2.83413">
        <ele>4.5</ele>
        <time>2025-01-28T11:58:26Z</time>
      </trkpt>
      <trkpt lat="47.61285" lon="-2.83414">
        <ele>4.3</ele>
        <time>2025-01-28T11:58:27Z</time>
      </trkpt>
      <trkpt lat="47.61284" lon="-2.83416">
        <ele>4.1</ele>
        <time>2025-01-28T11:58:28Z</time>
      </trkpt>
      <trkpt lat="47.61284" lon="-2.83417">
        <ele>3.9</ele>
        <time>2025-01-28T11:58:29Z</time>
      </trkpt>
      <trkpt lat="47.61283" lon="-2.83418">
        <ele>3.9</ele>
        <time>2025-01-28T11:58:30Z</time>
      </trkpt>
      <trkpt lat="47.61282" lon="-2.8342">
        <ele>3.9</ele>
        <time>2025-01-28T11:58:31Z</time>
      </trkpt>
      <trkpt lat="47.61282" lon="-2.83421">
        <ele>4</ele>
        <time>2025-01-28T11:58:32Z</time>
      </trkpt>
      <trkpt lat="47.61282" lon="-2.83422">
        <ele>4.1</ele>
        <time>2025-01-28T11:58:33Z</time>
      </trkpt>
      <trkpt lat="47.61281" lon="-2.83424">
        <ele>4.2</ele>
        <time>2025-01-28T11:58:34Z</time>
      </trkpt>
      <trkpt lat="47.61281" lon="-2.83425">
        <ele>4.2</ele>
        <time>2025-01-28T11:58:35Z</time>
      </trkpt>
      <trkpt lat="47.6128" lon="-2.83427">
        <ele>4.2</ele>
        <time>2025-01-28T11:58:36Z</time>
      </trkpt>
      <trkpt lat="47.6128" lon="-2.83428">
        <ele>4.3</ele>
        <time>2025-01-28T11:58:37Z</time>
      </trkpt>
      <trkpt lat="47.6128" lon="-2.83429">
        <ele>4.4</ele>
        <time>2025-01-28T11:58:38Z</time>
      </trkpt>
      <trkpt lat="47.61279" lon="-2.83431">
        <ele>4.5</ele>
        <time>2025-01-28T11:58:39Z</time>
      </trkpt>
      <trkpt lat="47.61279" lon="-2.83432">
        <ele>4.6</ele>
        <time>2025-01-28T11:58:40Z</time>
      </trkpt>
      <trkpt lat="47.61278" lon="-2.83434">
        <ele>4.6</ele>
        <time>2025-01-28T11:58:41Z</time>
      </trkpt>
      <trkpt lat="47.61277" lon="-2.83435">
        <ele>4.7</ele>
        <time>2025-01-28T11:58:42Z</time>
      </trkpt>
      <trkpt lat="47.61277" lon="-2.83436">
        <ele>5</ele>
        <time>2025-01-28T11:58:43Z</time>
      </trkpt>
      <trkpt lat="47.61276" lon="-2.83438">
        <ele>5.3</ele>
        <time>2025-01-28T11:58:44Z</time>
      </trkpt>
      <trkpt lat="47.61276" lon="-2.83439">
        <ele>5.6</ele>
        <time>2025-01-28T11:58:45Z</time>
      </trkpt>
      <trkpt lat="47.61276" lon="-2.83441">
        <ele>5.8</ele>
        <time>2025-01-28T11:58:46Z</time>
      </trkpt>
      <trkpt lat="47.61275" lon="-2.83443">
        <ele>6.1</ele>
        <time>2025-01-28T11:58:47Z</time>
      </trkpt>
      <trkpt lat="47.61275" lon="-2.83444">
        <ele>6.4</ele>
        <time>2025-01-28T11:58:48Z</time>
      </trkpt>
      <trkpt lat="47.61274" lon="-2.83445">
        <ele>6.7</ele>
        <time>2025-01-28T11:58:49Z</time>
      </trkpt>
      <trkpt lat="47.61274" lon="-2.83446">
        <ele>6.9</ele>
        <time>2025-01-28T11:58:50Z</time>
      </trkpt>
      <trkpt lat="47.61273" lon="-2.83447">
        <ele>7</ele>
        <time>2025-01-28T11:58:51Z</time>
      </trkpt>
      <trkpt lat="47.61273" lon="-2.83448">
        <ele>7.1</ele>
        <time>2025-01-28T11:58:52Z</time>
      </trkpt>
      <trkpt lat="47.61273" lon="-2.8345">
        <ele>7.3</ele>
        <time>2025-01-28T11:58:53Z</time>
      </trkpt>
      <trkpt lat="47.61273" lon="-2.83452">
        <ele>7.4</ele>
        <time>2025-01-28T11:58:54Z</time>
      </trkpt>
      <trkpt lat="47.61274" lon="-2.83454">
        <ele>7.5</ele>
        <time>2025-01-28T11:58:55Z</time>
      </trkpt>
      <trkpt lat="47.61273" lon="-2.83456">
        <ele>7.7</ele>
        <time>2025-01-28T11:58:56Z</time>
      </trkpt>
      <trkpt lat="47.61273" lon="-2.83457">
        <ele>7.8</ele>
        <time>2025-01-28T11:58:57Z</time>
      </trkpt>
      <trkpt lat="47.61273" lon="-2.83459">
        <ele>8</ele>
        <time>2025-01-28T11:58:58Z</time>
      </trkpt>
      <trkpt lat="47.61272" lon="-2.8346">
        <ele>8.2</ele>
        <time>2025-01-28T11:58:59Z</time>
      </trkpt>
      <trkpt lat="47.61271" lon="-2.83462">
        <ele>8.3</ele>
        <time>2025-01-28T11:59:00Z</time>
      </trkpt>
      <trkpt lat="47.61271" lon="-2.83463">
        <ele>8.4</ele>
        <time>2025-01-28T11:59:01Z</time>
      </trkpt>
      <trkpt lat="47.61271" lon="-2.83465">
        <ele>8.5</ele>
        <time>2025-01-28T11:59:02Z</time>
      </trkpt>
      <trkpt lat="47.6127" lon="-2.83466">
        <ele>8.7</ele>
        <time>2025-01-28T11:59:03Z</time>
      </trkpt>
      <trkpt lat="47.6127" lon="-2.83468">
        <ele>8.7</ele>
        <time>2025-01-28T11:59:04Z</time>
      </trkpt>
      <trkpt lat="47.6127" lon="-2.8347">
        <ele>8.8</ele>
        <time>2025-01-28T11:59:05Z</time>
      </trkpt>
      <trkpt lat="47.6127" lon="-2.83471">
        <ele>9</ele>
        <time>2025-01-28T11:59:06Z</time>
      </trkpt>
      <trkpt lat="47.61271" lon="-2.83473">
        <ele>9</ele>
        <time>2025-01-28T11:59:07Z</time>
      </trkpt>
      <trkpt lat="47.61271" lon="-2.83475">
        <ele>8.9</ele>
        <time>2025-01-28T11:59:08Z</time>
      </trkpt>
      <trkpt lat="47.61271" lon="-2.83476">
        <ele>8.9</ele>
        <time>2025-01-28T11:59:09Z</time>
      </trkpt>
      <trkpt lat="47.61271" lon="-2.83478">
        <ele>8.8</ele>
        <time>2025-01-28T11:59:10Z</time>
      </trkpt>
      <trkpt lat="47.61271" lon="-2.83479">
        <ele>8.7</ele>
        <time>2025-01-28T11:59:11Z</time>
      </trkpt>
      <trkpt lat="47.61271" lon="-2.83481">
        <ele>8.7</ele>
        <time>2025-01-28T11:59:12Z</time>
      </trkpt>
      <trkpt lat="47.61271" lon="-2.83483">
        <ele>8.6</ele>
        <time>2025-01-28T11:59:13Z</time>
      </trkpt>
      <trkpt lat="47.6127" lon="-2.83484">
        <ele>8.6</ele>
        <time>2025-01-28T11:59:14Z</time>
      </trkpt>
      <trkpt lat="47.6127" lon="-2.83486">
        <ele>8.5</ele>
        <time>2025-01-28T11:59:15Z</time>
      </trkpt>
      <trkpt lat="47.61271" lon="-2.83487">
        <ele>8.5</ele>
        <time>2025-01-28T11:59:16Z</time>
      </trkpt>
      <trkpt lat="47.6127" lon="-2.83489">
        <ele>8.4</ele>
        <time>2025-01-28T11:59:17Z</time>
      </trkpt>
      <trkpt lat="47.6127" lon="-2.8349">
        <ele>8.3</ele>
        <time>2025-01-28T11:59:18Z</time>
      </trkpt>
      <trkpt lat="47.6127" lon="-2.83492">
        <ele>8.3</ele>
        <time>2025-01-28T11:59:19Z</time>
      </trkpt>
      <trkpt lat="47.6127" lon="-2.83494">
        <ele>8.2</ele>
        <time>2025-01-28T11:59:20Z</time>
      </trkpt>
      <trkpt lat="47.6127" lon="-2.83496">
        <ele>8.1</ele>
        <time>2025-01-28T11:59:21Z</time>
      </trkpt>
      <trkpt lat="47.6127" lon="-2.83498">
        <ele>8.1</ele>
        <time>2025-01-28T11:59:22Z</time>
      </trkpt>
      <trkpt lat="47.61271" lon="-2.83499">
        <ele>8</ele>
        <time>2025-01-28T11:59:23Z</time>
      </trkpt>
      <trkpt lat="47.61271" lon="-2.83501">
        <ele>8</ele>
        <time>2025-01-28T11:59:24Z</time>
      </trkpt>
      <trkpt lat="47.6127" lon="-2.83503">
        <ele>7.9</ele>
        <time>2025-01-28T11:59:25Z</time>
      </trkpt>
      <trkpt lat="47.6127" lon="-2.83504">
        <ele>7.8</ele>
        <time>2025-01-28T11:59:26Z</time>
      </trkpt>
      <trkpt lat="47.6127" lon="-2.83506">
        <ele>7.7</ele>
        <time>2025-01-28T11:59:27Z</time>
      </trkpt>
      <trkpt lat="47.6127" lon="-2.83508">
        <ele>7.7</ele>
        <time>2025-01-28T11:59:28Z</time>
      </trkpt>
      <trkpt lat="47.61271" lon="-2.8351">
        <ele>7.6</ele>
        <time>2025-01-28T11:59:29Z</time>
      </trkpt>
      <trkpt lat="47.61271" lon="-2.83511">
        <ele>7.5</ele>
        <time>2025-01-28T11:59:30Z</time>
      </trkpt>
      <trkpt lat="47.61271" lon="-2.83513">
        <ele>7.4</ele>
        <time>2025-01-28T11:59:31Z</time>
      </trkpt>
      <trkpt lat="47.61271" lon="-2.83514">
        <ele>7.3</ele>
        <time>2025-01-28T11:59:32Z</time>
      </trkpt>
      <trkpt lat="47.61271" lon="-2.83516">
        <ele>7.2</ele>
        <time>2025-01-28T11:59:33Z</time>
      </trkpt>
      <trkpt lat="47.61272" lon="-2.83518">
        <ele>7.2</ele>
        <time>2025-01-28T11:59:34Z</time>
      </trkpt>
      <trkpt lat="47.61272" lon="-2.83519">
        <ele>7</ele>
        <time>2025-01-28T11:59:35Z</time>
      </trkpt>
      <trkpt lat="47.61272" lon="-2.83521">
        <ele>7</ele>
        <time>2025-01-28T11:59:36Z</time>
      </trkpt>
      <trkpt lat="47.61272" lon="-2.83523">
        <ele>6.9</ele>
        <time>2025-01-28T11:59:37Z</time>
      </trkpt>
      <trkpt lat="47.61272" lon="-2.83525">
        <ele>6.8</ele>
        <time>2025-01-28T11:59:38Z</time>
      </trkpt>
      <trkpt lat="47.61272" lon="-2.83526">
        <ele>6.7</ele>
        <time>2025-01-28T11:59:39Z</time>
      </trkpt>
      <trkpt lat="47.61273" lon="-2.83528">
        <ele>6.6</ele>
        <time>2025-01-28T11:59:40Z</time>
      </trkpt>
      <trkpt lat="47.61273" lon="-2.83529">
        <ele>6.5</ele>
        <time>2025-01-28T11:59:41Z</time>
      </trkpt>
      <trkpt lat="47.61273" lon="-2.83531">
        <ele>6.4</ele>
        <time>2025-01-28T11:59:42Z</time>
      </trkpt>
      <trkpt lat="47.61273" lon="-2.83533">
        <ele>6.3</ele>
        <time>2025-01-28T11:59:43Z</time>
      </trkpt>
      <trkpt lat="47.61273" lon="-2.83534">
        <ele>6.2</ele>
        <time>2025-01-28T11:59:44Z</time>
      </trkpt>
      <trkpt lat="47.61273" lon="-2.83536">
        <ele>6.1</ele>
        <time>2025-01-28T11:59:45Z</time>
      </trkpt>
      <trkpt lat="47.61273" lon="-2.83538">
        <ele>6.1</ele>
        <time>2025-01-28T11:59:46Z</time>
      </trkpt>
      <trkpt lat="47.61273" lon="-2.8354">
        <ele>5.9</ele>
        <time>2025-01-28T11:59:47Z</time>
      </trkpt>
      <trkpt lat="47.61273" lon="-2.83542">
        <ele>5.8</ele>
        <time>2025-01-28T11:59:48Z</time>
      </trkpt>
      <trkpt lat="47.61272" lon="-2.83544">
        <ele>5.8</ele>
        <time>2025-01-28T11:59:49Z</time>
      </trkpt>
      <trkpt lat="47.61272" lon="-2.83545">
        <ele>5.7</ele>
        <time>2025-01-28T11:59:50Z</time>
      </trkpt>
      <trkpt lat="47.61272" lon="-2.83547">
        <ele>5.6</ele>
        <time>2025-01-28T11:59:51Z</time>
      </trkpt>
      <trkpt lat="47.61272" lon="-2.83548">
        <ele>5.6</ele>
        <time>2025-01-28T11:59:52Z</time>
      </trkpt>
      <trkpt lat="47.61271" lon="-2.8355">
        <ele>5.6</ele>
        <time>2025-01-28T11:59:53Z</time>
      </trkpt>
      <trkpt lat="47.6127" lon="-2.8355">
        <ele>5.6</ele>
        <time>2025-01-28T11:59:54Z</time>
      </trkpt>
      <trkpt lat="47.6127" lon="-2.83552">
        <ele>5.5</ele>
        <time>2025-01-28T11:59:55Z</time>
      </trkpt>
      <trkpt lat="47.6127" lon="-2.83554">
        <ele>5.4</ele>
        <time>2025-01-28T11:59:56Z</time>
      </trkpt>
      <trkpt lat="47.61271" lon="-2.83555">
        <ele>5.3</ele>
        <time>2025-01-28T11:59:57Z</time>
      </trkpt>
      <trkpt lat="47.61271" lon="-2.83557">
        <ele>5.1</ele>
        <time>2025-01-28T11:59:58Z</time>
      </trkpt>
      <trkpt lat="47.61271" lon="-2.83559">
        <ele>5</ele>
        <time>2025-01-28T11:59:59Z</time>
      </trkpt>
      <trkpt lat="47.61271" lon="-2.8356">
        <ele>4.9</ele>
        <time>2025-01-28T12:00:00Z</time>
      </trkpt>
      <trkpt lat="47.61271" lon="-2.83561">
        <ele>4.8</ele>
        <time>2025-01-28T12:00:01Z</time>
      </trkpt>
      <trkpt lat="47.61272" lon="-2.83562">
        <ele>4.7</ele>
        <time>2025-01-28T12:00:02Z</time>
      </trkpt>
      <trkpt lat="47.61273" lon="-2.83563">
        <ele>4.6</ele>
        <time>2025-01-28T12:00:03Z</time>
      </trkpt>
      <trkpt lat="47.61274" lon="-2.83565">
        <ele>4.4</ele>
        <time>2025-01-28T12:00:04Z</time>
      </trkpt>
      <trkpt lat="47.61275" lon="-2.83566">
        <ele>4.3</ele>
        <time>2025-01-28T12:00:05Z</time>
      </trkpt>
      <trkpt lat="47.61276" lon="-2.83567">
        <ele>4.2</ele>
        <time>2025-01-28T12:00:06Z</time>
      </trkpt>
      <trkpt lat="47.61277" lon="-2.83568">
        <ele>4.2</ele>
        <time>2025-01-28T12:00:07Z</time>
      </trkpt>
      <trkpt lat="47.61277" lon="-2.83568">
        <ele>4.1</ele>
        <time>2025-01-28T12:00:08Z</time>
      </trkpt>
      <trkpt lat="47.61279" lon="-2.83568">
        <ele>4</ele>
        <time>2025-01-28T12:00:09Z</time>
      </trkpt>
      <trkpt lat="47.6128" lon="-2.83568">
        <ele>3.9</ele>
        <time>2025-01-28T12:00:10Z</time>
      </trkpt>
      <trkpt lat="47.61281" lon="-2.83569">
        <ele>3.7</ele>
        <time>2025-01-28T12:00:11Z</time>
      </trkpt>
      <trkpt lat="47.61282" lon="-2.83569">
        <ele>3.6</ele>
        <time>2025-01-28T12:00:12Z</time>
      </trkpt>
      <trkpt lat="47.61283" lon="-2.83569">
        <ele>3.5</ele>
        <time>2025-01-28T12:00:13Z</time>
      </trkpt>
      <trkpt lat="47.61284" lon="-2.83569">
        <ele>3.4</ele>
        <time>2025-01-28T12:00:14Z</time>
      </trkpt>
      <trkpt lat="47.61285" lon="-2.83569">
        <ele>3.3</ele>
        <time>2025-01-28T12:00:15Z</time>
      </trkpt>
      <trkpt lat="47.61286" lon="-2.83568">
        <ele>3.2</ele>
        <time>2025-01-28T12:00:16Z</time>
      </trkpt>
      <trkpt lat="47.61287" lon="-2.83566">
        <ele>3.2</ele>
        <time>2025-01-28T12:00:17Z</time>
      </trkpt>
      <trkpt lat="47.61287" lon="-2.83565">
        <ele>3.2</ele>
        <time>2025-01-28T12:00:18Z</time>
      </trkpt>
      <trkpt lat="47.61288" lon="-2.83563">
        <ele>3.2</ele>
        <time>2025-01-28T12:00:19Z</time>
      </trkpt>
      <trkpt lat="47.61288" lon="-2.83562">
        <ele>3.2</ele>
        <time>2025-01-28T12:00:20Z</time>
      </trkpt>
      <trkpt lat="47.61289" lon="-2.8356">
        <ele>3.2</ele>
        <time>2025-01-28T12:00:21Z</time>
      </trkpt>
      <trkpt lat="47.61289" lon="-2.83558">
        <ele>3.3</ele>
        <time>2025-01-28T12:00:22Z</time>
      </trkpt>
      <trkpt lat="47.61289" lon="-2.83556">
        <ele>3.3</ele>
        <time>2025-01-28T12:00:23Z</time>
      </trkpt>
      <trkpt lat="47.61289" lon="-2.83554">
        <ele>3.6</ele>
        <time>2025-01-28T12:00:24Z</time>
      </trkpt>
      <trkpt lat="47.6129" lon="-2.83552">
        <ele>3.7</ele>
        <time>2025-01-28T12:00:25Z</time>
      </trkpt>
      <trkpt lat="47.6129" lon="-2.83551">
        <ele>3.8</ele>
        <time>2025-01-28T12:00:26Z</time>
      </trkpt>
      <trkpt lat="47.6129" lon="-2.83549">
        <ele>4</ele>
        <time>2025-01-28T12:00:27Z</time>
      </trkpt>
      <trkpt lat="47.61291" lon="-2.83548">
        <ele>4.1</ele>
        <time>2025-01-28T12:00:28Z</time>
      </trkpt>
      <trkpt lat="47.61291" lon="-2.83547">
        <ele>4.2</ele>
        <time>2025-01-28T12:00:29Z</time>
      </trkpt>
      <trkpt lat="47.61291" lon="-2.83545">
        <ele>4.4</ele>
        <time>2025-01-28T12:00:30Z</time>
      </trkpt>
      <trkpt lat="47.61291" lon="-2.83544">
        <ele>4.5</ele>
        <time>2025-01-28T12:00:31Z</time>
      </trkpt>
      <trkpt lat="47.61292" lon="-2.83542">
        <ele>4.7</ele>
        <time>2025-01-28T12:00:32Z</time>
      </trkpt>
      <trkpt lat="47.61292" lon="-2.83541">
        <ele>4.8</ele>
        <time>2025-01-28T12:00:33Z</time>
      </trkpt>
      <trkpt lat="47.61293" lon="-2.8354">
        <ele>5</ele>
        <time>2025-01-28T12:00:34Z</time>
      </trkpt>
      <trkpt lat="47.61293" lon="-2.83539">
        <ele>5.1</ele>
        <time>2025-01-28T12:00:35Z</time>
      </trkpt>
      <trkpt lat="47.61294" lon="-2.83537">
        <ele>5.3</ele>
        <time>2025-01-28T12:00:36Z</time>
      </trkpt>
      <trkpt lat="47.61294" lon="-2.83536">
        <ele>5.4</ele>
        <time>2025-01-28T12:00:37Z</time>
      </trkpt>
      <trkpt lat="47.61295" lon="-2.83535">
        <ele>5.5</ele>
        <time>2025-01-28T12:00:38Z</time>
      </trkpt>
      <trkpt lat="47.61296" lon="-2.83534">
        <ele>5.6</ele>
        <time>2025-01-28T12:00:39Z</time>
      </trkpt>
      <trkpt lat="47.61296" lon="-2.83533">
        <ele>5.8</ele>
        <time>2025-01-28T12:00:40Z</time>
      </trkpt>
      <trkpt lat="47.61296" lon="-2.83532">
        <ele>6</ele>
        <time>2025-01-28T12:00:41Z</time>
      </trkpt>
      <trkpt lat="47.61297" lon="-2.83532">
        <ele>6.1</ele>
        <time>2025-01-28T12:00:42Z</time>
      </trkpt>
      <trkpt lat="47.61297" lon="-2.83531">
        <ele>6.1</ele>
        <time>2025-01-28T12:00:43Z</time>
      </trkpt>
      <trkpt lat="47.61297" lon="-2.8353">
        <ele>6.3</ele>
        <time>2025-01-28T12:00:44Z</time>
      </trkpt>
      <trkpt lat="47.61297" lon="-2.83529">
        <ele>6.4</ele>
        <time>2025-01-28T12:00:45Z</time>
      </trkpt>
      <trkpt lat="47.61297" lon="-2.83529">
        <ele>6.6</ele>
        <time>2025-01-28T12:00:46Z</time>
      </trkpt>
      <trkpt lat="47.61297" lon="-2.83528">
        <ele>6.7</ele>
        <time>2025-01-28T12:00:47Z</time>
      </trkpt>
      <trkpt lat="47.61298" lon="-2.83527">
        <ele>6.8</ele>
        <time>2025-01-28T12:00:48Z</time>
      </trkpt>
      <trkpt lat="47.61298" lon="-2.83526">
        <ele>7</ele>
        <time>2025-01-28T12:00:49Z</time>
      </trkpt>
      <trkpt lat="47.61298" lon="-2.83525">
        <ele>7.1</ele>
        <time>2025-01-28T12:00:50Z</time>
      </trkpt>
      <trkpt lat="47.61298" lon="-2.83524">
        <ele>7.2</ele>
        <time>2025-01-28T12:00:51Z</time>
      </trkpt>
      <trkpt lat="47.61299" lon="-2.83522">
        <ele>7.4</ele>
        <time>2025-01-28T12:00:52Z</time>
      </trkpt>
      <trkpt lat="47.61299" lon="-2.83521">
        <ele>7.6</ele>
        <time>2025-01-28T12:00:53Z</time>
      </trkpt>
      <trkpt lat="47.613" lon="-2.8352">
        <ele>7.8</ele>
        <time>2025-01-28T12:00:54Z</time>
      </trkpt>
      <trkpt lat="47.613" lon="-2.83519">
        <ele>8</ele>
        <time>2025-01-28T12:00:55Z</time>
      </trkpt>
      <trkpt lat="47.613" lon="-2.83517">
        <ele>8.2</ele>
        <time>2025-01-28T12:00:56Z</time>
      </trkpt>
      <trkpt lat="47.61301" lon="-2.83516">
        <ele>8.4</ele>
        <time>2025-01-28T12:00:57Z</time>
      </trkpt>
      <trkpt lat="47.61301" lon="-2.83515">
        <ele>8.6</ele>
        <time>2025-01-28T12:00:58Z</time>
      </trkpt>
      <trkpt lat="47.61302" lon="-2.83514">
        <ele>8.8</ele>
        <time>2025-01-28T12:00:59Z</time>
      </trkpt>
      <trkpt lat="47.61303" lon="-2.83512">
        <ele>9</ele>
        <time>2025-01-28T12:01:00Z</time>
      </trkpt>
      <trkpt lat="47.61303" lon="-2.8351">
        <ele>9.3</ele>
        <time>2025-01-28T12:01:01Z</time>
      </trkpt>
      <trkpt lat="47.61303" lon="-2.83508">
        <ele>9.6</ele>
        <time>2025-01-28T12:01:02Z</time>
      </trkpt>
      <trkpt lat="47.61304" lon="-2.83506">
        <ele>9.9</ele>
        <time>2025-01-28T12:01:03Z</time>
      </trkpt>
      <trkpt lat="47.61304" lon="-2.83505">
        <ele>10.2</ele>
        <time>2025-01-28T12:01:04Z</time>
      </trkpt>
      <trkpt lat="47.61305" lon="-2.83503">
        <ele>10.5</ele>
        <time>2025-01-28T12:01:05Z</time>
      </trkpt>
      <trkpt lat="47.61306" lon="-2.83501">
        <ele>10.7</ele>
        <time>2025-01-28T12:01:06Z</time>
      </trkpt>
      <trkpt lat="47.61306" lon="-2.83499">
        <ele>10.8</ele>
        <time>2025-01-28T12:01:07Z</time>
      </trkpt>
      <trkpt lat="47.61307" lon="-2.83498">
        <ele>10.7</ele>
        <time>2025-01-28T12:01:08Z</time>
      </trkpt>
      <trkpt lat="47.61308" lon="-2.83496">
        <ele>10.7</ele>
        <time>2025-01-28T12:01:09Z</time>
      </trkpt>
      <trkpt lat="47.61308" lon="-2.83494">
        <ele>10.7</ele>
        <time>2025-01-28T12:01:10Z</time>
      </trkpt>
      <trkpt lat="47.61309" lon="-2.83492">
        <ele>10.8</ele>
        <time>2025-01-28T12:01:11Z</time>
      </trkpt>
      <trkpt lat="47.6131" lon="-2.83492">
        <ele>10.5</ele>
        <time>2025-01-28T12:01:12Z</time>
      </trkpt>
      <trkpt lat="47.61312" lon="-2.83492">
        <ele>10.1</ele>
        <time>2025-01-28T12:01:13Z</time>
      </trkpt>
      <trkpt lat="47.61313" lon="-2.83491">
        <ele>9.7</ele>
        <time>2025-01-28T12:01:14Z</time>
      </trkpt>
      <trkpt lat="47.61315" lon="-2.83491">
        <ele>9.5</ele>
        <time>2025-01-28T12:01:15Z</time>
      </trkpt>
      <trkpt lat="47.61316" lon="-2.83489">
        <ele>9.5</ele>
        <time>2025-01-28T12:01:16Z</time>
      </trkpt>
      <trkpt lat="47.61316" lon="-2.83488">
        <ele>9.7</ele>
        <time>2025-01-28T12:01:17Z</time>
      </trkpt>
      <trkpt lat="47.61317" lon="-2.83486">
        <ele>9.9</ele>
        <time>2025-01-28T12:01:18Z</time>
      </trkpt>
      <trkpt lat="47.61317" lon="-2.83484">
        <ele>10.1</ele>
        <time>2025-01-28T12:01:19Z</time>
      </trkpt>
      <trkpt lat="47.61317" lon="-2.83482">
        <ele>10.4</ele>
        <time>2025-01-28T12:01:20Z</time>
      </trkpt>
      <trkpt lat="47.61318" lon="-2.83481">
        <ele>10.6</ele>
        <time>2025-01-28T12:01:21Z</time>
      </trkpt>
      <trkpt lat="47.61318" lon="-2.83479">
        <ele>10.9</ele>
        <time>2025-01-28T12:01:22Z</time>
      </trkpt>
      <trkpt lat="47.61319" lon="-2.83478">
        <ele>11.1</ele>
        <time>2025-01-28T12:01:23Z</time>
      </trkpt>
      <trkpt lat="47.61319" lon="-2.83476">
        <ele>11.2</ele>
        <time>2025-01-28T12:01:24Z</time>
      </trkpt>
      <trkpt lat="47.6132" lon="-2.83475">
        <ele>11.4</ele>
        <time>2025-01-28T12:01:25Z</time>
      </trkpt>
      <trkpt lat="47.61321" lon="-2.83474">
        <ele>11.6</ele>
        <time>2025-01-28T12:01:26Z</time>
      </trkpt>
      <trkpt lat="47.61321" lon="-2.83472">
        <ele>11.8</ele>
        <time>2025-01-28T12:01:27Z</time>
      </trkpt>
      <trkpt lat="47.61322" lon="-2.83471">
        <ele>11.9</ele>
        <time>2025-01-28T12:01:28Z</time>
      </trkpt>
      <trkpt lat="47.61323" lon="-2.8347">
        <ele>12</ele>
        <time>2025-01-28T12:01:29Z</time>
      </trkpt>
      <trkpt lat="47.61324" lon="-2.83468">
        <ele>12.1</ele>
        <time>2025-01-28T12:01:30Z</time>
      </trkpt>
      <trkpt lat="47.61325" lon="-2.83467">
        <ele>12.2</ele>
        <time>2025-01-28T12:01:31Z</time>
      </trkpt>
      <trkpt lat="47.61326" lon="-2.83466">
        <ele>12.2</ele>
        <time>2025-01-28T12:01:32Z</time>
      </trkpt>
      <trkpt lat="47.61327" lon="-2.83466">
        <ele>12.2</ele>
        <time>2025-01-28T12:01:33Z</time>
      </trkpt>
      <trkpt lat="47.61328" lon="-2.83465">
        <ele>12.3</ele>
        <time>2025-01-28T12:01:34Z</time>
      </trkpt>
      <trkpt lat="47.61329" lon="-2.83463">
        <ele>12.5</ele>
        <time>2025-01-28T12:01:35Z</time>
      </trkpt>
      <trkpt lat="47.61331" lon="-2.83462">
        <ele>12.5</ele>
        <time>2025-01-28T12:01:36Z</time>
      </trkpt>
      <trkpt lat="47.61332" lon="-2.83462">
        <ele>12.6</ele>
        <time>2025-01-28T12:01:37Z</time>
      </trkpt>
      <trkpt lat="47.61333" lon="-2.83461">
        <ele>12.7</ele>
        <time>2025-01-28T12:01:38Z</time>
      </trkpt>
      <trkpt lat="47.61334" lon="-2.83459">
        <ele>12.8</ele>
        <time>2025-01-28T12:01:39Z</time>
      </trkpt>
      <trkpt lat="47.61335" lon="-2.83458">
        <ele>12.9</ele>
        <time>2025-01-28T12:01:40Z</time>
      </trkpt>
      <trkpt lat="47.61336" lon="-2.83458">
        <ele>12.8</ele>
        <time>2025-01-28T12:01:41Z</time>
      </trkpt>
      <trkpt lat="47.61337" lon="-2.83456">
        <ele>13</ele>
        <time>2025-01-28T12:01:42Z</time>
      </trkpt>
      <trkpt lat="47.61337" lon="-2.83454">
        <ele>13.2</ele>
        <time>2025-01-28T12:01:43Z</time>
      </trkpt>
      <trkpt lat="47.61338" lon="-2.83453">
        <ele>13.3</ele>
        <time>2025-01-28T12:01:44Z</time>
      </trkpt>
      <trkpt lat="47.61339" lon="-2.83451">
        <ele>13.5</ele>
        <time>2025-01-28T12:01:45Z</time>
      </trkpt>
      <trkpt lat="47.6134" lon="-2.8345">
        <ele>13.7</ele>
        <time>2025-01-28T12:01:46Z</time>
      </trkpt>
      <trkpt lat="47.6134" lon="-2.83448">
        <ele>13.9</ele>
        <time>2025-01-28T12:01:47Z</time>
      </trkpt>
      <trkpt lat="47.61341" lon="-2.83446">
        <ele>14.1</ele>
        <time>2025-01-28T12:01:48Z</time>
      </trkpt>
      <trkpt lat="47.61342" lon="-2.83445">
        <ele>14.3</ele>
        <time>2025-01-28T12:01:49Z</time>
      </trkpt>
      <trkpt lat="47.61343" lon="-2.83444">
        <ele>14.3</ele>
        <time>2025-01-28T12:01:50Z</time>
      </trkpt>
      <trkpt lat="47.61344" lon="-2.83443">
        <ele>14.3</ele>
        <time>2025-01-28T12:01:51Z</time>
      </trkpt>
      <trkpt lat="47.61344" lon="-2.83441">
        <ele>14.4</ele>
        <time>2025-01-28T12:01:52Z</time>
      </trkpt>
      <trkpt lat="47.61345" lon="-2.8344">
        <ele>14.4</ele>
        <time>2025-01-28T12:01:53Z</time>
      </trkpt>
      <trkpt lat="47.61346" lon="-2.83439">
        <ele>14.4</ele>
        <time>2025-01-28T12:01:54Z</time>
      </trkpt>
      <trkpt lat="47.61347" lon="-2.83438">
        <ele>14.4</ele>
        <time>2025-01-28T12:01:55Z</time>
      </trkpt>
      <trkpt lat="47.61348" lon="-2.83437">
        <ele>14.5</ele>
        <time>2025-01-28T12:01:56Z</time>
      </trkpt>
      <trkpt lat="47.61349" lon="-2.83436">
        <ele>14.6</ele>
        <time>2025-01-28T12:01:57Z</time>
      </trkpt>
      <trkpt lat="47.6135" lon="-2.83434">
        <ele>14.6</ele>
        <time>2025-01-28T12:01:58Z</time>
      </trkpt>
      <trkpt lat="47.6135" lon="-2.83433">
        <ele>14.7</ele>
        <time>2025-01-28T12:01:59Z</time>
      </trkpt>
      <trkpt lat="47.61351" lon="-2.83431">
        <ele>14.8</ele>
        <time>2025-01-28T12:02:00Z</time>
      </trkpt>
      <trkpt lat="47.61352" lon="-2.8343">
        <ele>14.9</ele>
        <time>2025-01-28T12:02:01Z</time>
      </trkpt>
      <trkpt lat="47.61352" lon="-2.83429">
        <ele>15</ele>
        <time>2025-01-28T12:02:02Z</time>
      </trkpt>
      <trkpt lat="47.61353" lon="-2.83427">
        <ele>15.1</ele>
        <time>2025-01-28T12:02:03Z</time>
      </trkpt>
      <trkpt lat="47.61354" lon="-2.83427">
        <ele>15.1</ele>
        <time>2025-01-28T12:02:04Z</time>
      </trkpt>
      <trkpt lat="47.61355" lon="-2.83426">
        <ele>15.1</ele>
        <time>2025-01-28T12:02:05Z</time>
      </trkpt>
      <trkpt lat="47.61356" lon="-2.83426">
        <ele>15.1</ele>
        <time>2025-01-28T12:02:06Z</time>
      </trkpt>
      <trkpt lat="47.61358" lon="-2.83425">
        <ele>15.2</ele>
        <time>2025-01-28T12:02:07Z</time>
      </trkpt>
      <trkpt lat="47.61358" lon="-2.83423">
        <ele>15.3</ele>
        <time>2025-01-28T12:02:08Z</time>
      </trkpt>
      <trkpt lat="47.61359" lon="-2.83422">
        <ele>15.5</ele>
        <time>2025-01-28T12:02:09Z</time>
      </trkpt>
      <trkpt lat="47.61359" lon="-2.83421">
        <ele>15.6</ele>
        <time>2025-01-28T12:02:10Z</time>
      </trkpt>
      <trkpt lat="47.6136" lon="-2.83419">
        <ele>15.7</ele>
        <time>2025-01-28T12:02:11Z</time>
      </trkpt>
      <trkpt lat="47.6136" lon="-2.83418">
        <ele>15.9</ele>
        <time>2025-01-28T12:02:12Z</time>
      </trkpt>
      <trkpt lat="47.61361" lon="-2.83417">
        <ele>16</ele>
        <time>2025-01-28T12:02:13Z</time>
      </trkpt>
      <trkpt lat="47.61361" lon="-2.83415">
        <ele>16.1</ele>
        <time>2025-01-28T12:02:14Z</time>
      </trkpt>
      <trkpt lat="47.61362" lon="-2.83413">
        <ele>16.2</ele>
        <time>2025-01-28T12:02:15Z</time>
      </trkpt>
      <trkpt lat="47.61362" lon="-2.83412">
        <ele>16.3</ele>
        <time>2025-01-28T12:02:16Z</time>
      </trkpt>
      <trkpt lat="47.61363" lon="-2.83411">
        <ele>16.3</ele>
        <time>2025-01-28T12:02:17Z</time>
      </trkpt>
      <trkpt lat="47.61363" lon="-2.8341">
        <ele>16.4</ele>
        <time>2025-01-28T12:02:18Z</time>
      </trkpt>
      <trkpt lat="47.61364" lon="-2.83408">
        <ele>16.5</ele>
        <time>2025-01-28T12:02:19Z</time>
      </trkpt>
      <trkpt lat="47.61364" lon="-2.83406">
        <ele>16.6</ele>
        <time>2025-01-28T12:02:20Z</time>
      </trkpt>
      <trkpt lat="47.61365" lon="-2.83405">
        <ele>16.7</ele>
        <time>2025-01-28T12:02:21Z</time>
      </trkpt>
      <trkpt lat="47.61367" lon="-2.83404">
        <ele>16.7</ele>
        <time>2025-01-28T12:02:22Z</time>
      </trkpt>
      <trkpt lat="47.61368" lon="-2.83405">
        <ele>16.6</ele>
        <time>2025-01-28T12:02:23Z</time>
      </trkpt>
      <trkpt lat="47.61369" lon="-2.83404">
        <ele>16.6</ele>
        <time>2025-01-28T12:02:24Z</time>
      </trkpt>
      <trkpt lat="47.6137" lon="-2.83403">
        <ele>16.7</ele>
        <time>2025-01-28T12:02:25Z</time>
      </trkpt>
      <trkpt lat="47.61371" lon="-2.83402">
        <ele>16.8</ele>
        <time>2025-01-28T12:02:26Z</time>
      </trkpt>
      <trkpt lat="47.61372" lon="-2.834">
        <ele>16.9</ele>
        <time>2025-01-28T12:02:27Z</time>
      </trkpt>
      <trkpt lat="47.61373" lon="-2.83398">
        <ele>17</ele>
        <time>2025-01-28T12:02:28Z</time>
      </trkpt>
      <trkpt lat="47.61373" lon="-2.83397">
        <ele>17.2</ele>
        <time>2025-01-28T12:02:29Z</time>
      </trkpt>
      <trkpt lat="47.61374" lon="-2.83396">
        <ele>17.2</ele>
        <time>2025-01-28T12:02:30Z</time>
      </trkpt>
      <trkpt lat="47.61375" lon="-2.83394">
        <ele>17.4</ele>
        <time>2025-01-28T12:02:31Z</time>
      </trkpt>
      <trkpt lat="47.61375" lon="-2.83393">
        <ele>17.6</ele>
        <time>2025-01-28T12:02:32Z</time>
      </trkpt>
      <trkpt lat="47.61376" lon="-2.83391">
        <ele>17.7</ele>
        <time>2025-01-28T12:02:33Z</time>
      </trkpt>
      <trkpt lat="47.61376" lon="-2.8339">
        <ele>17.9</ele>
        <time>2025-01-28T12:02:34Z</time>
      </trkpt>
      <trkpt lat="47.61377" lon="-2.83389">
        <ele>18</ele>
        <time>2025-01-28T12:02:35Z</time>
      </trkpt>
      <trkpt lat="47.61378" lon="-2.83388">
        <ele>18</ele>
        <time>2025-01-28T12:02:36Z</time>
      </trkpt>
      <trkpt lat="47.61378" lon="-2.83387">
        <ele>18</ele>
        <time>2025-01-28T12:02:37Z</time>
      </trkpt>
      <trkpt lat="47.61379" lon="-2.83386">
        <ele>18</ele>
        <time>2025-01-28T12:02:38Z</time>
      </trkpt>
      <trkpt lat="47.6138" lon="-2.83384">
        <ele>18.1</ele>
        <time>2025-01-28T12:02:39Z</time>
      </trkpt>
      <trkpt lat="47.6138" lon="-2.83383">
        <ele>18.1</ele>
        <time>2025-01-28T12:02:40Z</time>
      </trkpt>
      <trkpt lat="47.61381" lon="-2.83382">
        <ele>18.1</ele>
        <time>2025-01-28T12:02:41Z</time>
      </trkpt>
      <trkpt lat="47.61382" lon="-2.8338">
        <ele>18.2</ele>
        <time>2025-01-28T12:02:42Z</time>
      </trkpt>
      <trkpt lat="47.61383" lon="-2.83379">
        <ele>18.2</ele>
        <time>2025-01-28T12:02:43Z</time>
      </trkpt>
      <trkpt lat="47.61384" lon="-2.83377">
        <ele>18.3</ele>
        <time>2025-01-28T12:02:44Z</time>
      </trkpt>
      <trkpt lat="47.61385" lon="-2.83376">
        <ele>18.3</ele>
        <time>2025-01-28T12:02:45Z</time>
      </trkpt>
      <trkpt lat="47.61386" lon="-2.83375">
        <ele>18.4</ele>
        <time>2025-01-28T12:02:46Z</time>
      </trkpt>
      <trkpt lat="47.61387" lon="-2.83374">
        <ele>18.4</ele>
        <time>2025-01-28T12:02:47Z</time>
      </trkpt>
      <trkpt lat="47.61388" lon="-2.83373">
        <ele>18.5</ele>
        <time>2025-01-28T12:02:48Z</time>
      </trkpt>
      <trkpt lat="47.61388" lon="-2.83372">
        <ele>18.6</ele>
        <time>2025-01-28T12:02:49Z</time>
      </trkpt>
      <trkpt lat="47.61389" lon="-2.83371">
        <ele>18.6</ele>
        <time>2025-01-28T12:02:50Z</time>
      </trkpt>
      <trkpt lat="47.6139" lon="-2.83369">
        <ele>18.6</ele>
        <time>2025-01-28T12:02:51Z</time>
      </trkpt>
      <trkpt lat="47.61391" lon="-2.83368">
        <ele>18.7</ele>
        <time>2025-01-28T12:02:52Z</time>
      </trkpt>
      <trkpt lat="47.61392" lon="-2.83366">
        <ele>18.7</ele>
        <time>2025-01-28T12:02:53Z</time>
      </trkpt>
      <trkpt lat="47.61393" lon="-2.83364">
        <ele>18.7</ele>
        <time>2025-01-28T12:02:54Z</time>
      </trkpt>
      <trkpt lat="47.61393" lon="-2.83362">
        <ele>18.8</ele>
        <time>2025-01-28T12:02:55Z</time>
      </trkpt>
      <trkpt lat="47.61394" lon="-2.83361">
        <ele>18.8</ele>
        <time>2025-01-28T12:02:56Z</time>
      </trkpt>
      <trkpt lat="47.61395" lon="-2.83359">
        <ele>18.8</ele>
        <time>2025-01-28T12:02:57Z</time>
      </trkpt>
      <trkpt lat="47.61397" lon="-2.83358">
        <ele>18.8</ele>
        <time>2025-01-28T12:02:58Z</time>
      </trkpt>
      <trkpt lat="47.61398" lon="-2.83357">
        <ele>18.8</ele>
        <time>2025-01-28T12:02:59Z</time>
      </trkpt>
      <trkpt lat="47.61398" lon="-2.83355">
        <ele>18.8</ele>
        <time>2025-01-28T12:03:00Z</time>
      </trkpt>
      <trkpt lat="47.614" lon="-2.83354">
        <ele>18.8</ele>
        <time>2025-01-28T12:03:01Z</time>
      </trkpt>
      <trkpt lat="47.61401" lon="-2.83353">
        <ele>18.8</ele>
        <time>2025-01-28T12:03:02Z</time>
      </trkpt>
      <trkpt lat="47.61402" lon="-2.83351">
        <ele>18.9</ele>
        <time>2025-01-28T12:03:03Z</time>
      </trkpt>
      <trkpt lat="47.61403" lon="-2.83349">
        <ele>18.9</ele>
        <time>2025-01-28T12:03:04Z</time>
      </trkpt>
      <trkpt lat="47.61404" lon="-2.83348">
        <ele>19</ele>
        <time>2025-01-28T12:03:05Z</time>
      </trkpt>
      <trkpt lat="47.61405" lon="-2.83346">
        <ele>19.1</ele>
        <time>2025-01-28T12:03:06Z</time>
      </trkpt>
      <trkpt lat="47.61405" lon="-2.83345">
        <ele>19.1</ele>
        <time>2025-01-28T12:03:07Z</time>
      </trkpt>
      <trkpt lat="47.61406" lon="-2.83344">
        <ele>19.2</ele>
        <time>2025-01-28T12:03:08Z</time>
      </trkpt>
      <trkpt lat="47.61407" lon="-2.83342">
        <ele>19.3</ele>
        <time>2025-01-28T12:03:09Z</time>
      </trkpt>
      <trkpt lat="47.61407" lon="-2.8334">
        <ele>19.3</ele>
        <time>2025-01-28T12:03:10Z</time>
      </trkpt>
      <trkpt lat="47.61409" lon="-2.83339">
        <ele>19.4</ele>
        <time>2025-01-28T12:03:11Z</time>
      </trkpt>
      <trkpt lat="47.61409" lon="-2.83338">
        <ele>19.5</ele>
        <time>2025-01-28T12:03:12Z</time>
      </trkpt>
      <trkpt lat="47.6141" lon="-2.83337">
        <ele>19.6</ele>
        <time>2025-01-28T12:03:13Z</time>
      </trkpt>
      <trkpt lat="47.61412" lon="-2.83337">
        <ele>19.6</ele>
        <time>2025-01-28T12:03:14Z</time>
      </trkpt>
      <trkpt lat="47.61413" lon="-2.83335">
        <ele>19.7</ele>
        <time>2025-01-28T12:03:15Z</time>
      </trkpt>
      <trkpt lat="47.61414" lon="-2.83334">
        <ele>19.8</ele>
        <time>2025-01-28T12:03:16Z</time>
      </trkpt>
      <trkpt lat="47.61415" lon="-2.83333">
        <ele>20</ele>
        <time>2025-01-28T12:03:17Z</time>
      </trkpt>
      <trkpt lat="47.61416" lon="-2.83331">
        <ele>20</ele>
        <time>2025-01-28T12:03:18Z</time>
      </trkpt>
      <trkpt lat="47.61416" lon="-2.83329">
        <ele>20.1</ele>
        <time>2025-01-28T12:03:19Z</time>
      </trkpt>
      <trkpt lat="47.61417" lon="-2.83328">
        <ele>20.2</ele>
        <time>2025-01-28T12:03:20Z</time>
      </trkpt>
      <trkpt lat="47.61418" lon="-2.83326">
        <ele>20.2</ele>
        <time>2025-01-28T12:03:21Z</time>
      </trkpt>
      <trkpt lat="47.61419" lon="-2.83325">
        <ele>20.2</ele>
        <time>2025-01-28T12:03:22Z</time>
      </trkpt>
      <trkpt lat="47.6142" lon="-2.83324">
        <ele>20.2</ele>
        <time>2025-01-28T12:03:23Z</time>
      </trkpt>
      <trkpt lat="47.61422" lon="-2.83323">
        <ele>20.2</ele>
        <time>2025-01-28T12:03:24Z</time>
      </trkpt>
      <trkpt lat="47.61423" lon="-2.83322">
        <ele>20.2</ele>
        <time>2025-01-28T12:03:25Z</time>
      </trkpt>
      <trkpt lat="47.61424" lon="-2.83321">
        <ele>20.2</ele>
        <time>2025-01-28T12:03:26Z</time>
      </trkpt>
      <trkpt lat="47.61425" lon="-2.8332">
        <ele>20.2</ele>
        <time>2025-01-28T12:03:27Z</time>
      </trkpt>
      <trkpt lat="47.61426" lon="-2.83319">
        <ele>20.2</ele>
        <time>2025-01-28T12:03:28Z</time>
      </trkpt>
      <trkpt lat="47.61426" lon="-2.83317">
        <ele>20.3</ele>
        <time>2025-01-28T12:03:29Z</time>
      </trkpt>
      <trkpt lat="47.61428" lon="-2.83316">
        <ele>20.3</ele>
        <time>2025-01-28T12:03:30Z</time>
      </trkpt>
      <trkpt lat="47.61428" lon="-2.83315">
        <ele>20.4</ele>
        <time>2025-01-28T12:03:31Z</time>
      </trkpt>
      <trkpt lat="47.61429" lon="-2.83314">
        <ele>20.5</ele>
        <time>2025-01-28T12:03:32Z</time>
      </trkpt>
      <trkpt lat="47.61429" lon="-2.83312">
        <ele>20.5</ele>
        <time>2025-01-28T12:03:33Z</time>
      </trkpt>
      <trkpt lat="47.6143" lon="-2.83311">
        <ele>20.6</ele>
        <time>2025-01-28T12:03:34Z</time>
      </trkpt>
      <trkpt lat="47.61431" lon="-2.8331">
        <ele>20.7</ele>
        <time>2025-01-28T12:03:35Z</time>
      </trkpt>
      <trkpt lat="47.61431" lon="-2.83309">
        <ele>20.7</ele>
        <time>2025-01-28T12:03:36Z</time>
      </trkpt>
      <trkpt lat="47.61432" lon="-2.83308">
        <ele>20.8</ele>
        <time>2025-01-28T12:03:37Z</time>
      </trkpt>
      <trkpt lat="47.61433" lon="-2.83307">
        <ele>20.9</ele>
        <time>2025-01-28T12:03:38Z</time>
      </trkpt>
      <trkpt lat="47.61434" lon="-2.83305">
        <ele>21</ele>
        <time>2025-01-28T12:03:39Z</time>
      </trkpt>
      <trkpt lat="47.61434" lon="-2.83304">
        <ele>21.1</ele>
        <time>2025-01-28T12:03:40Z</time>
      </trkpt>
      <trkpt lat="47.61435" lon="-2.83302">
        <ele>21.2</ele>
        <time>2025-01-28T12:03:41Z</time>
      </trkpt>
      <trkpt lat="47.61436" lon="-2.83301">
        <ele>21.2</ele>
        <time>2025-01-28T12:03:42Z</time>
      </trkpt>
      <trkpt lat="47.61437" lon="-2.83299">
        <ele>21.3</ele>
        <time>2025-01-28T12:03:43Z</time>
      </trkpt>
      <trkpt lat="47.61438" lon="-2.83298">
        <ele>21.4</ele>
        <time>2025-01-28T12:03:44Z</time>
      </trkpt>
      <trkpt lat="47.61438" lon="-2.83297">
        <ele>21.5</ele>
        <time>2025-01-28T12:03:45Z</time>
      </trkpt>
      <trkpt lat="47.61439" lon="-2.83296">
        <ele>21.5</ele>
        <time>2025-01-28T12:03:46Z</time>
      </trkpt>
      <trkpt lat="47.6144" lon="-2.83295">
        <ele>21.6</ele>
        <time>2025-01-28T12:03:47Z</time>
      </trkpt>
      <trkpt lat="47.61441" lon="-2.83294">
        <ele>21.7</ele>
        <time>2025-01-28T12:03:48Z</time>
      </trkpt>
      <trkpt lat="47.61442" lon="-2.83293">
        <ele>21.9</ele>
        <time>2025-01-28T12:03:49Z</time>
      </trkpt>
      <trkpt lat="47.61443" lon="-2.83291">
        <ele>22</ele>
        <time>2025-01-28T12:03:50Z</time>
      </trkpt>
      <trkpt lat="47.61444" lon="-2.8329">
        <ele>22.1</ele>
        <time>2025-01-28T12:03:51Z</time>
      </trkpt>
      <trkpt lat="47.61444" lon="-2.83288">
        <ele>22.2</ele>
        <time>2025-01-28T12:03:52Z</time>
      </trkpt>
      <trkpt lat="47.61445" lon="-2.83287">
        <ele>22.3</ele>
        <time>2025-01-28T12:03:53Z</time>
      </trkpt>
      <trkpt lat="47.61446" lon="-2.83286">
        <ele>22.3</ele>
        <time>2025-01-28T12:03:54Z</time>
      </trkpt>
      <trkpt lat="47.61447" lon="-2.83285">
        <ele>22.4</ele>
        <time>2025-01-28T12:03:55Z</time>
      </trkpt>
      <trkpt lat="47.61447" lon="-2.83283">
        <ele>22.5</ele>
        <time>2025-01-28T12:03:56Z</time>
      </trkpt>
      <trkpt lat="47.61449" lon="-2.83282">
        <ele>22.5</ele>
        <time>2025-01-28T12:03:57Z</time>
      </trkpt>
      <trkpt lat="47.6145" lon="-2.83282">
        <ele>22.5</ele>
        <time>2025-01-28T12:03:58Z</time>
      </trkpt>
      <trkpt lat="47.61451" lon="-2.83281">
        <ele>22.5</ele>
        <time>2025-01-28T12:03:59Z</time>
      </trkpt>
      <trkpt lat="47.61452" lon="-2.8328">
        <ele>22.5</ele>
        <time>2025-01-28T12:04:00Z</time>
      </trkpt>
      <trkpt lat="47.61453" lon="-2.83279">
        <ele>22.6</ele>
        <time>2025-01-28T12:04:01Z</time>
      </trkpt>
      <trkpt lat="47.61454" lon="-2.83278">
        <ele>22.6</ele>
        <time>2025-01-28T12:04:02Z</time>
      </trkpt>
      <trkpt lat="47.61455" lon="-2.83277">
        <ele>22.6</ele>
        <time>2025-01-28T12:04:03Z</time>
      </trkpt>
      <trkpt lat="47.61455" lon="-2.83276">
        <ele>22.6</ele>
        <time>2025-01-28T12:04:04Z</time>
      </trkpt>
      <trkpt lat="47.61456" lon="-2.83274">
        <ele>22.6</ele>
        <time>2025-01-28T12:04:05Z</time>
      </trkpt>
      <trkpt lat="47.61457" lon="-2.83273">
        <ele>22.6</ele>
        <time>2025-01-28T12:04:06Z</time>
      </trkpt>
      <trkpt lat="47.61457" lon="-2.83271">
        <ele>22.7</ele>
        <time>2025-01-28T12:04:07Z</time>
      </trkpt>
      <trkpt lat="47.61458" lon="-2.83269">
        <ele>22.7</ele>
        <time>2025-01-28T12:04:08Z</time>
      </trkpt>
      <trkpt lat="47.61458" lon="-2.83268">
        <ele>22.7</ele>
        <time>2025-01-28T12:04:09Z</time>
      </trkpt>
      <trkpt lat="47.61459" lon="-2.83267">
        <ele>22.7</ele>
        <time>2025-01-28T12:04:10Z</time>
      </trkpt>
      <trkpt lat="47.6146" lon="-2.83265">
        <ele>22.7</ele>
        <time>2025-01-28T12:04:11Z</time>
      </trkpt>
      <trkpt lat="47.61461" lon="-2.83264">
        <ele>22.7</ele>
        <time>2025-01-28T12:04:12Z</time>
      </trkpt>
      <trkpt lat="47.61461" lon="-2.83262">
        <ele>22.7</ele>
        <time>2025-01-28T12:04:13Z</time>
      </trkpt>
      <trkpt lat="47.61462" lon="-2.83261">
        <ele>22.8</ele>
        <time>2025-01-28T12:04:14Z</time>
      </trkpt>
      <trkpt lat="47.61463" lon="-2.83259">
        <ele>22.8</ele>
        <time>2025-01-28T12:04:15Z</time>
      </trkpt>
      <trkpt lat="47.61464" lon="-2.83258">
        <ele>22.8</ele>
        <time>2025-01-28T12:04:16Z</time>
      </trkpt>
      <trkpt lat="47.61465" lon="-2.83256">
        <ele>22.8</ele>
        <time>2025-01-28T12:04:17Z</time>
      </trkpt>
      <trkpt lat="47.61465" lon="-2.83254">
        <ele>22.9</ele>
        <time>2025-01-28T12:04:18Z</time>
      </trkpt>
      <trkpt lat="47.61466" lon="-2.83253">
        <ele>22.9</ele>
        <time>2025-01-28T12:04:19Z</time>
      </trkpt>
      <trkpt lat="47.61467" lon="-2.83252">
        <ele>23</ele>
        <time>2025-01-28T12:04:20Z</time>
      </trkpt>
      <trkpt lat="47.61468" lon="-2.83251">
        <ele>23</ele>
        <time>2025-01-28T12:04:21Z</time>
      </trkpt>
      <trkpt lat="47.61469" lon="-2.8325">
        <ele>23</ele>
        <time>2025-01-28T12:04:22Z</time>
      </trkpt>
      <trkpt lat="47.6147" lon="-2.83249">
        <ele>23</ele>
        <time>2025-01-28T12:04:23Z</time>
      </trkpt>
      <trkpt lat="47.61471" lon="-2.83247">
        <ele>23.1</ele>
        <time>2025-01-28T12:04:24Z</time>
      </trkpt>
      <trkpt lat="47.61472" lon="-2.83246">
        <ele>23.1</ele>
        <time>2025-01-28T12:04:25Z</time>
      </trkpt>
      <trkpt lat="47.61473" lon="-2.83245">
        <ele>23.2</ele>
        <time>2025-01-28T12:04:26Z</time>
      </trkpt>
      <trkpt lat="47.61474" lon="-2.83243">
        <ele>23.2</ele>
        <time>2025-01-28T12:04:27Z</time>
      </trkpt>
      <trkpt lat="47.61475" lon="-2.83241">
        <ele>23.3</ele>
        <time>2025-01-28T12:04:28Z</time>
      </trkpt>
      <trkpt lat="47.61475" lon="-2.8324">
        <ele>23.3</ele>
        <time>2025-01-28T12:04:29Z</time>
      </trkpt>
      <trkpt lat="47.61476" lon="-2.83238">
        <ele>23.4</ele>
        <time>2025-01-28T12:04:30Z</time>
      </trkpt>
      <trkpt lat="47.61477" lon="-2.83236">
        <ele>23.4</ele>
        <time>2025-01-28T12:04:31Z</time>
      </trkpt>
      <trkpt lat="47.61478" lon="-2.83235">
        <ele>23.4</ele>
        <time>2025-01-28T12:04:32Z</time>
      </trkpt>
      <trkpt lat="47.61479" lon="-2.83234">
        <ele>23.5</ele>
        <time>2025-01-28T12:04:33Z</time>
      </trkpt>
      <trkpt lat="47.6148" lon="-2.83232">
        <ele>23.6</ele>
        <time>2025-01-28T12:04:34Z</time>
      </trkpt>
      <trkpt lat="47.6148" lon="-2.8323">
        <ele>23.6</ele>
        <time>2025-01-28T12:04:35Z</time>
      </trkpt>
      <trkpt lat="47.61481" lon="-2.83229">
        <ele>23.7</ele>
        <time>2025-01-28T12:04:36Z</time>
      </trkpt>
      <trkpt lat="47.61482" lon="-2.83227">
        <ele>23.8</ele>
        <time>2025-01-28T12:04:37Z</time>
      </trkpt>
      <trkpt lat="47.61483" lon="-2.83226">
        <ele>23.8</ele>
        <time>2025-01-28T12:04:38Z</time>
      </trkpt>
      <trkpt lat="47.61483" lon="-2.83224">
        <ele>23.9</ele>
        <time>2025-01-28T12:04:39Z</time>
      </trkpt>
      <trkpt lat="47.61484" lon="-2.83223">
        <ele>24</ele>
        <time>2025-01-28T12:04:40Z</time>
      </trkpt>
      <trkpt lat="47.61485" lon="-2.83222">
        <ele>24</ele>
        <time>2025-01-28T12:04:41Z</time>
      </trkpt>
      <trkpt lat="47.61486" lon="-2.83221">
        <ele>24</ele>
        <time>2025-01-28T12:04:42Z</time>
      </trkpt>
      <trkpt lat="47.61487" lon="-2.8322">
        <ele>24.1</ele>
        <time>2025-01-28T12:04:43Z</time>
      </trkpt>
      <trkpt lat="47.61488" lon="-2.83218">
        <ele>24.1</ele>
        <time>2025-01-28T12:04:44Z</time>
      </trkpt>
      <trkpt lat="47.61489" lon="-2.83217">
        <ele>24.2</ele>
        <time>2025-01-28T12:04:45Z</time>
      </trkpt>
      <trkpt lat="47.6149" lon="-2.83216">
        <ele>24.2</ele>
        <time>2025-01-28T12:04:46Z</time>
      </trkpt>
      <trkpt lat="47.61491" lon="-2.83216">
        <ele>24.2</ele>
        <time>2025-01-28T12:04:47Z</time>
      </trkpt>
      <trkpt lat="47.61492" lon="-2.83215">
        <ele>24.3</ele>
        <time>2025-01-28T12:04:48Z</time>
      </trkpt>
      <trkpt lat="47.61492" lon="-2.83213">
        <ele>24.3</ele>
        <time>2025-01-28T12:04:49Z</time>
      </trkpt>
      <trkpt lat="47.61493" lon="-2.83212">
        <ele>24.4</ele>
        <time>2025-01-28T12:04:50Z</time>
      </trkpt>
      <trkpt lat="47.61494" lon="-2.8321">
        <ele>24.4</ele>
        <time>2025-01-28T12:04:51Z</time>
      </trkpt>
      <trkpt lat="47.61495" lon="-2.83209">
        <ele>24.5</ele>
        <time>2025-01-28T12:04:52Z</time>
      </trkpt>
      <trkpt lat="47.61496" lon="-2.83208">
        <ele>24.5</ele>
        <time>2025-01-28T12:04:53Z</time>
      </trkpt>
      <trkpt lat="47.61497" lon="-2.83207">
        <ele>24.6</ele>
        <time>2025-01-28T12:04:54Z</time>
      </trkpt>
      <trkpt lat="47.61498" lon="-2.83205">
        <ele>24.6</ele>
        <time>2025-01-28T12:04:55Z</time>
      </trkpt>
      <trkpt lat="47.61499" lon="-2.83204">
        <ele>24.7</ele>
        <time>2025-01-28T12:04:56Z</time>
      </trkpt>
      <trkpt lat="47.615" lon="-2.83203">
        <ele>24.7</ele>
        <time>2025-01-28T12:04:57Z</time>
      </trkpt>
      <trkpt lat="47.61501" lon="-2.83202">
        <ele>24.7</ele>
        <time>2025-01-28T12:04:58Z</time>
      </trkpt>
      <trkpt lat="47.61502" lon="-2.832">
        <ele>24.7</ele>
        <time>2025-01-28T12:04:59Z</time>
      </trkpt>
      <trkpt lat="47.61502" lon="-2.83199">
        <ele>24.8</ele>
        <time>2025-01-28T12:05:00Z</time>
      </trkpt>
      <trkpt lat="47.61503" lon="-2.83197">
        <ele>24.8</ele>
        <time>2025-01-28T12:05:01Z</time>
      </trkpt>
      <trkpt lat="47.61503" lon="-2.83196">
        <ele>24.8</ele>
        <time>2025-01-28T12:05:02Z</time>
      </trkpt>
      <trkpt lat="47.61504" lon="-2.83194">
        <ele>24.9</ele>
        <time>2025-01-28T12:05:03Z</time>
      </trkpt>
      <trkpt lat="47.61505" lon="-2.83193">
        <ele>24.8</ele>
        <time>2025-01-28T12:05:04Z</time>
      </trkpt>
      <trkpt lat="47.61506" lon="-2.83192">
        <ele>24.8</ele>
        <time>2025-01-28T12:05:05Z</time>
      </trkpt>
      <trkpt lat="47.61507" lon="-2.83191">
        <ele>24.8</ele>
        <time>2025-01-28T12:05:06Z</time>
      </trkpt>
      <trkpt lat="47.61507" lon="-2.83189">
        <ele>24.8</ele>
        <time>2025-01-28T12:05:07Z</time>
      </trkpt>
      <trkpt lat="47.61508" lon="-2.83188">
        <ele>24.8</ele>
        <time>2025-01-28T12:05:08Z</time>
      </trkpt>
      <trkpt lat="47.61509" lon="-2.83187">
        <ele>24.8</ele>
        <time>2025-01-28T12:05:09Z</time>
      </trkpt>
      <trkpt lat="47.6151" lon="-2.83185">
        <ele>24.8</ele>
        <time>2025-01-28T12:05:10Z</time>
      </trkpt>
      <trkpt lat="47.6151" lon="-2.83184">
        <ele>24.8</ele>
        <time>2025-01-28T12:05:11Z</time>
      </trkpt>
      <trkpt lat="47.61511" lon="-2.83183">
        <ele>24.8</ele>
        <time>2025-01-28T12:05:12Z</time>
      </trkpt>
      <trkpt lat="47.61512" lon="-2.83182">
        <ele>24.8</ele>
        <time>2025-01-28T12:05:13Z</time>
      </trkpt>
      <trkpt lat="47.61513" lon="-2.83181">
        <ele>24.8</ele>
        <time>2025-01-28T12:05:14Z</time>
      </trkpt>
      <trkpt lat="47.61514" lon="-2.83179">
        <ele>24.8</ele>
        <time>2025-01-28T12:05:15Z</time>
      </trkpt>
      <trkpt lat="47.61514" lon="-2.83178">
        <ele>24.8</ele>
        <time>2025-01-28T12:05:16Z</time>
      </trkpt>
      <trkpt lat="47.61515" lon="-2.83177">
        <ele>24.8</ele>
        <time>2025-01-28T12:05:17Z</time>
      </trkpt>
      <trkpt lat="47.61516" lon="-2.83175">
        <ele>24.8</ele>
        <time>2025-01-28T12:05:18Z</time>
      </trkpt>
      <trkpt lat="47.61517" lon="-2.83174">
        <ele>24.8</ele>
        <time>2025-01-28T12:05:19Z</time>
      </trkpt>
      <trkpt lat="47.61518" lon="-2.83172">
        <ele>24.9</ele>
        <time>2025-01-28T12:05:20Z</time>
      </trkpt>
      <trkpt lat="47.61519" lon="-2.83171">
        <ele>24.9</ele>
        <time>2025-01-28T12:05:21Z</time>
      </trkpt>
      <trkpt lat="47.6152" lon="-2.8317">
        <ele>24.9</ele>
        <time>2025-01-28T12:05:22Z</time>
      </trkpt>
      <trkpt lat="47.61521" lon="-2.83169">
        <ele>24.9</ele>
        <time>2025-01-28T12:05:23Z</time>
      </trkpt>
      <trkpt lat="47.61522" lon="-2.83168">
        <ele>25</ele>
        <time>2025-01-28T12:05:24Z</time>
      </trkpt>
      <trkpt lat="47.61523" lon="-2.83166">
        <ele>25</ele>
        <time>2025-01-28T12:05:25Z</time>
      </trkpt>
      <trkpt lat="47.61524" lon="-2.83165">
        <ele>24.9</ele>
        <time>2025-01-28T12:05:26Z</time>
      </trkpt>
      <trkpt lat="47.61525" lon="-2.83164">
        <ele>24.9</ele>
        <time>2025-01-28T12:05:27Z</time>
      </trkpt>
      <trkpt lat="47.61526" lon="-2.83163">
        <ele>24.9</ele>
        <time>2025-01-28T12:05:28Z</time>
      </trkpt>
      <trkpt lat="47.61527" lon="-2.83161">
        <ele>24.8</ele>
        <time>2025-01-28T12:05:29Z</time>
      </trkpt>
      <trkpt lat="47.61528" lon="-2.8316">
        <ele>24.8</ele>
        <time>2025-01-28T12:05:30Z</time>
      </trkpt>
      <trkpt lat="47.61529" lon="-2.83159">
        <ele>24.6</ele>
        <time>2025-01-28T12:05:31Z</time>
      </trkpt>
      <trkpt lat="47.6153" lon="-2.83158">
        <ele>24.5</ele>
        <time>2025-01-28T12:05:32Z</time>
      </trkpt>
      <trkpt lat="47.61531" lon="-2.83157">
        <ele>24.4</ele>
        <time>2025-01-28T12:05:33Z</time>
      </trkpt>
      <trkpt lat="47.61532" lon="-2.83155">
        <ele>24.3</ele>
        <time>2025-01-28T12:05:34Z</time>
      </trkpt>
      <trkpt lat="47.61533" lon="-2.83154">
        <ele>24.2</ele>
        <time>2025-01-28T12:05:35Z</time>
      </trkpt>
      <trkpt lat="47.61533" lon="-2.83152">
        <ele>24.1</ele>
        <time>2025-01-28T12:05:36Z</time>
      </trkpt>
      <trkpt lat="47.61534" lon="-2.83151">
        <ele>24</ele>
        <time>2025-01-28T12:05:37Z</time>
      </trkpt>
      <trkpt lat="47.61535" lon="-2.83149">
        <ele>23.9</ele>
        <time>2025-01-28T12:05:38Z</time>
      </trkpt>
      <trkpt lat="47.61536" lon="-2.83148">
        <ele>23.8</ele>
        <time>2025-01-28T12:05:39Z</time>
      </trkpt>
      <trkpt lat="47.61537" lon="-2.83147">
        <ele>23.8</ele>
        <time>2025-01-28T12:05:40Z</time>
      </trkpt>
      <trkpt lat="47.61538" lon="-2.83145">
        <ele>23.7</ele>
        <time>2025-01-28T12:05:41Z</time>
      </trkpt>
      <trkpt lat="47.61539" lon="-2.83144">
        <ele>23.6</ele>
        <time>2025-01-28T12:05:42Z</time>
      </trkpt>
      <trkpt lat="47.6154" lon="-2.83142">
        <ele>23.6</ele>
        <time>2025-01-28T12:05:43Z</time>
      </trkpt>
      <trkpt lat="47.61541" lon="-2.83141">
        <ele>23.5</ele>
        <time>2025-01-28T12:05:44Z</time>
      </trkpt>
      <trkpt lat="47.61542" lon="-2.8314">
        <ele>23.5</ele>
        <time>2025-01-28T12:05:45Z</time>
      </trkpt>
      <trkpt lat="47.61543" lon="-2.83138">
        <ele>23.5</ele>
        <time>2025-01-28T12:05:46Z</time>
      </trkpt>
      <trkpt lat="47.61544" lon="-2.83137">
        <ele>23.4</ele>
        <time>2025-01-28T12:05:47Z</time>
      </trkpt>
      <trkpt lat="47.61545" lon="-2.83136">
        <ele>23.4</ele>
        <time>2025-01-28T12:05:48Z</time>
      </trkpt>
      <trkpt lat="47.61545" lon="-2.83135">
        <ele>23.4</ele>
        <time>2025-01-28T12:05:49Z</time>
      </trkpt>
      <trkpt lat="47.61546" lon="-2.83133">
        <ele>23.4</ele>
        <time>2025-01-28T12:05:50Z</time>
      </trkpt>
      <trkpt lat="47.61546" lon="-2.83131">
        <ele>23.3</ele>
        <time>2025-01-28T12:05:51Z</time>
      </trkpt>
      <trkpt lat="47.61547" lon="-2.8313">
        <ele>23.3</ele>
        <time>2025-01-28T12:05:52Z</time>
      </trkpt>
      <trkpt lat="47.61548" lon="-2.83128">
        <ele>23.3</ele>
        <time>2025-01-28T12:05:53Z</time>
      </trkpt>
      <trkpt lat="47.61549" lon="-2.83127">
        <ele>23.3</ele>
        <time>2025-01-28T12:05:54Z</time>
      </trkpt>
      <trkpt lat="47.61549" lon="-2.83125">
        <ele>23.2</ele>
        <time>2025-01-28T12:05:55Z</time>
      </trkpt>
      <trkpt lat="47.6155" lon="-2.83124">
        <ele>23.2</ele>
        <time>2025-01-28T12:05:56Z</time>
      </trkpt>
      <trkpt lat="47.61551" lon="-2.83123">
        <ele>23.2</ele>
        <time>2025-01-28T12:05:57Z</time>
      </trkpt>
      <trkpt lat="47.61552" lon="-2.83121">
        <ele>23.1</ele>
        <time>2025-01-28T12:05:58Z</time>
      </trkpt>
      <trkpt lat="47.61553" lon="-2.8312">
        <ele>23.1</ele>
        <time>2025-01-28T12:05:59Z</time>
      </trkpt>
      <trkpt lat="47.61554" lon="-2.83119">
        <ele>23</ele>
        <time>2025-01-28T12:06:00Z</time>
      </trkpt>
      <trkpt lat="47.61555" lon="-2.83117">
        <ele>23</ele>
        <time>2025-01-28T12:06:01Z</time>
      </trkpt>
      <trkpt lat="47.61556" lon="-2.83115">
        <ele>23</ele>
        <time>2025-01-28T12:06:02Z</time>
      </trkpt>
      <trkpt lat="47.61556" lon="-2.83114">
        <ele>23</ele>
        <time>2025-01-28T12:06:03Z</time>
      </trkpt>
      <trkpt lat="47.61557" lon="-2.83112">
        <ele>22.9</ele>
        <time>2025-01-28T12:06:04Z</time>
      </trkpt>
      <trkpt lat="47.61558" lon="-2.83111">
        <ele>22.9</ele>
        <time>2025-01-28T12:06:05Z</time>
      </trkpt>
      <trkpt lat="47.61559" lon="-2.83109">
        <ele>22.8</ele>
        <time>2025-01-28T12:06:06Z</time>
      </trkpt>
      <trkpt lat="47.6156" lon="-2.83108">
        <ele>22.7</ele>
        <time>2025-01-28T12:06:07Z</time>
      </trkpt>
      <trkpt lat="47.61561" lon="-2.83106">
        <ele>22.7</ele>
        <time>2025-01-28T12:06:08Z</time>
      </trkpt>
      <trkpt lat="47.61562" lon="-2.83104">
        <ele>22.6</ele>
        <time>2025-01-28T12:06:09Z</time>
      </trkpt>
      <trkpt lat="47.61563" lon="-2.83103">
        <ele>22.5</ele>
        <time>2025-01-28T12:06:10Z</time>
      </trkpt>
      <trkpt lat="47.61563" lon="-2.83102">
        <ele>22.5</ele>
        <time>2025-01-28T12:06:11Z</time>
      </trkpt>
      <trkpt lat="47.61564" lon="-2.83101">
        <ele>22.4</ele>
        <time>2025-01-28T12:06:12Z</time>
      </trkpt>
      <trkpt lat="47.61565" lon="-2.83099">
        <ele>22.4</ele>
        <time>2025-01-28T12:06:13Z</time>
      </trkpt>
      <trkpt lat="47.61566" lon="-2.83098">
        <ele>22.3</ele>
        <time>2025-01-28T12:06:14Z</time>
      </trkpt>
      <trkpt lat="47.61567" lon="-2.83097">
        <ele>22.3</ele>
        <time>2025-01-28T12:06:15Z</time>
      </trkpt>
      <trkpt lat="47.61568" lon="-2.83095">
        <ele>22.2</ele>
        <time>2025-01-28T12:06:16Z</time>
      </trkpt>
      <trkpt lat="47.61569" lon="-2.83093">
        <ele>22.2</ele>
        <time>2025-01-28T12:06:17Z</time>
      </trkpt>
      <trkpt lat="47.6157" lon="-2.83092">
        <ele>22.1</ele>
        <time>2025-01-28T12:06:18Z</time>
      </trkpt>
      <trkpt lat="47.61571" lon="-2.8309">
        <ele>22.1</ele>
        <time>2025-01-28T12:06:19Z</time>
      </trkpt>
      <trkpt lat="47.61572" lon="-2.83089">
        <ele>22.1</ele>
        <time>2025-01-28T12:06:20Z</time>
      </trkpt>
      <trkpt lat="47.61573" lon="-2.83088">
        <ele>22.1</ele>
        <time>2025-01-28T12:06:21Z</time>
      </trkpt>
      <trkpt lat="47.61574" lon="-2.83087">
        <ele>22</ele>
        <time>2025-01-28T12:06:22Z</time>
      </trkpt>
      <trkpt lat="47.61575" lon="-2.83085">
        <ele>22</ele>
        <time>2025-01-28T12:06:23Z</time>
      </trkpt>
      <trkpt lat="47.61576" lon="-2.83084">
        <ele>22</ele>
        <time>2025-01-28T12:06:24Z</time>
      </trkpt>
      <trkpt lat="47.61576" lon="-2.83082">
        <ele>22</ele>
        <time>2025-01-28T12:06:25Z</time>
      </trkpt>
      <trkpt lat="47.61577" lon="-2.83081">
        <ele>22</ele>
        <time>2025-01-28T12:06:26Z</time>
      </trkpt>
      <trkpt lat="47.61578" lon="-2.83079">
        <ele>21.9</ele>
        <time>2025-01-28T12:06:27Z</time>
      </trkpt>
      <trkpt lat="47.61579" lon="-2.83078">
        <ele>21.9</ele>
        <time>2025-01-28T12:06:28Z</time>
      </trkpt>
      <trkpt lat="47.6158" lon="-2.83077">
        <ele>21.9</ele>
        <time>2025-01-28T12:06:29Z</time>
      </trkpt>
      <trkpt lat="47.61581" lon="-2.83075">
        <ele>22</ele>
        <time>2025-01-28T12:06:30Z</time>
      </trkpt>
      <trkpt lat="47.61582" lon="-2.83073">
        <ele>22</ele>
        <time>2025-01-28T12:06:31Z</time>
      </trkpt>
      <trkpt lat="47.61582" lon="-2.83071">
        <ele>22</ele>
        <time>2025-01-28T12:06:32Z</time>
      </trkpt>
      <trkpt lat="47.61582" lon="-2.83069">
        <ele>22</ele>
        <time>2025-01-28T12:06:33Z</time>
      </trkpt>
      <trkpt lat="47.61583" lon="-2.83068">
        <ele>22</ele>
        <time>2025-01-28T12:06:34Z</time>
      </trkpt>
      <trkpt lat="47.61584" lon="-2.83066">
        <ele>22</ele>
        <time>2025-01-28T12:06:35Z</time>
      </trkpt>
      <trkpt lat="47.61585" lon="-2.83065">
        <ele>21.9</ele>
        <time>2025-01-28T12:06:36Z</time>
      </trkpt>
      <trkpt lat="47.61587" lon="-2.83065">
        <ele>21.9</ele>
        <time>2025-01-28T12:06:37Z</time>
      </trkpt>
      <trkpt lat="47.61588" lon="-2.83064">
        <ele>21.8</ele>
        <time>2025-01-28T12:06:38Z</time>
      </trkpt>
      <trkpt lat="47.61588" lon="-2.83062">
        <ele>21.8</ele>
        <time>2025-01-28T12:06:39Z</time>
      </trkpt>
      <trkpt lat="47.61589" lon="-2.83061">
        <ele>21.8</ele>
        <time>2025-01-28T12:06:40Z</time>
      </trkpt>
      <trkpt lat="47.61589" lon="-2.83059">
        <ele>21.8</ele>
        <time>2025-01-28T12:06:41Z</time>
      </trkpt>
      <trkpt lat="47.61589" lon="-2.83058">
        <ele>21.8</ele>
        <time>2025-01-28T12:06:42Z</time>
      </trkpt>
      <trkpt lat="47.6159" lon="-2.83056">
        <ele>21.8</ele>
        <time>2025-01-28T12:06:43Z</time>
      </trkpt>
      <trkpt lat="47.61591" lon="-2.83055">
        <ele>21.7</ele>
        <time>2025-01-28T12:06:44Z</time>
      </trkpt>
      <trkpt lat="47.61591" lon="-2.83054">
        <ele>21.6</ele>
        <time>2025-01-28T12:06:45Z</time>
      </trkpt>
      <trkpt lat="47.61592" lon="-2.83053">
        <ele>21.5</ele>
        <time>2025-01-28T12:06:46Z</time>
      </trkpt>
      <trkpt lat="47.61592" lon="-2.83051">
        <ele>21.5</ele>
        <time>2025-01-28T12:06:47Z</time>
      </trkpt>
      <trkpt lat="47.61592" lon="-2.83052">
        <ele>21.5</ele>
        <time>2025-01-28T12:06:48Z</time>
      </trkpt>
      <trkpt lat="47.61592" lon="-2.83052">
        <ele>21.5</ele>
        <time>2025-01-28T12:06:49Z</time>
      </trkpt>
      <trkpt lat="47.61592" lon="-2.83052">
        <ele>21.5</ele>
        <time>2025-01-28T12:06:50Z</time>
      </trkpt>
      <trkpt lat="47.61592" lon="-2.83052">
        <ele>21.5</ele>
        <time>2025-01-28T12:06:51Z</time>
      </trkpt>
      <trkpt lat="47.61592" lon="-2.83051">
        <ele>21.4</ele>
        <time>2025-01-28T12:06:52Z</time>
      </trkpt>
      <trkpt lat="47.61593" lon="-2.83049">
        <ele>21.4</ele>
        <time>2025-01-28T12:06:53Z</time>
      </trkpt>
      <trkpt lat="47.61594" lon="-2.83048">
        <ele>21.3</ele>
        <time>2025-01-28T12:06:54Z</time>
      </trkpt>
      <trkpt lat="47.61595" lon="-2.83046">
        <ele>21.2</ele>
        <time>2025-01-28T12:06:55Z</time>
      </trkpt>
      <trkpt lat="47.61596" lon="-2.83045">
        <ele>21.1</ele>
        <time>2025-01-28T12:06:56Z</time>
      </trkpt>
      <trkpt lat="47.61597" lon="-2.83044">
        <ele>21.1</ele>
        <time>2025-01-28T12:06:57Z</time>
      </trkpt>
      <trkpt lat="47.61597" lon="-2.83043">
        <ele>21</ele>
        <time>2025-01-28T12:06:58Z</time>
      </trkpt>
      <trkpt lat="47.61598" lon="-2.83042">
        <ele>21</ele>
        <time>2025-01-28T12:06:59Z</time>
      </trkpt>
      <trkpt lat="47.61599" lon="-2.83041">
        <ele>21</ele>
        <time>2025-01-28T12:07:00Z</time>
      </trkpt>
      <trkpt lat="47.616" lon="-2.8304">
        <ele>20.9</ele>
        <time>2025-01-28T12:07:01Z</time>
      </trkpt>
      <trkpt lat="47.61601" lon="-2.8304">
        <ele>20.9</ele>
        <time>2025-01-28T12:07:02Z</time>
      </trkpt>
      <trkpt lat="47.61602" lon="-2.83039">
        <ele>20.9</ele>
        <time>2025-01-28T12:07:03Z</time>
      </trkpt>
      <trkpt lat="47.61603" lon="-2.83039">
        <ele>20.9</ele>
        <time>2025-01-28T12:07:04Z</time>
      </trkpt>
      <trkpt lat="47.61604" lon="-2.83038">
        <ele>20.9</ele>
        <time>2025-01-28T12:07:05Z</time>
      </trkpt>
      <trkpt lat="47.61605" lon="-2.83037">
        <ele>20.9</ele>
        <time>2025-01-28T12:07:06Z</time>
      </trkpt>
      <trkpt lat="47.61606" lon="-2.83035">
        <ele>20.9</ele>
        <time>2025-01-28T12:07:07Z</time>
      </trkpt>
      <trkpt lat="47.61606" lon="-2.83034">
        <ele>20.9</ele>
        <time>2025-01-28T12:07:08Z</time>
      </trkpt>
      <trkpt lat="47.61607" lon="-2.83033">
        <ele>20.9</ele>
        <time>2025-01-28T12:07:09Z</time>
      </trkpt>
      <trkpt lat="47.61608" lon="-2.83031">
        <ele>20.9</ele>
        <time>2025-01-28T12:07:10Z</time>
      </trkpt>
      <trkpt lat="47.61609" lon="-2.83031">
        <ele>20.9</ele>
        <time>2025-01-28T12:07:11Z</time>
      </trkpt>
      <trkpt lat="47.6161" lon="-2.83031">
        <ele>21</ele>
        <time>2025-01-28T12:07:12Z</time>
      </trkpt>
      <trkpt lat="47.61612" lon="-2.83031">
        <ele>21</ele>
        <time>2025-01-28T12:07:13Z</time>
      </trkpt>
      <trkpt lat="47.61613" lon="-2.8303">
        <ele>21</ele>
        <time>2025-01-28T12:07:14Z</time>
      </trkpt>
      <trkpt lat="47.61614" lon="-2.8303">
        <ele>21</ele>
        <time>2025-01-28T12:07:15Z</time>
      </trkpt>
      <trkpt lat="47.61615" lon="-2.83028">
        <ele>21</ele>
        <time>2025-01-28T12:07:16Z</time>
      </trkpt>
      <trkpt lat="47.61615" lon="-2.83027">
        <ele>21</ele>
        <time>2025-01-28T12:07:17Z</time>
      </trkpt>
      <trkpt lat="47.61616" lon="-2.83025">
        <ele>20.9</ele>
        <time>2025-01-28T12:07:18Z</time>
      </trkpt>
      <trkpt lat="47.61617" lon="-2.83024">
        <ele>20.9</ele>
        <time>2025-01-28T12:07:19Z</time>
      </trkpt>
      <trkpt lat="47.61618" lon="-2.83022">
        <ele>20.9</ele>
        <time>2025-01-28T12:07:20Z</time>
      </trkpt>
      <trkpt lat="47.61618" lon="-2.83021">
        <ele>20.8</ele>
        <time>2025-01-28T12:07:21Z</time>
      </trkpt>
      <trkpt lat="47.61619" lon="-2.83019">
        <ele>20.8</ele>
        <time>2025-01-28T12:07:22Z</time>
      </trkpt>
      <trkpt lat="47.6162" lon="-2.83018">
        <ele>20.8</ele>
        <time>2025-01-28T12:07:23Z</time>
      </trkpt>
      <trkpt lat="47.61621" lon="-2.83017">
        <ele>20.7</ele>
        <time>2025-01-28T12:07:24Z</time>
      </trkpt>
      <trkpt lat="47.61622" lon="-2.83016">
        <ele>20.7</ele>
        <time>2025-01-28T12:07:25Z</time>
      </trkpt>
      <trkpt lat="47.61623" lon="-2.83014">
        <ele>20.7</ele>
        <time>2025-01-28T12:07:26Z</time>
      </trkpt>
      <trkpt lat="47.61624" lon="-2.83013">
        <ele>20.7</ele>
        <time>2025-01-28T12:07:27Z</time>
      </trkpt>
      <trkpt lat="47.61624" lon="-2.83012">
        <ele>20.7</ele>
        <time>2025-01-28T12:07:28Z</time>
      </trkpt>
      <trkpt lat="47.61625" lon="-2.8301">
        <ele>20.7</ele>
        <time>2025-01-28T12:07:29Z</time>
      </trkpt>
      <trkpt lat="47.61626" lon="-2.83009">
        <ele>20.7</ele>
        <time>2025-01-28T12:07:30Z</time>
      </trkpt>
      <trkpt lat="47.61627" lon="-2.83008">
        <ele>20.7</ele>
        <time>2025-01-28T12:07:31Z</time>
      </trkpt>
      <trkpt lat="47.61627" lon="-2.83006">
        <ele>20.7</ele>
        <time>2025-01-28T12:07:32Z</time>
      </trkpt>
      <trkpt lat="47.61628" lon="-2.83005">
        <ele>20.7</ele>
        <time>2025-01-28T12:07:33Z</time>
      </trkpt>
      <trkpt lat="47.61629" lon="-2.83004">
        <ele>20.7</ele>
        <time>2025-01-28T12:07:34Z</time>
      </trkpt>
      <trkpt lat="47.6163" lon="-2.83003">
        <ele>20.7</ele>
        <time>2025-01-28T12:07:35Z</time>
      </trkpt>
      <trkpt lat="47.61631" lon="-2.83002">
        <ele>20.7</ele>
        <time>2025-01-28T12:07:36Z</time>
      </trkpt>
      <trkpt lat="47.61632" lon="-2.83">
        <ele>20.7</ele>
        <time>2025-01-28T12:07:37Z</time>
      </trkpt>
      <trkpt lat="47.61632" lon="-2.82998">
        <ele>20.7</ele>
        <time>2025-01-28T12:07:38Z</time>
      </trkpt>
      <trkpt lat="47.61633" lon="-2.82996">
        <ele>20.6</ele>
        <time>2025-01-28T12:07:39Z</time>
      </trkpt>
      <trkpt lat="47.61634" lon="-2.82995">
        <ele>20.6</ele>
        <time>2025-01-28T12:07:40Z</time>
      </trkpt>
      <trkpt lat="47.61635" lon="-2.82993">
        <ele>20.6</ele>
        <time>2025-01-28T12:07:41Z</time>
      </trkpt>
      <trkpt lat="47.61635" lon="-2.82992">
        <ele>20.6</ele>
        <time>2025-01-28T12:07:42Z</time>
      </trkpt>
      <trkpt lat="47.61636" lon="-2.82991">
        <ele>20.6</ele>
        <time>2025-01-28T12:07:43Z</time>
      </trkpt>
      <trkpt lat="47.61637" lon="-2.82989">
        <ele>20.5</ele>
        <time>2025-01-28T12:07:44Z</time>
      </trkpt>
      <trkpt lat="47.61638" lon="-2.82988">
        <ele>20.5</ele>
        <time>2025-01-28T12:07:45Z</time>
      </trkpt>
      <trkpt lat="47.61639" lon="-2.82986">
        <ele>20.5</ele>
        <time>2025-01-28T12:07:46Z</time>
      </trkpt>
      <trkpt lat="47.61639" lon="-2.82985">
        <ele>20.4</ele>
        <time>2025-01-28T12:07:47Z</time>
      </trkpt>
      <trkpt lat="47.6164" lon="-2.82983">
        <ele>20.4</ele>
        <time>2025-01-28T12:07:48Z</time>
      </trkpt>
      <trkpt lat="47.61641" lon="-2.82982">
        <ele>20.3</ele>
        <time>2025-01-28T12:07:49Z</time>
      </trkpt>
      <trkpt lat="47.61642" lon="-2.8298">
        <ele>20.3</ele>
        <time>2025-01-28T12:07:50Z</time>
      </trkpt>
      <trkpt lat="47.61643" lon="-2.82979">
        <ele>20.2</ele>
        <time>2025-01-28T12:07:51Z</time>
      </trkpt>
      <trkpt lat="47.61644" lon="-2.82978">
        <ele>20.2</ele>
        <time>2025-01-28T12:07:52Z</time>
      </trkpt>
      <trkpt lat="47.61644" lon="-2.82976">
        <ele>20.1</ele>
        <time>2025-01-28T12:07:53Z</time>
      </trkpt>
      <trkpt lat="47.61645" lon="-2.82975">
        <ele>20.1</ele>
        <time>2025-01-28T12:07:54Z</time>
      </trkpt>
      <trkpt lat="47.61646" lon="-2.82974">
        <ele>20.1</ele>
        <time>2025-01-28T12:07:55Z</time>
      </trkpt>
      <trkpt lat="47.61647" lon="-2.82974">
        <ele>20</ele>
        <time>2025-01-28T12:07:56Z</time>
      </trkpt>
      <trkpt lat="47.61648" lon="-2.82972">
        <ele>20</ele>
        <time>2025-01-28T12:07:57Z</time>
      </trkpt>
      <trkpt lat="47.61649" lon="-2.82971">
        <ele>19.9</ele>
        <time>2025-01-28T12:07:58Z</time>
      </trkpt>
      <trkpt lat="47.6165" lon="-2.82969">
        <ele>19.9</ele>
        <time>2025-01-28T12:07:59Z</time>
      </trkpt>
      <trkpt lat="47.61651" lon="-2.82968">
        <ele>19.8</ele>
        <time>2025-01-28T12:08:00Z</time>
      </trkpt>
      <trkpt lat="47.61651" lon="-2.82966">
        <ele>19.8</ele>
        <time>2025-01-28T12:08:01Z</time>
      </trkpt>
      <trkpt lat="47.61652" lon="-2.82965">
        <ele>19.7</ele>
        <time>2025-01-28T12:08:02Z</time>
      </trkpt>
      <trkpt lat="47.61653" lon="-2.82963">
        <ele>19.7</ele>
        <time>2025-01-28T12:08:03Z</time>
      </trkpt>
      <trkpt lat="47.61654" lon="-2.82962">
        <ele>19.6</ele>
        <time>2025-01-28T12:08:04Z</time>
      </trkpt>
      <trkpt lat="47.61655" lon="-2.82961">
        <ele>19.6</ele>
        <time>2025-01-28T12:08:05Z</time>
      </trkpt>
      <trkpt lat="47.61656" lon="-2.82959">
        <ele>19.5</ele>
        <time>2025-01-28T12:08:06Z</time>
      </trkpt>
      <trkpt lat="47.61657" lon="-2.82958">
        <ele>19.5</ele>
        <time>2025-01-28T12:08:07Z</time>
      </trkpt>
      <trkpt lat="47.61657" lon="-2.82956">
        <ele>19.4</ele>
        <time>2025-01-28T12:08:08Z</time>
      </trkpt>
      <trkpt lat="47.61658" lon="-2.82955">
        <ele>19.4</ele>
        <time>2025-01-28T12:08:09Z</time>
      </trkpt>
      <trkpt lat="47.61659" lon="-2.82953">
        <ele>19.3</ele>
        <time>2025-01-28T12:08:10Z</time>
      </trkpt>
      <trkpt lat="47.61659" lon="-2.82952">
        <ele>19.3</ele>
        <time>2025-01-28T12:08:11Z</time>
      </trkpt>
      <trkpt lat="47.6166" lon="-2.8295">
        <ele>19.2</ele>
        <time>2025-01-28T12:08:12Z</time>
      </trkpt>
      <trkpt lat="47.61661" lon="-2.82949">
        <ele>19.2</ele>
        <time>2025-01-28T12:08:13Z</time>
      </trkpt>
      <trkpt lat="47.61662" lon="-2.82948">
        <ele>19.1</ele>
        <time>2025-01-28T12:08:14Z</time>
      </trkpt>
      <trkpt lat="47.61663" lon="-2.82947">
        <ele>19.1</ele>
        <time>2025-01-28T12:08:15Z</time>
      </trkpt>
      <trkpt lat="47.61664" lon="-2.82946">
        <ele>19.1</ele>
        <time>2025-01-28T12:08:16Z</time>
      </trkpt>
      <trkpt lat="47.61665" lon="-2.82945">
        <ele>19</ele>
        <time>2025-01-28T12:08:17Z</time>
      </trkpt>
      <trkpt lat="47.61666" lon="-2.82944">
        <ele>19</ele>
        <time>2025-01-28T12:08:18Z</time>
      </trkpt>
      <trkpt lat="47.61667" lon="-2.82943">
        <ele>19</ele>
        <time>2025-01-28T12:08:19Z</time>
      </trkpt>
      <trkpt lat="47.61668" lon="-2.82942">
        <ele>18.9</ele>
        <time>2025-01-28T12:08:20Z</time>
      </trkpt>
      <trkpt lat="47.61669" lon="-2.8294">
        <ele>18.8</ele>
        <time>2025-01-28T12:08:21Z</time>
      </trkpt>
      <trkpt lat="47.6167" lon="-2.82938">
        <ele>18.8</ele>
        <time>2025-01-28T12:08:22Z</time>
      </trkpt>
      <trkpt lat="47.61671" lon="-2.82937">
        <ele>18.7</ele>
        <time>2025-01-28T12:08:23Z</time>
      </trkpt>
      <trkpt lat="47.61671" lon="-2.82936">
        <ele>18.7</ele>
        <time>2025-01-28T12:08:24Z</time>
      </trkpt>
      <trkpt lat="47.61672" lon="-2.82934">
        <ele>18.6</ele>
        <time>2025-01-28T12:08:25Z</time>
      </trkpt>
      <trkpt lat="47.61673" lon="-2.82933">
        <ele>18.6</ele>
        <time>2025-01-28T12:08:26Z</time>
      </trkpt>
      <trkpt lat="47.61673" lon="-2.8293">
        <ele>18.5</ele>
        <time>2025-01-28T12:08:27Z</time>
      </trkpt>
      <trkpt lat="47.61674" lon="-2.82929">
        <ele>18.4</ele>
        <time>2025-01-28T12:08:28Z</time>
      </trkpt>
      <trkpt lat="47.61675" lon="-2.82927">
        <ele>18.4</ele>
        <time>2025-01-28T12:08:29Z</time>
      </trkpt>
      <trkpt lat="47.61677" lon="-2.82927">
        <ele>18.4</ele>
        <time>2025-01-28T12:08:30Z</time>
      </trkpt>
      <trkpt lat="47.61678" lon="-2.82925">
        <ele>18.3</ele>
        <time>2025-01-28T12:08:31Z</time>
      </trkpt>
      <trkpt lat="47.61679" lon="-2.82925">
        <ele>18.3</ele>
        <time>2025-01-28T12:08:32Z</time>
      </trkpt>
      <trkpt lat="47.6168" lon="-2.82923">
        <ele>18.2</ele>
        <time>2025-01-28T12:08:33Z</time>
      </trkpt>
      <trkpt lat="47.61681" lon="-2.82921">
        <ele>18.2</ele>
        <time>2025-01-28T12:08:34Z</time>
      </trkpt>
      <trkpt lat="47.61681" lon="-2.82919">
        <ele>18.1</ele>
        <time>2025-01-28T12:08:35Z</time>
      </trkpt>
      <trkpt lat="47.61682" lon="-2.82918">
        <ele>18</ele>
        <time>2025-01-28T12:08:36Z</time>
      </trkpt>
      <trkpt lat="47.61683" lon="-2.82917">
        <ele>18</ele>
        <time>2025-01-28T12:08:37Z</time>
      </trkpt>
      <trkpt lat="47.61684" lon="-2.82915">
        <ele>17.9</ele>
        <time>2025-01-28T12:08:38Z</time>
      </trkpt>
      <trkpt lat="47.61685" lon="-2.82914">
        <ele>17.9</ele>
        <time>2025-01-28T12:08:39Z</time>
      </trkpt>
      <trkpt lat="47.61686" lon="-2.82914">
        <ele>17.9</ele>
        <time>2025-01-28T12:08:40Z</time>
      </trkpt>
      <trkpt lat="47.61687" lon="-2.82913">
        <ele>17.9</ele>
        <time>2025-01-28T12:08:41Z</time>
      </trkpt>
      <trkpt lat="47.61689" lon="-2.82912">
        <ele>17.8</ele>
        <time>2025-01-28T12:08:42Z</time>
      </trkpt>
      <trkpt lat="47.6169" lon="-2.82911">
        <ele>17.8</ele>
        <time>2025-01-28T12:08:43Z</time>
      </trkpt>
      <trkpt lat="47.6169" lon="-2.82908">
        <ele>17.7</ele>
        <time>2025-01-28T12:08:44Z</time>
      </trkpt>
      <trkpt lat="47.61691" lon="-2.82907">
        <ele>17.6</ele>
        <time>2025-01-28T12:08:45Z</time>
      </trkpt>
      <trkpt lat="47.61691" lon="-2.82905">
        <ele>17.6</ele>
        <time>2025-01-28T12:08:46Z</time>
      </trkpt>
      <trkpt lat="47.61692" lon="-2.82904">
        <ele>17.5</ele>
        <time>2025-01-28T12:08:47Z</time>
      </trkpt>
      <trkpt lat="47.61693" lon="-2.82902">
        <ele>17.5</ele>
        <time>2025-01-28T12:08:48Z</time>
      </trkpt>
      <trkpt lat="47.61694" lon="-2.829">
        <ele>17.4</ele>
        <time>2025-01-28T12:08:49Z</time>
      </trkpt>
      <trkpt lat="47.61694" lon="-2.82899">
        <ele>17.3</ele>
        <time>2025-01-28T12:08:50Z</time>
      </trkpt>
      <trkpt lat="47.61694" lon="-2.82897">
        <ele>17.3</ele>
        <time>2025-01-28T12:08:51Z</time>
      </trkpt>
      <trkpt lat="47.61695" lon="-2.82895">
        <ele>17.2</ele>
        <time>2025-01-28T12:08:52Z</time>
      </trkpt>
      <trkpt lat="47.61696" lon="-2.82893">
        <ele>17.1</ele>
        <time>2025-01-28T12:08:53Z</time>
      </trkpt>
      <trkpt lat="47.61696" lon="-2.82891">
        <ele>17</ele>
        <time>2025-01-28T12:08:54Z</time>
      </trkpt>
      <trkpt lat="47.61696" lon="-2.8289">
        <ele>16.9</ele>
        <time>2025-01-28T12:08:55Z</time>
      </trkpt>
      <trkpt lat="47.61696" lon="-2.82888">
        <ele>16.8</ele>
        <time>2025-01-28T12:08:56Z</time>
      </trkpt>
      <trkpt lat="47.61697" lon="-2.82886">
        <ele>16.6</ele>
        <time>2025-01-28T12:08:57Z</time>
      </trkpt>
      <trkpt lat="47.61697" lon="-2.82884">
        <ele>16.5</ele>
        <time>2025-01-28T12:08:58Z</time>
      </trkpt>
      <trkpt lat="47.61697" lon="-2.82882">
        <ele>16.4</ele>
        <time>2025-01-28T12:08:59Z</time>
      </trkpt>
      <trkpt lat="47.61697" lon="-2.8288">
        <ele>16.2</ele>
        <time>2025-01-28T12:09:00Z</time>
      </trkpt>
      <trkpt lat="47.61698" lon="-2.82879">
        <ele>16.1</ele>
        <time>2025-01-28T12:09:01Z</time>
      </trkpt>
      <trkpt lat="47.61698" lon="-2.82877">
        <ele>16</ele>
        <time>2025-01-28T12:09:02Z</time>
      </trkpt>
      <trkpt lat="47.61698" lon="-2.82876">
        <ele>15.9</ele>
        <time>2025-01-28T12:09:03Z</time>
      </trkpt>
      <trkpt lat="47.61699" lon="-2.82874">
        <ele>15.8</ele>
        <time>2025-01-28T12:09:04Z</time>
      </trkpt>
      <trkpt lat="47.61699" lon="-2.82872">
        <ele>15.7</ele>
        <time>2025-01-28T12:09:05Z</time>
      </trkpt>
      <trkpt lat="47.617" lon="-2.82871">
        <ele>15.6</ele>
        <time>2025-01-28T12:09:06Z</time>
      </trkpt>
      <trkpt lat="47.617" lon="-2.82869">
        <ele>15.5</ele>
        <time>2025-01-28T12:09:07Z</time>
      </trkpt>
      <trkpt lat="47.61701" lon="-2.82868">
        <ele>15.4</ele>
        <time>2025-01-28T12:09:08Z</time>
      </trkpt>
      <trkpt lat="47.61702" lon="-2.82866">
        <ele>15.3</ele>
        <time>2025-01-28T12:09:09Z</time>
      </trkpt>
      <trkpt lat="47.61703" lon="-2.82864">
        <ele>15.2</ele>
        <time>2025-01-28T12:09:10Z</time>
      </trkpt>
      <trkpt lat="47.61703" lon="-2.82863">
        <ele>15.1</ele>
        <time>2025-01-28T12:09:11Z</time>
      </trkpt>
      <trkpt lat="47.61704" lon="-2.82862">
        <ele>15</ele>
        <time>2025-01-28T12:09:12Z</time>
      </trkpt>
      <trkpt lat="47.61704" lon="-2.8286">
        <ele>14.9</ele>
        <time>2025-01-28T12:09:13Z</time>
      </trkpt>
      <trkpt lat="47.61705" lon="-2.82858">
        <ele>14.8</ele>
        <time>2025-01-28T12:09:14Z</time>
      </trkpt>
      <trkpt lat="47.61705" lon="-2.82857">
        <ele>14.7</ele>
        <time>2025-01-28T12:09:15Z</time>
      </trkpt>
      <trkpt lat="47.61705" lon="-2.82855">
        <ele>14.6</ele>
        <time>2025-01-28T12:09:16Z</time>
      </trkpt>
      <trkpt lat="47.61705" lon="-2.82854">
        <ele>14.5</ele>
        <time>2025-01-28T12:09:17Z</time>
      </trkpt>
      <trkpt lat="47.61706" lon="-2.82853">
        <ele>14.4</ele>
        <time>2025-01-28T12:09:18Z</time>
      </trkpt>
      <trkpt lat="47.61706" lon="-2.82851">
        <ele>14.3</ele>
        <time>2025-01-28T12:09:19Z</time>
      </trkpt>
      <trkpt lat="47.61707" lon="-2.8285">
        <ele>14.2</ele>
        <time>2025-01-28T12:09:20Z</time>
      </trkpt>
      <trkpt lat="47.61707" lon="-2.82849">
        <ele>14.1</ele>
        <time>2025-01-28T12:09:21Z</time>
      </trkpt>
      <trkpt lat="47.61707" lon="-2.82848">
        <ele>14</ele>
        <time>2025-01-28T12:09:22Z</time>
      </trkpt>
      <trkpt lat="47.61708" lon="-2.82846">
        <ele>13.9</ele>
        <time>2025-01-28T12:09:23Z</time>
      </trkpt>
      <trkpt lat="47.61708" lon="-2.82845">
        <ele>13.8</ele>
        <time>2025-01-28T12:09:24Z</time>
      </trkpt>
      <trkpt lat="47.61708" lon="-2.82843">
        <ele>13.7</ele>
        <time>2025-01-28T12:09:25Z</time>
      </trkpt>
      <trkpt lat="47.61708" lon="-2.82842">
        <ele>13.6</ele>
        <time>2025-01-28T12:09:26Z</time>
      </trkpt>
      <trkpt lat="47.61708" lon="-2.8284">
        <ele>13.5</ele>
        <time>2025-01-28T12:09:27Z</time>
      </trkpt>
      <trkpt lat="47.61709" lon="-2.82839">
        <ele>13.4</ele>
        <time>2025-01-28T12:09:28Z</time>
      </trkpt>
      <trkpt lat="47.61709" lon="-2.82838">
        <ele>13.3</ele>
        <time>2025-01-28T12:09:29Z</time>
      </trkpt>
      <trkpt lat="47.61709" lon="-2.82836">
        <ele>13.2</ele>
        <time>2025-01-28T12:09:30Z</time>
      </trkpt>
      <trkpt lat="47.61709" lon="-2.82834">
        <ele>13.1</ele>
        <time>2025-01-28T12:09:31Z</time>
      </trkpt>
      <trkpt lat="47.61709" lon="-2.82833">
        <ele>13</ele>
        <time>2025-01-28T12:09:32Z</time>
      </trkpt>
      <trkpt lat="47.61709" lon="-2.82831">
        <ele>12.9</ele>
        <time>2025-01-28T12:09:33Z</time>
      </trkpt>
      <trkpt lat="47.61709" lon="-2.82829">
        <ele>12.8</ele>
        <time>2025-01-28T12:09:34Z</time>
      </trkpt>
      <trkpt lat="47.61708" lon="-2.82827">
        <ele>12.7</ele>
        <time>2025-01-28T12:09:35Z</time>
      </trkpt>
      <trkpt lat="47.61708" lon="-2.82825">
        <ele>12.5</ele>
        <time>2025-01-28T12:09:36Z</time>
      </trkpt>
      <trkpt lat="47.61709" lon="-2.82823">
        <ele>12.4</ele>
        <time>2025-01-28T12:09:37Z</time>
      </trkpt>
      <trkpt lat="47.61708" lon="-2.82821">
        <ele>12.3</ele>
        <time>2025-01-28T12:09:38Z</time>
      </trkpt>
      <trkpt lat="47.61708" lon="-2.8282">
        <ele>12.3</ele>
        <time>2025-01-28T12:09:39Z</time>
      </trkpt>
      <trkpt lat="47.61708" lon="-2.82818">
        <ele>12.2</ele>
        <time>2025-01-28T12:09:40Z</time>
      </trkpt>
      <trkpt lat="47.61709" lon="-2.82816">
        <ele>12.1</ele>
        <time>2025-01-28T12:09:41Z</time>
      </trkpt>
      <trkpt lat="47.61709" lon="-2.82814">
        <ele>12</ele>
        <time>2025-01-28T12:09:42Z</time>
      </trkpt>
      <trkpt lat="47.61708" lon="-2.82812">
        <ele>11.9</ele>
        <time>2025-01-28T12:09:43Z</time>
      </trkpt>
      <trkpt lat="47.61709" lon="-2.8281">
        <ele>11.8</ele>
        <time>2025-01-28T12:09:44Z</time>
      </trkpt>
      <trkpt lat="47.61709" lon="-2.82809">
        <ele>11.7</ele>
        <time>2025-01-28T12:09:45Z</time>
      </trkpt>
      <trkpt lat="47.61709" lon="-2.82807">
        <ele>11.6</ele>
        <time>2025-01-28T12:09:46Z</time>
      </trkpt>
      <trkpt lat="47.61709" lon="-2.82805">
        <ele>11.5</ele>
        <time>2025-01-28T12:09:47Z</time>
      </trkpt>
      <trkpt lat="47.61709" lon="-2.82803">
        <ele>11.4</ele>
        <time>2025-01-28T12:09:48Z</time>
      </trkpt>
      <trkpt lat="47.61709" lon="-2.82802">
        <ele>11.4</ele>
        <time>2025-01-28T12:09:49Z</time>
      </trkpt>
      <trkpt lat="47.61709" lon="-2.828">
        <ele>11.3</ele>
        <time>2025-01-28T12:09:50Z</time>
      </trkpt>
      <trkpt lat="47.61709" lon="-2.82798">
        <ele>11.2</ele>
        <time>2025-01-28T12:09:51Z</time>
      </trkpt>
      <trkpt lat="47.61709" lon="-2.82796">
        <ele>11.2</ele>
        <time>2025-01-28T12:09:52Z</time>
      </trkpt>
      <trkpt lat="47.61709" lon="-2.82794">
        <ele>11.1</ele>
        <time>2025-01-28T12:09:53Z</time>
      </trkpt>
      <trkpt lat="47.61709" lon="-2.82793">
        <ele>11</ele>
        <time>2025-01-28T12:09:54Z</time>
      </trkpt>
      <trkpt lat="47.61708" lon="-2.82791">
        <ele>11</ele>
        <time>2025-01-28T12:09:55Z</time>
      </trkpt>
      <trkpt lat="47.61708" lon="-2.8279">
        <ele>10.9</ele>
        <time>2025-01-28T12:09:56Z</time>
      </trkpt>
      <trkpt lat="47.61707" lon="-2.82789">
        <ele>10.8</ele>
        <time>2025-01-28T12:09:57Z</time>
      </trkpt>
      <trkpt lat="47.61707" lon="-2.82787">
        <ele>10.8</ele>
        <time>2025-01-28T12:09:58Z</time>
      </trkpt>
      <trkpt lat="47.61706" lon="-2.82785">
        <ele>10.7</ele>
        <time>2025-01-28T12:09:59Z</time>
      </trkpt>
      <trkpt lat="47.61705" lon="-2.82784">
        <ele>10.6</ele>
        <time>2025-01-28T12:10:00Z</time>
      </trkpt>
      <trkpt lat="47.61705" lon="-2.82782">
        <ele>10.5</ele>
        <time>2025-01-28T12:10:01Z</time>
      </trkpt>
      <trkpt lat="47.61704" lon="-2.82781">
        <ele>10.5</ele>
        <time>2025-01-28T12:10:02Z</time>
      </trkpt>
      <trkpt lat="47.61704" lon="-2.82779">
        <ele>10.4</ele>
        <time>2025-01-28T12:10:03Z</time>
      </trkpt>
      <trkpt lat="47.61703" lon="-2.82778">
        <ele>10.3</ele>
        <time>2025-01-28T12:10:04Z</time>
      </trkpt>
      <trkpt lat="47.61703" lon="-2.82776">
        <ele>10.3</ele>
        <time>2025-01-28T12:10:05Z</time>
      </trkpt>
      <trkpt lat="47.61703" lon="-2.82775">
        <ele>10.3</ele>
        <time>2025-01-28T12:10:06Z</time>
      </trkpt>
      <trkpt lat="47.61704" lon="-2.82773">
        <ele>10.3</ele>
        <time>2025-01-28T12:10:07Z</time>
      </trkpt>
      <trkpt lat="47.61704" lon="-2.82771">
        <ele>10.3</ele>
        <time>2025-01-28T12:10:08Z</time>
      </trkpt>
      <trkpt lat="47.61704" lon="-2.82769">
        <ele>10.4</ele>
        <time>2025-01-28T12:10:09Z</time>
      </trkpt>
      <trkpt lat="47.61704" lon="-2.82767">
        <ele>10.4</ele>
        <time>2025-01-28T12:10:10Z</time>
      </trkpt>
      <trkpt lat="47.61704" lon="-2.82765">
        <ele>10.4</ele>
        <time>2025-01-28T12:10:11Z</time>
      </trkpt>
      <trkpt lat="47.61704" lon="-2.82763">
        <ele>10.4</ele>
        <time>2025-01-28T12:10:12Z</time>
      </trkpt>
      <trkpt lat="47.61704" lon="-2.82761">
        <ele>10.4</ele>
        <time>2025-01-28T12:10:13Z</time>
      </trkpt>
      <trkpt lat="47.61704" lon="-2.82759">
        <ele>10.4</ele>
        <time>2025-01-28T12:10:14Z</time>
      </trkpt>
      <trkpt lat="47.61704" lon="-2.82758">
        <ele>10.4</ele>
        <time>2025-01-28T12:10:15Z</time>
      </trkpt>
      <trkpt lat="47.61704" lon="-2.82756">
        <ele>10.4</ele>
        <time>2025-01-28T12:10:16Z</time>
      </trkpt>
      <trkpt lat="47.61704" lon="-2.82754">
        <ele>10.4</ele>
        <time>2025-01-28T12:10:17Z</time>
      </trkpt>
      <trkpt lat="47.61704" lon="-2.82752">
        <ele>10.4</ele>
        <time>2025-01-28T12:10:18Z</time>
      </trkpt>
      <trkpt lat="47.61704" lon="-2.8275">
        <ele>10.4</ele>
        <time>2025-01-28T12:10:19Z</time>
      </trkpt>
      <trkpt lat="47.61704" lon="-2.82748">
        <ele>10.4</ele>
        <time>2025-01-28T12:10:20Z</time>
      </trkpt>
      <trkpt lat="47.61705" lon="-2.82746">
        <ele>10.5</ele>
        <time>2025-01-28T12:10:21Z</time>
      </trkpt>
      <trkpt lat="47.61705" lon="-2.82744">
        <ele>10.5</ele>
        <time>2025-01-28T12:10:22Z</time>
      </trkpt>
      <trkpt lat="47.61705" lon="-2.82743">
        <ele>10.5</ele>
        <time>2025-01-28T12:10:23Z</time>
      </trkpt>
      <trkpt lat="47.61705" lon="-2.82741">
        <ele>10.6</ele>
        <time>2025-01-28T12:10:24Z</time>
      </trkpt>
      <trkpt lat="47.61705" lon="-2.8274">
        <ele>10.6</ele>
        <time>2025-01-28T12:10:25Z</time>
      </trkpt>
      <trkpt lat="47.61705" lon="-2.82738">
        <ele>10.6</ele>
        <time>2025-01-28T12:10:26Z</time>
      </trkpt>
      <trkpt lat="47.61705" lon="-2.82736">
        <ele>10.7</ele>
        <time>2025-01-28T12:10:27Z</time>
      </trkpt>
      <trkpt lat="47.61705" lon="-2.82734">
        <ele>10.7</ele>
        <time>2025-01-28T12:10:28Z</time>
      </trkpt>
      <trkpt lat="47.61705" lon="-2.82732">
        <ele>10.8</ele>
        <time>2025-01-28T12:10:29Z</time>
      </trkpt>
      <trkpt lat="47.61705" lon="-2.8273">
        <ele>10.8</ele>
        <time>2025-01-28T12:10:30Z</time>
      </trkpt>
      <trkpt lat="47.61705" lon="-2.82728">
        <ele>10.9</ele>
        <time>2025-01-28T12:10:31Z</time>
      </trkpt>
      <trkpt lat="47.61705" lon="-2.82726">
        <ele>10.9</ele>
        <time>2025-01-28T12:10:32Z</time>
      </trkpt>
      <trkpt lat="47.61705" lon="-2.82724">
        <ele>11</ele>
        <time>2025-01-28T12:10:33Z</time>
      </trkpt>
      <trkpt lat="47.61705" lon="-2.82723">
        <ele>11</ele>
        <time>2025-01-28T12:10:34Z</time>
      </trkpt>
      <trkpt lat="47.61705" lon="-2.82721">
        <ele>11.1</ele>
        <time>2025-01-28T12:10:35Z</time>
      </trkpt>
      <trkpt lat="47.61705" lon="-2.8272">
        <ele>11.2</ele>
        <time>2025-01-28T12:10:36Z</time>
      </trkpt>
      <trkpt lat="47.61705" lon="-2.82719">
        <ele>11.3</ele>
        <time>2025-01-28T12:10:37Z</time>
      </trkpt>
      <trkpt lat="47.61706" lon="-2.82717">
        <ele>11.5</ele>
        <time>2025-01-28T12:10:38Z</time>
      </trkpt>
      <trkpt lat="47.61707" lon="-2.82715">
        <ele>11.6</ele>
        <time>2025-01-28T12:10:39Z</time>
      </trkpt>
      <trkpt lat="47.61707" lon="-2.82714">
        <ele>11.8</ele>
        <time>2025-01-28T12:10:40Z</time>
      </trkpt>
      <trkpt lat="47.61708" lon="-2.82712">
        <ele>11.9</ele>
        <time>2025-01-28T12:10:41Z</time>
      </trkpt>
      <trkpt lat="47.61708" lon="-2.82711">
        <ele>12</ele>
        <time>2025-01-28T12:10:42Z</time>
      </trkpt>
      <trkpt lat="47.61709" lon="-2.82709">
        <ele>12.2</ele>
        <time>2025-01-28T12:10:43Z</time>
      </trkpt>
      <trkpt lat="47.6171" lon="-2.82708">
        <ele>12.3</ele>
        <time>2025-01-28T12:10:44Z</time>
      </trkpt>
      <trkpt lat="47.6171" lon="-2.82707">
        <ele>12.4</ele>
        <time>2025-01-28T12:10:45Z</time>
      </trkpt>
      <trkpt lat="47.61711" lon="-2.82706">
        <ele>12.4</ele>
        <time>2025-01-28T12:10:46Z</time>
      </trkpt>
      <trkpt lat="47.61711" lon="-2.82704">
        <ele>12.6</ele>
        <time>2025-01-28T12:10:47Z</time>
      </trkpt>
      <trkpt lat="47.61711" lon="-2.82703">
        <ele>12.7</ele>
        <time>2025-01-28T12:10:48Z</time>
      </trkpt>
      <trkpt lat="47.61711" lon="-2.82701">
        <ele>12.8</ele>
        <time>2025-01-28T12:10:49Z</time>
      </trkpt>
      <trkpt lat="47.61711" lon="-2.827">
        <ele>13</ele>
        <time>2025-01-28T12:10:50Z</time>
      </trkpt>
      <trkpt lat="47.61709" lon="-2.82699">
        <ele>13</ele>
        <time>2025-01-28T12:10:51Z</time>
      </trkpt>
      <trkpt lat="47.61709" lon="-2.82698">
        <ele>13.2</ele>
        <time>2025-01-28T12:10:52Z</time>
      </trkpt>
      <trkpt lat="47.61708" lon="-2.82697">
        <ele>13.3</ele>
        <time>2025-01-28T12:10:53Z</time>
      </trkpt>
      <trkpt lat="47.61708" lon="-2.82695">
        <ele>13.5</ele>
        <time>2025-01-28T12:10:54Z</time>
      </trkpt>
      <trkpt lat="47.61708" lon="-2.82693">
        <ele>13.6</ele>
        <time>2025-01-28T12:10:55Z</time>
      </trkpt>
      <trkpt lat="47.61709" lon="-2.82691">
        <ele>13.7</ele>
        <time>2025-01-28T12:10:56Z</time>
      </trkpt>
      <trkpt lat="47.6171" lon="-2.8269">
        <ele>13.7</ele>
        <time>2025-01-28T12:10:57Z</time>
      </trkpt>
      <trkpt lat="47.61712" lon="-2.82688">
        <ele>13.7</ele>
        <time>2025-01-28T12:10:58Z</time>
      </trkpt>
      <trkpt lat="47.61713" lon="-2.82687">
        <ele>13.8</ele>
        <time>2025-01-28T12:10:59Z</time>
      </trkpt>
      <trkpt lat="47.61714" lon="-2.82686">
        <ele>13.8</ele>
        <time>2025-01-28T12:11:00Z</time>
      </trkpt>
      <trkpt lat="47.61715" lon="-2.82685">
        <ele>13.9</ele>
        <time>2025-01-28T12:11:01Z</time>
      </trkpt>
      <trkpt lat="47.61716" lon="-2.82684">
        <ele>13.9</ele>
        <time>2025-01-28T12:11:02Z</time>
      </trkpt>
      <trkpt lat="47.61717" lon="-2.82683">
        <ele>13.9</ele>
        <time>2025-01-28T12:11:03Z</time>
      </trkpt>
      <trkpt lat="47.61719" lon="-2.82682">
        <ele>14</ele>
        <time>2025-01-28T12:11:04Z</time>
      </trkpt>
      <trkpt lat="47.6172" lon="-2.82681">
        <ele>14</ele>
        <time>2025-01-28T12:11:05Z</time>
      </trkpt>
      <trkpt lat="47.61721" lon="-2.8268">
        <ele>14.1</ele>
        <time>2025-01-28T12:11:06Z</time>
      </trkpt>
      <trkpt lat="47.61722" lon="-2.82678">
        <ele>14.2</ele>
        <time>2025-01-28T12:11:07Z</time>
      </trkpt>
      <trkpt lat="47.61723" lon="-2.82677">
        <ele>14.2</ele>
        <time>2025-01-28T12:11:08Z</time>
      </trkpt>
      <trkpt lat="47.61724" lon="-2.82676">
        <ele>14.3</ele>
        <time>2025-01-28T12:11:09Z</time>
      </trkpt>
      <trkpt lat="47.61725" lon="-2.82675">
        <ele>14.4</ele>
        <time>2025-01-28T12:11:10Z</time>
      </trkpt>
      <trkpt lat="47.61726" lon="-2.82673">
        <ele>14.5</ele>
        <time>2025-01-28T12:11:11Z</time>
      </trkpt>
      <trkpt lat="47.61726" lon="-2.82672">
        <ele>14.5</ele>
        <time>2025-01-28T12:11:12Z</time>
      </trkpt>
      <trkpt lat="47.61728" lon="-2.82672">
        <ele>14.5</ele>
        <time>2025-01-28T12:11:13Z</time>
      </trkpt>
      <trkpt lat="47.61729" lon="-2.82671">
        <ele>14.5</ele>
        <time>2025-01-28T12:11:14Z</time>
      </trkpt>
      <trkpt lat="47.6173" lon="-2.8267">
        <ele>14.5</ele>
        <time>2025-01-28T12:11:15Z</time>
      </trkpt>
      <trkpt lat="47.61731" lon="-2.82669">
        <ele>14.6</ele>
        <time>2025-01-28T12:11:16Z</time>
      </trkpt>
      <trkpt lat="47.61732" lon="-2.82668">
        <ele>14.6</ele>
        <time>2025-01-28T12:11:17Z</time>
      </trkpt>
      <trkpt lat="47.61733" lon="-2.82667">
        <ele>14.6</ele>
        <time>2025-01-28T12:11:18Z</time>
      </trkpt>
      <trkpt lat="47.61734" lon="-2.82666">
        <ele>14.6</ele>
        <time>2025-01-28T12:11:19Z</time>
      </trkpt>
      <trkpt lat="47.61735" lon="-2.82665">
        <ele>14.6</ele>
        <time>2025-01-28T12:11:20Z</time>
      </trkpt>
      <trkpt lat="47.61736" lon="-2.82664">
        <ele>14.6</ele>
        <time>2025-01-28T12:11:21Z</time>
      </trkpt>
      <trkpt lat="47.61737" lon="-2.82664">
        <ele>14.6</ele>
        <time>2025-01-28T12:11:22Z</time>
      </trkpt>
      <trkpt lat="47.61739" lon="-2.82663">
        <ele>14.5</ele>
        <time>2025-01-28T12:11:23Z</time>
      </trkpt>
      <trkpt lat="47.6174" lon="-2.82663">
        <ele>14.5</ele>
        <time>2025-01-28T12:11:24Z</time>
      </trkpt>
      <trkpt lat="47.61741" lon="-2.82663">
        <ele>14.5</ele>
        <time>2025-01-28T12:11:25Z</time>
      </trkpt>
      <trkpt lat="47.61742" lon="-2.82662">
        <ele>14.5</ele>
        <time>2025-01-28T12:11:26Z</time>
      </trkpt>
      <trkpt lat="47.61744" lon="-2.82661">
        <ele>14.5</ele>
        <time>2025-01-28T12:11:27Z</time>
      </trkpt>
      <trkpt lat="47.61745" lon="-2.82661">
        <ele>14.5</ele>
        <time>2025-01-28T12:11:28Z</time>
      </trkpt>
      <trkpt lat="47.61746" lon="-2.82661">
        <ele>14.5</ele>
        <time>2025-01-28T12:11:29Z</time>
      </trkpt>
      <trkpt lat="47.61747" lon="-2.8266">
        <ele>14.6</ele>
        <time>2025-01-28T12:11:30Z</time>
      </trkpt>
      <trkpt lat="47.61748" lon="-2.82659">
        <ele>14.6</ele>
        <time>2025-01-28T12:11:31Z</time>
      </trkpt>
      <trkpt lat="47.61749" lon="-2.82658">
        <ele>14.6</ele>
        <time>2025-01-28T12:11:32Z</time>
      </trkpt>
      <trkpt lat="47.6175" lon="-2.82658">
        <ele>14.6</ele>
        <time>2025-01-28T12:11:33Z</time>
      </trkpt>
      <trkpt lat="47.61752" lon="-2.82658">
        <ele>14.7</ele>
        <time>2025-01-28T12:11:34Z</time>
      </trkpt>
      <trkpt lat="47.61753" lon="-2.82657">
        <ele>14.7</ele>
        <time>2025-01-28T12:11:35Z</time>
      </trkpt>
      <trkpt lat="47.61754" lon="-2.82656">
        <ele>14.8</ele>
        <time>2025-01-28T12:11:36Z</time>
      </trkpt>
      <trkpt lat="47.61754" lon="-2.82655">
        <ele>14.8</ele>
        <time>2025-01-28T12:11:37Z</time>
      </trkpt>
      <trkpt lat="47.61755" lon="-2.82654">
        <ele>14.9</ele>
        <time>2025-01-28T12:11:38Z</time>
      </trkpt>
      <trkpt lat="47.61756" lon="-2.82653">
        <ele>15</ele>
        <time>2025-01-28T12:11:39Z</time>
      </trkpt>
      <trkpt lat="47.61757" lon="-2.82653">
        <ele>15</ele>
        <time>2025-01-28T12:11:40Z</time>
      </trkpt>
      <trkpt lat="47.61759" lon="-2.82652">
        <ele>15</ele>
        <time>2025-01-28T12:11:41Z</time>
      </trkpt>
      <trkpt lat="47.6176" lon="-2.82653">
        <ele>15</ele>
        <time>2025-01-28T12:11:42Z</time>
      </trkpt>
      <trkpt lat="47.61761" lon="-2.82653">
        <ele>15</ele>
        <time>2025-01-28T12:11:43Z</time>
      </trkpt>
      <trkpt lat="47.61762" lon="-2.82654">
        <ele>14.9</ele>
        <time>2025-01-28T12:11:44Z</time>
      </trkpt>
      <trkpt lat="47.61763" lon="-2.82654">
        <ele>14.9</ele>
        <time>2025-01-28T12:11:45Z</time>
      </trkpt>
      <trkpt lat="47.61764" lon="-2.82654">
        <ele>14.9</ele>
        <time>2025-01-28T12:11:46Z</time>
      </trkpt>
      <trkpt lat="47.61765" lon="-2.82654">
        <ele>14.9</ele>
        <time>2025-01-28T12:11:47Z</time>
      </trkpt>
      <trkpt lat="47.61766" lon="-2.82653">
        <ele>15</ele>
        <time>2025-01-28T12:11:48Z</time>
      </trkpt>
      <trkpt lat="47.61768" lon="-2.82653">
        <ele>15</ele>
        <time>2025-01-28T12:11:49Z</time>
      </trkpt>
      <trkpt lat="47.61769" lon="-2.82653">
        <ele>15</ele>
        <time>2025-01-28T12:11:50Z</time>
      </trkpt>
      <trkpt lat="47.61771" lon="-2.82653">
        <ele>15</ele>
        <time>2025-01-28T12:11:51Z</time>
      </trkpt>
      <trkpt lat="47.61772" lon="-2.82653">
        <ele>15</ele>
        <time>2025-01-28T12:11:52Z</time>
      </trkpt>
      <trkpt lat="47.61773" lon="-2.82653">
        <ele>15</ele>
        <time>2025-01-28T12:11:53Z</time>
      </trkpt>
      <trkpt lat="47.61774" lon="-2.82654">
        <ele>14.9</ele>
        <time>2025-01-28T12:11:54Z</time>
      </trkpt>
      <trkpt lat="47.61775" lon="-2.82654">
        <ele>14.9</ele>
        <time>2025-01-28T12:11:55Z</time>
      </trkpt>
      <trkpt lat="47.61776" lon="-2.82654">
        <ele>14.9</ele>
        <time>2025-01-28T12:11:56Z</time>
      </trkpt>
      <trkpt lat="47.61778" lon="-2.82654">
        <ele>14.9</ele>
        <time>2025-01-28T12:11:57Z</time>
      </trkpt>
      <trkpt lat="47.61779" lon="-2.82653">
        <ele>14.9</ele>
        <time>2025-01-28T12:11:58Z</time>
      </trkpt>
      <trkpt lat="47.6178" lon="-2.82653">
        <ele>15</ele>
        <time>2025-01-28T12:11:59Z</time>
      </trkpt>
      <trkpt lat="47.61781" lon="-2.82652">
        <ele>15</ele>
        <time>2025-01-28T12:12:00Z</time>
      </trkpt>
      <trkpt lat="47.61782" lon="-2.82651">
        <ele>15</ele>
        <time>2025-01-28T12:12:01Z</time>
      </trkpt>
      <trkpt lat="47.61784" lon="-2.82652">
        <ele>15</ele>
        <time>2025-01-28T12:12:02Z</time>
      </trkpt>
      <trkpt lat="47.61785" lon="-2.82652">
        <ele>15</ele>
        <time>2025-01-28T12:12:03Z</time>
      </trkpt>
      <trkpt lat="47.61786" lon="-2.82652">
        <ele>15</ele>
        <time>2025-01-28T12:12:04Z</time>
      </trkpt>
      <trkpt lat="47.61787" lon="-2.82651">
        <ele>15</ele>
        <time>2025-01-28T12:12:05Z</time>
      </trkpt>
      <trkpt lat="47.61788" lon="-2.82651">
        <ele>15</ele>
        <time>2025-01-28T12:12:06Z</time>
      </trkpt>
      <trkpt lat="47.6179" lon="-2.8265">
        <ele>15</ele>
        <time>2025-01-28T12:12:07Z</time>
      </trkpt>
      <trkpt lat="47.61791" lon="-2.8265">
        <ele>15</ele>
        <time>2025-01-28T12:12:08Z</time>
      </trkpt>
      <trkpt lat="47.61792" lon="-2.8265">
        <ele>15</ele>
        <time>2025-01-28T12:12:09Z</time>
      </trkpt>
      <trkpt lat="47.61793" lon="-2.82649">
        <ele>15</ele>
        <time>2025-01-28T12:12:10Z</time>
      </trkpt>
      <trkpt lat="47.61794" lon="-2.8265">
        <ele>15</ele>
        <time>2025-01-28T12:12:11Z</time>
      </trkpt>
      <trkpt lat="47.61795" lon="-2.82649">
        <ele>15.1</ele>
        <time>2025-01-28T12:12:12Z</time>
      </trkpt>
      <trkpt lat="47.61796" lon="-2.82648">
        <ele>15.1</ele>
        <time>2025-01-28T12:12:13Z</time>
      </trkpt>
      <trkpt lat="47.61797" lon="-2.82647">
        <ele>15.2</ele>
        <time>2025-01-28T12:12:14Z</time>
      </trkpt>
      <trkpt lat="47.61799" lon="-2.82647">
        <ele>15.2</ele>
        <time>2025-01-28T12:12:15Z</time>
      </trkpt>
      <trkpt lat="47.618" lon="-2.82646">
        <ele>15.3</ele>
        <time>2025-01-28T12:12:16Z</time>
      </trkpt>
      <trkpt lat="47.61801" lon="-2.82645">
        <ele>15.4</ele>
        <time>2025-01-28T12:12:17Z</time>
      </trkpt>
      <trkpt lat="47.61802" lon="-2.82644">
        <ele>15.5</ele>
        <time>2025-01-28T12:12:18Z</time>
      </trkpt>
      <trkpt lat="47.61804" lon="-2.82643">
        <ele>15.6</ele>
        <time>2025-01-28T12:12:19Z</time>
      </trkpt>
      <trkpt lat="47.61805" lon="-2.82642">
        <ele>15.6</ele>
        <time>2025-01-28T12:12:20Z</time>
      </trkpt>
      <trkpt lat="47.61806" lon="-2.82642">
        <ele>15.7</ele>
        <time>2025-01-28T12:12:21Z</time>
      </trkpt>
      <trkpt lat="47.61807" lon="-2.82641">
        <ele>15.7</ele>
        <time>2025-01-28T12:12:22Z</time>
      </trkpt>
      <trkpt lat="47.61808" lon="-2.8264">
        <ele>15.7</ele>
        <time>2025-01-28T12:12:23Z</time>
      </trkpt>
      <trkpt lat="47.61809" lon="-2.8264">
        <ele>15.6</ele>
        <time>2025-01-28T12:12:24Z</time>
      </trkpt>
      <trkpt lat="47.61811" lon="-2.8264">
        <ele>15.5</ele>
        <time>2025-01-28T12:12:25Z</time>
      </trkpt>
      <trkpt lat="47.61812" lon="-2.8264">
        <ele>15.5</ele>
        <time>2025-01-28T12:12:26Z</time>
      </trkpt>
      <trkpt lat="47.61813" lon="-2.82639">
        <ele>15.5</ele>
        <time>2025-01-28T12:12:27Z</time>
      </trkpt>
      <trkpt lat="47.61813" lon="-2.82638">
        <ele>15.5</ele>
        <time>2025-01-28T12:12:28Z</time>
      </trkpt>
      <trkpt lat="47.61815" lon="-2.82638">
        <ele>15.4</ele>
        <time>2025-01-28T12:12:29Z</time>
      </trkpt>
      <trkpt lat="47.61816" lon="-2.82638">
        <ele>15.3</ele>
        <time>2025-01-28T12:12:30Z</time>
      </trkpt>
      <trkpt lat="47.61817" lon="-2.82637">
        <ele>15.3</ele>
        <time>2025-01-28T12:12:31Z</time>
      </trkpt>
      <trkpt lat="47.61818" lon="-2.82636">
        <ele>15.3</ele>
        <time>2025-01-28T12:12:32Z</time>
      </trkpt>
      <trkpt lat="47.61819" lon="-2.82635">
        <ele>15.3</ele>
        <time>2025-01-28T12:12:33Z</time>
      </trkpt>
      <trkpt lat="47.6182" lon="-2.82635">
        <ele>15.2</ele>
        <time>2025-01-28T12:12:34Z</time>
      </trkpt>
      <trkpt lat="47.61821" lon="-2.82634">
        <ele>15.2</ele>
        <time>2025-01-28T12:12:35Z</time>
      </trkpt>
      <trkpt lat="47.61822" lon="-2.82633">
        <ele>15.2</ele>
        <time>2025-01-28T12:12:36Z</time>
      </trkpt>
      <trkpt lat="47.61823" lon="-2.82632">
        <ele>15.1</ele>
        <time>2025-01-28T12:12:37Z</time>
      </trkpt>
      <trkpt lat="47.61825" lon="-2.82632">
        <ele>15.1</ele>
        <time>2025-01-28T12:12:38Z</time>
      </trkpt>
      <trkpt lat="47.61826" lon="-2.82631">
        <ele>15</ele>
        <time>2025-01-28T12:12:39Z</time>
      </trkpt>
      <trkpt lat="47.61827" lon="-2.8263">
        <ele>15</ele>
        <time>2025-01-28T12:12:40Z</time>
      </trkpt>
      <trkpt lat="47.61828" lon="-2.82629">
        <ele>15</ele>
        <time>2025-01-28T12:12:41Z</time>
      </trkpt>
      <trkpt lat="47.61829" lon="-2.82628">
        <ele>15</ele>
        <time>2025-01-28T12:12:42Z</time>
      </trkpt>
      <trkpt lat="47.6183" lon="-2.82627">
        <ele>15</ele>
        <time>2025-01-28T12:12:43Z</time>
      </trkpt>
      <trkpt lat="47.61831" lon="-2.82626">
        <ele>15</ele>
        <time>2025-01-28T12:12:44Z</time>
      </trkpt>
      <trkpt lat="47.61833" lon="-2.82626">
        <ele>15</ele>
        <time>2025-01-28T12:12:45Z</time>
      </trkpt>
      <trkpt lat="47.61834" lon="-2.82626">
        <ele>14.9</ele>
        <time>2025-01-28T12:12:46Z</time>
      </trkpt>
      <trkpt lat="47.61835" lon="-2.82625">
        <ele>14.7</ele>
        <time>2025-01-28T12:12:47Z</time>
      </trkpt>
      <trkpt lat="47.61837" lon="-2.82625">
        <ele>14.6</ele>
        <time>2025-01-28T12:12:48Z</time>
      </trkpt>
      <trkpt lat="47.61838" lon="-2.82625">
        <ele>14.5</ele>
        <time>2025-01-28T12:12:49Z</time>
      </trkpt>
      <trkpt lat="47.61839" lon="-2.82624">
        <ele>14.3</ele>
        <time>2025-01-28T12:12:50Z</time>
      </trkpt>
      <trkpt lat="47.6184" lon="-2.82624">
        <ele>14.2</ele>
        <time>2025-01-28T12:12:51Z</time>
      </trkpt>
      <trkpt lat="47.61842" lon="-2.82623">
        <ele>14.1</ele>
        <time>2025-01-28T12:12:52Z</time>
      </trkpt>
      <trkpt lat="47.61843" lon="-2.82622">
        <ele>14</ele>
        <time>2025-01-28T12:12:53Z</time>
      </trkpt>
      <trkpt lat="47.61844" lon="-2.82622">
        <ele>14</ele>
        <time>2025-01-28T12:12:54Z</time>
      </trkpt>
      <trkpt lat="47.61845" lon="-2.8262">
        <ele>13.9</ele>
        <time>2025-01-28T12:12:55Z</time>
      </trkpt>
      <trkpt lat="47.61846" lon="-2.8262">
        <ele>13.9</ele>
        <time>2025-01-28T12:12:56Z</time>
      </trkpt>
      <trkpt lat="47.61847" lon="-2.82619">
        <ele>13.8</ele>
        <time>2025-01-28T12:12:57Z</time>
      </trkpt>
      <trkpt lat="47.61849" lon="-2.82619">
        <ele>13.7</ele>
        <time>2025-01-28T12:12:58Z</time>
      </trkpt>
      <trkpt lat="47.6185" lon="-2.82618">
        <ele>13.6</ele>
        <time>2025-01-28T12:12:59Z</time>
      </trkpt>
      <trkpt lat="47.61851" lon="-2.82618">
        <ele>13.4</ele>
        <time>2025-01-28T12:13:00Z</time>
      </trkpt>
      <trkpt lat="47.61852" lon="-2.82618">
        <ele>13.3</ele>
        <time>2025-01-28T12:13:01Z</time>
      </trkpt>
      <trkpt lat="47.61854" lon="-2.82618">
        <ele>13.1</ele>
        <time>2025-01-28T12:13:02Z</time>
      </trkpt>
      <trkpt lat="47.61855" lon="-2.82618">
        <ele>13</ele>
        <time>2025-01-28T12:13:03Z</time>
      </trkpt>
      <trkpt lat="47.61856" lon="-2.82618">
        <ele>12.8</ele>
        <time>2025-01-28T12:13:04Z</time>
      </trkpt>
      <trkpt lat="47.61857" lon="-2.82617">
        <ele>12.8</ele>
        <time>2025-01-28T12:13:05Z</time>
      </trkpt>
      <trkpt lat="47.61858" lon="-2.82616">
        <ele>12.7</ele>
        <time>2025-01-28T12:13:06Z</time>
      </trkpt>
      <trkpt lat="47.6186" lon="-2.82616">
        <ele>12.7</ele>
        <time>2025-01-28T12:13:07Z</time>
      </trkpt>
      <trkpt lat="47.6186" lon="-2.82615">
        <ele>12.7</ele>
        <time>2025-01-28T12:13:08Z</time>
      </trkpt>
      <trkpt lat="47.61861" lon="-2.82614">
        <ele>12.7</ele>
        <time>2025-01-28T12:13:09Z</time>
      </trkpt>
      <trkpt lat="47.61862" lon="-2.82613">
        <ele>12.7</ele>
        <time>2025-01-28T12:13:10Z</time>
      </trkpt>
      <trkpt lat="47.61862" lon="-2.82612">
        <ele>12.7</ele>
        <time>2025-01-28T12:13:11Z</time>
      </trkpt>
      <trkpt lat="47.61863" lon="-2.82611">
        <ele>12.6</ele>
        <time>2025-01-28T12:13:12Z</time>
      </trkpt>
      <trkpt lat="47.61863" lon="-2.8261">
        <ele>12.5</ele>
        <time>2025-01-28T12:13:13Z</time>
      </trkpt>
      <trkpt lat="47.61864" lon="-2.82609">
        <ele>12.3</ele>
        <time>2025-01-28T12:13:14Z</time>
      </trkpt>
      <trkpt lat="47.61864" lon="-2.82609">
        <ele>12.4</ele>
        <time>2025-01-28T12:13:15Z</time>
      </trkpt>
      <trkpt lat="47.61864" lon="-2.82608">
        <ele>12.3</ele>
        <time>2025-01-28T12:13:16Z</time>
      </trkpt>
      <trkpt lat="47.61865" lon="-2.82607">
        <ele>12.3</ele>
        <time>2025-01-28T12:13:17Z</time>
      </trkpt>
      <trkpt lat="47.61865" lon="-2.82607">
        <ele>12.2</ele>
        <time>2025-01-28T12:13:18Z</time>
      </trkpt>
      <trkpt lat="47.61866" lon="-2.82606">
        <ele>12.1</ele>
        <time>2025-01-28T12:13:19Z</time>
      </trkpt>
      <trkpt lat="47.61866" lon="-2.82604">
        <ele>12</ele>
        <time>2025-01-28T12:13:20Z</time>
      </trkpt>
      <trkpt lat="47.61867" lon="-2.82603">
        <ele>11.8</ele>
        <time>2025-01-28T12:13:21Z</time>
      </trkpt>
      <trkpt lat="47.61867" lon="-2.82601">
        <ele>11.8</ele>
        <time>2025-01-28T12:13:22Z</time>
      </trkpt>
      <trkpt lat="47.61868" lon="-2.826">
        <ele>11.8</ele>
        <time>2025-01-28T12:13:23Z</time>
      </trkpt>
      <trkpt lat="47.61868" lon="-2.82598">
        <ele>11.8</ele>
        <time>2025-01-28T12:13:24Z</time>
      </trkpt>
      <trkpt lat="47.61867" lon="-2.82596">
        <ele>11.9</ele>
        <time>2025-01-28T12:13:25Z</time>
      </trkpt>
      <trkpt lat="47.61867" lon="-2.82595">
        <ele>11.9</ele>
        <time>2025-01-28T12:13:26Z</time>
      </trkpt>
      <trkpt lat="47.61868" lon="-2.82593">
        <ele>11.8</ele>
        <time>2025-01-28T12:13:27Z</time>
      </trkpt>
      <trkpt lat="47.61868" lon="-2.82591">
        <ele>11.8</ele>
        <time>2025-01-28T12:13:28Z</time>
      </trkpt>
      <trkpt lat="47.61868" lon="-2.82589">
        <ele>11.8</ele>
        <time>2025-01-28T12:13:29Z</time>
      </trkpt>
      <trkpt lat="47.61869" lon="-2.82588">
        <ele>11.8</ele>
        <time>2025-01-28T12:13:30Z</time>
      </trkpt>
      <trkpt lat="47.61869" lon="-2.82587">
        <ele>11.8</ele>
        <time>2025-01-28T12:13:31Z</time>
      </trkpt>
      <trkpt lat="47.6187" lon="-2.82585">
        <ele>11.7</ele>
        <time>2025-01-28T12:13:32Z</time>
      </trkpt>
      <trkpt lat="47.61869" lon="-2.82586">
        <ele>11.8</ele>
        <time>2025-01-28T12:13:33Z</time>
      </trkpt>
      <trkpt lat="47.61869" lon="-2.82587">
        <ele>11.8</ele>
        <time>2025-01-28T12:13:34Z</time>
      </trkpt>
      <trkpt lat="47.61869" lon="-2.82587">
        <ele>11.8</ele>
        <time>2025-01-28T12:13:35Z</time>
      </trkpt>
      <trkpt lat="47.61869" lon="-2.82587">
        <ele>11.8</ele>
        <time>2025-01-28T12:13:36Z</time>
      </trkpt>
      <trkpt lat="47.61869" lon="-2.82587">
        <ele>11.8</ele>
        <time>2025-01-28T12:13:37Z</time>
      </trkpt>
      <trkpt lat="47.61869" lon="-2.82587">
        <ele>11.8</ele>
        <time>2025-01-28T12:13:38Z</time>
      </trkpt>
      <trkpt lat="47.61869" lon="-2.82587">
        <ele>11.8</ele>
        <time>2025-01-28T12:13:39Z</time>
      </trkpt>
      <trkpt lat="47.61869" lon="-2.82587">
        <ele>11.8</ele>
        <time>2025-01-28T12:13:40Z</time>
      </trkpt>
      <trkpt lat="47.61869" lon="-2.82587">
        <ele>11.8</ele>
        <time>2025-01-28T12:13:41Z</time>
      </trkpt>
      <trkpt lat="47.61869" lon="-2.82587">
        <ele>11.8</ele>
        <time>2025-01-28T12:13:42Z</time>
      </trkpt>
      <trkpt lat="47.61869" lon="-2.82587">
        <ele>11.8</ele>
        <time>2025-01-28T12:13:43Z</time>
      </trkpt>
      <trkpt lat="47.61869" lon="-2.82587">
        <ele>11.8</ele>
        <time>2025-01-28T12:13:44Z</time>
      </trkpt>
      <trkpt lat="47.61869" lon="-2.82587">
        <ele>11.7</ele>
        <time>2025-01-28T12:13:45Z</time>
      </trkpt>
      <trkpt lat="47.6187" lon="-2.82587">
        <ele>11.6</ele>
        <time>2025-01-28T12:13:46Z</time>
      </trkpt>
      <trkpt lat="47.61871" lon="-2.82585">
        <ele>11.6</ele>
        <time>2025-01-28T12:13:47Z</time>
      </trkpt>
      <trkpt lat="47.61871" lon="-2.82583">
        <ele>11.5</ele>
        <time>2025-01-28T12:13:48Z</time>
      </trkpt>
      <trkpt lat="47.61871" lon="-2.82581">
        <ele>11.6</ele>
        <time>2025-01-28T12:13:49Z</time>
      </trkpt>
      <trkpt lat="47.61871" lon="-2.8258">
        <ele>11.6</ele>
        <time>2025-01-28T12:13:50Z</time>
      </trkpt>
      <trkpt lat="47.6187" lon="-2.82579">
        <ele>11.6</ele>
        <time>2025-01-28T12:13:51Z</time>
      </trkpt>
      <trkpt lat="47.6187" lon="-2.82578">
        <ele>11.5</ele>
        <time>2025-01-28T12:13:52Z</time>
      </trkpt>
      <trkpt lat="47.61871" lon="-2.82576">
        <ele>11.5</ele>
        <time>2025-01-28T12:13:53Z</time>
      </trkpt>
      <trkpt lat="47.61871" lon="-2.82575">
        <ele>11.4</ele>
        <time>2025-01-28T12:13:54Z</time>
      </trkpt>
      <trkpt lat="47.61871" lon="-2.82575">
        <ele>11.4</ele>
        <time>2025-01-28T12:13:55Z</time>
      </trkpt>
      <trkpt lat="47.61872" lon="-2.82575">
        <ele>11.2</ele>
        <time>2025-01-28T12:13:56Z</time>
      </trkpt>
      <trkpt lat="47.61873" lon="-2.82574">
        <ele>11.1</ele>
        <time>2025-01-28T12:13:57Z</time>
      </trkpt>
      <trkpt lat="47.61874" lon="-2.82573">
        <ele>11</ele>
        <time>2025-01-28T12:13:58Z</time>
      </trkpt>
      <trkpt lat="47.61874" lon="-2.82571">
        <ele>10.9</ele>
        <time>2025-01-28T12:13:59Z</time>
      </trkpt>
      <trkpt lat="47.61874" lon="-2.82569">
        <ele>10.9</ele>
        <time>2025-01-28T12:14:00Z</time>
      </trkpt>
      <trkpt lat="47.61874" lon="-2.82566">
        <ele>10.8</ele>
        <time>2025-01-28T12:14:01Z</time>
      </trkpt>
      <trkpt lat="47.61875" lon="-2.82564">
        <ele>10.7</ele>
        <time>2025-01-28T12:14:02Z</time>
      </trkpt>
      <trkpt lat="47.61875" lon="-2.82562">
        <ele>10.6</ele>
        <time>2025-01-28T12:14:03Z</time>
      </trkpt>
      <trkpt lat="47.61876" lon="-2.82561">
        <ele>10.5</ele>
        <time>2025-01-28T12:14:04Z</time>
      </trkpt>
      <trkpt lat="47.61876" lon="-2.82559">
        <ele>10.4</ele>
        <time>2025-01-28T12:14:05Z</time>
      </trkpt>
      <trkpt lat="47.61877" lon="-2.82557">
        <ele>10.4</ele>
        <time>2025-01-28T12:14:06Z</time>
      </trkpt>
      <trkpt lat="47.61876" lon="-2.82555">
        <ele>10.4</ele>
        <time>2025-01-28T12:14:07Z</time>
      </trkpt>
      <trkpt lat="47.61876" lon="-2.82553">
        <ele>10.4</ele>
        <time>2025-01-28T12:14:08Z</time>
      </trkpt>
      <trkpt lat="47.61877" lon="-2.82551">
        <ele>10.2</ele>
        <time>2025-01-28T12:14:09Z</time>
      </trkpt>
      <trkpt lat="47.61879" lon="-2.82549">
        <ele>10.1</ele>
        <time>2025-01-28T12:14:10Z</time>
      </trkpt>
      <trkpt lat="47.61881" lon="-2.82547">
        <ele>9.9</ele>
        <time>2025-01-28T12:14:11Z</time>
      </trkpt>
      <trkpt lat="47.61882" lon="-2.82545">
        <ele>9.8</ele>
        <time>2025-01-28T12:14:12Z</time>
      </trkpt>
      <trkpt lat="47.61883" lon="-2.82544">
        <ele>9.6</ele>
        <time>2025-01-28T12:14:13Z</time>
      </trkpt>
      <trkpt lat="47.61884" lon="-2.82541">
        <ele>9.6</ele>
        <time>2025-01-28T12:14:14Z</time>
      </trkpt>
      <trkpt lat="47.61885" lon="-2.82539">
        <ele>9.5</ele>
        <time>2025-01-28T12:14:15Z</time>
      </trkpt>
      <trkpt lat="47.61885" lon="-2.82538">
        <ele>9.5</ele>
        <time>2025-01-28T12:14:16Z</time>
      </trkpt>
      <trkpt lat="47.61885" lon="-2.82537">
        <ele>9.4</ele>
        <time>2025-01-28T12:14:17Z</time>
      </trkpt>
      <trkpt lat="47.61886" lon="-2.82536">
        <ele>9.4</ele>
        <time>2025-01-28T12:14:18Z</time>
      </trkpt>
      <trkpt lat="47.61886" lon="-2.82534">
        <ele>9.3</ele>
        <time>2025-01-28T12:14:19Z</time>
      </trkpt>
      <trkpt lat="47.61888" lon="-2.82534">
        <ele>9.1</ele>
        <time>2025-01-28T12:14:20Z</time>
      </trkpt>
      <trkpt lat="47.61889" lon="-2.82535">
        <ele>9</ele>
        <time>2025-01-28T12:14:21Z</time>
      </trkpt>
      <trkpt lat="47.61891" lon="-2.82536">
        <ele>8.9</ele>
        <time>2025-01-28T12:14:22Z</time>
      </trkpt>
      <trkpt lat="47.61892" lon="-2.82535">
        <ele>8.9</ele>
        <time>2025-01-28T12:14:23Z</time>
      </trkpt>
      <trkpt lat="47.61893" lon="-2.82535">
        <ele>8.8</ele>
        <time>2025-01-28T12:14:24Z</time>
      </trkpt>
      <trkpt lat="47.61894" lon="-2.82535">
        <ele>8.8</ele>
        <time>2025-01-28T12:14:25Z</time>
      </trkpt>
      <trkpt lat="47.61895" lon="-2.82536">
        <ele>8.7</ele>
        <time>2025-01-28T12:14:26Z</time>
      </trkpt>
      <trkpt lat="47.61896" lon="-2.82537">
        <ele>8.7</ele>
        <time>2025-01-28T12:14:27Z</time>
      </trkpt>
      <trkpt lat="47.61896" lon="-2.82539">
        <ele>8.6</ele>
        <time>2025-01-28T12:14:28Z</time>
      </trkpt>
      <trkpt lat="47.61896" lon="-2.82541">
        <ele>8.6</ele>
        <time>2025-01-28T12:14:29Z</time>
      </trkpt>
      <trkpt lat="47.61896" lon="-2.82543">
        <ele>8.6</ele>
        <time>2025-01-28T12:14:30Z</time>
      </trkpt>
      <trkpt lat="47.61896" lon="-2.82545">
        <ele>8.6</ele>
        <time>2025-01-28T12:14:31Z</time>
      </trkpt>
      <trkpt lat="47.61896" lon="-2.82547">
        <ele>8.6</ele>
        <time>2025-01-28T12:14:32Z</time>
      </trkpt>
      <trkpt lat="47.61896" lon="-2.82549">
        <ele>8.6</ele>
        <time>2025-01-28T12:14:33Z</time>
      </trkpt>
      <trkpt lat="47.61896" lon="-2.82551">
        <ele>8.5</ele>
        <time>2025-01-28T12:14:34Z</time>
      </trkpt>
      <trkpt lat="47.61896" lon="-2.82553">
        <ele>8.5</ele>
        <time>2025-01-28T12:14:35Z</time>
      </trkpt>
      <trkpt lat="47.61896" lon="-2.82555">
        <ele>8.5</ele>
        <time>2025-01-28T12:14:36Z</time>
      </trkpt>
      <trkpt lat="47.61896" lon="-2.82557">
        <ele>8.5</ele>
        <time>2025-01-28T12:14:37Z</time>
      </trkpt>
      <trkpt lat="47.61895" lon="-2.82558">
        <ele>8.5</ele>
        <time>2025-01-28T12:14:38Z</time>
      </trkpt>
      <trkpt lat="47.61895" lon="-2.8256">
        <ele>8.5</ele>
        <time>2025-01-28T12:14:39Z</time>
      </trkpt>
      <trkpt lat="47.61895" lon="-2.82562">
        <ele>8.5</ele>
        <time>2025-01-28T12:14:40Z</time>
      </trkpt>
      <trkpt lat="47.61894" lon="-2.82564">
        <ele>8.5</ele>
        <time>2025-01-28T12:14:41Z</time>
      </trkpt>
      <trkpt lat="47.61894" lon="-2.82565">
        <ele>8.6</ele>
        <time>2025-01-28T12:14:42Z</time>
      </trkpt>
      <trkpt lat="47.61894" lon="-2.82567">
        <ele>8.6</ele>
        <time>2025-01-28T12:14:43Z</time>
      </trkpt>
      <trkpt lat="47.61894" lon="-2.82569">
        <ele>8.6</ele>
        <time>2025-01-28T12:14:44Z</time>
      </trkpt>
      <trkpt lat="47.61893" lon="-2.82571">
        <ele>8.6</ele>
        <time>2025-01-28T12:14:45Z</time>
      </trkpt>
      <trkpt lat="47.61893" lon="-2.82572">
        <ele>8.6</ele>
        <time>2025-01-28T12:14:46Z</time>
      </trkpt>
      <trkpt lat="47.61893" lon="-2.82574">
        <ele>8.6</ele>
        <time>2025-01-28T12:14:47Z</time>
      </trkpt>
      <trkpt lat="47.61893" lon="-2.82576">
        <ele>8.6</ele>
        <time>2025-01-28T12:14:48Z</time>
      </trkpt>
      <trkpt lat="47.61892" lon="-2.82578">
        <ele>8.7</ele>
        <time>2025-01-28T12:14:49Z</time>
      </trkpt>
      <trkpt lat="47.61892" lon="-2.8258">
        <ele>8.7</ele>
        <time>2025-01-28T12:14:50Z</time>
      </trkpt>
      <trkpt lat="47.61892" lon="-2.82582">
        <ele>8.7</ele>
        <time>2025-01-28T12:14:51Z</time>
      </trkpt>
      <trkpt lat="47.61891" lon="-2.82584">
        <ele>8.8</ele>
        <time>2025-01-28T12:14:52Z</time>
      </trkpt>
      <trkpt lat="47.61891" lon="-2.82586">
        <ele>8.7</ele>
        <time>2025-01-28T12:14:53Z</time>
      </trkpt>
      <trkpt lat="47.6189" lon="-2.82587">
        <ele>8.6</ele>
        <time>2025-01-28T12:14:54Z</time>
      </trkpt>
      <trkpt lat="47.6189" lon="-2.82589">
        <ele>8.5</ele>
        <time>2025-01-28T12:14:55Z</time>
      </trkpt>
      <trkpt lat="47.61889" lon="-2.8259">
        <ele>8.5</ele>
        <time>2025-01-28T12:14:56Z</time>
      </trkpt>
      <trkpt lat="47.61889" lon="-2.82592">
        <ele>8.4</ele>
        <time>2025-01-28T12:14:57Z</time>
      </trkpt>
      <trkpt lat="47.61889" lon="-2.82593">
        <ele>8.4</ele>
        <time>2025-01-28T12:14:58Z</time>
      </trkpt>
      <trkpt lat="47.61888" lon="-2.82595">
        <ele>8.3</ele>
        <time>2025-01-28T12:14:59Z</time>
      </trkpt>
      <trkpt lat="47.61888" lon="-2.82596">
        <ele>8.2</ele>
        <time>2025-01-28T12:15:00Z</time>
      </trkpt>
      <trkpt lat="47.61888" lon="-2.82598">
        <ele>8.1</ele>
        <time>2025-01-28T12:15:01Z</time>
      </trkpt>
      <trkpt lat="47.61888" lon="-2.826">
        <ele>8</ele>
        <time>2025-01-28T12:15:02Z</time>
      </trkpt>
      <trkpt lat="47.61888" lon="-2.82602">
        <ele>7.9</ele>
        <time>2025-01-28T12:15:03Z</time>
      </trkpt>
      <trkpt lat="47.61887" lon="-2.82603">
        <ele>7.9</ele>
        <time>2025-01-28T12:15:04Z</time>
      </trkpt>
      <trkpt lat="47.61887" lon="-2.82605">
        <ele>7.9</ele>
        <time>2025-01-28T12:15:05Z</time>
      </trkpt>
      <trkpt lat="47.61886" lon="-2.82607">
        <ele>7.9</ele>
        <time>2025-01-28T12:15:06Z</time>
      </trkpt>
      <trkpt lat="47.61886" lon="-2.82609">
        <ele>7.8</ele>
        <time>2025-01-28T12:15:07Z</time>
      </trkpt>
      <trkpt lat="47.61885" lon="-2.82611">
        <ele>7.9</ele>
        <time>2025-01-28T12:15:08Z</time>
      </trkpt>
      <trkpt lat="47.61884" lon="-2.82612">
        <ele>7.9</ele>
        <time>2025-01-28T12:15:09Z</time>
      </trkpt>
      <trkpt lat="47.61884" lon="-2.82614">
        <ele>7.9</ele>
        <time>2025-01-28T12:15:10Z</time>
      </trkpt>
      <trkpt lat="47.61883" lon="-2.82616">
        <ele>7.9</ele>
        <time>2025-01-28T12:15:11Z</time>
      </trkpt>
      <trkpt lat="47.61883" lon="-2.82618">
        <ele>7.8</ele>
        <time>2025-01-28T12:15:12Z</time>
      </trkpt>
      <trkpt lat="47.61882" lon="-2.8262">
        <ele>7.8</ele>
        <time>2025-01-28T12:15:13Z</time>
      </trkpt>
      <trkpt lat="47.61882" lon="-2.82621">
        <ele>7.7</ele>
        <time>2025-01-28T12:15:14Z</time>
      </trkpt>
      <trkpt lat="47.61882" lon="-2.82623">
        <ele>7.6</ele>
        <time>2025-01-28T12:15:15Z</time>
      </trkpt>
      <trkpt lat="47.61881" lon="-2.82625">
        <ele>7.6</ele>
        <time>2025-01-28T12:15:16Z</time>
      </trkpt>
      <trkpt lat="47.61881" lon="-2.82627">
        <ele>7.5</ele>
        <time>2025-01-28T12:15:17Z</time>
      </trkpt>
      <trkpt lat="47.6188" lon="-2.82628">
        <ele>7.5</ele>
        <time>2025-01-28T12:15:18Z</time>
      </trkpt>
      <trkpt lat="47.61879" lon="-2.8263">
        <ele>7.5</ele>
        <time>2025-01-28T12:15:19Z</time>
      </trkpt>
      <trkpt lat="47.61879" lon="-2.82631">
        <ele>7.5</ele>
        <time>2025-01-28T12:15:20Z</time>
      </trkpt>
      <trkpt lat="47.61878" lon="-2.82632">
        <ele>7.5</ele>
        <time>2025-01-28T12:15:21Z</time>
      </trkpt>
      <trkpt lat="47.61878" lon="-2.82634">
        <ele>7.4</ele>
        <time>2025-01-28T12:15:22Z</time>
      </trkpt>
      <trkpt lat="47.61877" lon="-2.82636">
        <ele>7.4</ele>
        <time>2025-01-28T12:15:23Z</time>
      </trkpt>
      <trkpt lat="47.61876" lon="-2.82637">
        <ele>7.4</ele>
        <time>2025-01-28T12:15:24Z</time>
      </trkpt>
      <trkpt lat="47.61876" lon="-2.82639">
        <ele>7.4</ele>
        <time>2025-01-28T12:15:25Z</time>
      </trkpt>
      <trkpt lat="47.61875" lon="-2.82641">
        <ele>7.3</ele>
        <time>2025-01-28T12:15:26Z</time>
      </trkpt>
      <trkpt lat="47.61875" lon="-2.82643">
        <ele>7.2</ele>
        <time>2025-01-28T12:15:27Z</time>
      </trkpt>
      <trkpt lat="47.61874" lon="-2.82644">
        <ele>7.1</ele>
        <time>2025-01-28T12:15:28Z</time>
      </trkpt>
      <trkpt lat="47.61874" lon="-2.82646">
        <ele>7.1</ele>
        <time>2025-01-28T12:15:29Z</time>
      </trkpt>
      <trkpt lat="47.61873" lon="-2.82647">
        <ele>7</ele>
        <time>2025-01-28T12:15:30Z</time>
      </trkpt>
      <trkpt lat="47.61872" lon="-2.82649">
        <ele>6.9</ele>
        <time>2025-01-28T12:15:31Z</time>
      </trkpt>
      <trkpt lat="47.61871" lon="-2.8265">
        <ele>6.9</ele>
        <time>2025-01-28T12:15:32Z</time>
      </trkpt>
      <trkpt lat="47.6187" lon="-2.82652">
        <ele>6.8</ele>
        <time>2025-01-28T12:15:33Z</time>
      </trkpt>
      <trkpt lat="47.61869" lon="-2.82654">
        <ele>6.7</ele>
        <time>2025-01-28T12:15:34Z</time>
      </trkpt>
      <trkpt lat="47.61869" lon="-2.82655">
        <ele>6.5</ele>
        <time>2025-01-28T12:15:35Z</time>
      </trkpt>
      <trkpt lat="47.61868" lon="-2.82657">
        <ele>6.3</ele>
        <time>2025-01-28T12:15:36Z</time>
      </trkpt>
      <trkpt lat="47.61868" lon="-2.82659">
        <ele>6.1</ele>
        <time>2025-01-28T12:15:37Z</time>
      </trkpt>
      <trkpt lat="47.61867" lon="-2.8266">
        <ele>6</ele>
        <time>2025-01-28T12:15:38Z</time>
      </trkpt>
      <trkpt lat="47.61866" lon="-2.82661">
        <ele>5.8</ele>
        <time>2025-01-28T12:15:39Z</time>
      </trkpt>
      <trkpt lat="47.61865" lon="-2.82662">
        <ele>5.7</ele>
        <time>2025-01-28T12:15:40Z</time>
      </trkpt>
      <trkpt lat="47.61863" lon="-2.82663">
        <ele>5.6</ele>
        <time>2025-01-28T12:15:41Z</time>
      </trkpt>
      <trkpt lat="47.61862" lon="-2.82665">
        <ele>5.4</ele>
        <time>2025-01-28T12:15:42Z</time>
      </trkpt>
      <trkpt lat="47.61861" lon="-2.82666">
        <ele>5.1</ele>
        <time>2025-01-28T12:15:43Z</time>
      </trkpt>
      <trkpt lat="47.61861" lon="-2.82667">
        <ele>5.1</ele>
        <time>2025-01-28T12:15:44Z</time>
      </trkpt>
      <trkpt lat="47.6186" lon="-2.82669">
        <ele>5.2</ele>
        <time>2025-01-28T12:15:45Z</time>
      </trkpt>
      <trkpt lat="47.61859" lon="-2.82671">
        <ele>5.3</ele>
        <time>2025-01-28T12:15:46Z</time>
      </trkpt>
      <trkpt lat="47.61859" lon="-2.82673">
        <ele>5.2</ele>
        <time>2025-01-28T12:15:47Z</time>
      </trkpt>
      <trkpt lat="47.61859" lon="-2.82675">
        <ele>5.1</ele>
        <time>2025-01-28T12:15:48Z</time>
      </trkpt>
      <trkpt lat="47.61859" lon="-2.82677">
        <ele>5.1</ele>
        <time>2025-01-28T12:15:49Z</time>
      </trkpt>
      <trkpt lat="47.61859" lon="-2.82678">
        <ele>5.1</ele>
        <time>2025-01-28T12:15:50Z</time>
      </trkpt>
      <trkpt lat="47.61858" lon="-2.8268">
        <ele>5.1</ele>
        <time>2025-01-28T12:15:51Z</time>
      </trkpt>
      <trkpt lat="47.61857" lon="-2.82681">
        <ele>5.2</ele>
        <time>2025-01-28T12:15:52Z</time>
      </trkpt>
      <trkpt lat="47.61857" lon="-2.82682">
        <ele>5.2</ele>
        <time>2025-01-28T12:15:53Z</time>
      </trkpt>
      <trkpt lat="47.61857" lon="-2.82684">
        <ele>5.2</ele>
        <time>2025-01-28T12:15:54Z</time>
      </trkpt>
      <trkpt lat="47.61857" lon="-2.82686">
        <ele>5.1</ele>
        <time>2025-01-28T12:15:55Z</time>
      </trkpt>
      <trkpt lat="47.61857" lon="-2.82688">
        <ele>4.9</ele>
        <time>2025-01-28T12:15:56Z</time>
      </trkpt>
      <trkpt lat="47.61858" lon="-2.8269">
        <ele>4.8</ele>
        <time>2025-01-28T12:15:57Z</time>
      </trkpt>
      <trkpt lat="47.61857" lon="-2.82692">
        <ele>4.7</ele>
        <time>2025-01-28T12:15:58Z</time>
      </trkpt>
      <trkpt lat="47.61857" lon="-2.82694">
        <ele>4.6</ele>
        <time>2025-01-28T12:15:59Z</time>
      </trkpt>
      <trkpt lat="47.61858" lon="-2.82695">
        <ele>4.4</ele>
        <time>2025-01-28T12:16:00Z</time>
      </trkpt>
      <trkpt lat="47.61859" lon="-2.82697">
        <ele>4.2</ele>
        <time>2025-01-28T12:16:01Z</time>
      </trkpt>
      <trkpt lat="47.61859" lon="-2.82699">
        <ele>4.1</ele>
        <time>2025-01-28T12:16:02Z</time>
      </trkpt>
      <trkpt lat="47.61861" lon="-2.82701">
        <ele>3.8</ele>
        <time>2025-01-28T12:16:03Z</time>
      </trkpt>
      <trkpt lat="47.61861" lon="-2.82703">
        <ele>3.7</ele>
        <time>2025-01-28T12:16:04Z</time>
      </trkpt>
      <trkpt lat="47.61862" lon="-2.82704">
        <ele>3.6</ele>
        <time>2025-01-28T12:16:05Z</time>
      </trkpt>
      <trkpt lat="47.61863" lon="-2.82706">
        <ele>3.5</ele>
        <time>2025-01-28T12:16:06Z</time>
      </trkpt>
      <trkpt lat="47.61863" lon="-2.82708">
        <ele>3.4</ele>
        <time>2025-01-28T12:16:07Z</time>
      </trkpt>
      <trkpt lat="47.61863" lon="-2.8271">
        <ele>3.4</ele>
        <time>2025-01-28T12:16:08Z</time>
      </trkpt>
      <trkpt lat="47.61864" lon="-2.82712">
        <ele>3.3</ele>
        <time>2025-01-28T12:16:09Z</time>
      </trkpt>
      <trkpt lat="47.61864" lon="-2.82714">
        <ele>3.2</ele>
        <time>2025-01-28T12:16:10Z</time>
      </trkpt>
      <trkpt lat="47.61863" lon="-2.82717">
        <ele>3.1</ele>
        <time>2025-01-28T12:16:11Z</time>
      </trkpt>
      <trkpt lat="47.61863" lon="-2.82719">
        <ele>3</ele>
        <time>2025-01-28T12:16:12Z</time>
      </trkpt>
      <trkpt lat="47.61864" lon="-2.8272">
        <ele>3</ele>
        <time>2025-01-28T12:16:13Z</time>
      </trkpt>
      <trkpt lat="47.61864" lon="-2.82721">
        <ele>2.9</ele>
        <time>2025-01-28T12:16:14Z</time>
      </trkpt>
      <trkpt lat="47.61864" lon="-2.82723">
        <ele>2.9</ele>
        <time>2025-01-28T12:16:15Z</time>
      </trkpt>
      <trkpt lat="47.61864" lon="-2.82725">
        <ele>2.8</ele>
        <time>2025-01-28T12:16:16Z</time>
      </trkpt>
      <trkpt lat="47.61864" lon="-2.82727">
        <ele>2.8</ele>
        <time>2025-01-28T12:16:17Z</time>
      </trkpt>
      <trkpt lat="47.61864" lon="-2.82728">
        <ele>2.7</ele>
        <time>2025-01-28T12:16:18Z</time>
      </trkpt>
      <trkpt lat="47.61863" lon="-2.8273">
        <ele>2.7</ele>
        <time>2025-01-28T12:16:19Z</time>
      </trkpt>
      <trkpt lat="47.61863" lon="-2.82732">
        <ele>2.6</ele>
        <time>2025-01-28T12:16:20Z</time>
      </trkpt>
      <trkpt lat="47.61863" lon="-2.82734">
        <ele>2.6</ele>
        <time>2025-01-28T12:16:21Z</time>
      </trkpt>
      <trkpt lat="47.61862" lon="-2.82735">
        <ele>2.5</ele>
        <time>2025-01-28T12:16:22Z</time>
      </trkpt>
      <trkpt lat="47.61862" lon="-2.82737">
        <ele>2.4</ele>
        <time>2025-01-28T12:16:23Z</time>
      </trkpt>
      <trkpt lat="47.61862" lon="-2.82739">
        <ele>2.4</ele>
        <time>2025-01-28T12:16:24Z</time>
      </trkpt>
      <trkpt lat="47.61862" lon="-2.82741">
        <ele>2.3</ele>
        <time>2025-01-28T12:16:25Z</time>
      </trkpt>
      <trkpt lat="47.61862" lon="-2.82742">
        <ele>2.3</ele>
        <time>2025-01-28T12:16:26Z</time>
      </trkpt>
      <trkpt lat="47.61861" lon="-2.82744">
        <ele>2.2</ele>
        <time>2025-01-28T12:16:27Z</time>
      </trkpt>
      <trkpt lat="47.61861" lon="-2.82746">
        <ele>2.2</ele>
        <time>2025-01-28T12:16:28Z</time>
      </trkpt>
      <trkpt lat="47.6186" lon="-2.82748">
        <ele>2.2</ele>
        <time>2025-01-28T12:16:29Z</time>
      </trkpt>
      <trkpt lat="47.6186" lon="-2.82749">
        <ele>2.1</ele>
        <time>2025-01-28T12:16:30Z</time>
      </trkpt>
      <trkpt lat="47.61859" lon="-2.82751">
        <ele>2.1</ele>
        <time>2025-01-28T12:16:31Z</time>
      </trkpt>
      <trkpt lat="47.61859" lon="-2.82753">
        <ele>2.2</ele>
        <time>2025-01-28T12:16:32Z</time>
      </trkpt>
      <trkpt lat="47.61858" lon="-2.82754">
        <ele>2.2</ele>
        <time>2025-01-28T12:16:33Z</time>
      </trkpt>
      <trkpt lat="47.61857" lon="-2.82756">
        <ele>2.3</ele>
        <time>2025-01-28T12:16:34Z</time>
      </trkpt>
      <trkpt lat="47.61857" lon="-2.82758">
        <ele>2.3</ele>
        <time>2025-01-28T12:16:35Z</time>
      </trkpt>
      <trkpt lat="47.61857" lon="-2.82759">
        <ele>2.3</ele>
        <time>2025-01-28T12:16:36Z</time>
      </trkpt>
      <trkpt lat="47.61856" lon="-2.82761">
        <ele>2.4</ele>
        <time>2025-01-28T12:16:37Z</time>
      </trkpt>
      <trkpt lat="47.61856" lon="-2.82763">
        <ele>2.4</ele>
        <time>2025-01-28T12:16:38Z</time>
      </trkpt>
      <trkpt lat="47.61855" lon="-2.82764">
        <ele>2.4</ele>
        <time>2025-01-28T12:16:39Z</time>
      </trkpt>
      <trkpt lat="47.61855" lon="-2.82766">
        <ele>2.4</ele>
        <time>2025-01-28T12:16:40Z</time>
      </trkpt>
      <trkpt lat="47.61855" lon="-2.82768">
        <ele>2.5</ele>
        <time>2025-01-28T12:16:41Z</time>
      </trkpt>
      <trkpt lat="47.61854" lon="-2.82769">
        <ele>2.5</ele>
        <time>2025-01-28T12:16:42Z</time>
      </trkpt>
      <trkpt lat="47.61854" lon="-2.82771">
        <ele>2.5</ele>
        <time>2025-01-28T12:16:43Z</time>
      </trkpt>
      <trkpt lat="47.61853" lon="-2.82773">
        <ele>2.6</ele>
        <time>2025-01-28T12:16:44Z</time>
      </trkpt>
      <trkpt lat="47.61853" lon="-2.82774">
        <ele>2.6</ele>
        <time>2025-01-28T12:16:45Z</time>
      </trkpt>
      <trkpt lat="47.61853" lon="-2.82776">
        <ele>2.6</ele>
        <time>2025-01-28T12:16:46Z</time>
      </trkpt>
      <trkpt lat="47.61852" lon="-2.82778">
        <ele>2.6</ele>
        <time>2025-01-28T12:16:47Z</time>
      </trkpt>
      <trkpt lat="47.61852" lon="-2.82779">
        <ele>2.6</ele>
        <time>2025-01-28T12:16:48Z</time>
      </trkpt>
      <trkpt lat="47.61852" lon="-2.82781">
        <ele>2.6</ele>
        <time>2025-01-28T12:16:49Z</time>
      </trkpt>
      <trkpt lat="47.61851" lon="-2.82783">
        <ele>2.7</ele>
        <time>2025-01-28T12:16:50Z</time>
      </trkpt>
      <trkpt lat="47.61851" lon="-2.82785">
        <ele>2.6</ele>
        <time>2025-01-28T12:16:51Z</time>
      </trkpt>
      <trkpt lat="47.61851" lon="-2.82787">
        <ele>2.6</ele>
        <time>2025-01-28T12:16:52Z</time>
      </trkpt>
      <trkpt lat="47.61851" lon="-2.82788">
        <ele>2.6</ele>
        <time>2025-01-28T12:16:53Z</time>
      </trkpt>
      <trkpt lat="47.6185" lon="-2.8279">
        <ele>2.6</ele>
        <time>2025-01-28T12:16:54Z</time>
      </trkpt>
      <trkpt lat="47.6185" lon="-2.82792">
        <ele>2.6</ele>
        <time>2025-01-28T12:16:55Z</time>
      </trkpt>
      <trkpt lat="47.6185" lon="-2.82794">
        <ele>2.6</ele>
        <time>2025-01-28T12:16:56Z</time>
      </trkpt>
      <trkpt lat="47.6185" lon="-2.82796">
        <ele>2.5</ele>
        <time>2025-01-28T12:16:57Z</time>
      </trkpt>
      <trkpt lat="47.6185" lon="-2.82798">
        <ele>2.5</ele>
        <time>2025-01-28T12:16:58Z</time>
      </trkpt>
      <trkpt lat="47.61849" lon="-2.828">
        <ele>2.5</ele>
        <time>2025-01-28T12:16:59Z</time>
      </trkpt>
      <trkpt lat="47.61849" lon="-2.82801">
        <ele>2.5</ele>
        <time>2025-01-28T12:17:00Z</time>
      </trkpt>
      <trkpt lat="47.61849" lon="-2.82803">
        <ele>2.5</ele>
        <time>2025-01-28T12:17:01Z</time>
      </trkpt>
      <trkpt lat="47.61848" lon="-2.82805">
        <ele>2.5</ele>
        <time>2025-01-28T12:17:02Z</time>
      </trkpt>
      <trkpt lat="47.61848" lon="-2.82807">
        <ele>2.5</ele>
        <time>2025-01-28T12:17:03Z</time>
      </trkpt>
      <trkpt lat="47.61847" lon="-2.82808">
        <ele>2.5</ele>
        <time>2025-01-28T12:17:04Z</time>
      </trkpt>
      <trkpt lat="47.61847" lon="-2.8281">
        <ele>2.5</ele>
        <time>2025-01-28T12:17:05Z</time>
      </trkpt>
      <trkpt lat="47.61847" lon="-2.82812">
        <ele>2.5</ele>
        <time>2025-01-28T12:17:06Z</time>
      </trkpt>
      <trkpt lat="47.61846" lon="-2.82813">
        <ele>2.5</ele>
        <time>2025-01-28T12:17:07Z</time>
      </trkpt>
      <trkpt lat="47.61846" lon="-2.82815">
        <ele>2.5</ele>
        <time>2025-01-28T12:17:08Z</time>
      </trkpt>
      <trkpt lat="47.61846" lon="-2.82817">
        <ele>2.5</ele>
        <time>2025-01-28T12:17:09Z</time>
      </trkpt>
      <trkpt lat="47.61846" lon="-2.82819">
        <ele>2.5</ele>
        <time>2025-01-28T12:17:10Z</time>
      </trkpt>
      <trkpt lat="47.61846" lon="-2.8282">
        <ele>2.5</ele>
        <time>2025-01-28T12:17:11Z</time>
      </trkpt>
      <trkpt lat="47.61846" lon="-2.82822">
        <ele>2.5</ele>
        <time>2025-01-28T12:17:12Z</time>
      </trkpt>
      <trkpt lat="47.61846" lon="-2.82824">
        <ele>2.5</ele>
        <time>2025-01-28T12:17:13Z</time>
      </trkpt>
      <trkpt lat="47.61847" lon="-2.82825">
        <ele>2.5</ele>
        <time>2025-01-28T12:17:14Z</time>
      </trkpt>
      <trkpt lat="47.61848" lon="-2.82826">
        <ele>2.5</ele>
        <time>2025-01-28T12:17:15Z</time>
      </trkpt>
      <trkpt lat="47.61848" lon="-2.82828">
        <ele>2.5</ele>
        <time>2025-01-28T12:17:16Z</time>
      </trkpt>
      <trkpt lat="47.61849" lon="-2.82828">
        <ele>2.4</ele>
        <time>2025-01-28T12:17:17Z</time>
      </trkpt>
      <trkpt lat="47.6185" lon="-2.82829">
        <ele>2.4</ele>
        <time>2025-01-28T12:17:18Z</time>
      </trkpt>
      <trkpt lat="47.61851" lon="-2.8283">
        <ele>2.4</ele>
        <time>2025-01-28T12:17:19Z</time>
      </trkpt>
      <trkpt lat="47.61852" lon="-2.82831">
        <ele>2.3</ele>
        <time>2025-01-28T12:17:20Z</time>
      </trkpt>
      <trkpt lat="47.61853" lon="-2.82833">
        <ele>2.3</ele>
        <time>2025-01-28T12:17:21Z</time>
      </trkpt>
      <trkpt lat="47.61853" lon="-2.82834">
        <ele>2.2</ele>
        <time>2025-01-28T12:17:22Z</time>
      </trkpt>
      <trkpt lat="47.61854" lon="-2.82835">
        <ele>2.2</ele>
        <time>2025-01-28T12:17:23Z</time>
      </trkpt>
      <trkpt lat="47.61855" lon="-2.82836">
        <ele>2.1</ele>
        <time>2025-01-28T12:17:24Z</time>
      </trkpt>
      <trkpt lat="47.61856" lon="-2.82837">
        <ele>2</ele>
        <time>2025-01-28T12:17:25Z</time>
      </trkpt>
      <trkpt lat="47.61857" lon="-2.82839">
        <ele>1.9</ele>
        <time>2025-01-28T12:17:26Z</time>
      </trkpt>
      <trkpt lat="47.61858" lon="-2.8284">
        <ele>1.8</ele>
        <time>2025-01-28T12:17:27Z</time>
      </trkpt>
      <trkpt lat="47.61859" lon="-2.82842">
        <ele>1.8</ele>
        <time>2025-01-28T12:17:28Z</time>
      </trkpt>
      <trkpt lat="47.6186" lon="-2.82842">
        <ele>1.7</ele>
        <time>2025-01-28T12:17:29Z</time>
      </trkpt>
      <trkpt lat="47.61861" lon="-2.82843">
        <ele>1.7</ele>
        <time>2025-01-28T12:17:30Z</time>
      </trkpt>
      <trkpt lat="47.61862" lon="-2.82844">
        <ele>1.6</ele>
        <time>2025-01-28T12:17:31Z</time>
      </trkpt>
      <trkpt lat="47.61863" lon="-2.82845">
        <ele>1.6</ele>
        <time>2025-01-28T12:17:32Z</time>
      </trkpt>
      <trkpt lat="47.61864" lon="-2.82847">
        <ele>1.6</ele>
        <time>2025-01-28T12:17:33Z</time>
      </trkpt>
      <trkpt lat="47.61864" lon="-2.82848">
        <ele>1.5</ele>
        <time>2025-01-28T12:17:34Z</time>
      </trkpt>
      <trkpt lat="47.61865" lon="-2.82849">
        <ele>1.5</ele>
        <time>2025-01-28T12:17:35Z</time>
      </trkpt>
      <trkpt lat="47.61866" lon="-2.8285">
        <ele>1.5</ele>
        <time>2025-01-28T12:17:36Z</time>
      </trkpt>
      <trkpt lat="47.61867" lon="-2.82851">
        <ele>1.5</ele>
        <time>2025-01-28T12:17:37Z</time>
      </trkpt>
      <trkpt lat="47.61868" lon="-2.82852">
        <ele>1.5</ele>
        <time>2025-01-28T12:17:38Z</time>
      </trkpt>
      <trkpt lat="47.61869" lon="-2.82853">
        <ele>1.5</ele>
        <time>2025-01-28T12:17:39Z</time>
      </trkpt>
      <trkpt lat="47.6187" lon="-2.82854">
        <ele>1.5</ele>
        <time>2025-01-28T12:17:40Z</time>
      </trkpt>
      <trkpt lat="47.61871" lon="-2.82855">
        <ele>1.5</ele>
        <time>2025-01-28T12:17:41Z</time>
      </trkpt>
      <trkpt lat="47.61873" lon="-2.82855">
        <ele>1.5</ele>
        <time>2025-01-28T12:17:42Z</time>
      </trkpt>
      <trkpt lat="47.61874" lon="-2.82857">
        <ele>1.5</ele>
        <time>2025-01-28T12:17:43Z</time>
      </trkpt>
      <trkpt lat="47.61875" lon="-2.82858">
        <ele>1.5</ele>
        <time>2025-01-28T12:17:44Z</time>
      </trkpt>
      <trkpt lat="47.61875" lon="-2.82859">
        <ele>1.5</ele>
        <time>2025-01-28T12:17:45Z</time>
      </trkpt>
      <trkpt lat="47.61876" lon="-2.8286">
        <ele>1.6</ele>
        <time>2025-01-28T12:17:46Z</time>
      </trkpt>
      <trkpt lat="47.61877" lon="-2.82862">
        <ele>1.6</ele>
        <time>2025-01-28T12:17:47Z</time>
      </trkpt>
      <trkpt lat="47.61878" lon="-2.82863">
        <ele>1.6</ele>
        <time>2025-01-28T12:17:48Z</time>
      </trkpt>
      <trkpt lat="47.61879" lon="-2.82864">
        <ele>1.6</ele>
        <time>2025-01-28T12:17:49Z</time>
      </trkpt>
      <trkpt lat="47.6188" lon="-2.82866">
        <ele>1.6</ele>
        <time>2025-01-28T12:17:50Z</time>
      </trkpt>
      <trkpt lat="47.61881" lon="-2.82867">
        <ele>1.6</ele>
        <time>2025-01-28T12:17:51Z</time>
      </trkpt>
      <trkpt lat="47.61883" lon="-2.82868">
        <ele>1.6</ele>
        <time>2025-01-28T12:17:52Z</time>
      </trkpt>
      <trkpt lat="47.61884" lon="-2.82869">
        <ele>1.6</ele>
        <time>2025-01-28T12:17:53Z</time>
      </trkpt>
      <trkpt lat="47.61885" lon="-2.82869">
        <ele>1.6</ele>
        <time>2025-01-28T12:17:54Z</time>
      </trkpt>
      <trkpt lat="47.61886" lon="-2.82871">
        <ele>1.6</ele>
        <time>2025-01-28T12:17:55Z</time>
      </trkpt>
      <trkpt lat="47.61887" lon="-2.82872">
        <ele>1.6</ele>
        <time>2025-01-28T12:17:56Z</time>
      </trkpt>
      <trkpt lat="47.61888" lon="-2.82873">
        <ele>1.6</ele>
        <time>2025-01-28T12:17:57Z</time>
      </trkpt>
      <trkpt lat="47.61889" lon="-2.82874">
        <ele>1.6</ele>
        <time>2025-01-28T12:17:58Z</time>
      </trkpt>
      <trkpt lat="47.6189" lon="-2.82875">
        <ele>1.5</ele>
        <time>2025-01-28T12:17:59Z</time>
      </trkpt>
      <trkpt lat="47.61891" lon="-2.82876">
        <ele>1.5</ele>
        <time>2025-01-28T12:18:00Z</time>
      </trkpt>
      <trkpt lat="47.61892" lon="-2.82876">
        <ele>1.5</ele>
        <time>2025-01-28T12:18:01Z</time>
      </trkpt>
      <trkpt lat="47.61893" lon="-2.82877">
        <ele>1.5</ele>
        <time>2025-01-28T12:18:02Z</time>
      </trkpt>
      <trkpt lat="47.61894" lon="-2.82879">
        <ele>1.5</ele>
        <time>2025-01-28T12:18:03Z</time>
      </trkpt>
      <trkpt lat="47.61895" lon="-2.8288">
        <ele>1.5</ele>
        <time>2025-01-28T12:18:04Z</time>
      </trkpt>
      <trkpt lat="47.61896" lon="-2.82881">
        <ele>1.5</ele>
        <time>2025-01-28T12:18:05Z</time>
      </trkpt>
      <trkpt lat="47.61897" lon="-2.82882">
        <ele>1.5</ele>
        <time>2025-01-28T12:18:06Z</time>
      </trkpt>
      <trkpt lat="47.61898" lon="-2.82883">
        <ele>1.5</ele>
        <time>2025-01-28T12:18:07Z</time>
      </trkpt>
      <trkpt lat="47.61899" lon="-2.82885">
        <ele>1.4</ele>
        <time>2025-01-28T12:18:08Z</time>
      </trkpt>
      <trkpt lat="47.61899" lon="-2.82886">
        <ele>1.4</ele>
        <time>2025-01-28T12:18:09Z</time>
      </trkpt>
      <trkpt lat="47.619" lon="-2.82888">
        <ele>1.4</ele>
        <time>2025-01-28T12:18:10Z</time>
      </trkpt>
      <trkpt lat="47.61901" lon="-2.82888">
        <ele>1.4</ele>
        <time>2025-01-28T12:18:11Z</time>
      </trkpt>
      <trkpt lat="47.61902" lon="-2.82889">
        <ele>1.5</ele>
        <time>2025-01-28T12:18:12Z</time>
      </trkpt>
      <trkpt lat="47.61903" lon="-2.8289">
        <ele>1.5</ele>
        <time>2025-01-28T12:18:13Z</time>
      </trkpt>
      <trkpt lat="47.61905" lon="-2.82892">
        <ele>1.6</ele>
        <time>2025-01-28T12:18:14Z</time>
      </trkpt>
      <trkpt lat="47.61906" lon="-2.82893">
        <ele>1.6</ele>
        <time>2025-01-28T12:18:15Z</time>
      </trkpt>
      <trkpt lat="47.61906" lon="-2.82895">
        <ele>1.6</ele>
        <time>2025-01-28T12:18:16Z</time>
      </trkpt>
      <trkpt lat="47.61907" lon="-2.82897">
        <ele>1.7</ele>
        <time>2025-01-28T12:18:17Z</time>
      </trkpt>
      <trkpt lat="47.61908" lon="-2.82898">
        <ele>1.7</ele>
        <time>2025-01-28T12:18:18Z</time>
      </trkpt>
      <trkpt lat="47.61909" lon="-2.82899">
        <ele>1.7</ele>
        <time>2025-01-28T12:18:19Z</time>
      </trkpt>
      <trkpt lat="47.6191" lon="-2.82901">
        <ele>1.8</ele>
        <time>2025-01-28T12:18:20Z</time>
      </trkpt>
      <trkpt lat="47.6191" lon="-2.82902">
        <ele>1.8</ele>
        <time>2025-01-28T12:18:21Z</time>
      </trkpt>
      <trkpt lat="47.61911" lon="-2.82903">
        <ele>1.8</ele>
        <time>2025-01-28T12:18:22Z</time>
      </trkpt>
      <trkpt lat="47.61912" lon="-2.82905">
        <ele>1.8</ele>
        <time>2025-01-28T12:18:23Z</time>
      </trkpt>
      <trkpt lat="47.61913" lon="-2.82907">
        <ele>1.9</ele>
        <time>2025-01-28T12:18:24Z</time>
      </trkpt>
      <trkpt lat="47.61914" lon="-2.82908">
        <ele>1.9</ele>
        <time>2025-01-28T12:18:25Z</time>
      </trkpt>
      <trkpt lat="47.61915" lon="-2.82909">
        <ele>1.9</ele>
        <time>2025-01-28T12:18:26Z</time>
      </trkpt>
      <trkpt lat="47.61916" lon="-2.82911">
        <ele>2</ele>
        <time>2025-01-28T12:18:27Z</time>
      </trkpt>
      <trkpt lat="47.61916" lon="-2.82913">
        <ele>2</ele>
        <time>2025-01-28T12:18:28Z</time>
      </trkpt>
      <trkpt lat="47.61917" lon="-2.82914">
        <ele>2</ele>
        <time>2025-01-28T12:18:29Z</time>
      </trkpt>
      <trkpt lat="47.61918" lon="-2.82915">
        <ele>2.1</ele>
        <time>2025-01-28T12:18:30Z</time>
      </trkpt>
      <trkpt lat="47.61918" lon="-2.82917">
        <ele>2.1</ele>
        <time>2025-01-28T12:18:31Z</time>
      </trkpt>
      <trkpt lat="47.61919" lon="-2.82918">
        <ele>2.1</ele>
        <time>2025-01-28T12:18:32Z</time>
      </trkpt>
      <trkpt lat="47.6192" lon="-2.82919">
        <ele>2.2</ele>
        <time>2025-01-28T12:18:33Z</time>
      </trkpt>
      <trkpt lat="47.61921" lon="-2.82921">
        <ele>2.2</ele>
        <time>2025-01-28T12:18:34Z</time>
      </trkpt>
      <trkpt lat="47.61921" lon="-2.82923">
        <ele>2.2</ele>
        <time>2025-01-28T12:18:35Z</time>
      </trkpt>
      <trkpt lat="47.61922" lon="-2.82924">
        <ele>2.2</ele>
        <time>2025-01-28T12:18:36Z</time>
      </trkpt>
      <trkpt lat="47.61923" lon="-2.82925">
        <ele>2.3</ele>
        <time>2025-01-28T12:18:37Z</time>
      </trkpt>
      <trkpt lat="47.61924" lon="-2.82926">
        <ele>2.4</ele>
        <time>2025-01-28T12:18:38Z</time>
      </trkpt>
      <trkpt lat="47.61925" lon="-2.82927">
        <ele>2.5</ele>
        <time>2025-01-28T12:18:39Z</time>
      </trkpt>
      <trkpt lat="47.61926" lon="-2.82928">
        <ele>2.5</ele>
        <time>2025-01-28T12:18:40Z</time>
      </trkpt>
      <trkpt lat="47.61926" lon="-2.82929">
        <ele>2.6</ele>
        <time>2025-01-28T12:18:41Z</time>
      </trkpt>
      <trkpt lat="47.61927" lon="-2.82931">
        <ele>2.6</ele>
        <time>2025-01-28T12:18:42Z</time>
      </trkpt>
      <trkpt lat="47.61928" lon="-2.82932">
        <ele>2.7</ele>
        <time>2025-01-28T12:18:43Z</time>
      </trkpt>
      <trkpt lat="47.61928" lon="-2.82934">
        <ele>2.7</ele>
        <time>2025-01-28T12:18:44Z</time>
      </trkpt>
      <trkpt lat="47.61928" lon="-2.82935">
        <ele>2.7</ele>
        <time>2025-01-28T12:18:45Z</time>
      </trkpt>
      <trkpt lat="47.61929" lon="-2.82936">
        <ele>2.8</ele>
        <time>2025-01-28T12:18:46Z</time>
      </trkpt>
      <trkpt lat="47.61929" lon="-2.82936">
        <ele>2.8</ele>
        <time>2025-01-28T12:18:47Z</time>
      </trkpt>
      <trkpt lat="47.61929" lon="-2.82936">
        <ele>2.8</ele>
        <time>2025-01-28T12:18:48Z</time>
      </trkpt>
      <trkpt lat="47.61929" lon="-2.82936">
        <ele>2.8</ele>
        <time>2025-01-28T12:18:49Z</time>
      </trkpt>
      <trkpt lat="47.61929" lon="-2.82936">
        <ele>2.8</ele>
        <time>2025-01-28T12:18:50Z</time>
      </trkpt>
      <trkpt lat="47.61929" lon="-2.82937">
        <ele>2.8</ele>
        <time>2025-01-28T12:18:51Z</time>
      </trkpt>
      <trkpt lat="47.61928" lon="-2.82938">
        <ele>2.7</ele>
        <time>2025-01-28T12:18:52Z</time>
      </trkpt>
      <trkpt lat="47.61928" lon="-2.8294">
        <ele>2.7</ele>
        <time>2025-01-28T12:18:53Z</time>
      </trkpt>
      <trkpt lat="47.61928" lon="-2.82942">
        <ele>2.7</ele>
        <time>2025-01-28T12:18:54Z</time>
      </trkpt>
      <trkpt lat="47.61928" lon="-2.82944">
        <ele>2.6</ele>
        <time>2025-01-28T12:18:55Z</time>
      </trkpt>
      <trkpt lat="47.61927" lon="-2.82946">
        <ele>2.6</ele>
        <time>2025-01-28T12:18:56Z</time>
      </trkpt>
      <trkpt lat="47.61927" lon="-2.82948">
        <ele>2.7</ele>
        <time>2025-01-28T12:18:57Z</time>
      </trkpt>
      <trkpt lat="47.61927" lon="-2.82949">
        <ele>2.7</ele>
        <time>2025-01-28T12:18:58Z</time>
      </trkpt>
      <trkpt lat="47.61926" lon="-2.82951">
        <ele>2.6</ele>
        <time>2025-01-28T12:18:59Z</time>
      </trkpt>
      <trkpt lat="47.61925" lon="-2.82952">
        <ele>2.6</ele>
        <time>2025-01-28T12:19:00Z</time>
      </trkpt>
      <trkpt lat="47.61924" lon="-2.82953">
        <ele>2.5</ele>
        <time>2025-01-28T12:19:01Z</time>
      </trkpt>
      <trkpt lat="47.61923" lon="-2.82954">
        <ele>2.5</ele>
        <time>2025-01-28T12:19:02Z</time>
      </trkpt>
      <trkpt lat="47.61923" lon="-2.82956">
        <ele>2.5</ele>
        <time>2025-01-28T12:19:03Z</time>
      </trkpt>
      <trkpt lat="47.61922" lon="-2.82957">
        <ele>2.4</ele>
        <time>2025-01-28T12:19:04Z</time>
      </trkpt>
      <trkpt lat="47.61921" lon="-2.82958">
        <ele>2.4</ele>
        <time>2025-01-28T12:19:05Z</time>
      </trkpt>
      <trkpt lat="47.6192" lon="-2.82959">
        <ele>2.5</ele>
        <time>2025-01-28T12:19:06Z</time>
      </trkpt>
      <trkpt lat="47.6192" lon="-2.82961">
        <ele>2.6</ele>
        <time>2025-01-28T12:19:07Z</time>
      </trkpt>
      <trkpt lat="47.6192" lon="-2.82963">
        <ele>2.7</ele>
        <time>2025-01-28T12:19:08Z</time>
      </trkpt>
      <trkpt lat="47.6192" lon="-2.82965">
        <ele>2.8</ele>
        <time>2025-01-28T12:19:09Z</time>
      </trkpt>
      <trkpt lat="47.61919" lon="-2.82966">
        <ele>2.8</ele>
        <time>2025-01-28T12:19:10Z</time>
      </trkpt>
      <trkpt lat="47.61919" lon="-2.82968">
        <ele>2.9</ele>
        <time>2025-01-28T12:19:11Z</time>
      </trkpt>
      <trkpt lat="47.61918" lon="-2.8297">
        <ele>3</ele>
        <time>2025-01-28T12:19:12Z</time>
      </trkpt>
      <trkpt lat="47.61918" lon="-2.82971">
        <ele>3</ele>
        <time>2025-01-28T12:19:13Z</time>
      </trkpt>
      <trkpt lat="47.61918" lon="-2.82973">
        <ele>3.1</ele>
        <time>2025-01-28T12:19:14Z</time>
      </trkpt>
      <trkpt lat="47.61917" lon="-2.82975">
        <ele>3</ele>
        <time>2025-01-28T12:19:15Z</time>
      </trkpt>
      <trkpt lat="47.61917" lon="-2.82976">
        <ele>3</ele>
        <time>2025-01-28T12:19:16Z</time>
      </trkpt>
      <trkpt lat="47.61916" lon="-2.82976">
        <ele>2.9</ele>
        <time>2025-01-28T12:19:17Z</time>
      </trkpt>
      <trkpt lat="47.61915" lon="-2.82978">
        <ele>2.9</ele>
        <time>2025-01-28T12:19:18Z</time>
      </trkpt>
      <trkpt lat="47.61915" lon="-2.82979">
        <ele>2.9</ele>
        <time>2025-01-28T12:19:19Z</time>
      </trkpt>
      <trkpt lat="47.61914" lon="-2.8298">
        <ele>2.8</ele>
        <time>2025-01-28T12:19:20Z</time>
      </trkpt>
      <trkpt lat="47.61914" lon="-2.82982">
        <ele>2.8</ele>
        <time>2025-01-28T12:19:21Z</time>
      </trkpt>
      <trkpt lat="47.61914" lon="-2.82983">
        <ele>2.8</ele>
        <time>2025-01-28T12:19:22Z</time>
      </trkpt>
      <trkpt lat="47.61914" lon="-2.82985">
        <ele>2.8</ele>
        <time>2025-01-28T12:19:23Z</time>
      </trkpt>
      <trkpt lat="47.61914" lon="-2.82987">
        <ele>2.8</ele>
        <time>2025-01-28T12:19:24Z</time>
      </trkpt>
      <trkpt lat="47.61913" lon="-2.82989">
        <ele>2.8</ele>
        <time>2025-01-28T12:19:25Z</time>
      </trkpt>
      <trkpt lat="47.61913" lon="-2.82991">
        <ele>2.7</ele>
        <time>2025-01-28T12:19:26Z</time>
      </trkpt>
      <trkpt lat="47.61913" lon="-2.82993">
        <ele>2.8</ele>
        <time>2025-01-28T12:19:27Z</time>
      </trkpt>
      <trkpt lat="47.61914" lon="-2.82995">
        <ele>2.8</ele>
        <time>2025-01-28T12:19:28Z</time>
      </trkpt>
      <trkpt lat="47.61914" lon="-2.82996">
        <ele>2.8</ele>
        <time>2025-01-28T12:19:29Z</time>
      </trkpt>
      <trkpt lat="47.61915" lon="-2.82996">
        <ele>2.9</ele>
        <time>2025-01-28T12:19:30Z</time>
      </trkpt>
      <trkpt lat="47.61915" lon="-2.82997">
        <ele>2.9</ele>
        <time>2025-01-28T12:19:31Z</time>
      </trkpt>
      <trkpt lat="47.61915" lon="-2.82999">
        <ele>2.9</ele>
        <time>2025-01-28T12:19:32Z</time>
      </trkpt>
      <trkpt lat="47.61916" lon="-2.83">
        <ele>3</ele>
        <time>2025-01-28T12:19:33Z</time>
      </trkpt>
      <trkpt lat="47.61917" lon="-2.83001">
        <ele>3</ele>
        <time>2025-01-28T12:19:34Z</time>
      </trkpt>
      <trkpt lat="47.61918" lon="-2.83002">
        <ele>2.9</ele>
        <time>2025-01-28T12:19:35Z</time>
      </trkpt>
      <trkpt lat="47.61918" lon="-2.83003">
        <ele>2.9</ele>
        <time>2025-01-28T12:19:36Z</time>
      </trkpt>
      <trkpt lat="47.61919" lon="-2.83004">
        <ele>2.9</ele>
        <time>2025-01-28T12:19:37Z</time>
      </trkpt>
      <trkpt lat="47.61919" lon="-2.83005">
        <ele>2.9</ele>
        <time>2025-01-28T12:19:38Z</time>
      </trkpt>
      <trkpt lat="47.6192" lon="-2.83006">
        <ele>2.8</ele>
        <time>2025-01-28T12:19:39Z</time>
      </trkpt>
      <trkpt lat="47.6192" lon="-2.83008">
        <ele>2.8</ele>
        <time>2025-01-28T12:19:40Z</time>
      </trkpt>
      <trkpt lat="47.61921" lon="-2.83009">
        <ele>2.8</ele>
        <time>2025-01-28T12:19:41Z</time>
      </trkpt>
      <trkpt lat="47.61922" lon="-2.8301">
        <ele>2.8</ele>
        <time>2025-01-28T12:19:42Z</time>
      </trkpt>
      <trkpt lat="47.61923" lon="-2.83011">
        <ele>2.8</ele>
        <time>2025-01-28T12:19:43Z</time>
      </trkpt>
      <trkpt lat="47.61923" lon="-2.83012">
        <ele>2.8</ele>
        <time>2025-01-28T12:19:44Z</time>
      </trkpt>
      <trkpt lat="47.61924" lon="-2.83013">
        <ele>2.8</ele>
        <time>2025-01-28T12:19:45Z</time>
      </trkpt>
      <trkpt lat="47.61925" lon="-2.83015">
        <ele>2.8</ele>
        <time>2025-01-28T12:19:46Z</time>
      </trkpt>
      <trkpt lat="47.61925" lon="-2.83016">
        <ele>2.8</ele>
        <time>2025-01-28T12:19:47Z</time>
      </trkpt>
      <trkpt lat="47.61926" lon="-2.83017">
        <ele>2.9</ele>
        <time>2025-01-28T12:19:48Z</time>
      </trkpt>
      <trkpt lat="47.61927" lon="-2.83018">
        <ele>2.9</ele>
        <time>2025-01-28T12:19:49Z</time>
      </trkpt>
      <trkpt lat="47.61927" lon="-2.83019">
        <ele>2.9</ele>
        <time>2025-01-28T12:19:50Z</time>
      </trkpt>
      <trkpt lat="47.61928" lon="-2.83021">
        <ele>3</ele>
        <time>2025-01-28T12:19:51Z</time>
      </trkpt>
      <trkpt lat="47.61929" lon="-2.83022">
        <ele>3</ele>
        <time>2025-01-28T12:19:52Z</time>
      </trkpt>
      <trkpt lat="47.61929" lon="-2.83023">
        <ele>3</ele>
        <time>2025-01-28T12:19:53Z</time>
      </trkpt>
      <trkpt lat="47.6193" lon="-2.83024">
        <ele>3.1</ele>
        <time>2025-01-28T12:19:54Z</time>
      </trkpt>
      <trkpt lat="47.61931" lon="-2.83025">
        <ele>3.2</ele>
        <time>2025-01-28T12:19:55Z</time>
      </trkpt>
      <trkpt lat="47.61932" lon="-2.83027">
        <ele>3.2</ele>
        <time>2025-01-28T12:19:56Z</time>
      </trkpt>
      <trkpt lat="47.61932" lon="-2.83028">
        <ele>3.2</ele>
        <time>2025-01-28T12:19:57Z</time>
      </trkpt>
      <trkpt lat="47.61933" lon="-2.83029">
        <ele>3.2</ele>
        <time>2025-01-28T12:19:58Z</time>
      </trkpt>
      <trkpt lat="47.61933" lon="-2.83031">
        <ele>3.2</ele>
        <time>2025-01-28T12:19:59Z</time>
      </trkpt>
      <trkpt lat="47.61934" lon="-2.83032">
        <ele>3.3</ele>
        <time>2025-01-28T12:20:00Z</time>
      </trkpt>
      <trkpt lat="47.61935" lon="-2.83034">
        <ele>3.4</ele>
        <time>2025-01-28T12:20:01Z</time>
      </trkpt>
      <trkpt lat="47.61936" lon="-2.83035">
        <ele>3.4</ele>
        <time>2025-01-28T12:20:02Z</time>
      </trkpt>
      <trkpt lat="47.61937" lon="-2.83036">
        <ele>3.5</ele>
        <time>2025-01-28T12:20:03Z</time>
      </trkpt>
      <trkpt lat="47.61938" lon="-2.83037">
        <ele>3.5</ele>
        <time>2025-01-28T12:20:04Z</time>
      </trkpt>
      <trkpt lat="47.61938" lon="-2.83039">
        <ele>3.5</ele>
        <time>2025-01-28T12:20:05Z</time>
      </trkpt>
      <trkpt lat="47.61938" lon="-2.8304">
        <ele>3.4</ele>
        <time>2025-01-28T12:20:06Z</time>
      </trkpt>
      <trkpt lat="47.61939" lon="-2.83041">
        <ele>3.4</ele>
        <time>2025-01-28T12:20:07Z</time>
      </trkpt>
      <trkpt lat="47.6194" lon="-2.83043">
        <ele>3.5</ele>
        <time>2025-01-28T12:20:08Z</time>
      </trkpt>
      <trkpt lat="47.61941" lon="-2.83043">
        <ele>3.6</ele>
        <time>2025-01-28T12:20:09Z</time>
      </trkpt>
      <trkpt lat="47.61942" lon="-2.83045">
        <ele>3.5</ele>
        <time>2025-01-28T12:20:10Z</time>
      </trkpt>
      <trkpt lat="47.61943" lon="-2.83047">
        <ele>3.6</ele>
        <time>2025-01-28T12:20:11Z</time>
      </trkpt>
      <trkpt lat="47.61944" lon="-2.83048">
        <ele>3.6</ele>
        <time>2025-01-28T12:20:12Z</time>
      </trkpt>
      <trkpt lat="47.61945" lon="-2.83049">
        <ele>3.6</ele>
        <time>2025-01-28T12:20:13Z</time>
      </trkpt>
      <trkpt lat="47.61946" lon="-2.8305">
        <ele>3.6</ele>
        <time>2025-01-28T12:20:14Z</time>
      </trkpt>
      <trkpt lat="47.61947" lon="-2.83051">
        <ele>3.7</ele>
        <time>2025-01-28T12:20:15Z</time>
      </trkpt>
      <trkpt lat="47.61948" lon="-2.83052">
        <ele>3.7</ele>
        <time>2025-01-28T12:20:16Z</time>
      </trkpt>
      <trkpt lat="47.61949" lon="-2.83053">
        <ele>3.7</ele>
        <time>2025-01-28T12:20:17Z</time>
      </trkpt>
      <trkpt lat="47.6195" lon="-2.83054">
        <ele>3.8</ele>
        <time>2025-01-28T12:20:18Z</time>
      </trkpt>
      <trkpt lat="47.6195" lon="-2.83056">
        <ele>3.8</ele>
        <time>2025-01-28T12:20:19Z</time>
      </trkpt>
      <trkpt lat="47.61951" lon="-2.83057">
        <ele>3.8</ele>
        <time>2025-01-28T12:20:20Z</time>
      </trkpt>
      <trkpt lat="47.61951" lon="-2.83058">
        <ele>3.9</ele>
        <time>2025-01-28T12:20:21Z</time>
      </trkpt>
      <trkpt lat="47.61952" lon="-2.83059">
        <ele>3.9</ele>
        <time>2025-01-28T12:20:22Z</time>
      </trkpt>
      <trkpt lat="47.61953" lon="-2.83061">
        <ele>3.9</ele>
        <time>2025-01-28T12:20:23Z</time>
      </trkpt>
      <trkpt lat="47.61954" lon="-2.83062">
        <ele>4</ele>
        <time>2025-01-28T12:20:24Z</time>
      </trkpt>
      <trkpt lat="47.61954" lon="-2.83063">
        <ele>4</ele>
        <time>2025-01-28T12:20:25Z</time>
      </trkpt>
      <trkpt lat="47.61954" lon="-2.83065">
        <ele>4</ele>
        <time>2025-01-28T12:20:26Z</time>
      </trkpt>
      <trkpt lat="47.61955" lon="-2.83066">
        <ele>4</ele>
        <time>2025-01-28T12:20:27Z</time>
      </trkpt>
      <trkpt lat="47.61954" lon="-2.83068">
        <ele>3.9</ele>
        <time>2025-01-28T12:20:28Z</time>
      </trkpt>
      <trkpt lat="47.61955" lon="-2.83069">
        <ele>3.8</ele>
        <time>2025-01-28T12:20:29Z</time>
      </trkpt>
      <trkpt lat="47.61955" lon="-2.83071">
        <ele>3.9</ele>
        <time>2025-01-28T12:20:30Z</time>
      </trkpt>
      <trkpt lat="47.61955" lon="-2.83072">
        <ele>3.8</ele>
        <time>2025-01-28T12:20:31Z</time>
      </trkpt>
      <trkpt lat="47.61955" lon="-2.83074">
        <ele>3.8</ele>
        <time>2025-01-28T12:20:32Z</time>
      </trkpt>
      <trkpt lat="47.61955" lon="-2.83075">
        <ele>3.7</ele>
        <time>2025-01-28T12:20:33Z</time>
      </trkpt>
      <trkpt lat="47.61955" lon="-2.83077">
        <ele>3.6</ele>
        <time>2025-01-28T12:20:34Z</time>
      </trkpt>
      <trkpt lat="47.61955" lon="-2.83078">
        <ele>3.5</ele>
        <time>2025-01-28T12:20:35Z</time>
      </trkpt>
      <trkpt lat="47.61955" lon="-2.8308">
        <ele>3.5</ele>
        <time>2025-01-28T12:20:36Z</time>
      </trkpt>
      <trkpt lat="47.61955" lon="-2.83082">
        <ele>3.4</ele>
        <time>2025-01-28T12:20:37Z</time>
      </trkpt>
      <trkpt lat="47.61955" lon="-2.83083">
        <ele>3.3</ele>
        <time>2025-01-28T12:20:38Z</time>
      </trkpt>
      <trkpt lat="47.61955" lon="-2.83085">
        <ele>3.3</ele>
        <time>2025-01-28T12:20:39Z</time>
      </trkpt>
      <trkpt lat="47.61955" lon="-2.83087">
        <ele>3.2</ele>
        <time>2025-01-28T12:20:40Z</time>
      </trkpt>
      <trkpt lat="47.61956" lon="-2.83088">
        <ele>3.4</ele>
        <time>2025-01-28T12:20:41Z</time>
      </trkpt>
      <trkpt lat="47.61957" lon="-2.83089">
        <ele>3.7</ele>
        <time>2025-01-28T12:20:42Z</time>
      </trkpt>
      <trkpt lat="47.61958" lon="-2.8309">
        <ele>3.9</ele>
        <time>2025-01-28T12:20:43Z</time>
      </trkpt>
      <trkpt lat="47.61959" lon="-2.8309">
        <ele>4.1</ele>
        <time>2025-01-28T12:20:44Z</time>
      </trkpt>
      <trkpt lat="47.6196" lon="-2.83092">
        <ele>4.2</ele>
        <time>2025-01-28T12:20:45Z</time>
      </trkpt>
      <trkpt lat="47.6196" lon="-2.83094">
        <ele>4.2</ele>
        <time>2025-01-28T12:20:46Z</time>
      </trkpt>
      <trkpt lat="47.6196" lon="-2.83096">
        <ele>4.2</ele>
        <time>2025-01-28T12:20:47Z</time>
      </trkpt>
      <trkpt lat="47.61961" lon="-2.83097">
        <ele>4.3</ele>
        <time>2025-01-28T12:20:48Z</time>
      </trkpt>
      <trkpt lat="47.61962" lon="-2.83099">
        <ele>4.4</ele>
        <time>2025-01-28T12:20:49Z</time>
      </trkpt>
      <trkpt lat="47.61962" lon="-2.831">
        <ele>4.5</ele>
        <time>2025-01-28T12:20:50Z</time>
      </trkpt>
      <trkpt lat="47.61963" lon="-2.83102">
        <ele>4.5</ele>
        <time>2025-01-28T12:20:51Z</time>
      </trkpt>
      <trkpt lat="47.61963" lon="-2.83103">
        <ele>4.6</ele>
        <time>2025-01-28T12:20:52Z</time>
      </trkpt>
      <trkpt lat="47.61964" lon="-2.83104">
        <ele>4.8</ele>
        <time>2025-01-28T12:20:53Z</time>
      </trkpt>
      <trkpt lat="47.61965" lon="-2.83105">
        <ele>4.9</ele>
        <time>2025-01-28T12:20:54Z</time>
      </trkpt>
      <trkpt lat="47.61966" lon="-2.83106">
        <ele>5</ele>
        <time>2025-01-28T12:20:55Z</time>
      </trkpt>
      <trkpt lat="47.61967" lon="-2.83108">
        <ele>5.1</ele>
        <time>2025-01-28T12:20:56Z</time>
      </trkpt>
      <trkpt lat="47.61967" lon="-2.8311">
        <ele>5.1</ele>
        <time>2025-01-28T12:20:57Z</time>
      </trkpt>
      <trkpt lat="47.61967" lon="-2.83111">
        <ele>5.1</ele>
        <time>2025-01-28T12:20:58Z</time>
      </trkpt>
      <trkpt lat="47.61968" lon="-2.83113">
        <ele>5</ele>
        <time>2025-01-28T12:20:59Z</time>
      </trkpt>
      <trkpt lat="47.61968" lon="-2.83115">
        <ele>4.7</ele>
        <time>2025-01-28T12:21:00Z</time>
      </trkpt>
      <trkpt lat="47.61969" lon="-2.83116">
        <ele>4.6</ele>
        <time>2025-01-28T12:21:01Z</time>
      </trkpt>
      <trkpt lat="47.61969" lon="-2.83118">
        <ele>4.4</ele>
        <time>2025-01-28T12:21:02Z</time>
      </trkpt>
      <trkpt lat="47.6197" lon="-2.83119">
        <ele>4.4</ele>
        <time>2025-01-28T12:21:03Z</time>
      </trkpt>
      <trkpt lat="47.61971" lon="-2.83119">
        <ele>4.4</ele>
        <time>2025-01-28T12:21:04Z</time>
      </trkpt>
      <trkpt lat="47.61972" lon="-2.8312">
        <ele>4.4</ele>
        <time>2025-01-28T12:21:05Z</time>
      </trkpt>
      <trkpt lat="47.61973" lon="-2.83121">
        <ele>4.3</ele>
        <time>2025-01-28T12:21:06Z</time>
      </trkpt>
      <trkpt lat="47.61974" lon="-2.83122">
        <ele>4.2</ele>
        <time>2025-01-28T12:21:07Z</time>
      </trkpt>
      <trkpt lat="47.61975" lon="-2.83124">
        <ele>4.1</ele>
        <time>2025-01-28T12:21:08Z</time>
      </trkpt>
      <trkpt lat="47.61975" lon="-2.83125">
        <ele>4</ele>
        <time>2025-01-28T12:21:09Z</time>
      </trkpt>
      <trkpt lat="47.61976" lon="-2.83126">
        <ele>3.9</ele>
        <time>2025-01-28T12:21:10Z</time>
      </trkpt>
      <trkpt lat="47.61977" lon="-2.83127">
        <ele>3.9</ele>
        <time>2025-01-28T12:21:11Z</time>
      </trkpt>
      <trkpt lat="47.61978" lon="-2.83128">
        <ele>3.9</ele>
        <time>2025-01-28T12:21:12Z</time>
      </trkpt>
      <trkpt lat="47.61979" lon="-2.83129">
        <ele>3.8</ele>
        <time>2025-01-28T12:21:13Z</time>
      </trkpt>
      <trkpt lat="47.6198" lon="-2.8313">
        <ele>3.8</ele>
        <time>2025-01-28T12:21:14Z</time>
      </trkpt>
      <trkpt lat="47.6198" lon="-2.83132">
        <ele>3.7</ele>
        <time>2025-01-28T12:21:15Z</time>
      </trkpt>
      <trkpt lat="47.61981" lon="-2.83133">
        <ele>3.7</ele>
        <time>2025-01-28T12:21:16Z</time>
      </trkpt>
      <trkpt lat="47.61982" lon="-2.83134">
        <ele>3.6</ele>
        <time>2025-01-28T12:21:17Z</time>
      </trkpt>
      <trkpt lat="47.61982" lon="-2.83136">
        <ele>3.6</ele>
        <time>2025-01-28T12:21:18Z</time>
      </trkpt>
      <trkpt lat="47.61983" lon="-2.83137">
        <ele>3.6</ele>
        <time>2025-01-28T12:21:19Z</time>
      </trkpt>
      <trkpt lat="47.61984" lon="-2.83139">
        <ele>3.5</ele>
        <time>2025-01-28T12:21:20Z</time>
      </trkpt>
      <trkpt lat="47.61984" lon="-2.8314">
        <ele>3.5</ele>
        <time>2025-01-28T12:21:21Z</time>
      </trkpt>
      <trkpt lat="47.61984" lon="-2.83142">
        <ele>3.5</ele>
        <time>2025-01-28T12:21:22Z</time>
      </trkpt>
      <trkpt lat="47.61985" lon="-2.83143">
        <ele>3.5</ele>
        <time>2025-01-28T12:21:23Z</time>
      </trkpt>
      <trkpt lat="47.61985" lon="-2.83144">
        <ele>3.6</ele>
        <time>2025-01-28T12:21:24Z</time>
      </trkpt>
      <trkpt lat="47.61986" lon="-2.83146">
        <ele>3.7</ele>
        <time>2025-01-28T12:21:25Z</time>
      </trkpt>
      <trkpt lat="47.61987" lon="-2.83147">
        <ele>3.8</ele>
        <time>2025-01-28T12:21:26Z</time>
      </trkpt>
      <trkpt lat="47.61987" lon="-2.83148">
        <ele>3.9</ele>
        <time>2025-01-28T12:21:27Z</time>
      </trkpt>
      <trkpt lat="47.61988" lon="-2.83149">
        <ele>4</ele>
        <time>2025-01-28T12:21:28Z</time>
      </trkpt>
      <trkpt lat="47.61989" lon="-2.83151">
        <ele>4</ele>
        <time>2025-01-28T12:21:29Z</time>
      </trkpt>
      <trkpt lat="47.61989" lon="-2.83152">
        <ele>4.1</ele>
        <time>2025-01-28T12:21:30Z</time>
      </trkpt>
      <trkpt lat="47.6199" lon="-2.83153">
        <ele>4.2</ele>
        <time>2025-01-28T12:21:31Z</time>
      </trkpt>
      <trkpt lat="47.61991" lon="-2.83154">
        <ele>4.3</ele>
        <time>2025-01-28T12:21:32Z</time>
      </trkpt>
      <trkpt lat="47.61992" lon="-2.83156">
        <ele>4.3</ele>
        <time>2025-01-28T12:21:33Z</time>
      </trkpt>
      <trkpt lat="47.61992" lon="-2.83157">
        <ele>4.4</ele>
        <time>2025-01-28T12:21:34Z</time>
      </trkpt>
      <trkpt lat="47.61993" lon="-2.83158">
        <ele>4.4</ele>
        <time>2025-01-28T12:21:35Z</time>
      </trkpt>
      <trkpt lat="47.61994" lon="-2.8316">
        <ele>4.5</ele>
        <time>2025-01-28T12:21:36Z</time>
      </trkpt>
      <trkpt lat="47.61995" lon="-2.83161">
        <ele>4.5</ele>
        <time>2025-01-28T12:21:37Z</time>
      </trkpt>
      <trkpt lat="47.61995" lon="-2.83162">
        <ele>4.6</ele>
        <time>2025-01-28T12:21:38Z</time>
      </trkpt>
      <trkpt lat="47.61997" lon="-2.83163">
        <ele>4.7</ele>
        <time>2025-01-28T12:21:39Z</time>
      </trkpt>
      <trkpt lat="47.61998" lon="-2.83165">
        <ele>4.8</ele>
        <time>2025-01-28T12:21:40Z</time>
      </trkpt>
      <trkpt lat="47.61998" lon="-2.83166">
        <ele>4.8</ele>
        <time>2025-01-28T12:21:41Z</time>
      </trkpt>
      <trkpt lat="47.61999" lon="-2.83167">
        <ele>4.8</ele>
        <time>2025-01-28T12:21:42Z</time>
      </trkpt>
      <trkpt lat="47.62" lon="-2.83168">
        <ele>4.8</ele>
        <time>2025-01-28T12:21:43Z</time>
      </trkpt>
      <trkpt lat="47.62001" lon="-2.83169">
        <ele>4.8</ele>
        <time>2025-01-28T12:21:44Z</time>
      </trkpt>
      <trkpt lat="47.62002" lon="-2.8317">
        <ele>4.7</ele>
        <time>2025-01-28T12:21:45Z</time>
      </trkpt>
      <trkpt lat="47.62003" lon="-2.83172">
        <ele>4.6</ele>
        <time>2025-01-28T12:21:46Z</time>
      </trkpt>
      <trkpt lat="47.62003" lon="-2.83173">
        <ele>4.6</ele>
        <time>2025-01-28T12:21:47Z</time>
      </trkpt>
      <trkpt lat="47.62004" lon="-2.83174">
        <ele>4.6</ele>
        <time>2025-01-28T12:21:48Z</time>
      </trkpt>
      <trkpt lat="47.62005" lon="-2.83175">
        <ele>4.5</ele>
        <time>2025-01-28T12:21:49Z</time>
      </trkpt>
      <trkpt lat="47.62006" lon="-2.83176">
        <ele>4.5</ele>
        <time>2025-01-28T12:21:50Z</time>
      </trkpt>
      <trkpt lat="47.62007" lon="-2.83177">
        <ele>4.5</ele>
        <time>2025-01-28T12:21:51Z</time>
      </trkpt>
      <trkpt lat="47.62007" lon="-2.83179">
        <ele>4.4</ele>
        <time>2025-01-28T12:21:52Z</time>
      </trkpt>
      <trkpt lat="47.62008" lon="-2.8318">
        <ele>4.3</ele>
        <time>2025-01-28T12:21:53Z</time>
      </trkpt>
      <trkpt lat="47.62009" lon="-2.83181">
        <ele>4.4</ele>
        <time>2025-01-28T12:21:54Z</time>
      </trkpt>
      <trkpt lat="47.6201" lon="-2.83183">
        <ele>4.3</ele>
        <time>2025-01-28T12:21:55Z</time>
      </trkpt>
      <trkpt lat="47.6201" lon="-2.83185">
        <ele>4.2</ele>
        <time>2025-01-28T12:21:56Z</time>
      </trkpt>
      <trkpt lat="47.62011" lon="-2.83186">
        <ele>4.2</ele>
        <time>2025-01-28T12:21:57Z</time>
      </trkpt>
      <trkpt lat="47.62012" lon="-2.83188">
        <ele>4.2</ele>
        <time>2025-01-28T12:21:58Z</time>
      </trkpt>
      <trkpt lat="47.62013" lon="-2.83189">
        <ele>4.2</ele>
        <time>2025-01-28T12:21:59Z</time>
      </trkpt>
      <trkpt lat="47.62014" lon="-2.83191">
        <ele>4.3</ele>
        <time>2025-01-28T12:22:00Z</time>
      </trkpt>
      <trkpt lat="47.62014" lon="-2.83192">
        <ele>4.3</ele>
        <time>2025-01-28T12:22:01Z</time>
      </trkpt>
      <trkpt lat="47.62015" lon="-2.83193">
        <ele>4.3</ele>
        <time>2025-01-28T12:22:02Z</time>
      </trkpt>
      <trkpt lat="47.62015" lon="-2.83195">
        <ele>4.2</ele>
        <time>2025-01-28T12:22:03Z</time>
      </trkpt>
      <trkpt lat="47.62015" lon="-2.83197">
        <ele>4.2</ele>
        <time>2025-01-28T12:22:04Z</time>
      </trkpt>
      <trkpt lat="47.62016" lon="-2.83198">
        <ele>4.3</ele>
        <time>2025-01-28T12:22:05Z</time>
      </trkpt>
      <trkpt lat="47.62017" lon="-2.832">
        <ele>4.5</ele>
        <time>2025-01-28T12:22:06Z</time>
      </trkpt>
      <trkpt lat="47.62018" lon="-2.83201">
        <ele>4.6</ele>
        <time>2025-01-28T12:22:07Z</time>
      </trkpt>
      <trkpt lat="47.62019" lon="-2.83203">
        <ele>4.6</ele>
        <time>2025-01-28T12:22:08Z</time>
      </trkpt>
      <trkpt lat="47.62019" lon="-2.83205">
        <ele>4.6</ele>
        <time>2025-01-28T12:22:09Z</time>
      </trkpt>
      <trkpt lat="47.6202" lon="-2.83206">
        <ele>4.7</ele>
        <time>2025-01-28T12:22:10Z</time>
      </trkpt>
      <trkpt lat="47.62021" lon="-2.83208">
        <ele>4.7</ele>
        <time>2025-01-28T12:22:11Z</time>
      </trkpt>
      <trkpt lat="47.62022" lon="-2.83209">
        <ele>4.8</ele>
        <time>2025-01-28T12:22:12Z</time>
      </trkpt>
      <trkpt lat="47.62023" lon="-2.83211">
        <ele>5</ele>
        <time>2025-01-28T12:22:13Z</time>
      </trkpt>
      <trkpt lat="47.62024" lon="-2.83212">
        <ele>5</ele>
        <time>2025-01-28T12:22:14Z</time>
      </trkpt>
      <trkpt lat="47.62024" lon="-2.83214">
        <ele>5</ele>
        <time>2025-01-28T12:22:15Z</time>
      </trkpt>
      <trkpt lat="47.62025" lon="-2.83215">
        <ele>5</ele>
        <time>2025-01-28T12:22:16Z</time>
      </trkpt>
      <trkpt lat="47.62025" lon="-2.83217">
        <ele>4.9</ele>
        <time>2025-01-28T12:22:17Z</time>
      </trkpt>
      <trkpt lat="47.62025" lon="-2.83219">
        <ele>4.9</ele>
        <time>2025-01-28T12:22:18Z</time>
      </trkpt>
      <trkpt lat="47.62025" lon="-2.83221">
        <ele>4.8</ele>
        <time>2025-01-28T12:22:19Z</time>
      </trkpt>
      <trkpt lat="47.62026" lon="-2.83223">
        <ele>4.7</ele>
        <time>2025-01-28T12:22:20Z</time>
      </trkpt>
      <trkpt lat="47.62026" lon="-2.83224">
        <ele>4.6</ele>
        <time>2025-01-28T12:22:21Z</time>
      </trkpt>
      <trkpt lat="47.62027" lon="-2.83226">
        <ele>4.4</ele>
        <time>2025-01-28T12:22:22Z</time>
      </trkpt>
      <trkpt lat="47.62027" lon="-2.83228">
        <ele>4.2</ele>
        <time>2025-01-28T12:22:23Z</time>
      </trkpt>
      <trkpt lat="47.62027" lon="-2.8323">
        <ele>4.1</ele>
        <time>2025-01-28T12:22:24Z</time>
      </trkpt>
      <trkpt lat="47.62028" lon="-2.83231">
        <ele>4</ele>
        <time>2025-01-28T12:22:25Z</time>
      </trkpt>
      <trkpt lat="47.62029" lon="-2.83233">
        <ele>3.9</ele>
        <time>2025-01-28T12:22:26Z</time>
      </trkpt>
      <trkpt lat="47.62029" lon="-2.83235">
        <ele>3.8</ele>
        <time>2025-01-28T12:22:27Z</time>
      </trkpt>
      <trkpt lat="47.6203" lon="-2.83236">
        <ele>3.7</ele>
        <time>2025-01-28T12:22:28Z</time>
      </trkpt>
      <trkpt lat="47.6203" lon="-2.83238">
        <ele>3.5</ele>
        <time>2025-01-28T12:22:29Z</time>
      </trkpt>
      <trkpt lat="47.62031" lon="-2.8324">
        <ele>3.4</ele>
        <time>2025-01-28T12:22:30Z</time>
      </trkpt>
      <trkpt lat="47.62032" lon="-2.83241">
        <ele>3.4</ele>
        <time>2025-01-28T12:22:31Z</time>
      </trkpt>
      <trkpt lat="47.62033" lon="-2.83242">
        <ele>3.4</ele>
        <time>2025-01-28T12:22:32Z</time>
      </trkpt>
      <trkpt lat="47.62034" lon="-2.83242">
        <ele>3.5</ele>
        <time>2025-01-28T12:22:33Z</time>
      </trkpt>
      <trkpt lat="47.62035" lon="-2.83242">
        <ele>3.6</ele>
        <time>2025-01-28T12:22:34Z</time>
      </trkpt>
      <trkpt lat="47.62036" lon="-2.83244">
        <ele>3.6</ele>
        <time>2025-01-28T12:22:35Z</time>
      </trkpt>
      <trkpt lat="47.62037" lon="-2.83245">
        <ele>3.5</ele>
        <time>2025-01-28T12:22:36Z</time>
      </trkpt>
      <trkpt lat="47.62037" lon="-2.83246">
        <ele>3.4</ele>
        <time>2025-01-28T12:22:37Z</time>
      </trkpt>
      <trkpt lat="47.62037" lon="-2.83248">
        <ele>3.2</ele>
        <time>2025-01-28T12:22:38Z</time>
      </trkpt>
      <trkpt lat="47.62038" lon="-2.8325">
        <ele>3.1</ele>
        <time>2025-01-28T12:22:39Z</time>
      </trkpt>
      <trkpt lat="47.62038" lon="-2.83252">
        <ele>3.1</ele>
        <time>2025-01-28T12:22:40Z</time>
      </trkpt>
      <trkpt lat="47.62038" lon="-2.83254">
        <ele>3</ele>
        <time>2025-01-28T12:22:41Z</time>
      </trkpt>
      <trkpt lat="47.62038" lon="-2.83256">
        <ele>3</ele>
        <time>2025-01-28T12:22:42Z</time>
      </trkpt>
      <trkpt lat="47.62039" lon="-2.83257">
        <ele>3</ele>
        <time>2025-01-28T12:22:43Z</time>
      </trkpt>
      <trkpt lat="47.62039" lon="-2.83259">
        <ele>3</ele>
        <time>2025-01-28T12:22:44Z</time>
      </trkpt>
      <trkpt lat="47.62039" lon="-2.83261">
        <ele>3</ele>
        <time>2025-01-28T12:22:45Z</time>
      </trkpt>
      <trkpt lat="47.62039" lon="-2.83263">
        <ele>3</ele>
        <time>2025-01-28T12:22:46Z</time>
      </trkpt>
      <trkpt lat="47.6204" lon="-2.83265">
        <ele>3</ele>
        <time>2025-01-28T12:22:47Z</time>
      </trkpt>
      <trkpt lat="47.6204" lon="-2.83266">
        <ele>3</ele>
        <time>2025-01-28T12:22:48Z</time>
      </trkpt>
      <trkpt lat="47.62041" lon="-2.83268">
        <ele>3.1</ele>
        <time>2025-01-28T12:22:49Z</time>
      </trkpt>
      <trkpt lat="47.62041" lon="-2.83271">
        <ele>3</ele>
        <time>2025-01-28T12:22:50Z</time>
      </trkpt>
      <trkpt lat="47.62041" lon="-2.83272">
        <ele>3</ele>
        <time>2025-01-28T12:22:51Z</time>
      </trkpt>
      <trkpt lat="47.62041" lon="-2.83274">
        <ele>3</ele>
        <time>2025-01-28T12:22:52Z</time>
      </trkpt>
      <trkpt lat="47.62042" lon="-2.83276">
        <ele>3.1</ele>
        <time>2025-01-28T12:22:53Z</time>
      </trkpt>
      <trkpt lat="47.62042" lon="-2.83277">
        <ele>3.1</ele>
        <time>2025-01-28T12:22:54Z</time>
      </trkpt>
      <trkpt lat="47.62043" lon="-2.83279">
        <ele>3.1</ele>
        <time>2025-01-28T12:22:55Z</time>
      </trkpt>
      <trkpt lat="47.62043" lon="-2.83281">
        <ele>3.1</ele>
        <time>2025-01-28T12:22:56Z</time>
      </trkpt>
      <trkpt lat="47.62043" lon="-2.83283">
        <ele>3.2</ele>
        <time>2025-01-28T12:22:57Z</time>
      </trkpt>
      <trkpt lat="47.62043" lon="-2.83284">
        <ele>3.2</ele>
        <time>2025-01-28T12:22:58Z</time>
      </trkpt>
      <trkpt lat="47.62043" lon="-2.83286">
        <ele>3.2</ele>
        <time>2025-01-28T12:22:59Z</time>
      </trkpt>
      <trkpt lat="47.62044" lon="-2.83288">
        <ele>3.3</ele>
        <time>2025-01-28T12:23:00Z</time>
      </trkpt>
      <trkpt lat="47.62044" lon="-2.83289">
        <ele>3.3</ele>
        <time>2025-01-28T12:23:01Z</time>
      </trkpt>
      <trkpt lat="47.62044" lon="-2.83291">
        <ele>3.4</ele>
        <time>2025-01-28T12:23:02Z</time>
      </trkpt>
      <trkpt lat="47.62045" lon="-2.83293">
        <ele>3.4</ele>
        <time>2025-01-28T12:23:03Z</time>
      </trkpt>
      <trkpt lat="47.62045" lon="-2.83294">
        <ele>3.4</ele>
        <time>2025-01-28T12:23:04Z</time>
      </trkpt>
      <trkpt lat="47.62045" lon="-2.83296">
        <ele>3.5</ele>
        <time>2025-01-28T12:23:05Z</time>
      </trkpt>
      <trkpt lat="47.62045" lon="-2.83297">
        <ele>3.5</ele>
        <time>2025-01-28T12:23:06Z</time>
      </trkpt>
      <trkpt lat="47.62045" lon="-2.83299">
        <ele>3.5</ele>
        <time>2025-01-28T12:23:07Z</time>
      </trkpt>
      <trkpt lat="47.62045" lon="-2.83301">
        <ele>3.5</ele>
        <time>2025-01-28T12:23:08Z</time>
      </trkpt>
      <trkpt lat="47.62044" lon="-2.83302">
        <ele>3.4</ele>
        <time>2025-01-28T12:23:09Z</time>
      </trkpt>
      <trkpt lat="47.62044" lon="-2.83304">
        <ele>3.4</ele>
        <time>2025-01-28T12:23:10Z</time>
      </trkpt>
      <trkpt lat="47.62044" lon="-2.83306">
        <ele>3.4</ele>
        <time>2025-01-28T12:23:11Z</time>
      </trkpt>
      <trkpt lat="47.62045" lon="-2.83307">
        <ele>3.4</ele>
        <time>2025-01-28T12:23:12Z</time>
      </trkpt>
      <trkpt lat="47.62045" lon="-2.83309">
        <ele>3.4</ele>
        <time>2025-01-28T12:23:13Z</time>
      </trkpt>
      <trkpt lat="47.62044" lon="-2.83311">
        <ele>3.4</ele>
        <time>2025-01-28T12:23:14Z</time>
      </trkpt>
      <trkpt lat="47.62045" lon="-2.83312">
        <ele>3.4</ele>
        <time>2025-01-28T12:23:15Z</time>
      </trkpt>
      <trkpt lat="47.62045" lon="-2.83313">
        <ele>3.4</ele>
        <time>2025-01-28T12:23:16Z</time>
      </trkpt>
      <trkpt lat="47.62044" lon="-2.83315">
        <ele>3.4</ele>
        <time>2025-01-28T12:23:17Z</time>
      </trkpt>
      <trkpt lat="47.62044" lon="-2.83316">
        <ele>3.4</ele>
        <time>2025-01-28T12:23:18Z</time>
      </trkpt>
      <trkpt lat="47.62044" lon="-2.83318">
        <ele>3.4</ele>
        <time>2025-01-28T12:23:19Z</time>
      </trkpt>
      <trkpt lat="47.62044" lon="-2.83319">
        <ele>3.3</ele>
        <time>2025-01-28T12:23:20Z</time>
      </trkpt>
      <trkpt lat="47.62044" lon="-2.83319">
        <ele>3.3</ele>
        <time>2025-01-28T12:23:21Z</time>
      </trkpt>
      <trkpt lat="47.62044" lon="-2.83319">
        <ele>3.4</ele>
        <time>2025-01-28T12:23:22Z</time>
      </trkpt>
      <trkpt lat="47.62044" lon="-2.83319">
        <ele>3.4</ele>
        <time>2025-01-28T12:23:23Z</time>
      </trkpt>
      <trkpt lat="47.62044" lon="-2.83319">
        <ele>3.4</ele>
        <time>2025-01-28T12:23:24Z</time>
      </trkpt>
      <trkpt lat="47.62044" lon="-2.83319">
        <ele>3.4</ele>
        <time>2025-01-28T12:23:25Z</time>
      </trkpt>
      <trkpt lat="47.62044" lon="-2.83319">
        <ele>3.4</ele>
        <time>2025-01-28T12:23:26Z</time>
      </trkpt>
      <trkpt lat="47.62044" lon="-2.83319">
        <ele>3.4</ele>
        <time>2025-01-28T12:23:27Z</time>
      </trkpt>
      <trkpt lat="47.62045" lon="-2.8332">
        <ele>3.4</ele>
        <time>2025-01-28T12:23:28Z</time>
      </trkpt>
      <trkpt lat="47.62045" lon="-2.83321">
        <ele>3.5</ele>
        <time>2025-01-28T12:23:29Z</time>
      </trkpt>
      <trkpt lat="47.62044" lon="-2.83323">
        <ele>3.4</ele>
        <time>2025-01-28T12:23:30Z</time>
      </trkpt>
      <trkpt lat="47.62044" lon="-2.83325">
        <ele>3.3</ele>
        <time>2025-01-28T12:23:31Z</time>
      </trkpt>
      <trkpt lat="47.62044" lon="-2.83326">
        <ele>3.3</ele>
        <time>2025-01-28T12:23:32Z</time>
      </trkpt>
      <trkpt lat="47.62044" lon="-2.83328">
        <ele>3.4</ele>
        <time>2025-01-28T12:23:33Z</time>
      </trkpt>
      <trkpt lat="47.62044" lon="-2.83329">
        <ele>3.4</ele>
        <time>2025-01-28T12:23:34Z</time>
      </trkpt>
      <trkpt lat="47.62045" lon="-2.83331">
        <ele>3.5</ele>
        <time>2025-01-28T12:23:35Z</time>
      </trkpt>
      <trkpt lat="47.62045" lon="-2.83333">
        <ele>3.5</ele>
        <time>2025-01-28T12:23:36Z</time>
      </trkpt>
      <trkpt lat="47.62045" lon="-2.83335">
        <ele>3.6</ele>
        <time>2025-01-28T12:23:37Z</time>
      </trkpt>
      <trkpt lat="47.62045" lon="-2.83336">
        <ele>3.6</ele>
        <time>2025-01-28T12:23:38Z</time>
      </trkpt>
      <trkpt lat="47.62045" lon="-2.83338">
        <ele>3.6</ele>
        <time>2025-01-28T12:23:39Z</time>
      </trkpt>
      <trkpt lat="47.62045" lon="-2.83339">
        <ele>3.6</ele>
        <time>2025-01-28T12:23:40Z</time>
      </trkpt>
      <trkpt lat="47.62045" lon="-2.83341">
        <ele>3.7</ele>
        <time>2025-01-28T12:23:41Z</time>
      </trkpt>
      <trkpt lat="47.62045" lon="-2.83341">
        <ele>3.7</ele>
        <time>2025-01-28T12:23:42Z</time>
      </trkpt>
      <trkpt lat="47.62045" lon="-2.83341">
        <ele>3.7</ele>
        <time>2025-01-28T12:23:43Z</time>
      </trkpt>
      <trkpt lat="47.62045" lon="-2.8334">
        <ele>3.6</ele>
        <time>2025-01-28T12:23:44Z</time>
      </trkpt>
      <trkpt lat="47.62044" lon="-2.83339">
        <ele>3.5</ele>
        <time>2025-01-28T12:23:45Z</time>
      </trkpt>
      <trkpt lat="47.62043" lon="-2.83338">
        <ele>3.3</ele>
        <time>2025-01-28T12:23:46Z</time>
      </trkpt>
      <trkpt lat="47.62041" lon="-2.83338">
        <ele>3.1</ele>
        <time>2025-01-28T12:23:47Z</time>
      </trkpt>
      <trkpt lat="47.6204" lon="-2.83339">
        <ele>3</ele>
        <time>2025-01-28T12:23:48Z</time>
      </trkpt>
      <trkpt lat="47.6204" lon="-2.8334">
        <ele>2.9</ele>
        <time>2025-01-28T12:23:49Z</time>
      </trkpt>
      <trkpt lat="47.62039" lon="-2.83341">
        <ele>3</ele>
        <time>2025-01-28T12:23:50Z</time>
      </trkpt>
      <trkpt lat="47.62039" lon="-2.83343">
        <ele>3.1</ele>
        <time>2025-01-28T12:23:51Z</time>
      </trkpt>
      <trkpt lat="47.62039" lon="-2.83345">
        <ele>3.1</ele>
        <time>2025-01-28T12:23:52Z</time>
      </trkpt>
      <trkpt lat="47.62038" lon="-2.83346">
        <ele>3</ele>
        <time>2025-01-28T12:23:53Z</time>
      </trkpt>
      <trkpt lat="47.62037" lon="-2.83346">
        <ele>3</ele>
        <time>2025-01-28T12:23:54Z</time>
      </trkpt>
      <trkpt lat="47.62037" lon="-2.83347">
        <ele>2.9</ele>
        <time>2025-01-28T12:23:55Z</time>
      </trkpt>
      <trkpt lat="47.62036" lon="-2.83348">
        <ele>2.9</ele>
        <time>2025-01-28T12:23:56Z</time>
      </trkpt>
      <trkpt lat="47.62035" lon="-2.83348">
        <ele>2.8</ele>
        <time>2025-01-28T12:23:57Z</time>
      </trkpt>
      <trkpt lat="47.62034" lon="-2.83349">
        <ele>2.8</ele>
        <time>2025-01-28T12:23:58Z</time>
      </trkpt>
      <trkpt lat="47.62034" lon="-2.83351">
        <ele>2.8</ele>
        <time>2025-01-28T12:23:59Z</time>
      </trkpt>
      <trkpt lat="47.62033" lon="-2.83352">
        <ele>2.8</ele>
        <time>2025-01-28T12:24:00Z</time>
      </trkpt>
      <trkpt lat="47.62033" lon="-2.83353">
        <ele>2.8</ele>
        <time>2025-01-28T12:24:01Z</time>
      </trkpt>
      <trkpt lat="47.62032" lon="-2.83354">
        <ele>2.9</ele>
        <time>2025-01-28T12:24:02Z</time>
      </trkpt>
      <trkpt lat="47.62031" lon="-2.83355">
        <ele>2.9</ele>
        <time>2025-01-28T12:24:03Z</time>
      </trkpt>
      <trkpt lat="47.62031" lon="-2.83356">
        <ele>2.9</ele>
        <time>2025-01-28T12:24:04Z</time>
      </trkpt>
      <trkpt lat="47.6203" lon="-2.83357">
        <ele>2.9</ele>
        <time>2025-01-28T12:24:05Z</time>
      </trkpt>
      <trkpt lat="47.6203" lon="-2.83358">
        <ele>3</ele>
        <time>2025-01-28T12:24:06Z</time>
      </trkpt>
      <trkpt lat="47.62029" lon="-2.8336">
        <ele>3</ele>
        <time>2025-01-28T12:24:07Z</time>
      </trkpt>
      <trkpt lat="47.62028" lon="-2.83361">
        <ele>3</ele>
        <time>2025-01-28T12:24:08Z</time>
      </trkpt>
      <trkpt lat="47.62028" lon="-2.83362">
        <ele>3.1</ele>
        <time>2025-01-28T12:24:09Z</time>
      </trkpt>
      <trkpt lat="47.62027" lon="-2.83364">
        <ele>3.1</ele>
        <time>2025-01-28T12:24:10Z</time>
      </trkpt>
      <trkpt lat="47.62027" lon="-2.83365">
        <ele>3</ele>
        <time>2025-01-28T12:24:11Z</time>
      </trkpt>
      <trkpt lat="47.62026" lon="-2.83366">
        <ele>3</ele>
        <time>2025-01-28T12:24:12Z</time>
      </trkpt>
      <trkpt lat="47.62025" lon="-2.83368">
        <ele>3</ele>
        <time>2025-01-28T12:24:13Z</time>
      </trkpt>
      <trkpt lat="47.62025" lon="-2.8337">
        <ele>3</ele>
        <time>2025-01-28T12:24:14Z</time>
      </trkpt>
      <trkpt lat="47.62024" lon="-2.83371">
        <ele>3</ele>
        <time>2025-01-28T12:24:15Z</time>
      </trkpt>
      <trkpt lat="47.62023" lon="-2.83372">
        <ele>3</ele>
        <time>2025-01-28T12:24:16Z</time>
      </trkpt>
      <trkpt lat="47.62022" lon="-2.83373">
        <ele>2.9</ele>
        <time>2025-01-28T12:24:17Z</time>
      </trkpt>
      <trkpt lat="47.6202" lon="-2.83374">
        <ele>2.8</ele>
        <time>2025-01-28T12:24:18Z</time>
      </trkpt>
      <trkpt lat="47.62019" lon="-2.83374">
        <ele>2.7</ele>
        <time>2025-01-28T12:24:19Z</time>
      </trkpt>
      <trkpt lat="47.62018" lon="-2.83375">
        <ele>2.6</ele>
        <time>2025-01-28T12:24:20Z</time>
      </trkpt>
      <trkpt lat="47.62017" lon="-2.83375">
        <ele>2.5</ele>
        <time>2025-01-28T12:24:21Z</time>
      </trkpt>
      <trkpt lat="47.62015" lon="-2.83374">
        <ele>2.4</ele>
        <time>2025-01-28T12:24:22Z</time>
      </trkpt>
      <trkpt lat="47.62014" lon="-2.83374">
        <ele>2.3</ele>
        <time>2025-01-28T12:24:23Z</time>
      </trkpt>
      <trkpt lat="47.62013" lon="-2.83374">
        <ele>2.1</ele>
        <time>2025-01-28T12:24:24Z</time>
      </trkpt>
      <trkpt lat="47.62011" lon="-2.83374">
        <ele>2</ele>
        <time>2025-01-28T12:24:25Z</time>
      </trkpt>
      <trkpt lat="47.6201" lon="-2.83374">
        <ele>1.9</ele>
        <time>2025-01-28T12:24:26Z</time>
      </trkpt>
      <trkpt lat="47.62009" lon="-2.83374">
        <ele>1.8</ele>
        <time>2025-01-28T12:24:27Z</time>
      </trkpt>
      <trkpt lat="47.62008" lon="-2.83374">
        <ele>1.7</ele>
        <time>2025-01-28T12:24:28Z</time>
      </trkpt>
      <trkpt lat="47.62007" lon="-2.83374">
        <ele>1.6</ele>
        <time>2025-01-28T12:24:29Z</time>
      </trkpt>
      <trkpt lat="47.62005" lon="-2.83375">
        <ele>1.5</ele>
        <time>2025-01-28T12:24:30Z</time>
      </trkpt>
      <trkpt lat="47.62004" lon="-2.83375">
        <ele>1.4</ele>
        <time>2025-01-28T12:24:31Z</time>
      </trkpt>
      <trkpt lat="47.62003" lon="-2.83376">
        <ele>1.3</ele>
        <time>2025-01-28T12:24:32Z</time>
      </trkpt>
      <trkpt lat="47.62002" lon="-2.83376">
        <ele>1.2</ele>
        <time>2025-01-28T12:24:33Z</time>
      </trkpt>
      <trkpt lat="47.62001" lon="-2.83377">
        <ele>1.1</ele>
        <time>2025-01-28T12:24:34Z</time>
      </trkpt>
      <trkpt lat="47.62" lon="-2.83377">
        <ele>1</ele>
        <time>2025-01-28T12:24:35Z</time>
      </trkpt>
      <trkpt lat="47.61998" lon="-2.83377">
        <ele>1</ele>
        <time>2025-01-28T12:24:36Z</time>
      </trkpt>
      <trkpt lat="47.61997" lon="-2.83377">
        <ele>1</ele>
        <time>2025-01-28T12:24:37Z</time>
      </trkpt>
      <trkpt lat="47.61996" lon="-2.83378">
        <ele>1</ele>
        <time>2025-01-28T12:24:38Z</time>
      </trkpt>
      <trkpt lat="47.61995" lon="-2.83378">
        <ele>1</ele>
        <time>2025-01-28T12:24:39Z</time>
      </trkpt>
      <trkpt lat="47.61994" lon="-2.83378">
        <ele>1</ele>
        <time>2025-01-28T12:24:40Z</time>
      </trkpt>
      <trkpt lat="47.61993" lon="-2.83379">
        <ele>1</ele>
        <time>2025-01-28T12:24:41Z</time>
      </trkpt>
      <trkpt lat="47.61991" lon="-2.83379">
        <ele>1</ele>
        <time>2025-01-28T12:24:42Z</time>
      </trkpt>
      <trkpt lat="47.6199" lon="-2.8338">
        <ele>1</ele>
        <time>2025-01-28T12:24:43Z</time>
      </trkpt>
      <trkpt lat="47.61989" lon="-2.83382">
        <ele>1</ele>
        <time>2025-01-28T12:24:44Z</time>
      </trkpt>
      <trkpt lat="47.61988" lon="-2.83383">
        <ele>1</ele>
        <time>2025-01-28T12:24:45Z</time>
      </trkpt>
      <trkpt lat="47.61987" lon="-2.83384">
        <ele>1</ele>
        <time>2025-01-28T12:24:46Z</time>
      </trkpt>
      <trkpt lat="47.61986" lon="-2.83385">
        <ele>1</ele>
        <time>2025-01-28T12:24:47Z</time>
      </trkpt>
      <trkpt lat="47.61985" lon="-2.83386">
        <ele>1</ele>
        <time>2025-01-28T12:24:48Z</time>
      </trkpt>
      <trkpt lat="47.61984" lon="-2.83386">
        <ele>1</ele>
        <time>2025-01-28T12:24:49Z</time>
      </trkpt>
      <trkpt lat="47.61982" lon="-2.83386">
        <ele>1</ele>
        <time>2025-01-28T12:24:50Z</time>
      </trkpt>
      <trkpt lat="47.61981" lon="-2.83388">
        <ele>1</ele>
        <time>2025-01-28T12:24:51Z</time>
      </trkpt>
      <trkpt lat="47.6198" lon="-2.83388">
        <ele>1</ele>
        <time>2025-01-28T12:24:52Z</time>
      </trkpt>
      <trkpt lat="47.61979" lon="-2.83389">
        <ele>1</ele>
        <time>2025-01-28T12:24:53Z</time>
      </trkpt>
      <trkpt lat="47.61978" lon="-2.83389">
        <ele>1</ele>
        <time>2025-01-28T12:24:54Z</time>
      </trkpt>
      <trkpt lat="47.61977" lon="-2.8339">
        <ele>1</ele>
        <time>2025-01-28T12:24:55Z</time>
      </trkpt>
      <trkpt lat="47.61976" lon="-2.8339">
        <ele>1</ele>
        <time>2025-01-28T12:24:56Z</time>
      </trkpt>
      <trkpt lat="47.61974" lon="-2.83391">
        <ele>1</ele>
        <time>2025-01-28T12:24:57Z</time>
      </trkpt>
      <trkpt lat="47.61973" lon="-2.83391">
        <ele>1</ele>
        <time>2025-01-28T12:24:58Z</time>
      </trkpt>
      <trkpt lat="47.61972" lon="-2.83392">
        <ele>1</ele>
        <time>2025-01-28T12:24:59Z</time>
      </trkpt>
      <trkpt lat="47.61971" lon="-2.83392">
        <ele>1</ele>
        <time>2025-01-28T12:25:00Z</time>
      </trkpt>
      <trkpt lat="47.6197" lon="-2.83393">
        <ele>1</ele>
        <time>2025-01-28T12:25:01Z</time>
      </trkpt>
      <trkpt lat="47.61969" lon="-2.83394">
        <ele>1</ele>
        <time>2025-01-28T12:25:02Z</time>
      </trkpt>
      <trkpt lat="47.61968" lon="-2.83395">
        <ele>1</ele>
        <time>2025-01-28T12:25:03Z</time>
      </trkpt>
      <trkpt lat="47.61967" lon="-2.83396">
        <ele>1</ele>
        <time>2025-01-28T12:25:04Z</time>
      </trkpt>
      <trkpt lat="47.61966" lon="-2.83397">
        <ele>1</ele>
        <time>2025-01-28T12:25:05Z</time>
      </trkpt>
      <trkpt lat="47.61965" lon="-2.83398">
        <ele>1</ele>
        <time>2025-01-28T12:25:06Z</time>
      </trkpt>
      <trkpt lat="47.61964" lon="-2.83399">
        <ele>1</ele>
        <time>2025-01-28T12:25:07Z</time>
      </trkpt>
      <trkpt lat="47.61963" lon="-2.834">
        <ele>1</ele>
        <time>2025-01-28T12:25:08Z</time>
      </trkpt>
      <trkpt lat="47.61962" lon="-2.83401">
        <ele>1</ele>
        <time>2025-01-28T12:25:09Z</time>
      </trkpt>
      <trkpt lat="47.61961" lon="-2.83402">
        <ele>1</ele>
        <time>2025-01-28T12:25:10Z</time>
      </trkpt>
      <trkpt lat="47.6196" lon="-2.83403">
        <ele>1</ele>
        <time>2025-01-28T12:25:11Z</time>
      </trkpt>
      <trkpt lat="47.6196" lon="-2.83404">
        <ele>1</ele>
        <time>2025-01-28T12:25:12Z</time>
      </trkpt>
      <trkpt lat="47.61959" lon="-2.83405">
        <ele>1</ele>
        <time>2025-01-28T12:25:13Z</time>
      </trkpt>
      <trkpt lat="47.61958" lon="-2.83407">
        <ele>1</ele>
        <time>2025-01-28T12:25:14Z</time>
      </trkpt>
      <trkpt lat="47.61957" lon="-2.83408">
        <ele>1</ele>
        <time>2025-01-28T12:25:15Z</time>
      </trkpt>
      <trkpt lat="47.61957" lon="-2.8341">
        <ele>1</ele>
        <time>2025-01-28T12:25:16Z</time>
      </trkpt>
      <trkpt lat="47.61956" lon="-2.83411">
        <ele>1</ele>
        <time>2025-01-28T12:25:17Z</time>
      </trkpt>
      <trkpt lat="47.61955" lon="-2.83412">
        <ele>1</ele>
        <time>2025-01-28T12:25:18Z</time>
      </trkpt>
      <trkpt lat="47.61954" lon="-2.83413">
        <ele>1</ele>
        <time>2025-01-28T12:25:19Z</time>
      </trkpt>
      <trkpt lat="47.61953" lon="-2.83415">
        <ele>1</ele>
        <time>2025-01-28T12:25:20Z</time>
      </trkpt>
      <trkpt lat="47.61953" lon="-2.83416">
        <ele>1</ele>
        <time>2025-01-28T12:25:21Z</time>
      </trkpt>
      <trkpt lat="47.61952" lon="-2.83418">
        <ele>1</ele>
        <time>2025-01-28T12:25:22Z</time>
      </trkpt>
      <trkpt lat="47.61951" lon="-2.83419">
        <ele>1.1</ele>
        <time>2025-01-28T12:25:23Z</time>
      </trkpt>
      <trkpt lat="47.6195" lon="-2.83421">
        <ele>1.1</ele>
        <time>2025-01-28T12:25:24Z</time>
      </trkpt>
      <trkpt lat="47.61949" lon="-2.83422">
        <ele>1.2</ele>
        <time>2025-01-28T12:25:25Z</time>
      </trkpt>
      <trkpt lat="47.61948" lon="-2.83423">
        <ele>1.2</ele>
        <time>2025-01-28T12:25:26Z</time>
      </trkpt>
      <trkpt lat="47.61947" lon="-2.83424">
        <ele>1.2</ele>
        <time>2025-01-28T12:25:27Z</time>
      </trkpt>
      <trkpt lat="47.61946" lon="-2.83425">
        <ele>1.3</ele>
        <time>2025-01-28T12:25:28Z</time>
      </trkpt>
      <trkpt lat="47.61946" lon="-2.83427">
        <ele>1.4</ele>
        <time>2025-01-28T12:25:29Z</time>
      </trkpt>
      <trkpt lat="47.61945" lon="-2.83428">
        <ele>1.4</ele>
        <time>2025-01-28T12:25:30Z</time>
      </trkpt>
      <trkpt lat="47.61944" lon="-2.8343">
        <ele>1.5</ele>
        <time>2025-01-28T12:25:31Z</time>
      </trkpt>
      <trkpt lat="47.61944" lon="-2.83432">
        <ele>1.5</ele>
        <time>2025-01-28T12:25:32Z</time>
      </trkpt>
      <trkpt lat="47.61943" lon="-2.83434">
        <ele>1.6</ele>
        <time>2025-01-28T12:25:33Z</time>
      </trkpt>
      <trkpt lat="47.61943" lon="-2.83436">
        <ele>1.7</ele>
        <time>2025-01-28T12:25:34Z</time>
      </trkpt>
      <trkpt lat="47.61942" lon="-2.83438">
        <ele>1.7</ele>
        <time>2025-01-28T12:25:35Z</time>
      </trkpt>
      <trkpt lat="47.61941" lon="-2.8344">
        <ele>1.8</ele>
        <time>2025-01-28T12:25:36Z</time>
      </trkpt>
      <trkpt lat="47.61941" lon="-2.83442">
        <ele>1.8</ele>
        <time>2025-01-28T12:25:37Z</time>
      </trkpt>
      <trkpt lat="47.6194" lon="-2.83444">
        <ele>1.8</ele>
        <time>2025-01-28T12:25:38Z</time>
      </trkpt>
      <trkpt lat="47.6194" lon="-2.83446">
        <ele>2.1</ele>
        <time>2025-01-28T12:25:39Z</time>
      </trkpt>
      <trkpt lat="47.61941" lon="-2.83448">
        <ele>2.4</ele>
        <time>2025-01-28T12:25:40Z</time>
      </trkpt>
      <trkpt lat="47.6194" lon="-2.8345">
        <ele>2.7</ele>
        <time>2025-01-28T12:25:41Z</time>
      </trkpt>
      <trkpt lat="47.61939" lon="-2.83452">
        <ele>2.9</ele>
        <time>2025-01-28T12:25:42Z</time>
      </trkpt>
      <trkpt lat="47.61939" lon="-2.83453">
        <ele>3.1</ele>
        <time>2025-01-28T12:25:43Z</time>
      </trkpt>
      <trkpt lat="47.61937" lon="-2.83454">
        <ele>3.2</ele>
        <time>2025-01-28T12:25:44Z</time>
      </trkpt>
      <trkpt lat="47.61936" lon="-2.83453">
        <ele>3.1</ele>
        <time>2025-01-28T12:25:45Z</time>
      </trkpt>
      <trkpt lat="47.61935" lon="-2.83452">
        <ele>2.9</ele>
        <time>2025-01-28T12:25:46Z</time>
      </trkpt>
      <trkpt lat="47.61934" lon="-2.8345">
        <ele>2.5</ele>
        <time>2025-01-28T12:25:47Z</time>
      </trkpt>
      <trkpt lat="47.61933" lon="-2.83448">
        <ele>2.2</ele>
        <time>2025-01-28T12:25:48Z</time>
      </trkpt>
      <trkpt lat="47.61932" lon="-2.83448">
        <ele>2.2</ele>
        <time>2025-01-28T12:25:49Z</time>
      </trkpt>
      <trkpt lat="47.61931" lon="-2.83448">
        <ele>2.2</ele>
        <time>2025-01-28T12:25:50Z</time>
      </trkpt>
      <trkpt lat="47.6193" lon="-2.8345">
        <ele>2.4</ele>
        <time>2025-01-28T12:25:51Z</time>
      </trkpt>
      <trkpt lat="47.6193" lon="-2.83451">
        <ele>2.7</ele>
        <time>2025-01-28T12:25:52Z</time>
      </trkpt>
      <trkpt lat="47.6193" lon="-2.83454">
        <ele>3.1</ele>
        <time>2025-01-28T12:25:53Z</time>
      </trkpt>
      <trkpt lat="47.6193" lon="-2.83456">
        <ele>3.5</ele>
        <time>2025-01-28T12:25:54Z</time>
      </trkpt>
      <trkpt lat="47.61929" lon="-2.83457">
        <ele>3.7</ele>
        <time>2025-01-28T12:25:55Z</time>
      </trkpt>
      <trkpt lat="47.61927" lon="-2.83456">
        <ele>3.6</ele>
        <time>2025-01-28T12:25:56Z</time>
      </trkpt>
      <trkpt lat="47.61927" lon="-2.83456">
        <ele>3.5</ele>
        <time>2025-01-28T12:25:57Z</time>
      </trkpt>
      <trkpt lat="47.61926" lon="-2.83455">
        <ele>3.3</ele>
        <time>2025-01-28T12:25:58Z</time>
      </trkpt>
      <trkpt lat="47.61925" lon="-2.83455">
        <ele>3.3</ele>
        <time>2025-01-28T12:25:59Z</time>
      </trkpt>
      <trkpt lat="47.61924" lon="-2.83455">
        <ele>3.3</ele>
        <time>2025-01-28T12:26:00Z</time>
      </trkpt>
      <trkpt lat="47.61924" lon="-2.83456">
        <ele>3.4</ele>
        <time>2025-01-28T12:26:01Z</time>
      </trkpt>
      <trkpt lat="47.61923" lon="-2.83456">
        <ele>3.5</ele>
        <time>2025-01-28T12:26:02Z</time>
      </trkpt>
      <trkpt lat="47.61922" lon="-2.83457">
        <ele>3.7</ele>
        <time>2025-01-28T12:26:03Z</time>
      </trkpt>
      <trkpt lat="47.61921" lon="-2.83458">
        <ele>3.9</ele>
        <time>2025-01-28T12:26:04Z</time>
      </trkpt>
      <trkpt lat="47.61921" lon="-2.83459">
        <ele>4.1</ele>
        <time>2025-01-28T12:26:05Z</time>
      </trkpt>
      <trkpt lat="47.6192" lon="-2.8346">
        <ele>4.4</ele>
        <time>2025-01-28T12:26:06Z</time>
      </trkpt>
      <trkpt lat="47.61919" lon="-2.8346">
        <ele>4.4</ele>
        <time>2025-01-28T12:26:07Z</time>
      </trkpt>
      <trkpt lat="47.61918" lon="-2.83461">
        <ele>4.5</ele>
        <time>2025-01-28T12:26:08Z</time>
      </trkpt>
      <trkpt lat="47.61918" lon="-2.83462">
        <ele>4.8</ele>
        <time>2025-01-28T12:26:09Z</time>
      </trkpt>
      <trkpt lat="47.61917" lon="-2.83462">
        <ele>4.8</ele>
        <time>2025-01-28T12:26:10Z</time>
      </trkpt>
      <trkpt lat="47.61916" lon="-2.83463">
        <ele>4.8</ele>
        <time>2025-01-28T12:26:11Z</time>
      </trkpt>
      <trkpt lat="47.61914" lon="-2.83463">
        <ele>4.6</ele>
        <time>2025-01-28T12:26:12Z</time>
      </trkpt>
      <trkpt lat="47.61914" lon="-2.83463">
        <ele>4.5</ele>
        <time>2025-01-28T12:26:13Z</time>
      </trkpt>
      <trkpt lat="47.61913" lon="-2.83463">
        <ele>4.4</ele>
        <time>2025-01-28T12:26:14Z</time>
      </trkpt>
      <trkpt lat="47.61912" lon="-2.83463">
        <ele>4.4</ele>
        <time>2025-01-28T12:26:15Z</time>
      </trkpt>
      <trkpt lat="47.61911" lon="-2.83465">
        <ele>4.5</ele>
        <time>2025-01-28T12:26:16Z</time>
      </trkpt>
      <trkpt lat="47.61911" lon="-2.83467">
        <ele>4.7</ele>
        <time>2025-01-28T12:26:17Z</time>
      </trkpt>
      <trkpt lat="47.6191" lon="-2.83468">
        <ele>4.9</ele>
        <time>2025-01-28T12:26:18Z</time>
      </trkpt>
      <trkpt lat="47.61909" lon="-2.8347">
        <ele>4.9</ele>
        <time>2025-01-28T12:26:19Z</time>
      </trkpt>
      <trkpt lat="47.61908" lon="-2.83471">
        <ele>5</ele>
        <time>2025-01-28T12:26:20Z</time>
      </trkpt>
      <trkpt lat="47.61907" lon="-2.83473">
        <ele>5</ele>
        <time>2025-01-28T12:26:21Z</time>
      </trkpt>
      <trkpt lat="47.61906" lon="-2.83474">
        <ele>4.9</ele>
        <time>2025-01-28T12:26:22Z</time>
      </trkpt>
      <trkpt lat="47.61905" lon="-2.83473">
        <ele>4.6</ele>
        <time>2025-01-28T12:26:23Z</time>
      </trkpt>
      <trkpt lat="47.61904" lon="-2.83475">
        <ele>4.5</ele>
        <time>2025-01-28T12:26:24Z</time>
      </trkpt>
      <trkpt lat="47.61903" lon="-2.83476">
        <ele>4.6</ele>
        <time>2025-01-28T12:26:25Z</time>
      </trkpt>
      <trkpt lat="47.61902" lon="-2.83478">
        <ele>4.7</ele>
        <time>2025-01-28T12:26:26Z</time>
      </trkpt>
      <trkpt lat="47.61902" lon="-2.8348">
        <ele>4.7</ele>
        <time>2025-01-28T12:26:27Z</time>
      </trkpt>
      <trkpt lat="47.61901" lon="-2.83481">
        <ele>4.7</ele>
        <time>2025-01-28T12:26:28Z</time>
      </trkpt>
      <trkpt lat="47.619" lon="-2.83482">
        <ele>4.7</ele>
        <time>2025-01-28T12:26:29Z</time>
      </trkpt>
      <trkpt lat="47.61899" lon="-2.83483">
        <ele>4.7</ele>
        <time>2025-01-28T12:26:30Z</time>
      </trkpt>
      <trkpt lat="47.61898" lon="-2.83484">
        <ele>4.7</ele>
        <time>2025-01-28T12:26:31Z</time>
      </trkpt>
      <trkpt lat="47.61897" lon="-2.83485">
        <ele>4.6</ele>
        <time>2025-01-28T12:26:32Z</time>
      </trkpt>
      <trkpt lat="47.61896" lon="-2.83487">
        <ele>4.8</ele>
        <time>2025-01-28T12:26:33Z</time>
      </trkpt>
      <trkpt lat="47.61895" lon="-2.83488">
        <ele>4.9</ele>
        <time>2025-01-28T12:26:34Z</time>
      </trkpt>
      <trkpt lat="47.61894" lon="-2.83489">
        <ele>4.9</ele>
        <time>2025-01-28T12:26:35Z</time>
      </trkpt>
      <trkpt lat="47.61893" lon="-2.8349">
        <ele>4.8</ele>
        <time>2025-01-28T12:26:36Z</time>
      </trkpt>
      <trkpt lat="47.61892" lon="-2.83491">
        <ele>4.8</ele>
        <time>2025-01-28T12:26:37Z</time>
      </trkpt>
      <trkpt lat="47.61891" lon="-2.83492">
        <ele>4.8</ele>
        <time>2025-01-28T12:26:38Z</time>
      </trkpt>
      <trkpt lat="47.6189" lon="-2.83493">
        <ele>4.9</ele>
        <time>2025-01-28T12:26:39Z</time>
      </trkpt>
      <trkpt lat="47.61889" lon="-2.83493">
        <ele>4.8</ele>
        <time>2025-01-28T12:26:40Z</time>
      </trkpt>
      <trkpt lat="47.61888" lon="-2.83494">
        <ele>4.8</ele>
        <time>2025-01-28T12:26:41Z</time>
      </trkpt>
      <trkpt lat="47.61887" lon="-2.83495">
        <ele>4.8</ele>
        <time>2025-01-28T12:26:42Z</time>
      </trkpt>
      <trkpt lat="47.61886" lon="-2.83495">
        <ele>4.7</ele>
        <time>2025-01-28T12:26:43Z</time>
      </trkpt>
      <trkpt lat="47.61885" lon="-2.83496">
        <ele>4.7</ele>
        <time>2025-01-28T12:26:44Z</time>
      </trkpt>
      <trkpt lat="47.61884" lon="-2.83496">
        <ele>4.7</ele>
        <time>2025-01-28T12:26:45Z</time>
      </trkpt>
      <trkpt lat="47.61883" lon="-2.83497">
        <ele>4.7</ele>
        <time>2025-01-28T12:26:46Z</time>
      </trkpt>
      <trkpt lat="47.61882" lon="-2.83498">
        <ele>4.7</ele>
        <time>2025-01-28T12:26:47Z</time>
      </trkpt>
      <trkpt lat="47.61881" lon="-2.83499">
        <ele>4.8</ele>
        <time>2025-01-28T12:26:48Z</time>
      </trkpt>
      <trkpt lat="47.6188" lon="-2.835">
        <ele>4.7</ele>
        <time>2025-01-28T12:26:49Z</time>
      </trkpt>
      <trkpt lat="47.61879" lon="-2.83501">
        <ele>4.7</ele>
        <time>2025-01-28T12:26:50Z</time>
      </trkpt>
      <trkpt lat="47.61879" lon="-2.83502">
        <ele>4.7</ele>
        <time>2025-01-28T12:26:51Z</time>
      </trkpt>
      <trkpt lat="47.61878" lon="-2.83503">
        <ele>4.8</ele>
        <time>2025-01-28T12:26:52Z</time>
      </trkpt>
      <trkpt lat="47.61877" lon="-2.83503">
        <ele>4.7</ele>
        <time>2025-01-28T12:26:53Z</time>
      </trkpt>
      <trkpt lat="47.61876" lon="-2.83504">
        <ele>4.7</ele>
        <time>2025-01-28T12:26:54Z</time>
      </trkpt>
      <trkpt lat="47.61875" lon="-2.83504">
        <ele>4.6</ele>
        <time>2025-01-28T12:26:55Z</time>
      </trkpt>
      <trkpt lat="47.61874" lon="-2.83505">
        <ele>4.7</ele>
        <time>2025-01-28T12:26:56Z</time>
      </trkpt>
      <trkpt lat="47.61874" lon="-2.83507">
        <ele>4.9</ele>
        <time>2025-01-28T12:26:57Z</time>
      </trkpt>
      <trkpt lat="47.61875" lon="-2.83509">
        <ele>5.3</ele>
        <time>2025-01-28T12:26:58Z</time>
      </trkpt>
      <trkpt lat="47.61875" lon="-2.83511">
        <ele>5.6</ele>
        <time>2025-01-28T12:26:59Z</time>
      </trkpt>
      <trkpt lat="47.61875" lon="-2.83512">
        <ele>5.7</ele>
        <time>2025-01-28T12:27:00Z</time>
      </trkpt>
      <trkpt lat="47.61871" lon="-2.83512">
        <ele>5.4</ele>
        <time>2025-01-28T12:27:01Z</time>
      </trkpt>
      <trkpt lat="47.6187" lon="-2.83509">
        <ele>4.9</ele>
        <time>2025-01-28T12:27:02Z</time>
      </trkpt>
      <trkpt lat="47.61869" lon="-2.8351">
        <ele>4.9</ele>
        <time>2025-01-28T12:27:03Z</time>
      </trkpt>
      <trkpt lat="47.61868" lon="-2.8351">
        <ele>4.9</ele>
        <time>2025-01-28T12:27:04Z</time>
      </trkpt>
      <trkpt lat="47.61868" lon="-2.8351">
        <ele>4.8</ele>
        <time>2025-01-28T12:27:05Z</time>
      </trkpt>
      <trkpt lat="47.61867" lon="-2.83511">
        <ele>4.9</ele>
        <time>2025-01-28T12:27:06Z</time>
      </trkpt>
      <trkpt lat="47.61866" lon="-2.83512">
        <ele>5.1</ele>
        <time>2025-01-28T12:27:07Z</time>
      </trkpt>
      <trkpt lat="47.61865" lon="-2.83513">
        <ele>5.1</ele>
        <time>2025-01-28T12:27:08Z</time>
      </trkpt>
      <trkpt lat="47.61864" lon="-2.83514">
        <ele>5.3</ele>
        <time>2025-01-28T12:27:09Z</time>
      </trkpt>
      <trkpt lat="47.61864" lon="-2.83515">
        <ele>5.4</ele>
        <time>2025-01-28T12:27:10Z</time>
      </trkpt>
      <trkpt lat="47.61863" lon="-2.83516">
        <ele>5.5</ele>
        <time>2025-01-28T12:27:11Z</time>
      </trkpt>
      <trkpt lat="47.61862" lon="-2.83517">
        <ele>5.7</ele>
        <time>2025-01-28T12:27:12Z</time>
      </trkpt>
      <trkpt lat="47.61862" lon="-2.83518">
        <ele>5.9</ele>
        <time>2025-01-28T12:27:13Z</time>
      </trkpt>
      <trkpt lat="47.61861" lon="-2.83518">
        <ele>5.9</ele>
        <time>2025-01-28T12:27:14Z</time>
      </trkpt>
      <trkpt lat="47.6186" lon="-2.83518">
        <ele>5.7</ele>
        <time>2025-01-28T12:27:15Z</time>
      </trkpt>
      <trkpt lat="47.61859" lon="-2.83519">
        <ele>5.7</ele>
        <time>2025-01-28T12:27:16Z</time>
      </trkpt>
      <trkpt lat="47.61858" lon="-2.8352">
        <ele>5.7</ele>
        <time>2025-01-28T12:27:17Z</time>
      </trkpt>
      <trkpt lat="47.61858" lon="-2.83521">
        <ele>5.9</ele>
        <time>2025-01-28T12:27:18Z</time>
      </trkpt>
      <trkpt lat="47.61857" lon="-2.83522">
        <ele>6</ele>
        <time>2025-01-28T12:27:19Z</time>
      </trkpt>
      <trkpt lat="47.61856" lon="-2.83522">
        <ele>5.8</ele>
        <time>2025-01-28T12:27:20Z</time>
      </trkpt>
      <trkpt lat="47.61855" lon="-2.83523">
        <ele>5.7</ele>
        <time>2025-01-28T12:27:21Z</time>
      </trkpt>
      <trkpt lat="47.61854" lon="-2.83523">
        <ele>5.6</ele>
        <time>2025-01-28T12:27:22Z</time>
      </trkpt>
      <trkpt lat="47.61853" lon="-2.83524">
        <ele>5.5</ele>
        <time>2025-01-28T12:27:23Z</time>
      </trkpt>
      <trkpt lat="47.61852" lon="-2.83525">
        <ele>5.5</ele>
        <time>2025-01-28T12:27:24Z</time>
      </trkpt>
      <trkpt lat="47.61852" lon="-2.83527">
        <ele>5.5</ele>
        <time>2025-01-28T12:27:25Z</time>
      </trkpt>
      <trkpt lat="47.61851" lon="-2.83528">
        <ele>5.4</ele>
        <time>2025-01-28T12:27:26Z</time>
      </trkpt>
      <trkpt lat="47.6185" lon="-2.8353">
        <ele>5.6</ele>
        <time>2025-01-28T12:27:27Z</time>
      </trkpt>
      <trkpt lat="47.6185" lon="-2.83531">
        <ele>5.6</ele>
        <time>2025-01-28T12:27:28Z</time>
      </trkpt>
      <trkpt lat="47.6185" lon="-2.83533">
        <ele>5.8</ele>
        <time>2025-01-28T12:27:29Z</time>
      </trkpt>
      <trkpt lat="47.61849" lon="-2.83534">
        <ele>5.7</ele>
        <time>2025-01-28T12:27:30Z</time>
      </trkpt>
      <trkpt lat="47.61848" lon="-2.83535">
        <ele>5.6</ele>
        <time>2025-01-28T12:27:31Z</time>
      </trkpt>
      <trkpt lat="47.61847" lon="-2.83536">
        <ele>5.5</ele>
        <time>2025-01-28T12:27:32Z</time>
      </trkpt>
      <trkpt lat="47.61846" lon="-2.83537">
        <ele>5.5</ele>
        <time>2025-01-28T12:27:33Z</time>
      </trkpt>
      <trkpt lat="47.61846" lon="-2.83538">
        <ele>5.4</ele>
        <time>2025-01-28T12:27:34Z</time>
      </trkpt>
      <trkpt lat="47.61845" lon="-2.8354">
        <ele>5.5</ele>
        <time>2025-01-28T12:27:35Z</time>
      </trkpt>
      <trkpt lat="47.61844" lon="-2.83541">
        <ele>5.5</ele>
        <time>2025-01-28T12:27:36Z</time>
      </trkpt>
      <trkpt lat="47.61844" lon="-2.83543">
        <ele>5.6</ele>
        <time>2025-01-28T12:27:37Z</time>
      </trkpt>
      <trkpt lat="47.61843" lon="-2.83544">
        <ele>5.6</ele>
        <time>2025-01-28T12:27:38Z</time>
      </trkpt>
      <trkpt lat="47.61843" lon="-2.83546">
        <ele>5.7</ele>
        <time>2025-01-28T12:27:39Z</time>
      </trkpt>
      <trkpt lat="47.61842" lon="-2.83547">
        <ele>5.7</ele>
        <time>2025-01-28T12:27:40Z</time>
      </trkpt>
      <trkpt lat="47.61841" lon="-2.83548">
        <ele>5.6</ele>
        <time>2025-01-28T12:27:41Z</time>
      </trkpt>
      <trkpt lat="47.6184" lon="-2.83549">
        <ele>5.5</ele>
        <time>2025-01-28T12:27:42Z</time>
      </trkpt>
      <trkpt lat="47.61839" lon="-2.83551">
        <ele>5.6</ele>
        <time>2025-01-28T12:27:43Z</time>
      </trkpt>
      <trkpt lat="47.61839" lon="-2.83552">
        <ele>5.6</ele>
        <time>2025-01-28T12:27:44Z</time>
      </trkpt>
      <trkpt lat="47.61838" lon="-2.83553">
        <ele>5.7</ele>
        <time>2025-01-28T12:27:45Z</time>
      </trkpt>
      <trkpt lat="47.61838" lon="-2.83554">
        <ele>5.8</ele>
        <time>2025-01-28T12:27:46Z</time>
      </trkpt>
      <trkpt lat="47.61838" lon="-2.83556">
        <ele>6</ele>
        <time>2025-01-28T12:27:47Z</time>
      </trkpt>
      <trkpt lat="47.61837" lon="-2.83557">
        <ele>6.1</ele>
        <time>2025-01-28T12:27:48Z</time>
      </trkpt>
      <trkpt lat="47.61837" lon="-2.83559">
        <ele>6.2</ele>
        <time>2025-01-28T12:27:49Z</time>
      </trkpt>
      <trkpt lat="47.61836" lon="-2.83561">
        <ele>6.3</ele>
        <time>2025-01-28T12:27:50Z</time>
      </trkpt>
      <trkpt lat="47.61836" lon="-2.83562">
        <ele>6.4</ele>
        <time>2025-01-28T12:27:51Z</time>
      </trkpt>
      <trkpt lat="47.61835" lon="-2.83563">
        <ele>6.4</ele>
        <time>2025-01-28T12:27:52Z</time>
      </trkpt>
      <trkpt lat="47.61834" lon="-2.83564">
        <ele>6.4</ele>
        <time>2025-01-28T12:27:53Z</time>
      </trkpt>
      <trkpt lat="47.61833" lon="-2.83565">
        <ele>6.4</ele>
        <time>2025-01-28T12:27:54Z</time>
      </trkpt>
      <trkpt lat="47.61832" lon="-2.83567">
        <ele>6.5</ele>
        <time>2025-01-28T12:27:55Z</time>
      </trkpt>
      <trkpt lat="47.61831" lon="-2.83567">
        <ele>6.4</ele>
        <time>2025-01-28T12:27:56Z</time>
      </trkpt>
      <trkpt lat="47.61831" lon="-2.83569">
        <ele>6.5</ele>
        <time>2025-01-28T12:27:57Z</time>
      </trkpt>
      <trkpt lat="47.6183" lon="-2.83571">
        <ele>6.7</ele>
        <time>2025-01-28T12:27:58Z</time>
      </trkpt>
      <trkpt lat="47.6183" lon="-2.83572">
        <ele>6.7</ele>
        <time>2025-01-28T12:27:59Z</time>
      </trkpt>
      <trkpt lat="47.61829" lon="-2.83574">
        <ele>6.8</ele>
        <time>2025-01-28T12:28:00Z</time>
      </trkpt>
      <trkpt lat="47.61828" lon="-2.83575">
        <ele>6.7</ele>
        <time>2025-01-28T12:28:01Z</time>
      </trkpt>
      <trkpt lat="47.61827" lon="-2.83576">
        <ele>6.7</ele>
        <time>2025-01-28T12:28:02Z</time>
      </trkpt>
      <trkpt lat="47.61827" lon="-2.83577">
        <ele>6.6</ele>
        <time>2025-01-28T12:28:03Z</time>
      </trkpt>
      <trkpt lat="47.61826" lon="-2.83578">
        <ele>6.6</ele>
        <time>2025-01-28T12:28:04Z</time>
      </trkpt>
      <trkpt lat="47.61825" lon="-2.8358">
        <ele>6.5</ele>
        <time>2025-01-28T12:28:05Z</time>
      </trkpt>
      <trkpt lat="47.61824" lon="-2.83581">
        <ele>6.3</ele>
        <time>2025-01-28T12:28:06Z</time>
      </trkpt>
      <trkpt lat="47.61823" lon="-2.83582">
        <ele>6.1</ele>
        <time>2025-01-28T12:28:07Z</time>
      </trkpt>
      <trkpt lat="47.61823" lon="-2.83583">
        <ele>5.9</ele>
        <time>2025-01-28T12:28:08Z</time>
      </trkpt>
      <trkpt lat="47.61822" lon="-2.83585">
        <ele>5.9</ele>
        <time>2025-01-28T12:28:09Z</time>
      </trkpt>
      <trkpt lat="47.61821" lon="-2.83586">
        <ele>5.7</ele>
        <time>2025-01-28T12:28:10Z</time>
      </trkpt>
      <trkpt lat="47.6182" lon="-2.83587">
        <ele>5.6</ele>
        <time>2025-01-28T12:28:11Z</time>
      </trkpt>
      <trkpt lat="47.61819" lon="-2.83588">
        <ele>5.4</ele>
        <time>2025-01-28T12:28:12Z</time>
      </trkpt>
      <trkpt lat="47.61819" lon="-2.8359">
        <ele>5.4</ele>
        <time>2025-01-28T12:28:13Z</time>
      </trkpt>
      <trkpt lat="47.61818" lon="-2.83591">
        <ele>5.2</ele>
        <time>2025-01-28T12:28:14Z</time>
      </trkpt>
      <trkpt lat="47.61817" lon="-2.83592">
        <ele>5</ele>
        <time>2025-01-28T12:28:15Z</time>
      </trkpt>
      <trkpt lat="47.61816" lon="-2.83593">
        <ele>4.8</ele>
        <time>2025-01-28T12:28:16Z</time>
      </trkpt>
      <trkpt lat="47.61816" lon="-2.83593">
        <ele>4.8</ele>
        <time>2025-01-28T12:28:17Z</time>
      </trkpt>
      <trkpt lat="47.61816" lon="-2.83593">
        <ele>4.8</ele>
        <time>2025-01-28T12:28:18Z</time>
      </trkpt>
      <trkpt lat="47.61816" lon="-2.83593">
        <ele>4.8</ele>
        <time>2025-01-28T12:28:19Z</time>
      </trkpt>
      <trkpt lat="47.61816" lon="-2.83593">
        <ele>4.8</ele>
        <time>2025-01-28T12:28:20Z</time>
      </trkpt>
      <trkpt lat="47.61816" lon="-2.83593">
        <ele>4.8</ele>
        <time>2025-01-28T12:28:21Z</time>
      </trkpt>
      <trkpt lat="47.61816" lon="-2.83593">
        <ele>4.8</ele>
        <time>2025-01-28T12:28:22Z</time>
      </trkpt>
      <trkpt lat="47.61816" lon="-2.83593">
        <ele>4.9</ele>
        <time>2025-01-28T12:28:23Z</time>
      </trkpt>
      <trkpt lat="47.61816" lon="-2.83593">
        <ele>4.9</ele>
        <time>2025-01-28T12:28:24Z</time>
      </trkpt>
      <trkpt lat="47.61817" lon="-2.83594">
        <ele>5.2</ele>
        <time>2025-01-28T12:28:25Z</time>
      </trkpt>
      <trkpt lat="47.61817" lon="-2.83593">
        <ele>5.2</ele>
        <time>2025-01-28T12:28:26Z</time>
      </trkpt>
      <trkpt lat="47.61817" lon="-2.83594">
        <ele>5.4</ele>
        <time>2025-01-28T12:28:27Z</time>
      </trkpt>
      <trkpt lat="47.61817" lon="-2.83595">
        <ele>5.3</ele>
        <time>2025-01-28T12:28:28Z</time>
      </trkpt>
      <trkpt lat="47.61816" lon="-2.83596">
        <ele>5.1</ele>
        <time>2025-01-28T12:28:29Z</time>
      </trkpt>
      <trkpt lat="47.61815" lon="-2.83598">
        <ele>5.1</ele>
        <time>2025-01-28T12:28:30Z</time>
      </trkpt>
      <trkpt lat="47.61815" lon="-2.836">
        <ele>5</ele>
        <time>2025-01-28T12:28:31Z</time>
      </trkpt>
      <trkpt lat="47.61814" lon="-2.83602">
        <ele>5</ele>
        <time>2025-01-28T12:28:32Z</time>
      </trkpt>
      <trkpt lat="47.61814" lon="-2.83603">
        <ele>4.9</ele>
        <time>2025-01-28T12:28:33Z</time>
      </trkpt>
      <trkpt lat="47.61813" lon="-2.83606">
        <ele>5</ele>
        <time>2025-01-28T12:28:34Z</time>
      </trkpt>
      <trkpt lat="47.61813" lon="-2.83608">
        <ele>5.1</ele>
        <time>2025-01-28T12:28:35Z</time>
      </trkpt>
      <trkpt lat="47.61812" lon="-2.83609">
        <ele>5</ele>
        <time>2025-01-28T12:28:36Z</time>
      </trkpt>
      <trkpt lat="47.61811" lon="-2.8361">
        <ele>4.8</ele>
        <time>2025-01-28T12:28:37Z</time>
      </trkpt>
      <trkpt lat="47.61811" lon="-2.83612">
        <ele>4.7</ele>
        <time>2025-01-28T12:28:38Z</time>
      </trkpt>
      <trkpt lat="47.6181" lon="-2.83613">
        <ele>4.7</ele>
        <time>2025-01-28T12:28:39Z</time>
      </trkpt>
      <trkpt lat="47.61809" lon="-2.83615">
        <ele>4.7</ele>
        <time>2025-01-28T12:28:40Z</time>
      </trkpt>
      <trkpt lat="47.61809" lon="-2.83616">
        <ele>4.7</ele>
        <time>2025-01-28T12:28:41Z</time>
      </trkpt>
      <trkpt lat="47.61809" lon="-2.83618">
        <ele>4.9</ele>
        <time>2025-01-28T12:28:42Z</time>
      </trkpt>
      <trkpt lat="47.61808" lon="-2.8362">
        <ele>4.9</ele>
        <time>2025-01-28T12:28:43Z</time>
      </trkpt>
      <trkpt lat="47.61807" lon="-2.83621">
        <ele>4.8</ele>
        <time>2025-01-28T12:28:44Z</time>
      </trkpt>
      <trkpt lat="47.61807" lon="-2.83623">
        <ele>4.9</ele>
        <time>2025-01-28T12:28:45Z</time>
      </trkpt>
      <trkpt lat="47.61806" lon="-2.83624">
        <ele>5</ele>
        <time>2025-01-28T12:28:46Z</time>
      </trkpt>
      <trkpt lat="47.61806" lon="-2.83626">
        <ele>5.2</ele>
        <time>2025-01-28T12:28:47Z</time>
      </trkpt>
      <trkpt lat="47.61806" lon="-2.83628">
        <ele>5.5</ele>
        <time>2025-01-28T12:28:48Z</time>
      </trkpt>
      <trkpt lat="47.61806" lon="-2.83629">
        <ele>5.7</ele>
        <time>2025-01-28T12:28:49Z</time>
      </trkpt>
      <trkpt lat="47.61806" lon="-2.83631">
        <ele>6.1</ele>
        <time>2025-01-28T12:28:50Z</time>
      </trkpt>
      <trkpt lat="47.61806" lon="-2.83633">
        <ele>6.3</ele>
        <time>2025-01-28T12:28:51Z</time>
      </trkpt>
      <trkpt lat="47.61806" lon="-2.83635">
        <ele>6.4</ele>
        <time>2025-01-28T12:28:52Z</time>
      </trkpt>
      <trkpt lat="47.61806" lon="-2.83636">
        <ele>6.6</ele>
        <time>2025-01-28T12:28:53Z</time>
      </trkpt>
      <trkpt lat="47.61806" lon="-2.83638">
        <ele>6.9</ele>
        <time>2025-01-28T12:28:54Z</time>
      </trkpt>
      <trkpt lat="47.61806" lon="-2.83639">
        <ele>7.1</ele>
        <time>2025-01-28T12:28:55Z</time>
      </trkpt>
      <trkpt lat="47.61806" lon="-2.8364">
        <ele>7.1</ele>
        <time>2025-01-28T12:28:56Z</time>
      </trkpt>
      <trkpt lat="47.61806" lon="-2.83642">
        <ele>7.1</ele>
        <time>2025-01-28T12:28:57Z</time>
      </trkpt>
      <trkpt lat="47.61806" lon="-2.83644">
        <ele>7.2</ele>
        <time>2025-01-28T12:28:58Z</time>
      </trkpt>
      <trkpt lat="47.61805" lon="-2.83645">
        <ele>7.2</ele>
        <time>2025-01-28T12:28:59Z</time>
      </trkpt>
      <trkpt lat="47.61805" lon="-2.83647">
        <ele>7.3</ele>
        <time>2025-01-28T12:29:00Z</time>
      </trkpt>
      <trkpt lat="47.61805" lon="-2.83649">
        <ele>7.4</ele>
        <time>2025-01-28T12:29:01Z</time>
      </trkpt>
      <trkpt lat="47.61806" lon="-2.8365">
        <ele>7.4</ele>
        <time>2025-01-28T12:29:02Z</time>
      </trkpt>
      <trkpt lat="47.61806" lon="-2.83652">
        <ele>7.5</ele>
        <time>2025-01-28T12:29:03Z</time>
      </trkpt>
      <trkpt lat="47.61806" lon="-2.83653">
        <ele>7.6</ele>
        <time>2025-01-28T12:29:04Z</time>
      </trkpt>
      <trkpt lat="47.61806" lon="-2.83655">
        <ele>7.6</ele>
        <time>2025-01-28T12:29:05Z</time>
      </trkpt>
      <trkpt lat="47.61806" lon="-2.83657">
        <ele>7.7</ele>
        <time>2025-01-28T12:29:06Z</time>
      </trkpt>
      <trkpt lat="47.61806" lon="-2.83659">
        <ele>7.7</ele>
        <time>2025-01-28T12:29:07Z</time>
      </trkpt>
      <trkpt lat="47.61806" lon="-2.8366">
        <ele>7.8</ele>
        <time>2025-01-28T12:29:08Z</time>
      </trkpt>
      <trkpt lat="47.61805" lon="-2.83662">
        <ele>7.8</ele>
        <time>2025-01-28T12:29:09Z</time>
      </trkpt>
      <trkpt lat="47.61804" lon="-2.83663">
        <ele>7.9</ele>
        <time>2025-01-28T12:29:10Z</time>
      </trkpt>
      <trkpt lat="47.61804" lon="-2.83665">
        <ele>7.9</ele>
        <time>2025-01-28T12:29:11Z</time>
      </trkpt>
      <trkpt lat="47.61804" lon="-2.83666">
        <ele>8</ele>
        <time>2025-01-28T12:29:12Z</time>
      </trkpt>
      <trkpt lat="47.61804" lon="-2.83668">
        <ele>8</ele>
        <time>2025-01-28T12:29:13Z</time>
      </trkpt>
      <trkpt lat="47.61804" lon="-2.8367">
        <ele>8.1</ele>
        <time>2025-01-28T12:29:14Z</time>
      </trkpt>
      <trkpt lat="47.61803" lon="-2.83671">
        <ele>8.1</ele>
        <time>2025-01-28T12:29:15Z</time>
      </trkpt>
      <trkpt lat="47.61802" lon="-2.83673">
        <ele>8</ele>
        <time>2025-01-28T12:29:16Z</time>
      </trkpt>
      <trkpt lat="47.61801" lon="-2.83675">
        <ele>8</ele>
        <time>2025-01-28T12:29:17Z</time>
      </trkpt>
      <trkpt lat="47.61801" lon="-2.83677">
        <ele>8</ele>
        <time>2025-01-28T12:29:18Z</time>
      </trkpt>
      <trkpt lat="47.618" lon="-2.83679">
        <ele>8</ele>
        <time>2025-01-28T12:29:19Z</time>
      </trkpt>
      <trkpt lat="47.618" lon="-2.83681">
        <ele>7.9</ele>
        <time>2025-01-28T12:29:20Z</time>
      </trkpt>
      <trkpt lat="47.618" lon="-2.83682">
        <ele>7.8</ele>
        <time>2025-01-28T12:29:21Z</time>
      </trkpt>
      <trkpt lat="47.61799" lon="-2.83684">
        <ele>7.8</ele>
        <time>2025-01-28T12:29:22Z</time>
      </trkpt>
      <trkpt lat="47.61799" lon="-2.83686">
        <ele>7.7</ele>
        <time>2025-01-28T12:29:23Z</time>
      </trkpt>
      <trkpt lat="47.61798" lon="-2.83687">
        <ele>7.6</ele>
        <time>2025-01-28T12:29:24Z</time>
      </trkpt>
      <trkpt lat="47.61798" lon="-2.83689">
        <ele>7.4</ele>
        <time>2025-01-28T12:29:25Z</time>
      </trkpt>
      <trkpt lat="47.61797" lon="-2.8369">
        <ele>7.2</ele>
        <time>2025-01-28T12:29:26Z</time>
      </trkpt>
      <trkpt lat="47.61796" lon="-2.83691">
        <ele>7.1</ele>
        <time>2025-01-28T12:29:27Z</time>
      </trkpt>
      <trkpt lat="47.61796" lon="-2.83693">
        <ele>6.9</ele>
        <time>2025-01-28T12:29:28Z</time>
      </trkpt>
      <trkpt lat="47.61795" lon="-2.83694">
        <ele>6.7</ele>
        <time>2025-01-28T12:29:29Z</time>
      </trkpt>
      <trkpt lat="47.61794" lon="-2.83695">
        <ele>6.5</ele>
        <time>2025-01-28T12:29:30Z</time>
      </trkpt>
      <trkpt lat="47.61793" lon="-2.83696">
        <ele>6.5</ele>
        <time>2025-01-28T12:29:31Z</time>
      </trkpt>
      <trkpt lat="47.61793" lon="-2.83698">
        <ele>6.5</ele>
        <time>2025-01-28T12:29:32Z</time>
      </trkpt>
      <trkpt lat="47.61792" lon="-2.83699">
        <ele>6.5</ele>
        <time>2025-01-28T12:29:33Z</time>
      </trkpt>
      <trkpt lat="47.61791" lon="-2.83701">
        <ele>6.5</ele>
        <time>2025-01-28T12:29:34Z</time>
      </trkpt>
      <trkpt lat="47.6179" lon="-2.83702">
        <ele>6.5</ele>
        <time>2025-01-28T12:29:35Z</time>
      </trkpt>
      <trkpt lat="47.6179" lon="-2.83703">
        <ele>6.5</ele>
        <time>2025-01-28T12:29:36Z</time>
      </trkpt>
      <trkpt lat="47.61789" lon="-2.83704">
        <ele>6.4</ele>
        <time>2025-01-28T12:29:37Z</time>
      </trkpt>
      <trkpt lat="47.61788" lon="-2.83706">
        <ele>6.4</ele>
        <time>2025-01-28T12:29:38Z</time>
      </trkpt>
      <trkpt lat="47.61787" lon="-2.83707">
        <ele>6.5</ele>
        <time>2025-01-28T12:29:39Z</time>
      </trkpt>
      <trkpt lat="47.61786" lon="-2.83708">
        <ele>6.4</ele>
        <time>2025-01-28T12:29:40Z</time>
      </trkpt>
      <trkpt lat="47.61784" lon="-2.83709">
        <ele>6.2</ele>
        <time>2025-01-28T12:29:41Z</time>
      </trkpt>
      <trkpt lat="47.61783" lon="-2.8371">
        <ele>6.2</ele>
        <time>2025-01-28T12:29:42Z</time>
      </trkpt>
      <trkpt lat="47.61782" lon="-2.8371">
        <ele>6</ele>
        <time>2025-01-28T12:29:43Z</time>
      </trkpt>
      <trkpt lat="47.61781" lon="-2.83711">
        <ele>5.9</ele>
        <time>2025-01-28T12:29:44Z</time>
      </trkpt>
      <trkpt lat="47.6178" lon="-2.83712">
        <ele>5.9</ele>
        <time>2025-01-28T12:29:45Z</time>
      </trkpt>
      <trkpt lat="47.6178" lon="-2.83714">
        <ele>6.1</ele>
        <time>2025-01-28T12:29:46Z</time>
      </trkpt>
      <trkpt lat="47.61779" lon="-2.83715">
        <ele>6.1</ele>
        <time>2025-01-28T12:29:47Z</time>
      </trkpt>
      <trkpt lat="47.61778" lon="-2.83716">
        <ele>6.2</ele>
        <time>2025-01-28T12:29:48Z</time>
      </trkpt>
      <trkpt lat="47.61778" lon="-2.83718">
        <ele>6.4</ele>
        <time>2025-01-28T12:29:49Z</time>
      </trkpt>
      <trkpt lat="47.61777" lon="-2.8372">
        <ele>6.6</ele>
        <time>2025-01-28T12:29:50Z</time>
      </trkpt>
      <trkpt lat="47.61776" lon="-2.83721">
        <ele>6.8</ele>
        <time>2025-01-28T12:29:51Z</time>
      </trkpt>
      <trkpt lat="47.61776" lon="-2.83722">
        <ele>7</ele>
        <time>2025-01-28T12:29:52Z</time>
      </trkpt>
      <trkpt lat="47.61775" lon="-2.83723">
        <ele>7.1</ele>
        <time>2025-01-28T12:29:53Z</time>
      </trkpt>
      <trkpt lat="47.61774" lon="-2.83724">
        <ele>7.1</ele>
        <time>2025-01-28T12:29:54Z</time>
      </trkpt>
      <trkpt lat="47.61773" lon="-2.83725">
        <ele>7.1</ele>
        <time>2025-01-28T12:29:55Z</time>
      </trkpt>
      <trkpt lat="47.61772" lon="-2.83726">
        <ele>7.1</ele>
        <time>2025-01-28T12:29:56Z</time>
      </trkpt>
      <trkpt lat="47.61771" lon="-2.83727">
        <ele>7.1</ele>
        <time>2025-01-28T12:29:57Z</time>
      </trkpt>
      <trkpt lat="47.6177" lon="-2.83728">
        <ele>7.1</ele>
        <time>2025-01-28T12:29:58Z</time>
      </trkpt>
      <trkpt lat="47.61769" lon="-2.8373">
        <ele>7.1</ele>
        <time>2025-01-28T12:29:59Z</time>
      </trkpt>
      <trkpt lat="47.61769" lon="-2.83731">
        <ele>7.1</ele>
        <time>2025-01-28T12:30:00Z</time>
      </trkpt>
      <trkpt lat="47.61768" lon="-2.83732">
        <ele>7.1</ele>
        <time>2025-01-28T12:30:01Z</time>
      </trkpt>
      <trkpt lat="47.61767" lon="-2.83733">
        <ele>7</ele>
        <time>2025-01-28T12:30:02Z</time>
      </trkpt>
      <trkpt lat="47.61766" lon="-2.83734">
        <ele>6.9</ele>
        <time>2025-01-28T12:30:03Z</time>
      </trkpt>
      <trkpt lat="47.61765" lon="-2.83736">
        <ele>6.8</ele>
        <time>2025-01-28T12:30:04Z</time>
      </trkpt>
      <trkpt lat="47.61764" lon="-2.83737">
        <ele>6.8</ele>
        <time>2025-01-28T12:30:05Z</time>
      </trkpt>
      <trkpt lat="47.61763" lon="-2.83738">
        <ele>6.6</ele>
        <time>2025-01-28T12:30:06Z</time>
      </trkpt>
      <trkpt lat="47.61762" lon="-2.83739">
        <ele>6.5</ele>
        <time>2025-01-28T12:30:07Z</time>
      </trkpt>
      <trkpt lat="47.61762" lon="-2.83741">
        <ele>6.4</ele>
        <time>2025-01-28T12:30:08Z</time>
      </trkpt>
      <trkpt lat="47.61761" lon="-2.83743">
        <ele>6.2</ele>
        <time>2025-01-28T12:30:09Z</time>
      </trkpt>
      <trkpt lat="47.6176" lon="-2.83745">
        <ele>6</ele>
        <time>2025-01-28T12:30:10Z</time>
      </trkpt>
      <trkpt lat="47.61759" lon="-2.83746">
        <ele>5.8</ele>
        <time>2025-01-28T12:30:11Z</time>
      </trkpt>
      <trkpt lat="47.61758" lon="-2.83747">
        <ele>5.6</ele>
        <time>2025-01-28T12:30:12Z</time>
      </trkpt>
      <trkpt lat="47.61757" lon="-2.83748">
        <ele>5.3</ele>
        <time>2025-01-28T12:30:13Z</time>
      </trkpt>
      <trkpt lat="47.61756" lon="-2.8375">
        <ele>5.1</ele>
        <time>2025-01-28T12:30:14Z</time>
      </trkpt>
      <trkpt lat="47.61755" lon="-2.83751">
        <ele>4.9</ele>
        <time>2025-01-28T12:30:15Z</time>
      </trkpt>
      <trkpt lat="47.61754" lon="-2.83752">
        <ele>4.8</ele>
        <time>2025-01-28T12:30:16Z</time>
      </trkpt>
      <trkpt lat="47.61753" lon="-2.83754">
        <ele>4.8</ele>
        <time>2025-01-28T12:30:17Z</time>
      </trkpt>
      <trkpt lat="47.61752" lon="-2.83756">
        <ele>4.8</ele>
        <time>2025-01-28T12:30:18Z</time>
      </trkpt>
      <trkpt lat="47.61752" lon="-2.83757">
        <ele>4.8</ele>
        <time>2025-01-28T12:30:19Z</time>
      </trkpt>
      <trkpt lat="47.61752" lon="-2.83759">
        <ele>4.9</ele>
        <time>2025-01-28T12:30:20Z</time>
      </trkpt>
      <trkpt lat="47.61752" lon="-2.83761">
        <ele>5.1</ele>
        <time>2025-01-28T12:30:21Z</time>
      </trkpt>
      <trkpt lat="47.61751" lon="-2.83763">
        <ele>5.1</ele>
        <time>2025-01-28T12:30:22Z</time>
      </trkpt>
      <trkpt lat="47.61751" lon="-2.83765">
        <ele>5.2</ele>
        <time>2025-01-28T12:30:23Z</time>
      </trkpt>
      <trkpt lat="47.6175" lon="-2.83767">
        <ele>5.3</ele>
        <time>2025-01-28T12:30:24Z</time>
      </trkpt>
      <trkpt lat="47.6175" lon="-2.83768">
        <ele>5.3</ele>
        <time>2025-01-28T12:30:25Z</time>
      </trkpt>
      <trkpt lat="47.6175" lon="-2.8377">
        <ele>5.4</ele>
        <time>2025-01-28T12:30:26Z</time>
      </trkpt>
      <trkpt lat="47.61749" lon="-2.83772">
        <ele>5.5</ele>
        <time>2025-01-28T12:30:27Z</time>
      </trkpt>
      <trkpt lat="47.61749" lon="-2.83774">
        <ele>5.5</ele>
        <time>2025-01-28T12:30:28Z</time>
      </trkpt>
      <trkpt lat="47.61749" lon="-2.83775">
        <ele>5.6</ele>
        <time>2025-01-28T12:30:29Z</time>
      </trkpt>
      <trkpt lat="47.61748" lon="-2.83777">
        <ele>5.6</ele>
        <time>2025-01-28T12:30:30Z</time>
      </trkpt>
      <trkpt lat="47.61748" lon="-2.83778">
        <ele>5.6</ele>
        <time>2025-01-28T12:30:31Z</time>
      </trkpt>
      <trkpt lat="47.61747" lon="-2.8378">
        <ele>5.5</ele>
        <time>2025-01-28T12:30:32Z</time>
      </trkpt>
      <trkpt lat="47.61746" lon="-2.83781">
        <ele>5.4</ele>
        <time>2025-01-28T12:30:33Z</time>
      </trkpt>
      <trkpt lat="47.61746" lon="-2.83782">
        <ele>5.4</ele>
        <time>2025-01-28T12:30:34Z</time>
      </trkpt>
      <trkpt lat="47.61745" lon="-2.83784">
        <ele>5.4</ele>
        <time>2025-01-28T12:30:35Z</time>
      </trkpt>
      <trkpt lat="47.61744" lon="-2.83786">
        <ele>5.4</ele>
        <time>2025-01-28T12:30:36Z</time>
      </trkpt>
      <trkpt lat="47.61744" lon="-2.83787">
        <ele>5.4</ele>
        <time>2025-01-28T12:30:37Z</time>
      </trkpt>
      <trkpt lat="47.61743" lon="-2.83789">
        <ele>5.3</ele>
        <time>2025-01-28T12:30:38Z</time>
      </trkpt>
      <trkpt lat="47.61741" lon="-2.83789">
        <ele>5.1</ele>
        <time>2025-01-28T12:30:39Z</time>
      </trkpt>
      <trkpt lat="47.6174" lon="-2.83791">
        <ele>5</ele>
        <time>2025-01-28T12:30:40Z</time>
      </trkpt>
      <trkpt lat="47.61739" lon="-2.83792">
        <ele>5</ele>
        <time>2025-01-28T12:30:41Z</time>
      </trkpt>
      <trkpt lat="47.61738" lon="-2.83793">
        <ele>4.9</ele>
        <time>2025-01-28T12:30:42Z</time>
      </trkpt>
      <trkpt lat="47.61737" lon="-2.83794">
        <ele>4.8</ele>
        <time>2025-01-28T12:30:43Z</time>
      </trkpt>
      <trkpt lat="47.61736" lon="-2.83795">
        <ele>4.7</ele>
        <time>2025-01-28T12:30:44Z</time>
      </trkpt>
      <trkpt lat="47.61735" lon="-2.83796">
        <ele>4.7</ele>
        <time>2025-01-28T12:30:45Z</time>
      </trkpt>
      <trkpt lat="47.61734" lon="-2.83797">
        <ele>4.7</ele>
        <time>2025-01-28T12:30:46Z</time>
      </trkpt>
      <trkpt lat="47.61734" lon="-2.83799">
        <ele>4.7</ele>
        <time>2025-01-28T12:30:47Z</time>
      </trkpt>
      <trkpt lat="47.61733" lon="-2.838">
        <ele>4.8</ele>
        <time>2025-01-28T12:30:48Z</time>
      </trkpt>
      <trkpt lat="47.61733" lon="-2.83802">
        <ele>4.8</ele>
        <time>2025-01-28T12:30:49Z</time>
      </trkpt>
      <trkpt lat="47.61733" lon="-2.83804">
        <ele>5</ele>
        <time>2025-01-28T12:30:50Z</time>
      </trkpt>
      <trkpt lat="47.61732" lon="-2.83805">
        <ele>5</ele>
        <time>2025-01-28T12:30:51Z</time>
      </trkpt>
      <trkpt lat="47.61731" lon="-2.83807">
        <ele>5.1</ele>
        <time>2025-01-28T12:30:52Z</time>
      </trkpt>
      <trkpt lat="47.61731" lon="-2.83808">
        <ele>5.2</ele>
        <time>2025-01-28T12:30:53Z</time>
      </trkpt>
      <trkpt lat="47.6173" lon="-2.8381">
        <ele>5.3</ele>
        <time>2025-01-28T12:30:54Z</time>
      </trkpt>
      <trkpt lat="47.6173" lon="-2.8381">
        <ele>5.3</ele>
        <time>2025-01-28T12:30:55Z</time>
      </trkpt>
      <trkpt lat="47.61729" lon="-2.83811">
        <ele>5.2</ele>
        <time>2025-01-28T12:30:56Z</time>
      </trkpt>
      <trkpt lat="47.61728" lon="-2.83811">
        <ele>5.2</ele>
        <time>2025-01-28T12:30:57Z</time>
      </trkpt>
      <trkpt lat="47.61727" lon="-2.83812">
        <ele>5.2</ele>
        <time>2025-01-28T12:30:58Z</time>
      </trkpt>
      <trkpt lat="47.61726" lon="-2.83813">
        <ele>5.2</ele>
        <time>2025-01-28T12:30:59Z</time>
      </trkpt>
      <trkpt lat="47.61725" lon="-2.83814">
        <ele>5.2</ele>
        <time>2025-01-28T12:31:00Z</time>
      </trkpt>
      <trkpt lat="47.61724" lon="-2.83815">
        <ele>5.2</ele>
        <time>2025-01-28T12:31:01Z</time>
      </trkpt>
      <trkpt lat="47.61723" lon="-2.83815">
        <ele>5.2</ele>
        <time>2025-01-28T12:31:02Z</time>
      </trkpt>
      <trkpt lat="47.61722" lon="-2.83815">
        <ele>5</ele>
        <time>2025-01-28T12:31:03Z</time>
      </trkpt>
      <trkpt lat="47.61721" lon="-2.83815">
        <ele>4.9</ele>
        <time>2025-01-28T12:31:04Z</time>
      </trkpt>
      <trkpt lat="47.6172" lon="-2.83816">
        <ele>4.8</ele>
        <time>2025-01-28T12:31:05Z</time>
      </trkpt>
      <trkpt lat="47.61719" lon="-2.83816">
        <ele>4.7</ele>
        <time>2025-01-28T12:31:06Z</time>
      </trkpt>
      <trkpt lat="47.61719" lon="-2.83816">
        <ele>4.7</ele>
        <time>2025-01-28T12:31:07Z</time>
      </trkpt>
      <trkpt lat="47.61718" lon="-2.83816">
        <ele>4.5</ele>
        <time>2025-01-28T12:31:08Z</time>
      </trkpt>
      <trkpt lat="47.61717" lon="-2.83816">
        <ele>4.4</ele>
        <time>2025-01-28T12:31:09Z</time>
      </trkpt>
      <trkpt lat="47.61717" lon="-2.83815">
        <ele>4.2</ele>
        <time>2025-01-28T12:31:10Z</time>
      </trkpt>
      <trkpt lat="47.61717" lon="-2.83815">
        <ele>4.2</ele>
        <time>2025-01-28T12:31:11Z</time>
      </trkpt>
      <trkpt lat="47.61717" lon="-2.83815">
        <ele>4.2</ele>
        <time>2025-01-28T12:31:12Z</time>
      </trkpt>
      <trkpt lat="47.61717" lon="-2.83815">
        <ele>4.2</ele>
        <time>2025-01-28T12:31:13Z</time>
      </trkpt>
      <trkpt lat="47.61717" lon="-2.83815">
        <ele>4.2</ele>
        <time>2025-01-28T12:31:14Z</time>
      </trkpt>
      <trkpt lat="47.61717" lon="-2.83815">
        <ele>4.2</ele>
        <time>2025-01-28T12:31:15Z</time>
      </trkpt>
      <trkpt lat="47.61717" lon="-2.83816">
        <ele>4.3</ele>
        <time>2025-01-28T12:31:16Z</time>
      </trkpt>
      <trkpt lat="47.61714" lon="-2.83815">
        <ele>3.8</ele>
        <time>2025-01-28T12:31:17Z</time>
      </trkpt>
      <trkpt lat="47.61714" lon="-2.83815">
        <ele>3.8</ele>
        <time>2025-01-28T12:31:18Z</time>
      </trkpt>
      <trkpt lat="47.61714" lon="-2.83814">
        <ele>3.8</ele>
        <time>2025-01-28T12:31:19Z</time>
      </trkpt>
      <trkpt lat="47.61714" lon="-2.83814">
        <ele>3.8</ele>
        <time>2025-01-28T12:31:20Z</time>
      </trkpt>
      <trkpt lat="47.61714" lon="-2.83814">
        <ele>3.8</ele>
        <time>2025-01-28T12:31:21Z</time>
      </trkpt>
      <trkpt lat="47.61714" lon="-2.83814">
        <ele>3.8</ele>
        <time>2025-01-28T12:31:22Z</time>
      </trkpt>
      <trkpt lat="47.61714" lon="-2.83814">
        <ele>3.8</ele>
        <time>2025-01-28T12:31:23Z</time>
      </trkpt>
      <trkpt lat="47.61714" lon="-2.83814">
        <ele>3.8</ele>
        <time>2025-01-28T12:31:24Z</time>
      </trkpt>
      <trkpt lat="47.61714" lon="-2.83814">
        <ele>3.8</ele>
        <time>2025-01-28T12:31:25Z</time>
      </trkpt>
      <trkpt lat="47.61714" lon="-2.83814">
        <ele>3.7</ele>
        <time>2025-01-28T12:31:26Z</time>
      </trkpt>
      <trkpt lat="47.61714" lon="-2.83813">
        <ele>3.7</ele>
        <time>2025-01-28T12:31:27Z</time>
      </trkpt>
      <trkpt lat="47.61714" lon="-2.83813">
        <ele>3.7</ele>
        <time>2025-01-28T12:31:28Z</time>
      </trkpt>
      <trkpt lat="47.61714" lon="-2.83813">
        <ele>3.7</ele>
        <time>2025-01-28T12:31:29Z</time>
      </trkpt>
      <trkpt lat="47.61714" lon="-2.83813">
        <ele>3.7</ele>
        <time>2025-01-28T12:31:30Z</time>
      </trkpt>
      <trkpt lat="47.61714" lon="-2.83813">
        <ele>3.7</ele>
        <time>2025-01-28T12:31:31Z</time>
      </trkpt>
      <trkpt lat="47.61715" lon="-2.83813">
        <ele>3.8</ele>
        <time>2025-01-28T12:31:32Z</time>
      </trkpt>
      <trkpt lat="47.61715" lon="-2.83813">
        <ele>3.8</ele>
        <time>2025-01-28T12:31:33Z</time>
      </trkpt>
      <trkpt lat="47.61715" lon="-2.83813">
        <ele>3.8</ele>
        <time>2025-01-28T12:31:34Z</time>
      </trkpt>
      <trkpt lat="47.61715" lon="-2.83813">
        <ele>3.8</ele>
        <time>2025-01-28T12:31:35Z</time>
      </trkpt>
      <trkpt lat="47.61715" lon="-2.83813">
        <ele>3.8</ele>
        <time>2025-01-28T12:31:36Z</time>
      </trkpt>
      <trkpt lat="47.61715" lon="-2.83813">
        <ele>3.8</ele>
        <time>2025-01-28T12:31:37Z</time>
      </trkpt>
      <trkpt lat="47.61715" lon="-2.83813">
        <ele>3.8</ele>
        <time>2025-01-28T12:31:38Z</time>
      </trkpt>
      <trkpt lat="47.61715" lon="-2.83813">
        <ele>3.8</ele>
        <time>2025-01-28T12:31:39Z</time>
      </trkpt>
      <trkpt lat="47.61715" lon="-2.83813">
        <ele>3.8</ele>
        <time>2025-01-28T12:31:40Z</time>
      </trkpt>
      <trkpt lat="47.61715" lon="-2.83813">
        <ele>3.8</ele>
        <time>2025-01-28T12:31:41Z</time>
      </trkpt>
      <trkpt lat="47.61715" lon="-2.83813">
        <ele>3.8</ele>
        <time>2025-01-28T12:31:42Z</time>
      </trkpt>
      <trkpt lat="47.61715" lon="-2.83813">
        <ele>3.8</ele>
        <time>2025-01-28T12:31:43Z</time>
      </trkpt>
      <trkpt lat="47.61715" lon="-2.83814">
        <ele>3.9</ele>
        <time>2025-01-28T12:31:44Z</time>
      </trkpt>
      <trkpt lat="47.61715" lon="-2.83815">
        <ele>4</ele>
        <time>2025-01-28T12:31:45Z</time>
      </trkpt>
      <trkpt lat="47.61715" lon="-2.83816">
        <ele>4</ele>
        <time>2025-01-28T12:31:46Z</time>
      </trkpt>
      <trkpt lat="47.61715" lon="-2.83817">
        <ele>4.1</ele>
        <time>2025-01-28T12:31:47Z</time>
      </trkpt>
      <trkpt lat="47.61714" lon="-2.83819">
        <ele>4.2</ele>
        <time>2025-01-28T12:31:48Z</time>
      </trkpt>
      <trkpt lat="47.61714" lon="-2.8382">
        <ele>4.1</ele>
        <time>2025-01-28T12:31:49Z</time>
      </trkpt>
      <trkpt lat="47.61712" lon="-2.8382">
        <ele>3.9</ele>
        <time>2025-01-28T12:31:50Z</time>
      </trkpt>
      <trkpt lat="47.61711" lon="-2.8382">
        <ele>3.8</ele>
        <time>2025-01-28T12:31:51Z</time>
      </trkpt>
      <trkpt lat="47.61711" lon="-2.83821">
        <ele>3.7</ele>
        <time>2025-01-28T12:31:52Z</time>
      </trkpt>
      <trkpt lat="47.6171" lon="-2.83822">
        <ele>3.7</ele>
        <time>2025-01-28T12:31:53Z</time>
      </trkpt>
      <trkpt lat="47.61709" lon="-2.83824">
        <ele>3.7</ele>
        <time>2025-01-28T12:31:54Z</time>
      </trkpt>
      <trkpt lat="47.61709" lon="-2.83826">
        <ele>3.8</ele>
        <time>2025-01-28T12:31:55Z</time>
      </trkpt>
      <trkpt lat="47.61709" lon="-2.83828">
        <ele>3.8</ele>
        <time>2025-01-28T12:31:56Z</time>
      </trkpt>
      <trkpt lat="47.61708" lon="-2.83829">
        <ele>3.8</ele>
        <time>2025-01-28T12:31:57Z</time>
      </trkpt>
      <trkpt lat="47.61707" lon="-2.83831">
        <ele>3.7</ele>
        <time>2025-01-28T12:31:58Z</time>
      </trkpt>
      <trkpt lat="47.61707" lon="-2.83832">
        <ele>3.5</ele>
        <time>2025-01-28T12:31:59Z</time>
      </trkpt>
      <trkpt lat="47.61706" lon="-2.83833">
        <ele>3.4</ele>
        <time>2025-01-28T12:32:00Z</time>
      </trkpt>
      <trkpt lat="47.61705" lon="-2.83834">
        <ele>3.3</ele>
        <time>2025-01-28T12:32:01Z</time>
      </trkpt>
      <trkpt lat="47.61705" lon="-2.83836">
        <ele>3.3</ele>
        <time>2025-01-28T12:32:02Z</time>
      </trkpt>
      <trkpt lat="47.61704" lon="-2.83837">
        <ele>3.4</ele>
        <time>2025-01-28T12:32:03Z</time>
      </trkpt>
      <trkpt lat="47.61704" lon="-2.83839">
        <ele>3.5</ele>
        <time>2025-01-28T12:32:04Z</time>
      </trkpt>
      <trkpt lat="47.61704" lon="-2.83841">
        <ele>3.5</ele>
        <time>2025-01-28T12:32:05Z</time>
      </trkpt>
      <trkpt lat="47.61704" lon="-2.83842">
        <ele>3.5</ele>
        <time>2025-01-28T12:32:06Z</time>
      </trkpt>
      <trkpt lat="47.61703" lon="-2.83845">
        <ele>3.5</ele>
        <time>2025-01-28T12:32:07Z</time>
      </trkpt>
      <trkpt lat="47.61702" lon="-2.83847">
        <ele>3.5</ele>
        <time>2025-01-28T12:32:08Z</time>
      </trkpt>
      <trkpt lat="47.61702" lon="-2.83849">
        <ele>3.6</ele>
        <time>2025-01-28T12:32:09Z</time>
      </trkpt>
      <trkpt lat="47.61702" lon="-2.8385">
        <ele>3.7</ele>
        <time>2025-01-28T12:32:10Z</time>
      </trkpt>
      <trkpt lat="47.61702" lon="-2.83852">
        <ele>3.8</ele>
        <time>2025-01-28T12:32:11Z</time>
      </trkpt>
      <trkpt lat="47.61702" lon="-2.83854">
        <ele>3.9</ele>
        <time>2025-01-28T12:32:12Z</time>
      </trkpt>
      <trkpt lat="47.61702" lon="-2.83857">
        <ele>4</ele>
        <time>2025-01-28T12:32:13Z</time>
      </trkpt>
      <trkpt lat="47.61702" lon="-2.83859">
        <ele>4.1</ele>
        <time>2025-01-28T12:32:14Z</time>
      </trkpt>
      <trkpt lat="47.61702" lon="-2.8386">
        <ele>4.2</ele>
        <time>2025-01-28T12:32:15Z</time>
      </trkpt>
      <trkpt lat="47.61701" lon="-2.83862">
        <ele>4.2</ele>
        <time>2025-01-28T12:32:16Z</time>
      </trkpt>
      <trkpt lat="47.61701" lon="-2.83864">
        <ele>4.2</ele>
        <time>2025-01-28T12:32:17Z</time>
      </trkpt>
      <trkpt lat="47.61701" lon="-2.83866">
        <ele>4.1</ele>
        <time>2025-01-28T12:32:18Z</time>
      </trkpt>
      <trkpt lat="47.61701" lon="-2.83868">
        <ele>4.3</ele>
        <time>2025-01-28T12:32:19Z</time>
      </trkpt>
      <trkpt lat="47.61702" lon="-2.8387">
        <ele>4.3</ele>
        <time>2025-01-28T12:32:20Z</time>
      </trkpt>
      <trkpt lat="47.61702" lon="-2.83872">
        <ele>4.4</ele>
        <time>2025-01-28T12:32:21Z</time>
      </trkpt>
      <trkpt lat="47.61702" lon="-2.83874">
        <ele>4.4</ele>
        <time>2025-01-28T12:32:22Z</time>
      </trkpt>
      <trkpt lat="47.61703" lon="-2.83875">
        <ele>4.5</ele>
        <time>2025-01-28T12:32:23Z</time>
      </trkpt>
      <trkpt lat="47.61703" lon="-2.83877">
        <ele>4.5</ele>
        <time>2025-01-28T12:32:24Z</time>
      </trkpt>
      <trkpt lat="47.61703" lon="-2.83878">
        <ele>4.6</ele>
        <time>2025-01-28T12:32:25Z</time>
      </trkpt>
      <trkpt lat="47.61704" lon="-2.8388">
        <ele>4.6</ele>
        <time>2025-01-28T12:32:26Z</time>
      </trkpt>
      <trkpt lat="47.61703" lon="-2.83882">
        <ele>4.6</ele>
        <time>2025-01-28T12:32:27Z</time>
      </trkpt>
      <trkpt lat="47.61704" lon="-2.83884">
        <ele>4.6</ele>
        <time>2025-01-28T12:32:28Z</time>
      </trkpt>
      <trkpt lat="47.61703" lon="-2.83885">
        <ele>4.6</ele>
        <time>2025-01-28T12:32:29Z</time>
      </trkpt>
      <trkpt lat="47.61703" lon="-2.83887">
        <ele>4.6</ele>
        <time>2025-01-28T12:32:30Z</time>
      </trkpt>
      <trkpt lat="47.61703" lon="-2.83888">
        <ele>4.5</ele>
        <time>2025-01-28T12:32:31Z</time>
      </trkpt>
      <trkpt lat="47.61703" lon="-2.8389">
        <ele>4.6</ele>
        <time>2025-01-28T12:32:32Z</time>
      </trkpt>
      <trkpt lat="47.61703" lon="-2.83892">
        <ele>4.6</ele>
        <time>2025-01-28T12:32:33Z</time>
      </trkpt>
      <trkpt lat="47.61703" lon="-2.83894">
        <ele>4.6</ele>
        <time>2025-01-28T12:32:34Z</time>
      </trkpt>
      <trkpt lat="47.61703" lon="-2.83896">
        <ele>4.7</ele>
        <time>2025-01-28T12:32:35Z</time>
      </trkpt>
      <trkpt lat="47.61703" lon="-2.83898">
        <ele>4.8</ele>
        <time>2025-01-28T12:32:36Z</time>
      </trkpt>
      <trkpt lat="47.61703" lon="-2.83899">
        <ele>4.8</ele>
        <time>2025-01-28T12:32:37Z</time>
      </trkpt>
      <trkpt lat="47.61703" lon="-2.83901">
        <ele>4.8</ele>
        <time>2025-01-28T12:32:38Z</time>
      </trkpt>
      <trkpt lat="47.61703" lon="-2.83903">
        <ele>4.8</ele>
        <time>2025-01-28T12:32:39Z</time>
      </trkpt>
      <trkpt lat="47.61703" lon="-2.83905">
        <ele>4.8</ele>
        <time>2025-01-28T12:32:40Z</time>
      </trkpt>
      <trkpt lat="47.61703" lon="-2.83907">
        <ele>4.9</ele>
        <time>2025-01-28T12:32:41Z</time>
      </trkpt>
      <trkpt lat="47.61703" lon="-2.83909">
        <ele>5</ele>
        <time>2025-01-28T12:32:42Z</time>
      </trkpt>
      <trkpt lat="47.61702" lon="-2.83911">
        <ele>5</ele>
        <time>2025-01-28T12:32:43Z</time>
      </trkpt>
      <trkpt lat="47.61702" lon="-2.83913">
        <ele>5</ele>
        <time>2025-01-28T12:32:44Z</time>
      </trkpt>
      <trkpt lat="47.61702" lon="-2.83915">
        <ele>5</ele>
        <time>2025-01-28T12:32:45Z</time>
      </trkpt>
      <trkpt lat="47.61701" lon="-2.83916">
        <ele>4.9</ele>
        <time>2025-01-28T12:32:46Z</time>
      </trkpt>
      <trkpt lat="47.61701" lon="-2.83918">
        <ele>4.9</ele>
        <time>2025-01-28T12:32:47Z</time>
      </trkpt>
      <trkpt lat="47.617" lon="-2.8392">
        <ele>4.9</ele>
        <time>2025-01-28T12:32:48Z</time>
      </trkpt>
      <trkpt lat="47.617" lon="-2.83922">
        <ele>4.9</ele>
        <time>2025-01-28T12:32:49Z</time>
      </trkpt>
      <trkpt lat="47.61699" lon="-2.83925">
        <ele>4.9</ele>
        <time>2025-01-28T12:32:50Z</time>
      </trkpt>
      <trkpt lat="47.61699" lon="-2.83927">
        <ele>4.9</ele>
        <time>2025-01-28T12:32:51Z</time>
      </trkpt>
      <trkpt lat="47.61698" lon="-2.83928">
        <ele>4.9</ele>
        <time>2025-01-28T12:32:52Z</time>
      </trkpt>
      <trkpt lat="47.61698" lon="-2.83929">
        <ele>4.8</ele>
        <time>2025-01-28T12:32:53Z</time>
      </trkpt>
      <trkpt lat="47.61697" lon="-2.83931">
        <ele>4.8</ele>
        <time>2025-01-28T12:32:54Z</time>
      </trkpt>
      <trkpt lat="47.61696" lon="-2.83932">
        <ele>4.7</ele>
        <time>2025-01-28T12:32:55Z</time>
      </trkpt>
      <trkpt lat="47.61695" lon="-2.83934">
        <ele>4.7</ele>
        <time>2025-01-28T12:32:56Z</time>
      </trkpt>
      <trkpt lat="47.61695" lon="-2.83936">
        <ele>4.7</ele>
        <time>2025-01-28T12:32:57Z</time>
      </trkpt>
      <trkpt lat="47.61694" lon="-2.83937">
        <ele>4.7</ele>
        <time>2025-01-28T12:32:58Z</time>
      </trkpt>
      <trkpt lat="47.61694" lon="-2.83939">
        <ele>4.7</ele>
        <time>2025-01-28T12:32:59Z</time>
      </trkpt>
      <trkpt lat="47.61694" lon="-2.83941">
        <ele>4.8</ele>
        <time>2025-01-28T12:33:00Z</time>
      </trkpt>
      <trkpt lat="47.61694" lon="-2.83943">
        <ele>4.9</ele>
        <time>2025-01-28T12:33:01Z</time>
      </trkpt>
      <trkpt lat="47.61694" lon="-2.83945">
        <ele>4.9</ele>
        <time>2025-01-28T12:33:02Z</time>
      </trkpt>
      <trkpt lat="47.61693" lon="-2.83946">
        <ele>4.8</ele>
        <time>2025-01-28T12:33:03Z</time>
      </trkpt>
      <trkpt lat="47.61693" lon="-2.83948">
        <ele>4.8</ele>
        <time>2025-01-28T12:33:04Z</time>
      </trkpt>
      <trkpt lat="47.61693" lon="-2.8395">
        <ele>4.8</ele>
        <time>2025-01-28T12:33:05Z</time>
      </trkpt>
      <trkpt lat="47.61692" lon="-2.83952">
        <ele>4.8</ele>
        <time>2025-01-28T12:33:06Z</time>
      </trkpt>
      <trkpt lat="47.61692" lon="-2.83954">
        <ele>4.8</ele>
        <time>2025-01-28T12:33:07Z</time>
      </trkpt>
      <trkpt lat="47.61692" lon="-2.83956">
        <ele>4.8</ele>
        <time>2025-01-28T12:33:08Z</time>
      </trkpt>
      <trkpt lat="47.61692" lon="-2.83958">
        <ele>4.8</ele>
        <time>2025-01-28T12:33:09Z</time>
      </trkpt>
      <trkpt lat="47.61692" lon="-2.8396">
        <ele>4.9</ele>
        <time>2025-01-28T12:33:10Z</time>
      </trkpt>
      <trkpt lat="47.61693" lon="-2.83962">
        <ele>4.9</ele>
        <time>2025-01-28T12:33:11Z</time>
      </trkpt>
      <trkpt lat="47.61692" lon="-2.83964">
        <ele>4.9</ele>
        <time>2025-01-28T12:33:12Z</time>
      </trkpt>
      <trkpt lat="47.61692" lon="-2.83965">
        <ele>4.9</ele>
        <time>2025-01-28T12:33:13Z</time>
      </trkpt>
      <trkpt lat="47.61693" lon="-2.83967">
        <ele>5</ele>
        <time>2025-01-28T12:33:14Z</time>
      </trkpt>
      <trkpt lat="47.61693" lon="-2.83969">
        <ele>5</ele>
        <time>2025-01-28T12:33:15Z</time>
      </trkpt>
      <trkpt lat="47.61693" lon="-2.83971">
        <ele>5</ele>
        <time>2025-01-28T12:33:16Z</time>
      </trkpt>
      <trkpt lat="47.61693" lon="-2.83974">
        <ele>5</ele>
        <time>2025-01-28T12:33:17Z</time>
      </trkpt>
      <trkpt lat="47.61693" lon="-2.83975">
        <ele>4.9</ele>
        <time>2025-01-28T12:33:18Z</time>
      </trkpt>
      <trkpt lat="47.61693" lon="-2.83977">
        <ele>4.8</ele>
        <time>2025-01-28T12:33:19Z</time>
      </trkpt>
      <trkpt lat="47.61693" lon="-2.83979">
        <ele>4.8</ele>
        <time>2025-01-28T12:33:20Z</time>
      </trkpt>
      <trkpt lat="47.61694" lon="-2.83981">
        <ele>4.7</ele>
        <time>2025-01-28T12:33:21Z</time>
      </trkpt>
      <trkpt lat="47.61695" lon="-2.83982">
        <ele>4.7</ele>
        <time>2025-01-28T12:33:22Z</time>
      </trkpt>
      <trkpt lat="47.61696" lon="-2.83983">
        <ele>4.8</ele>
        <time>2025-01-28T12:33:23Z</time>
      </trkpt>
      <trkpt lat="47.61697" lon="-2.83984">
        <ele>5</ele>
        <time>2025-01-28T12:33:24Z</time>
      </trkpt>
      <trkpt lat="47.61698" lon="-2.83985">
        <ele>5.1</ele>
        <time>2025-01-28T12:33:25Z</time>
      </trkpt>
      <trkpt lat="47.61698" lon="-2.83987">
        <ele>5</ele>
        <time>2025-01-28T12:33:26Z</time>
      </trkpt>
      <trkpt lat="47.61698" lon="-2.83989">
        <ele>5</ele>
        <time>2025-01-28T12:33:27Z</time>
      </trkpt>
      <trkpt lat="47.61698" lon="-2.8399">
        <ele>5</ele>
        <time>2025-01-28T12:33:28Z</time>
      </trkpt>
      <trkpt lat="47.61698" lon="-2.83991">
        <ele>4.9</ele>
        <time>2025-01-28T12:33:29Z</time>
      </trkpt>
      <trkpt lat="47.61699" lon="-2.83993">
        <ele>5</ele>
        <time>2025-01-28T12:33:30Z</time>
      </trkpt>
      <trkpt lat="47.61699" lon="-2.83994">
        <ele>5</ele>
        <time>2025-01-28T12:33:31Z</time>
      </trkpt>
      <trkpt lat="47.61699" lon="-2.83996">
        <ele>5</ele>
        <time>2025-01-28T12:33:32Z</time>
      </trkpt>
      <trkpt lat="47.61699" lon="-2.83998">
        <ele>5</ele>
        <time>2025-01-28T12:33:33Z</time>
      </trkpt>
      <trkpt lat="47.617" lon="-2.83999">
        <ele>4.9</ele>
        <time>2025-01-28T12:33:34Z</time>
      </trkpt>
      <trkpt lat="47.617" lon="-2.84001">
        <ele>4.9</ele>
        <time>2025-01-28T12:33:35Z</time>
      </trkpt>
      <trkpt lat="47.617" lon="-2.84003">
        <ele>4.9</ele>
        <time>2025-01-28T12:33:36Z</time>
      </trkpt>
      <trkpt lat="47.617" lon="-2.84004">
        <ele>4.8</ele>
        <time>2025-01-28T12:33:37Z</time>
      </trkpt>
      <trkpt lat="47.617" lon="-2.84006">
        <ele>4.7</ele>
        <time>2025-01-28T12:33:38Z</time>
      </trkpt>
      <trkpt lat="47.617" lon="-2.84008">
        <ele>4.6</ele>
        <time>2025-01-28T12:33:39Z</time>
      </trkpt>
      <trkpt lat="47.617" lon="-2.8401">
        <ele>4.6</ele>
        <time>2025-01-28T12:33:40Z</time>
      </trkpt>
      <trkpt lat="47.617" lon="-2.84012">
        <ele>4.6</ele>
        <time>2025-01-28T12:33:41Z</time>
      </trkpt>
      <trkpt lat="47.617" lon="-2.84013">
        <ele>4.5</ele>
        <time>2025-01-28T12:33:42Z</time>
      </trkpt>
      <trkpt lat="47.617" lon="-2.84015">
        <ele>4.5</ele>
        <time>2025-01-28T12:33:43Z</time>
      </trkpt>
      <trkpt lat="47.617" lon="-2.84017">
        <ele>4.5</ele>
        <time>2025-01-28T12:33:44Z</time>
      </trkpt>
      <trkpt lat="47.617" lon="-2.84018">
        <ele>4.4</ele>
        <time>2025-01-28T12:33:45Z</time>
      </trkpt>
      <trkpt lat="47.617" lon="-2.8402">
        <ele>4.3</ele>
        <time>2025-01-28T12:33:46Z</time>
      </trkpt>
      <trkpt lat="47.617" lon="-2.84022">
        <ele>4.3</ele>
        <time>2025-01-28T12:33:47Z</time>
      </trkpt>
      <trkpt lat="47.61701" lon="-2.84023">
        <ele>4.3</ele>
        <time>2025-01-28T12:33:48Z</time>
      </trkpt>
      <trkpt lat="47.61701" lon="-2.84025">
        <ele>4.3</ele>
        <time>2025-01-28T12:33:49Z</time>
      </trkpt>
      <trkpt lat="47.61702" lon="-2.84026">
        <ele>4.4</ele>
        <time>2025-01-28T12:33:50Z</time>
      </trkpt>
      <trkpt lat="47.61702" lon="-2.84027">
        <ele>4.4</ele>
        <time>2025-01-28T12:33:51Z</time>
      </trkpt>
      <trkpt lat="47.61703" lon="-2.84029">
        <ele>4.4</ele>
        <time>2025-01-28T12:33:52Z</time>
      </trkpt>
      <trkpt lat="47.61703" lon="-2.84031">
        <ele>4.5</ele>
        <time>2025-01-28T12:33:53Z</time>
      </trkpt>
      <trkpt lat="47.61703" lon="-2.84033">
        <ele>4.4</ele>
        <time>2025-01-28T12:33:54Z</time>
      </trkpt>
      <trkpt lat="47.61703" lon="-2.84035">
        <ele>4.4</ele>
        <time>2025-01-28T12:33:55Z</time>
      </trkpt>
      <trkpt lat="47.61703" lon="-2.84036">
        <ele>4.4</ele>
        <time>2025-01-28T12:33:56Z</time>
      </trkpt>
      <trkpt lat="47.61704" lon="-2.84038">
        <ele>4.4</ele>
        <time>2025-01-28T12:33:57Z</time>
      </trkpt>
      <trkpt lat="47.61704" lon="-2.8404">
        <ele>4.3</ele>
        <time>2025-01-28T12:33:58Z</time>
      </trkpt>
      <trkpt lat="47.61703" lon="-2.84041">
        <ele>4.3</ele>
        <time>2025-01-28T12:33:59Z</time>
      </trkpt>
      <trkpt lat="47.61704" lon="-2.84043">
        <ele>4.3</ele>
        <time>2025-01-28T12:34:00Z</time>
      </trkpt>
      <trkpt lat="47.61704" lon="-2.84045">
        <ele>4.3</ele>
        <time>2025-01-28T12:34:01Z</time>
      </trkpt>
      <trkpt lat="47.61704" lon="-2.84047">
        <ele>4.2</ele>
        <time>2025-01-28T12:34:02Z</time>
      </trkpt>
      <trkpt lat="47.61704" lon="-2.84049">
        <ele>4.2</ele>
        <time>2025-01-28T12:34:03Z</time>
      </trkpt>
      <trkpt lat="47.61704" lon="-2.8405">
        <ele>4.2</ele>
        <time>2025-01-28T12:34:04Z</time>
      </trkpt>
      <trkpt lat="47.61704" lon="-2.84051">
        <ele>4.2</ele>
        <time>2025-01-28T12:34:05Z</time>
      </trkpt>
      <trkpt lat="47.61705" lon="-2.84053">
        <ele>4.3</ele>
        <time>2025-01-28T12:34:06Z</time>
      </trkpt>
      <trkpt lat="47.61706" lon="-2.84054">
        <ele>4.4</ele>
        <time>2025-01-28T12:34:07Z</time>
      </trkpt>
      <trkpt lat="47.61706" lon="-2.84056">
        <ele>4.5</ele>
        <time>2025-01-28T12:34:08Z</time>
      </trkpt>
      <trkpt lat="47.61707" lon="-2.84057">
        <ele>4.6</ele>
        <time>2025-01-28T12:34:09Z</time>
      </trkpt>
      <trkpt lat="47.61707" lon="-2.84059">
        <ele>4.6</ele>
        <time>2025-01-28T12:34:10Z</time>
      </trkpt>
      <trkpt lat="47.61707" lon="-2.84061">
        <ele>4.6</ele>
        <time>2025-01-28T12:34:11Z</time>
      </trkpt>
      <trkpt lat="47.61707" lon="-2.84062">
        <ele>4.7</ele>
        <time>2025-01-28T12:34:12Z</time>
      </trkpt>
      <trkpt lat="47.61707" lon="-2.84064">
        <ele>4.7</ele>
        <time>2025-01-28T12:34:13Z</time>
      </trkpt>
      <trkpt lat="47.61708" lon="-2.84065">
        <ele>4.7</ele>
        <time>2025-01-28T12:34:14Z</time>
      </trkpt>
      <trkpt lat="47.61708" lon="-2.84067">
        <ele>4.7</ele>
        <time>2025-01-28T12:34:15Z</time>
      </trkpt>
      <trkpt lat="47.61708" lon="-2.84068">
        <ele>4.8</ele>
        <time>2025-01-28T12:34:16Z</time>
      </trkpt>
      <trkpt lat="47.61709" lon="-2.8407">
        <ele>4.8</ele>
        <time>2025-01-28T12:34:17Z</time>
      </trkpt>
      <trkpt lat="47.61709" lon="-2.84071">
        <ele>4.8</ele>
        <time>2025-01-28T12:34:18Z</time>
      </trkpt>
      <trkpt lat="47.61709" lon="-2.84073">
        <ele>4.8</ele>
        <time>2025-01-28T12:34:19Z</time>
      </trkpt>
      <trkpt lat="47.61709" lon="-2.84074">
        <ele>4.8</ele>
        <time>2025-01-28T12:34:20Z</time>
      </trkpt>
      <trkpt lat="47.61709" lon="-2.84076">
        <ele>4.8</ele>
        <time>2025-01-28T12:34:21Z</time>
      </trkpt>
      <trkpt lat="47.6171" lon="-2.84077">
        <ele>4.8</ele>
        <time>2025-01-28T12:34:22Z</time>
      </trkpt>
      <trkpt lat="47.61709" lon="-2.84079">
        <ele>4.8</ele>
        <time>2025-01-28T12:34:23Z</time>
      </trkpt>
      <trkpt lat="47.6171" lon="-2.84081">
        <ele>4.8</ele>
        <time>2025-01-28T12:34:24Z</time>
      </trkpt>
      <trkpt lat="47.6171" lon="-2.84082">
        <ele>4.8</ele>
        <time>2025-01-28T12:34:25Z</time>
      </trkpt>
      <trkpt lat="47.6171" lon="-2.84084">
        <ele>4.8</ele>
        <time>2025-01-28T12:34:26Z</time>
      </trkpt>
      <trkpt lat="47.6171" lon="-2.84086">
        <ele>4.7</ele>
        <time>2025-01-28T12:34:27Z</time>
      </trkpt>
      <trkpt lat="47.6171" lon="-2.84087">
        <ele>4.6</ele>
        <time>2025-01-28T12:34:28Z</time>
      </trkpt>
      <trkpt lat="47.61711" lon="-2.84089">
        <ele>4.6</ele>
        <time>2025-01-28T12:34:29Z</time>
      </trkpt>
      <trkpt lat="47.6171" lon="-2.84091">
        <ele>4.4</ele>
        <time>2025-01-28T12:34:30Z</time>
      </trkpt>
      <trkpt lat="47.61711" lon="-2.84093">
        <ele>4.3</ele>
        <time>2025-01-28T12:34:31Z</time>
      </trkpt>
      <trkpt lat="47.61711" lon="-2.84095">
        <ele>4.3</ele>
        <time>2025-01-28T12:34:32Z</time>
      </trkpt>
      <trkpt lat="47.61712" lon="-2.84097">
        <ele>4.3</ele>
        <time>2025-01-28T12:34:33Z</time>
      </trkpt>
      <trkpt lat="47.61712" lon="-2.84098">
        <ele>4.3</ele>
        <time>2025-01-28T12:34:34Z</time>
      </trkpt>
      <trkpt lat="47.61713" lon="-2.84099">
        <ele>4.4</ele>
        <time>2025-01-28T12:34:35Z</time>
      </trkpt>
      <trkpt lat="47.61714" lon="-2.841">
        <ele>4.6</ele>
        <time>2025-01-28T12:34:36Z</time>
      </trkpt>
      <trkpt lat="47.61716" lon="-2.84101">
        <ele>4.7</ele>
        <time>2025-01-28T12:34:37Z</time>
      </trkpt>
      <trkpt lat="47.61716" lon="-2.84103">
        <ele>4.7</ele>
        <time>2025-01-28T12:34:38Z</time>
      </trkpt>
      <trkpt lat="47.61717" lon="-2.84105">
        <ele>4.6</ele>
        <time>2025-01-28T12:34:39Z</time>
      </trkpt>
      <trkpt lat="47.61717" lon="-2.84106">
        <ele>4.6</ele>
        <time>2025-01-28T12:34:40Z</time>
      </trkpt>
      <trkpt lat="47.61717" lon="-2.84108">
        <ele>4.5</ele>
        <time>2025-01-28T12:34:41Z</time>
      </trkpt>
      <trkpt lat="47.61718" lon="-2.84109">
        <ele>4.5</ele>
        <time>2025-01-28T12:34:42Z</time>
      </trkpt>
      <trkpt lat="47.61719" lon="-2.84111">
        <ele>4.5</ele>
        <time>2025-01-28T12:34:43Z</time>
      </trkpt>
      <trkpt lat="47.61719" lon="-2.84112">
        <ele>4.5</ele>
        <time>2025-01-28T12:34:44Z</time>
      </trkpt>
      <trkpt lat="47.61721" lon="-2.84113">
        <ele>4.6</ele>
        <time>2025-01-28T12:34:45Z</time>
      </trkpt>
      <trkpt lat="47.61722" lon="-2.84114">
        <ele>4.7</ele>
        <time>2025-01-28T12:34:46Z</time>
      </trkpt>
      <trkpt lat="47.61722" lon="-2.84115">
        <ele>4.7</ele>
        <time>2025-01-28T12:34:47Z</time>
      </trkpt>
      <trkpt lat="47.61723" lon="-2.84117">
        <ele>4.6</ele>
        <time>2025-01-28T12:34:48Z</time>
      </trkpt>
      <trkpt lat="47.61724" lon="-2.84118">
        <ele>4.6</ele>
        <time>2025-01-28T12:34:49Z</time>
      </trkpt>
      <trkpt lat="47.61724" lon="-2.8412">
        <ele>4.5</ele>
        <time>2025-01-28T12:34:50Z</time>
      </trkpt>
      <trkpt lat="47.61725" lon="-2.84121">
        <ele>4.4</ele>
        <time>2025-01-28T12:34:51Z</time>
      </trkpt>
      <trkpt lat="47.61725" lon="-2.84123">
        <ele>4.4</ele>
        <time>2025-01-28T12:34:52Z</time>
      </trkpt>
      <trkpt lat="47.61726" lon="-2.84124">
        <ele>4.3</ele>
        <time>2025-01-28T12:34:53Z</time>
      </trkpt>
      <trkpt lat="47.61727" lon="-2.84126">
        <ele>4.3</ele>
        <time>2025-01-28T12:34:54Z</time>
      </trkpt>
      <trkpt lat="47.61728" lon="-2.84127">
        <ele>4.2</ele>
        <time>2025-01-28T12:34:55Z</time>
      </trkpt>
      <trkpt lat="47.61728" lon="-2.84129">
        <ele>4.2</ele>
        <time>2025-01-28T12:34:56Z</time>
      </trkpt>
      <trkpt lat="47.61729" lon="-2.8413">
        <ele>4.1</ele>
        <time>2025-01-28T12:34:57Z</time>
      </trkpt>
      <trkpt lat="47.6173" lon="-2.84132">
        <ele>4.1</ele>
        <time>2025-01-28T12:34:58Z</time>
      </trkpt>
      <trkpt lat="47.6173" lon="-2.84133">
        <ele>4</ele>
        <time>2025-01-28T12:34:59Z</time>
      </trkpt>
      <trkpt lat="47.61731" lon="-2.84135">
        <ele>3.9</ele>
        <time>2025-01-28T12:35:00Z</time>
      </trkpt>
      <trkpt lat="47.61731" lon="-2.84136">
        <ele>3.9</ele>
        <time>2025-01-28T12:35:01Z</time>
      </trkpt>
      <trkpt lat="47.61732" lon="-2.84137">
        <ele>3.8</ele>
        <time>2025-01-28T12:35:02Z</time>
      </trkpt>
      <trkpt lat="47.61733" lon="-2.84139">
        <ele>3.8</ele>
        <time>2025-01-28T12:35:03Z</time>
      </trkpt>
      <trkpt lat="47.61734" lon="-2.8414">
        <ele>3.8</ele>
        <time>2025-01-28T12:35:04Z</time>
      </trkpt>
      <trkpt lat="47.61735" lon="-2.8414">
        <ele>3.8</ele>
        <time>2025-01-28T12:35:05Z</time>
      </trkpt>
      <trkpt lat="47.61735" lon="-2.84142">
        <ele>3.7</ele>
        <time>2025-01-28T12:35:06Z</time>
      </trkpt>
      <trkpt lat="47.61736" lon="-2.84143">
        <ele>3.7</ele>
        <time>2025-01-28T12:35:07Z</time>
      </trkpt>
      <trkpt lat="47.61737" lon="-2.84144">
        <ele>3.7</ele>
        <time>2025-01-28T12:35:08Z</time>
      </trkpt>
      <trkpt lat="47.61738" lon="-2.84145">
        <ele>3.7</ele>
        <time>2025-01-28T12:35:09Z</time>
      </trkpt>
      <trkpt lat="47.61739" lon="-2.84146">
        <ele>3.7</ele>
        <time>2025-01-28T12:35:10Z</time>
      </trkpt>
      <trkpt lat="47.6174" lon="-2.84147">
        <ele>3.7</ele>
        <time>2025-01-28T12:35:11Z</time>
      </trkpt>
      <trkpt lat="47.61741" lon="-2.84149">
        <ele>3.7</ele>
        <time>2025-01-28T12:35:12Z</time>
      </trkpt>
      <trkpt lat="47.61742" lon="-2.8415">
        <ele>3.6</ele>
        <time>2025-01-28T12:35:13Z</time>
      </trkpt>
      <trkpt lat="47.61743" lon="-2.84151">
        <ele>3.6</ele>
        <time>2025-01-28T12:35:14Z</time>
      </trkpt>
      <trkpt lat="47.61744" lon="-2.84153">
        <ele>3.5</ele>
        <time>2025-01-28T12:35:15Z</time>
      </trkpt>
      <trkpt lat="47.61744" lon="-2.84155">
        <ele>3.4</ele>
        <time>2025-01-28T12:35:16Z</time>
      </trkpt>
      <trkpt lat="47.61744" lon="-2.84157">
        <ele>3.3</ele>
        <time>2025-01-28T12:35:17Z</time>
      </trkpt>
      <trkpt lat="47.61745" lon="-2.84158">
        <ele>3.2</ele>
        <time>2025-01-28T12:35:18Z</time>
      </trkpt>
      <trkpt lat="47.61745" lon="-2.8416">
        <ele>3.1</ele>
        <time>2025-01-28T12:35:19Z</time>
      </trkpt>
      <trkpt lat="47.61744" lon="-2.84162">
        <ele>2.9</ele>
        <time>2025-01-28T12:35:20Z</time>
      </trkpt>
      <trkpt lat="47.61743" lon="-2.84164">
        <ele>2.7</ele>
        <time>2025-01-28T12:35:21Z</time>
      </trkpt>
      <trkpt lat="47.61742" lon="-2.84165">
        <ele>2.6</ele>
        <time>2025-01-28T12:35:22Z</time>
      </trkpt>
      <trkpt lat="47.61742" lon="-2.84165">
        <ele>2.6</ele>
        <time>2025-01-28T12:35:23Z</time>
      </trkpt>
      <trkpt lat="47.61742" lon="-2.84165">
        <ele>2.5</ele>
        <time>2025-01-28T12:35:24Z</time>
      </trkpt>
      <trkpt lat="47.61741" lon="-2.84165">
        <ele>2.5</ele>
        <time>2025-01-28T12:35:25Z</time>
      </trkpt>
      <trkpt lat="47.61742" lon="-2.84165">
        <ele>2.5</ele>
        <time>2025-01-28T12:35:26Z</time>
      </trkpt>
      <trkpt lat="47.61742" lon="-2.84167">
        <ele>2.4</ele>
        <time>2025-01-28T12:35:27Z</time>
      </trkpt>
      <trkpt lat="47.61742" lon="-2.84169">
        <ele>2.5</ele>
        <time>2025-01-28T12:35:28Z</time>
      </trkpt>
      <trkpt lat="47.61743" lon="-2.84171">
        <ele>2.5</ele>
        <time>2025-01-28T12:35:29Z</time>
      </trkpt>
      <trkpt lat="47.61743" lon="-2.84172">
        <ele>2.6</ele>
        <time>2025-01-28T12:35:30Z</time>
      </trkpt>
      <trkpt lat="47.61744" lon="-2.84173">
        <ele>2.7</ele>
        <time>2025-01-28T12:35:31Z</time>
      </trkpt>
      <trkpt lat="47.61744" lon="-2.84175">
        <ele>2.7</ele>
        <time>2025-01-28T12:35:32Z</time>
      </trkpt>
      <trkpt lat="47.61745" lon="-2.84176">
        <ele>2.8</ele>
        <time>2025-01-28T12:35:33Z</time>
      </trkpt>
      <trkpt lat="47.61746" lon="-2.84177">
        <ele>2.8</ele>
        <time>2025-01-28T12:35:34Z</time>
      </trkpt>
      <trkpt lat="47.61747" lon="-2.84179">
        <ele>2.9</ele>
        <time>2025-01-28T12:35:35Z</time>
      </trkpt>
      <trkpt lat="47.61747" lon="-2.8418">
        <ele>2.9</ele>
        <time>2025-01-28T12:35:36Z</time>
      </trkpt>
      <trkpt lat="47.61747" lon="-2.84182">
        <ele>2.9</ele>
        <time>2025-01-28T12:35:37Z</time>
      </trkpt>
      <trkpt lat="47.61747" lon="-2.84184">
        <ele>2.9</ele>
        <time>2025-01-28T12:35:38Z</time>
      </trkpt>
      <trkpt lat="47.61748" lon="-2.84185">
        <ele>3</ele>
        <time>2025-01-28T12:35:39Z</time>
      </trkpt>
      <trkpt lat="47.61748" lon="-2.84187">
        <ele>3</ele>
        <time>2025-01-28T12:35:40Z</time>
      </trkpt>
      <trkpt lat="47.61749" lon="-2.84189">
        <ele>3</ele>
        <time>2025-01-28T12:35:41Z</time>
      </trkpt>
      <trkpt lat="47.61749" lon="-2.8419">
        <ele>3</ele>
        <time>2025-01-28T12:35:42Z</time>
      </trkpt>
      <trkpt lat="47.6175" lon="-2.84192">
        <ele>3</ele>
        <time>2025-01-28T12:35:43Z</time>
      </trkpt>
      <trkpt lat="47.61749" lon="-2.84194">
        <ele>3</ele>
        <time>2025-01-28T12:35:44Z</time>
      </trkpt>
      <trkpt lat="47.61749" lon="-2.84196">
        <ele>3</ele>
        <time>2025-01-28T12:35:45Z</time>
      </trkpt>
      <trkpt lat="47.61749" lon="-2.84198">
        <ele>2.9</ele>
        <time>2025-01-28T12:35:46Z</time>
      </trkpt>
      <trkpt lat="47.61749" lon="-2.84199">
        <ele>2.8</ele>
        <time>2025-01-28T12:35:47Z</time>
      </trkpt>
      <trkpt lat="47.6175" lon="-2.84201">
        <ele>2.8</ele>
        <time>2025-01-28T12:35:48Z</time>
      </trkpt>
      <trkpt lat="47.6175" lon="-2.84203">
        <ele>2.7</ele>
        <time>2025-01-28T12:35:49Z</time>
      </trkpt>
      <trkpt lat="47.61751" lon="-2.84204">
        <ele>2.7</ele>
        <time>2025-01-28T12:35:50Z</time>
      </trkpt>
      <trkpt lat="47.61752" lon="-2.84206">
        <ele>2.6</ele>
        <time>2025-01-28T12:35:51Z</time>
      </trkpt>
      <trkpt lat="47.61752" lon="-2.84208">
        <ele>2.6</ele>
        <time>2025-01-28T12:35:52Z</time>
      </trkpt>
      <trkpt lat="47.61753" lon="-2.8421">
        <ele>2.6</ele>
        <time>2025-01-28T12:35:53Z</time>
      </trkpt>
      <trkpt lat="47.61753" lon="-2.84211">
        <ele>2.5</ele>
        <time>2025-01-28T12:35:54Z</time>
      </trkpt>
      <trkpt lat="47.61754" lon="-2.84213">
        <ele>2.5</ele>
        <time>2025-01-28T12:35:55Z</time>
      </trkpt>
      <trkpt lat="47.61754" lon="-2.84214">
        <ele>2.5</ele>
        <time>2025-01-28T12:35:56Z</time>
      </trkpt>
      <trkpt lat="47.61755" lon="-2.84216">
        <ele>2.5</ele>
        <time>2025-01-28T12:35:57Z</time>
      </trkpt>
      <trkpt lat="47.61755" lon="-2.84217">
        <ele>2.5</ele>
        <time>2025-01-28T12:35:58Z</time>
      </trkpt>
      <trkpt lat="47.61756" lon="-2.84219">
        <ele>2.5</ele>
        <time>2025-01-28T12:35:59Z</time>
      </trkpt>
      <trkpt lat="47.61756" lon="-2.84221">
        <ele>2.4</ele>
        <time>2025-01-28T12:36:00Z</time>
      </trkpt>
      <trkpt lat="47.61756" lon="-2.84222">
        <ele>2.4</ele>
        <time>2025-01-28T12:36:01Z</time>
      </trkpt>
      <trkpt lat="47.61756" lon="-2.84224">
        <ele>2.4</ele>
        <time>2025-01-28T12:36:02Z</time>
      </trkpt>
      <trkpt lat="47.61756" lon="-2.84226">
        <ele>2.4</ele>
        <time>2025-01-28T12:36:03Z</time>
      </trkpt>
      <trkpt lat="47.61756" lon="-2.84228">
        <ele>2.4</ele>
        <time>2025-01-28T12:36:04Z</time>
      </trkpt>
      <trkpt lat="47.61755" lon="-2.84229">
        <ele>2.4</ele>
        <time>2025-01-28T12:36:05Z</time>
      </trkpt>
      <trkpt lat="47.61755" lon="-2.84231">
        <ele>2.3</ele>
        <time>2025-01-28T12:36:06Z</time>
      </trkpt>
      <trkpt lat="47.61754" lon="-2.84233">
        <ele>2.3</ele>
        <time>2025-01-28T12:36:07Z</time>
      </trkpt>
      <trkpt lat="47.61754" lon="-2.84234">
        <ele>2.3</ele>
        <time>2025-01-28T12:36:08Z</time>
      </trkpt>
      <trkpt lat="47.61753" lon="-2.84236">
        <ele>2.2</ele>
        <time>2025-01-28T12:36:09Z</time>
      </trkpt>
      <trkpt lat="47.61753" lon="-2.84238">
        <ele>2.2</ele>
        <time>2025-01-28T12:36:10Z</time>
      </trkpt>
      <trkpt lat="47.61752" lon="-2.84239">
        <ele>2.2</ele>
        <time>2025-01-28T12:36:11Z</time>
      </trkpt>
      <trkpt lat="47.61752" lon="-2.84241">
        <ele>2.1</ele>
        <time>2025-01-28T12:36:12Z</time>
      </trkpt>
      <trkpt lat="47.61752" lon="-2.84243">
        <ele>2.1</ele>
        <time>2025-01-28T12:36:13Z</time>
      </trkpt>
      <trkpt lat="47.61752" lon="-2.84245">
        <ele>2.1</ele>
        <time>2025-01-28T12:36:14Z</time>
      </trkpt>
      <trkpt lat="47.61752" lon="-2.84246">
        <ele>2.1</ele>
        <time>2025-01-28T12:36:15Z</time>
      </trkpt>
      <trkpt lat="47.61752" lon="-2.84248">
        <ele>2.2</ele>
        <time>2025-01-28T12:36:16Z</time>
      </trkpt>
      <trkpt lat="47.61753" lon="-2.8425">
        <ele>2.2</ele>
        <time>2025-01-28T12:36:17Z</time>
      </trkpt>
      <trkpt lat="47.61753" lon="-2.84251">
        <ele>2.2</ele>
        <time>2025-01-28T12:36:18Z</time>
      </trkpt>
      <trkpt lat="47.61753" lon="-2.84253">
        <ele>2.2</ele>
        <time>2025-01-28T12:36:19Z</time>
      </trkpt>
      <trkpt lat="47.61753" lon="-2.84255">
        <ele>2.2</ele>
        <time>2025-01-28T12:36:20Z</time>
      </trkpt>
      <trkpt lat="47.61753" lon="-2.84256">
        <ele>2.3</ele>
        <time>2025-01-28T12:36:21Z</time>
      </trkpt>
      <trkpt lat="47.61754" lon="-2.84258">
        <ele>2.3</ele>
        <time>2025-01-28T12:36:22Z</time>
      </trkpt>
      <trkpt lat="47.61754" lon="-2.84259">
        <ele>2.3</ele>
        <time>2025-01-28T12:36:23Z</time>
      </trkpt>
      <trkpt lat="47.61754" lon="-2.84261">
        <ele>2.3</ele>
        <time>2025-01-28T12:36:24Z</time>
      </trkpt>
      <trkpt lat="47.61754" lon="-2.84263">
        <ele>2.4</ele>
        <time>2025-01-28T12:36:25Z</time>
      </trkpt>
      <trkpt lat="47.61754" lon="-2.84265">
        <ele>2.4</ele>
        <time>2025-01-28T12:36:26Z</time>
      </trkpt>
      <trkpt lat="47.61755" lon="-2.84267">
        <ele>2.4</ele>
        <time>2025-01-28T12:36:27Z</time>
      </trkpt>
      <trkpt lat="47.61755" lon="-2.84268">
        <ele>2.5</ele>
        <time>2025-01-28T12:36:28Z</time>
      </trkpt>
      <trkpt lat="47.61756" lon="-2.84269">
        <ele>2.6</ele>
        <time>2025-01-28T12:36:29Z</time>
      </trkpt>
      <trkpt lat="47.61756" lon="-2.8427">
        <ele>2.6</ele>
        <time>2025-01-28T12:36:30Z</time>
      </trkpt>
      <trkpt lat="47.61757" lon="-2.84272">
        <ele>2.7</ele>
        <time>2025-01-28T12:36:31Z</time>
      </trkpt>
      <trkpt lat="47.61758" lon="-2.84273">
        <ele>2.8</ele>
        <time>2025-01-28T12:36:32Z</time>
      </trkpt>
      <trkpt lat="47.61758" lon="-2.84274">
        <ele>2.8</ele>
        <time>2025-01-28T12:36:33Z</time>
      </trkpt>
      <trkpt lat="47.61758" lon="-2.84276">
        <ele>2.9</ele>
        <time>2025-01-28T12:36:34Z</time>
      </trkpt>
      <trkpt lat="47.61759" lon="-2.84277">
        <ele>2.9</ele>
        <time>2025-01-28T12:36:35Z</time>
      </trkpt>
      <trkpt lat="47.6176" lon="-2.84278">
        <ele>3</ele>
        <time>2025-01-28T12:36:36Z</time>
      </trkpt>
      <trkpt lat="47.6176" lon="-2.84279">
        <ele>3</ele>
        <time>2025-01-28T12:36:37Z</time>
      </trkpt>
      <trkpt lat="47.6176" lon="-2.84281">
        <ele>3</ele>
        <time>2025-01-28T12:36:38Z</time>
      </trkpt>
      <trkpt lat="47.6176" lon="-2.84282">
        <ele>3</ele>
        <time>2025-01-28T12:36:39Z</time>
      </trkpt>
      <trkpt lat="47.61761" lon="-2.84283">
        <ele>3</ele>
        <time>2025-01-28T12:36:40Z</time>
      </trkpt>
      <trkpt lat="47.61761" lon="-2.84285">
        <ele>3</ele>
        <time>2025-01-28T12:36:41Z</time>
      </trkpt>
      <trkpt lat="47.61762" lon="-2.84286">
        <ele>3</ele>
        <time>2025-01-28T12:36:42Z</time>
      </trkpt>
      <trkpt lat="47.61762" lon="-2.84287">
        <ele>3</ele>
        <time>2025-01-28T12:36:43Z</time>
      </trkpt>
      <trkpt lat="47.61763" lon="-2.84288">
        <ele>3</ele>
        <time>2025-01-28T12:36:44Z</time>
      </trkpt>
      <trkpt lat="47.61763" lon="-2.84289">
        <ele>3</ele>
        <time>2025-01-28T12:36:45Z</time>
      </trkpt>
      <trkpt lat="47.61763" lon="-2.8429">
        <ele>3</ele>
        <time>2025-01-28T12:36:46Z</time>
      </trkpt>
      <trkpt lat="47.61763" lon="-2.8429">
        <ele>2.9</ele>
        <time>2025-01-28T12:36:47Z</time>
      </trkpt>
      <trkpt lat="47.61763" lon="-2.8429">
        <ele>2.9</ele>
        <time>2025-01-28T12:36:48Z</time>
      </trkpt>
      <trkpt lat="47.61763" lon="-2.8429">
        <ele>2.9</ele>
        <time>2025-01-28T12:36:49Z</time>
      </trkpt>
      <trkpt lat="47.61763" lon="-2.8429">
        <ele>2.9</ele>
        <time>2025-01-28T12:36:50Z</time>
      </trkpt>
      <trkpt lat="47.61763" lon="-2.8429">
        <ele>2.9</ele>
        <time>2025-01-28T12:36:51Z</time>
      </trkpt>
      <trkpt lat="47.61763" lon="-2.8429">
        <ele>2.9</ele>
        <time>2025-01-28T12:36:52Z</time>
      </trkpt>
      <trkpt lat="47.61763" lon="-2.8429">
        <ele>2.9</ele>
        <time>2025-01-28T12:36:53Z</time>
      </trkpt>
      <trkpt lat="47.61763" lon="-2.8429">
        <ele>2.9</ele>
        <time>2025-01-28T12:36:54Z</time>
      </trkpt>
      <trkpt lat="47.61763" lon="-2.84289">
        <ele>3</ele>
        <time>2025-01-28T12:36:55Z</time>
      </trkpt>
      <trkpt lat="47.61764" lon="-2.84288">
        <ele>3.1</ele>
        <time>2025-01-28T12:36:56Z</time>
      </trkpt>
      <trkpt lat="47.61765" lon="-2.84288">
        <ele>3.3</ele>
        <time>2025-01-28T12:36:57Z</time>
      </trkpt>
      <trkpt lat="47.61766" lon="-2.84288">
        <ele>3.4</ele>
        <time>2025-01-28T12:36:58Z</time>
      </trkpt>
      <trkpt lat="47.61767" lon="-2.84288">
        <ele>3.5</ele>
        <time>2025-01-28T12:36:59Z</time>
      </trkpt>
      <trkpt lat="47.61768" lon="-2.84288">
        <ele>3.5</ele>
        <time>2025-01-28T12:37:00Z</time>
      </trkpt>
      <trkpt lat="47.61769" lon="-2.84289">
        <ele>3.6</ele>
        <time>2025-01-28T12:37:01Z</time>
      </trkpt>
      <trkpt lat="47.61769" lon="-2.8429">
        <ele>3.6</ele>
        <time>2025-01-28T12:37:02Z</time>
      </trkpt>
      <trkpt lat="47.6177" lon="-2.84292">
        <ele>3.7</ele>
        <time>2025-01-28T12:37:03Z</time>
      </trkpt>
      <trkpt lat="47.61771" lon="-2.84293">
        <ele>3.7</ele>
        <time>2025-01-28T12:37:04Z</time>
      </trkpt>
      <trkpt lat="47.61772" lon="-2.84294">
        <ele>3.8</ele>
        <time>2025-01-28T12:37:05Z</time>
      </trkpt>
      <trkpt lat="47.61773" lon="-2.84295">
        <ele>3.8</ele>
        <time>2025-01-28T12:37:06Z</time>
      </trkpt>
      <trkpt lat="47.61774" lon="-2.84296">
        <ele>3.9</ele>
        <time>2025-01-28T12:37:07Z</time>
      </trkpt>
      <trkpt lat="47.61775" lon="-2.84298">
        <ele>3.9</ele>
        <time>2025-01-28T12:37:08Z</time>
      </trkpt>
      <trkpt lat="47.61775" lon="-2.84299">
        <ele>4</ele>
        <time>2025-01-28T12:37:09Z</time>
      </trkpt>
      <trkpt lat="47.61776" lon="-2.843">
        <ele>4</ele>
        <time>2025-01-28T12:37:10Z</time>
      </trkpt>
      <trkpt lat="47.61777" lon="-2.84301">
        <ele>4.1</ele>
        <time>2025-01-28T12:37:11Z</time>
      </trkpt>
      <trkpt lat="47.61778" lon="-2.84302">
        <ele>4.2</ele>
        <time>2025-01-28T12:37:12Z</time>
      </trkpt>
      <trkpt lat="47.61779" lon="-2.84302">
        <ele>4.3</ele>
        <time>2025-01-28T12:37:13Z</time>
      </trkpt>
      <trkpt lat="47.6178" lon="-2.84302">
        <ele>4.5</ele>
        <time>2025-01-28T12:37:14Z</time>
      </trkpt>
      <trkpt lat="47.61781" lon="-2.84304">
        <ele>4.6</ele>
        <time>2025-01-28T12:37:15Z</time>
      </trkpt>
      <trkpt lat="47.61782" lon="-2.84305">
        <ele>4.6</ele>
        <time>2025-01-28T12:37:16Z</time>
      </trkpt>
      <trkpt lat="47.61783" lon="-2.84306">
        <ele>4.6</ele>
        <time>2025-01-28T12:37:17Z</time>
      </trkpt>
      <trkpt lat="47.61783" lon="-2.84308">
        <ele>4.6</ele>
        <time>2025-01-28T12:37:18Z</time>
      </trkpt>
      <trkpt lat="47.61784" lon="-2.84309">
        <ele>4.5</ele>
        <time>2025-01-28T12:37:19Z</time>
      </trkpt>
      <trkpt lat="47.61784" lon="-2.84311">
        <ele>4.5</ele>
        <time>2025-01-28T12:37:20Z</time>
      </trkpt>
      <trkpt lat="47.61785" lon="-2.84312">
        <ele>4.5</ele>
        <time>2025-01-28T12:37:21Z</time>
      </trkpt>
      <trkpt lat="47.61785" lon="-2.84313">
        <ele>4.5</ele>
        <time>2025-01-28T12:37:22Z</time>
      </trkpt>
      <trkpt lat="47.61786" lon="-2.84314">
        <ele>4.5</ele>
        <time>2025-01-28T12:37:23Z</time>
      </trkpt>
      <trkpt lat="47.61787" lon="-2.84316">
        <ele>4.5</ele>
        <time>2025-01-28T12:37:24Z</time>
      </trkpt>
      <trkpt lat="47.61787" lon="-2.84317">
        <ele>4.5</ele>
        <time>2025-01-28T12:37:25Z</time>
      </trkpt>
      <trkpt lat="47.61788" lon="-2.84319">
        <ele>4.6</ele>
        <time>2025-01-28T12:37:26Z</time>
      </trkpt>
      <trkpt lat="47.61789" lon="-2.8432">
        <ele>4.7</ele>
        <time>2025-01-28T12:37:27Z</time>
      </trkpt>
      <trkpt lat="47.6179" lon="-2.84322">
        <ele>4.7</ele>
        <time>2025-01-28T12:37:28Z</time>
      </trkpt>
      <trkpt lat="47.61791" lon="-2.84324">
        <ele>4.8</ele>
        <time>2025-01-28T12:37:29Z</time>
      </trkpt>
      <trkpt lat="47.61791" lon="-2.84326">
        <ele>4.8</ele>
        <time>2025-01-28T12:37:30Z</time>
      </trkpt>
      <trkpt lat="47.61792" lon="-2.84328">
        <ele>4.9</ele>
        <time>2025-01-28T12:37:31Z</time>
      </trkpt>
      <trkpt lat="47.61792" lon="-2.8433">
        <ele>4.8</ele>
        <time>2025-01-28T12:37:32Z</time>
      </trkpt>
      <trkpt lat="47.61792" lon="-2.84332">
        <ele>4.8</ele>
        <time>2025-01-28T12:37:33Z</time>
      </trkpt>
      <trkpt lat="47.61793" lon="-2.84334">
        <ele>4.7</ele>
        <time>2025-01-28T12:37:34Z</time>
      </trkpt>
      <trkpt lat="47.61793" lon="-2.84336">
        <ele>5</ele>
        <time>2025-01-28T12:37:35Z</time>
      </trkpt>
      <trkpt lat="47.61793" lon="-2.84338">
        <ele>5.2</ele>
        <time>2025-01-28T12:37:36Z</time>
      </trkpt>
      <trkpt lat="47.61793" lon="-2.8434">
        <ele>5.4</ele>
        <time>2025-01-28T12:37:37Z</time>
      </trkpt>
      <trkpt lat="47.61793" lon="-2.84341">
        <ele>5.5</ele>
        <time>2025-01-28T12:37:38Z</time>
      </trkpt>
      <trkpt lat="47.61793" lon="-2.84343">
        <ele>5.6</ele>
        <time>2025-01-28T12:37:39Z</time>
      </trkpt>
      <trkpt lat="47.61794" lon="-2.84344">
        <ele>5.8</ele>
        <time>2025-01-28T12:37:40Z</time>
      </trkpt>
      <trkpt lat="47.61794" lon="-2.84345">
        <ele>6</ele>
        <time>2025-01-28T12:37:41Z</time>
      </trkpt>
      <trkpt lat="47.61796" lon="-2.84346">
        <ele>6.2</ele>
        <time>2025-01-28T12:37:42Z</time>
      </trkpt>
      <trkpt lat="47.61796" lon="-2.84347">
        <ele>6.4</ele>
        <time>2025-01-28T12:37:43Z</time>
      </trkpt>
      <trkpt lat="47.61797" lon="-2.84349">
        <ele>6.5</ele>
        <time>2025-01-28T12:37:44Z</time>
      </trkpt>
      <trkpt lat="47.61798" lon="-2.8435">
        <ele>6.7</ele>
        <time>2025-01-28T12:37:45Z</time>
      </trkpt>
      <trkpt lat="47.61799" lon="-2.84352">
        <ele>6.8</ele>
        <time>2025-01-28T12:37:46Z</time>
      </trkpt>
      <trkpt lat="47.618" lon="-2.84353">
        <ele>6.9</ele>
        <time>2025-01-28T12:37:47Z</time>
      </trkpt>
      <trkpt lat="47.61801" lon="-2.84354">
        <ele>7</ele>
        <time>2025-01-28T12:37:48Z</time>
      </trkpt>
      <trkpt lat="47.61802" lon="-2.84355">
        <ele>7</ele>
        <time>2025-01-28T12:37:49Z</time>
      </trkpt>
      <trkpt lat="47.61803" lon="-2.84356">
        <ele>7.1</ele>
        <time>2025-01-28T12:37:50Z</time>
      </trkpt>
      <trkpt lat="47.61804" lon="-2.84357">
        <ele>7.1</ele>
        <time>2025-01-28T12:37:51Z</time>
      </trkpt>
      <trkpt lat="47.61805" lon="-2.84357">
        <ele>7.1</ele>
        <time>2025-01-28T12:37:52Z</time>
      </trkpt>
      <trkpt lat="47.61806" lon="-2.84358">
        <ele>7.2</ele>
        <time>2025-01-28T12:37:53Z</time>
      </trkpt>
      <trkpt lat="47.61807" lon="-2.84359">
        <ele>7.4</ele>
        <time>2025-01-28T12:37:54Z</time>
      </trkpt>
      <trkpt lat="47.61808" lon="-2.84361">
        <ele>7.5</ele>
        <time>2025-01-28T12:37:55Z</time>
      </trkpt>
      <trkpt lat="47.61809" lon="-2.84362">
        <ele>7.5</ele>
        <time>2025-01-28T12:37:56Z</time>
      </trkpt>
      <trkpt lat="47.6181" lon="-2.84363">
        <ele>7.5</ele>
        <time>2025-01-28T12:37:57Z</time>
      </trkpt>
      <trkpt lat="47.6181" lon="-2.84365">
        <ele>7.5</ele>
        <time>2025-01-28T12:37:58Z</time>
      </trkpt>
      <trkpt lat="47.61811" lon="-2.84366">
        <ele>7.6</ele>
        <time>2025-01-28T12:37:59Z</time>
      </trkpt>
      <trkpt lat="47.61812" lon="-2.84367">
        <ele>7.6</ele>
        <time>2025-01-28T12:38:00Z</time>
      </trkpt>
      <trkpt lat="47.61813" lon="-2.84368">
        <ele>7.6</ele>
        <time>2025-01-28T12:38:01Z</time>
      </trkpt>
      <trkpt lat="47.61813" lon="-2.8437">
        <ele>7.5</ele>
        <time>2025-01-28T12:38:02Z</time>
      </trkpt>
      <trkpt lat="47.61814" lon="-2.84372">
        <ele>7.5</ele>
        <time>2025-01-28T12:38:03Z</time>
      </trkpt>
      <trkpt lat="47.61815" lon="-2.84373">
        <ele>7.5</ele>
        <time>2025-01-28T12:38:04Z</time>
      </trkpt>
      <trkpt lat="47.61816" lon="-2.84375">
        <ele>7.5</ele>
        <time>2025-01-28T12:38:05Z</time>
      </trkpt>
      <trkpt lat="47.61817" lon="-2.84377">
        <ele>7.5</ele>
        <time>2025-01-28T12:38:06Z</time>
      </trkpt>
      <trkpt lat="47.61817" lon="-2.84378">
        <ele>7.5</ele>
        <time>2025-01-28T12:38:07Z</time>
      </trkpt>
      <trkpt lat="47.61818" lon="-2.8438">
        <ele>7.5</ele>
        <time>2025-01-28T12:38:08Z</time>
      </trkpt>
      <trkpt lat="47.61819" lon="-2.84381">
        <ele>7.5</ele>
        <time>2025-01-28T12:38:09Z</time>
      </trkpt>
      <trkpt lat="47.61819" lon="-2.84383">
        <ele>7.6</ele>
        <time>2025-01-28T12:38:10Z</time>
      </trkpt>
      <trkpt lat="47.6182" lon="-2.84384">
        <ele>7.6</ele>
        <time>2025-01-28T12:38:11Z</time>
      </trkpt>
      <trkpt lat="47.61821" lon="-2.84385">
        <ele>7.7</ele>
        <time>2025-01-28T12:38:12Z</time>
      </trkpt>
      <trkpt lat="47.61822" lon="-2.84387">
        <ele>7.8</ele>
        <time>2025-01-28T12:38:13Z</time>
      </trkpt>
      <trkpt lat="47.61823" lon="-2.84388">
        <ele>7.8</ele>
        <time>2025-01-28T12:38:14Z</time>
      </trkpt>
      <trkpt lat="47.61823" lon="-2.84389">
        <ele>7.8</ele>
        <time>2025-01-28T12:38:15Z</time>
      </trkpt>
      <trkpt lat="47.61824" lon="-2.84391">
        <ele>7.8</ele>
        <time>2025-01-28T12:38:16Z</time>
      </trkpt>
      <trkpt lat="47.61824" lon="-2.84392">
        <ele>7.7</ele>
        <time>2025-01-28T12:38:17Z</time>
      </trkpt>
      <trkpt lat="47.61825" lon="-2.84394">
        <ele>7.6</ele>
        <time>2025-01-28T12:38:18Z</time>
      </trkpt>
      <trkpt lat="47.61826" lon="-2.84396">
        <ele>7.6</ele>
        <time>2025-01-28T12:38:19Z</time>
      </trkpt>
      <trkpt lat="47.61826" lon="-2.84398">
        <ele>7.5</ele>
        <time>2025-01-28T12:38:20Z</time>
      </trkpt>
      <trkpt lat="47.61827" lon="-2.84399">
        <ele>7.5</ele>
        <time>2025-01-28T12:38:21Z</time>
      </trkpt>
      <trkpt lat="47.61828" lon="-2.844">
        <ele>7.5</ele>
        <time>2025-01-28T12:38:22Z</time>
      </trkpt>
      <trkpt lat="47.61829" lon="-2.84402">
        <ele>7.6</ele>
        <time>2025-01-28T12:38:23Z</time>
      </trkpt>
      <trkpt lat="47.6183" lon="-2.84403">
        <ele>7.7</ele>
        <time>2025-01-28T12:38:24Z</time>
      </trkpt>
      <trkpt lat="47.61831" lon="-2.84404">
        <ele>7.9</ele>
        <time>2025-01-28T12:38:25Z</time>
      </trkpt>
      <trkpt lat="47.61832" lon="-2.84405">
        <ele>8</ele>
        <time>2025-01-28T12:38:26Z</time>
      </trkpt>
      <trkpt lat="47.61833" lon="-2.84406">
        <ele>8.1</ele>
        <time>2025-01-28T12:38:27Z</time>
      </trkpt>
      <trkpt lat="47.61834" lon="-2.84406">
        <ele>8.1</ele>
        <time>2025-01-28T12:38:28Z</time>
      </trkpt>
      <trkpt lat="47.61835" lon="-2.84407">
        <ele>8.1</ele>
        <time>2025-01-28T12:38:29Z</time>
      </trkpt>
      <trkpt lat="47.61836" lon="-2.84408">
        <ele>8</ele>
        <time>2025-01-28T12:38:30Z</time>
      </trkpt>
      <trkpt lat="47.61837" lon="-2.84409">
        <ele>7.9</ele>
        <time>2025-01-28T12:38:31Z</time>
      </trkpt>
      <trkpt lat="47.61838" lon="-2.8441">
        <ele>7.8</ele>
        <time>2025-01-28T12:38:32Z</time>
      </trkpt>
      <trkpt lat="47.6184" lon="-2.8441">
        <ele>7.8</ele>
        <time>2025-01-28T12:38:33Z</time>
      </trkpt>
      <trkpt lat="47.61841" lon="-2.8441">
        <ele>7.8</ele>
        <time>2025-01-28T12:38:34Z</time>
      </trkpt>
      <trkpt lat="47.61842" lon="-2.84411">
        <ele>7.7</ele>
        <time>2025-01-28T12:38:35Z</time>
      </trkpt>
      <trkpt lat="47.61844" lon="-2.84412">
        <ele>7.7</ele>
        <time>2025-01-28T12:38:36Z</time>
      </trkpt>
      <trkpt lat="47.61845" lon="-2.84413">
        <ele>7.5</ele>
        <time>2025-01-28T12:38:37Z</time>
      </trkpt>
      <trkpt lat="47.61846" lon="-2.84414">
        <ele>7.4</ele>
        <time>2025-01-28T12:38:38Z</time>
      </trkpt>
      <trkpt lat="47.61847" lon="-2.84415">
        <ele>7.3</ele>
        <time>2025-01-28T12:38:39Z</time>
      </trkpt>
      <trkpt lat="47.61848" lon="-2.84416">
        <ele>7.1</ele>
        <time>2025-01-28T12:38:40Z</time>
      </trkpt>
      <trkpt lat="47.61849" lon="-2.84417">
        <ele>7</ele>
        <time>2025-01-28T12:38:41Z</time>
      </trkpt>
      <trkpt lat="47.6185" lon="-2.84418">
        <ele>6.9</ele>
        <time>2025-01-28T12:38:42Z</time>
      </trkpt>
      <trkpt lat="47.61851" lon="-2.84419">
        <ele>6.8</ele>
        <time>2025-01-28T12:38:43Z</time>
      </trkpt>
      <trkpt lat="47.61852" lon="-2.8442">
        <ele>6.7</ele>
        <time>2025-01-28T12:38:44Z</time>
      </trkpt>
      <trkpt lat="47.61853" lon="-2.84421">
        <ele>6.6</ele>
        <time>2025-01-28T12:38:45Z</time>
      </trkpt>
      <trkpt lat="47.61854" lon="-2.84422">
        <ele>6.5</ele>
        <time>2025-01-28T12:38:46Z</time>
      </trkpt>
      <trkpt lat="47.61854" lon="-2.84424">
        <ele>6.3</ele>
        <time>2025-01-28T12:38:47Z</time>
      </trkpt>
      <trkpt lat="47.61854" lon="-2.84427">
        <ele>6.1</ele>
        <time>2025-01-28T12:38:48Z</time>
      </trkpt>
      <trkpt lat="47.61854" lon="-2.84429">
        <ele>5.9</ele>
        <time>2025-01-28T12:38:49Z</time>
      </trkpt>
      <trkpt lat="47.61853" lon="-2.84431">
        <ele>5.7</ele>
        <time>2025-01-28T12:38:50Z</time>
      </trkpt>
      <trkpt lat="47.61852" lon="-2.84432">
        <ele>5.5</ele>
        <time>2025-01-28T12:38:51Z</time>
      </trkpt>
      <trkpt lat="47.61851" lon="-2.84434">
        <ele>5.3</ele>
        <time>2025-01-28T12:38:52Z</time>
      </trkpt>
      <trkpt lat="47.61851" lon="-2.84436">
        <ele>5.1</ele>
        <time>2025-01-28T12:38:53Z</time>
      </trkpt>
      <trkpt lat="47.6185" lon="-2.84438">
        <ele>4.9</ele>
        <time>2025-01-28T12:38:54Z</time>
      </trkpt>
      <trkpt lat="47.61849" lon="-2.8444">
        <ele>4.6</ele>
        <time>2025-01-28T12:38:55Z</time>
      </trkpt>
      <trkpt lat="47.61847" lon="-2.84441">
        <ele>4.4</ele>
        <time>2025-01-28T12:38:56Z</time>
      </trkpt>
      <trkpt lat="47.61846" lon="-2.84442">
        <ele>4.2</ele>
        <time>2025-01-28T12:38:57Z</time>
      </trkpt>
      <trkpt lat="47.61845" lon="-2.84443">
        <ele>4</ele>
        <time>2025-01-28T12:38:58Z</time>
      </trkpt>
      <trkpt lat="47.61844" lon="-2.84444">
        <ele>3.8</ele>
        <time>2025-01-28T12:38:59Z</time>
      </trkpt>
      <trkpt lat="47.61843" lon="-2.84445">
        <ele>3.7</ele>
        <time>2025-01-28T12:39:00Z</time>
      </trkpt>
      <trkpt lat="47.61842" lon="-2.84446">
        <ele>3.6</ele>
        <time>2025-01-28T12:39:01Z</time>
      </trkpt>
      <trkpt lat="47.61841" lon="-2.84448">
        <ele>3.6</ele>
        <time>2025-01-28T12:39:02Z</time>
      </trkpt>
      <trkpt lat="47.61841" lon="-2.84449">
        <ele>3.5</ele>
        <time>2025-01-28T12:39:03Z</time>
      </trkpt>
      <trkpt lat="47.6184" lon="-2.8445">
        <ele>3.5</ele>
        <time>2025-01-28T12:39:04Z</time>
      </trkpt>
      <trkpt lat="47.61839" lon="-2.84452">
        <ele>3.4</ele>
        <time>2025-01-28T12:39:05Z</time>
      </trkpt>
      <trkpt lat="47.61838" lon="-2.84453">
        <ele>3.4</ele>
        <time>2025-01-28T12:39:06Z</time>
      </trkpt>
      <trkpt lat="47.61838" lon="-2.84455">
        <ele>3.3</ele>
        <time>2025-01-28T12:39:07Z</time>
      </trkpt>
      <trkpt lat="47.61837" lon="-2.84456">
        <ele>3.2</ele>
        <time>2025-01-28T12:39:08Z</time>
      </trkpt>
      <trkpt lat="47.61836" lon="-2.84458">
        <ele>3.2</ele>
        <time>2025-01-28T12:39:09Z</time>
      </trkpt>
      <trkpt lat="47.61835" lon="-2.84459">
        <ele>3.1</ele>
        <time>2025-01-28T12:39:10Z</time>
      </trkpt>
      <trkpt lat="47.61834" lon="-2.8446">
        <ele>3.1</ele>
        <time>2025-01-28T12:39:11Z</time>
      </trkpt>
      <trkpt lat="47.61833" lon="-2.84462">
        <ele>3</ele>
        <time>2025-01-28T12:39:12Z</time>
      </trkpt>
      <trkpt lat="47.61832" lon="-2.84463">
        <ele>3</ele>
        <time>2025-01-28T12:39:13Z</time>
      </trkpt>
      <trkpt lat="47.61832" lon="-2.84465">
        <ele>3</ele>
        <time>2025-01-28T12:39:14Z</time>
      </trkpt>
      <trkpt lat="47.61831" lon="-2.84466">
        <ele>3.1</ele>
        <time>2025-01-28T12:39:15Z</time>
      </trkpt>
      <trkpt lat="47.6183" lon="-2.84468">
        <ele>3.1</ele>
        <time>2025-01-28T12:39:16Z</time>
      </trkpt>
      <trkpt lat="47.6183" lon="-2.84469">
        <ele>3.1</ele>
        <time>2025-01-28T12:39:17Z</time>
      </trkpt>
      <trkpt lat="47.6183" lon="-2.84471">
        <ele>3.1</ele>
        <time>2025-01-28T12:39:18Z</time>
      </trkpt>
      <trkpt lat="47.61829" lon="-2.84473">
        <ele>3.2</ele>
        <time>2025-01-28T12:39:19Z</time>
      </trkpt>
      <trkpt lat="47.61829" lon="-2.84475">
        <ele>3.2</ele>
        <time>2025-01-28T12:39:20Z</time>
      </trkpt>
      <trkpt lat="47.61829" lon="-2.84477">
        <ele>3.3</ele>
        <time>2025-01-28T12:39:21Z</time>
      </trkpt>
      <trkpt lat="47.61829" lon="-2.84478">
        <ele>3.4</ele>
        <time>2025-01-28T12:39:22Z</time>
      </trkpt>
      <trkpt lat="47.61829" lon="-2.8448">
        <ele>3.4</ele>
        <time>2025-01-28T12:39:23Z</time>
      </trkpt>
      <trkpt lat="47.61829" lon="-2.84482">
        <ele>3.5</ele>
        <time>2025-01-28T12:39:24Z</time>
      </trkpt>
      <trkpt lat="47.61829" lon="-2.84484">
        <ele>3.6</ele>
        <time>2025-01-28T12:39:25Z</time>
      </trkpt>
      <trkpt lat="47.61829" lon="-2.84485">
        <ele>3.6</ele>
        <time>2025-01-28T12:39:26Z</time>
      </trkpt>
      <trkpt lat="47.61829" lon="-2.84487">
        <ele>3.7</ele>
        <time>2025-01-28T12:39:27Z</time>
      </trkpt>
      <trkpt lat="47.61829" lon="-2.84489">
        <ele>3.8</ele>
        <time>2025-01-28T12:39:28Z</time>
      </trkpt>
      <trkpt lat="47.61829" lon="-2.84491">
        <ele>3.8</ele>
        <time>2025-01-28T12:39:29Z</time>
      </trkpt>
      <trkpt lat="47.61829" lon="-2.84492">
        <ele>3.9</ele>
        <time>2025-01-28T12:39:30Z</time>
      </trkpt>
      <trkpt lat="47.61829" lon="-2.84494">
        <ele>4</ele>
        <time>2025-01-28T12:39:31Z</time>
      </trkpt>
      <trkpt lat="47.61828" lon="-2.84496">
        <ele>4</ele>
        <time>2025-01-28T12:39:32Z</time>
      </trkpt>
      <trkpt lat="47.61828" lon="-2.84498">
        <ele>4.1</ele>
        <time>2025-01-28T12:39:33Z</time>
      </trkpt>
      <trkpt lat="47.61828" lon="-2.845">
        <ele>4.2</ele>
        <time>2025-01-28T12:39:34Z</time>
      </trkpt>
      <trkpt lat="47.61828" lon="-2.84502">
        <ele>4.3</ele>
        <time>2025-01-28T12:39:35Z</time>
      </trkpt>
      <trkpt lat="47.61828" lon="-2.84504">
        <ele>4.4</ele>
        <time>2025-01-28T12:39:36Z</time>
      </trkpt>
      <trkpt lat="47.61828" lon="-2.84505">
        <ele>4.5</ele>
        <time>2025-01-28T12:39:37Z</time>
      </trkpt>
      <trkpt lat="47.61828" lon="-2.84507">
        <ele>4.7</ele>
        <time>2025-01-28T12:39:38Z</time>
      </trkpt>
      <trkpt lat="47.61828" lon="-2.84509">
        <ele>4.8</ele>
        <time>2025-01-28T12:39:39Z</time>
      </trkpt>
      <trkpt lat="47.61828" lon="-2.84511">
        <ele>4.9</ele>
        <time>2025-01-28T12:39:40Z</time>
      </trkpt>
      <trkpt lat="47.61827" lon="-2.84512">
        <ele>5</ele>
        <time>2025-01-28T12:39:41Z</time>
      </trkpt>
      <trkpt lat="47.61827" lon="-2.84514">
        <ele>5.1</ele>
        <time>2025-01-28T12:39:42Z</time>
      </trkpt>
      <trkpt lat="47.61826" lon="-2.84516">
        <ele>5.2</ele>
        <time>2025-01-28T12:39:43Z</time>
      </trkpt>
      <trkpt lat="47.61826" lon="-2.84518">
        <ele>5.4</ele>
        <time>2025-01-28T12:39:44Z</time>
      </trkpt>
      <trkpt lat="47.61826" lon="-2.8452">
        <ele>5.5</ele>
        <time>2025-01-28T12:39:45Z</time>
      </trkpt>
      <trkpt lat="47.61826" lon="-2.84522">
        <ele>5.6</ele>
        <time>2025-01-28T12:39:46Z</time>
      </trkpt>
      <trkpt lat="47.61825" lon="-2.84524">
        <ele>5.7</ele>
        <time>2025-01-28T12:39:47Z</time>
      </trkpt>
      <trkpt lat="47.61825" lon="-2.84526">
        <ele>5.9</ele>
        <time>2025-01-28T12:39:48Z</time>
      </trkpt>
      <trkpt lat="47.61825" lon="-2.84527">
        <ele>6</ele>
        <time>2025-01-28T12:39:49Z</time>
      </trkpt>
      <trkpt lat="47.61824" lon="-2.84528">
        <ele>6</ele>
        <time>2025-01-28T12:39:50Z</time>
      </trkpt>
      <trkpt lat="47.61824" lon="-2.8453">
        <ele>6</ele>
        <time>2025-01-28T12:39:51Z</time>
      </trkpt>
      <trkpt lat="47.61823" lon="-2.84531">
        <ele>5.9</ele>
        <time>2025-01-28T12:39:52Z</time>
      </trkpt>
      <trkpt lat="47.61822" lon="-2.84533">
        <ele>5.8</ele>
        <time>2025-01-28T12:39:53Z</time>
      </trkpt>
      <trkpt lat="47.61822" lon="-2.84534">
        <ele>5.7</ele>
        <time>2025-01-28T12:39:54Z</time>
      </trkpt>
      <trkpt lat="47.61821" lon="-2.84536">
        <ele>5.6</ele>
        <time>2025-01-28T12:39:55Z</time>
      </trkpt>
      <trkpt lat="47.61821" lon="-2.84538">
        <ele>5.5</ele>
        <time>2025-01-28T12:39:56Z</time>
      </trkpt>
      <trkpt lat="47.61819" lon="-2.84539">
        <ele>5.4</ele>
        <time>2025-01-28T12:39:57Z</time>
      </trkpt>
      <trkpt lat="47.61819" lon="-2.84541">
        <ele>5.2</ele>
        <time>2025-01-28T12:39:58Z</time>
      </trkpt>
      <trkpt lat="47.61818" lon="-2.84542">
        <ele>5.1</ele>
        <time>2025-01-28T12:39:59Z</time>
      </trkpt>
      <trkpt lat="47.61817" lon="-2.84543">
        <ele>4.9</ele>
        <time>2025-01-28T12:40:00Z</time>
      </trkpt>
      <trkpt lat="47.61816" lon="-2.84544">
        <ele>4.8</ele>
        <time>2025-01-28T12:40:01Z</time>
      </trkpt>
      <trkpt lat="47.61815" lon="-2.84545">
        <ele>4.6</ele>
        <time>2025-01-28T12:40:02Z</time>
      </trkpt>
      <trkpt lat="47.61814" lon="-2.84546">
        <ele>4.4</ele>
        <time>2025-01-28T12:40:03Z</time>
      </trkpt>
      <trkpt lat="47.61813" lon="-2.84547">
        <ele>4.1</ele>
        <time>2025-01-28T12:40:04Z</time>
      </trkpt>
      <trkpt lat="47.61812" lon="-2.84549">
        <ele>3.9</ele>
        <time>2025-01-28T12:40:05Z</time>
      </trkpt>
      <trkpt lat="47.61812" lon="-2.84551">
        <ele>3.6</ele>
        <time>2025-01-28T12:40:06Z</time>
      </trkpt>
      <trkpt lat="47.61811" lon="-2.84552">
        <ele>3.4</ele>
        <time>2025-01-28T12:40:07Z</time>
      </trkpt>
      <trkpt lat="47.6181" lon="-2.84554">
        <ele>3.1</ele>
        <time>2025-01-28T12:40:08Z</time>
      </trkpt>
      <trkpt lat="47.61809" lon="-2.84555">
        <ele>2.7</ele>
        <time>2025-01-28T12:40:09Z</time>
      </trkpt>
      <trkpt lat="47.61808" lon="-2.84556">
        <ele>2.6</ele>
        <time>2025-01-28T12:40:10Z</time>
      </trkpt>
      <trkpt lat="47.61807" lon="-2.84558">
        <ele>2.5</ele>
        <time>2025-01-28T12:40:11Z</time>
      </trkpt>
      <trkpt lat="47.61807" lon="-2.84559">
        <ele>2.5</ele>
        <time>2025-01-28T12:40:12Z</time>
      </trkpt>
      <trkpt lat="47.61806" lon="-2.8456">
        <ele>2.5</ele>
        <time>2025-01-28T12:40:13Z</time>
      </trkpt>
      <trkpt lat="47.61805" lon="-2.84561">
        <ele>2.6</ele>
        <time>2025-01-28T12:40:14Z</time>
      </trkpt>
      <trkpt lat="47.61804" lon="-2.84562">
        <ele>2.7</ele>
        <time>2025-01-28T12:40:15Z</time>
      </trkpt>
      <trkpt lat="47.61803" lon="-2.84563">
        <ele>2.7</ele>
        <time>2025-01-28T12:40:16Z</time>
      </trkpt>
      <trkpt lat="47.61802" lon="-2.84565">
        <ele>2.8</ele>
        <time>2025-01-28T12:40:17Z</time>
      </trkpt>
      <trkpt lat="47.61801" lon="-2.84567">
        <ele>2.9</ele>
        <time>2025-01-28T12:40:18Z</time>
      </trkpt>
      <trkpt lat="47.618" lon="-2.84569">
        <ele>3</ele>
        <time>2025-01-28T12:40:19Z</time>
      </trkpt>
      <trkpt lat="47.618" lon="-2.84571">
        <ele>3.2</ele>
        <time>2025-01-28T12:40:20Z</time>
      </trkpt>
      <trkpt lat="47.61799" lon="-2.84573">
        <ele>3.2</ele>
        <time>2025-01-28T12:40:21Z</time>
      </trkpt>
      <trkpt lat="47.61798" lon="-2.84574">
        <ele>3.3</ele>
        <time>2025-01-28T12:40:22Z</time>
      </trkpt>
      <trkpt lat="47.61798" lon="-2.84576">
        <ele>3.4</ele>
        <time>2025-01-28T12:40:23Z</time>
      </trkpt>
      <trkpt lat="47.61797" lon="-2.84578">
        <ele>3.4</ele>
        <time>2025-01-28T12:40:24Z</time>
      </trkpt>
      <trkpt lat="47.61796" lon="-2.8458">
        <ele>3.4</ele>
        <time>2025-01-28T12:40:25Z</time>
      </trkpt>
      <trkpt lat="47.61796" lon="-2.84581">
        <ele>3.5</ele>
        <time>2025-01-28T12:40:26Z</time>
      </trkpt>
      <trkpt lat="47.61795" lon="-2.84583">
        <ele>3.5</ele>
        <time>2025-01-28T12:40:27Z</time>
      </trkpt>
      <trkpt lat="47.61795" lon="-2.84585">
        <ele>3.5</ele>
        <time>2025-01-28T12:40:28Z</time>
      </trkpt>
      <trkpt lat="47.61794" lon="-2.84587">
        <ele>3.4</ele>
        <time>2025-01-28T12:40:29Z</time>
      </trkpt>
      <trkpt lat="47.61794" lon="-2.84589">
        <ele>3.4</ele>
        <time>2025-01-28T12:40:30Z</time>
      </trkpt>
      <trkpt lat="47.61794" lon="-2.84591">
        <ele>3.4</ele>
        <time>2025-01-28T12:40:31Z</time>
      </trkpt>
      <trkpt lat="47.61794" lon="-2.84593">
        <ele>3.3</ele>
        <time>2025-01-28T12:40:32Z</time>
      </trkpt>
      <trkpt lat="47.61794" lon="-2.84595">
        <ele>3.3</ele>
        <time>2025-01-28T12:40:33Z</time>
      </trkpt>
      <trkpt lat="47.61794" lon="-2.84597">
        <ele>3.3</ele>
        <time>2025-01-28T12:40:34Z</time>
      </trkpt>
      <trkpt lat="47.61794" lon="-2.84599">
        <ele>3.3</ele>
        <time>2025-01-28T12:40:35Z</time>
      </trkpt>
      <trkpt lat="47.61794" lon="-2.84601">
        <ele>3.3</ele>
        <time>2025-01-28T12:40:36Z</time>
      </trkpt>
      <trkpt lat="47.61793" lon="-2.84603">
        <ele>3.2</ele>
        <time>2025-01-28T12:40:37Z</time>
      </trkpt>
      <trkpt lat="47.61793" lon="-2.84605">
        <ele>3.2</ele>
        <time>2025-01-28T12:40:38Z</time>
      </trkpt>
      <trkpt lat="47.61793" lon="-2.84607">
        <ele>3.1</ele>
        <time>2025-01-28T12:40:39Z</time>
      </trkpt>
      <trkpt lat="47.61792" lon="-2.84608">
        <ele>3</ele>
        <time>2025-01-28T12:40:40Z</time>
      </trkpt>
      <trkpt lat="47.61791" lon="-2.8461">
        <ele>2.9</ele>
        <time>2025-01-28T12:40:41Z</time>
      </trkpt>
      <trkpt lat="47.61791" lon="-2.84611">
        <ele>2.9</ele>
        <time>2025-01-28T12:40:42Z</time>
      </trkpt>
      <trkpt lat="47.61791" lon="-2.84613">
        <ele>2.9</ele>
        <time>2025-01-28T12:40:43Z</time>
      </trkpt>
      <trkpt lat="47.6179" lon="-2.84615">
        <ele>3</ele>
        <time>2025-01-28T12:40:44Z</time>
      </trkpt>
      <trkpt lat="47.6179" lon="-2.84617">
        <ele>2.9</ele>
        <time>2025-01-28T12:40:45Z</time>
      </trkpt>
      <trkpt lat="47.61789" lon="-2.84618">
        <ele>2.9</ele>
        <time>2025-01-28T12:40:46Z</time>
      </trkpt>
      <trkpt lat="47.61789" lon="-2.8462">
        <ele>2.9</ele>
        <time>2025-01-28T12:40:47Z</time>
      </trkpt>
      <trkpt lat="47.61789" lon="-2.84622">
        <ele>3</ele>
        <time>2025-01-28T12:40:48Z</time>
      </trkpt>
      <trkpt lat="47.61788" lon="-2.84624">
        <ele>2.9</ele>
        <time>2025-01-28T12:40:49Z</time>
      </trkpt>
      <trkpt lat="47.61787" lon="-2.84625">
        <ele>2.9</ele>
        <time>2025-01-28T12:40:50Z</time>
      </trkpt>
      <trkpt lat="47.61787" lon="-2.84627">
        <ele>2.9</ele>
        <time>2025-01-28T12:40:51Z</time>
      </trkpt>
      <trkpt lat="47.61787" lon="-2.84629">
        <ele>2.9</ele>
        <time>2025-01-28T12:40:52Z</time>
      </trkpt>
      <trkpt lat="47.61786" lon="-2.84631">
        <ele>2.9</ele>
        <time>2025-01-28T12:40:53Z</time>
      </trkpt>
      <trkpt lat="47.61785" lon="-2.84632">
        <ele>2.9</ele>
        <time>2025-01-28T12:40:54Z</time>
      </trkpt>
      <trkpt lat="47.61785" lon="-2.84634">
        <ele>2.8</ele>
        <time>2025-01-28T12:40:55Z</time>
      </trkpt>
      <trkpt lat="47.61785" lon="-2.84636">
        <ele>2.8</ele>
        <time>2025-01-28T12:40:56Z</time>
      </trkpt>
      <trkpt lat="47.61784" lon="-2.84637">
        <ele>2.9</ele>
        <time>2025-01-28T12:40:57Z</time>
      </trkpt>
      <trkpt lat="47.61784" lon="-2.84639">
        <ele>2.8</ele>
        <time>2025-01-28T12:40:58Z</time>
      </trkpt>
      <trkpt lat="47.61783" lon="-2.84641">
        <ele>2.8</ele>
        <time>2025-01-28T12:40:59Z</time>
      </trkpt>
      <trkpt lat="47.61783" lon="-2.84643">
        <ele>2.7</ele>
        <time>2025-01-28T12:41:00Z</time>
      </trkpt>
      <trkpt lat="47.61783" lon="-2.84645">
        <ele>2.7</ele>
        <time>2025-01-28T12:41:01Z</time>
      </trkpt>
      <trkpt lat="47.61782" lon="-2.84647">
        <ele>2.6</ele>
        <time>2025-01-28T12:41:02Z</time>
      </trkpt>
      <trkpt lat="47.61782" lon="-2.84648">
        <ele>2.7</ele>
        <time>2025-01-28T12:41:03Z</time>
      </trkpt>
      <trkpt lat="47.61783" lon="-2.8465">
        <ele>2.7</ele>
        <time>2025-01-28T12:41:04Z</time>
      </trkpt>
      <trkpt lat="47.61783" lon="-2.84652">
        <ele>2.7</ele>
        <time>2025-01-28T12:41:05Z</time>
      </trkpt>
      <trkpt lat="47.61783" lon="-2.84654">
        <ele>2.8</ele>
        <time>2025-01-28T12:41:06Z</time>
      </trkpt>
      <trkpt lat="47.61783" lon="-2.84656">
        <ele>2.8</ele>
        <time>2025-01-28T12:41:07Z</time>
      </trkpt>
      <trkpt lat="47.61783" lon="-2.84658">
        <ele>2.8</ele>
        <time>2025-01-28T12:41:08Z</time>
      </trkpt>
      <trkpt lat="47.61785" lon="-2.84659">
        <ele>3</ele>
        <time>2025-01-28T12:41:09Z</time>
      </trkpt>
      <trkpt lat="47.61786" lon="-2.8466">
        <ele>3.1</ele>
        <time>2025-01-28T12:41:10Z</time>
      </trkpt>
      <trkpt lat="47.61786" lon="-2.84661">
        <ele>3.2</ele>
        <time>2025-01-28T12:41:11Z</time>
      </trkpt>
      <trkpt lat="47.61788" lon="-2.84662">
        <ele>3.4</ele>
        <time>2025-01-28T12:41:12Z</time>
      </trkpt>
      <trkpt lat="47.61789" lon="-2.84661">
        <ele>3.6</ele>
        <time>2025-01-28T12:41:13Z</time>
      </trkpt>
      <trkpt lat="47.6179" lon="-2.84662">
        <ele>3.8</ele>
        <time>2025-01-28T12:41:14Z</time>
      </trkpt>
      <trkpt lat="47.61791" lon="-2.84664">
        <ele>3.9</ele>
        <time>2025-01-28T12:41:15Z</time>
      </trkpt>
      <trkpt lat="47.61792" lon="-2.84664">
        <ele>4.1</ele>
        <time>2025-01-28T12:41:16Z</time>
      </trkpt>
      <trkpt lat="47.61793" lon="-2.84665">
        <ele>4.2</ele>
        <time>2025-01-28T12:41:17Z</time>
      </trkpt>
      <trkpt lat="47.61793" lon="-2.84667">
        <ele>4.2</ele>
        <time>2025-01-28T12:41:18Z</time>
      </trkpt>
      <trkpt lat="47.61794" lon="-2.84669">
        <ele>4.3</ele>
        <time>2025-01-28T12:41:19Z</time>
      </trkpt>
      <trkpt lat="47.61794" lon="-2.8467">
        <ele>4.4</ele>
        <time>2025-01-28T12:41:20Z</time>
      </trkpt>
      <trkpt lat="47.61795" lon="-2.84671">
        <ele>4.5</ele>
        <time>2025-01-28T12:41:21Z</time>
      </trkpt>
      <trkpt lat="47.61795" lon="-2.84673">
        <ele>4.6</ele>
        <time>2025-01-28T12:41:22Z</time>
      </trkpt>
      <trkpt lat="47.61795" lon="-2.84674">
        <ele>4.6</ele>
        <time>2025-01-28T12:41:23Z</time>
      </trkpt>
      <trkpt lat="47.61795" lon="-2.84676">
        <ele>4.7</ele>
        <time>2025-01-28T12:41:24Z</time>
      </trkpt>
      <trkpt lat="47.61797" lon="-2.84677">
        <ele>4.8</ele>
        <time>2025-01-28T12:41:25Z</time>
      </trkpt>
      <trkpt lat="47.61798" lon="-2.84676">
        <ele>5</ele>
        <time>2025-01-28T12:41:26Z</time>
      </trkpt>
      <trkpt lat="47.61799" lon="-2.84676">
        <ele>5.1</ele>
        <time>2025-01-28T12:41:27Z</time>
      </trkpt>
      <trkpt lat="47.618" lon="-2.84676">
        <ele>5.2</ele>
        <time>2025-01-28T12:41:28Z</time>
      </trkpt>
      <trkpt lat="47.61802" lon="-2.84676">
        <ele>5.3</ele>
        <time>2025-01-28T12:41:29Z</time>
      </trkpt>
      <trkpt lat="47.61803" lon="-2.84676">
        <ele>5.4</ele>
        <time>2025-01-28T12:41:30Z</time>
      </trkpt>
      <trkpt lat="47.61803" lon="-2.84677">
        <ele>5.4</ele>
        <time>2025-01-28T12:41:31Z</time>
      </trkpt>
      <trkpt lat="47.61804" lon="-2.84677">
        <ele>5.5</ele>
        <time>2025-01-28T12:41:32Z</time>
      </trkpt>
      <trkpt lat="47.61805" lon="-2.84677">
        <ele>5.6</ele>
        <time>2025-01-28T12:41:33Z</time>
      </trkpt>
      <trkpt lat="47.61806" lon="-2.84678">
        <ele>5.7</ele>
        <time>2025-01-28T12:41:34Z</time>
      </trkpt>
      <trkpt lat="47.61807" lon="-2.84678">
        <ele>5.8</ele>
        <time>2025-01-28T12:41:35Z</time>
      </trkpt>
      <trkpt lat="47.61808" lon="-2.84679">
        <ele>5.9</ele>
        <time>2025-01-28T12:41:36Z</time>
      </trkpt>
      <trkpt lat="47.61809" lon="-2.84679">
        <ele>6</ele>
        <time>2025-01-28T12:41:37Z</time>
      </trkpt>
      <trkpt lat="47.6181" lon="-2.84679">
        <ele>6.1</ele>
        <time>2025-01-28T12:41:38Z</time>
      </trkpt>
      <trkpt lat="47.61811" lon="-2.8468">
        <ele>6.2</ele>
        <time>2025-01-28T12:41:39Z</time>
      </trkpt>
      <trkpt lat="47.61812" lon="-2.84679">
        <ele>6.4</ele>
        <time>2025-01-28T12:41:40Z</time>
      </trkpt>
      <trkpt lat="47.61814" lon="-2.8468">
        <ele>6.5</ele>
        <time>2025-01-28T12:41:41Z</time>
      </trkpt>
      <trkpt lat="47.61815" lon="-2.8468">
        <ele>6.7</ele>
        <time>2025-01-28T12:41:42Z</time>
      </trkpt>
      <trkpt lat="47.61816" lon="-2.8468">
        <ele>6.8</ele>
        <time>2025-01-28T12:41:43Z</time>
      </trkpt>
      <trkpt lat="47.61817" lon="-2.8468">
        <ele>7</ele>
        <time>2025-01-28T12:41:44Z</time>
      </trkpt>
      <trkpt lat="47.61819" lon="-2.8468">
        <ele>7.1</ele>
        <time>2025-01-28T12:41:45Z</time>
      </trkpt>
      <trkpt lat="47.6182" lon="-2.8468">
        <ele>7.3</ele>
        <time>2025-01-28T12:41:46Z</time>
      </trkpt>
      <trkpt lat="47.61821" lon="-2.84681">
        <ele>7.4</ele>
        <time>2025-01-28T12:41:47Z</time>
      </trkpt>
      <trkpt lat="47.61822" lon="-2.84681">
        <ele>7.5</ele>
        <time>2025-01-28T12:41:48Z</time>
      </trkpt>
      <trkpt lat="47.61822" lon="-2.8468">
        <ele>7.6</ele>
        <time>2025-01-28T12:41:49Z</time>
      </trkpt>
      <trkpt lat="47.61823" lon="-2.84681">
        <ele>7.7</ele>
        <time>2025-01-28T12:41:50Z</time>
      </trkpt>
      <trkpt lat="47.61824" lon="-2.84681">
        <ele>7.8</ele>
        <time>2025-01-28T12:41:51Z</time>
      </trkpt>
      <trkpt lat="47.61825" lon="-2.8468">
        <ele>8</ele>
        <time>2025-01-28T12:41:52Z</time>
      </trkpt>
      <trkpt lat="47.61826" lon="-2.84682">
        <ele>8.1</ele>
        <time>2025-01-28T12:41:53Z</time>
      </trkpt>
      <trkpt lat="47.61827" lon="-2.84683">
        <ele>8.2</ele>
        <time>2025-01-28T12:41:54Z</time>
      </trkpt>
      <trkpt lat="47.61828" lon="-2.84684">
        <ele>8.3</ele>
        <time>2025-01-28T12:41:55Z</time>
      </trkpt>
      <trkpt lat="47.61829" lon="-2.84685">
        <ele>8.4</ele>
        <time>2025-01-28T12:41:56Z</time>
      </trkpt>
      <trkpt lat="47.6183" lon="-2.84686">
        <ele>8.5</ele>
        <time>2025-01-28T12:41:57Z</time>
      </trkpt>
      <trkpt lat="47.61831" lon="-2.84686">
        <ele>8.7</ele>
        <time>2025-01-28T12:41:58Z</time>
      </trkpt>
      <trkpt lat="47.61832" lon="-2.84686">
        <ele>8.8</ele>
        <time>2025-01-28T12:41:59Z</time>
      </trkpt>
      <trkpt lat="47.61833" lon="-2.84686">
        <ele>9</ele>
        <time>2025-01-28T12:42:00Z</time>
      </trkpt>
      <trkpt lat="47.61834" lon="-2.84686">
        <ele>9.2</ele>
        <time>2025-01-28T12:42:01Z</time>
      </trkpt>
      <trkpt lat="47.61835" lon="-2.84686">
        <ele>9.3</ele>
        <time>2025-01-28T12:42:02Z</time>
      </trkpt>
      <trkpt lat="47.61836" lon="-2.84687">
        <ele>9.4</ele>
        <time>2025-01-28T12:42:03Z</time>
      </trkpt>
      <trkpt lat="47.61836" lon="-2.84687">
        <ele>9.6</ele>
        <time>2025-01-28T12:42:04Z</time>
      </trkpt>
      <trkpt lat="47.61837" lon="-2.84688">
        <ele>9.8</ele>
        <time>2025-01-28T12:42:05Z</time>
      </trkpt>
      <trkpt lat="47.61838" lon="-2.84688">
        <ele>9.9</ele>
        <time>2025-01-28T12:42:06Z</time>
      </trkpt>
      <trkpt lat="47.61839" lon="-2.84688">
        <ele>10.1</ele>
        <time>2025-01-28T12:42:07Z</time>
      </trkpt>
      <trkpt lat="47.6184" lon="-2.84688">
        <ele>10.3</ele>
        <time>2025-01-28T12:42:08Z</time>
      </trkpt>
      <trkpt lat="47.61841" lon="-2.84689">
        <ele>10.4</ele>
        <time>2025-01-28T12:42:09Z</time>
      </trkpt>
      <trkpt lat="47.61841" lon="-2.84689">
        <ele>10.6</ele>
        <time>2025-01-28T12:42:10Z</time>
      </trkpt>
      <trkpt lat="47.61842" lon="-2.8469">
        <ele>10.7</ele>
        <time>2025-01-28T12:42:11Z</time>
      </trkpt>
      <trkpt lat="47.61843" lon="-2.84689">
        <ele>10.9</ele>
        <time>2025-01-28T12:42:12Z</time>
      </trkpt>
      <trkpt lat="47.61843" lon="-2.84689">
        <ele>11</ele>
        <time>2025-01-28T12:42:13Z</time>
      </trkpt>
      <trkpt lat="47.61845" lon="-2.84688">
        <ele>11.3</ele>
        <time>2025-01-28T12:42:14Z</time>
      </trkpt>
      <trkpt lat="47.61846" lon="-2.84688">
        <ele>11.4</ele>
        <time>2025-01-28T12:42:15Z</time>
      </trkpt>
      <trkpt lat="47.61846" lon="-2.84688">
        <ele>11.6</ele>
        <time>2025-01-28T12:42:16Z</time>
      </trkpt>
      <trkpt lat="47.61848" lon="-2.84688">
        <ele>11.8</ele>
        <time>2025-01-28T12:42:17Z</time>
      </trkpt>
      <trkpt lat="47.61848" lon="-2.84689">
        <ele>12</ele>
        <time>2025-01-28T12:42:18Z</time>
      </trkpt>
      <trkpt lat="47.61849" lon="-2.8469">
        <ele>12.2</ele>
        <time>2025-01-28T12:42:19Z</time>
      </trkpt>
      <trkpt lat="47.6185" lon="-2.84691">
        <ele>12.3</ele>
        <time>2025-01-28T12:42:20Z</time>
      </trkpt>
      <trkpt lat="47.6185" lon="-2.84692">
        <ele>12.5</ele>
        <time>2025-01-28T12:42:21Z</time>
      </trkpt>
      <trkpt lat="47.61851" lon="-2.84692">
        <ele>12.7</ele>
        <time>2025-01-28T12:42:22Z</time>
      </trkpt>
      <trkpt lat="47.61852" lon="-2.84693">
        <ele>12.9</ele>
        <time>2025-01-28T12:42:23Z</time>
      </trkpt>
      <trkpt lat="47.61853" lon="-2.84693">
        <ele>13.2</ele>
        <time>2025-01-28T12:42:24Z</time>
      </trkpt>
      <trkpt lat="47.61854" lon="-2.84693">
        <ele>13.3</ele>
        <time>2025-01-28T12:42:25Z</time>
      </trkpt>
      <trkpt lat="47.61855" lon="-2.84694">
        <ele>13.5</ele>
        <time>2025-01-28T12:42:26Z</time>
      </trkpt>
      <trkpt lat="47.61856" lon="-2.84694">
        <ele>13.8</ele>
        <time>2025-01-28T12:42:27Z</time>
      </trkpt>
      <trkpt lat="47.61857" lon="-2.84694">
        <ele>14.1</ele>
        <time>2025-01-28T12:42:28Z</time>
      </trkpt>
      <trkpt lat="47.61858" lon="-2.84693">
        <ele>14.3</ele>
        <time>2025-01-28T12:42:29Z</time>
      </trkpt>
      <trkpt lat="47.61859" lon="-2.84693">
        <ele>14.5</ele>
        <time>2025-01-28T12:42:30Z</time>
      </trkpt>
      <trkpt lat="47.6186" lon="-2.84693">
        <ele>14.7</ele>
        <time>2025-01-28T12:42:31Z</time>
      </trkpt>
      <trkpt lat="47.61861" lon="-2.84693">
        <ele>14.9</ele>
        <time>2025-01-28T12:42:32Z</time>
      </trkpt>
      <trkpt lat="47.61862" lon="-2.84693">
        <ele>15</ele>
        <time>2025-01-28T12:42:33Z</time>
      </trkpt>
      <trkpt lat="47.61863" lon="-2.84694">
        <ele>15.1</ele>
        <time>2025-01-28T12:42:34Z</time>
      </trkpt>
      <trkpt lat="47.61863" lon="-2.84694">
        <ele>15.2</ele>
        <time>2025-01-28T12:42:35Z</time>
      </trkpt>
      <trkpt lat="47.61864" lon="-2.84694">
        <ele>15.3</ele>
        <time>2025-01-28T12:42:36Z</time>
      </trkpt>
      <trkpt lat="47.61865" lon="-2.84695">
        <ele>15.4</ele>
        <time>2025-01-28T12:42:37Z</time>
      </trkpt>
      <trkpt lat="47.61865" lon="-2.84695">
        <ele>15.4</ele>
        <time>2025-01-28T12:42:38Z</time>
      </trkpt>
      <trkpt lat="47.61866" lon="-2.84695">
        <ele>15.5</ele>
        <time>2025-01-28T12:42:39Z</time>
      </trkpt>
      <trkpt lat="47.61867" lon="-2.84694">
        <ele>15.6</ele>
        <time>2025-01-28T12:42:40Z</time>
      </trkpt>
      <trkpt lat="47.61868" lon="-2.84694">
        <ele>15.7</ele>
        <time>2025-01-28T12:42:41Z</time>
      </trkpt>
      <trkpt lat="47.61869" lon="-2.84693">
        <ele>15.8</ele>
        <time>2025-01-28T12:42:42Z</time>
      </trkpt>
      <trkpt lat="47.6187" lon="-2.84693">
        <ele>15.8</ele>
        <time>2025-01-28T12:42:43Z</time>
      </trkpt>
      <trkpt lat="47.6187" lon="-2.84693">
        <ele>15.9</ele>
        <time>2025-01-28T12:42:44Z</time>
      </trkpt>
      <trkpt lat="47.61871" lon="-2.84694">
        <ele>16</ele>
        <time>2025-01-28T12:42:45Z</time>
      </trkpt>
      <trkpt lat="47.61871" lon="-2.84694">
        <ele>16</ele>
        <time>2025-01-28T12:42:46Z</time>
      </trkpt>
      <trkpt lat="47.61872" lon="-2.84694">
        <ele>16.1</ele>
        <time>2025-01-28T12:42:47Z</time>
      </trkpt>
      <trkpt lat="47.61873" lon="-2.84693">
        <ele>16.1</ele>
        <time>2025-01-28T12:42:48Z</time>
      </trkpt>
      <trkpt lat="47.61873" lon="-2.84693">
        <ele>16.2</ele>
        <time>2025-01-28T12:42:49Z</time>
      </trkpt>
      <trkpt lat="47.61874" lon="-2.84693">
        <ele>16.3</ele>
        <time>2025-01-28T12:42:50Z</time>
      </trkpt>
      <trkpt lat="47.61874" lon="-2.84693">
        <ele>16.3</ele>
        <time>2025-01-28T12:42:51Z</time>
      </trkpt>
      <trkpt lat="47.61875" lon="-2.84693">
        <ele>16.4</ele>
        <time>2025-01-28T12:42:52Z</time>
      </trkpt>
      <trkpt lat="47.61876" lon="-2.84693">
        <ele>16.5</ele>
        <time>2025-01-28T12:42:53Z</time>
      </trkpt>
      <trkpt lat="47.61876" lon="-2.84694">
        <ele>16.6</ele>
        <time>2025-01-28T12:42:54Z</time>
      </trkpt>
      <trkpt lat="47.61877" lon="-2.84694">
        <ele>16.7</ele>
        <time>2025-01-28T12:42:55Z</time>
      </trkpt>
      <trkpt lat="47.61878" lon="-2.84694">
        <ele>16.8</ele>
        <time>2025-01-28T12:42:56Z</time>
      </trkpt>
      <trkpt lat="47.61879" lon="-2.84694">
        <ele>16.9</ele>
        <time>2025-01-28T12:42:57Z</time>
      </trkpt>
      <trkpt lat="47.6188" lon="-2.84695">
        <ele>17</ele>
        <time>2025-01-28T12:42:58Z</time>
      </trkpt>
      <trkpt lat="47.61881" lon="-2.84696">
        <ele>17.1</ele>
        <time>2025-01-28T12:42:59Z</time>
      </trkpt>
      <trkpt lat="47.61882" lon="-2.84696">
        <ele>17.2</ele>
        <time>2025-01-28T12:43:00Z</time>
      </trkpt>
      <trkpt lat="47.61883" lon="-2.84697">
        <ele>17.3</ele>
        <time>2025-01-28T12:43:01Z</time>
      </trkpt>
      <trkpt lat="47.61884" lon="-2.84696">
        <ele>17.4</ele>
        <time>2025-01-28T12:43:02Z</time>
      </trkpt>
      <trkpt lat="47.61884" lon="-2.84696">
        <ele>17.5</ele>
        <time>2025-01-28T12:43:03Z</time>
      </trkpt>
      <trkpt lat="47.61885" lon="-2.84695">
        <ele>17.6</ele>
        <time>2025-01-28T12:43:04Z</time>
      </trkpt>
      <trkpt lat="47.61886" lon="-2.84696">
        <ele>17.7</ele>
        <time>2025-01-28T12:43:05Z</time>
      </trkpt>
      <trkpt lat="47.61887" lon="-2.84696">
        <ele>17.8</ele>
        <time>2025-01-28T12:43:06Z</time>
      </trkpt>
      <trkpt lat="47.61887" lon="-2.84696">
        <ele>17.8</ele>
        <time>2025-01-28T12:43:07Z</time>
      </trkpt>
      <trkpt lat="47.61888" lon="-2.84696">
        <ele>17.9</ele>
        <time>2025-01-28T12:43:08Z</time>
      </trkpt>
      <trkpt lat="47.61888" lon="-2.84697">
        <ele>17.9</ele>
        <time>2025-01-28T12:43:09Z</time>
      </trkpt>
      <trkpt lat="47.61889" lon="-2.84697">
        <ele>18</ele>
        <time>2025-01-28T12:43:10Z</time>
      </trkpt>
      <trkpt lat="47.6189" lon="-2.84697">
        <ele>18.1</ele>
        <time>2025-01-28T12:43:11Z</time>
      </trkpt>
      <trkpt lat="47.61891" lon="-2.84697">
        <ele>18.1</ele>
        <time>2025-01-28T12:43:12Z</time>
      </trkpt>
      <trkpt lat="47.61891" lon="-2.84697">
        <ele>18.1</ele>
        <time>2025-01-28T12:43:13Z</time>
      </trkpt>
      <trkpt lat="47.61892" lon="-2.84697">
        <ele>18.1</ele>
        <time>2025-01-28T12:43:14Z</time>
      </trkpt>
      <trkpt lat="47.61893" lon="-2.84697">
        <ele>18.2</ele>
        <time>2025-01-28T12:43:15Z</time>
      </trkpt>
      <trkpt lat="47.61893" lon="-2.84697">
        <ele>18.2</ele>
        <time>2025-01-28T12:43:16Z</time>
      </trkpt>
      <trkpt lat="47.61894" lon="-2.84697">
        <ele>18.2</ele>
        <time>2025-01-28T12:43:17Z</time>
      </trkpt>
      <trkpt lat="47.61894" lon="-2.84697">
        <ele>18.2</ele>
        <time>2025-01-28T12:43:18Z</time>
      </trkpt>
      <trkpt lat="47.61895" lon="-2.84698">
        <ele>18.2</ele>
        <time>2025-01-28T12:43:19Z</time>
      </trkpt>
      <trkpt lat="47.61896" lon="-2.84698">
        <ele>18.3</ele>
        <time>2025-01-28T12:43:20Z</time>
      </trkpt>
      <trkpt lat="47.61896" lon="-2.84698">
        <ele>18.3</ele>
        <time>2025-01-28T12:43:21Z</time>
      </trkpt>
      <trkpt lat="47.61898" lon="-2.84697">
        <ele>18.3</ele>
        <time>2025-01-28T12:43:22Z</time>
      </trkpt>
      <trkpt lat="47.61899" lon="-2.84697">
        <ele>18.4</ele>
        <time>2025-01-28T12:43:23Z</time>
      </trkpt>
      <trkpt lat="47.619" lon="-2.84698">
        <ele>18.4</ele>
        <time>2025-01-28T12:43:24Z</time>
      </trkpt>
      <trkpt lat="47.61901" lon="-2.84698">
        <ele>18.5</ele>
        <time>2025-01-28T12:43:25Z</time>
      </trkpt>
      <trkpt lat="47.61902" lon="-2.84698">
        <ele>18.5</ele>
        <time>2025-01-28T12:43:26Z</time>
      </trkpt>
      <trkpt lat="47.61903" lon="-2.84698">
        <ele>18.6</ele>
        <time>2025-01-28T12:43:27Z</time>
      </trkpt>
      <trkpt lat="47.61904" lon="-2.84698">
        <ele>18.6</ele>
        <time>2025-01-28T12:43:28Z</time>
      </trkpt>
      <trkpt lat="47.61905" lon="-2.84698">
        <ele>18.7</ele>
        <time>2025-01-28T12:43:29Z</time>
      </trkpt>
      <trkpt lat="47.61906" lon="-2.84699">
        <ele>18.7</ele>
        <time>2025-01-28T12:43:30Z</time>
      </trkpt>
      <trkpt lat="47.61907" lon="-2.84699">
        <ele>18.7</ele>
        <time>2025-01-28T12:43:31Z</time>
      </trkpt>
      <trkpt lat="47.61907" lon="-2.84698">
        <ele>18.7</ele>
        <time>2025-01-28T12:43:32Z</time>
      </trkpt>
      <trkpt lat="47.61908" lon="-2.84697">
        <ele>18.7</ele>
        <time>2025-01-28T12:43:33Z</time>
      </trkpt>
      <trkpt lat="47.61909" lon="-2.84697">
        <ele>18.8</ele>
        <time>2025-01-28T12:43:34Z</time>
      </trkpt>
      <trkpt lat="47.61909" lon="-2.84696">
        <ele>18.8</ele>
        <time>2025-01-28T12:43:35Z</time>
      </trkpt>
      <trkpt lat="47.6191" lon="-2.84695">
        <ele>18.8</ele>
        <time>2025-01-28T12:43:36Z</time>
      </trkpt>
      <trkpt lat="47.61911" lon="-2.84696">
        <ele>18.8</ele>
        <time>2025-01-28T12:43:37Z</time>
      </trkpt>
      <trkpt lat="47.61912" lon="-2.84695">
        <ele>18.9</ele>
        <time>2025-01-28T12:43:38Z</time>
      </trkpt>
      <trkpt lat="47.61913" lon="-2.84695">
        <ele>18.9</ele>
        <time>2025-01-28T12:43:39Z</time>
      </trkpt>
      <trkpt lat="47.61914" lon="-2.84694">
        <ele>18.9</ele>
        <time>2025-01-28T12:43:40Z</time>
      </trkpt>
      <trkpt lat="47.61915" lon="-2.84693">
        <ele>18.9</ele>
        <time>2025-01-28T12:43:41Z</time>
      </trkpt>
      <trkpt lat="47.61916" lon="-2.84692">
        <ele>19</ele>
        <time>2025-01-28T12:43:42Z</time>
      </trkpt>
      <trkpt lat="47.61917" lon="-2.84691">
        <ele>19</ele>
        <time>2025-01-28T12:43:43Z</time>
      </trkpt>
      <trkpt lat="47.61917" lon="-2.8469">
        <ele>19</ele>
        <time>2025-01-28T12:43:44Z</time>
      </trkpt>
      <trkpt lat="47.61918" lon="-2.8469">
        <ele>19.1</ele>
        <time>2025-01-28T12:43:45Z</time>
      </trkpt>
      <trkpt lat="47.6192" lon="-2.84689">
        <ele>19.1</ele>
        <time>2025-01-28T12:43:46Z</time>
      </trkpt>
      <trkpt lat="47.61921" lon="-2.84689">
        <ele>19.1</ele>
        <time>2025-01-28T12:43:47Z</time>
      </trkpt>
      <trkpt lat="47.61921" lon="-2.84688">
        <ele>19.2</ele>
        <time>2025-01-28T12:43:48Z</time>
      </trkpt>
      <trkpt lat="47.61923" lon="-2.84688">
        <ele>19.2</ele>
        <time>2025-01-28T12:43:49Z</time>
      </trkpt>
      <trkpt lat="47.61924" lon="-2.84687">
        <ele>19.3</ele>
        <time>2025-01-28T12:43:50Z</time>
      </trkpt>
      <trkpt lat="47.61925" lon="-2.84686">
        <ele>19.3</ele>
        <time>2025-01-28T12:43:51Z</time>
      </trkpt>
      <trkpt lat="47.61926" lon="-2.84685">
        <ele>19.3</ele>
        <time>2025-01-28T12:43:52Z</time>
      </trkpt>
      <trkpt lat="47.61927" lon="-2.84685">
        <ele>19.4</ele>
        <time>2025-01-28T12:43:53Z</time>
      </trkpt>
      <trkpt lat="47.61928" lon="-2.84684">
        <ele>19.4</ele>
        <time>2025-01-28T12:43:54Z</time>
      </trkpt>
      <trkpt lat="47.61928" lon="-2.84684">
        <ele>19.4</ele>
        <time>2025-01-28T12:43:55Z</time>
      </trkpt>
      <trkpt lat="47.6193" lon="-2.84683">
        <ele>19.5</ele>
        <time>2025-01-28T12:43:56Z</time>
      </trkpt>
      <trkpt lat="47.6193" lon="-2.84683">
        <ele>19.5</ele>
        <time>2025-01-28T12:43:57Z</time>
      </trkpt>
      <trkpt lat="47.61931" lon="-2.84682">
        <ele>19.5</ele>
        <time>2025-01-28T12:43:58Z</time>
      </trkpt>
      <trkpt lat="47.61932" lon="-2.84681">
        <ele>19.5</ele>
        <time>2025-01-28T12:43:59Z</time>
      </trkpt>
      <trkpt lat="47.61933" lon="-2.8468">
        <ele>19.6</ele>
        <time>2025-01-28T12:44:00Z</time>
      </trkpt>
      <trkpt lat="47.61934" lon="-2.84679">
        <ele>19.6</ele>
        <time>2025-01-28T12:44:01Z</time>
      </trkpt>
      <trkpt lat="47.61935" lon="-2.84679">
        <ele>19.7</ele>
        <time>2025-01-28T12:44:02Z</time>
      </trkpt>
      <trkpt lat="47.61936" lon="-2.84678">
        <ele>19.7</ele>
        <time>2025-01-28T12:44:03Z</time>
      </trkpt>
      <trkpt lat="47.61937" lon="-2.84678">
        <ele>19.7</ele>
        <time>2025-01-28T12:44:04Z</time>
      </trkpt>
      <trkpt lat="47.61939" lon="-2.84678">
        <ele>19.8</ele>
        <time>2025-01-28T12:44:05Z</time>
      </trkpt>
      <trkpt lat="47.6194" lon="-2.84679">
        <ele>19.9</ele>
        <time>2025-01-28T12:44:06Z</time>
      </trkpt>
      <trkpt lat="47.61942" lon="-2.84679">
        <ele>19.9</ele>
        <time>2025-01-28T12:44:07Z</time>
      </trkpt>
      <trkpt lat="47.61943" lon="-2.8468">
        <ele>19.9</ele>
        <time>2025-01-28T12:44:08Z</time>
      </trkpt>
      <trkpt lat="47.61944" lon="-2.84681">
        <ele>20</ele>
        <time>2025-01-28T12:44:09Z</time>
      </trkpt>
      <trkpt lat="47.61945" lon="-2.84683">
        <ele>20</ele>
        <time>2025-01-28T12:44:10Z</time>
      </trkpt>
      <trkpt lat="47.61946" lon="-2.84685">
        <ele>20</ele>
        <time>2025-01-28T12:44:11Z</time>
      </trkpt>
      <trkpt lat="47.61947" lon="-2.84686">
        <ele>20</ele>
        <time>2025-01-28T12:44:12Z</time>
      </trkpt>
      <trkpt lat="47.61948" lon="-2.84688">
        <ele>20</ele>
        <time>2025-01-28T12:44:13Z</time>
      </trkpt>
      <trkpt lat="47.61949" lon="-2.8469">
        <ele>20</ele>
        <time>2025-01-28T12:44:14Z</time>
      </trkpt>
      <trkpt lat="47.61949" lon="-2.84691">
        <ele>20</ele>
        <time>2025-01-28T12:44:15Z</time>
      </trkpt>
      <trkpt lat="47.6195" lon="-2.84693">
        <ele>20</ele>
        <time>2025-01-28T12:44:16Z</time>
      </trkpt>
      <trkpt lat="47.61951" lon="-2.84695">
        <ele>20</ele>
        <time>2025-01-28T12:44:17Z</time>
      </trkpt>
      <trkpt lat="47.61952" lon="-2.84697">
        <ele>20</ele>
        <time>2025-01-28T12:44:18Z</time>
      </trkpt>
      <trkpt lat="47.61952" lon="-2.84698">
        <ele>20</ele>
        <time>2025-01-28T12:44:19Z</time>
      </trkpt>
      <trkpt lat="47.61953" lon="-2.847">
        <ele>19.9</ele>
        <time>2025-01-28T12:44:20Z</time>
      </trkpt>
      <trkpt lat="47.61953" lon="-2.84702">
        <ele>19.9</ele>
        <time>2025-01-28T12:44:21Z</time>
      </trkpt>
      <trkpt lat="47.61954" lon="-2.84703">
        <ele>19.9</ele>
        <time>2025-01-28T12:44:22Z</time>
      </trkpt>
      <trkpt lat="47.61955" lon="-2.84704">
        <ele>19.9</ele>
        <time>2025-01-28T12:44:23Z</time>
      </trkpt>
      <trkpt lat="47.61956" lon="-2.84706">
        <ele>19.8</ele>
        <time>2025-01-28T12:44:24Z</time>
      </trkpt>
      <trkpt lat="47.61957" lon="-2.84707">
        <ele>19.8</ele>
        <time>2025-01-28T12:44:25Z</time>
      </trkpt>
      <trkpt lat="47.61958" lon="-2.84709">
        <ele>19.8</ele>
        <time>2025-01-28T12:44:26Z</time>
      </trkpt>
      <trkpt lat="47.61959" lon="-2.8471">
        <ele>19.7</ele>
        <time>2025-01-28T12:44:27Z</time>
      </trkpt>
      <trkpt lat="47.6196" lon="-2.84711">
        <ele>19.7</ele>
        <time>2025-01-28T12:44:28Z</time>
      </trkpt>
      <trkpt lat="47.61961" lon="-2.84712">
        <ele>19.6</ele>
        <time>2025-01-28T12:44:29Z</time>
      </trkpt>
      <trkpt lat="47.61962" lon="-2.84713">
        <ele>19.6</ele>
        <time>2025-01-28T12:44:30Z</time>
      </trkpt>
      <trkpt lat="47.61963" lon="-2.84714">
        <ele>19.5</ele>
        <time>2025-01-28T12:44:31Z</time>
      </trkpt>
      <trkpt lat="47.61964" lon="-2.84715">
        <ele>19.5</ele>
        <time>2025-01-28T12:44:32Z</time>
      </trkpt>
      <trkpt lat="47.61965" lon="-2.84716">
        <ele>19.4</ele>
        <time>2025-01-28T12:44:33Z</time>
      </trkpt>
      <trkpt lat="47.61967" lon="-2.84717">
        <ele>19.4</ele>
        <time>2025-01-28T12:44:34Z</time>
      </trkpt>
      <trkpt lat="47.61969" lon="-2.84717">
        <ele>19.3</ele>
        <time>2025-01-28T12:44:35Z</time>
      </trkpt>
      <trkpt lat="47.6197" lon="-2.84717">
        <ele>19.2</ele>
        <time>2025-01-28T12:44:36Z</time>
      </trkpt>
      <trkpt lat="47.61972" lon="-2.84717">
        <ele>19.2</ele>
        <time>2025-01-28T12:44:37Z</time>
      </trkpt>
      <trkpt lat="47.61973" lon="-2.84718">
        <ele>19.2</ele>
        <time>2025-01-28T12:44:38Z</time>
      </trkpt>
      <trkpt lat="47.61974" lon="-2.84718">
        <ele>19.2</ele>
        <time>2025-01-28T12:44:39Z</time>
      </trkpt>
      <trkpt lat="47.61976" lon="-2.84719">
        <ele>19.2</ele>
        <time>2025-01-28T12:44:40Z</time>
      </trkpt>
      <trkpt lat="47.61977" lon="-2.8472">
        <ele>19.2</ele>
        <time>2025-01-28T12:44:41Z</time>
      </trkpt>
      <trkpt lat="47.61978" lon="-2.84721">
        <ele>19.3</ele>
        <time>2025-01-28T12:44:42Z</time>
      </trkpt>
      <trkpt lat="47.6198" lon="-2.84722">
        <ele>19.3</ele>
        <time>2025-01-28T12:44:43Z</time>
      </trkpt>
      <trkpt lat="47.61981" lon="-2.84723">
        <ele>19.2</ele>
        <time>2025-01-28T12:44:44Z</time>
      </trkpt>
      <trkpt lat="47.61982" lon="-2.84724">
        <ele>19.2</ele>
        <time>2025-01-28T12:44:45Z</time>
      </trkpt>
      <trkpt lat="47.61983" lon="-2.84725">
        <ele>19.2</ele>
        <time>2025-01-28T12:44:46Z</time>
      </trkpt>
      <trkpt lat="47.61984" lon="-2.84725">
        <ele>19.2</ele>
        <time>2025-01-28T12:44:47Z</time>
      </trkpt>
      <trkpt lat="47.61985" lon="-2.84725">
        <ele>19.3</ele>
        <time>2025-01-28T12:44:48Z</time>
      </trkpt>
      <trkpt lat="47.61986" lon="-2.84725">
        <ele>19.3</ele>
        <time>2025-01-28T12:44:49Z</time>
      </trkpt>
      <trkpt lat="47.61987" lon="-2.84725">
        <ele>19.3</ele>
        <time>2025-01-28T12:44:50Z</time>
      </trkpt>
      <trkpt lat="47.61988" lon="-2.84726">
        <ele>19.3</ele>
        <time>2025-01-28T12:44:51Z</time>
      </trkpt>
      <trkpt lat="47.61989" lon="-2.84727">
        <ele>19.3</ele>
        <time>2025-01-28T12:44:52Z</time>
      </trkpt>
      <trkpt lat="47.6199" lon="-2.84728">
        <ele>19.3</ele>
        <time>2025-01-28T12:44:53Z</time>
      </trkpt>
      <trkpt lat="47.61991" lon="-2.84728">
        <ele>19.2</ele>
        <time>2025-01-28T12:44:54Z</time>
      </trkpt>
      <trkpt lat="47.61993" lon="-2.84729">
        <ele>19.2</ele>
        <time>2025-01-28T12:44:55Z</time>
      </trkpt>
      <trkpt lat="47.61993" lon="-2.84731">
        <ele>19.1</ele>
        <time>2025-01-28T12:44:56Z</time>
      </trkpt>
      <trkpt lat="47.61994" lon="-2.84733">
        <ele>19</ele>
        <time>2025-01-28T12:44:57Z</time>
      </trkpt>
      <trkpt lat="47.61995" lon="-2.84733">
        <ele>19</ele>
        <time>2025-01-28T12:44:58Z</time>
      </trkpt>
      <trkpt lat="47.61996" lon="-2.84735">
        <ele>19</ele>
        <time>2025-01-28T12:44:59Z</time>
      </trkpt>
      <trkpt lat="47.61997" lon="-2.84735">
        <ele>19</ele>
        <time>2025-01-28T12:45:00Z</time>
      </trkpt>
      <trkpt lat="47.61998" lon="-2.84736">
        <ele>18.9</ele>
        <time>2025-01-28T12:45:01Z</time>
      </trkpt>
      <trkpt lat="47.61999" lon="-2.84737">
        <ele>18.9</ele>
        <time>2025-01-28T12:45:02Z</time>
      </trkpt>
      <trkpt lat="47.62" lon="-2.84738">
        <ele>18.8</ele>
        <time>2025-01-28T12:45:03Z</time>
      </trkpt>
      <trkpt lat="47.62001" lon="-2.8474">
        <ele>18.7</ele>
        <time>2025-01-28T12:45:04Z</time>
      </trkpt>
      <trkpt lat="47.62002" lon="-2.84741">
        <ele>18.6</ele>
        <time>2025-01-28T12:45:05Z</time>
      </trkpt>
      <trkpt lat="47.62004" lon="-2.84743">
        <ele>18.5</ele>
        <time>2025-01-28T12:45:06Z</time>
      </trkpt>
      <trkpt lat="47.62005" lon="-2.84743">
        <ele>18.5</ele>
        <time>2025-01-28T12:45:07Z</time>
      </trkpt>
      <trkpt lat="47.62007" lon="-2.84743">
        <ele>18.4</ele>
        <time>2025-01-28T12:45:08Z</time>
      </trkpt>
      <trkpt lat="47.62008" lon="-2.84744">
        <ele>18.3</ele>
        <time>2025-01-28T12:45:09Z</time>
      </trkpt>
      <trkpt lat="47.62009" lon="-2.84746">
        <ele>18.2</ele>
        <time>2025-01-28T12:45:10Z</time>
      </trkpt>
      <trkpt lat="47.62009" lon="-2.84747">
        <ele>18.2</ele>
        <time>2025-01-28T12:45:11Z</time>
      </trkpt>
      <trkpt lat="47.6201" lon="-2.84748">
        <ele>18.1</ele>
        <time>2025-01-28T12:45:12Z</time>
      </trkpt>
      <trkpt lat="47.62011" lon="-2.84749">
        <ele>18.1</ele>
        <time>2025-01-28T12:45:13Z</time>
      </trkpt>
      <trkpt lat="47.62013" lon="-2.84749">
        <ele>18</ele>
        <time>2025-01-28T12:45:14Z</time>
      </trkpt>
      <trkpt lat="47.62014" lon="-2.8475">
        <ele>18</ele>
        <time>2025-01-28T12:45:15Z</time>
      </trkpt>
      <trkpt lat="47.62014" lon="-2.84751">
        <ele>17.9</ele>
        <time>2025-01-28T12:45:16Z</time>
      </trkpt>
      <trkpt lat="47.62015" lon="-2.84753">
        <ele>17.8</ele>
        <time>2025-01-28T12:45:17Z</time>
      </trkpt>
      <trkpt lat="47.62014" lon="-2.84755">
        <ele>17.7</ele>
        <time>2025-01-28T12:45:18Z</time>
      </trkpt>
      <trkpt lat="47.62014" lon="-2.84756">
        <ele>17.6</ele>
        <time>2025-01-28T12:45:19Z</time>
      </trkpt>
      <trkpt lat="47.62013" lon="-2.84757">
        <ele>17.5</ele>
        <time>2025-01-28T12:45:20Z</time>
      </trkpt>
      <trkpt lat="47.62012" lon="-2.84757">
        <ele>17.5</ele>
        <time>2025-01-28T12:45:21Z</time>
      </trkpt>
      <trkpt lat="47.62012" lon="-2.84756">
        <ele>17.5</ele>
        <time>2025-01-28T12:45:22Z</time>
      </trkpt>
      <trkpt lat="47.62012" lon="-2.84756">
        <ele>17.5</ele>
        <time>2025-01-28T12:45:23Z</time>
      </trkpt>
      <trkpt lat="47.62012" lon="-2.84756">
        <ele>17.5</ele>
        <time>2025-01-28T12:45:24Z</time>
      </trkpt>
      <trkpt lat="47.62012" lon="-2.84756">
        <ele>17.5</ele>
        <time>2025-01-28T12:45:25Z</time>
      </trkpt>
      <trkpt lat="47.62013" lon="-2.84756">
        <ele>17.6</ele>
        <time>2025-01-28T12:45:26Z</time>
      </trkpt>
      <trkpt lat="47.62014" lon="-2.84755">
        <ele>17.6</ele>
        <time>2025-01-28T12:45:27Z</time>
      </trkpt>
      <trkpt lat="47.62014" lon="-2.84754">
        <ele>17.7</ele>
        <time>2025-01-28T12:45:28Z</time>
      </trkpt>
      <trkpt lat="47.62015" lon="-2.84754">
        <ele>17.7</ele>
        <time>2025-01-28T12:45:29Z</time>
      </trkpt>
      <trkpt lat="47.62016" lon="-2.84754">
        <ele>17.7</ele>
        <time>2025-01-28T12:45:30Z</time>
      </trkpt>
      <trkpt lat="47.62017" lon="-2.84753">
        <ele>17.8</ele>
        <time>2025-01-28T12:45:31Z</time>
      </trkpt>
      <trkpt lat="47.62018" lon="-2.84754">
        <ele>17.7</ele>
        <time>2025-01-28T12:45:32Z</time>
      </trkpt>
      <trkpt lat="47.62019" lon="-2.84754">
        <ele>17.7</ele>
        <time>2025-01-28T12:45:33Z</time>
      </trkpt>
      <trkpt lat="47.6202" lon="-2.84754">
        <ele>17.7</ele>
        <time>2025-01-28T12:45:34Z</time>
      </trkpt>
      <trkpt lat="47.6202" lon="-2.84756">
        <ele>17.6</ele>
        <time>2025-01-28T12:45:35Z</time>
      </trkpt>
      <trkpt lat="47.62021" lon="-2.84757">
        <ele>17.5</ele>
        <time>2025-01-28T12:45:36Z</time>
      </trkpt>
      <trkpt lat="47.62022" lon="-2.84758">
        <ele>17.4</ele>
        <time>2025-01-28T12:45:37Z</time>
      </trkpt>
      <trkpt lat="47.62023" lon="-2.84758">
        <ele>17.4</ele>
        <time>2025-01-28T12:45:38Z</time>
      </trkpt>
      <trkpt lat="47.62024" lon="-2.84759">
        <ele>17.3</ele>
        <time>2025-01-28T12:45:39Z</time>
      </trkpt>
      <trkpt lat="47.62025" lon="-2.84759">
        <ele>17.3</ele>
        <time>2025-01-28T12:45:40Z</time>
      </trkpt>
      <trkpt lat="47.62026" lon="-2.8476">
        <ele>17.3</ele>
        <time>2025-01-28T12:45:41Z</time>
      </trkpt>
      <trkpt lat="47.62027" lon="-2.84761">
        <ele>17.2</ele>
        <time>2025-01-28T12:45:42Z</time>
      </trkpt>
      <trkpt lat="47.62028" lon="-2.84762">
        <ele>17.1</ele>
        <time>2025-01-28T12:45:43Z</time>
      </trkpt>
      <trkpt lat="47.62029" lon="-2.84763">
        <ele>17.1</ele>
        <time>2025-01-28T12:45:44Z</time>
      </trkpt>
      <trkpt lat="47.6203" lon="-2.84763">
        <ele>17</ele>
        <time>2025-01-28T12:45:45Z</time>
      </trkpt>
      <trkpt lat="47.62032" lon="-2.84764">
        <ele>16.9</ele>
        <time>2025-01-28T12:45:46Z</time>
      </trkpt>
      <trkpt lat="47.62033" lon="-2.84764">
        <ele>16.9</ele>
        <time>2025-01-28T12:45:47Z</time>
      </trkpt>
      <trkpt lat="47.62034" lon="-2.84765">
        <ele>16.8</ele>
        <time>2025-01-28T12:45:48Z</time>
      </trkpt>
      <trkpt lat="47.62034" lon="-2.84766">
        <ele>16.7</ele>
        <time>2025-01-28T12:45:49Z</time>
      </trkpt>
      <trkpt lat="47.62035" lon="-2.84768">
        <ele>16.6</ele>
        <time>2025-01-28T12:45:50Z</time>
      </trkpt>
      <trkpt lat="47.62037" lon="-2.84768">
        <ele>16.5</ele>
        <time>2025-01-28T12:45:51Z</time>
      </trkpt>
      <trkpt lat="47.62038" lon="-2.84769">
        <ele>16.4</ele>
        <time>2025-01-28T12:45:52Z</time>
      </trkpt>
      <trkpt lat="47.62039" lon="-2.84769">
        <ele>16.4</ele>
        <time>2025-01-28T12:45:53Z</time>
      </trkpt>
      <trkpt lat="47.6204" lon="-2.8477">
        <ele>16.3</ele>
        <time>2025-01-28T12:45:54Z</time>
      </trkpt>
      <trkpt lat="47.62041" lon="-2.8477">
        <ele>16.2</ele>
        <time>2025-01-28T12:45:55Z</time>
      </trkpt>
      <trkpt lat="47.62042" lon="-2.84771">
        <ele>16.1</ele>
        <time>2025-01-28T12:45:56Z</time>
      </trkpt>
      <trkpt lat="47.62043" lon="-2.84773">
        <ele>15.9</ele>
        <time>2025-01-28T12:45:57Z</time>
      </trkpt>
      <trkpt lat="47.62043" lon="-2.84774">
        <ele>15.8</ele>
        <time>2025-01-28T12:45:58Z</time>
      </trkpt>
      <trkpt lat="47.62044" lon="-2.84775">
        <ele>15.6</ele>
        <time>2025-01-28T12:45:59Z</time>
      </trkpt>
      <trkpt lat="47.62045" lon="-2.84777">
        <ele>15.5</ele>
        <time>2025-01-28T12:46:00Z</time>
      </trkpt>
      <trkpt lat="47.62046" lon="-2.84778">
        <ele>15.3</ele>
        <time>2025-01-28T12:46:01Z</time>
      </trkpt>
      <trkpt lat="47.62047" lon="-2.84778">
        <ele>15.3</ele>
        <time>2025-01-28T12:46:02Z</time>
      </trkpt>
      <trkpt lat="47.62049" lon="-2.84779">
        <ele>15.2</ele>
        <time>2025-01-28T12:46:03Z</time>
      </trkpt>
      <trkpt lat="47.6205" lon="-2.8478">
        <ele>15</ele>
        <time>2025-01-28T12:46:04Z</time>
      </trkpt>
      <trkpt lat="47.6205" lon="-2.84781">
        <ele>14.9</ele>
        <time>2025-01-28T12:46:05Z</time>
      </trkpt>
      <trkpt lat="47.62051" lon="-2.84783">
        <ele>14.8</ele>
        <time>2025-01-28T12:46:06Z</time>
      </trkpt>
      <trkpt lat="47.62051" lon="-2.84785">
        <ele>14.6</ele>
        <time>2025-01-28T12:46:07Z</time>
      </trkpt>
      <trkpt lat="47.62051" lon="-2.84786">
        <ele>14.5</ele>
        <time>2025-01-28T12:46:08Z</time>
      </trkpt>
      <trkpt lat="47.62052" lon="-2.84788">
        <ele>14.4</ele>
        <time>2025-01-28T12:46:09Z</time>
      </trkpt>
      <trkpt lat="47.62053" lon="-2.84789">
        <ele>14.3</ele>
        <time>2025-01-28T12:46:10Z</time>
      </trkpt>
      <trkpt lat="47.62054" lon="-2.8479">
        <ele>14.1</ele>
        <time>2025-01-28T12:46:11Z</time>
      </trkpt>
      <trkpt lat="47.62054" lon="-2.84792">
        <ele>14</ele>
        <time>2025-01-28T12:46:12Z</time>
      </trkpt>
      <trkpt lat="47.62056" lon="-2.84793">
        <ele>13.9</ele>
        <time>2025-01-28T12:46:13Z</time>
      </trkpt>
      <trkpt lat="47.62057" lon="-2.84794">
        <ele>13.9</ele>
        <time>2025-01-28T12:46:14Z</time>
      </trkpt>
      <trkpt lat="47.62058" lon="-2.84795">
        <ele>13.7</ele>
        <time>2025-01-28T12:46:15Z</time>
      </trkpt>
      <trkpt lat="47.62058" lon="-2.84797">
        <ele>13.6</ele>
        <time>2025-01-28T12:46:16Z</time>
      </trkpt>
      <trkpt lat="47.62058" lon="-2.84799">
        <ele>13.5</ele>
        <time>2025-01-28T12:46:17Z</time>
      </trkpt>
      <trkpt lat="47.62059" lon="-2.84801">
        <ele>13.3</ele>
        <time>2025-01-28T12:46:18Z</time>
      </trkpt>
      <trkpt lat="47.62059" lon="-2.84803">
        <ele>13.2</ele>
        <time>2025-01-28T12:46:19Z</time>
      </trkpt>
      <trkpt lat="47.62059" lon="-2.84805">
        <ele>13.1</ele>
        <time>2025-01-28T12:46:20Z</time>
      </trkpt>
      <trkpt lat="47.6206" lon="-2.84806">
        <ele>13</ele>
        <time>2025-01-28T12:46:21Z</time>
      </trkpt>
      <trkpt lat="47.62061" lon="-2.84808">
        <ele>12.9</ele>
        <time>2025-01-28T12:46:22Z</time>
      </trkpt>
      <trkpt lat="47.62062" lon="-2.84809">
        <ele>12.8</ele>
        <time>2025-01-28T12:46:23Z</time>
      </trkpt>
      <trkpt lat="47.62063" lon="-2.8481">
        <ele>12.7</ele>
        <time>2025-01-28T12:46:24Z</time>
      </trkpt>
      <trkpt lat="47.62064" lon="-2.84812">
        <ele>12.7</ele>
        <time>2025-01-28T12:46:25Z</time>
      </trkpt>
      <trkpt lat="47.62064" lon="-2.84813">
        <ele>12.6</ele>
        <time>2025-01-28T12:46:26Z</time>
      </trkpt>
      <trkpt lat="47.62065" lon="-2.84814">
        <ele>12.6</ele>
        <time>2025-01-28T12:46:27Z</time>
      </trkpt>
      <trkpt lat="47.62066" lon="-2.84815">
        <ele>12.6</ele>
        <time>2025-01-28T12:46:28Z</time>
      </trkpt>
      <trkpt lat="47.62067" lon="-2.84816">
        <ele>12.6</ele>
        <time>2025-01-28T12:46:29Z</time>
      </trkpt>
      <trkpt lat="47.62068" lon="-2.84818">
        <ele>12.5</ele>
        <time>2025-01-28T12:46:30Z</time>
      </trkpt>
      <trkpt lat="47.62069" lon="-2.84819">
        <ele>12.5</ele>
        <time>2025-01-28T12:46:31Z</time>
      </trkpt>
      <trkpt lat="47.6207" lon="-2.8482">
        <ele>12.5</ele>
        <time>2025-01-28T12:46:32Z</time>
      </trkpt>
      <trkpt lat="47.6207" lon="-2.84822">
        <ele>12.5</ele>
        <time>2025-01-28T12:46:33Z</time>
      </trkpt>
      <trkpt lat="47.62071" lon="-2.84823">
        <ele>12.4</ele>
        <time>2025-01-28T12:46:34Z</time>
      </trkpt>
      <trkpt lat="47.62072" lon="-2.84825">
        <ele>12.4</ele>
        <time>2025-01-28T12:46:35Z</time>
      </trkpt>
      <trkpt lat="47.62073" lon="-2.84826">
        <ele>12.4</ele>
        <time>2025-01-28T12:46:36Z</time>
      </trkpt>
      <trkpt lat="47.62074" lon="-2.84828">
        <ele>12.4</ele>
        <time>2025-01-28T12:46:37Z</time>
      </trkpt>
      <trkpt lat="47.62074" lon="-2.84829">
        <ele>12.4</ele>
        <time>2025-01-28T12:46:38Z</time>
      </trkpt>
      <trkpt lat="47.62075" lon="-2.8483">
        <ele>12.5</ele>
        <time>2025-01-28T12:46:39Z</time>
      </trkpt>
      <trkpt lat="47.62075" lon="-2.84832">
        <ele>12.4</ele>
        <time>2025-01-28T12:46:40Z</time>
      </trkpt>
      <trkpt lat="47.62076" lon="-2.84834">
        <ele>12.5</ele>
        <time>2025-01-28T12:46:41Z</time>
      </trkpt>
      <trkpt lat="47.62077" lon="-2.84835">
        <ele>12.6</ele>
        <time>2025-01-28T12:46:42Z</time>
      </trkpt>
      <trkpt lat="47.62077" lon="-2.84836">
        <ele>12.7</ele>
        <time>2025-01-28T12:46:43Z</time>
      </trkpt>
      <trkpt lat="47.62078" lon="-2.84837">
        <ele>12.8</ele>
        <time>2025-01-28T12:46:44Z</time>
      </trkpt>
      <trkpt lat="47.62079" lon="-2.84838">
        <ele>12.9</ele>
        <time>2025-01-28T12:46:45Z</time>
      </trkpt>
      <trkpt lat="47.6208" lon="-2.84839">
        <ele>13</ele>
        <time>2025-01-28T12:46:46Z</time>
      </trkpt>
      <trkpt lat="47.62081" lon="-2.84841">
        <ele>13.1</ele>
        <time>2025-01-28T12:46:47Z</time>
      </trkpt>
      <trkpt lat="47.62082" lon="-2.84842">
        <ele>13.2</ele>
        <time>2025-01-28T12:46:48Z</time>
      </trkpt>
      <trkpt lat="47.62082" lon="-2.84844">
        <ele>13.3</ele>
        <time>2025-01-28T12:46:49Z</time>
      </trkpt>
      <trkpt lat="47.62083" lon="-2.84845">
        <ele>13.4</ele>
        <time>2025-01-28T12:46:50Z</time>
      </trkpt>
      <trkpt lat="47.62084" lon="-2.84846">
        <ele>13.5</ele>
        <time>2025-01-28T12:46:51Z</time>
      </trkpt>
      <trkpt lat="47.62084" lon="-2.84848">
        <ele>13.5</ele>
        <time>2025-01-28T12:46:52Z</time>
      </trkpt>
      <trkpt lat="47.62085" lon="-2.84849">
        <ele>13.6</ele>
        <time>2025-01-28T12:46:53Z</time>
      </trkpt>
      <trkpt lat="47.62085" lon="-2.84851">
        <ele>13.7</ele>
        <time>2025-01-28T12:46:54Z</time>
      </trkpt>
      <trkpt lat="47.62086" lon="-2.84852">
        <ele>13.8</ele>
        <time>2025-01-28T12:46:55Z</time>
      </trkpt>
      <trkpt lat="47.62086" lon="-2.84854">
        <ele>13.8</ele>
        <time>2025-01-28T12:46:56Z</time>
      </trkpt>
      <trkpt lat="47.62087" lon="-2.84855">
        <ele>13.9</ele>
        <time>2025-01-28T12:46:57Z</time>
      </trkpt>
      <trkpt lat="47.62087" lon="-2.84857">
        <ele>14</ele>
        <time>2025-01-28T12:46:58Z</time>
      </trkpt>
      <trkpt lat="47.62088" lon="-2.84859">
        <ele>14.1</ele>
        <time>2025-01-28T12:46:59Z</time>
      </trkpt>
      <trkpt lat="47.62089" lon="-2.84861">
        <ele>14.2</ele>
        <time>2025-01-28T12:47:00Z</time>
      </trkpt>
      <trkpt lat="47.62089" lon="-2.84862">
        <ele>14.3</ele>
        <time>2025-01-28T12:47:01Z</time>
      </trkpt>
      <trkpt lat="47.6209" lon="-2.84864">
        <ele>14.3</ele>
        <time>2025-01-28T12:47:02Z</time>
      </trkpt>
      <trkpt lat="47.62091" lon="-2.84866">
        <ele>14.4</ele>
        <time>2025-01-28T12:47:03Z</time>
      </trkpt>
      <trkpt lat="47.62092" lon="-2.84867">
        <ele>14.5</ele>
        <time>2025-01-28T12:47:04Z</time>
      </trkpt>
      <trkpt lat="47.62093" lon="-2.84869">
        <ele>14.6</ele>
        <time>2025-01-28T12:47:05Z</time>
      </trkpt>
      <trkpt lat="47.62093" lon="-2.84871">
        <ele>14.7</ele>
        <time>2025-01-28T12:47:06Z</time>
      </trkpt>
      <trkpt lat="47.62093" lon="-2.84873">
        <ele>14.8</ele>
        <time>2025-01-28T12:47:07Z</time>
      </trkpt>
      <trkpt lat="47.62093" lon="-2.84874">
        <ele>14.8</ele>
        <time>2025-01-28T12:47:08Z</time>
      </trkpt>
      <trkpt lat="47.62093" lon="-2.84876">
        <ele>14.9</ele>
        <time>2025-01-28T12:47:09Z</time>
      </trkpt>
      <trkpt lat="47.62093" lon="-2.84877">
        <ele>14.9</ele>
        <time>2025-01-28T12:47:10Z</time>
      </trkpt>
      <trkpt lat="47.62092" lon="-2.84877">
        <ele>14.9</ele>
        <time>2025-01-28T12:47:11Z</time>
      </trkpt>
      <trkpt lat="47.62092" lon="-2.84877">
        <ele>14.9</ele>
        <time>2025-01-28T12:47:12Z</time>
      </trkpt>
      <trkpt lat="47.62092" lon="-2.84878">
        <ele>14.9</ele>
        <time>2025-01-28T12:47:13Z</time>
      </trkpt>
      <trkpt lat="47.62092" lon="-2.84881">
        <ele>15</ele>
        <time>2025-01-28T12:47:14Z</time>
      </trkpt>
      <trkpt lat="47.62091" lon="-2.84883">
        <ele>15</ele>
        <time>2025-01-28T12:47:15Z</time>
      </trkpt>
      <trkpt lat="47.6209" lon="-2.84883">
        <ele>15</ele>
        <time>2025-01-28T12:47:16Z</time>
      </trkpt>
      <trkpt lat="47.62089" lon="-2.84883">
        <ele>15</ele>
        <time>2025-01-28T12:47:17Z</time>
      </trkpt>
      <trkpt lat="47.62087" lon="-2.84883">
        <ele>14.9</ele>
        <time>2025-01-28T12:47:18Z</time>
      </trkpt>
      <trkpt lat="47.62087" lon="-2.84885">
        <ele>15</ele>
        <time>2025-01-28T12:47:19Z</time>
      </trkpt>
      <trkpt lat="47.62086" lon="-2.84886">
        <ele>15</ele>
        <time>2025-01-28T12:47:20Z</time>
      </trkpt>
      <trkpt lat="47.62085" lon="-2.84886">
        <ele>15</ele>
        <time>2025-01-28T12:47:21Z</time>
      </trkpt>
      <trkpt lat="47.62084" lon="-2.84888">
        <ele>15</ele>
        <time>2025-01-28T12:47:22Z</time>
      </trkpt>
      <trkpt lat="47.62083" lon="-2.84889">
        <ele>15</ele>
        <time>2025-01-28T12:47:23Z</time>
      </trkpt>
      <trkpt lat="47.62083" lon="-2.8489">
        <ele>15</ele>
        <time>2025-01-28T12:47:24Z</time>
      </trkpt>
      <trkpt lat="47.62082" lon="-2.84891">
        <ele>15</ele>
        <time>2025-01-28T12:47:25Z</time>
      </trkpt>
      <trkpt lat="47.62081" lon="-2.84892">
        <ele>15</ele>
        <time>2025-01-28T12:47:26Z</time>
      </trkpt>
      <trkpt lat="47.6208" lon="-2.84893">
        <ele>15</ele>
        <time>2025-01-28T12:47:27Z</time>
      </trkpt>
      <trkpt lat="47.62079" lon="-2.84894">
        <ele>15</ele>
        <time>2025-01-28T12:47:28Z</time>
      </trkpt>
      <trkpt lat="47.62078" lon="-2.84895">
        <ele>15</ele>
        <time>2025-01-28T12:47:29Z</time>
      </trkpt>
      <trkpt lat="47.62077" lon="-2.84896">
        <ele>15</ele>
        <time>2025-01-28T12:47:30Z</time>
      </trkpt>
      <trkpt lat="47.62076" lon="-2.84897">
        <ele>15</ele>
        <time>2025-01-28T12:47:31Z</time>
      </trkpt>
      <trkpt lat="47.62076" lon="-2.84898">
        <ele>15</ele>
        <time>2025-01-28T12:47:32Z</time>
      </trkpt>
      <trkpt lat="47.62075" lon="-2.849">
        <ele>15</ele>
        <time>2025-01-28T12:47:33Z</time>
      </trkpt>
      <trkpt lat="47.62074" lon="-2.84901">
        <ele>15</ele>
        <time>2025-01-28T12:47:34Z</time>
      </trkpt>
      <trkpt lat="47.62073" lon="-2.84902">
        <ele>15</ele>
        <time>2025-01-28T12:47:35Z</time>
      </trkpt>
      <trkpt lat="47.62072" lon="-2.84903">
        <ele>14.9</ele>
        <time>2025-01-28T12:47:36Z</time>
      </trkpt>
      <trkpt lat="47.62071" lon="-2.84903">
        <ele>14.9</ele>
        <time>2025-01-28T12:47:37Z</time>
      </trkpt>
      <trkpt lat="47.62069" lon="-2.84905">
        <ele>14.8</ele>
        <time>2025-01-28T12:47:38Z</time>
      </trkpt>
      <trkpt lat="47.62068" lon="-2.84906">
        <ele>14.8</ele>
        <time>2025-01-28T12:47:39Z</time>
      </trkpt>
      <trkpt lat="47.62067" lon="-2.84907">
        <ele>14.8</ele>
        <time>2025-01-28T12:47:40Z</time>
      </trkpt>
      <trkpt lat="47.62067" lon="-2.84909">
        <ele>14.8</ele>
        <time>2025-01-28T12:47:41Z</time>
      </trkpt>
      <trkpt lat="47.62066" lon="-2.8491">
        <ele>14.8</ele>
        <time>2025-01-28T12:47:42Z</time>
      </trkpt>
      <trkpt lat="47.62065" lon="-2.84911">
        <ele>14.8</ele>
        <time>2025-01-28T12:47:43Z</time>
      </trkpt>
      <trkpt lat="47.62064" lon="-2.84912">
        <ele>14.7</ele>
        <time>2025-01-28T12:47:44Z</time>
      </trkpt>
      <trkpt lat="47.62063" lon="-2.84914">
        <ele>14.7</ele>
        <time>2025-01-28T12:47:45Z</time>
      </trkpt>
      <trkpt lat="47.62062" lon="-2.84915">
        <ele>14.6</ele>
        <time>2025-01-28T12:47:46Z</time>
      </trkpt>
      <trkpt lat="47.62061" lon="-2.84916">
        <ele>14.6</ele>
        <time>2025-01-28T12:47:47Z</time>
      </trkpt>
      <trkpt lat="47.6206" lon="-2.84917">
        <ele>14.5</ele>
        <time>2025-01-28T12:47:48Z</time>
      </trkpt>
      <trkpt lat="47.6206" lon="-2.84919">
        <ele>14.5</ele>
        <time>2025-01-28T12:47:49Z</time>
      </trkpt>
      <trkpt lat="47.62059" lon="-2.8492">
        <ele>14.4</ele>
        <time>2025-01-28T12:47:50Z</time>
      </trkpt>
      <trkpt lat="47.62058" lon="-2.84921">
        <ele>14.4</ele>
        <time>2025-01-28T12:47:51Z</time>
      </trkpt>
      <trkpt lat="47.62057" lon="-2.84923">
        <ele>14.3</ele>
        <time>2025-01-28T12:47:52Z</time>
      </trkpt>
      <trkpt lat="47.62056" lon="-2.84924">
        <ele>14.3</ele>
        <time>2025-01-28T12:47:53Z</time>
      </trkpt>
      <trkpt lat="47.62055" lon="-2.84926">
        <ele>14.3</ele>
        <time>2025-01-28T12:47:54Z</time>
      </trkpt>
      <trkpt lat="47.62055" lon="-2.84927">
        <ele>14.3</ele>
        <time>2025-01-28T12:47:55Z</time>
      </trkpt>
      <trkpt lat="47.62054" lon="-2.84928">
        <ele>14.2</ele>
        <time>2025-01-28T12:47:56Z</time>
      </trkpt>
      <trkpt lat="47.62053" lon="-2.8493">
        <ele>14.2</ele>
        <time>2025-01-28T12:47:57Z</time>
      </trkpt>
      <trkpt lat="47.62053" lon="-2.84932">
        <ele>14.2</ele>
        <time>2025-01-28T12:47:58Z</time>
      </trkpt>
      <trkpt lat="47.62053" lon="-2.84933">
        <ele>14.2</ele>
        <time>2025-01-28T12:47:59Z</time>
      </trkpt>
      <trkpt lat="47.62053" lon="-2.84935">
        <ele>14.4</ele>
        <time>2025-01-28T12:48:00Z</time>
      </trkpt>
      <trkpt lat="47.62054" lon="-2.84937">
        <ele>14.4</ele>
        <time>2025-01-28T12:48:01Z</time>
      </trkpt>
      <trkpt lat="47.62054" lon="-2.84939">
        <ele>14.5</ele>
        <time>2025-01-28T12:48:02Z</time>
      </trkpt>
      <trkpt lat="47.62054" lon="-2.8494">
        <ele>14.6</ele>
        <time>2025-01-28T12:48:03Z</time>
      </trkpt>
      <trkpt lat="47.62054" lon="-2.84942">
        <ele>14.7</ele>
        <time>2025-01-28T12:48:04Z</time>
      </trkpt>
      <trkpt lat="47.62055" lon="-2.84944">
        <ele>14.8</ele>
        <time>2025-01-28T12:48:05Z</time>
      </trkpt>
      <trkpt lat="47.62055" lon="-2.84946">
        <ele>14.9</ele>
        <time>2025-01-28T12:48:06Z</time>
      </trkpt>
      <trkpt lat="47.62055" lon="-2.84947">
        <ele>14.9</ele>
        <time>2025-01-28T12:48:07Z</time>
      </trkpt>
      <trkpt lat="47.62056" lon="-2.84949">
        <ele>14.8</ele>
        <time>2025-01-28T12:48:08Z</time>
      </trkpt>
      <trkpt lat="47.62056" lon="-2.8495">
        <ele>14.8</ele>
        <time>2025-01-28T12:48:09Z</time>
      </trkpt>
      <trkpt lat="47.62057" lon="-2.84952">
        <ele>14.8</ele>
        <time>2025-01-28T12:48:10Z</time>
      </trkpt>
      <trkpt lat="47.62058" lon="-2.84953">
        <ele>14.8</ele>
        <time>2025-01-28T12:48:11Z</time>
      </trkpt>
      <trkpt lat="47.62059" lon="-2.84955">
        <ele>14.8</ele>
        <time>2025-01-28T12:48:12Z</time>
      </trkpt>
      <trkpt lat="47.6206" lon="-2.84956">
        <ele>14.8</ele>
        <time>2025-01-28T12:48:13Z</time>
      </trkpt>
      <trkpt lat="47.62061" lon="-2.84958">
        <ele>14.8</ele>
        <time>2025-01-28T12:48:14Z</time>
      </trkpt>
      <trkpt lat="47.62062" lon="-2.8496">
        <ele>14.8</ele>
        <time>2025-01-28T12:48:15Z</time>
      </trkpt>
      <trkpt lat="47.62062" lon="-2.84962">
        <ele>14.8</ele>
        <time>2025-01-28T12:48:16Z</time>
      </trkpt>
      <trkpt lat="47.62063" lon="-2.84964">
        <ele>14.8</ele>
        <time>2025-01-28T12:48:17Z</time>
      </trkpt>
      <trkpt lat="47.62064" lon="-2.84965">
        <ele>14.8</ele>
        <time>2025-01-28T12:48:18Z</time>
      </trkpt>
      <trkpt lat="47.62064" lon="-2.84967">
        <ele>14.7</ele>
        <time>2025-01-28T12:48:19Z</time>
      </trkpt>
      <trkpt lat="47.62065" lon="-2.84969">
        <ele>14.7</ele>
        <time>2025-01-28T12:48:20Z</time>
      </trkpt>
      <trkpt lat="47.62065" lon="-2.84971">
        <ele>14.7</ele>
        <time>2025-01-28T12:48:21Z</time>
      </trkpt>
      <trkpt lat="47.62065" lon="-2.84973">
        <ele>14.7</ele>
        <time>2025-01-28T12:48:22Z</time>
      </trkpt>
      <trkpt lat="47.62066" lon="-2.84974">
        <ele>14.7</ele>
        <time>2025-01-28T12:48:23Z</time>
      </trkpt>
      <trkpt lat="47.62066" lon="-2.84976">
        <ele>14.8</ele>
        <time>2025-01-28T12:48:24Z</time>
      </trkpt>
      <trkpt lat="47.62067" lon="-2.84978">
        <ele>14.8</ele>
        <time>2025-01-28T12:48:25Z</time>
      </trkpt>
      <trkpt lat="47.62067" lon="-2.84979">
        <ele>14.8</ele>
        <time>2025-01-28T12:48:26Z</time>
      </trkpt>
      <trkpt lat="47.62068" lon="-2.84981">
        <ele>14.9</ele>
        <time>2025-01-28T12:48:27Z</time>
      </trkpt>
      <trkpt lat="47.62068" lon="-2.84982">
        <ele>14.9</ele>
        <time>2025-01-28T12:48:28Z</time>
      </trkpt>
      <trkpt lat="47.62068" lon="-2.84984">
        <ele>14.9</ele>
        <time>2025-01-28T12:48:29Z</time>
      </trkpt>
      <trkpt lat="47.62069" lon="-2.84986">
        <ele>15</ele>
        <time>2025-01-28T12:48:30Z</time>
      </trkpt>
      <trkpt lat="47.62069" lon="-2.84988">
        <ele>15</ele>
        <time>2025-01-28T12:48:31Z</time>
      </trkpt>
      <trkpt lat="47.6207" lon="-2.8499">
        <ele>15</ele>
        <time>2025-01-28T12:48:32Z</time>
      </trkpt>
      <trkpt lat="47.6207" lon="-2.84992">
        <ele>15</ele>
        <time>2025-01-28T12:48:33Z</time>
      </trkpt>
      <trkpt lat="47.6207" lon="-2.84994">
        <ele>15</ele>
        <time>2025-01-28T12:48:34Z</time>
      </trkpt>
      <trkpt lat="47.62071" lon="-2.84996">
        <ele>15.1</ele>
        <time>2025-01-28T12:48:35Z</time>
      </trkpt>
      <trkpt lat="47.62071" lon="-2.84998">
        <ele>15.1</ele>
        <time>2025-01-28T12:48:36Z</time>
      </trkpt>
      <trkpt lat="47.62071" lon="-2.85">
        <ele>15.1</ele>
        <time>2025-01-28T12:48:37Z</time>
      </trkpt>
      <trkpt lat="47.62072" lon="-2.85002">
        <ele>15.2</ele>
        <time>2025-01-28T12:48:38Z</time>
      </trkpt>
      <trkpt lat="47.62072" lon="-2.85004">
        <ele>15.3</ele>
        <time>2025-01-28T12:48:39Z</time>
      </trkpt>
      <trkpt lat="47.62073" lon="-2.85006">
        <ele>15.4</ele>
        <time>2025-01-28T12:48:40Z</time>
      </trkpt>
      <trkpt lat="47.62074" lon="-2.85007">
        <ele>15.5</ele>
        <time>2025-01-28T12:48:41Z</time>
      </trkpt>
      <trkpt lat="47.62075" lon="-2.85009">
        <ele>15.6</ele>
        <time>2025-01-28T12:48:42Z</time>
      </trkpt>
      <trkpt lat="47.62075" lon="-2.8501">
        <ele>15.7</ele>
        <time>2025-01-28T12:48:43Z</time>
      </trkpt>
      <trkpt lat="47.62076" lon="-2.85012">
        <ele>15.7</ele>
        <time>2025-01-28T12:48:44Z</time>
      </trkpt>
      <trkpt lat="47.62076" lon="-2.85014">
        <ele>15.8</ele>
        <time>2025-01-28T12:48:45Z</time>
      </trkpt>
      <trkpt lat="47.62076" lon="-2.85015">
        <ele>15.9</ele>
        <time>2025-01-28T12:48:46Z</time>
      </trkpt>
      <trkpt lat="47.62076" lon="-2.85017">
        <ele>15.9</ele>
        <time>2025-01-28T12:48:47Z</time>
      </trkpt>
      <trkpt lat="47.62076" lon="-2.85019">
        <ele>16</ele>
        <time>2025-01-28T12:48:48Z</time>
      </trkpt>
      <trkpt lat="47.62077" lon="-2.8502">
        <ele>16.1</ele>
        <time>2025-01-28T12:48:49Z</time>
      </trkpt>
      <trkpt lat="47.62078" lon="-2.85021">
        <ele>16.2</ele>
        <time>2025-01-28T12:48:50Z</time>
      </trkpt>
      <trkpt lat="47.62078" lon="-2.85023">
        <ele>16.3</ele>
        <time>2025-01-28T12:48:51Z</time>
      </trkpt>
      <trkpt lat="47.62078" lon="-2.85024">
        <ele>16.3</ele>
        <time>2025-01-28T12:48:52Z</time>
      </trkpt>
      <trkpt lat="47.62078" lon="-2.85026">
        <ele>16.3</ele>
        <time>2025-01-28T12:48:53Z</time>
      </trkpt>
      <trkpt lat="47.62078" lon="-2.85028">
        <ele>16.4</ele>
        <time>2025-01-28T12:48:54Z</time>
      </trkpt>
      <trkpt lat="47.62078" lon="-2.8503">
        <ele>16.4</ele>
        <time>2025-01-28T12:48:55Z</time>
      </trkpt>
      <trkpt lat="47.62078" lon="-2.85031">
        <ele>16.5</ele>
        <time>2025-01-28T12:48:56Z</time>
      </trkpt>
      <trkpt lat="47.62078" lon="-2.85033">
        <ele>16.6</ele>
        <time>2025-01-28T12:48:57Z</time>
      </trkpt>
      <trkpt lat="47.62077" lon="-2.85035">
        <ele>16.6</ele>
        <time>2025-01-28T12:48:58Z</time>
      </trkpt>
      <trkpt lat="47.62077" lon="-2.85037">
        <ele>16.6</ele>
        <time>2025-01-28T12:48:59Z</time>
      </trkpt>
      <trkpt lat="47.62077" lon="-2.85039">
        <ele>16.7</ele>
        <time>2025-01-28T12:49:00Z</time>
      </trkpt>
      <trkpt lat="47.62077" lon="-2.85042">
        <ele>16.8</ele>
        <time>2025-01-28T12:49:01Z</time>
      </trkpt>
      <trkpt lat="47.62076" lon="-2.85043">
        <ele>16.7</ele>
        <time>2025-01-28T12:49:02Z</time>
      </trkpt>
      <trkpt lat="47.62074" lon="-2.85045">
        <ele>16.6</ele>
        <time>2025-01-28T12:49:03Z</time>
      </trkpt>
      <trkpt lat="47.62073" lon="-2.85046">
        <ele>16.6</ele>
        <time>2025-01-28T12:49:04Z</time>
      </trkpt>
      <trkpt lat="47.62073" lon="-2.85048">
        <ele>16.6</ele>
        <time>2025-01-28T12:49:05Z</time>
      </trkpt>
      <trkpt lat="47.62072" lon="-2.8505">
        <ele>16.6</ele>
        <time>2025-01-28T12:49:06Z</time>
      </trkpt>
      <trkpt lat="47.62072" lon="-2.85051">
        <ele>16.6</ele>
        <time>2025-01-28T12:49:07Z</time>
      </trkpt>
      <trkpt lat="47.62071" lon="-2.85053">
        <ele>16.6</ele>
        <time>2025-01-28T12:49:08Z</time>
      </trkpt>
      <trkpt lat="47.6207" lon="-2.85055">
        <ele>16.5</ele>
        <time>2025-01-28T12:49:09Z</time>
      </trkpt>
      <trkpt lat="47.6207" lon="-2.85056">
        <ele>16.5</ele>
        <time>2025-01-28T12:49:10Z</time>
      </trkpt>
      <trkpt lat="47.62069" lon="-2.85057">
        <ele>16.5</ele>
        <time>2025-01-28T12:49:11Z</time>
      </trkpt>
      <trkpt lat="47.62068" lon="-2.85059">
        <ele>16.5</ele>
        <time>2025-01-28T12:49:12Z</time>
      </trkpt>
      <trkpt lat="47.62068" lon="-2.85061">
        <ele>16.5</ele>
        <time>2025-01-28T12:49:13Z</time>
      </trkpt>
      <trkpt lat="47.62068" lon="-2.85063">
        <ele>16.6</ele>
        <time>2025-01-28T12:49:14Z</time>
      </trkpt>
      <trkpt lat="47.62068" lon="-2.85065">
        <ele>16.6</ele>
        <time>2025-01-28T12:49:15Z</time>
      </trkpt>
      <trkpt lat="47.62067" lon="-2.85066">
        <ele>16.6</ele>
        <time>2025-01-28T12:49:16Z</time>
      </trkpt>
      <trkpt lat="47.62066" lon="-2.85068">
        <ele>16.5</ele>
        <time>2025-01-28T12:49:17Z</time>
      </trkpt>
      <trkpt lat="47.62065" lon="-2.85069">
        <ele>16.5</ele>
        <time>2025-01-28T12:49:18Z</time>
      </trkpt>
      <trkpt lat="47.62064" lon="-2.85071">
        <ele>16.5</ele>
        <time>2025-01-28T12:49:19Z</time>
      </trkpt>
      <trkpt lat="47.62064" lon="-2.85072">
        <ele>16.5</ele>
        <time>2025-01-28T12:49:20Z</time>
      </trkpt>
      <trkpt lat="47.62063" lon="-2.85074">
        <ele>16.4</ele>
        <time>2025-01-28T12:49:21Z</time>
      </trkpt>
      <trkpt lat="47.62062" lon="-2.85075">
        <ele>16.4</ele>
        <time>2025-01-28T12:49:22Z</time>
      </trkpt>
      <trkpt lat="47.62061" lon="-2.85077">
        <ele>16.4</ele>
        <time>2025-01-28T12:49:23Z</time>
      </trkpt>
      <trkpt lat="47.62061" lon="-2.85078">
        <ele>16.3</ele>
        <time>2025-01-28T12:49:24Z</time>
      </trkpt>
      <trkpt lat="47.6206" lon="-2.85079">
        <ele>16.3</ele>
        <time>2025-01-28T12:49:25Z</time>
      </trkpt>
      <trkpt lat="47.62059" lon="-2.8508">
        <ele>16.3</ele>
        <time>2025-01-28T12:49:26Z</time>
      </trkpt>
      <trkpt lat="47.62059" lon="-2.85081">
        <ele>16.3</ele>
        <time>2025-01-28T12:49:27Z</time>
      </trkpt>
      <trkpt lat="47.62059" lon="-2.85082">
        <ele>16.3</ele>
        <time>2025-01-28T12:49:28Z</time>
      </trkpt>
      <trkpt lat="47.62059" lon="-2.85084">
        <ele>16.4</ele>
        <time>2025-01-28T12:49:29Z</time>
      </trkpt>
      <trkpt lat="47.62059" lon="-2.85085">
        <ele>16.5</ele>
        <time>2025-01-28T12:49:30Z</time>
      </trkpt>
      <trkpt lat="47.62058" lon="-2.85087">
        <ele>16.5</ele>
        <time>2025-01-28T12:49:31Z</time>
      </trkpt>
      <trkpt lat="47.62058" lon="-2.85088">
        <ele>16.6</ele>
        <time>2025-01-28T12:49:32Z</time>
      </trkpt>
      <trkpt lat="47.62057" lon="-2.8509">
        <ele>16.6</ele>
        <time>2025-01-28T12:49:33Z</time>
      </trkpt>
      <trkpt lat="47.62057" lon="-2.85092">
        <ele>16.7</ele>
        <time>2025-01-28T12:49:34Z</time>
      </trkpt>
      <trkpt lat="47.62056" lon="-2.85093">
        <ele>16.7</ele>
        <time>2025-01-28T12:49:35Z</time>
      </trkpt>
      <trkpt lat="47.62056" lon="-2.85094">
        <ele>16.8</ele>
        <time>2025-01-28T12:49:36Z</time>
      </trkpt>
      <trkpt lat="47.62055" lon="-2.85096">
        <ele>16.8</ele>
        <time>2025-01-28T12:49:37Z</time>
      </trkpt>
      <trkpt lat="47.62055" lon="-2.85098">
        <ele>16.9</ele>
        <time>2025-01-28T12:49:38Z</time>
      </trkpt>
      <trkpt lat="47.62054" lon="-2.85099">
        <ele>17</ele>
        <time>2025-01-28T12:49:39Z</time>
      </trkpt>
      <trkpt lat="47.62054" lon="-2.85101">
        <ele>17</ele>
        <time>2025-01-28T12:49:40Z</time>
      </trkpt>
      <trkpt lat="47.62053" lon="-2.85102">
        <ele>17</ele>
        <time>2025-01-28T12:49:41Z</time>
      </trkpt>
      <trkpt lat="47.62052" lon="-2.85104">
        <ele>17</ele>
        <time>2025-01-28T12:49:42Z</time>
      </trkpt>
      <trkpt lat="47.62052" lon="-2.85104">
        <ele>17.1</ele>
        <time>2025-01-28T12:49:43Z</time>
      </trkpt>
      <trkpt lat="47.62052" lon="-2.85105">
        <ele>17.1</ele>
        <time>2025-01-28T12:49:44Z</time>
      </trkpt>
      <trkpt lat="47.62052" lon="-2.85105">
        <ele>17.1</ele>
        <time>2025-01-28T12:49:45Z</time>
      </trkpt>
      <trkpt lat="47.62052" lon="-2.85105">
        <ele>17.1</ele>
        <time>2025-01-28T12:49:46Z</time>
      </trkpt>
      <trkpt lat="47.62052" lon="-2.85105">
        <ele>17.1</ele>
        <time>2025-01-28T12:49:47Z</time>
      </trkpt>
      <trkpt lat="47.62052" lon="-2.85105">
        <ele>17.1</ele>
        <time>2025-01-28T12:49:48Z</time>
      </trkpt>
      <trkpt lat="47.62052" lon="-2.85105">
        <ele>17.1</ele>
        <time>2025-01-28T12:49:49Z</time>
      </trkpt>
      <trkpt lat="47.62052" lon="-2.85105">
        <ele>17.1</ele>
        <time>2025-01-28T12:49:50Z</time>
      </trkpt>
      <trkpt lat="47.62051" lon="-2.85107">
        <ele>17.1</ele>
        <time>2025-01-28T12:49:51Z</time>
      </trkpt>
      <trkpt lat="47.62051" lon="-2.85108">
        <ele>17.1</ele>
        <time>2025-01-28T12:49:52Z</time>
      </trkpt>
      <trkpt lat="47.6205" lon="-2.8511">
        <ele>17.2</ele>
        <time>2025-01-28T12:49:53Z</time>
      </trkpt>
      <trkpt lat="47.6205" lon="-2.85112">
        <ele>17.2</ele>
        <time>2025-01-28T12:49:54Z</time>
      </trkpt>
      <trkpt lat="47.6205" lon="-2.85114">
        <ele>17.3</ele>
        <time>2025-01-28T12:49:55Z</time>
      </trkpt>
      <trkpt lat="47.6205" lon="-2.85115">
        <ele>17.2</ele>
        <time>2025-01-28T12:49:56Z</time>
      </trkpt>
      <trkpt lat="47.6205" lon="-2.85117">
        <ele>17.2</ele>
        <time>2025-01-28T12:49:57Z</time>
      </trkpt>
      <trkpt lat="47.62049" lon="-2.85118">
        <ele>17.1</ele>
        <time>2025-01-28T12:49:58Z</time>
      </trkpt>
      <trkpt lat="47.62049" lon="-2.8512">
        <ele>17.1</ele>
        <time>2025-01-28T12:49:59Z</time>
      </trkpt>
      <trkpt lat="47.62049" lon="-2.85122">
        <ele>17.1</ele>
        <time>2025-01-28T12:50:00Z</time>
      </trkpt>
      <trkpt lat="47.62049" lon="-2.85124">
        <ele>17.2</ele>
        <time>2025-01-28T12:50:01Z</time>
      </trkpt>
      <trkpt lat="47.62048" lon="-2.85126">
        <ele>17.1</ele>
        <time>2025-01-28T12:50:02Z</time>
      </trkpt>
      <trkpt lat="47.62048" lon="-2.85128">
        <ele>17.1</ele>
        <time>2025-01-28T12:50:03Z</time>
      </trkpt>
      <trkpt lat="47.62048" lon="-2.8513">
        <ele>17.1</ele>
        <time>2025-01-28T12:50:04Z</time>
      </trkpt>
      <trkpt lat="47.62048" lon="-2.85131">
        <ele>17.1</ele>
        <time>2025-01-28T12:50:05Z</time>
      </trkpt>
      <trkpt lat="47.62048" lon="-2.85133">
        <ele>17.1</ele>
        <time>2025-01-28T12:50:06Z</time>
      </trkpt>
      <trkpt lat="47.62048" lon="-2.85135">
        <ele>17.2</ele>
        <time>2025-01-28T12:50:07Z</time>
      </trkpt>
      <trkpt lat="47.62049" lon="-2.85136">
        <ele>17.3</ele>
        <time>2025-01-28T12:50:08Z</time>
      </trkpt>
      <trkpt lat="47.62049" lon="-2.85138">
        <ele>17.3</ele>
        <time>2025-01-28T12:50:09Z</time>
      </trkpt>
      <trkpt lat="47.62049" lon="-2.85139">
        <ele>17.3</ele>
        <time>2025-01-28T12:50:10Z</time>
      </trkpt>
      <trkpt lat="47.6205" lon="-2.85141">
        <ele>17.3</ele>
        <time>2025-01-28T12:50:11Z</time>
      </trkpt>
      <trkpt lat="47.6205" lon="-2.85143">
        <ele>17.2</ele>
        <time>2025-01-28T12:50:12Z</time>
      </trkpt>
      <trkpt lat="47.62049" lon="-2.85145">
        <ele>17.1</ele>
        <time>2025-01-28T12:50:13Z</time>
      </trkpt>
      <trkpt lat="47.62049" lon="-2.85147">
        <ele>17.1</ele>
        <time>2025-01-28T12:50:14Z</time>
      </trkpt>
      <trkpt lat="47.62049" lon="-2.85148">
        <ele>17</ele>
        <time>2025-01-28T12:50:15Z</time>
      </trkpt>
      <trkpt lat="47.62049" lon="-2.8515">
        <ele>17</ele>
        <time>2025-01-28T12:50:16Z</time>
      </trkpt>
      <trkpt lat="47.6205" lon="-2.85152">
        <ele>17</ele>
        <time>2025-01-28T12:50:17Z</time>
      </trkpt>
      <trkpt lat="47.6205" lon="-2.85153">
        <ele>17</ele>
        <time>2025-01-28T12:50:18Z</time>
      </trkpt>
      <trkpt lat="47.62051" lon="-2.85155">
        <ele>17</ele>
        <time>2025-01-28T12:50:19Z</time>
      </trkpt>
      <trkpt lat="47.62051" lon="-2.85157">
        <ele>17</ele>
        <time>2025-01-28T12:50:20Z</time>
      </trkpt>
      <trkpt lat="47.62051" lon="-2.85158">
        <ele>16.9</ele>
        <time>2025-01-28T12:50:21Z</time>
      </trkpt>
      <trkpt lat="47.62051" lon="-2.8516">
        <ele>16.9</ele>
        <time>2025-01-28T12:50:22Z</time>
      </trkpt>
      <trkpt lat="47.6205" lon="-2.85161">
        <ele>16.8</ele>
        <time>2025-01-28T12:50:23Z</time>
      </trkpt>
      <trkpt lat="47.6205" lon="-2.85163">
        <ele>16.7</ele>
        <time>2025-01-28T12:50:24Z</time>
      </trkpt>
      <trkpt lat="47.6205" lon="-2.85165">
        <ele>16.7</ele>
        <time>2025-01-28T12:50:25Z</time>
      </trkpt>
      <trkpt lat="47.62051" lon="-2.85166">
        <ele>16.7</ele>
        <time>2025-01-28T12:50:26Z</time>
      </trkpt>
      <trkpt lat="47.62051" lon="-2.85168">
        <ele>16.6</ele>
        <time>2025-01-28T12:50:27Z</time>
      </trkpt>
      <trkpt lat="47.62052" lon="-2.8517">
        <ele>16.6</ele>
        <time>2025-01-28T12:50:28Z</time>
      </trkpt>
      <trkpt lat="47.62052" lon="-2.85172">
        <ele>16.6</ele>
        <time>2025-01-28T12:50:29Z</time>
      </trkpt>
      <trkpt lat="47.62052" lon="-2.85173">
        <ele>16.5</ele>
        <time>2025-01-28T12:50:30Z</time>
      </trkpt>
      <trkpt lat="47.62052" lon="-2.85175">
        <ele>16.5</ele>
        <time>2025-01-28T12:50:31Z</time>
      </trkpt>
      <trkpt lat="47.62052" lon="-2.85177">
        <ele>16.4</ele>
        <time>2025-01-28T12:50:32Z</time>
      </trkpt>
      <trkpt lat="47.62052" lon="-2.85178">
        <ele>16.4</ele>
        <time>2025-01-28T12:50:33Z</time>
      </trkpt>
      <trkpt lat="47.62053" lon="-2.8518">
        <ele>16.4</ele>
        <time>2025-01-28T12:50:34Z</time>
      </trkpt>
      <trkpt lat="47.62053" lon="-2.85181">
        <ele>16.3</ele>
        <time>2025-01-28T12:50:35Z</time>
      </trkpt>
      <trkpt lat="47.62053" lon="-2.85183">
        <ele>16.3</ele>
        <time>2025-01-28T12:50:36Z</time>
      </trkpt>
      <trkpt lat="47.62053" lon="-2.85185">
        <ele>16.2</ele>
        <time>2025-01-28T12:50:37Z</time>
      </trkpt>
      <trkpt lat="47.62054" lon="-2.85187">
        <ele>16.2</ele>
        <time>2025-01-28T12:50:38Z</time>
      </trkpt>
      <trkpt lat="47.62055" lon="-2.85188">
        <ele>16.2</ele>
        <time>2025-01-28T12:50:39Z</time>
      </trkpt>
      <trkpt lat="47.62055" lon="-2.8519">
        <ele>16.1</ele>
        <time>2025-01-28T12:50:40Z</time>
      </trkpt>
      <trkpt lat="47.62055" lon="-2.85192">
        <ele>16.1</ele>
        <time>2025-01-28T12:50:41Z</time>
      </trkpt>
      <trkpt lat="47.62055" lon="-2.85194">
        <ele>16</ele>
        <time>2025-01-28T12:50:42Z</time>
      </trkpt>
      <trkpt lat="47.62055" lon="-2.85196">
        <ele>15.9</ele>
        <time>2025-01-28T12:50:43Z</time>
      </trkpt>
      <trkpt lat="47.62056" lon="-2.85198">
        <ele>15.8</ele>
        <time>2025-01-28T12:50:44Z</time>
      </trkpt>
      <trkpt lat="47.62056" lon="-2.85199">
        <ele>15.6</ele>
        <time>2025-01-28T12:50:45Z</time>
      </trkpt>
      <trkpt lat="47.62056" lon="-2.85201">
        <ele>15.5</ele>
        <time>2025-01-28T12:50:46Z</time>
      </trkpt>
      <trkpt lat="47.62056" lon="-2.85203">
        <ele>15.4</ele>
        <time>2025-01-28T12:50:47Z</time>
      </trkpt>
      <trkpt lat="47.62056" lon="-2.85205">
        <ele>15.2</ele>
        <time>2025-01-28T12:50:48Z</time>
      </trkpt>
      <trkpt lat="47.62055" lon="-2.85207">
        <ele>15.1</ele>
        <time>2025-01-28T12:50:49Z</time>
      </trkpt>
      <trkpt lat="47.62055" lon="-2.85208">
        <ele>15</ele>
        <time>2025-01-28T12:50:50Z</time>
      </trkpt>
      <trkpt lat="47.62054" lon="-2.8521">
        <ele>14.9</ele>
        <time>2025-01-28T12:50:51Z</time>
      </trkpt>
      <trkpt lat="47.62053" lon="-2.85211">
        <ele>14.8</ele>
        <time>2025-01-28T12:50:52Z</time>
      </trkpt>
      <trkpt lat="47.62051" lon="-2.85211">
        <ele>14.8</ele>
        <time>2025-01-28T12:50:53Z</time>
      </trkpt>
      <trkpt lat="47.6205" lon="-2.85212">
        <ele>14.8</ele>
        <time>2025-01-28T12:50:54Z</time>
      </trkpt>
      <trkpt lat="47.62049" lon="-2.85212">
        <ele>14.8</ele>
        <time>2025-01-28T12:50:55Z</time>
      </trkpt>
      <trkpt lat="47.62048" lon="-2.85211">
        <ele>14.9</ele>
        <time>2025-01-28T12:50:56Z</time>
      </trkpt>
      <trkpt lat="47.62047" lon="-2.85211">
        <ele>14.9</ele>
        <time>2025-01-28T12:50:57Z</time>
      </trkpt>
      <trkpt lat="47.62046" lon="-2.85211">
        <ele>14.9</ele>
        <time>2025-01-28T12:50:58Z</time>
      </trkpt>
      <trkpt lat="47.62045" lon="-2.85211">
        <ele>14.9</ele>
        <time>2025-01-28T12:50:59Z</time>
      </trkpt>
      <trkpt lat="47.62045" lon="-2.85211">
        <ele>14.9</ele>
        <time>2025-01-28T12:51:00Z</time>
      </trkpt>
      <trkpt lat="47.62045" lon="-2.85211">
        <ele>14.9</ele>
        <time>2025-01-28T12:51:01Z</time>
      </trkpt>
      <trkpt lat="47.62045" lon="-2.85211">
        <ele>14.9</ele>
        <time>2025-01-28T12:51:02Z</time>
      </trkpt>
      <trkpt lat="47.62045" lon="-2.85211">
        <ele>14.9</ele>
        <time>2025-01-28T12:51:03Z</time>
      </trkpt>
      <trkpt lat="47.62045" lon="-2.85211">
        <ele>14.9</ele>
        <time>2025-01-28T12:51:04Z</time>
      </trkpt>
      <trkpt lat="47.62045" lon="-2.85211">
        <ele>14.9</ele>
        <time>2025-01-28T12:51:05Z</time>
      </trkpt>
      <trkpt lat="47.62045" lon="-2.85212">
        <ele>14.8</ele>
        <time>2025-01-28T12:51:06Z</time>
      </trkpt>
      <trkpt lat="47.62045" lon="-2.85213">
        <ele>14.8</ele>
        <time>2025-01-28T12:51:07Z</time>
      </trkpt>
      <trkpt lat="47.62043" lon="-2.85214">
        <ele>14.8</ele>
        <time>2025-01-28T12:51:08Z</time>
      </trkpt>
      <trkpt lat="47.62043" lon="-2.85216">
        <ele>14.7</ele>
        <time>2025-01-28T12:51:09Z</time>
      </trkpt>
      <trkpt lat="47.62042" lon="-2.85217">
        <ele>14.7</ele>
        <time>2025-01-28T12:51:10Z</time>
      </trkpt>
      <trkpt lat="47.62041" lon="-2.85219">
        <ele>14.7</ele>
        <time>2025-01-28T12:51:11Z</time>
      </trkpt>
      <trkpt lat="47.6204" lon="-2.8522">
        <ele>14.6</ele>
        <time>2025-01-28T12:51:12Z</time>
      </trkpt>
      <trkpt lat="47.62039" lon="-2.85222">
        <ele>14.6</ele>
        <time>2025-01-28T12:51:13Z</time>
      </trkpt>
      <trkpt lat="47.62039" lon="-2.85223">
        <ele>14.6</ele>
        <time>2025-01-28T12:51:14Z</time>
      </trkpt>
      <trkpt lat="47.62038" lon="-2.85225">
        <ele>14.6</ele>
        <time>2025-01-28T12:51:15Z</time>
      </trkpt>
      <trkpt lat="47.62038" lon="-2.85226">
        <ele>14.5</ele>
        <time>2025-01-28T12:51:16Z</time>
      </trkpt>
      <trkpt lat="47.62037" lon="-2.85228">
        <ele>14.5</ele>
        <time>2025-01-28T12:51:17Z</time>
      </trkpt>
      <trkpt lat="47.62036" lon="-2.85229">
        <ele>14.5</ele>
        <time>2025-01-28T12:51:18Z</time>
      </trkpt>
      <trkpt lat="47.62035" lon="-2.85231">
        <ele>14.4</ele>
        <time>2025-01-28T12:51:19Z</time>
      </trkpt>
      <trkpt lat="47.62034" lon="-2.85232">
        <ele>14.4</ele>
        <time>2025-01-28T12:51:20Z</time>
      </trkpt>
      <trkpt lat="47.62034" lon="-2.85233">
        <ele>14.4</ele>
        <time>2025-01-28T12:51:21Z</time>
      </trkpt>
      <trkpt lat="47.62033" lon="-2.85235">
        <ele>14.3</ele>
        <time>2025-01-28T12:51:22Z</time>
      </trkpt>
      <trkpt lat="47.62033" lon="-2.85237">
        <ele>14.3</ele>
        <time>2025-01-28T12:51:23Z</time>
      </trkpt>
      <trkpt lat="47.62032" lon="-2.85239">
        <ele>14.2</ele>
        <time>2025-01-28T12:51:24Z</time>
      </trkpt>
      <trkpt lat="47.62032" lon="-2.85241">
        <ele>14.2</ele>
        <time>2025-01-28T12:51:25Z</time>
      </trkpt>
      <trkpt lat="47.62031" lon="-2.85242">
        <ele>14.2</ele>
        <time>2025-01-28T12:51:26Z</time>
      </trkpt>
      <trkpt lat="47.6203" lon="-2.85244">
        <ele>14.2</ele>
        <time>2025-01-28T12:51:27Z</time>
      </trkpt>
      <trkpt lat="47.62029" lon="-2.85246">
        <ele>14.1</ele>
        <time>2025-01-28T12:51:28Z</time>
      </trkpt>
      <trkpt lat="47.62029" lon="-2.85248">
        <ele>14</ele>
        <time>2025-01-28T12:51:29Z</time>
      </trkpt>
      <trkpt lat="47.62028" lon="-2.8525">
        <ele>14</ele>
        <time>2025-01-28T12:51:30Z</time>
      </trkpt>
      <trkpt lat="47.62028" lon="-2.85251">
        <ele>13.9</ele>
        <time>2025-01-28T12:51:31Z</time>
      </trkpt>
      <trkpt lat="47.62027" lon="-2.85253">
        <ele>13.8</ele>
        <time>2025-01-28T12:51:32Z</time>
      </trkpt>
      <trkpt lat="47.62026" lon="-2.85254">
        <ele>13.6</ele>
        <time>2025-01-28T12:51:33Z</time>
      </trkpt>
      <trkpt lat="47.62025" lon="-2.85256">
        <ele>13.5</ele>
        <time>2025-01-28T12:51:34Z</time>
      </trkpt>
      <trkpt lat="47.62025" lon="-2.85257">
        <ele>13.4</ele>
        <time>2025-01-28T12:51:35Z</time>
      </trkpt>
      <trkpt lat="47.62024" lon="-2.85259">
        <ele>13.3</ele>
        <time>2025-01-28T12:51:36Z</time>
      </trkpt>
      <trkpt lat="47.62023" lon="-2.8526">
        <ele>13.2</ele>
        <time>2025-01-28T12:51:37Z</time>
      </trkpt>
      <trkpt lat="47.62022" lon="-2.85261">
        <ele>13.1</ele>
        <time>2025-01-28T12:51:38Z</time>
      </trkpt>
      <trkpt lat="47.62021" lon="-2.85262">
        <ele>13</ele>
        <time>2025-01-28T12:51:39Z</time>
      </trkpt>
      <trkpt lat="47.6202" lon="-2.85262">
        <ele>13</ele>
        <time>2025-01-28T12:51:40Z</time>
      </trkpt>
      <trkpt lat="47.62019" lon="-2.85263">
        <ele>12.9</ele>
        <time>2025-01-28T12:51:41Z</time>
      </trkpt>
      <trkpt lat="47.62018" lon="-2.85264">
        <ele>12.8</ele>
        <time>2025-01-28T12:51:42Z</time>
      </trkpt>
      <trkpt lat="47.62017" lon="-2.85264">
        <ele>12.8</ele>
        <time>2025-01-28T12:51:43Z</time>
      </trkpt>
      <trkpt lat="47.62016" lon="-2.85266">
        <ele>12.7</ele>
        <time>2025-01-28T12:51:44Z</time>
      </trkpt>
      <trkpt lat="47.62016" lon="-2.85267">
        <ele>12.6</ele>
        <time>2025-01-28T12:51:45Z</time>
      </trkpt>
      <trkpt lat="47.62015" lon="-2.85268">
        <ele>12.6</ele>
        <time>2025-01-28T12:51:46Z</time>
      </trkpt>
      <trkpt lat="47.62014" lon="-2.85269">
        <ele>12.5</ele>
        <time>2025-01-28T12:51:47Z</time>
      </trkpt>
      <trkpt lat="47.62013" lon="-2.85269">
        <ele>12.5</ele>
        <time>2025-01-28T12:51:48Z</time>
      </trkpt>
      <trkpt lat="47.62012" lon="-2.85269">
        <ele>12.4</ele>
        <time>2025-01-28T12:51:49Z</time>
      </trkpt>
      <trkpt lat="47.62011" lon="-2.8527">
        <ele>12.4</ele>
        <time>2025-01-28T12:51:50Z</time>
      </trkpt>
      <trkpt lat="47.6201" lon="-2.85271">
        <ele>12.3</ele>
        <time>2025-01-28T12:51:51Z</time>
      </trkpt>
      <trkpt lat="47.62008" lon="-2.85273">
        <ele>12.2</ele>
        <time>2025-01-28T12:51:52Z</time>
      </trkpt>
      <trkpt lat="47.62007" lon="-2.85274">
        <ele>12.2</ele>
        <time>2025-01-28T12:51:53Z</time>
      </trkpt>
      <trkpt lat="47.62007" lon="-2.85275">
        <ele>12.1</ele>
        <time>2025-01-28T12:51:54Z</time>
      </trkpt>
      <trkpt lat="47.62006" lon="-2.85276">
        <ele>12.1</ele>
        <time>2025-01-28T12:51:55Z</time>
      </trkpt>
      <trkpt lat="47.62005" lon="-2.85277">
        <ele>12</ele>
        <time>2025-01-28T12:51:56Z</time>
      </trkpt>
      <trkpt lat="47.62004" lon="-2.85277">
        <ele>12</ele>
        <time>2025-01-28T12:51:57Z</time>
      </trkpt>
      <trkpt lat="47.62002" lon="-2.85278">
        <ele>12</ele>
        <time>2025-01-28T12:51:58Z</time>
      </trkpt>
      <trkpt lat="47.62001" lon="-2.85279">
        <ele>12</ele>
        <time>2025-01-28T12:51:59Z</time>
      </trkpt>
      <trkpt lat="47.62" lon="-2.85279">
        <ele>11.9</ele>
        <time>2025-01-28T12:52:00Z</time>
      </trkpt>
      <trkpt lat="47.61999" lon="-2.8528">
        <ele>11.8</ele>
        <time>2025-01-28T12:52:01Z</time>
      </trkpt>
      <trkpt lat="47.61998" lon="-2.85281">
        <ele>11.7</ele>
        <time>2025-01-28T12:52:02Z</time>
      </trkpt>
      <trkpt lat="47.61997" lon="-2.85281">
        <ele>11.6</ele>
        <time>2025-01-28T12:52:03Z</time>
      </trkpt>
      <trkpt lat="47.61996" lon="-2.8528">
        <ele>11.4</ele>
        <time>2025-01-28T12:52:04Z</time>
      </trkpt>
      <trkpt lat="47.61994" lon="-2.85281">
        <ele>11.3</ele>
        <time>2025-01-28T12:52:05Z</time>
      </trkpt>
      <trkpt lat="47.61993" lon="-2.85282">
        <ele>11.1</ele>
        <time>2025-01-28T12:52:06Z</time>
      </trkpt>
      <trkpt lat="47.61992" lon="-2.85282">
        <ele>11</ele>
        <time>2025-01-28T12:52:07Z</time>
      </trkpt>
      <trkpt lat="47.6199" lon="-2.85281">
        <ele>10.9</ele>
        <time>2025-01-28T12:52:08Z</time>
      </trkpt>
      <trkpt lat="47.61989" lon="-2.8528">
        <ele>10.8</ele>
        <time>2025-01-28T12:52:09Z</time>
      </trkpt>
      <trkpt lat="47.61988" lon="-2.85279">
        <ele>10.7</ele>
        <time>2025-01-28T12:52:10Z</time>
      </trkpt>
      <trkpt lat="47.61988" lon="-2.85278">
        <ele>10.7</ele>
        <time>2025-01-28T12:52:11Z</time>
      </trkpt>
      <trkpt lat="47.61987" lon="-2.85277">
        <ele>10.6</ele>
        <time>2025-01-28T12:52:12Z</time>
      </trkpt>
      <trkpt lat="47.61987" lon="-2.85276">
        <ele>10.6</ele>
        <time>2025-01-28T12:52:13Z</time>
      </trkpt>
      <trkpt lat="47.61986" lon="-2.85275">
        <ele>10.5</ele>
        <time>2025-01-28T12:52:14Z</time>
      </trkpt>
      <trkpt lat="47.61985" lon="-2.85274">
        <ele>10.4</ele>
        <time>2025-01-28T12:52:15Z</time>
      </trkpt>
      <trkpt lat="47.61984" lon="-2.85274">
        <ele>10.3</ele>
        <time>2025-01-28T12:52:16Z</time>
      </trkpt>
      <trkpt lat="47.61983" lon="-2.85273">
        <ele>10.2</ele>
        <time>2025-01-28T12:52:17Z</time>
      </trkpt>
      <trkpt lat="47.61982" lon="-2.85273">
        <ele>10.1</ele>
        <time>2025-01-28T12:52:18Z</time>
      </trkpt>
      <trkpt lat="47.61981" lon="-2.85272">
        <ele>10</ele>
        <time>2025-01-28T12:52:19Z</time>
      </trkpt>
      <trkpt lat="47.6198" lon="-2.85271">
        <ele>9.9</ele>
        <time>2025-01-28T12:52:20Z</time>
      </trkpt>
      <trkpt lat="47.61979" lon="-2.8527">
        <ele>9.8</ele>
        <time>2025-01-28T12:52:21Z</time>
      </trkpt>
      <trkpt lat="47.61978" lon="-2.85269">
        <ele>9.7</ele>
        <time>2025-01-28T12:52:22Z</time>
      </trkpt>
      <trkpt lat="47.61977" lon="-2.85268">
        <ele>9.5</ele>
        <time>2025-01-28T12:52:23Z</time>
      </trkpt>
      <trkpt lat="47.61975" lon="-2.85268">
        <ele>9.4</ele>
        <time>2025-01-28T12:52:24Z</time>
      </trkpt>
      <trkpt lat="47.61974" lon="-2.85267">
        <ele>9.2</ele>
        <time>2025-01-28T12:52:25Z</time>
      </trkpt>
      <trkpt lat="47.61973" lon="-2.85266">
        <ele>9.1</ele>
        <time>2025-01-28T12:52:26Z</time>
      </trkpt>
      <trkpt lat="47.61972" lon="-2.85266">
        <ele>8.9</ele>
        <time>2025-01-28T12:52:27Z</time>
      </trkpt>
      <trkpt lat="47.61971" lon="-2.85265">
        <ele>8.8</ele>
        <time>2025-01-28T12:52:28Z</time>
      </trkpt>
      <trkpt lat="47.6197" lon="-2.85264">
        <ele>8.7</ele>
        <time>2025-01-28T12:52:29Z</time>
      </trkpt>
      <trkpt lat="47.61969" lon="-2.85263">
        <ele>8.6</ele>
        <time>2025-01-28T12:52:30Z</time>
      </trkpt>
      <trkpt lat="47.61968" lon="-2.85262">
        <ele>8.4</ele>
        <time>2025-01-28T12:52:31Z</time>
      </trkpt>
      <trkpt lat="47.61967" lon="-2.85261">
        <ele>8.3</ele>
        <time>2025-01-28T12:52:32Z</time>
      </trkpt>
      <trkpt lat="47.61966" lon="-2.8526">
        <ele>8.1</ele>
        <time>2025-01-28T12:52:33Z</time>
      </trkpt>
      <trkpt lat="47.61965" lon="-2.85259">
        <ele>8</ele>
        <time>2025-01-28T12:52:34Z</time>
      </trkpt>
      <trkpt lat="47.61964" lon="-2.85257">
        <ele>7.9</ele>
        <time>2025-01-28T12:52:35Z</time>
      </trkpt>
      <trkpt lat="47.61963" lon="-2.85257">
        <ele>7.7</ele>
        <time>2025-01-28T12:52:36Z</time>
      </trkpt>
      <trkpt lat="47.61961" lon="-2.85257">
        <ele>7.5</ele>
        <time>2025-01-28T12:52:37Z</time>
      </trkpt>
      <trkpt lat="47.6196" lon="-2.85256">
        <ele>7.4</ele>
        <time>2025-01-28T12:52:38Z</time>
      </trkpt>
      <trkpt lat="47.61959" lon="-2.85255">
        <ele>7.2</ele>
        <time>2025-01-28T12:52:39Z</time>
      </trkpt>
      <trkpt lat="47.61958" lon="-2.85254">
        <ele>7.1</ele>
        <time>2025-01-28T12:52:40Z</time>
      </trkpt>
      <trkpt lat="47.61957" lon="-2.85253">
        <ele>6.9</ele>
        <time>2025-01-28T12:52:41Z</time>
      </trkpt>
      <trkpt lat="47.61956" lon="-2.85253">
        <ele>6.7</ele>
        <time>2025-01-28T12:52:42Z</time>
      </trkpt>
      <trkpt lat="47.61955" lon="-2.85251">
        <ele>6.6</ele>
        <time>2025-01-28T12:52:43Z</time>
      </trkpt>
      <trkpt lat="47.61954" lon="-2.8525">
        <ele>6.4</ele>
        <time>2025-01-28T12:52:44Z</time>
      </trkpt>
      <trkpt lat="47.61954" lon="-2.85249">
        <ele>6.3</ele>
        <time>2025-01-28T12:52:45Z</time>
      </trkpt>
      <trkpt lat="47.61953" lon="-2.85248">
        <ele>6.1</ele>
        <time>2025-01-28T12:52:46Z</time>
      </trkpt>
      <trkpt lat="47.61952" lon="-2.85247">
        <ele>5.8</ele>
        <time>2025-01-28T12:52:47Z</time>
      </trkpt>
      <trkpt lat="47.61951" lon="-2.85247">
        <ele>5.6</ele>
        <time>2025-01-28T12:52:48Z</time>
      </trkpt>
      <trkpt lat="47.6195" lon="-2.85246">
        <ele>5.4</ele>
        <time>2025-01-28T12:52:49Z</time>
      </trkpt>
      <trkpt lat="47.61949" lon="-2.85245">
        <ele>5.2</ele>
        <time>2025-01-28T12:52:50Z</time>
      </trkpt>
      <trkpt lat="47.61948" lon="-2.85245">
        <ele>5</ele>
        <time>2025-01-28T12:52:51Z</time>
      </trkpt>
      <trkpt lat="47.61946" lon="-2.85245">
        <ele>4.7</ele>
        <time>2025-01-28T12:52:52Z</time>
      </trkpt>
      <trkpt lat="47.61945" lon="-2.85244">
        <ele>4.5</ele>
        <time>2025-01-28T12:52:53Z</time>
      </trkpt>
      <trkpt lat="47.61944" lon="-2.85243">
        <ele>4.3</ele>
        <time>2025-01-28T12:52:54Z</time>
      </trkpt>
      <trkpt lat="47.61943" lon="-2.85243">
        <ele>4.3</ele>
        <time>2025-01-28T12:52:55Z</time>
      </trkpt>
      <trkpt lat="47.61942" lon="-2.85242">
        <ele>4.2</ele>
        <time>2025-01-28T12:52:56Z</time>
      </trkpt>
      <trkpt lat="47.61941" lon="-2.85241">
        <ele>4.2</ele>
        <time>2025-01-28T12:52:57Z</time>
      </trkpt>
      <trkpt lat="47.6194" lon="-2.8524">
        <ele>4.2</ele>
        <time>2025-01-28T12:52:58Z</time>
      </trkpt>
      <trkpt lat="47.61939" lon="-2.8524">
        <ele>4.2</ele>
        <time>2025-01-28T12:52:59Z</time>
      </trkpt>
      <trkpt lat="47.61938" lon="-2.8524">
        <ele>4.2</ele>
        <time>2025-01-28T12:53:00Z</time>
      </trkpt>
      <trkpt lat="47.61937" lon="-2.85241">
        <ele>4.3</ele>
        <time>2025-01-28T12:53:01Z</time>
      </trkpt>
      <trkpt lat="47.61937" lon="-2.85242">
        <ele>4.5</ele>
        <time>2025-01-28T12:53:02Z</time>
      </trkpt>
      <trkpt lat="47.61937" lon="-2.85244">
        <ele>4.6</ele>
        <time>2025-01-28T12:53:03Z</time>
      </trkpt>
      <trkpt lat="47.61936" lon="-2.85246">
        <ele>4.7</ele>
        <time>2025-01-28T12:53:04Z</time>
      </trkpt>
      <trkpt lat="47.61936" lon="-2.85248">
        <ele>4.9</ele>
        <time>2025-01-28T12:53:05Z</time>
      </trkpt>
      <trkpt lat="47.61935" lon="-2.85249">
        <ele>5</ele>
        <time>2025-01-28T12:53:06Z</time>
      </trkpt>
      <trkpt lat="47.61935" lon="-2.85251">
        <ele>5</ele>
        <time>2025-01-28T12:53:07Z</time>
      </trkpt>
      <trkpt lat="47.61934" lon="-2.85252">
        <ele>4.9</ele>
        <time>2025-01-28T12:53:08Z</time>
      </trkpt>
      <trkpt lat="47.61933" lon="-2.85253">
        <ele>4.9</ele>
        <time>2025-01-28T12:53:09Z</time>
      </trkpt>
      <trkpt lat="47.61933" lon="-2.85254">
        <ele>4.8</ele>
        <time>2025-01-28T12:53:10Z</time>
      </trkpt>
      <trkpt lat="47.61932" lon="-2.85256">
        <ele>4.7</ele>
        <time>2025-01-28T12:53:11Z</time>
      </trkpt>
      <trkpt lat="47.61932" lon="-2.85258">
        <ele>4.7</ele>
        <time>2025-01-28T12:53:12Z</time>
      </trkpt>
      <trkpt lat="47.61932" lon="-2.85259">
        <ele>4.6</ele>
        <time>2025-01-28T12:53:13Z</time>
      </trkpt>
      <trkpt lat="47.61933" lon="-2.85261">
        <ele>4.5</ele>
        <time>2025-01-28T12:53:14Z</time>
      </trkpt>
      <trkpt lat="47.61933" lon="-2.85263">
        <ele>4.5</ele>
        <time>2025-01-28T12:53:15Z</time>
      </trkpt>
      <trkpt lat="47.61933" lon="-2.85264">
        <ele>4.5</ele>
        <time>2025-01-28T12:53:16Z</time>
      </trkpt>
      <trkpt lat="47.61934" lon="-2.85266">
        <ele>4.5</ele>
        <time>2025-01-28T12:53:17Z</time>
      </trkpt>
      <trkpt lat="47.61934" lon="-2.85268">
        <ele>4.4</ele>
        <time>2025-01-28T12:53:18Z</time>
      </trkpt>
      <trkpt lat="47.61934" lon="-2.85269">
        <ele>4.4</ele>
        <time>2025-01-28T12:53:19Z</time>
      </trkpt>
      <trkpt lat="47.61935" lon="-2.85271">
        <ele>4.4</ele>
        <time>2025-01-28T12:53:20Z</time>
      </trkpt>
      <trkpt lat="47.61935" lon="-2.85272">
        <ele>4.4</ele>
        <time>2025-01-28T12:53:21Z</time>
      </trkpt>
      <trkpt lat="47.61935" lon="-2.85274">
        <ele>4.4</ele>
        <time>2025-01-28T12:53:22Z</time>
      </trkpt>
      <trkpt lat="47.61935" lon="-2.85276">
        <ele>4.4</ele>
        <time>2025-01-28T12:53:23Z</time>
      </trkpt>
      <trkpt lat="47.61935" lon="-2.85277">
        <ele>4.3</ele>
        <time>2025-01-28T12:53:24Z</time>
      </trkpt>
      <trkpt lat="47.61935" lon="-2.85279">
        <ele>4.3</ele>
        <time>2025-01-28T12:53:25Z</time>
      </trkpt>
      <trkpt lat="47.61935" lon="-2.85281">
        <ele>4.2</ele>
        <time>2025-01-28T12:53:26Z</time>
      </trkpt>
      <trkpt lat="47.61934" lon="-2.85283">
        <ele>4.2</ele>
        <time>2025-01-28T12:53:27Z</time>
      </trkpt>
      <trkpt lat="47.61934" lon="-2.85284">
        <ele>4.1</ele>
        <time>2025-01-28T12:53:28Z</time>
      </trkpt>
      <trkpt lat="47.61934" lon="-2.85286">
        <ele>4</ele>
        <time>2025-01-28T12:53:29Z</time>
      </trkpt>
      <trkpt lat="47.61933" lon="-2.85288">
        <ele>4</ele>
        <time>2025-01-28T12:53:30Z</time>
      </trkpt>
      <trkpt lat="47.61933" lon="-2.8529">
        <ele>3.9</ele>
        <time>2025-01-28T12:53:31Z</time>
      </trkpt>
      <trkpt lat="47.61933" lon="-2.85292">
        <ele>3.9</ele>
        <time>2025-01-28T12:53:32Z</time>
      </trkpt>
      <trkpt lat="47.61932" lon="-2.85293">
        <ele>3.7</ele>
        <time>2025-01-28T12:53:33Z</time>
      </trkpt>
      <trkpt lat="47.61931" lon="-2.85296">
        <ele>3.6</ele>
        <time>2025-01-28T12:53:34Z</time>
      </trkpt>
      <trkpt lat="47.61931" lon="-2.85297">
        <ele>3.5</ele>
        <time>2025-01-28T12:53:35Z</time>
      </trkpt>
      <trkpt lat="47.6193" lon="-2.85299">
        <ele>3.5</ele>
        <time>2025-01-28T12:53:36Z</time>
      </trkpt>
      <trkpt lat="47.6193" lon="-2.85301">
        <ele>3.4</ele>
        <time>2025-01-28T12:53:37Z</time>
      </trkpt>
      <trkpt lat="47.61929" lon="-2.85302">
        <ele>3.3</ele>
        <time>2025-01-28T12:53:38Z</time>
      </trkpt>
      <trkpt lat="47.61929" lon="-2.85304">
        <ele>3.2</ele>
        <time>2025-01-28T12:53:39Z</time>
      </trkpt>
      <trkpt lat="47.61929" lon="-2.85306">
        <ele>3.2</ele>
        <time>2025-01-28T12:53:40Z</time>
      </trkpt>
      <trkpt lat="47.61929" lon="-2.85307">
        <ele>3.3</ele>
        <time>2025-01-28T12:53:41Z</time>
      </trkpt>
      <trkpt lat="47.61929" lon="-2.85309">
        <ele>3.3</ele>
        <time>2025-01-28T12:53:42Z</time>
      </trkpt>
      <trkpt lat="47.61929" lon="-2.85311">
        <ele>3.4</ele>
        <time>2025-01-28T12:53:43Z</time>
      </trkpt>
      <trkpt lat="47.61928" lon="-2.85312">
        <ele>3.4</ele>
        <time>2025-01-28T12:53:44Z</time>
      </trkpt>
      <trkpt lat="47.61928" lon="-2.85314">
        <ele>3.4</ele>
        <time>2025-01-28T12:53:45Z</time>
      </trkpt>
      <trkpt lat="47.61928" lon="-2.85316">
        <ele>3.4</ele>
        <time>2025-01-28T12:53:46Z</time>
      </trkpt>
      <trkpt lat="47.61928" lon="-2.85317">
        <ele>3.4</ele>
        <time>2025-01-28T12:53:47Z</time>
      </trkpt>
      <trkpt lat="47.61927" lon="-2.85318">
        <ele>3.4</ele>
        <time>2025-01-28T12:53:48Z</time>
      </trkpt>
      <trkpt lat="47.61927" lon="-2.8532">
        <ele>3.3</ele>
        <time>2025-01-28T12:53:49Z</time>
      </trkpt>
      <trkpt lat="47.61926" lon="-2.85321">
        <ele>3.2</ele>
        <time>2025-01-28T12:53:50Z</time>
      </trkpt>
      <trkpt lat="47.61925" lon="-2.85322">
        <ele>3.1</ele>
        <time>2025-01-28T12:53:51Z</time>
      </trkpt>
      <trkpt lat="47.61925" lon="-2.85323">
        <ele>3</ele>
        <time>2025-01-28T12:53:52Z</time>
      </trkpt>
      <trkpt lat="47.61924" lon="-2.85325">
        <ele>3.1</ele>
        <time>2025-01-28T12:53:53Z</time>
      </trkpt>
      <trkpt lat="47.61924" lon="-2.85327">
        <ele>3.1</ele>
        <time>2025-01-28T12:53:54Z</time>
      </trkpt>
      <trkpt lat="47.61924" lon="-2.85328">
        <ele>3.1</ele>
        <time>2025-01-28T12:53:55Z</time>
      </trkpt>
      <trkpt lat="47.61923" lon="-2.8533">
        <ele>3</ele>
        <time>2025-01-28T12:53:56Z</time>
      </trkpt>
      <trkpt lat="47.61923" lon="-2.85331">
        <ele>3.1</ele>
        <time>2025-01-28T12:53:57Z</time>
      </trkpt>
      <trkpt lat="47.61923" lon="-2.85333">
        <ele>3.1</ele>
        <time>2025-01-28T12:53:58Z</time>
      </trkpt>
      <trkpt lat="47.61923" lon="-2.85335">
        <ele>3</ele>
        <time>2025-01-28T12:53:59Z</time>
      </trkpt>
      <trkpt lat="47.61923" lon="-2.85337">
        <ele>3</ele>
        <time>2025-01-28T12:54:00Z</time>
      </trkpt>
      <trkpt lat="47.61924" lon="-2.85338">
        <ele>3.1</ele>
        <time>2025-01-28T12:54:01Z</time>
      </trkpt>
      <trkpt lat="47.61924" lon="-2.8534">
        <ele>3.1</ele>
        <time>2025-01-28T12:54:02Z</time>
      </trkpt>
      <trkpt lat="47.61925" lon="-2.85342">
        <ele>3.1</ele>
        <time>2025-01-28T12:54:03Z</time>
      </trkpt>
      <trkpt lat="47.61926" lon="-2.85344">
        <ele>3.2</ele>
        <time>2025-01-28T12:54:04Z</time>
      </trkpt>
      <trkpt lat="47.61927" lon="-2.85345">
        <ele>3.3</ele>
        <time>2025-01-28T12:54:05Z</time>
      </trkpt>
      <trkpt lat="47.61927" lon="-2.85347">
        <ele>3.4</ele>
        <time>2025-01-28T12:54:06Z</time>
      </trkpt>
      <trkpt lat="47.61928" lon="-2.85349">
        <ele>3.5</ele>
        <time>2025-01-28T12:54:07Z</time>
      </trkpt>
      <trkpt lat="47.61929" lon="-2.8535">
        <ele>3.5</ele>
        <time>2025-01-28T12:54:08Z</time>
      </trkpt>
      <trkpt lat="47.61929" lon="-2.85352">
        <ele>3.6</ele>
        <time>2025-01-28T12:54:09Z</time>
      </trkpt>
      <trkpt lat="47.61929" lon="-2.85354">
        <ele>3.5</ele>
        <time>2025-01-28T12:54:10Z</time>
      </trkpt>
      <trkpt lat="47.6193" lon="-2.85356">
        <ele>3.6</ele>
        <time>2025-01-28T12:54:11Z</time>
      </trkpt>
      <trkpt lat="47.6193" lon="-2.85358">
        <ele>3.6</ele>
        <time>2025-01-28T12:54:12Z</time>
      </trkpt>
      <trkpt lat="47.61931" lon="-2.8536">
        <ele>3.7</ele>
        <time>2025-01-28T12:54:13Z</time>
      </trkpt>
      <trkpt lat="47.61931" lon="-2.85362">
        <ele>3.6</ele>
        <time>2025-01-28T12:54:14Z</time>
      </trkpt>
      <trkpt lat="47.61931" lon="-2.85363">
        <ele>3.6</ele>
        <time>2025-01-28T12:54:15Z</time>
      </trkpt>
      <trkpt lat="47.6193" lon="-2.85365">
        <ele>3.5</ele>
        <time>2025-01-28T12:54:16Z</time>
      </trkpt>
      <trkpt lat="47.6193" lon="-2.85366">
        <ele>3.4</ele>
        <time>2025-01-28T12:54:17Z</time>
      </trkpt>
      <trkpt lat="47.61929" lon="-2.85368">
        <ele>3.4</ele>
        <time>2025-01-28T12:54:18Z</time>
      </trkpt>
      <trkpt lat="47.6193" lon="-2.8537">
        <ele>3.5</ele>
        <time>2025-01-28T12:54:19Z</time>
      </trkpt>
      <trkpt lat="47.61929" lon="-2.85372">
        <ele>3.5</ele>
        <time>2025-01-28T12:54:20Z</time>
      </trkpt>
      <trkpt lat="47.61929" lon="-2.85374">
        <ele>3.5</ele>
        <time>2025-01-28T12:54:21Z</time>
      </trkpt>
      <trkpt lat="47.6193" lon="-2.85376">
        <ele>3.6</ele>
        <time>2025-01-28T12:54:22Z</time>
      </trkpt>
      <trkpt lat="47.61929" lon="-2.85378">
        <ele>3.6</ele>
        <time>2025-01-28T12:54:23Z</time>
      </trkpt>
      <trkpt lat="47.61929" lon="-2.85379">
        <ele>3.6</ele>
        <time>2025-01-28T12:54:24Z</time>
      </trkpt>
      <trkpt lat="47.61928" lon="-2.85381">
        <ele>3.5</ele>
        <time>2025-01-28T12:54:25Z</time>
      </trkpt>
      <trkpt lat="47.61928" lon="-2.85382">
        <ele>3.5</ele>
        <time>2025-01-28T12:54:26Z</time>
      </trkpt>
      <trkpt lat="47.61928" lon="-2.85384">
        <ele>3.5</ele>
        <time>2025-01-28T12:54:27Z</time>
      </trkpt>
      <trkpt lat="47.61927" lon="-2.85386">
        <ele>3.4</ele>
        <time>2025-01-28T12:54:28Z</time>
      </trkpt>
      <trkpt lat="47.61927" lon="-2.85387">
        <ele>3.4</ele>
        <time>2025-01-28T12:54:29Z</time>
      </trkpt>
      <trkpt lat="47.61926" lon="-2.85389">
        <ele>3.4</ele>
        <time>2025-01-28T12:54:30Z</time>
      </trkpt>
      <trkpt lat="47.61926" lon="-2.8539">
        <ele>3.4</ele>
        <time>2025-01-28T12:54:31Z</time>
      </trkpt>
      <trkpt lat="47.61925" lon="-2.85392">
        <ele>3.4</ele>
        <time>2025-01-28T12:54:32Z</time>
      </trkpt>
      <trkpt lat="47.61925" lon="-2.85393">
        <ele>3.3</ele>
        <time>2025-01-28T12:54:33Z</time>
      </trkpt>
      <trkpt lat="47.61924" lon="-2.85394">
        <ele>3.3</ele>
        <time>2025-01-28T12:54:34Z</time>
      </trkpt>
      <trkpt lat="47.61923" lon="-2.85395">
        <ele>3.3</ele>
        <time>2025-01-28T12:54:35Z</time>
      </trkpt>
      <trkpt lat="47.61923" lon="-2.85396">
        <ele>3.3</ele>
        <time>2025-01-28T12:54:36Z</time>
      </trkpt>
      <trkpt lat="47.61922" lon="-2.85397">
        <ele>3.2</ele>
        <time>2025-01-28T12:54:37Z</time>
      </trkpt>
      <trkpt lat="47.61921" lon="-2.85397">
        <ele>3.1</ele>
        <time>2025-01-28T12:54:38Z</time>
      </trkpt>
      <trkpt lat="47.6192" lon="-2.85398">
        <ele>3.1</ele>
        <time>2025-01-28T12:54:39Z</time>
      </trkpt>
      <trkpt lat="47.6192" lon="-2.854">
        <ele>3.1</ele>
        <time>2025-01-28T12:54:40Z</time>
      </trkpt>
      <trkpt lat="47.61919" lon="-2.85401">
        <ele>3.1</ele>
        <time>2025-01-28T12:54:41Z</time>
      </trkpt>
      <trkpt lat="47.61918" lon="-2.85403">
        <ele>3.1</ele>
        <time>2025-01-28T12:54:42Z</time>
      </trkpt>
      <trkpt lat="47.61917" lon="-2.85404">
        <ele>3.2</ele>
        <time>2025-01-28T12:54:43Z</time>
      </trkpt>
      <trkpt lat="47.61916" lon="-2.85406">
        <ele>3.2</ele>
        <time>2025-01-28T12:54:44Z</time>
      </trkpt>
      <trkpt lat="47.61916" lon="-2.85407">
        <ele>3.3</ele>
        <time>2025-01-28T12:54:45Z</time>
      </trkpt>
      <trkpt lat="47.61916" lon="-2.85408">
        <ele>3.3</ele>
        <time>2025-01-28T12:54:46Z</time>
      </trkpt>
      <trkpt lat="47.61916" lon="-2.8541">
        <ele>3.4</ele>
        <time>2025-01-28T12:54:47Z</time>
      </trkpt>
      <trkpt lat="47.61915" lon="-2.85411">
        <ele>3.5</ele>
        <time>2025-01-28T12:54:48Z</time>
      </trkpt>
      <trkpt lat="47.61916" lon="-2.85414">
        <ele>3.7</ele>
        <time>2025-01-28T12:54:49Z</time>
      </trkpt>
      <trkpt lat="47.61916" lon="-2.85415">
        <ele>3.8</ele>
        <time>2025-01-28T12:54:50Z</time>
      </trkpt>
      <trkpt lat="47.61916" lon="-2.85417">
        <ele>3.9</ele>
        <time>2025-01-28T12:54:51Z</time>
      </trkpt>
      <trkpt lat="47.61916" lon="-2.85418">
        <ele>3.9</ele>
        <time>2025-01-28T12:54:52Z</time>
      </trkpt>
      <trkpt lat="47.61916" lon="-2.8542">
        <ele>4</ele>
        <time>2025-01-28T12:54:53Z</time>
      </trkpt>
      <trkpt lat="47.61915" lon="-2.85421">
        <ele>4</ele>
        <time>2025-01-28T12:54:54Z</time>
      </trkpt>
      <trkpt lat="47.61915" lon="-2.85423">
        <ele>4.1</ele>
        <time>2025-01-28T12:54:55Z</time>
      </trkpt>
      <trkpt lat="47.61916" lon="-2.85424">
        <ele>4.2</ele>
        <time>2025-01-28T12:54:56Z</time>
      </trkpt>
      <trkpt lat="47.61916" lon="-2.85425">
        <ele>4.2</ele>
        <time>2025-01-28T12:54:57Z</time>
      </trkpt>
      <trkpt lat="47.61916" lon="-2.85425">
        <ele>4.3</ele>
        <time>2025-01-28T12:54:58Z</time>
      </trkpt>
      <trkpt lat="47.61917" lon="-2.85425">
        <ele>4.3</ele>
        <time>2025-01-28T12:54:59Z</time>
      </trkpt>
      <trkpt lat="47.61918" lon="-2.85425">
        <ele>4.4</ele>
        <time>2025-01-28T12:55:00Z</time>
      </trkpt>
      <trkpt lat="47.61919" lon="-2.85426">
        <ele>4.5</ele>
        <time>2025-01-28T12:55:01Z</time>
      </trkpt>
      <trkpt lat="47.6192" lon="-2.85427">
        <ele>4.6</ele>
        <time>2025-01-28T12:55:02Z</time>
      </trkpt>
      <trkpt lat="47.6192" lon="-2.85428">
        <ele>4.6</ele>
        <time>2025-01-28T12:55:03Z</time>
      </trkpt>
      <trkpt lat="47.6192" lon="-2.8543">
        <ele>4.7</ele>
        <time>2025-01-28T12:55:04Z</time>
      </trkpt>
      <trkpt lat="47.6192" lon="-2.85431">
        <ele>4.7</ele>
        <time>2025-01-28T12:55:05Z</time>
      </trkpt>
      <trkpt lat="47.6192" lon="-2.85433">
        <ele>4.8</ele>
        <time>2025-01-28T12:55:06Z</time>
      </trkpt>
      <trkpt lat="47.61919" lon="-2.85434">
        <ele>4.8</ele>
        <time>2025-01-28T12:55:07Z</time>
      </trkpt>
      <trkpt lat="47.61918" lon="-2.85436">
        <ele>4.8</ele>
        <time>2025-01-28T12:55:08Z</time>
      </trkpt>
      <trkpt lat="47.61918" lon="-2.85438">
        <ele>4.8</ele>
        <time>2025-01-28T12:55:09Z</time>
      </trkpt>
      <trkpt lat="47.61917" lon="-2.85439">
        <ele>4.8</ele>
        <time>2025-01-28T12:55:10Z</time>
      </trkpt>
      <trkpt lat="47.61917" lon="-2.85441">
        <ele>4.9</ele>
        <time>2025-01-28T12:55:11Z</time>
      </trkpt>
      <trkpt lat="47.61918" lon="-2.85443">
        <ele>5</ele>
        <time>2025-01-28T12:55:12Z</time>
      </trkpt>
      <trkpt lat="47.61918" lon="-2.85444">
        <ele>5.1</ele>
        <time>2025-01-28T12:55:13Z</time>
      </trkpt>
      <trkpt lat="47.61918" lon="-2.85446">
        <ele>5.1</ele>
        <time>2025-01-28T12:55:14Z</time>
      </trkpt>
      <trkpt lat="47.61919" lon="-2.85448">
        <ele>5.1</ele>
        <time>2025-01-28T12:55:15Z</time>
      </trkpt>
      <trkpt lat="47.61918" lon="-2.85449">
        <ele>5.1</ele>
        <time>2025-01-28T12:55:16Z</time>
      </trkpt>
      <trkpt lat="47.61918" lon="-2.8545">
        <ele>5.1</ele>
        <time>2025-01-28T12:55:17Z</time>
      </trkpt>
      <trkpt lat="47.61918" lon="-2.85452">
        <ele>5.1</ele>
        <time>2025-01-28T12:55:18Z</time>
      </trkpt>
      <trkpt lat="47.61918" lon="-2.85454">
        <ele>5.1</ele>
        <time>2025-01-28T12:55:19Z</time>
      </trkpt>
      <trkpt lat="47.61918" lon="-2.85455">
        <ele>5.1</ele>
        <time>2025-01-28T12:55:20Z</time>
      </trkpt>
      <trkpt lat="47.61918" lon="-2.85458">
        <ele>5.1</ele>
        <time>2025-01-28T12:55:21Z</time>
      </trkpt>
      <trkpt lat="47.61918" lon="-2.8546">
        <ele>5.1</ele>
        <time>2025-01-28T12:55:22Z</time>
      </trkpt>
      <trkpt lat="47.61918" lon="-2.85462">
        <ele>5.1</ele>
        <time>2025-01-28T12:55:23Z</time>
      </trkpt>
      <trkpt lat="47.61918" lon="-2.85464">
        <ele>5.1</ele>
        <time>2025-01-28T12:55:24Z</time>
      </trkpt>
      <trkpt lat="47.61918" lon="-2.85465">
        <ele>5.1</ele>
        <time>2025-01-28T12:55:25Z</time>
      </trkpt>
      <trkpt lat="47.61918" lon="-2.85467">
        <ele>5.1</ele>
        <time>2025-01-28T12:55:26Z</time>
      </trkpt>
      <trkpt lat="47.61917" lon="-2.85469">
        <ele>5</ele>
        <time>2025-01-28T12:55:27Z</time>
      </trkpt>
      <trkpt lat="47.61916" lon="-2.85471">
        <ele>5</ele>
        <time>2025-01-28T12:55:28Z</time>
      </trkpt>
      <trkpt lat="47.61916" lon="-2.85472">
        <ele>5</ele>
        <time>2025-01-28T12:55:29Z</time>
      </trkpt>
      <trkpt lat="47.61914" lon="-2.85472">
        <ele>5</ele>
        <time>2025-01-28T12:55:30Z</time>
      </trkpt>
      <trkpt lat="47.61914" lon="-2.85472">
        <ele>5</ele>
        <time>2025-01-28T12:55:31Z</time>
      </trkpt>
      <trkpt lat="47.61914" lon="-2.85471">
        <ele>5</ele>
        <time>2025-01-28T12:55:32Z</time>
      </trkpt>
      <trkpt lat="47.61914" lon="-2.85471">
        <ele>5</ele>
        <time>2025-01-28T12:55:33Z</time>
      </trkpt>
      <trkpt lat="47.61914" lon="-2.85471">
        <ele>5</ele>
        <time>2025-01-28T12:55:34Z</time>
      </trkpt>
      <trkpt lat="47.61915" lon="-2.85471">
        <ele>5</ele>
        <time>2025-01-28T12:55:35Z</time>
      </trkpt>
      <trkpt lat="47.61915" lon="-2.85472">
        <ele>5</ele>
        <time>2025-01-28T12:55:36Z</time>
      </trkpt>
      <trkpt lat="47.61915" lon="-2.85473">
        <ele>5</ele>
        <time>2025-01-28T12:55:37Z</time>
      </trkpt>
      <trkpt lat="47.61916" lon="-2.85475">
        <ele>5</ele>
        <time>2025-01-28T12:55:38Z</time>
      </trkpt>
      <trkpt lat="47.61917" lon="-2.85476">
        <ele>5</ele>
        <time>2025-01-28T12:55:39Z</time>
      </trkpt>
      <trkpt lat="47.61917" lon="-2.85478">
        <ele>5</ele>
        <time>2025-01-28T12:55:40Z</time>
      </trkpt>
      <trkpt lat="47.61918" lon="-2.85479">
        <ele>5.1</ele>
        <time>2025-01-28T12:55:41Z</time>
      </trkpt>
      <trkpt lat="47.61919" lon="-2.8548">
        <ele>5.1</ele>
        <time>2025-01-28T12:55:42Z</time>
      </trkpt>
      <trkpt lat="47.6192" lon="-2.8548">
        <ele>5.2</ele>
        <time>2025-01-28T12:55:43Z</time>
      </trkpt>
      <trkpt lat="47.61921" lon="-2.8548">
        <ele>5.2</ele>
        <time>2025-01-28T12:55:44Z</time>
      </trkpt>
      <trkpt lat="47.61922" lon="-2.85481">
        <ele>5.3</ele>
        <time>2025-01-28T12:55:45Z</time>
      </trkpt>
      <trkpt lat="47.61923" lon="-2.85482">
        <ele>5.3</ele>
        <time>2025-01-28T12:55:46Z</time>
      </trkpt>
      <trkpt lat="47.61923" lon="-2.85483">
        <ele>5.3</ele>
        <time>2025-01-28T12:55:47Z</time>
      </trkpt>
      <trkpt lat="47.61924" lon="-2.85484">
        <ele>5.3</ele>
        <time>2025-01-28T12:55:48Z</time>
      </trkpt>
      <trkpt lat="47.61924" lon="-2.85485">
        <ele>5.3</ele>
        <time>2025-01-28T12:55:49Z</time>
      </trkpt>
      <trkpt lat="47.61925" lon="-2.85486">
        <ele>5.3</ele>
        <time>2025-01-28T12:55:50Z</time>
      </trkpt>
      <trkpt lat="47.61925" lon="-2.85487">
        <ele>5.3</ele>
        <time>2025-01-28T12:55:51Z</time>
      </trkpt>
      <trkpt lat="47.61926" lon="-2.85487">
        <ele>5.3</ele>
        <time>2025-01-28T12:55:52Z</time>
      </trkpt>
      <trkpt lat="47.61924" lon="-2.85486">
        <ele>5.3</ele>
        <time>2025-01-28T12:55:53Z</time>
      </trkpt>
      <trkpt lat="47.61924" lon="-2.85485">
        <ele>5.3</ele>
        <time>2025-01-28T12:55:54Z</time>
      </trkpt>
      <trkpt lat="47.61924" lon="-2.85485">
        <ele>5.3</ele>
        <time>2025-01-28T12:55:55Z</time>
      </trkpt>
      <trkpt lat="47.61923" lon="-2.85485">
        <ele>5.3</ele>
        <time>2025-01-28T12:55:56Z</time>
      </trkpt>
      <trkpt lat="47.61925" lon="-2.85486">
        <ele>5.3</ele>
        <time>2025-01-28T12:55:57Z</time>
      </trkpt>
      <trkpt lat="47.61925" lon="-2.85488">
        <ele>5.3</ele>
        <time>2025-01-28T12:55:58Z</time>
      </trkpt>
      <trkpt lat="47.61925" lon="-2.85489">
        <ele>5.2</ele>
        <time>2025-01-28T12:55:59Z</time>
      </trkpt>
      <trkpt lat="47.61925" lon="-2.85489">
        <ele>5.2</ele>
        <time>2025-01-28T12:56:00Z</time>
      </trkpt>
      <trkpt lat="47.61925" lon="-2.85489">
        <ele>5.2</ele>
        <time>2025-01-28T12:56:01Z</time>
      </trkpt>
      <trkpt lat="47.61925" lon="-2.85489">
        <ele>5.2</ele>
        <time>2025-01-28T12:56:02Z</time>
      </trkpt>
      <trkpt lat="47.61925" lon="-2.85489">
        <ele>5.2</ele>
        <time>2025-01-28T12:56:03Z</time>
      </trkpt>
      <trkpt lat="47.61925" lon="-2.85489">
        <ele>5.2</ele>
        <time>2025-01-28T12:56:04Z</time>
      </trkpt>
      <trkpt lat="47.61925" lon="-2.85489">
        <ele>5.2</ele>
        <time>2025-01-28T12:56:05Z</time>
      </trkpt>
      <trkpt lat="47.61925" lon="-2.85489">
        <ele>5.2</ele>
        <time>2025-01-28T12:56:06Z</time>
      </trkpt>
      <trkpt lat="47.61925" lon="-2.85489">
        <ele>5.2</ele>
        <time>2025-01-28T12:56:07Z</time>
      </trkpt>
      <trkpt lat="47.61925" lon="-2.85489">
        <ele>5.2</ele>
        <time>2025-01-28T12:56:08Z</time>
      </trkpt>
      <trkpt lat="47.61925" lon="-2.85489">
        <ele>5.2</ele>
        <time>2025-01-28T12:56:09Z</time>
      </trkpt>
      <trkpt lat="47.61925" lon="-2.85488">
        <ele>5.3</ele>
        <time>2025-01-28T12:56:10Z</time>
      </trkpt>
      <trkpt lat="47.61925" lon="-2.85488">
        <ele>5.3</ele>
        <time>2025-01-28T12:56:11Z</time>
      </trkpt>
      <trkpt lat="47.61925" lon="-2.85488">
        <ele>5.3</ele>
        <time>2025-01-28T12:56:12Z</time>
      </trkpt>
      <trkpt lat="47.61925" lon="-2.85488">
        <ele>5.3</ele>
        <time>2025-01-28T12:56:13Z</time>
      </trkpt>
      <trkpt lat="47.61925" lon="-2.85488">
        <ele>5.3</ele>
        <time>2025-01-28T12:56:14Z</time>
      </trkpt>
      <trkpt lat="47.61925" lon="-2.85488">
        <ele>5.3</ele>
        <time>2025-01-28T12:56:15Z</time>
      </trkpt>
      <trkpt lat="47.61925" lon="-2.85488">
        <ele>5.3</ele>
        <time>2025-01-28T12:56:16Z</time>
      </trkpt>
      <trkpt lat="47.61925" lon="-2.85488">
        <ele>5.3</ele>
        <time>2025-01-28T12:56:17Z</time>
      </trkpt>
      <trkpt lat="47.61925" lon="-2.85488">
        <ele>5.3</ele>
        <time>2025-01-28T12:56:18Z</time>
      </trkpt>
      <trkpt lat="47.61925" lon="-2.85488">
        <ele>5.3</ele>
        <time>2025-01-28T12:56:19Z</time>
      </trkpt>
      <trkpt lat="47.61925" lon="-2.85488">
        <ele>5.3</ele>
        <time>2025-01-28T12:56:20Z</time>
      </trkpt>
      <trkpt lat="47.61925" lon="-2.85488">
        <ele>5.3</ele>
        <time>2025-01-28T12:56:21Z</time>
      </trkpt>
      <trkpt lat="47.61925" lon="-2.85488">
        <ele>5.3</ele>
        <time>2025-01-28T12:56:22Z</time>
      </trkpt>
      <trkpt lat="47.61925" lon="-2.85488">
        <ele>5.3</ele>
        <time>2025-01-28T12:56:23Z</time>
      </trkpt>
      <trkpt lat="47.61925" lon="-2.85488">
        <ele>5.3</ele>
        <time>2025-01-28T12:56:24Z</time>
      </trkpt>
      <trkpt lat="47.61925" lon="-2.85488">
        <ele>5.3</ele>
        <time>2025-01-28T12:56:25Z</time>
      </trkpt>
      <trkpt lat="47.61925" lon="-2.85488">
        <ele>5.3</ele>
        <time>2025-01-28T12:56:26Z</time>
      </trkpt>
      <trkpt lat="47.61925" lon="-2.85488">
        <ele>5.3</ele>
        <time>2025-01-28T12:56:27Z</time>
      </trkpt>
      <trkpt lat="47.61925" lon="-2.85488">
        <ele>5.3</ele>
        <time>2025-01-28T12:56:28Z</time>
      </trkpt>
      <trkpt lat="47.61925" lon="-2.85488">
        <ele>5.3</ele>
        <time>2025-01-28T12:56:29Z</time>
      </trkpt>
      <trkpt lat="47.61925" lon="-2.85488">
        <ele>5.3</ele>
        <time>2025-01-28T12:56:30Z</time>
      </trkpt>
      <trkpt lat="47.61925" lon="-2.85488">
        <ele>5.3</ele>
        <time>2025-01-28T12:56:31Z</time>
      </trkpt>
      <trkpt lat="47.61925" lon="-2.85488">
        <ele>5.3</ele>
        <time>2025-01-28T12:56:32Z</time>
      </trkpt>
      <trkpt lat="47.61926" lon="-2.85487">
        <ele>5.3</ele>
        <time>2025-01-28T12:56:33Z</time>
      </trkpt>
      <trkpt lat="47.61925" lon="-2.85487">
        <ele>5.3</ele>
        <time>2025-01-28T12:56:34Z</time>
      </trkpt>
      <trkpt lat="47.61924" lon="-2.85488">
        <ele>5.2</ele>
        <time>2025-01-28T12:56:35Z</time>
      </trkpt>
      <trkpt lat="47.61924" lon="-2.85488">
        <ele>5.2</ele>
        <time>2025-01-28T12:56:36Z</time>
      </trkpt>
      <trkpt lat="47.61924" lon="-2.85489">
        <ele>5.2</ele>
        <time>2025-01-28T12:56:37Z</time>
      </trkpt>
      <trkpt lat="47.61923" lon="-2.85489">
        <ele>5.2</ele>
        <time>2025-01-28T12:56:38Z</time>
      </trkpt>
      <trkpt lat="47.61922" lon="-2.8549">
        <ele>5.1</ele>
        <time>2025-01-28T12:56:39Z</time>
      </trkpt>
      <trkpt lat="47.61922" lon="-2.85491">
        <ele>5.1</ele>
        <time>2025-01-28T12:56:40Z</time>
      </trkpt>
      <trkpt lat="47.61921" lon="-2.85493">
        <ele>5.1</ele>
        <time>2025-01-28T12:56:41Z</time>
      </trkpt>
      <trkpt lat="47.6192" lon="-2.85496">
        <ele>5</ele>
        <time>2025-01-28T12:56:42Z</time>
      </trkpt>
      <trkpt lat="47.6192" lon="-2.85497">
        <ele>5</ele>
        <time>2025-01-28T12:56:43Z</time>
      </trkpt>
      <trkpt lat="47.61919" lon="-2.85499">
        <ele>5</ele>
        <time>2025-01-28T12:56:44Z</time>
      </trkpt>
      <trkpt lat="47.61919" lon="-2.85501">
        <ele>4.9</ele>
        <time>2025-01-28T12:56:45Z</time>
      </trkpt>
      <trkpt lat="47.6192" lon="-2.85503">
        <ele>4.8</ele>
        <time>2025-01-28T12:56:46Z</time>
      </trkpt>
      <trkpt lat="47.6192" lon="-2.85504">
        <ele>4.7</ele>
        <time>2025-01-28T12:56:47Z</time>
      </trkpt>
      <trkpt lat="47.61919" lon="-2.85506">
        <ele>4.6</ele>
        <time>2025-01-28T12:56:48Z</time>
      </trkpt>
      <trkpt lat="47.61919" lon="-2.85507">
        <ele>4.5</ele>
        <time>2025-01-28T12:56:49Z</time>
      </trkpt>
      <trkpt lat="47.61919" lon="-2.85508">
        <ele>4.4</ele>
        <time>2025-01-28T12:56:50Z</time>
      </trkpt>
      <trkpt lat="47.61919" lon="-2.8551">
        <ele>4.3</ele>
        <time>2025-01-28T12:56:51Z</time>
      </trkpt>
      <trkpt lat="47.61918" lon="-2.85512">
        <ele>4.2</ele>
        <time>2025-01-28T12:56:52Z</time>
      </trkpt>
      <trkpt lat="47.61918" lon="-2.85513">
        <ele>4.1</ele>
        <time>2025-01-28T12:56:53Z</time>
      </trkpt>
      <trkpt lat="47.61917" lon="-2.85514">
        <ele>4</ele>
        <time>2025-01-28T12:56:54Z</time>
      </trkpt>
      <trkpt lat="47.61916" lon="-2.85515">
        <ele>3.9</ele>
        <time>2025-01-28T12:56:55Z</time>
      </trkpt>
      <trkpt lat="47.61916" lon="-2.85516">
        <ele>3.8</ele>
        <time>2025-01-28T12:56:56Z</time>
      </trkpt>
      <trkpt lat="47.61915" lon="-2.85516">
        <ele>3.8</ele>
        <time>2025-01-28T12:56:57Z</time>
      </trkpt>
      <trkpt lat="47.61916" lon="-2.85512">
        <ele>4.2</ele>
        <time>2025-01-28T12:56:58Z</time>
      </trkpt>
      <trkpt lat="47.61916" lon="-2.85511">
        <ele>4.2</ele>
        <time>2025-01-28T12:56:59Z</time>
      </trkpt>
      <trkpt lat="47.61916" lon="-2.8551">
        <ele>4.3</ele>
        <time>2025-01-28T12:57:00Z</time>
      </trkpt>
      <trkpt lat="47.61916" lon="-2.85511">
        <ele>4.2</ele>
        <time>2025-01-28T12:57:01Z</time>
      </trkpt>
      <trkpt lat="47.61916" lon="-2.85512">
        <ele>4.1</ele>
        <time>2025-01-28T12:57:02Z</time>
      </trkpt>
      <trkpt lat="47.61916" lon="-2.85513">
        <ele>4.1</ele>
        <time>2025-01-28T12:57:03Z</time>
      </trkpt>
      <trkpt lat="47.61917" lon="-2.85513">
        <ele>4.1</ele>
        <time>2025-01-28T12:57:04Z</time>
      </trkpt>
      <trkpt lat="47.61918" lon="-2.85512">
        <ele>4.2</ele>
        <time>2025-01-28T12:57:05Z</time>
      </trkpt>
      <trkpt lat="47.61919" lon="-2.85511">
        <ele>4.2</ele>
        <time>2025-01-28T12:57:06Z</time>
      </trkpt>
      <trkpt lat="47.61919" lon="-2.85512">
        <ele>4.2</ele>
        <time>2025-01-28T12:57:07Z</time>
      </trkpt>
      <trkpt lat="47.61919" lon="-2.85514">
        <ele>4</ele>
        <time>2025-01-28T12:57:08Z</time>
      </trkpt>
      <trkpt lat="47.61918" lon="-2.85515">
        <ele>3.9</ele>
        <time>2025-01-28T12:57:09Z</time>
      </trkpt>
      <trkpt lat="47.61918" lon="-2.85516">
        <ele>3.9</ele>
        <time>2025-01-28T12:57:10Z</time>
      </trkpt>
      <trkpt lat="47.61918" lon="-2.85517">
        <ele>3.8</ele>
        <time>2025-01-28T12:57:11Z</time>
      </trkpt>
      <trkpt lat="47.61917" lon="-2.85519">
        <ele>3.7</ele>
        <time>2025-01-28T12:57:12Z</time>
      </trkpt>
      <trkpt lat="47.61917" lon="-2.85519">
        <ele>3.6</ele>
        <time>2025-01-28T12:57:13Z</time>
      </trkpt>
      <trkpt lat="47.61917" lon="-2.85519">
        <ele>3.6</ele>
        <time>2025-01-28T12:57:14Z</time>
      </trkpt>
      <trkpt lat="47.61917" lon="-2.85519">
        <ele>3.6</ele>
        <time>2025-01-28T12:57:15Z</time>
      </trkpt>
      <trkpt lat="47.61918" lon="-2.85519">
        <ele>3.6</ele>
        <time>2025-01-28T12:57:16Z</time>
      </trkpt>
      <trkpt lat="47.61918" lon="-2.85519">
        <ele>3.7</ele>
        <time>2025-01-28T12:57:17Z</time>
      </trkpt>
      <trkpt lat="47.61918" lon="-2.85519">
        <ele>3.7</ele>
        <time>2025-01-28T12:57:18Z</time>
      </trkpt>
      <trkpt lat="47.61918" lon="-2.85519">
        <ele>3.7</ele>
        <time>2025-01-28T12:57:19Z</time>
      </trkpt>
      <trkpt lat="47.61918" lon="-2.85519">
        <ele>3.7</ele>
        <time>2025-01-28T12:57:20Z</time>
      </trkpt>
      <trkpt lat="47.61918" lon="-2.85519">
        <ele>3.7</ele>
        <time>2025-01-28T12:57:21Z</time>
      </trkpt>
      <trkpt lat="47.61918" lon="-2.85518">
        <ele>3.7</ele>
        <time>2025-01-28T12:57:22Z</time>
      </trkpt>
      <trkpt lat="47.61918" lon="-2.85516">
        <ele>3.8</ele>
        <time>2025-01-28T12:57:23Z</time>
      </trkpt>
      <trkpt lat="47.61918" lon="-2.85515">
        <ele>4</ele>
        <time>2025-01-28T12:57:24Z</time>
      </trkpt>
      <trkpt lat="47.61918" lon="-2.85513">
        <ele>4.1</ele>
        <time>2025-01-28T12:57:25Z</time>
      </trkpt>
      <trkpt lat="47.61918" lon="-2.85511">
        <ele>4.2</ele>
        <time>2025-01-28T12:57:26Z</time>
      </trkpt>
      <trkpt lat="47.61919" lon="-2.85509">
        <ele>4.4</ele>
        <time>2025-01-28T12:57:27Z</time>
      </trkpt>
      <trkpt lat="47.61919" lon="-2.85507">
        <ele>4.5</ele>
        <time>2025-01-28T12:57:28Z</time>
      </trkpt>
      <trkpt lat="47.61919" lon="-2.85506">
        <ele>4.6</ele>
        <time>2025-01-28T12:57:29Z</time>
      </trkpt>
      <trkpt lat="47.61919" lon="-2.85505">
        <ele>4.6</ele>
        <time>2025-01-28T12:57:30Z</time>
      </trkpt>
      <trkpt lat="47.6192" lon="-2.85504">
        <ele>4.7</ele>
        <time>2025-01-28T12:57:31Z</time>
      </trkpt>
      <trkpt lat="47.6192" lon="-2.85503">
        <ele>4.8</ele>
        <time>2025-01-28T12:57:32Z</time>
      </trkpt>
      <trkpt lat="47.6192" lon="-2.85501">
        <ele>4.9</ele>
        <time>2025-01-28T12:57:33Z</time>
      </trkpt>
      <trkpt lat="47.61919" lon="-2.855">
        <ele>5</ele>
        <time>2025-01-28T12:57:34Z</time>
      </trkpt>
      <trkpt lat="47.61919" lon="-2.85499">
        <ele>5</ele>
        <time>2025-01-28T12:57:35Z</time>
      </trkpt>
      <trkpt lat="47.61919" lon="-2.85497">
        <ele>5</ele>
        <time>2025-01-28T12:57:36Z</time>
      </trkpt>
      <trkpt lat="47.6192" lon="-2.85496">
        <ele>5</ele>
        <time>2025-01-28T12:57:37Z</time>
      </trkpt>
      <trkpt lat="47.61921" lon="-2.85495">
        <ele>5.1</ele>
        <time>2025-01-28T12:57:38Z</time>
      </trkpt>
      <trkpt lat="47.61922" lon="-2.85494">
        <ele>5.1</ele>
        <time>2025-01-28T12:57:39Z</time>
      </trkpt>
      <trkpt lat="47.61922" lon="-2.85492">
        <ele>5.1</ele>
        <time>2025-01-28T12:57:40Z</time>
      </trkpt>
      <trkpt lat="47.61923" lon="-2.85491">
        <ele>5.1</ele>
        <time>2025-01-28T12:57:41Z</time>
      </trkpt>
      <trkpt lat="47.61923" lon="-2.85489">
        <ele>5.2</ele>
        <time>2025-01-28T12:57:42Z</time>
      </trkpt>
      <trkpt lat="47.61924" lon="-2.85488">
        <ele>5.2</ele>
        <time>2025-01-28T12:57:43Z</time>
      </trkpt>
      <trkpt lat="47.61924" lon="-2.85486">
        <ele>5.3</ele>
        <time>2025-01-28T12:57:44Z</time>
      </trkpt>
      <trkpt lat="47.61925" lon="-2.85486">
        <ele>5.3</ele>
        <time>2025-01-28T12:57:45Z</time>
      </trkpt>
      <trkpt lat="47.61926" lon="-2.85486">
        <ele>5.4</ele>
        <time>2025-01-28T12:57:46Z</time>
      </trkpt>
      <trkpt lat="47.61927" lon="-2.85486">
        <ele>5.4</ele>
        <time>2025-01-28T12:57:47Z</time>
      </trkpt>
      <trkpt lat="47.61928" lon="-2.85487">
        <ele>5.4</ele>
        <time>2025-01-28T12:57:48Z</time>
      </trkpt>
      <trkpt lat="47.6193" lon="-2.85487">
        <ele>5.4</ele>
        <time>2025-01-28T12:57:49Z</time>
      </trkpt>
      <trkpt lat="47.61931" lon="-2.85488">
        <ele>5.5</ele>
        <time>2025-01-28T12:57:50Z</time>
      </trkpt>
      <trkpt lat="47.61931" lon="-2.85488">
        <ele>5.5</ele>
        <time>2025-01-28T12:57:51Z</time>
      </trkpt>
      <trkpt lat="47.61933" lon="-2.85488">
        <ele>5.5</ele>
        <time>2025-01-28T12:57:52Z</time>
      </trkpt>
      <trkpt lat="47.61934" lon="-2.85488">
        <ele>5.5</ele>
        <time>2025-01-28T12:57:53Z</time>
      </trkpt>
      <trkpt lat="47.61935" lon="-2.85488">
        <ele>5.5</ele>
        <time>2025-01-28T12:57:54Z</time>
      </trkpt>
      <trkpt lat="47.61936" lon="-2.85488">
        <ele>5.6</ele>
        <time>2025-01-28T12:57:55Z</time>
      </trkpt>
      <trkpt lat="47.61937" lon="-2.85489">
        <ele>5.6</ele>
        <time>2025-01-28T12:57:56Z</time>
      </trkpt>
      <trkpt lat="47.61939" lon="-2.85489">
        <ele>5.6</ele>
        <time>2025-01-28T12:57:57Z</time>
      </trkpt>
      <trkpt lat="47.6194" lon="-2.85489">
        <ele>5.7</ele>
        <time>2025-01-28T12:57:58Z</time>
      </trkpt>
      <trkpt lat="47.61941" lon="-2.85489">
        <ele>5.7</ele>
        <time>2025-01-28T12:57:59Z</time>
      </trkpt>
      <trkpt lat="47.61942" lon="-2.8549">
        <ele>5.7</ele>
        <time>2025-01-28T12:58:00Z</time>
      </trkpt>
      <trkpt lat="47.61943" lon="-2.8549">
        <ele>5.7</ele>
        <time>2025-01-28T12:58:01Z</time>
      </trkpt>
      <trkpt lat="47.61944" lon="-2.8549">
        <ele>5.7</ele>
        <time>2025-01-28T12:58:02Z</time>
      </trkpt>
      <trkpt lat="47.61945" lon="-2.85489">
        <ele>5.7</ele>
        <time>2025-01-28T12:58:03Z</time>
      </trkpt>
      <trkpt lat="47.61947" lon="-2.85489">
        <ele>5.7</ele>
        <time>2025-01-28T12:58:04Z</time>
      </trkpt>
      <trkpt lat="47.61948" lon="-2.85489">
        <ele>5.7</ele>
        <time>2025-01-28T12:58:05Z</time>
      </trkpt>
      <trkpt lat="47.61949" lon="-2.85489">
        <ele>5.6</ele>
        <time>2025-01-28T12:58:06Z</time>
      </trkpt>
      <trkpt lat="47.61951" lon="-2.85489">
        <ele>5.5</ele>
        <time>2025-01-28T12:58:07Z</time>
      </trkpt>
      <trkpt lat="47.61952" lon="-2.85489">
        <ele>5.5</ele>
        <time>2025-01-28T12:58:08Z</time>
      </trkpt>
      <trkpt lat="47.61953" lon="-2.85489">
        <ele>5.4</ele>
        <time>2025-01-28T12:58:09Z</time>
      </trkpt>
      <trkpt lat="47.61955" lon="-2.85489">
        <ele>5.4</ele>
        <time>2025-01-28T12:58:10Z</time>
      </trkpt>
      <trkpt lat="47.61956" lon="-2.85489">
        <ele>5.3</ele>
        <time>2025-01-28T12:58:11Z</time>
      </trkpt>
      <trkpt lat="47.61958" lon="-2.8549">
        <ele>5.2</ele>
        <time>2025-01-28T12:58:12Z</time>
      </trkpt>
      <trkpt lat="47.6196" lon="-2.85491">
        <ele>5.1</ele>
        <time>2025-01-28T12:58:13Z</time>
      </trkpt>
      <trkpt lat="47.61961" lon="-2.85491">
        <ele>5.1</ele>
        <time>2025-01-28T12:58:14Z</time>
      </trkpt>
      <trkpt lat="47.61962" lon="-2.85491">
        <ele>5</ele>
        <time>2025-01-28T12:58:15Z</time>
      </trkpt>
      <trkpt lat="47.61964" lon="-2.85491">
        <ele>5</ele>
        <time>2025-01-28T12:58:16Z</time>
      </trkpt>
      <trkpt lat="47.61965" lon="-2.8549">
        <ele>4.9</ele>
        <time>2025-01-28T12:58:17Z</time>
      </trkpt>
      <trkpt lat="47.61967" lon="-2.8549">
        <ele>4.9</ele>
        <time>2025-01-28T12:58:18Z</time>
      </trkpt>
      <trkpt lat="47.61968" lon="-2.8549">
        <ele>4.8</ele>
        <time>2025-01-28T12:58:19Z</time>
      </trkpt>
      <trkpt lat="47.6197" lon="-2.85491">
        <ele>4.8</ele>
        <time>2025-01-28T12:58:20Z</time>
      </trkpt>
      <trkpt lat="47.61971" lon="-2.85491">
        <ele>4.7</ele>
        <time>2025-01-28T12:58:21Z</time>
      </trkpt>
      <trkpt lat="47.61972" lon="-2.85491">
        <ele>4.7</ele>
        <time>2025-01-28T12:58:22Z</time>
      </trkpt>
      <trkpt lat="47.61973" lon="-2.85491">
        <ele>4.7</ele>
        <time>2025-01-28T12:58:23Z</time>
      </trkpt>
      <trkpt lat="47.61974" lon="-2.8549">
        <ele>4.6</ele>
        <time>2025-01-28T12:58:24Z</time>
      </trkpt>
      <trkpt lat="47.61975" lon="-2.8549">
        <ele>4.6</ele>
        <time>2025-01-28T12:58:25Z</time>
      </trkpt>
      <trkpt lat="47.61976" lon="-2.8549">
        <ele>4.6</ele>
        <time>2025-01-28T12:58:26Z</time>
      </trkpt>
      <trkpt lat="47.61977" lon="-2.85489">
        <ele>4.6</ele>
        <time>2025-01-28T12:58:27Z</time>
      </trkpt>
      <trkpt lat="47.61979" lon="-2.8549">
        <ele>4.7</ele>
        <time>2025-01-28T12:58:28Z</time>
      </trkpt>
      <trkpt lat="47.6198" lon="-2.8549">
        <ele>4.7</ele>
        <time>2025-01-28T12:58:29Z</time>
      </trkpt>
      <trkpt lat="47.61981" lon="-2.85489">
        <ele>4.7</ele>
        <time>2025-01-28T12:58:30Z</time>
      </trkpt>
      <trkpt lat="47.61982" lon="-2.85488">
        <ele>4.7</ele>
        <time>2025-01-28T12:58:31Z</time>
      </trkpt>
      <trkpt lat="47.61983" lon="-2.85488">
        <ele>4.7</ele>
        <time>2025-01-28T12:58:32Z</time>
      </trkpt>
      <trkpt lat="47.61984" lon="-2.85487">
        <ele>4.7</ele>
        <time>2025-01-28T12:58:33Z</time>
      </trkpt>
      <trkpt lat="47.61985" lon="-2.85487">
        <ele>4.7</ele>
        <time>2025-01-28T12:58:34Z</time>
      </trkpt>
      <trkpt lat="47.61986" lon="-2.85487">
        <ele>4.7</ele>
        <time>2025-01-28T12:58:35Z</time>
      </trkpt>
      <trkpt lat="47.61987" lon="-2.85486">
        <ele>4.8</ele>
        <time>2025-01-28T12:58:36Z</time>
      </trkpt>
      <trkpt lat="47.61988" lon="-2.85486">
        <ele>4.8</ele>
        <time>2025-01-28T12:58:37Z</time>
      </trkpt>
      <trkpt lat="47.61989" lon="-2.85485">
        <ele>4.8</ele>
        <time>2025-01-28T12:58:38Z</time>
      </trkpt>
      <trkpt lat="47.6199" lon="-2.85485">
        <ele>4.8</ele>
        <time>2025-01-28T12:58:39Z</time>
      </trkpt>
      <trkpt lat="47.61991" lon="-2.85485">
        <ele>4.9</ele>
        <time>2025-01-28T12:58:40Z</time>
      </trkpt>
      <trkpt lat="47.61992" lon="-2.85485">
        <ele>4.9</ele>
        <time>2025-01-28T12:58:41Z</time>
      </trkpt>
      <trkpt lat="47.61993" lon="-2.85484">
        <ele>4.9</ele>
        <time>2025-01-28T12:58:42Z</time>
      </trkpt>
      <trkpt lat="47.61994" lon="-2.85484">
        <ele>5</ele>
        <time>2025-01-28T12:58:43Z</time>
      </trkpt>
      <trkpt lat="47.61995" lon="-2.85484">
        <ele>5</ele>
        <time>2025-01-28T12:58:44Z</time>
      </trkpt>
      <trkpt lat="47.61996" lon="-2.85484">
        <ele>5.1</ele>
        <time>2025-01-28T12:58:45Z</time>
      </trkpt>
      <trkpt lat="47.61998" lon="-2.85484">
        <ele>5.1</ele>
        <time>2025-01-28T12:58:46Z</time>
      </trkpt>
      <trkpt lat="47.61999" lon="-2.85484">
        <ele>5.1</ele>
        <time>2025-01-28T12:58:47Z</time>
      </trkpt>
      <trkpt lat="47.62" lon="-2.85484">
        <ele>5.1</ele>
        <time>2025-01-28T12:58:48Z</time>
      </trkpt>
      <trkpt lat="47.62001" lon="-2.85484">
        <ele>5.1</ele>
        <time>2025-01-28T12:58:49Z</time>
      </trkpt>
      <trkpt lat="47.62002" lon="-2.85483">
        <ele>5.1</ele>
        <time>2025-01-28T12:58:50Z</time>
      </trkpt>
      <trkpt lat="47.62003" lon="-2.85483">
        <ele>5</ele>
        <time>2025-01-28T12:58:51Z</time>
      </trkpt>
      <trkpt lat="47.62005" lon="-2.85484">
        <ele>5</ele>
        <time>2025-01-28T12:58:52Z</time>
      </trkpt>
      <trkpt lat="47.62006" lon="-2.85483">
        <ele>4.9</ele>
        <time>2025-01-28T12:58:53Z</time>
      </trkpt>
      <trkpt lat="47.62007" lon="-2.85483">
        <ele>4.9</ele>
        <time>2025-01-28T12:58:54Z</time>
      </trkpt>
      <trkpt lat="47.62009" lon="-2.85483">
        <ele>4.8</ele>
        <time>2025-01-28T12:58:55Z</time>
      </trkpt>
      <trkpt lat="47.6201" lon="-2.85483">
        <ele>4.7</ele>
        <time>2025-01-28T12:58:56Z</time>
      </trkpt>
      <trkpt lat="47.62012" lon="-2.85483">
        <ele>4.6</ele>
        <time>2025-01-28T12:58:57Z</time>
      </trkpt>
      <trkpt lat="47.62013" lon="-2.85483">
        <ele>4.5</ele>
        <time>2025-01-28T12:58:58Z</time>
      </trkpt>
      <trkpt lat="47.62015" lon="-2.85483">
        <ele>4.5</ele>
        <time>2025-01-28T12:58:59Z</time>
      </trkpt>
      <trkpt lat="47.62016" lon="-2.85484">
        <ele>4.4</ele>
        <time>2025-01-28T12:59:00Z</time>
      </trkpt>
      <trkpt lat="47.62017" lon="-2.85484">
        <ele>4.3</ele>
        <time>2025-01-28T12:59:01Z</time>
      </trkpt>
      <trkpt lat="47.62018" lon="-2.85485">
        <ele>4.2</ele>
        <time>2025-01-28T12:59:02Z</time>
      </trkpt>
      <trkpt lat="47.62019" lon="-2.85485">
        <ele>4</ele>
        <time>2025-01-28T12:59:03Z</time>
      </trkpt>
      <trkpt lat="47.6202" lon="-2.85486">
        <ele>3.9</ele>
        <time>2025-01-28T12:59:04Z</time>
      </trkpt>
      <trkpt lat="47.62021" lon="-2.85487">
        <ele>3.8</ele>
        <time>2025-01-28T12:59:05Z</time>
      </trkpt>
      <trkpt lat="47.62022" lon="-2.85487">
        <ele>3.7</ele>
        <time>2025-01-28T12:59:06Z</time>
      </trkpt>
      <trkpt lat="47.62023" lon="-2.85487">
        <ele>3.7</ele>
        <time>2025-01-28T12:59:07Z</time>
      </trkpt>
      <trkpt lat="47.62025" lon="-2.85487">
        <ele>3.6</ele>
        <time>2025-01-28T12:59:08Z</time>
      </trkpt>
      <trkpt lat="47.62026" lon="-2.85487">
        <ele>3.5</ele>
        <time>2025-01-28T12:59:09Z</time>
      </trkpt>
      <trkpt lat="47.62027" lon="-2.85487">
        <ele>3.4</ele>
        <time>2025-01-28T12:59:10Z</time>
      </trkpt>
      <trkpt lat="47.62029" lon="-2.85488">
        <ele>3.3</ele>
        <time>2025-01-28T12:59:11Z</time>
      </trkpt>
      <trkpt lat="47.62032" lon="-2.85489">
        <ele>3.2</ele>
        <time>2025-01-28T12:59:12Z</time>
      </trkpt>
      <trkpt lat="47.62034" lon="-2.85489">
        <ele>3.1</ele>
        <time>2025-01-28T12:59:13Z</time>
      </trkpt>
      <trkpt lat="47.62035" lon="-2.85488">
        <ele>3.1</ele>
        <time>2025-01-28T12:59:14Z</time>
      </trkpt>
      <trkpt lat="47.62036" lon="-2.85487">
        <ele>3.2</ele>
        <time>2025-01-28T12:59:15Z</time>
      </trkpt>
      <trkpt lat="47.62037" lon="-2.85487">
        <ele>3.2</ele>
        <time>2025-01-28T12:59:16Z</time>
      </trkpt>
      <trkpt lat="47.62038" lon="-2.85487">
        <ele>3.2</ele>
        <time>2025-01-28T12:59:17Z</time>
      </trkpt>
      <trkpt lat="47.62039" lon="-2.85486">
        <ele>3.3</ele>
        <time>2025-01-28T12:59:18Z</time>
      </trkpt>
      <trkpt lat="47.6204" lon="-2.85486">
        <ele>3.3</ele>
        <time>2025-01-28T12:59:19Z</time>
      </trkpt>
      <trkpt lat="47.62041" lon="-2.85486">
        <ele>3.2</ele>
        <time>2025-01-28T12:59:20Z</time>
      </trkpt>
      <trkpt lat="47.62042" lon="-2.85487">
        <ele>3.2</ele>
        <time>2025-01-28T12:59:21Z</time>
      </trkpt>
      <trkpt lat="47.62044" lon="-2.85486">
        <ele>3.2</ele>
        <time>2025-01-28T12:59:22Z</time>
      </trkpt>
      <trkpt lat="47.62045" lon="-2.85485">
        <ele>3.3</ele>
        <time>2025-01-28T12:59:23Z</time>
      </trkpt>
      <trkpt lat="47.62045" lon="-2.85484">
        <ele>3.4</ele>
        <time>2025-01-28T12:59:24Z</time>
      </trkpt>
      <trkpt lat="47.62046" lon="-2.85484">
        <ele>3.5</ele>
        <time>2025-01-28T12:59:25Z</time>
      </trkpt>
      <trkpt lat="47.62047" lon="-2.85483">
        <ele>3.5</ele>
        <time>2025-01-28T12:59:26Z</time>
      </trkpt>
      <trkpt lat="47.62048" lon="-2.85483">
        <ele>3.5</ele>
        <time>2025-01-28T12:59:27Z</time>
      </trkpt>
      <trkpt lat="47.62049" lon="-2.85484">
        <ele>3.4</ele>
        <time>2025-01-28T12:59:28Z</time>
      </trkpt>
      <trkpt lat="47.6205" lon="-2.85484">
        <ele>3.4</ele>
        <time>2025-01-28T12:59:29Z</time>
      </trkpt>
      <trkpt lat="47.62051" lon="-2.85484">
        <ele>3.3</ele>
        <time>2025-01-28T12:59:30Z</time>
      </trkpt>
      <trkpt lat="47.62052" lon="-2.85485">
        <ele>3.3</ele>
        <time>2025-01-28T12:59:31Z</time>
      </trkpt>
      <trkpt lat="47.62053" lon="-2.85485">
        <ele>3.3</ele>
        <time>2025-01-28T12:59:32Z</time>
      </trkpt>
      <trkpt lat="47.62055" lon="-2.85484">
        <ele>3.3</ele>
        <time>2025-01-28T12:59:33Z</time>
      </trkpt>
      <trkpt lat="47.62056" lon="-2.85484">
        <ele>3.3</ele>
        <time>2025-01-28T12:59:34Z</time>
      </trkpt>
      <trkpt lat="47.62057" lon="-2.85483">
        <ele>3.4</ele>
        <time>2025-01-28T12:59:35Z</time>
      </trkpt>
      <trkpt lat="47.62058" lon="-2.85482">
        <ele>3.4</ele>
        <time>2025-01-28T12:59:36Z</time>
      </trkpt>
      <trkpt lat="47.62059" lon="-2.85482">
        <ele>3.3</ele>
        <time>2025-01-28T12:59:37Z</time>
      </trkpt>
      <trkpt lat="47.6206" lon="-2.85481">
        <ele>3.3</ele>
        <time>2025-01-28T12:59:38Z</time>
      </trkpt>
      <trkpt lat="47.62061" lon="-2.8548">
        <ele>3.4</ele>
        <time>2025-01-28T12:59:39Z</time>
      </trkpt>
      <trkpt lat="47.62062" lon="-2.85479">
        <ele>3.4</ele>
        <time>2025-01-28T12:59:40Z</time>
      </trkpt>
      <trkpt lat="47.62062" lon="-2.85478">
        <ele>3.4</ele>
        <time>2025-01-28T12:59:41Z</time>
      </trkpt>
      <trkpt lat="47.62063" lon="-2.85477">
        <ele>3.4</ele>
        <time>2025-01-28T12:59:42Z</time>
      </trkpt>
      <trkpt lat="47.62064" lon="-2.85476">
        <ele>3.4</ele>
        <time>2025-01-28T12:59:43Z</time>
      </trkpt>
      <trkpt lat="47.62065" lon="-2.85475">
        <ele>3.5</ele>
        <time>2025-01-28T12:59:44Z</time>
      </trkpt>
      <trkpt lat="47.62065" lon="-2.85473">
        <ele>3.6</ele>
        <time>2025-01-28T12:59:45Z</time>
      </trkpt>
      <trkpt lat="47.62066" lon="-2.85472">
        <ele>3.6</ele>
        <time>2025-01-28T12:59:46Z</time>
      </trkpt>
      <trkpt lat="47.62066" lon="-2.85471">
        <ele>3.5</ele>
        <time>2025-01-28T12:59:47Z</time>
      </trkpt>
      <trkpt lat="47.62067" lon="-2.8547">
        <ele>3.4</ele>
        <time>2025-01-28T12:59:48Z</time>
      </trkpt>
      <trkpt lat="47.62069" lon="-2.85469">
        <ele>3.3</ele>
        <time>2025-01-28T12:59:49Z</time>
      </trkpt>
      <trkpt lat="47.6207" lon="-2.85469">
        <ele>3.2</ele>
        <time>2025-01-28T12:59:50Z</time>
      </trkpt>
      <trkpt lat="47.6207" lon="-2.85468">
        <ele>3.1</ele>
        <time>2025-01-28T12:59:51Z</time>
      </trkpt>
      <trkpt lat="47.62071" lon="-2.85466">
        <ele>3.2</ele>
        <time>2025-01-28T12:59:52Z</time>
      </trkpt>
      <trkpt lat="47.62071" lon="-2.85464">
        <ele>3.2</ele>
        <time>2025-01-28T12:59:53Z</time>
      </trkpt>
      <trkpt lat="47.62072" lon="-2.85463">
        <ele>3.2</ele>
        <time>2025-01-28T12:59:54Z</time>
      </trkpt>
      <trkpt lat="47.62073" lon="-2.85462">
        <ele>3.2</ele>
        <time>2025-01-28T12:59:55Z</time>
      </trkpt>
      <trkpt lat="47.62073" lon="-2.8546">
        <ele>3.2</ele>
        <time>2025-01-28T12:59:56Z</time>
      </trkpt>
      <trkpt lat="47.62074" lon="-2.85458">
        <ele>3.2</ele>
        <time>2025-01-28T12:59:57Z</time>
      </trkpt>
      <trkpt lat="47.62074" lon="-2.85456">
        <ele>3.3</ele>
        <time>2025-01-28T12:59:58Z</time>
      </trkpt>
      <trkpt lat="47.62074" lon="-2.85455">
        <ele>3.4</ele>
        <time>2025-01-28T12:59:59Z</time>
      </trkpt>
      <trkpt lat="47.62074" lon="-2.85453">
        <ele>3.5</ele>
        <time>2025-01-28T13:00:00Z</time>
      </trkpt>
      <trkpt lat="47.62075" lon="-2.85451">
        <ele>3.6</ele>
        <time>2025-01-28T13:00:01Z</time>
      </trkpt>
      <trkpt lat="47.62075" lon="-2.85449">
        <ele>3.6</ele>
        <time>2025-01-28T13:00:02Z</time>
      </trkpt>
      <trkpt lat="47.62075" lon="-2.85447">
        <ele>3.7</ele>
        <time>2025-01-28T13:00:03Z</time>
      </trkpt>
      <trkpt lat="47.62076" lon="-2.85446">
        <ele>3.8</ele>
        <time>2025-01-28T13:00:04Z</time>
      </trkpt>
      <trkpt lat="47.62076" lon="-2.85444">
        <ele>3.8</ele>
        <time>2025-01-28T13:00:05Z</time>
      </trkpt>
      <trkpt lat="47.62077" lon="-2.85442">
        <ele>3.9</ele>
        <time>2025-01-28T13:00:06Z</time>
      </trkpt>
      <trkpt lat="47.62077" lon="-2.85441">
        <ele>3.9</ele>
        <time>2025-01-28T13:00:07Z</time>
      </trkpt>
      <trkpt lat="47.62078" lon="-2.8544">
        <ele>3.8</ele>
        <time>2025-01-28T13:00:08Z</time>
      </trkpt>
      <trkpt lat="47.62079" lon="-2.85439">
        <ele>3.8</ele>
        <time>2025-01-28T13:00:09Z</time>
      </trkpt>
      <trkpt lat="47.6208" lon="-2.85437">
        <ele>3.8</ele>
        <time>2025-01-28T13:00:10Z</time>
      </trkpt>
      <trkpt lat="47.62081" lon="-2.85435">
        <ele>3.8</ele>
        <time>2025-01-28T13:00:11Z</time>
      </trkpt>
      <trkpt lat="47.62082" lon="-2.85434">
        <ele>3.9</ele>
        <time>2025-01-28T13:00:12Z</time>
      </trkpt>
      <trkpt lat="47.62082" lon="-2.85432">
        <ele>4</ele>
        <time>2025-01-28T13:00:13Z</time>
      </trkpt>
      <trkpt lat="47.62083" lon="-2.8543">
        <ele>4.1</ele>
        <time>2025-01-28T13:00:14Z</time>
      </trkpt>
      <trkpt lat="47.62083" lon="-2.85428">
        <ele>4.2</ele>
        <time>2025-01-28T13:00:15Z</time>
      </trkpt>
      <trkpt lat="47.62084" lon="-2.85426">
        <ele>4.3</ele>
        <time>2025-01-28T13:00:16Z</time>
      </trkpt>
      <trkpt lat="47.62084" lon="-2.85424">
        <ele>4.5</ele>
        <time>2025-01-28T13:00:17Z</time>
      </trkpt>
      <trkpt lat="47.62085" lon="-2.85422">
        <ele>4.6</ele>
        <time>2025-01-28T13:00:18Z</time>
      </trkpt>
      <trkpt lat="47.62085" lon="-2.8542">
        <ele>4.8</ele>
        <time>2025-01-28T13:00:19Z</time>
      </trkpt>
      <trkpt lat="47.62085" lon="-2.85418">
        <ele>4.9</ele>
        <time>2025-01-28T13:00:20Z</time>
      </trkpt>
      <trkpt lat="47.62086" lon="-2.85416">
        <ele>5</ele>
        <time>2025-01-28T13:00:21Z</time>
      </trkpt>
      <trkpt lat="47.62087" lon="-2.85415">
        <ele>5</ele>
        <time>2025-01-28T13:00:22Z</time>
      </trkpt>
      <trkpt lat="47.62087" lon="-2.85413">
        <ele>5</ele>
        <time>2025-01-28T13:00:23Z</time>
      </trkpt>
      <trkpt lat="47.62088" lon="-2.85411">
        <ele>5</ele>
        <time>2025-01-28T13:00:24Z</time>
      </trkpt>
      <trkpt lat="47.62088" lon="-2.85409">
        <ele>5</ele>
        <time>2025-01-28T13:00:25Z</time>
      </trkpt>
      <trkpt lat="47.62089" lon="-2.85408">
        <ele>5</ele>
        <time>2025-01-28T13:00:26Z</time>
      </trkpt>
      <trkpt lat="47.6209" lon="-2.85406">
        <ele>5</ele>
        <time>2025-01-28T13:00:27Z</time>
      </trkpt>
      <trkpt lat="47.6209" lon="-2.85405">
        <ele>4.9</ele>
        <time>2025-01-28T13:00:28Z</time>
      </trkpt>
      <trkpt lat="47.62091" lon="-2.85403">
        <ele>4.9</ele>
        <time>2025-01-28T13:00:29Z</time>
      </trkpt>
      <trkpt lat="47.6209" lon="-2.85401">
        <ele>4.8</ele>
        <time>2025-01-28T13:00:30Z</time>
      </trkpt>
      <trkpt lat="47.62091" lon="-2.85399">
        <ele>4.8</ele>
        <time>2025-01-28T13:00:31Z</time>
      </trkpt>
      <trkpt lat="47.62092" lon="-2.85397">
        <ele>4.7</ele>
        <time>2025-01-28T13:00:32Z</time>
      </trkpt>
      <trkpt lat="47.62092" lon="-2.85396">
        <ele>4.6</ele>
        <time>2025-01-28T13:00:33Z</time>
      </trkpt>
      <trkpt lat="47.62093" lon="-2.85394">
        <ele>4.5</ele>
        <time>2025-01-28T13:00:34Z</time>
      </trkpt>
      <trkpt lat="47.62093" lon="-2.85393">
        <ele>4.3</ele>
        <time>2025-01-28T13:00:35Z</time>
      </trkpt>
      <trkpt lat="47.62094" lon="-2.85391">
        <ele>4.1</ele>
        <time>2025-01-28T13:00:36Z</time>
      </trkpt>
      <trkpt lat="47.62095" lon="-2.8539">
        <ele>3.9</ele>
        <time>2025-01-28T13:00:37Z</time>
      </trkpt>
      <trkpt lat="47.62095" lon="-2.85388">
        <ele>3.9</ele>
        <time>2025-01-28T13:00:38Z</time>
      </trkpt>
      <trkpt lat="47.62096" lon="-2.85387">
        <ele>3.9</ele>
        <time>2025-01-28T13:00:39Z</time>
      </trkpt>
      <trkpt lat="47.62096" lon="-2.85385">
        <ele>3.9</ele>
        <time>2025-01-28T13:00:40Z</time>
      </trkpt>
      <trkpt lat="47.62097" lon="-2.85383">
        <ele>4</ele>
        <time>2025-01-28T13:00:41Z</time>
      </trkpt>
      <trkpt lat="47.62097" lon="-2.85381">
        <ele>4.1</ele>
        <time>2025-01-28T13:00:42Z</time>
      </trkpt>
      <trkpt lat="47.62098" lon="-2.8538">
        <ele>4.1</ele>
        <time>2025-01-28T13:00:43Z</time>
      </trkpt>
      <trkpt lat="47.62098" lon="-2.85378">
        <ele>4.2</ele>
        <time>2025-01-28T13:00:44Z</time>
      </trkpt>
      <trkpt lat="47.62098" lon="-2.85376">
        <ele>4.2</ele>
        <time>2025-01-28T13:00:45Z</time>
      </trkpt>
      <trkpt lat="47.62098" lon="-2.85374">
        <ele>4.4</ele>
        <time>2025-01-28T13:00:46Z</time>
      </trkpt>
      <trkpt lat="47.62099" lon="-2.85372">
        <ele>4.5</ele>
        <time>2025-01-28T13:00:47Z</time>
      </trkpt>
      <trkpt lat="47.62099" lon="-2.8537">
        <ele>4.6</ele>
        <time>2025-01-28T13:00:48Z</time>
      </trkpt>
      <trkpt lat="47.62099" lon="-2.85369">
        <ele>4.7</ele>
        <time>2025-01-28T13:00:49Z</time>
      </trkpt>
      <trkpt lat="47.621" lon="-2.85367">
        <ele>4.8</ele>
        <time>2025-01-28T13:00:50Z</time>
      </trkpt>
      <trkpt lat="47.621" lon="-2.85366">
        <ele>4.8</ele>
        <time>2025-01-28T13:00:51Z</time>
      </trkpt>
      <trkpt lat="47.62101" lon="-2.85364">
        <ele>4.8</ele>
        <time>2025-01-28T13:00:52Z</time>
      </trkpt>
      <trkpt lat="47.62102" lon="-2.85363">
        <ele>4.9</ele>
        <time>2025-01-28T13:00:53Z</time>
      </trkpt>
      <trkpt lat="47.62102" lon="-2.85361">
        <ele>5</ele>
        <time>2025-01-28T13:00:54Z</time>
      </trkpt>
      <trkpt lat="47.62103" lon="-2.85359">
        <ele>5</ele>
        <time>2025-01-28T13:00:55Z</time>
      </trkpt>
      <trkpt lat="47.62104" lon="-2.85358">
        <ele>5.1</ele>
        <time>2025-01-28T13:00:56Z</time>
      </trkpt>
      <trkpt lat="47.62104" lon="-2.85356">
        <ele>5.2</ele>
        <time>2025-01-28T13:00:57Z</time>
      </trkpt>
      <trkpt lat="47.62105" lon="-2.85355">
        <ele>5.3</ele>
        <time>2025-01-28T13:00:58Z</time>
      </trkpt>
      <trkpt lat="47.62106" lon="-2.85353">
        <ele>5.3</ele>
        <time>2025-01-28T13:00:59Z</time>
      </trkpt>
      <trkpt lat="47.62106" lon="-2.85352">
        <ele>5.4</ele>
        <time>2025-01-28T13:01:00Z</time>
      </trkpt>
      <trkpt lat="47.62107" lon="-2.85351">
        <ele>5.4</ele>
        <time>2025-01-28T13:01:01Z</time>
      </trkpt>
      <trkpt lat="47.62108" lon="-2.85349">
        <ele>5.5</ele>
        <time>2025-01-28T13:01:02Z</time>
      </trkpt>
      <trkpt lat="47.62108" lon="-2.85347">
        <ele>5.7</ele>
        <time>2025-01-28T13:01:03Z</time>
      </trkpt>
      <trkpt lat="47.62109" lon="-2.85346">
        <ele>5.7</ele>
        <time>2025-01-28T13:01:04Z</time>
      </trkpt>
      <trkpt lat="47.62109" lon="-2.85345">
        <ele>5.9</ele>
        <time>2025-01-28T13:01:05Z</time>
      </trkpt>
      <trkpt lat="47.6211" lon="-2.85343">
        <ele>6.1</ele>
        <time>2025-01-28T13:01:06Z</time>
      </trkpt>
      <trkpt lat="47.6211" lon="-2.85341">
        <ele>6.2</ele>
        <time>2025-01-28T13:01:07Z</time>
      </trkpt>
      <trkpt lat="47.62111" lon="-2.85339">
        <ele>6.4</ele>
        <time>2025-01-28T13:01:08Z</time>
      </trkpt>
      <trkpt lat="47.62112" lon="-2.85338">
        <ele>6.4</ele>
        <time>2025-01-28T13:01:09Z</time>
      </trkpt>
      <trkpt lat="47.62113" lon="-2.85336">
        <ele>6.4</ele>
        <time>2025-01-28T13:01:10Z</time>
      </trkpt>
      <trkpt lat="47.62114" lon="-2.85335">
        <ele>6.3</ele>
        <time>2025-01-28T13:01:11Z</time>
      </trkpt>
      <trkpt lat="47.62114" lon="-2.85334">
        <ele>6.2</ele>
        <time>2025-01-28T13:01:12Z</time>
      </trkpt>
      <trkpt lat="47.62115" lon="-2.85332">
        <ele>6.1</ele>
        <time>2025-01-28T13:01:13Z</time>
      </trkpt>
      <trkpt lat="47.62116" lon="-2.85332">
        <ele>5.9</ele>
        <time>2025-01-28T13:01:14Z</time>
      </trkpt>
      <trkpt lat="47.62117" lon="-2.85331">
        <ele>5.6</ele>
        <time>2025-01-28T13:01:15Z</time>
      </trkpt>
      <trkpt lat="47.62119" lon="-2.8533">
        <ele>5.4</ele>
        <time>2025-01-28T13:01:16Z</time>
      </trkpt>
      <trkpt lat="47.62119" lon="-2.85328">
        <ele>5.3</ele>
        <time>2025-01-28T13:01:17Z</time>
      </trkpt>
      <trkpt lat="47.6212" lon="-2.85327">
        <ele>5.1</ele>
        <time>2025-01-28T13:01:18Z</time>
      </trkpt>
      <trkpt lat="47.62121" lon="-2.85326">
        <ele>4.9</ele>
        <time>2025-01-28T13:01:19Z</time>
      </trkpt>
      <trkpt lat="47.62122" lon="-2.85325">
        <ele>4.7</ele>
        <time>2025-01-28T13:01:20Z</time>
      </trkpt>
      <trkpt lat="47.62123" lon="-2.85323">
        <ele>4.6</ele>
        <time>2025-01-28T13:01:21Z</time>
      </trkpt>
      <trkpt lat="47.62124" lon="-2.85322">
        <ele>4.4</ele>
        <time>2025-01-28T13:01:22Z</time>
      </trkpt>
      <trkpt lat="47.62125" lon="-2.85321">
        <ele>4.3</ele>
        <time>2025-01-28T13:01:23Z</time>
      </trkpt>
      <trkpt lat="47.62125" lon="-2.8532">
        <ele>4.2</ele>
        <time>2025-01-28T13:01:24Z</time>
      </trkpt>
      <trkpt lat="47.62126" lon="-2.85318">
        <ele>4.1</ele>
        <time>2025-01-28T13:01:25Z</time>
      </trkpt>
      <trkpt lat="47.62127" lon="-2.85317">
        <ele>4</ele>
        <time>2025-01-28T13:01:26Z</time>
      </trkpt>
      <trkpt lat="47.62129" lon="-2.85317">
        <ele>3.8</ele>
        <time>2025-01-28T13:01:27Z</time>
      </trkpt>
      <trkpt lat="47.6213" lon="-2.85317">
        <ele>3.6</ele>
        <time>2025-01-28T13:01:28Z</time>
      </trkpt>
      <trkpt lat="47.62131" lon="-2.85317">
        <ele>3.4</ele>
        <time>2025-01-28T13:01:29Z</time>
      </trkpt>
      <trkpt lat="47.62132" lon="-2.85317">
        <ele>3.2</ele>
        <time>2025-01-28T13:01:30Z</time>
      </trkpt>
      <trkpt lat="47.62133" lon="-2.85316">
        <ele>3.1</ele>
        <time>2025-01-28T13:01:31Z</time>
      </trkpt>
      <trkpt lat="47.62134" lon="-2.85316">
        <ele>2.9</ele>
        <time>2025-01-28T13:01:32Z</time>
      </trkpt>
      <trkpt lat="47.62135" lon="-2.85316">
        <ele>2.8</ele>
        <time>2025-01-28T13:01:33Z</time>
      </trkpt>
      <trkpt lat="47.62136" lon="-2.85315">
        <ele>2.7</ele>
        <time>2025-01-28T13:01:34Z</time>
      </trkpt>
      <trkpt lat="47.62137" lon="-2.85314">
        <ele>2.7</ele>
        <time>2025-01-28T13:01:35Z</time>
      </trkpt>
      <trkpt lat="47.62137" lon="-2.85312">
        <ele>2.7</ele>
        <time>2025-01-28T13:01:36Z</time>
      </trkpt>
      <trkpt lat="47.62138" lon="-2.85311">
        <ele>2.8</ele>
        <time>2025-01-28T13:01:37Z</time>
      </trkpt>
      <trkpt lat="47.62138" lon="-2.8531">
        <ele>2.8</ele>
        <time>2025-01-28T13:01:38Z</time>
      </trkpt>
      <trkpt lat="47.62138" lon="-2.85306">
        <ele>3</ele>
        <time>2025-01-28T13:01:39Z</time>
      </trkpt>
      <trkpt lat="47.62137" lon="-2.85305">
        <ele>3.3</ele>
        <time>2025-01-28T13:01:40Z</time>
      </trkpt>
      <trkpt lat="47.62137" lon="-2.85303">
        <ele>3.4</ele>
        <time>2025-01-28T13:01:41Z</time>
      </trkpt>
      <trkpt lat="47.62136" lon="-2.85301">
        <ele>3.6</ele>
        <time>2025-01-28T13:01:42Z</time>
      </trkpt>
      <trkpt lat="47.62134" lon="-2.85299">
        <ele>3.9</ele>
        <time>2025-01-28T13:01:43Z</time>
      </trkpt>
      <trkpt lat="47.62133" lon="-2.85299">
        <ele>4.1</ele>
        <time>2025-01-28T13:01:44Z</time>
      </trkpt>
      <trkpt lat="47.62132" lon="-2.85299">
        <ele>4.3</ele>
        <time>2025-01-28T13:01:45Z</time>
      </trkpt>
      <trkpt lat="47.62131" lon="-2.85297">
        <ele>4.5</ele>
        <time>2025-01-28T13:01:46Z</time>
      </trkpt>
      <trkpt lat="47.62132" lon="-2.85295">
        <ele>4.5</ele>
        <time>2025-01-28T13:01:47Z</time>
      </trkpt>
      <trkpt lat="47.62132" lon="-2.85295">
        <ele>4.5</ele>
        <time>2025-01-28T13:01:48Z</time>
      </trkpt>
      <trkpt lat="47.62133" lon="-2.85295">
        <ele>4.4</ele>
        <time>2025-01-28T13:01:49Z</time>
      </trkpt>
      <trkpt lat="47.62134" lon="-2.85295">
        <ele>4.3</ele>
        <time>2025-01-28T13:01:50Z</time>
      </trkpt>
      <trkpt lat="47.62135" lon="-2.85295">
        <ele>4.2</ele>
        <time>2025-01-28T13:01:51Z</time>
      </trkpt>
      <trkpt lat="47.62136" lon="-2.85296">
        <ele>4</ele>
        <time>2025-01-28T13:01:52Z</time>
      </trkpt>
      <trkpt lat="47.62137" lon="-2.85296">
        <ele>3.9</ele>
        <time>2025-01-28T13:01:53Z</time>
      </trkpt>
      <trkpt lat="47.62138" lon="-2.85297">
        <ele>3.8</ele>
        <time>2025-01-28T13:01:54Z</time>
      </trkpt>
      <trkpt lat="47.62139" lon="-2.85296">
        <ele>3.7</ele>
        <time>2025-01-28T13:01:55Z</time>
      </trkpt>
      <trkpt lat="47.62139" lon="-2.85296">
        <ele>3.7</ele>
        <time>2025-01-28T13:01:56Z</time>
      </trkpt>
      <trkpt lat="47.6214" lon="-2.85295">
        <ele>3.7</ele>
        <time>2025-01-28T13:01:57Z</time>
      </trkpt>
      <trkpt lat="47.6214" lon="-2.85294">
        <ele>3.7</ele>
        <time>2025-01-28T13:01:58Z</time>
      </trkpt>
      <trkpt lat="47.62141" lon="-2.85294">
        <ele>3.7</ele>
        <time>2025-01-28T13:01:59Z</time>
      </trkpt>
      <trkpt lat="47.62142" lon="-2.85293">
        <ele>3.7</ele>
        <time>2025-01-28T13:02:00Z</time>
      </trkpt>
      <trkpt lat="47.62143" lon="-2.85293">
        <ele>3.7</ele>
        <time>2025-01-28T13:02:01Z</time>
      </trkpt>
      <trkpt lat="47.62144" lon="-2.85292">
        <ele>3.7</ele>
        <time>2025-01-28T13:02:02Z</time>
      </trkpt>
      <trkpt lat="47.62145" lon="-2.85292">
        <ele>3.6</ele>
        <time>2025-01-28T13:02:03Z</time>
      </trkpt>
      <trkpt lat="47.62146" lon="-2.85292">
        <ele>3.6</ele>
        <time>2025-01-28T13:02:04Z</time>
      </trkpt>
      <trkpt lat="47.62147" lon="-2.85291">
        <ele>3.6</ele>
        <time>2025-01-28T13:02:05Z</time>
      </trkpt>
      <trkpt lat="47.62148" lon="-2.85291">
        <ele>3.6</ele>
        <time>2025-01-28T13:02:06Z</time>
      </trkpt>
      <trkpt lat="47.62149" lon="-2.8529">
        <ele>3.5</ele>
        <time>2025-01-28T13:02:07Z</time>
      </trkpt>
      <trkpt lat="47.6215" lon="-2.85289">
        <ele>3.5</ele>
        <time>2025-01-28T13:02:08Z</time>
      </trkpt>
      <trkpt lat="47.62151" lon="-2.85289">
        <ele>3.5</ele>
        <time>2025-01-28T13:02:09Z</time>
      </trkpt>
      <trkpt lat="47.62153" lon="-2.85288">
        <ele>3.5</ele>
        <time>2025-01-28T13:02:10Z</time>
      </trkpt>
      <trkpt lat="47.62154" lon="-2.85289">
        <ele>3.3</ele>
        <time>2025-01-28T13:02:11Z</time>
      </trkpt>
      <trkpt lat="47.62156" lon="-2.85289">
        <ele>3.2</ele>
        <time>2025-01-28T13:02:12Z</time>
      </trkpt>
      <trkpt lat="47.62157" lon="-2.85289">
        <ele>3.2</ele>
        <time>2025-01-28T13:02:13Z</time>
      </trkpt>
      <trkpt lat="47.62157" lon="-2.8529">
        <ele>3.1</ele>
        <time>2025-01-28T13:02:14Z</time>
      </trkpt>
      <trkpt lat="47.62159" lon="-2.85289">
        <ele>3</ele>
        <time>2025-01-28T13:02:15Z</time>
      </trkpt>
      <trkpt lat="47.6216" lon="-2.85289">
        <ele>3</ele>
        <time>2025-01-28T13:02:16Z</time>
      </trkpt>
      <trkpt lat="47.6216" lon="-2.85289">
        <ele>3</ele>
        <time>2025-01-28T13:02:17Z</time>
      </trkpt>
      <trkpt lat="47.62161" lon="-2.85289">
        <ele>2.9</ele>
        <time>2025-01-28T13:02:18Z</time>
      </trkpt>
      <trkpt lat="47.62162" lon="-2.85291">
        <ele>2.8</ele>
        <time>2025-01-28T13:02:19Z</time>
      </trkpt>
      <trkpt lat="47.62161" lon="-2.85294">
        <ele>2.7</ele>
        <time>2025-01-28T13:02:20Z</time>
      </trkpt>
      <trkpt lat="47.62161" lon="-2.85296">
        <ele>2.7</ele>
        <time>2025-01-28T13:02:21Z</time>
      </trkpt>
      <trkpt lat="47.6216" lon="-2.85297">
        <ele>2.6</ele>
        <time>2025-01-28T13:02:22Z</time>
      </trkpt>
      <trkpt lat="47.6216" lon="-2.85299">
        <ele>2.5</ele>
        <time>2025-01-28T13:02:23Z</time>
      </trkpt>
      <trkpt lat="47.6216" lon="-2.853">
        <ele>2.5</ele>
        <time>2025-01-28T13:02:24Z</time>
      </trkpt>
      <trkpt lat="47.62161" lon="-2.85301">
        <ele>2.4</ele>
        <time>2025-01-28T13:02:25Z</time>
      </trkpt>
      <trkpt lat="47.62161" lon="-2.85303">
        <ele>2.3</ele>
        <time>2025-01-28T13:02:26Z</time>
      </trkpt>
      <trkpt lat="47.62161" lon="-2.85304">
        <ele>2.2</ele>
        <time>2025-01-28T13:02:27Z</time>
      </trkpt>
      <trkpt lat="47.62162" lon="-2.85306">
        <ele>2.2</ele>
        <time>2025-01-28T13:02:28Z</time>
      </trkpt>
      <trkpt lat="47.62162" lon="-2.85307">
        <ele>2.1</ele>
        <time>2025-01-28T13:02:29Z</time>
      </trkpt>
      <trkpt lat="47.62163" lon="-2.85309">
        <ele>2</ele>
        <time>2025-01-28T13:02:30Z</time>
      </trkpt>
      <trkpt lat="47.62164" lon="-2.8531">
        <ele>2</ele>
        <time>2025-01-28T13:02:31Z</time>
      </trkpt>
      <trkpt lat="47.62164" lon="-2.85311">
        <ele>1.9</ele>
        <time>2025-01-28T13:02:32Z</time>
      </trkpt>
      <trkpt lat="47.62165" lon="-2.85312">
        <ele>1.8</ele>
        <time>2025-01-28T13:02:33Z</time>
      </trkpt>
      <trkpt lat="47.62166" lon="-2.85313">
        <ele>1.8</ele>
        <time>2025-01-28T13:02:34Z</time>
      </trkpt>
      <trkpt lat="47.62167" lon="-2.85312">
        <ele>1.8</ele>
        <time>2025-01-28T13:02:35Z</time>
      </trkpt>
      <trkpt lat="47.62168" lon="-2.85313">
        <ele>1.8</ele>
        <time>2025-01-28T13:02:36Z</time>
      </trkpt>
      <trkpt lat="47.62169" lon="-2.85312">
        <ele>1.8</ele>
        <time>2025-01-28T13:02:37Z</time>
      </trkpt>
      <trkpt lat="47.6217" lon="-2.85312">
        <ele>1.8</ele>
        <time>2025-01-28T13:02:38Z</time>
      </trkpt>
      <trkpt lat="47.62171" lon="-2.85311">
        <ele>1.9</ele>
        <time>2025-01-28T13:02:39Z</time>
      </trkpt>
      <trkpt lat="47.62172" lon="-2.85312">
        <ele>1.9</ele>
        <time>2025-01-28T13:02:40Z</time>
      </trkpt>
      <trkpt lat="47.62173" lon="-2.85312">
        <ele>1.9</ele>
        <time>2025-01-28T13:02:41Z</time>
      </trkpt>
      <trkpt lat="47.62174" lon="-2.85313">
        <ele>1.9</ele>
        <time>2025-01-28T13:02:42Z</time>
      </trkpt>
      <trkpt lat="47.62175" lon="-2.85314">
        <ele>1.9</ele>
        <time>2025-01-28T13:02:43Z</time>
      </trkpt>
      <trkpt lat="47.62176" lon="-2.85315">
        <ele>1.9</ele>
        <time>2025-01-28T13:02:44Z</time>
      </trkpt>
      <trkpt lat="47.62177" lon="-2.85315">
        <ele>1.9</ele>
        <time>2025-01-28T13:02:45Z</time>
      </trkpt>
      <trkpt lat="47.62178" lon="-2.85315">
        <ele>1.9</ele>
        <time>2025-01-28T13:02:46Z</time>
      </trkpt>
      <trkpt lat="47.62179" lon="-2.85317">
        <ele>1.9</ele>
        <time>2025-01-28T13:02:47Z</time>
      </trkpt>
      <trkpt lat="47.6218" lon="-2.85318">
        <ele>2</ele>
        <time>2025-01-28T13:02:48Z</time>
      </trkpt>
      <trkpt lat="47.6218" lon="-2.8532">
        <ele>2</ele>
        <time>2025-01-28T13:02:49Z</time>
      </trkpt>
      <trkpt lat="47.62182" lon="-2.85321">
        <ele>2</ele>
        <time>2025-01-28T13:02:50Z</time>
      </trkpt>
      <trkpt lat="47.62182" lon="-2.85322">
        <ele>2.1</ele>
        <time>2025-01-28T13:02:51Z</time>
      </trkpt>
      <trkpt lat="47.62183" lon="-2.85324">
        <ele>2.1</ele>
        <time>2025-01-28T13:02:52Z</time>
      </trkpt>
      <trkpt lat="47.62184" lon="-2.85325">
        <ele>2.2</ele>
        <time>2025-01-28T13:02:53Z</time>
      </trkpt>
      <trkpt lat="47.62185" lon="-2.85326">
        <ele>2.2</ele>
        <time>2025-01-28T13:02:54Z</time>
      </trkpt>
      <trkpt lat="47.62185" lon="-2.85327">
        <ele>2.3</ele>
        <time>2025-01-28T13:02:55Z</time>
      </trkpt>
      <trkpt lat="47.62186" lon="-2.85328">
        <ele>2.3</ele>
        <time>2025-01-28T13:02:56Z</time>
      </trkpt>
      <trkpt lat="47.62186" lon="-2.8533">
        <ele>2.3</ele>
        <time>2025-01-28T13:02:57Z</time>
      </trkpt>
      <trkpt lat="47.62186" lon="-2.85332">
        <ele>2.4</ele>
        <time>2025-01-28T13:02:58Z</time>
      </trkpt>
      <trkpt lat="47.62186" lon="-2.85334">
        <ele>2.4</ele>
        <time>2025-01-28T13:02:59Z</time>
      </trkpt>
      <trkpt lat="47.62186" lon="-2.85335">
        <ele>2.4</ele>
        <time>2025-01-28T13:03:00Z</time>
      </trkpt>
      <trkpt lat="47.62186" lon="-2.85337">
        <ele>2.5</ele>
        <time>2025-01-28T13:03:01Z</time>
      </trkpt>
      <trkpt lat="47.62186" lon="-2.85339">
        <ele>2.5</ele>
        <time>2025-01-28T13:03:02Z</time>
      </trkpt>
      <trkpt lat="47.62185" lon="-2.8534">
        <ele>2.5</ele>
        <time>2025-01-28T13:03:03Z</time>
      </trkpt>
      <trkpt lat="47.62185" lon="-2.85342">
        <ele>2.5</ele>
        <time>2025-01-28T13:03:04Z</time>
      </trkpt>
      <trkpt lat="47.62185" lon="-2.85343">
        <ele>2.5</ele>
        <time>2025-01-28T13:03:05Z</time>
      </trkpt>
      <trkpt lat="47.62185" lon="-2.85345">
        <ele>2.5</ele>
        <time>2025-01-28T13:03:06Z</time>
      </trkpt>
      <trkpt lat="47.62184" lon="-2.85346">
        <ele>2.6</ele>
        <time>2025-01-28T13:03:07Z</time>
      </trkpt>
      <trkpt lat="47.62184" lon="-2.85348">
        <ele>2.6</ele>
        <time>2025-01-28T13:03:08Z</time>
      </trkpt>
      <trkpt lat="47.62184" lon="-2.8535">
        <ele>2.6</ele>
        <time>2025-01-28T13:03:09Z</time>
      </trkpt>
      <trkpt lat="47.62184" lon="-2.85352">
        <ele>2.7</ele>
        <time>2025-01-28T13:03:10Z</time>
      </trkpt>
      <trkpt lat="47.62185" lon="-2.85354">
        <ele>2.8</ele>
        <time>2025-01-28T13:03:11Z</time>
      </trkpt>
      <trkpt lat="47.62184" lon="-2.85355">
        <ele>2.8</ele>
        <time>2025-01-28T13:03:12Z</time>
      </trkpt>
      <trkpt lat="47.62184" lon="-2.85357">
        <ele>2.8</ele>
        <time>2025-01-28T13:03:13Z</time>
      </trkpt>
      <trkpt lat="47.62184" lon="-2.85359">
        <ele>2.8</ele>
        <time>2025-01-28T13:03:14Z</time>
      </trkpt>
      <trkpt lat="47.62184" lon="-2.8536">
        <ele>2.9</ele>
        <time>2025-01-28T13:03:15Z</time>
      </trkpt>
      <trkpt lat="47.62185" lon="-2.85362">
        <ele>2.9</ele>
        <time>2025-01-28T13:03:16Z</time>
      </trkpt>
      <trkpt lat="47.62185" lon="-2.85364">
        <ele>2.9</ele>
        <time>2025-01-28T13:03:17Z</time>
      </trkpt>
      <trkpt lat="47.62184" lon="-2.85365">
        <ele>2.9</ele>
        <time>2025-01-28T13:03:18Z</time>
      </trkpt>
      <trkpt lat="47.62185" lon="-2.85367">
        <ele>2.9</ele>
        <time>2025-01-28T13:03:19Z</time>
      </trkpt>
      <trkpt lat="47.62185" lon="-2.85369">
        <ele>2.9</ele>
        <time>2025-01-28T13:03:20Z</time>
      </trkpt>
      <trkpt lat="47.62185" lon="-2.8537">
        <ele>2.9</ele>
        <time>2025-01-28T13:03:21Z</time>
      </trkpt>
      <trkpt lat="47.62185" lon="-2.85372">
        <ele>2.9</ele>
        <time>2025-01-28T13:03:22Z</time>
      </trkpt>
      <trkpt lat="47.62185" lon="-2.85374">
        <ele>2.9</ele>
        <time>2025-01-28T13:03:23Z</time>
      </trkpt>
      <trkpt lat="47.62185" lon="-2.85375">
        <ele>2.9</ele>
        <time>2025-01-28T13:03:24Z</time>
      </trkpt>
      <trkpt lat="47.62184" lon="-2.85377">
        <ele>2.8</ele>
        <time>2025-01-28T13:03:25Z</time>
      </trkpt>
      <trkpt lat="47.62183" lon="-2.85377">
        <ele>2.7</ele>
        <time>2025-01-28T13:03:26Z</time>
      </trkpt>
      <trkpt lat="47.62182" lon="-2.85378">
        <ele>2.7</ele>
        <time>2025-01-28T13:03:27Z</time>
      </trkpt>
      <trkpt lat="47.62183" lon="-2.8538">
        <ele>2.7</ele>
        <time>2025-01-28T13:03:28Z</time>
      </trkpt>
      <trkpt lat="47.62183" lon="-2.85382">
        <ele>2.7</ele>
        <time>2025-01-28T13:03:29Z</time>
      </trkpt>
      <trkpt lat="47.62183" lon="-2.85383">
        <ele>2.8</ele>
        <time>2025-01-28T13:03:30Z</time>
      </trkpt>
      <trkpt lat="47.62183" lon="-2.85385">
        <ele>2.8</ele>
        <time>2025-01-28T13:03:31Z</time>
      </trkpt>
      <trkpt lat="47.62183" lon="-2.85386">
        <ele>2.8</ele>
        <time>2025-01-28T13:03:32Z</time>
      </trkpt>
      <trkpt lat="47.62183" lon="-2.85388">
        <ele>2.8</ele>
        <time>2025-01-28T13:03:33Z</time>
      </trkpt>
      <trkpt lat="47.62183" lon="-2.8539">
        <ele>2.8</ele>
        <time>2025-01-28T13:03:34Z</time>
      </trkpt>
      <trkpt lat="47.62183" lon="-2.85392">
        <ele>2.9</ele>
        <time>2025-01-28T13:03:35Z</time>
      </trkpt>
      <trkpt lat="47.62183" lon="-2.85393">
        <ele>2.9</ele>
        <time>2025-01-28T13:03:36Z</time>
      </trkpt>
      <trkpt lat="47.62183" lon="-2.85395">
        <ele>3</ele>
        <time>2025-01-28T13:03:37Z</time>
      </trkpt>
      <trkpt lat="47.62183" lon="-2.85397">
        <ele>3</ele>
        <time>2025-01-28T13:03:38Z</time>
      </trkpt>
      <trkpt lat="47.62183" lon="-2.85399">
        <ele>3.1</ele>
        <time>2025-01-28T13:03:39Z</time>
      </trkpt>
      <trkpt lat="47.62183" lon="-2.85401">
        <ele>3.2</ele>
        <time>2025-01-28T13:03:40Z</time>
      </trkpt>
      <trkpt lat="47.62182" lon="-2.85402">
        <ele>3.2</ele>
        <time>2025-01-28T13:03:41Z</time>
      </trkpt>
      <trkpt lat="47.62182" lon="-2.85404">
        <ele>3.2</ele>
        <time>2025-01-28T13:03:42Z</time>
      </trkpt>
      <trkpt lat="47.62181" lon="-2.85406">
        <ele>3.2</ele>
        <time>2025-01-28T13:03:43Z</time>
      </trkpt>
      <trkpt lat="47.62181" lon="-2.85407">
        <ele>3.2</ele>
        <time>2025-01-28T13:03:44Z</time>
      </trkpt>
      <trkpt lat="47.62181" lon="-2.85409">
        <ele>3.2</ele>
        <time>2025-01-28T13:03:45Z</time>
      </trkpt>
      <trkpt lat="47.6218" lon="-2.85411">
        <ele>3.2</ele>
        <time>2025-01-28T13:03:46Z</time>
      </trkpt>
      <trkpt lat="47.62179" lon="-2.85412">
        <ele>3</ele>
        <time>2025-01-28T13:03:47Z</time>
      </trkpt>
      <trkpt lat="47.62178" lon="-2.85412">
        <ele>2.9</ele>
        <time>2025-01-28T13:03:48Z</time>
      </trkpt>
      <trkpt lat="47.62177" lon="-2.85412">
        <ele>2.7</ele>
        <time>2025-01-28T13:03:49Z</time>
      </trkpt>
      <trkpt lat="47.62176" lon="-2.85413">
        <ele>2.5</ele>
        <time>2025-01-28T13:03:50Z</time>
      </trkpt>
      <trkpt lat="47.62175" lon="-2.85413">
        <ele>2.5</ele>
        <time>2025-01-28T13:03:51Z</time>
      </trkpt>
      <trkpt lat="47.62175" lon="-2.85413">
        <ele>2.4</ele>
        <time>2025-01-28T13:03:52Z</time>
      </trkpt>
      <trkpt lat="47.62175" lon="-2.85414">
        <ele>2.4</ele>
        <time>2025-01-28T13:03:53Z</time>
      </trkpt>
      <trkpt lat="47.62175" lon="-2.85414">
        <ele>2.4</ele>
        <time>2025-01-28T13:03:54Z</time>
      </trkpt>
      <trkpt lat="47.62175" lon="-2.85414">
        <ele>2.4</ele>
        <time>2025-01-28T13:03:55Z</time>
      </trkpt>
      <trkpt lat="47.62175" lon="-2.85414">
        <ele>2.4</ele>
        <time>2025-01-28T13:03:56Z</time>
      </trkpt>
      <trkpt lat="47.62175" lon="-2.85414">
        <ele>2.4</ele>
        <time>2025-01-28T13:03:57Z</time>
      </trkpt>
      <trkpt lat="47.62174" lon="-2.85414">
        <ele>2.3</ele>
        <time>2025-01-28T13:03:58Z</time>
      </trkpt>
      <trkpt lat="47.62174" lon="-2.85414">
        <ele>2.3</ele>
        <time>2025-01-28T13:03:59Z</time>
      </trkpt>
      <trkpt lat="47.62173" lon="-2.85412">
        <ele>2</ele>
        <time>2025-01-28T13:04:00Z</time>
      </trkpt>
      <trkpt lat="47.62173" lon="-2.85411">
        <ele>2</ele>
        <time>2025-01-28T13:04:01Z</time>
      </trkpt>
      <trkpt lat="47.62173" lon="-2.85412">
        <ele>2.1</ele>
        <time>2025-01-28T13:04:02Z</time>
      </trkpt>
      <trkpt lat="47.62173" lon="-2.85413">
        <ele>2</ele>
        <time>2025-01-28T13:04:03Z</time>
      </trkpt>
      <trkpt lat="47.62172" lon="-2.85415">
        <ele>2</ele>
        <time>2025-01-28T13:04:04Z</time>
      </trkpt>
      <trkpt lat="47.62173" lon="-2.85417">
        <ele>2</ele>
        <time>2025-01-28T13:04:05Z</time>
      </trkpt>
      <trkpt lat="47.62172" lon="-2.85418">
        <ele>2.1</ele>
        <time>2025-01-28T13:04:06Z</time>
      </trkpt>
      <trkpt lat="47.62173" lon="-2.8542">
        <ele>2.2</ele>
        <time>2025-01-28T13:04:07Z</time>
      </trkpt>
      <trkpt lat="47.62173" lon="-2.85422">
        <ele>2.3</ele>
        <time>2025-01-28T13:04:08Z</time>
      </trkpt>
      <trkpt lat="47.62174" lon="-2.85423">
        <ele>2.4</ele>
        <time>2025-01-28T13:04:09Z</time>
      </trkpt>
      <trkpt lat="47.62174" lon="-2.85425">
        <ele>2.6</ele>
        <time>2025-01-28T13:04:10Z</time>
      </trkpt>
      <trkpt lat="47.62175" lon="-2.85426">
        <ele>2.7</ele>
        <time>2025-01-28T13:04:11Z</time>
      </trkpt>
      <trkpt lat="47.62175" lon="-2.85428">
        <ele>2.7</ele>
        <time>2025-01-28T13:04:12Z</time>
      </trkpt>
      <trkpt lat="47.62175" lon="-2.85429">
        <ele>2.8</ele>
        <time>2025-01-28T13:04:13Z</time>
      </trkpt>
      <trkpt lat="47.62175" lon="-2.85431">
        <ele>2.9</ele>
        <time>2025-01-28T13:04:14Z</time>
      </trkpt>
      <trkpt lat="47.62175" lon="-2.85432">
        <ele>2.9</ele>
        <time>2025-01-28T13:04:15Z</time>
      </trkpt>
      <trkpt lat="47.62176" lon="-2.85434">
        <ele>3</ele>
        <time>2025-01-28T13:04:16Z</time>
      </trkpt>
      <trkpt lat="47.62176" lon="-2.85436">
        <ele>3.1</ele>
        <time>2025-01-28T13:04:17Z</time>
      </trkpt>
      <trkpt lat="47.62176" lon="-2.85437">
        <ele>3.1</ele>
        <time>2025-01-28T13:04:18Z</time>
      </trkpt>
      <trkpt lat="47.62175" lon="-2.85439">
        <ele>3.1</ele>
        <time>2025-01-28T13:04:19Z</time>
      </trkpt>
      <trkpt lat="47.62175" lon="-2.8544">
        <ele>3.1</ele>
        <time>2025-01-28T13:04:20Z</time>
      </trkpt>
      <trkpt lat="47.62175" lon="-2.85442">
        <ele>3.1</ele>
        <time>2025-01-28T13:04:21Z</time>
      </trkpt>
      <trkpt lat="47.62175" lon="-2.85443">
        <ele>3.1</ele>
        <time>2025-01-28T13:04:22Z</time>
      </trkpt>
      <trkpt lat="47.62174" lon="-2.85445">
        <ele>3.1</ele>
        <time>2025-01-28T13:04:23Z</time>
      </trkpt>
      <trkpt lat="47.62174" lon="-2.85446">
        <ele>3.1</ele>
        <time>2025-01-28T13:04:24Z</time>
      </trkpt>
      <trkpt lat="47.62174" lon="-2.85448">
        <ele>3</ele>
        <time>2025-01-28T13:04:25Z</time>
      </trkpt>
      <trkpt lat="47.62173" lon="-2.85449">
        <ele>3</ele>
        <time>2025-01-28T13:04:26Z</time>
      </trkpt>
      <trkpt lat="47.62173" lon="-2.85451">
        <ele>3</ele>
        <time>2025-01-28T13:04:27Z</time>
      </trkpt>
      <trkpt lat="47.62173" lon="-2.85452">
        <ele>2.9</ele>
        <time>2025-01-28T13:04:28Z</time>
      </trkpt>
      <trkpt lat="47.62172" lon="-2.85454">
        <ele>2.9</ele>
        <time>2025-01-28T13:04:29Z</time>
      </trkpt>
      <trkpt lat="47.62172" lon="-2.85455">
        <ele>2.9</ele>
        <time>2025-01-28T13:04:30Z</time>
      </trkpt>
      <trkpt lat="47.62172" lon="-2.85457">
        <ele>2.9</ele>
        <time>2025-01-28T13:04:31Z</time>
      </trkpt>
      <trkpt lat="47.62172" lon="-2.85458">
        <ele>2.8</ele>
        <time>2025-01-28T13:04:32Z</time>
      </trkpt>
      <trkpt lat="47.62172" lon="-2.8546">
        <ele>2.8</ele>
        <time>2025-01-28T13:04:33Z</time>
      </trkpt>
      <trkpt lat="47.62171" lon="-2.85461">
        <ele>2.7</ele>
        <time>2025-01-28T13:04:34Z</time>
      </trkpt>
      <trkpt lat="47.62171" lon="-2.85463">
        <ele>2.7</ele>
        <time>2025-01-28T13:04:35Z</time>
      </trkpt>
      <trkpt lat="47.62171" lon="-2.85464">
        <ele>2.7</ele>
        <time>2025-01-28T13:04:36Z</time>
      </trkpt>
      <trkpt lat="47.62171" lon="-2.85466">
        <ele>2.7</ele>
        <time>2025-01-28T13:04:37Z</time>
      </trkpt>
      <trkpt lat="47.62171" lon="-2.85467">
        <ele>2.7</ele>
        <time>2025-01-28T13:04:38Z</time>
      </trkpt>
      <trkpt lat="47.6217" lon="-2.85469">
        <ele>2.7</ele>
        <time>2025-01-28T13:04:39Z</time>
      </trkpt>
      <trkpt lat="47.6217" lon="-2.8547">
        <ele>2.6</ele>
        <time>2025-01-28T13:04:40Z</time>
      </trkpt>
      <trkpt lat="47.6217" lon="-2.85472">
        <ele>2.5</ele>
        <time>2025-01-28T13:04:41Z</time>
      </trkpt>
      <trkpt lat="47.6217" lon="-2.85473">
        <ele>2.6</ele>
        <time>2025-01-28T13:04:42Z</time>
      </trkpt>
      <trkpt lat="47.62169" lon="-2.85474">
        <ele>2.6</ele>
        <time>2025-01-28T13:04:43Z</time>
      </trkpt>
      <trkpt lat="47.62169" lon="-2.85476">
        <ele>2.6</ele>
        <time>2025-01-28T13:04:44Z</time>
      </trkpt>
      <trkpt lat="47.62168" lon="-2.85477">
        <ele>2.6</ele>
        <time>2025-01-28T13:04:45Z</time>
      </trkpt>
      <trkpt lat="47.62168" lon="-2.85479">
        <ele>2.6</ele>
        <time>2025-01-28T13:04:46Z</time>
      </trkpt>
      <trkpt lat="47.62167" lon="-2.8548">
        <ele>2.7</ele>
        <time>2025-01-28T13:04:47Z</time>
      </trkpt>
      <trkpt lat="47.62167" lon="-2.85482">
        <ele>2.8</ele>
        <time>2025-01-28T13:04:48Z</time>
      </trkpt>
      <trkpt lat="47.62166" lon="-2.85483">
        <ele>2.8</ele>
        <time>2025-01-28T13:04:49Z</time>
      </trkpt>
      <trkpt lat="47.62166" lon="-2.85485">
        <ele>2.9</ele>
        <time>2025-01-28T13:04:50Z</time>
      </trkpt>
      <trkpt lat="47.62165" lon="-2.85486">
        <ele>3</ele>
        <time>2025-01-28T13:04:51Z</time>
      </trkpt>
      <trkpt lat="47.62165" lon="-2.85487">
        <ele>3</ele>
        <time>2025-01-28T13:04:52Z</time>
      </trkpt>
      <trkpt lat="47.62165" lon="-2.85486">
        <ele>3</ele>
        <time>2025-01-28T13:04:53Z</time>
      </trkpt>
      <trkpt lat="47.62165" lon="-2.85486">
        <ele>3</ele>
        <time>2025-01-28T13:04:54Z</time>
      </trkpt>
      <trkpt lat="47.62165" lon="-2.85486">
        <ele>3</ele>
        <time>2025-01-28T13:04:55Z</time>
      </trkpt>
      <trkpt lat="47.62165" lon="-2.85487">
        <ele>3</ele>
        <time>2025-01-28T13:04:56Z</time>
      </trkpt>
      <trkpt lat="47.62165" lon="-2.85487">
        <ele>3.1</ele>
        <time>2025-01-28T13:04:57Z</time>
      </trkpt>
      <trkpt lat="47.62165" lon="-2.85488">
        <ele>3.1</ele>
        <time>2025-01-28T13:04:58Z</time>
      </trkpt>
      <trkpt lat="47.62164" lon="-2.85489">
        <ele>3.2</ele>
        <time>2025-01-28T13:04:59Z</time>
      </trkpt>
      <trkpt lat="47.62164" lon="-2.85489">
        <ele>3.2</ele>
        <time>2025-01-28T13:05:00Z</time>
      </trkpt>
      <trkpt lat="47.62164" lon="-2.8549">
        <ele>3.3</ele>
        <time>2025-01-28T13:05:01Z</time>
      </trkpt>
      <trkpt lat="47.62164" lon="-2.8549">
        <ele>3.3</ele>
        <time>2025-01-28T13:05:02Z</time>
      </trkpt>
      <trkpt lat="47.62164" lon="-2.8549">
        <ele>3.3</ele>
        <time>2025-01-28T13:05:03Z</time>
      </trkpt>
      <trkpt lat="47.62164" lon="-2.8549">
        <ele>3.3</ele>
        <time>2025-01-28T13:05:04Z</time>
      </trkpt>
      <trkpt lat="47.62164" lon="-2.85492">
        <ele>3.4</ele>
        <time>2025-01-28T13:05:05Z</time>
      </trkpt>
      <trkpt lat="47.62163" lon="-2.85493">
        <ele>3.5</ele>
        <time>2025-01-28T13:05:06Z</time>
      </trkpt>
      <trkpt lat="47.62163" lon="-2.85493">
        <ele>3.5</ele>
        <time>2025-01-28T13:05:07Z</time>
      </trkpt>
      <trkpt lat="47.62163" lon="-2.85494">
        <ele>3.6</ele>
        <time>2025-01-28T13:05:08Z</time>
      </trkpt>
      <trkpt lat="47.62162" lon="-2.85496">
        <ele>3.7</ele>
        <time>2025-01-28T13:05:09Z</time>
      </trkpt>
      <trkpt lat="47.62162" lon="-2.85497">
        <ele>3.8</ele>
        <time>2025-01-28T13:05:10Z</time>
      </trkpt>
      <trkpt lat="47.62161" lon="-2.85498">
        <ele>3.9</ele>
        <time>2025-01-28T13:05:11Z</time>
      </trkpt>
      <trkpt lat="47.62161" lon="-2.85499">
        <ele>3.9</ele>
        <time>2025-01-28T13:05:12Z</time>
      </trkpt>
      <trkpt lat="47.6216" lon="-2.855">
        <ele>4</ele>
        <time>2025-01-28T13:05:13Z</time>
      </trkpt>
      <trkpt lat="47.6216" lon="-2.85502">
        <ele>4</ele>
        <time>2025-01-28T13:05:14Z</time>
      </trkpt>
      <trkpt lat="47.6216" lon="-2.85503">
        <ele>4</ele>
        <time>2025-01-28T13:05:15Z</time>
      </trkpt>
      <trkpt lat="47.62159" lon="-2.85505">
        <ele>4</ele>
        <time>2025-01-28T13:05:16Z</time>
      </trkpt>
      <trkpt lat="47.62158" lon="-2.85507">
        <ele>3.9</ele>
        <time>2025-01-28T13:05:17Z</time>
      </trkpt>
      <trkpt lat="47.62158" lon="-2.85508">
        <ele>3.9</ele>
        <time>2025-01-28T13:05:18Z</time>
      </trkpt>
      <trkpt lat="47.62157" lon="-2.8551">
        <ele>3.8</ele>
        <time>2025-01-28T13:05:19Z</time>
      </trkpt>
      <trkpt lat="47.62156" lon="-2.85512">
        <ele>3.8</ele>
        <time>2025-01-28T13:05:20Z</time>
      </trkpt>
      <trkpt lat="47.62155" lon="-2.85514">
        <ele>3.7</ele>
        <time>2025-01-28T13:05:21Z</time>
      </trkpt>
      <trkpt lat="47.62155" lon="-2.85516">
        <ele>3.6</ele>
        <time>2025-01-28T13:05:22Z</time>
      </trkpt>
      <trkpt lat="47.62155" lon="-2.85518">
        <ele>3.5</ele>
        <time>2025-01-28T13:05:23Z</time>
      </trkpt>
      <trkpt lat="47.62154" lon="-2.85519">
        <ele>3.4</ele>
        <time>2025-01-28T13:05:24Z</time>
      </trkpt>
      <trkpt lat="47.62153" lon="-2.85521">
        <ele>3.3</ele>
        <time>2025-01-28T13:05:25Z</time>
      </trkpt>
      <trkpt lat="47.62153" lon="-2.85522">
        <ele>3.3</ele>
        <time>2025-01-28T13:05:26Z</time>
      </trkpt>
      <trkpt lat="47.62153" lon="-2.85523">
        <ele>3.2</ele>
        <time>2025-01-28T13:05:27Z</time>
      </trkpt>
      <trkpt lat="47.62152" lon="-2.85524">
        <ele>3</ele>
        <time>2025-01-28T13:05:28Z</time>
      </trkpt>
      <trkpt lat="47.62152" lon="-2.85526">
        <ele>2.9</ele>
        <time>2025-01-28T13:05:29Z</time>
      </trkpt>
      <trkpt lat="47.62151" lon="-2.85527">
        <ele>2.8</ele>
        <time>2025-01-28T13:05:30Z</time>
      </trkpt>
      <trkpt lat="47.6215" lon="-2.85528">
        <ele>2.7</ele>
        <time>2025-01-28T13:05:31Z</time>
      </trkpt>
      <trkpt lat="47.6215" lon="-2.8553">
        <ele>2.5</ele>
        <time>2025-01-28T13:05:32Z</time>
      </trkpt>
      <trkpt lat="47.62149" lon="-2.85531">
        <ele>2.5</ele>
        <time>2025-01-28T13:05:33Z</time>
      </trkpt>
      <trkpt lat="47.62149" lon="-2.85533">
        <ele>2.4</ele>
        <time>2025-01-28T13:05:34Z</time>
      </trkpt>
      <trkpt lat="47.62149" lon="-2.85534">
        <ele>2.3</ele>
        <time>2025-01-28T13:05:35Z</time>
      </trkpt>
      <trkpt lat="47.62149" lon="-2.85536">
        <ele>2.3</ele>
        <time>2025-01-28T13:05:36Z</time>
      </trkpt>
      <trkpt lat="47.62149" lon="-2.85538">
        <ele>2.3</ele>
        <time>2025-01-28T13:05:37Z</time>
      </trkpt>
      <trkpt lat="47.62149" lon="-2.85539">
        <ele>2.3</ele>
        <time>2025-01-28T13:05:38Z</time>
      </trkpt>
      <trkpt lat="47.62149" lon="-2.85541">
        <ele>2.2</ele>
        <time>2025-01-28T13:05:39Z</time>
      </trkpt>
      <trkpt lat="47.62149" lon="-2.85543">
        <ele>2.2</ele>
        <time>2025-01-28T13:05:40Z</time>
      </trkpt>
      <trkpt lat="47.62148" lon="-2.85545">
        <ele>2.2</ele>
        <time>2025-01-28T13:05:41Z</time>
      </trkpt>
      <trkpt lat="47.62148" lon="-2.85546">
        <ele>2.1</ele>
        <time>2025-01-28T13:05:42Z</time>
      </trkpt>
      <trkpt lat="47.62147" lon="-2.85548">
        <ele>2</ele>
        <time>2025-01-28T13:05:43Z</time>
      </trkpt>
      <trkpt lat="47.62147" lon="-2.8555">
        <ele>1.9</ele>
        <time>2025-01-28T13:05:44Z</time>
      </trkpt>
      <trkpt lat="47.62147" lon="-2.85552">
        <ele>1.9</ele>
        <time>2025-01-28T13:05:45Z</time>
      </trkpt>
      <trkpt lat="47.62147" lon="-2.85554">
        <ele>1.9</ele>
        <time>2025-01-28T13:05:46Z</time>
      </trkpt>
      <trkpt lat="47.62147" lon="-2.85556">
        <ele>1.9</ele>
        <time>2025-01-28T13:05:47Z</time>
      </trkpt>
      <trkpt lat="47.62147" lon="-2.85558">
        <ele>1.8</ele>
        <time>2025-01-28T13:05:48Z</time>
      </trkpt>
      <trkpt lat="47.62146" lon="-2.8556">
        <ele>1.8</ele>
        <time>2025-01-28T13:05:49Z</time>
      </trkpt>
      <trkpt lat="47.62147" lon="-2.85561">
        <ele>1.8</ele>
        <time>2025-01-28T13:05:50Z</time>
      </trkpt>
      <trkpt lat="47.62147" lon="-2.85563">
        <ele>1.8</ele>
        <time>2025-01-28T13:05:51Z</time>
      </trkpt>
      <trkpt lat="47.62147" lon="-2.85565">
        <ele>1.8</ele>
        <time>2025-01-28T13:05:52Z</time>
      </trkpt>
      <trkpt lat="47.62147" lon="-2.85567">
        <ele>1.8</ele>
        <time>2025-01-28T13:05:53Z</time>
      </trkpt>
      <trkpt lat="47.62147" lon="-2.85569">
        <ele>1.8</ele>
        <time>2025-01-28T13:05:54Z</time>
      </trkpt>
      <trkpt lat="47.62147" lon="-2.85571">
        <ele>1.8</ele>
        <time>2025-01-28T13:05:55Z</time>
      </trkpt>
      <trkpt lat="47.62147" lon="-2.85572">
        <ele>1.8</ele>
        <time>2025-01-28T13:05:56Z</time>
      </trkpt>
      <trkpt lat="47.62146" lon="-2.85573">
        <ele>1.8</ele>
        <time>2025-01-28T13:05:57Z</time>
      </trkpt>
      <trkpt lat="47.62146" lon="-2.85574">
        <ele>1.8</ele>
        <time>2025-01-28T13:05:58Z</time>
      </trkpt>
      <trkpt lat="47.62146" lon="-2.85575">
        <ele>1.8</ele>
        <time>2025-01-28T13:05:59Z</time>
      </trkpt>
      <trkpt lat="47.62147" lon="-2.85576">
        <ele>1.9</ele>
        <time>2025-01-28T13:06:00Z</time>
      </trkpt>
      <trkpt lat="47.62147" lon="-2.85577">
        <ele>1.9</ele>
        <time>2025-01-28T13:06:01Z</time>
      </trkpt>
      <trkpt lat="47.62148" lon="-2.85578">
        <ele>2</ele>
        <time>2025-01-28T13:06:02Z</time>
      </trkpt>
      <trkpt lat="47.62149" lon="-2.85578">
        <ele>2.1</ele>
        <time>2025-01-28T13:06:03Z</time>
      </trkpt>
      <trkpt lat="47.6215" lon="-2.85579">
        <ele>2.2</ele>
        <time>2025-01-28T13:06:04Z</time>
      </trkpt>
      <trkpt lat="47.6215" lon="-2.8558">
        <ele>2.2</ele>
        <time>2025-01-28T13:06:05Z</time>
      </trkpt>
      <trkpt lat="47.62151" lon="-2.85582">
        <ele>2.3</ele>
        <time>2025-01-28T13:06:06Z</time>
      </trkpt>
      <trkpt lat="47.62152" lon="-2.85582">
        <ele>2.4</ele>
        <time>2025-01-28T13:06:07Z</time>
      </trkpt>
      <trkpt lat="47.62152" lon="-2.85584">
        <ele>2.4</ele>
        <time>2025-01-28T13:06:08Z</time>
      </trkpt>
      <trkpt lat="47.62152" lon="-2.85585">
        <ele>2.5</ele>
        <time>2025-01-28T13:06:09Z</time>
      </trkpt>
      <trkpt lat="47.62152" lon="-2.85587">
        <ele>2.6</ele>
        <time>2025-01-28T13:06:10Z</time>
      </trkpt>
      <trkpt lat="47.62153" lon="-2.85588">
        <ele>2.7</ele>
        <time>2025-01-28T13:06:11Z</time>
      </trkpt>
      <trkpt lat="47.62153" lon="-2.85589">
        <ele>2.8</ele>
        <time>2025-01-28T13:06:12Z</time>
      </trkpt>
      <trkpt lat="47.62153" lon="-2.8559">
        <ele>2.9</ele>
        <time>2025-01-28T13:06:13Z</time>
      </trkpt>
      <trkpt lat="47.62153" lon="-2.85591">
        <ele>3</ele>
        <time>2025-01-28T13:06:14Z</time>
      </trkpt>
      <trkpt lat="47.62153" lon="-2.85593">
        <ele>3.1</ele>
        <time>2025-01-28T13:06:15Z</time>
      </trkpt>
      <trkpt lat="47.62154" lon="-2.85594">
        <ele>3.1</ele>
        <time>2025-01-28T13:06:16Z</time>
      </trkpt>
      <trkpt lat="47.62154" lon="-2.85596">
        <ele>3.2</ele>
        <time>2025-01-28T13:06:17Z</time>
      </trkpt>
      <trkpt lat="47.62154" lon="-2.85597">
        <ele>3.3</ele>
        <time>2025-01-28T13:06:18Z</time>
      </trkpt>
      <trkpt lat="47.62153" lon="-2.85599">
        <ele>3.4</ele>
        <time>2025-01-28T13:06:19Z</time>
      </trkpt>
      <trkpt lat="47.62153" lon="-2.856">
        <ele>3.4</ele>
        <time>2025-01-28T13:06:20Z</time>
      </trkpt>
      <trkpt lat="47.62154" lon="-2.85601">
        <ele>3.5</ele>
        <time>2025-01-28T13:06:21Z</time>
      </trkpt>
      <trkpt lat="47.62154" lon="-2.85601">
        <ele>3.5</ele>
        <time>2025-01-28T13:06:22Z</time>
      </trkpt>
      <trkpt lat="47.62155" lon="-2.85602">
        <ele>3.6</ele>
        <time>2025-01-28T13:06:23Z</time>
      </trkpt>
      <trkpt lat="47.62155" lon="-2.85603">
        <ele>3.6</ele>
        <time>2025-01-28T13:06:24Z</time>
      </trkpt>
      <trkpt lat="47.62156" lon="-2.85604">
        <ele>3.7</ele>
        <time>2025-01-28T13:06:25Z</time>
      </trkpt>
      <trkpt lat="47.62155" lon="-2.85606">
        <ele>3.8</ele>
        <time>2025-01-28T13:06:26Z</time>
      </trkpt>
      <trkpt lat="47.62155" lon="-2.85607">
        <ele>3.8</ele>
        <time>2025-01-28T13:06:27Z</time>
      </trkpt>
      <trkpt lat="47.62155" lon="-2.85608">
        <ele>3.9</ele>
        <time>2025-01-28T13:06:28Z</time>
      </trkpt>
      <trkpt lat="47.62156" lon="-2.85609">
        <ele>3.9</ele>
        <time>2025-01-28T13:06:29Z</time>
      </trkpt>
      <trkpt lat="47.62156" lon="-2.85611">
        <ele>4</ele>
        <time>2025-01-28T13:06:30Z</time>
      </trkpt>
      <trkpt lat="47.62157" lon="-2.85611">
        <ele>4</ele>
        <time>2025-01-28T13:06:31Z</time>
      </trkpt>
      <trkpt lat="47.62158" lon="-2.85613">
        <ele>3.8</ele>
        <time>2025-01-28T13:06:32Z</time>
      </trkpt>
      <trkpt lat="47.62159" lon="-2.85613">
        <ele>3.8</ele>
        <time>2025-01-28T13:06:33Z</time>
      </trkpt>
      <trkpt lat="47.6216" lon="-2.85614">
        <ele>3.7</ele>
        <time>2025-01-28T13:06:34Z</time>
      </trkpt>
      <trkpt lat="47.6216" lon="-2.85615">
        <ele>3.6</ele>
        <time>2025-01-28T13:06:35Z</time>
      </trkpt>
      <trkpt lat="47.62161" lon="-2.85616">
        <ele>3.5</ele>
        <time>2025-01-28T13:06:36Z</time>
      </trkpt>
      <trkpt lat="47.62162" lon="-2.85616">
        <ele>3.4</ele>
        <time>2025-01-28T13:06:37Z</time>
      </trkpt>
      <trkpt lat="47.62163" lon="-2.85617">
        <ele>3.4</ele>
        <time>2025-01-28T13:06:38Z</time>
      </trkpt>
      <trkpt lat="47.62164" lon="-2.85617">
        <ele>3.4</ele>
        <time>2025-01-28T13:06:39Z</time>
      </trkpt>
      <trkpt lat="47.62165" lon="-2.85617">
        <ele>3.4</ele>
        <time>2025-01-28T13:06:40Z</time>
      </trkpt>
      <trkpt lat="47.62165" lon="-2.85617">
        <ele>3.4</ele>
        <time>2025-01-28T13:06:41Z</time>
      </trkpt>
      <trkpt lat="47.62166" lon="-2.85617">
        <ele>3.3</ele>
        <time>2025-01-28T13:06:42Z</time>
      </trkpt>
      <trkpt lat="47.62167" lon="-2.85617">
        <ele>3.3</ele>
        <time>2025-01-28T13:06:43Z</time>
      </trkpt>
      <trkpt lat="47.62169" lon="-2.85616">
        <ele>3.3</ele>
        <time>2025-01-28T13:06:44Z</time>
      </trkpt>
      <trkpt lat="47.62169" lon="-2.85616">
        <ele>3.3</ele>
        <time>2025-01-28T13:06:45Z</time>
      </trkpt>
      <trkpt lat="47.6217" lon="-2.85615">
        <ele>3.3</ele>
        <time>2025-01-28T13:06:46Z</time>
      </trkpt>
      <trkpt lat="47.62171" lon="-2.85614">
        <ele>3.4</ele>
        <time>2025-01-28T13:06:47Z</time>
      </trkpt>
      <trkpt lat="47.62171" lon="-2.85613">
        <ele>3.3</ele>
        <time>2025-01-28T13:06:48Z</time>
      </trkpt>
      <trkpt lat="47.62171" lon="-2.85613">
        <ele>3.4</ele>
        <time>2025-01-28T13:06:49Z</time>
      </trkpt>
      <trkpt lat="47.62172" lon="-2.85612">
        <ele>3.4</ele>
        <time>2025-01-28T13:06:50Z</time>
      </trkpt>
      <trkpt lat="47.62173" lon="-2.85611">
        <ele>3.4</ele>
        <time>2025-01-28T13:06:51Z</time>
      </trkpt>
      <trkpt lat="47.62173" lon="-2.85611">
        <ele>3.3</ele>
        <time>2025-01-28T13:06:52Z</time>
      </trkpt>
      <trkpt lat="47.62174" lon="-2.8561">
        <ele>3.3</ele>
        <time>2025-01-28T13:06:53Z</time>
      </trkpt>
      <trkpt lat="47.62174" lon="-2.85609">
        <ele>3.3</ele>
        <time>2025-01-28T13:06:54Z</time>
      </trkpt>
      <trkpt lat="47.62175" lon="-2.85608">
        <ele>3.2</ele>
        <time>2025-01-28T13:06:55Z</time>
      </trkpt>
      <trkpt lat="47.62176" lon="-2.85607">
        <ele>3.2</ele>
        <time>2025-01-28T13:06:56Z</time>
      </trkpt>
      <trkpt lat="47.62176" lon="-2.85607">
        <ele>3.2</ele>
        <time>2025-01-28T13:06:57Z</time>
      </trkpt>
      <trkpt lat="47.62177" lon="-2.85606">
        <ele>3.1</ele>
        <time>2025-01-28T13:06:58Z</time>
      </trkpt>
      <trkpt lat="47.62178" lon="-2.85605">
        <ele>3.1</ele>
        <time>2025-01-28T13:06:59Z</time>
      </trkpt>
      <trkpt lat="47.62179" lon="-2.85604">
        <ele>3.1</ele>
        <time>2025-01-28T13:07:00Z</time>
      </trkpt>
      <trkpt lat="47.6218" lon="-2.85604">
        <ele>3.1</ele>
        <time>2025-01-28T13:07:01Z</time>
      </trkpt>
      <trkpt lat="47.6218" lon="-2.85603">
        <ele>3.1</ele>
        <time>2025-01-28T13:07:02Z</time>
      </trkpt>
      <trkpt lat="47.62181" lon="-2.85602">
        <ele>3.1</ele>
        <time>2025-01-28T13:07:03Z</time>
      </trkpt>
      <trkpt lat="47.62182" lon="-2.85602">
        <ele>3.1</ele>
        <time>2025-01-28T13:07:04Z</time>
      </trkpt>
      <trkpt lat="47.62183" lon="-2.85601">
        <ele>3.1</ele>
        <time>2025-01-28T13:07:05Z</time>
      </trkpt>
      <trkpt lat="47.62184" lon="-2.856">
        <ele>3.1</ele>
        <time>2025-01-28T13:07:06Z</time>
      </trkpt>
      <trkpt lat="47.62185" lon="-2.856">
        <ele>3.1</ele>
        <time>2025-01-28T13:07:07Z</time>
      </trkpt>
      <trkpt lat="47.62185" lon="-2.85598">
        <ele>3.2</ele>
        <time>2025-01-28T13:07:08Z</time>
      </trkpt>
      <trkpt lat="47.62186" lon="-2.85598">
        <ele>3.2</ele>
        <time>2025-01-28T13:07:09Z</time>
      </trkpt>
      <trkpt lat="47.62187" lon="-2.85597">
        <ele>3.3</ele>
        <time>2025-01-28T13:07:10Z</time>
      </trkpt>
      <trkpt lat="47.62188" lon="-2.85596">
        <ele>3.3</ele>
        <time>2025-01-28T13:07:11Z</time>
      </trkpt>
      <trkpt lat="47.62189" lon="-2.85596">
        <ele>3.4</ele>
        <time>2025-01-28T13:07:12Z</time>
      </trkpt>
      <trkpt lat="47.6219" lon="-2.85595">
        <ele>3.4</ele>
        <time>2025-01-28T13:07:13Z</time>
      </trkpt>
      <trkpt lat="47.62191" lon="-2.85595">
        <ele>3.4</ele>
        <time>2025-01-28T13:07:14Z</time>
      </trkpt>
      <trkpt lat="47.62192" lon="-2.85595">
        <ele>3.4</ele>
        <time>2025-01-28T13:07:15Z</time>
      </trkpt>
      <trkpt lat="47.62193" lon="-2.85594">
        <ele>3.5</ele>
        <time>2025-01-28T13:07:16Z</time>
      </trkpt>
      <trkpt lat="47.62194" lon="-2.85593">
        <ele>3.6</ele>
        <time>2025-01-28T13:07:17Z</time>
      </trkpt>
      <trkpt lat="47.62195" lon="-2.85592">
        <ele>3.7</ele>
        <time>2025-01-28T13:07:18Z</time>
      </trkpt>
      <trkpt lat="47.62196" lon="-2.85591">
        <ele>3.8</ele>
        <time>2025-01-28T13:07:19Z</time>
      </trkpt>
      <trkpt lat="47.62197" lon="-2.85591">
        <ele>3.8</ele>
        <time>2025-01-28T13:07:20Z</time>
      </trkpt>
      <trkpt lat="47.62198" lon="-2.8559">
        <ele>3.9</ele>
        <time>2025-01-28T13:07:21Z</time>
      </trkpt>
      <trkpt lat="47.62199" lon="-2.85589">
        <ele>4</ele>
        <time>2025-01-28T13:07:22Z</time>
      </trkpt>
      <trkpt lat="47.622" lon="-2.85588">
        <ele>4</ele>
        <time>2025-01-28T13:07:23Z</time>
      </trkpt>
      <trkpt lat="47.62201" lon="-2.85587">
        <ele>4.1</ele>
        <time>2025-01-28T13:07:24Z</time>
      </trkpt>
      <trkpt lat="47.62202" lon="-2.85587">
        <ele>4.1</ele>
        <time>2025-01-28T13:07:25Z</time>
      </trkpt>
      <trkpt lat="47.62202" lon="-2.85586">
        <ele>4.2</ele>
        <time>2025-01-28T13:07:26Z</time>
      </trkpt>
      <trkpt lat="47.62203" lon="-2.85585">
        <ele>4.2</ele>
        <time>2025-01-28T13:07:27Z</time>
      </trkpt>
      <trkpt lat="47.62204" lon="-2.85585">
        <ele>4.2</ele>
        <time>2025-01-28T13:07:28Z</time>
      </trkpt>
      <trkpt lat="47.62205" lon="-2.85584">
        <ele>4.2</ele>
        <time>2025-01-28T13:07:29Z</time>
      </trkpt>
      <trkpt lat="47.62206" lon="-2.85583">
        <ele>4.2</ele>
        <time>2025-01-28T13:07:30Z</time>
      </trkpt>
      <trkpt lat="47.62207" lon="-2.85583">
        <ele>4.1</ele>
        <time>2025-01-28T13:07:31Z</time>
      </trkpt>
      <trkpt lat="47.62209" lon="-2.85583">
        <ele>4</ele>
        <time>2025-01-28T13:07:32Z</time>
      </trkpt>
      <trkpt lat="47.6221" lon="-2.85584">
        <ele>3.8</ele>
        <time>2025-01-28T13:07:33Z</time>
      </trkpt>
      <trkpt lat="47.62211" lon="-2.85585">
        <ele>3.7</ele>
        <time>2025-01-28T13:07:34Z</time>
      </trkpt>
      <trkpt lat="47.62212" lon="-2.85585">
        <ele>3.6</ele>
        <time>2025-01-28T13:07:35Z</time>
      </trkpt>
      <trkpt lat="47.62213" lon="-2.85587">
        <ele>3.4</ele>
        <time>2025-01-28T13:07:36Z</time>
      </trkpt>
      <trkpt lat="47.62212" lon="-2.85588">
        <ele>3.4</ele>
        <time>2025-01-28T13:07:37Z</time>
      </trkpt>
      <trkpt lat="47.62211" lon="-2.85588">
        <ele>3.4</ele>
        <time>2025-01-28T13:07:38Z</time>
      </trkpt>
      <trkpt lat="47.62211" lon="-2.85588">
        <ele>3.4</ele>
        <time>2025-01-28T13:07:39Z</time>
      </trkpt>
      <trkpt lat="47.62211" lon="-2.85588">
        <ele>3.4</ele>
        <time>2025-01-28T13:07:40Z</time>
      </trkpt>
      <trkpt lat="47.62211" lon="-2.85588">
        <ele>3.4</ele>
        <time>2025-01-28T13:07:41Z</time>
      </trkpt>
      <trkpt lat="47.62211" lon="-2.85588">
        <ele>3.4</ele>
        <time>2025-01-28T13:07:42Z</time>
      </trkpt>
      <trkpt lat="47.62208" lon="-2.85588">
        <ele>3.6</ele>
        <time>2025-01-28T13:07:43Z</time>
      </trkpt>
      <trkpt lat="47.62206" lon="-2.85591">
        <ele>3.4</ele>
        <time>2025-01-28T13:07:44Z</time>
      </trkpt>
      <trkpt lat="47.62206" lon="-2.85592">
        <ele>3.3</ele>
        <time>2025-01-28T13:07:45Z</time>
      </trkpt>
      <trkpt lat="47.62208" lon="-2.85596">
        <ele>2.9</ele>
        <time>2025-01-28T13:07:46Z</time>
      </trkpt>
      <trkpt lat="47.62211" lon="-2.85595">
        <ele>2.9</ele>
        <time>2025-01-28T13:07:47Z</time>
      </trkpt>
      <trkpt lat="47.62213" lon="-2.85592">
        <ele>3</ele>
        <time>2025-01-28T13:07:48Z</time>
      </trkpt>
      <trkpt lat="47.62214" lon="-2.85591">
        <ele>3.1</ele>
        <time>2025-01-28T13:07:49Z</time>
      </trkpt>
      <trkpt lat="47.62215" lon="-2.8559">
        <ele>3.1</ele>
        <time>2025-01-28T13:07:50Z</time>
      </trkpt>
      <trkpt lat="47.62216" lon="-2.85589">
        <ele>3.1</ele>
        <time>2025-01-28T13:07:51Z</time>
      </trkpt>
      <trkpt lat="47.62217" lon="-2.85589">
        <ele>3</ele>
        <time>2025-01-28T13:07:52Z</time>
      </trkpt>
      <trkpt lat="47.62219" lon="-2.85589">
        <ele>3</ele>
        <time>2025-01-28T13:07:53Z</time>
      </trkpt>
      <trkpt lat="47.6222" lon="-2.85588">
        <ele>2.9</ele>
        <time>2025-01-28T13:07:54Z</time>
      </trkpt>
      <trkpt lat="47.62221" lon="-2.85588">
        <ele>2.9</ele>
        <time>2025-01-28T13:07:55Z</time>
      </trkpt>
      <trkpt lat="47.62223" lon="-2.85589">
        <ele>2.8</ele>
        <time>2025-01-28T13:07:56Z</time>
      </trkpt>
      <trkpt lat="47.62224" lon="-2.85589">
        <ele>3</ele>
        <time>2025-01-28T13:07:57Z</time>
      </trkpt>
      <trkpt lat="47.62225" lon="-2.8559">
        <ele>3.1</ele>
        <time>2025-01-28T13:07:58Z</time>
      </trkpt>
      <trkpt lat="47.62226" lon="-2.85591">
        <ele>3.2</ele>
        <time>2025-01-28T13:07:59Z</time>
      </trkpt>
      <trkpt lat="47.62227" lon="-2.85592">
        <ele>3.3</ele>
        <time>2025-01-28T13:08:00Z</time>
      </trkpt>
      <trkpt lat="47.62228" lon="-2.85593">
        <ele>3.5</ele>
        <time>2025-01-28T13:08:01Z</time>
      </trkpt>
      <trkpt lat="47.6223" lon="-2.85594">
        <ele>3.6</ele>
        <time>2025-01-28T13:08:02Z</time>
      </trkpt>
      <trkpt lat="47.6223" lon="-2.85594">
        <ele>3.7</ele>
        <time>2025-01-28T13:08:03Z</time>
      </trkpt>
      <trkpt lat="47.6223" lon="-2.85594">
        <ele>3.7</ele>
        <time>2025-01-28T13:08:04Z</time>
      </trkpt>
      <trkpt lat="47.6223" lon="-2.85594">
        <ele>3.7</ele>
        <time>2025-01-28T13:08:05Z</time>
      </trkpt>
      <trkpt lat="47.6223" lon="-2.85594">
        <ele>3.7</ele>
        <time>2025-01-28T13:08:06Z</time>
      </trkpt>
      <trkpt lat="47.6223" lon="-2.85594">
        <ele>3.7</ele>
        <time>2025-01-28T13:08:07Z</time>
      </trkpt>
      <trkpt lat="47.6223" lon="-2.85594">
        <ele>3.7</ele>
        <time>2025-01-28T13:08:08Z</time>
      </trkpt>
      <trkpt lat="47.6223" lon="-2.85594">
        <ele>3.7</ele>
        <time>2025-01-28T13:08:09Z</time>
      </trkpt>
      <trkpt lat="47.6223" lon="-2.85594">
        <ele>3.7</ele>
        <time>2025-01-28T13:08:10Z</time>
      </trkpt>
      <trkpt lat="47.6223" lon="-2.85594">
        <ele>3.7</ele>
        <time>2025-01-28T13:08:11Z</time>
      </trkpt>
      <trkpt lat="47.62231" lon="-2.85594">
        <ele>3.9</ele>
        <time>2025-01-28T13:08:12Z</time>
      </trkpt>
      <trkpt lat="47.62232" lon="-2.85595">
        <ele>4</ele>
        <time>2025-01-28T13:08:13Z</time>
      </trkpt>
      <trkpt lat="47.62233" lon="-2.85596">
        <ele>4.3</ele>
        <time>2025-01-28T13:08:14Z</time>
      </trkpt>
      <trkpt lat="47.62234" lon="-2.85597">
        <ele>4.4</ele>
        <time>2025-01-28T13:08:15Z</time>
      </trkpt>
      <trkpt lat="47.62235" lon="-2.85598">
        <ele>4.6</ele>
        <time>2025-01-28T13:08:16Z</time>
      </trkpt>
      <trkpt lat="47.62236" lon="-2.85599">
        <ele>4.8</ele>
        <time>2025-01-28T13:08:17Z</time>
      </trkpt>
      <trkpt lat="47.62237" lon="-2.856">
        <ele>5</ele>
        <time>2025-01-28T13:08:18Z</time>
      </trkpt>
      <trkpt lat="47.62237" lon="-2.85601">
        <ele>5.1</ele>
        <time>2025-01-28T13:08:19Z</time>
      </trkpt>
      <trkpt lat="47.62238" lon="-2.85602">
        <ele>5.3</ele>
        <time>2025-01-28T13:08:20Z</time>
      </trkpt>
      <trkpt lat="47.62238" lon="-2.85603">
        <ele>5.5</ele>
        <time>2025-01-28T13:08:21Z</time>
      </trkpt>
      <trkpt lat="47.62238" lon="-2.85604">
        <ele>5.6</ele>
        <time>2025-01-28T13:08:22Z</time>
      </trkpt>
      <trkpt lat="47.62238" lon="-2.85605">
        <ele>5.5</ele>
        <time>2025-01-28T13:08:23Z</time>
      </trkpt>
      <trkpt lat="47.62237" lon="-2.85607">
        <ele>5.5</ele>
        <time>2025-01-28T13:08:24Z</time>
      </trkpt>
      <trkpt lat="47.62237" lon="-2.85608">
        <ele>5.5</ele>
        <time>2025-01-28T13:08:25Z</time>
      </trkpt>
      <trkpt lat="47.62237" lon="-2.85609">
        <ele>5.6</ele>
        <time>2025-01-28T13:08:26Z</time>
      </trkpt>
      <trkpt lat="47.62237" lon="-2.8561">
        <ele>5.5</ele>
        <time>2025-01-28T13:08:27Z</time>
      </trkpt>
      <trkpt lat="47.62236" lon="-2.85611">
        <ele>5.5</ele>
        <time>2025-01-28T13:08:28Z</time>
      </trkpt>
      <trkpt lat="47.62236" lon="-2.85612">
        <ele>5.4</ele>
        <time>2025-01-28T13:08:29Z</time>
      </trkpt>
      <trkpt lat="47.62235" lon="-2.85613">
        <ele>5.4</ele>
        <time>2025-01-28T13:08:30Z</time>
      </trkpt>
      <trkpt lat="47.62235" lon="-2.85614">
        <ele>5.3</ele>
        <time>2025-01-28T13:08:31Z</time>
      </trkpt>
      <trkpt lat="47.62234" lon="-2.85615">
        <ele>5.1</ele>
        <time>2025-01-28T13:08:32Z</time>
      </trkpt>
      <trkpt lat="47.62234" lon="-2.85615">
        <ele>5</ele>
        <time>2025-01-28T13:08:33Z</time>
      </trkpt>
      <trkpt lat="47.62233" lon="-2.85616">
        <ele>4.9</ele>
        <time>2025-01-28T13:08:34Z</time>
      </trkpt>
      <trkpt lat="47.62233" lon="-2.85617">
        <ele>4.9</ele>
        <time>2025-01-28T13:08:35Z</time>
      </trkpt>
      <trkpt lat="47.62233" lon="-2.85619">
        <ele>4.9</ele>
        <time>2025-01-28T13:08:36Z</time>
      </trkpt>
      <trkpt lat="47.62233" lon="-2.8562">
        <ele>5</ele>
        <time>2025-01-28T13:08:37Z</time>
      </trkpt>
      <trkpt lat="47.62233" lon="-2.85621">
        <ele>5</ele>
        <time>2025-01-28T13:08:38Z</time>
      </trkpt>
      <trkpt lat="47.62233" lon="-2.85623">
        <ele>5.1</ele>
        <time>2025-01-28T13:08:39Z</time>
      </trkpt>
      <trkpt lat="47.62233" lon="-2.85624">
        <ele>5.2</ele>
        <time>2025-01-28T13:08:40Z</time>
      </trkpt>
      <trkpt lat="47.62234" lon="-2.85625">
        <ele>5.4</ele>
        <time>2025-01-28T13:08:41Z</time>
      </trkpt>
      <trkpt lat="47.62234" lon="-2.85626">
        <ele>5.5</ele>
        <time>2025-01-28T13:08:42Z</time>
      </trkpt>
      <trkpt lat="47.62234" lon="-2.85628">
        <ele>5.5</ele>
        <time>2025-01-28T13:08:43Z</time>
      </trkpt>
      <trkpt lat="47.62234" lon="-2.85629">
        <ele>5.6</ele>
        <time>2025-01-28T13:08:44Z</time>
      </trkpt>
      <trkpt lat="47.62234" lon="-2.8563">
        <ele>5.7</ele>
        <time>2025-01-28T13:08:45Z</time>
      </trkpt>
      <trkpt lat="47.62234" lon="-2.85631">
        <ele>5.7</ele>
        <time>2025-01-28T13:08:46Z</time>
      </trkpt>
      <trkpt lat="47.62234" lon="-2.85632">
        <ele>5.7</ele>
        <time>2025-01-28T13:08:47Z</time>
      </trkpt>
      <trkpt lat="47.62234" lon="-2.85634">
        <ele>5.7</ele>
        <time>2025-01-28T13:08:48Z</time>
      </trkpt>
      <trkpt lat="47.62234" lon="-2.85635">
        <ele>5.8</ele>
        <time>2025-01-28T13:08:49Z</time>
      </trkpt>
      <trkpt lat="47.62234" lon="-2.85636">
        <ele>5.8</ele>
        <time>2025-01-28T13:08:50Z</time>
      </trkpt>
      <trkpt lat="47.62233" lon="-2.85637">
        <ele>5.8</ele>
        <time>2025-01-28T13:08:51Z</time>
      </trkpt>
      <trkpt lat="47.62233" lon="-2.85639">
        <ele>5.7</ele>
        <time>2025-01-28T13:08:52Z</time>
      </trkpt>
      <trkpt lat="47.62233" lon="-2.8564">
        <ele>5.6</ele>
        <time>2025-01-28T13:08:53Z</time>
      </trkpt>
      <trkpt lat="47.62233" lon="-2.85641">
        <ele>5.6</ele>
        <time>2025-01-28T13:08:54Z</time>
      </trkpt>
      <trkpt lat="47.62232" lon="-2.85643">
        <ele>5.6</ele>
        <time>2025-01-28T13:08:55Z</time>
      </trkpt>
      <trkpt lat="47.62233" lon="-2.85644">
        <ele>5.6</ele>
        <time>2025-01-28T13:08:56Z</time>
      </trkpt>
      <trkpt lat="47.62233" lon="-2.85646">
        <ele>5.6</ele>
        <time>2025-01-28T13:08:57Z</time>
      </trkpt>
      <trkpt lat="47.62233" lon="-2.85647">
        <ele>5.7</ele>
        <time>2025-01-28T13:08:58Z</time>
      </trkpt>
      <trkpt lat="47.62233" lon="-2.85648">
        <ele>5.7</ele>
        <time>2025-01-28T13:08:59Z</time>
      </trkpt>
      <trkpt lat="47.62233" lon="-2.8565">
        <ele>5.7</ele>
        <time>2025-01-28T13:09:00Z</time>
      </trkpt>
      <trkpt lat="47.62233" lon="-2.85652">
        <ele>5.7</ele>
        <time>2025-01-28T13:09:01Z</time>
      </trkpt>
      <trkpt lat="47.62233" lon="-2.85653">
        <ele>5.8</ele>
        <time>2025-01-28T13:09:02Z</time>
      </trkpt>
      <trkpt lat="47.62233" lon="-2.85655">
        <ele>5.8</ele>
        <time>2025-01-28T13:09:03Z</time>
      </trkpt>
      <trkpt lat="47.62233" lon="-2.85657">
        <ele>5.8</ele>
        <time>2025-01-28T13:09:04Z</time>
      </trkpt>
      <trkpt lat="47.62233" lon="-2.85658">
        <ele>5.8</ele>
        <time>2025-01-28T13:09:05Z</time>
      </trkpt>
      <trkpt lat="47.62234" lon="-2.8566">
        <ele>5.8</ele>
        <time>2025-01-28T13:09:06Z</time>
      </trkpt>
      <trkpt lat="47.62233" lon="-2.85662">
        <ele>5.8</ele>
        <time>2025-01-28T13:09:07Z</time>
      </trkpt>
      <trkpt lat="47.62233" lon="-2.85664">
        <ele>5.7</ele>
        <time>2025-01-28T13:09:08Z</time>
      </trkpt>
      <trkpt lat="47.62232" lon="-2.85665">
        <ele>5.5</ele>
        <time>2025-01-28T13:09:09Z</time>
      </trkpt>
      <trkpt lat="47.62231" lon="-2.85667">
        <ele>5.3</ele>
        <time>2025-01-28T13:09:10Z</time>
      </trkpt>
      <trkpt lat="47.62231" lon="-2.85669">
        <ele>5.2</ele>
        <time>2025-01-28T13:09:11Z</time>
      </trkpt>
      <trkpt lat="47.6223" lon="-2.8567">
        <ele>5.1</ele>
        <time>2025-01-28T13:09:12Z</time>
      </trkpt>
      <trkpt lat="47.6223" lon="-2.85672">
        <ele>5</ele>
        <time>2025-01-28T13:09:13Z</time>
      </trkpt>
      <trkpt lat="47.62229" lon="-2.85673">
        <ele>4.8</ele>
        <time>2025-01-28T13:09:14Z</time>
      </trkpt>
      <trkpt lat="47.62228" lon="-2.85675">
        <ele>4.7</ele>
        <time>2025-01-28T13:09:15Z</time>
      </trkpt>
      <trkpt lat="47.62228" lon="-2.85677">
        <ele>4.6</ele>
        <time>2025-01-28T13:09:16Z</time>
      </trkpt>
      <trkpt lat="47.62227" lon="-2.85678">
        <ele>4.5</ele>
        <time>2025-01-28T13:09:17Z</time>
      </trkpt>
      <trkpt lat="47.62226" lon="-2.8568">
        <ele>4.3</ele>
        <time>2025-01-28T13:09:18Z</time>
      </trkpt>
      <trkpt lat="47.62225" lon="-2.85682">
        <ele>4.2</ele>
        <time>2025-01-28T13:09:19Z</time>
      </trkpt>
      <trkpt lat="47.62225" lon="-2.85684">
        <ele>4.1</ele>
        <time>2025-01-28T13:09:20Z</time>
      </trkpt>
      <trkpt lat="47.62224" lon="-2.85685">
        <ele>4</ele>
        <time>2025-01-28T13:09:21Z</time>
      </trkpt>
      <trkpt lat="47.62223" lon="-2.85687">
        <ele>3.8</ele>
        <time>2025-01-28T13:09:22Z</time>
      </trkpt>
      <trkpt lat="47.62222" lon="-2.85688">
        <ele>3.8</ele>
        <time>2025-01-28T13:09:23Z</time>
      </trkpt>
      <trkpt lat="47.62222" lon="-2.8569">
        <ele>3.8</ele>
        <time>2025-01-28T13:09:24Z</time>
      </trkpt>
      <trkpt lat="47.62223" lon="-2.85691">
        <ele>4</ele>
        <time>2025-01-28T13:09:25Z</time>
      </trkpt>
      <trkpt lat="47.62224" lon="-2.85692">
        <ele>4.2</ele>
        <time>2025-01-28T13:09:26Z</time>
      </trkpt>
      <trkpt lat="47.62224" lon="-2.85693">
        <ele>4.4</ele>
        <time>2025-01-28T13:09:27Z</time>
      </trkpt>
      <trkpt lat="47.62225" lon="-2.85694">
        <ele>4.5</ele>
        <time>2025-01-28T13:09:28Z</time>
      </trkpt>
      <trkpt lat="47.62226" lon="-2.85695">
        <ele>4.6</ele>
        <time>2025-01-28T13:09:29Z</time>
      </trkpt>
      <trkpt lat="47.62227" lon="-2.85696">
        <ele>4.6</ele>
        <time>2025-01-28T13:09:30Z</time>
      </trkpt>
      <trkpt lat="47.62227" lon="-2.85697">
        <ele>4.6</ele>
        <time>2025-01-28T13:09:31Z</time>
      </trkpt>
      <trkpt lat="47.62228" lon="-2.85699">
        <ele>4.6</ele>
        <time>2025-01-28T13:09:32Z</time>
      </trkpt>
      <trkpt lat="47.62228" lon="-2.857">
        <ele>4.6</ele>
        <time>2025-01-28T13:09:33Z</time>
      </trkpt>
      <trkpt lat="47.62229" lon="-2.85701">
        <ele>4.6</ele>
        <time>2025-01-28T13:09:34Z</time>
      </trkpt>
      <trkpt lat="47.62229" lon="-2.85703">
        <ele>4.6</ele>
        <time>2025-01-28T13:09:35Z</time>
      </trkpt>
      <trkpt lat="47.62229" lon="-2.85703">
        <ele>4.5</ele>
        <time>2025-01-28T13:09:36Z</time>
      </trkpt>
      <trkpt lat="47.62229" lon="-2.85703">
        <ele>4.5</ele>
        <time>2025-01-28T13:09:37Z</time>
      </trkpt>
      <trkpt lat="47.62229" lon="-2.85703">
        <ele>4.5</ele>
        <time>2025-01-28T13:09:38Z</time>
      </trkpt>
      <trkpt lat="47.62229" lon="-2.85703">
        <ele>4.5</ele>
        <time>2025-01-28T13:09:39Z</time>
      </trkpt>
      <trkpt lat="47.62229" lon="-2.85703">
        <ele>4.5</ele>
        <time>2025-01-28T13:09:40Z</time>
      </trkpt>
      <trkpt lat="47.62229" lon="-2.85703">
        <ele>4.5</ele>
        <time>2025-01-28T13:09:41Z</time>
      </trkpt>
      <trkpt lat="47.62229" lon="-2.85703">
        <ele>4.5</ele>
        <time>2025-01-28T13:09:42Z</time>
      </trkpt>
      <trkpt lat="47.62229" lon="-2.85703">
        <ele>4.5</ele>
        <time>2025-01-28T13:09:43Z</time>
      </trkpt>
      <trkpt lat="47.62229" lon="-2.85703">
        <ele>4.5</ele>
        <time>2025-01-28T13:09:44Z</time>
      </trkpt>
      <trkpt lat="47.62229" lon="-2.85703">
        <ele>4.5</ele>
        <time>2025-01-28T13:09:45Z</time>
      </trkpt>
      <trkpt lat="47.6223" lon="-2.85704">
        <ele>4.5</ele>
        <time>2025-01-28T13:09:46Z</time>
      </trkpt>
      <trkpt lat="47.6223" lon="-2.85704">
        <ele>4.5</ele>
        <time>2025-01-28T13:09:47Z</time>
      </trkpt>
      <trkpt lat="47.62231" lon="-2.85705">
        <ele>4.6</ele>
        <time>2025-01-28T13:09:48Z</time>
      </trkpt>
      <trkpt lat="47.62232" lon="-2.85706">
        <ele>4.7</ele>
        <time>2025-01-28T13:09:49Z</time>
      </trkpt>
      <trkpt lat="47.62232" lon="-2.85707">
        <ele>4.8</ele>
        <time>2025-01-28T13:09:50Z</time>
      </trkpt>
      <trkpt lat="47.62233" lon="-2.85709">
        <ele>4.8</ele>
        <time>2025-01-28T13:09:51Z</time>
      </trkpt>
      <trkpt lat="47.62234" lon="-2.8571">
        <ele>4.8</ele>
        <time>2025-01-28T13:09:52Z</time>
      </trkpt>
      <trkpt lat="47.62234" lon="-2.85711">
        <ele>4.8</ele>
        <time>2025-01-28T13:09:53Z</time>
      </trkpt>
      <trkpt lat="47.62235" lon="-2.85713">
        <ele>4.8</ele>
        <time>2025-01-28T13:09:54Z</time>
      </trkpt>
      <trkpt lat="47.62234" lon="-2.85715">
        <ele>4.5</ele>
        <time>2025-01-28T13:09:55Z</time>
      </trkpt>
      <trkpt lat="47.62234" lon="-2.85717">
        <ele>4.4</ele>
        <time>2025-01-28T13:09:56Z</time>
      </trkpt>
      <trkpt lat="47.62234" lon="-2.85719">
        <ele>4.3</ele>
        <time>2025-01-28T13:09:57Z</time>
      </trkpt>
      <trkpt lat="47.62235" lon="-2.8572">
        <ele>4.3</ele>
        <time>2025-01-28T13:09:58Z</time>
      </trkpt>
      <trkpt lat="47.62235" lon="-2.85721">
        <ele>4.2</ele>
        <time>2025-01-28T13:09:59Z</time>
      </trkpt>
      <trkpt lat="47.62235" lon="-2.85722">
        <ele>4.3</ele>
        <time>2025-01-28T13:10:00Z</time>
      </trkpt>
      <trkpt lat="47.62236" lon="-2.85724">
        <ele>4.3</ele>
        <time>2025-01-28T13:10:01Z</time>
      </trkpt>
      <trkpt lat="47.62236" lon="-2.85725">
        <ele>4.4</ele>
        <time>2025-01-28T13:10:02Z</time>
      </trkpt>
      <trkpt lat="47.62236" lon="-2.85727">
        <ele>4.4</ele>
        <time>2025-01-28T13:10:03Z</time>
      </trkpt>
      <trkpt lat="47.62236" lon="-2.85728">
        <ele>4.5</ele>
        <time>2025-01-28T13:10:04Z</time>
      </trkpt>
      <trkpt lat="47.62237" lon="-2.8573">
        <ele>4.5</ele>
        <time>2025-01-28T13:10:05Z</time>
      </trkpt>
      <trkpt lat="47.62237" lon="-2.85731">
        <ele>4.6</ele>
        <time>2025-01-28T13:10:06Z</time>
      </trkpt>
      <trkpt lat="47.62237" lon="-2.85733">
        <ele>4.5</ele>
        <time>2025-01-28T13:10:07Z</time>
      </trkpt>
      <trkpt lat="47.62237" lon="-2.85735">
        <ele>4.5</ele>
        <time>2025-01-28T13:10:08Z</time>
      </trkpt>
      <trkpt lat="47.62236" lon="-2.85736">
        <ele>4.3</ele>
        <time>2025-01-28T13:10:09Z</time>
      </trkpt>
      <trkpt lat="47.62237" lon="-2.85739">
        <ele>4.3</ele>
        <time>2025-01-28T13:10:10Z</time>
      </trkpt>
      <trkpt lat="47.62236" lon="-2.8574">
        <ele>4.2</ele>
        <time>2025-01-28T13:10:11Z</time>
      </trkpt>
      <trkpt lat="47.62236" lon="-2.85742">
        <ele>4.1</ele>
        <time>2025-01-28T13:10:12Z</time>
      </trkpt>
      <trkpt lat="47.62235" lon="-2.85744">
        <ele>4</ele>
        <time>2025-01-28T13:10:13Z</time>
      </trkpt>
      <trkpt lat="47.62235" lon="-2.85745">
        <ele>3.8</ele>
        <time>2025-01-28T13:10:14Z</time>
      </trkpt>
      <trkpt lat="47.62234" lon="-2.85747">
        <ele>3.6</ele>
        <time>2025-01-28T13:10:15Z</time>
      </trkpt>
      <trkpt lat="47.62234" lon="-2.85748">
        <ele>3.5</ele>
        <time>2025-01-28T13:10:16Z</time>
      </trkpt>
      <trkpt lat="47.62233" lon="-2.8575">
        <ele>3.4</ele>
        <time>2025-01-28T13:10:17Z</time>
      </trkpt>
      <trkpt lat="47.62233" lon="-2.85751">
        <ele>3.3</ele>
        <time>2025-01-28T13:10:18Z</time>
      </trkpt>
      <trkpt lat="47.62233" lon="-2.85753">
        <ele>3.3</ele>
        <time>2025-01-28T13:10:19Z</time>
      </trkpt>
      <trkpt lat="47.62232" lon="-2.85754">
        <ele>3.1</ele>
        <time>2025-01-28T13:10:20Z</time>
      </trkpt>
      <trkpt lat="47.62231" lon="-2.85755">
        <ele>3</ele>
        <time>2025-01-28T13:10:21Z</time>
      </trkpt>
      <trkpt lat="47.62229" lon="-2.85756">
        <ele>2.8</ele>
        <time>2025-01-28T13:10:22Z</time>
      </trkpt>
      <trkpt lat="47.62229" lon="-2.85757">
        <ele>2.8</ele>
        <time>2025-01-28T13:10:23Z</time>
      </trkpt>
      <trkpt lat="47.62228" lon="-2.85759">
        <ele>2.8</ele>
        <time>2025-01-28T13:10:24Z</time>
      </trkpt>
      <trkpt lat="47.62228" lon="-2.8576">
        <ele>2.9</ele>
        <time>2025-01-28T13:10:25Z</time>
      </trkpt>
      <trkpt lat="47.62228" lon="-2.85762">
        <ele>3</ele>
        <time>2025-01-28T13:10:26Z</time>
      </trkpt>
      <trkpt lat="47.62229" lon="-2.85763">
        <ele>3.2</ele>
        <time>2025-01-28T13:10:27Z</time>
      </trkpt>
      <trkpt lat="47.6223" lon="-2.85764">
        <ele>3.4</ele>
        <time>2025-01-28T13:10:28Z</time>
      </trkpt>
      <trkpt lat="47.62232" lon="-2.85764">
        <ele>3.5</ele>
        <time>2025-01-28T13:10:29Z</time>
      </trkpt>
      <trkpt lat="47.62232" lon="-2.85765">
        <ele>3.6</ele>
        <time>2025-01-28T13:10:30Z</time>
      </trkpt>
      <trkpt lat="47.62233" lon="-2.85767">
        <ele>3.8</ele>
        <time>2025-01-28T13:10:31Z</time>
      </trkpt>
      <trkpt lat="47.62234" lon="-2.85768">
        <ele>3.8</ele>
        <time>2025-01-28T13:10:32Z</time>
      </trkpt>
      <trkpt lat="47.62234" lon="-2.85769">
        <ele>3.9</ele>
        <time>2025-01-28T13:10:33Z</time>
      </trkpt>
      <trkpt lat="47.62235" lon="-2.85771">
        <ele>3.9</ele>
        <time>2025-01-28T13:10:34Z</time>
      </trkpt>
      <trkpt lat="47.62235" lon="-2.85772">
        <ele>4</ele>
        <time>2025-01-28T13:10:35Z</time>
      </trkpt>
      <trkpt lat="47.62235" lon="-2.85772">
        <ele>4</ele>
        <time>2025-01-28T13:10:36Z</time>
      </trkpt>
      <trkpt lat="47.62235" lon="-2.85774">
        <ele>4</ele>
        <time>2025-01-28T13:10:37Z</time>
      </trkpt>
      <trkpt lat="47.62235" lon="-2.85774">
        <ele>4</ele>
        <time>2025-01-28T13:10:38Z</time>
      </trkpt>
      <trkpt lat="47.62235" lon="-2.85775">
        <ele>4</ele>
        <time>2025-01-28T13:10:39Z</time>
      </trkpt>
      <trkpt lat="47.62235" lon="-2.85776">
        <ele>4</ele>
        <time>2025-01-28T13:10:40Z</time>
      </trkpt>
      <trkpt lat="47.62237" lon="-2.85778">
        <ele>4</ele>
        <time>2025-01-28T13:10:41Z</time>
      </trkpt>
      <trkpt lat="47.62237" lon="-2.85779">
        <ele>3.9</ele>
        <time>2025-01-28T13:10:42Z</time>
      </trkpt>
      <trkpt lat="47.62238" lon="-2.85781">
        <ele>3.8</ele>
        <time>2025-01-28T13:10:43Z</time>
      </trkpt>
      <trkpt lat="47.62238" lon="-2.85782">
        <ele>3.7</ele>
        <time>2025-01-28T13:10:44Z</time>
      </trkpt>
      <trkpt lat="47.62239" lon="-2.85783">
        <ele>3.6</ele>
        <time>2025-01-28T13:10:45Z</time>
      </trkpt>
      <trkpt lat="47.6224" lon="-2.85784">
        <ele>3.5</ele>
        <time>2025-01-28T13:10:46Z</time>
      </trkpt>
      <trkpt lat="47.62241" lon="-2.85785">
        <ele>3.4</ele>
        <time>2025-01-28T13:10:47Z</time>
      </trkpt>
      <trkpt lat="47.62241" lon="-2.85786">
        <ele>3.3</ele>
        <time>2025-01-28T13:10:48Z</time>
      </trkpt>
      <trkpt lat="47.62242" lon="-2.85786">
        <ele>3.3</ele>
        <time>2025-01-28T13:10:49Z</time>
      </trkpt>
      <trkpt lat="47.62243" lon="-2.85787">
        <ele>3.2</ele>
        <time>2025-01-28T13:10:50Z</time>
      </trkpt>
      <trkpt lat="47.62244" lon="-2.85788">
        <ele>3.2</ele>
        <time>2025-01-28T13:10:51Z</time>
      </trkpt>
      <trkpt lat="47.62245" lon="-2.85788">
        <ele>3.2</ele>
        <time>2025-01-28T13:10:52Z</time>
      </trkpt>
      <trkpt lat="47.62246" lon="-2.85789">
        <ele>3.1</ele>
        <time>2025-01-28T13:10:53Z</time>
      </trkpt>
      <trkpt lat="47.62246" lon="-2.8579">
        <ele>3.1</ele>
        <time>2025-01-28T13:10:54Z</time>
      </trkpt>
      <trkpt lat="47.62247" lon="-2.85791">
        <ele>3</ele>
        <time>2025-01-28T13:10:55Z</time>
      </trkpt>
      <trkpt lat="47.62248" lon="-2.85792">
        <ele>2.9</ele>
        <time>2025-01-28T13:10:56Z</time>
      </trkpt>
      <trkpt lat="47.62249" lon="-2.85793">
        <ele>2.9</ele>
        <time>2025-01-28T13:10:57Z</time>
      </trkpt>
      <trkpt lat="47.6225" lon="-2.85794">
        <ele>2.8</ele>
        <time>2025-01-28T13:10:58Z</time>
      </trkpt>
      <trkpt lat="47.62251" lon="-2.85795">
        <ele>2.8</ele>
        <time>2025-01-28T13:10:59Z</time>
      </trkpt>
      <trkpt lat="47.62251" lon="-2.85796">
        <ele>2.8</ele>
        <time>2025-01-28T13:11:00Z</time>
      </trkpt>
      <trkpt lat="47.62252" lon="-2.85797">
        <ele>2.7</ele>
        <time>2025-01-28T13:11:01Z</time>
      </trkpt>
      <trkpt lat="47.62253" lon="-2.85798">
        <ele>2.7</ele>
        <time>2025-01-28T13:11:02Z</time>
      </trkpt>
      <trkpt lat="47.62253" lon="-2.85799">
        <ele>2.7</ele>
        <time>2025-01-28T13:11:03Z</time>
      </trkpt>
      <trkpt lat="47.62254" lon="-2.858">
        <ele>2.6</ele>
        <time>2025-01-28T13:11:04Z</time>
      </trkpt>
      <trkpt lat="47.62255" lon="-2.85802">
        <ele>2.5</ele>
        <time>2025-01-28T13:11:05Z</time>
      </trkpt>
      <trkpt lat="47.62256" lon="-2.85802">
        <ele>2.5</ele>
        <time>2025-01-28T13:11:06Z</time>
      </trkpt>
      <trkpt lat="47.62257" lon="-2.85803">
        <ele>2.5</ele>
        <time>2025-01-28T13:11:07Z</time>
      </trkpt>
      <trkpt lat="47.62258" lon="-2.85803">
        <ele>2.6</ele>
        <time>2025-01-28T13:11:08Z</time>
      </trkpt>
      <trkpt lat="47.62259" lon="-2.85804">
        <ele>2.5</ele>
        <time>2025-01-28T13:11:09Z</time>
      </trkpt>
      <trkpt lat="47.6226" lon="-2.85804">
        <ele>2.5</ele>
        <time>2025-01-28T13:11:10Z</time>
      </trkpt>
      <trkpt lat="47.62261" lon="-2.85805">
        <ele>2.5</ele>
        <time>2025-01-28T13:11:11Z</time>
      </trkpt>
      <trkpt lat="47.62262" lon="-2.85805">
        <ele>2.5</ele>
        <time>2025-01-28T13:11:12Z</time>
      </trkpt>
      <trkpt lat="47.62264" lon="-2.85805">
        <ele>2.5</ele>
        <time>2025-01-28T13:11:13Z</time>
      </trkpt>
      <trkpt lat="47.62265" lon="-2.85806">
        <ele>2.5</ele>
        <time>2025-01-28T13:11:14Z</time>
      </trkpt>
      <trkpt lat="47.62266" lon="-2.85806">
        <ele>2.6</ele>
        <time>2025-01-28T13:11:15Z</time>
      </trkpt>
      <trkpt lat="47.62267" lon="-2.85806">
        <ele>2.6</ele>
        <time>2025-01-28T13:11:16Z</time>
      </trkpt>
      <trkpt lat="47.62269" lon="-2.85806">
        <ele>2.7</ele>
        <time>2025-01-28T13:11:17Z</time>
      </trkpt>
      <trkpt lat="47.6227" lon="-2.85805">
        <ele>2.8</ele>
        <time>2025-01-28T13:11:18Z</time>
      </trkpt>
      <trkpt lat="47.62271" lon="-2.85805">
        <ele>2.8</ele>
        <time>2025-01-28T13:11:19Z</time>
      </trkpt>
      <trkpt lat="47.62272" lon="-2.85805">
        <ele>2.9</ele>
        <time>2025-01-28T13:11:20Z</time>
      </trkpt>
      <trkpt lat="47.62273" lon="-2.85805">
        <ele>3</ele>
        <time>2025-01-28T13:11:21Z</time>
      </trkpt>
      <trkpt lat="47.62275" lon="-2.85805">
        <ele>3</ele>
        <time>2025-01-28T13:11:22Z</time>
      </trkpt>
      <trkpt lat="47.62276" lon="-2.85802">
        <ele>3.5</ele>
        <time>2025-01-28T13:11:23Z</time>
      </trkpt>
      <trkpt lat="47.62277" lon="-2.85802">
        <ele>3.6</ele>
        <time>2025-01-28T13:11:24Z</time>
      </trkpt>
      <trkpt lat="47.62278" lon="-2.85802">
        <ele>3.6</ele>
        <time>2025-01-28T13:11:25Z</time>
      </trkpt>
      <trkpt lat="47.62279" lon="-2.85802">
        <ele>3.7</ele>
        <time>2025-01-28T13:11:26Z</time>
      </trkpt>
      <trkpt lat="47.6228" lon="-2.85802">
        <ele>3.9</ele>
        <time>2025-01-28T13:11:27Z</time>
      </trkpt>
      <trkpt lat="47.62281" lon="-2.85801">
        <ele>4.1</ele>
        <time>2025-01-28T13:11:28Z</time>
      </trkpt>
      <trkpt lat="47.62282" lon="-2.85801">
        <ele>4.2</ele>
        <time>2025-01-28T13:11:29Z</time>
      </trkpt>
      <trkpt lat="47.62282" lon="-2.858">
        <ele>4.4</ele>
        <time>2025-01-28T13:11:30Z</time>
      </trkpt>
      <trkpt lat="47.62283" lon="-2.858">
        <ele>4.5</ele>
        <time>2025-01-28T13:11:31Z</time>
      </trkpt>
      <trkpt lat="47.62284" lon="-2.858">
        <ele>4.5</ele>
        <time>2025-01-28T13:11:32Z</time>
      </trkpt>
      <trkpt lat="47.62284" lon="-2.85799">
        <ele>4.8</ele>
        <time>2025-01-28T13:11:33Z</time>
      </trkpt>
      <trkpt lat="47.62285" lon="-2.85799">
        <ele>4.9</ele>
        <time>2025-01-28T13:11:34Z</time>
      </trkpt>
      <trkpt lat="47.62286" lon="-2.85799">
        <ele>5</ele>
        <time>2025-01-28T13:11:35Z</time>
      </trkpt>
      <trkpt lat="47.62287" lon="-2.85798">
        <ele>5.1</ele>
        <time>2025-01-28T13:11:36Z</time>
      </trkpt>
      <trkpt lat="47.62287" lon="-2.85798">
        <ele>5.2</ele>
        <time>2025-01-28T13:11:37Z</time>
      </trkpt>
      <trkpt lat="47.62288" lon="-2.85798">
        <ele>5.3</ele>
        <time>2025-01-28T13:11:38Z</time>
      </trkpt>
      <trkpt lat="47.62289" lon="-2.85798">
        <ele>5.4</ele>
        <time>2025-01-28T13:11:39Z</time>
      </trkpt>
      <trkpt lat="47.6229" lon="-2.85798">
        <ele>5.5</ele>
        <time>2025-01-28T13:11:40Z</time>
      </trkpt>
      <trkpt lat="47.62291" lon="-2.85798">
        <ele>5.6</ele>
        <time>2025-01-28T13:11:41Z</time>
      </trkpt>
      <trkpt lat="47.62292" lon="-2.85798">
        <ele>5.6</ele>
        <time>2025-01-28T13:11:42Z</time>
      </trkpt>
      <trkpt lat="47.62293" lon="-2.85798">
        <ele>5.7</ele>
        <time>2025-01-28T13:11:43Z</time>
      </trkpt>
      <trkpt lat="47.62294" lon="-2.85797">
        <ele>5.9</ele>
        <time>2025-01-28T13:11:44Z</time>
      </trkpt>
      <trkpt lat="47.62294" lon="-2.85797">
        <ele>6</ele>
        <time>2025-01-28T13:11:45Z</time>
      </trkpt>
      <trkpt lat="47.62295" lon="-2.85797">
        <ele>6.1</ele>
        <time>2025-01-28T13:11:46Z</time>
      </trkpt>
      <trkpt lat="47.62296" lon="-2.85797">
        <ele>6.1</ele>
        <time>2025-01-28T13:11:47Z</time>
      </trkpt>
      <trkpt lat="47.62297" lon="-2.85797">
        <ele>6.3</ele>
        <time>2025-01-28T13:11:48Z</time>
      </trkpt>
      <trkpt lat="47.62298" lon="-2.85796">
        <ele>6.4</ele>
        <time>2025-01-28T13:11:49Z</time>
      </trkpt>
      <trkpt lat="47.62299" lon="-2.85796">
        <ele>6.5</ele>
        <time>2025-01-28T13:11:50Z</time>
      </trkpt>
      <trkpt lat="47.623" lon="-2.85795">
        <ele>6.7</ele>
        <time>2025-01-28T13:11:51Z</time>
      </trkpt>
      <trkpt lat="47.62301" lon="-2.85795">
        <ele>6.8</ele>
        <time>2025-01-28T13:11:52Z</time>
      </trkpt>
      <trkpt lat="47.62302" lon="-2.85794">
        <ele>6.9</ele>
        <time>2025-01-28T13:11:53Z</time>
      </trkpt>
      <trkpt lat="47.62303" lon="-2.85795">
        <ele>7</ele>
        <time>2025-01-28T13:11:54Z</time>
      </trkpt>
      <trkpt lat="47.62304" lon="-2.85794">
        <ele>7.1</ele>
        <time>2025-01-28T13:11:55Z</time>
      </trkpt>
      <trkpt lat="47.62305" lon="-2.85793">
        <ele>7.3</ele>
        <time>2025-01-28T13:11:56Z</time>
      </trkpt>
      <trkpt lat="47.62306" lon="-2.85792">
        <ele>7.4</ele>
        <time>2025-01-28T13:11:57Z</time>
      </trkpt>
      <trkpt lat="47.62307" lon="-2.85792">
        <ele>7.5</ele>
        <time>2025-01-28T13:11:58Z</time>
      </trkpt>
      <trkpt lat="47.62308" lon="-2.85791">
        <ele>7.5</ele>
        <time>2025-01-28T13:11:59Z</time>
      </trkpt>
      <trkpt lat="47.62309" lon="-2.85791">
        <ele>7.5</ele>
        <time>2025-01-28T13:12:00Z</time>
      </trkpt>
      <trkpt lat="47.6231" lon="-2.85791">
        <ele>7.5</ele>
        <time>2025-01-28T13:12:01Z</time>
      </trkpt>
      <trkpt lat="47.62312" lon="-2.85791">
        <ele>7.4</ele>
        <time>2025-01-28T13:12:02Z</time>
      </trkpt>
      <trkpt lat="47.62313" lon="-2.85792">
        <ele>7.4</ele>
        <time>2025-01-28T13:12:03Z</time>
      </trkpt>
      <trkpt lat="47.62314" lon="-2.85791">
        <ele>7.4</ele>
        <time>2025-01-28T13:12:04Z</time>
      </trkpt>
      <trkpt lat="47.62315" lon="-2.85791">
        <ele>7.4</ele>
        <time>2025-01-28T13:12:05Z</time>
      </trkpt>
      <trkpt lat="47.62317" lon="-2.85792">
        <ele>7.3</ele>
        <time>2025-01-28T13:12:06Z</time>
      </trkpt>
      <trkpt lat="47.62317" lon="-2.85794">
        <ele>7.1</ele>
        <time>2025-01-28T13:12:07Z</time>
      </trkpt>
      <trkpt lat="47.62318" lon="-2.85795">
        <ele>7</ele>
        <time>2025-01-28T13:12:08Z</time>
      </trkpt>
      <trkpt lat="47.62318" lon="-2.85796">
        <ele>6.9</ele>
        <time>2025-01-28T13:12:09Z</time>
      </trkpt>
      <trkpt lat="47.62319" lon="-2.85797">
        <ele>6.8</ele>
        <time>2025-01-28T13:12:10Z</time>
      </trkpt>
      <trkpt lat="47.62319" lon="-2.85798">
        <ele>6.7</ele>
        <time>2025-01-28T13:12:11Z</time>
      </trkpt>
      <trkpt lat="47.6232" lon="-2.85799">
        <ele>6.6</ele>
        <time>2025-01-28T13:12:12Z</time>
      </trkpt>
      <trkpt lat="47.62321" lon="-2.858">
        <ele>6.5</ele>
        <time>2025-01-28T13:12:13Z</time>
      </trkpt>
      <trkpt lat="47.6232" lon="-2.85803">
        <ele>6.2</ele>
        <time>2025-01-28T13:12:14Z</time>
      </trkpt>
      <trkpt lat="47.62321" lon="-2.85805">
        <ele>6</ele>
        <time>2025-01-28T13:12:15Z</time>
      </trkpt>
      <trkpt lat="47.62322" lon="-2.85806">
        <ele>6</ele>
        <time>2025-01-28T13:12:16Z</time>
      </trkpt>
      <trkpt lat="47.62323" lon="-2.85807">
        <ele>6</ele>
        <time>2025-01-28T13:12:17Z</time>
      </trkpt>
      <trkpt lat="47.62323" lon="-2.85808">
        <ele>5.9</ele>
        <time>2025-01-28T13:12:18Z</time>
      </trkpt>
      <trkpt lat="47.62324" lon="-2.85809">
        <ele>5.9</ele>
        <time>2025-01-28T13:12:19Z</time>
      </trkpt>
      <trkpt lat="47.62325" lon="-2.8581">
        <ele>5.9</ele>
        <time>2025-01-28T13:12:20Z</time>
      </trkpt>
      <trkpt lat="47.62325" lon="-2.85811">
        <ele>5.9</ele>
        <time>2025-01-28T13:12:21Z</time>
      </trkpt>
      <trkpt lat="47.62326" lon="-2.85812">
        <ele>5.9</ele>
        <time>2025-01-28T13:12:22Z</time>
      </trkpt>
      <trkpt lat="47.62327" lon="-2.85812">
        <ele>5.9</ele>
        <time>2025-01-28T13:12:23Z</time>
      </trkpt>
      <trkpt lat="47.62328" lon="-2.85814">
        <ele>5.9</ele>
        <time>2025-01-28T13:12:24Z</time>
      </trkpt>
      <trkpt lat="47.62329" lon="-2.85815">
        <ele>5.9</ele>
        <time>2025-01-28T13:12:25Z</time>
      </trkpt>
      <trkpt lat="47.62329" lon="-2.85817">
        <ele>5.9</ele>
        <time>2025-01-28T13:12:26Z</time>
      </trkpt>
      <trkpt lat="47.62329" lon="-2.85819">
        <ele>5.9</ele>
        <time>2025-01-28T13:12:27Z</time>
      </trkpt>
      <trkpt lat="47.6233" lon="-2.8582">
        <ele>5.9</ele>
        <time>2025-01-28T13:12:28Z</time>
      </trkpt>
      <trkpt lat="47.6233" lon="-2.85821">
        <ele>5.9</ele>
        <time>2025-01-28T13:12:29Z</time>
      </trkpt>
      <trkpt lat="47.62331" lon="-2.85823">
        <ele>5.9</ele>
        <time>2025-01-28T13:12:30Z</time>
      </trkpt>
      <trkpt lat="47.62332" lon="-2.85824">
        <ele>5.9</ele>
        <time>2025-01-28T13:12:31Z</time>
      </trkpt>
      <trkpt lat="47.62333" lon="-2.85826">
        <ele>6</ele>
        <time>2025-01-28T13:12:32Z</time>
      </trkpt>
      <trkpt lat="47.62334" lon="-2.85827">
        <ele>6</ele>
        <time>2025-01-28T13:12:33Z</time>
      </trkpt>
      <trkpt lat="47.62334" lon="-2.85828">
        <ele>6.1</ele>
        <time>2025-01-28T13:12:34Z</time>
      </trkpt>
      <trkpt lat="47.62335" lon="-2.85829">
        <ele>6.2</ele>
        <time>2025-01-28T13:12:35Z</time>
      </trkpt>
      <trkpt lat="47.62336" lon="-2.8583">
        <ele>6.3</ele>
        <time>2025-01-28T13:12:36Z</time>
      </trkpt>
      <trkpt lat="47.62337" lon="-2.85831">
        <ele>6.4</ele>
        <time>2025-01-28T13:12:37Z</time>
      </trkpt>
      <trkpt lat="47.62338" lon="-2.85832">
        <ele>6.5</ele>
        <time>2025-01-28T13:12:38Z</time>
      </trkpt>
      <trkpt lat="47.62338" lon="-2.85833">
        <ele>6.5</ele>
        <time>2025-01-28T13:12:39Z</time>
      </trkpt>
      <trkpt lat="47.6234" lon="-2.85834">
        <ele>6.7</ele>
        <time>2025-01-28T13:12:40Z</time>
      </trkpt>
      <trkpt lat="47.6234" lon="-2.85834">
        <ele>6.7</ele>
        <time>2025-01-28T13:12:41Z</time>
      </trkpt>
      <trkpt lat="47.62341" lon="-2.85834">
        <ele>6.8</ele>
        <time>2025-01-28T13:12:42Z</time>
      </trkpt>
      <trkpt lat="47.62342" lon="-2.85833">
        <ele>6.9</ele>
        <time>2025-01-28T13:12:43Z</time>
      </trkpt>
      <trkpt lat="47.62343" lon="-2.85833">
        <ele>7</ele>
        <time>2025-01-28T13:12:44Z</time>
      </trkpt>
      <trkpt lat="47.62344" lon="-2.85832">
        <ele>7.1</ele>
        <time>2025-01-28T13:12:45Z</time>
      </trkpt>
      <trkpt lat="47.62345" lon="-2.85831">
        <ele>7.2</ele>
        <time>2025-01-28T13:12:46Z</time>
      </trkpt>
      <trkpt lat="47.62346" lon="-2.8583">
        <ele>7.2</ele>
        <time>2025-01-28T13:12:47Z</time>
      </trkpt>
      <trkpt lat="47.62346" lon="-2.85829">
        <ele>7.2</ele>
        <time>2025-01-28T13:12:48Z</time>
      </trkpt>
      <trkpt lat="47.62347" lon="-2.85828">
        <ele>7.3</ele>
        <time>2025-01-28T13:12:49Z</time>
      </trkpt>
      <trkpt lat="47.62348" lon="-2.85827">
        <ele>7.3</ele>
        <time>2025-01-28T13:12:50Z</time>
      </trkpt>
      <trkpt lat="47.62349" lon="-2.85827">
        <ele>7.4</ele>
        <time>2025-01-28T13:12:51Z</time>
      </trkpt>
      <trkpt lat="47.6235" lon="-2.85825">
        <ele>7.4</ele>
        <time>2025-01-28T13:12:52Z</time>
      </trkpt>
      <trkpt lat="47.6235" lon="-2.85824">
        <ele>7.4</ele>
        <time>2025-01-28T13:12:53Z</time>
      </trkpt>
      <trkpt lat="47.62351" lon="-2.85824">
        <ele>7.5</ele>
        <time>2025-01-28T13:12:54Z</time>
      </trkpt>
      <trkpt lat="47.62352" lon="-2.85822">
        <ele>7.5</ele>
        <time>2025-01-28T13:12:55Z</time>
      </trkpt>
      <trkpt lat="47.62353" lon="-2.85821">
        <ele>7.5</ele>
        <time>2025-01-28T13:12:56Z</time>
      </trkpt>
      <trkpt lat="47.62354" lon="-2.85821">
        <ele>7.6</ele>
        <time>2025-01-28T13:12:57Z</time>
      </trkpt>
      <trkpt lat="47.62355" lon="-2.8582">
        <ele>7.6</ele>
        <time>2025-01-28T13:12:58Z</time>
      </trkpt>
      <trkpt lat="47.62356" lon="-2.85819">
        <ele>7.6</ele>
        <time>2025-01-28T13:12:59Z</time>
      </trkpt>
      <trkpt lat="47.62357" lon="-2.85818">
        <ele>7.6</ele>
        <time>2025-01-28T13:13:00Z</time>
      </trkpt>
      <trkpt lat="47.62358" lon="-2.85817">
        <ele>7.6</ele>
        <time>2025-01-28T13:13:01Z</time>
      </trkpt>
      <trkpt lat="47.62359" lon="-2.85816">
        <ele>7.6</ele>
        <time>2025-01-28T13:13:02Z</time>
      </trkpt>
      <trkpt lat="47.6236" lon="-2.85815">
        <ele>7.6</ele>
        <time>2025-01-28T13:13:03Z</time>
      </trkpt>
      <trkpt lat="47.6236" lon="-2.85814">
        <ele>7.6</ele>
        <time>2025-01-28T13:13:04Z</time>
      </trkpt>
      <trkpt lat="47.62361" lon="-2.85814">
        <ele>7.6</ele>
        <time>2025-01-28T13:13:05Z</time>
      </trkpt>
      <trkpt lat="47.62362" lon="-2.85813">
        <ele>7.7</ele>
        <time>2025-01-28T13:13:06Z</time>
      </trkpt>
      <trkpt lat="47.62363" lon="-2.85812">
        <ele>7.7</ele>
        <time>2025-01-28T13:13:07Z</time>
      </trkpt>
      <trkpt lat="47.62365" lon="-2.85811">
        <ele>7.7</ele>
        <time>2025-01-28T13:13:08Z</time>
      </trkpt>
      <trkpt lat="47.62365" lon="-2.8581">
        <ele>7.7</ele>
        <time>2025-01-28T13:13:09Z</time>
      </trkpt>
      <trkpt lat="47.62366" lon="-2.8581">
        <ele>7.8</ele>
        <time>2025-01-28T13:13:10Z</time>
      </trkpt>
      <trkpt lat="47.62367" lon="-2.85809">
        <ele>7.9</ele>
        <time>2025-01-28T13:13:11Z</time>
      </trkpt>
      <trkpt lat="47.62368" lon="-2.85808">
        <ele>7.9</ele>
        <time>2025-01-28T13:13:12Z</time>
      </trkpt>
      <trkpt lat="47.62369" lon="-2.85806">
        <ele>7.9</ele>
        <time>2025-01-28T13:13:13Z</time>
      </trkpt>
      <trkpt lat="47.6237" lon="-2.85805">
        <ele>8</ele>
        <time>2025-01-28T13:13:14Z</time>
      </trkpt>
      <trkpt lat="47.62371" lon="-2.85803">
        <ele>8</ele>
        <time>2025-01-28T13:13:15Z</time>
      </trkpt>
      <trkpt lat="47.62372" lon="-2.85803">
        <ele>8.2</ele>
        <time>2025-01-28T13:13:16Z</time>
      </trkpt>
      <trkpt lat="47.62373" lon="-2.85802">
        <ele>8.3</ele>
        <time>2025-01-28T13:13:17Z</time>
      </trkpt>
      <trkpt lat="47.62373" lon="-2.85801">
        <ele>8.3</ele>
        <time>2025-01-28T13:13:18Z</time>
      </trkpt>
      <trkpt lat="47.62374" lon="-2.858">
        <ele>8.4</ele>
        <time>2025-01-28T13:13:19Z</time>
      </trkpt>
      <trkpt lat="47.62375" lon="-2.85799">
        <ele>8.5</ele>
        <time>2025-01-28T13:13:20Z</time>
      </trkpt>
      <trkpt lat="47.62376" lon="-2.85799">
        <ele>8.6</ele>
        <time>2025-01-28T13:13:21Z</time>
      </trkpt>
      <trkpt lat="47.62377" lon="-2.85798">
        <ele>8.6</ele>
        <time>2025-01-28T13:13:22Z</time>
      </trkpt>
      <trkpt lat="47.62377" lon="-2.85797">
        <ele>8.7</ele>
        <time>2025-01-28T13:13:23Z</time>
      </trkpt>
      <trkpt lat="47.62378" lon="-2.85796">
        <ele>8.8</ele>
        <time>2025-01-28T13:13:24Z</time>
      </trkpt>
      <trkpt lat="47.62379" lon="-2.85795">
        <ele>8.9</ele>
        <time>2025-01-28T13:13:25Z</time>
      </trkpt>
      <trkpt lat="47.6238" lon="-2.85793">
        <ele>8.9</ele>
        <time>2025-01-28T13:13:26Z</time>
      </trkpt>
      <trkpt lat="47.6238" lon="-2.85792">
        <ele>8.9</ele>
        <time>2025-01-28T13:13:27Z</time>
      </trkpt>
      <trkpt lat="47.62381" lon="-2.85792">
        <ele>9</ele>
        <time>2025-01-28T13:13:28Z</time>
      </trkpt>
      <trkpt lat="47.62382" lon="-2.85791">
        <ele>9</ele>
        <time>2025-01-28T13:13:29Z</time>
      </trkpt>
      <trkpt lat="47.62383" lon="-2.85791">
        <ele>9</ele>
        <time>2025-01-28T13:13:30Z</time>
      </trkpt>
      <trkpt lat="47.62383" lon="-2.85791">
        <ele>9.1</ele>
        <time>2025-01-28T13:13:31Z</time>
      </trkpt>
      <trkpt lat="47.62383" lon="-2.85791">
        <ele>9.1</ele>
        <time>2025-01-28T13:13:32Z</time>
      </trkpt>
      <trkpt lat="47.62383" lon="-2.85791">
        <ele>9.1</ele>
        <time>2025-01-28T13:13:33Z</time>
      </trkpt>
      <trkpt lat="47.62383" lon="-2.85792">
        <ele>9.1</ele>
        <time>2025-01-28T13:13:34Z</time>
      </trkpt>
      <trkpt lat="47.62383" lon="-2.85792">
        <ele>9.1</ele>
        <time>2025-01-28T13:13:35Z</time>
      </trkpt>
      <trkpt lat="47.62383" lon="-2.85792">
        <ele>9.1</ele>
        <time>2025-01-28T13:13:36Z</time>
      </trkpt>
      <trkpt lat="47.62383" lon="-2.85792">
        <ele>9.1</ele>
        <time>2025-01-28T13:13:37Z</time>
      </trkpt>
      <trkpt lat="47.62383" lon="-2.85792">
        <ele>9.1</ele>
        <time>2025-01-28T13:13:38Z</time>
      </trkpt>
      <trkpt lat="47.62383" lon="-2.85792">
        <ele>9.1</ele>
        <time>2025-01-28T13:13:39Z</time>
      </trkpt>
      <trkpt lat="47.62383" lon="-2.85792">
        <ele>9.1</ele>
        <time>2025-01-28T13:13:40Z</time>
      </trkpt>
      <trkpt lat="47.62383" lon="-2.85792">
        <ele>9.1</ele>
        <time>2025-01-28T13:13:41Z</time>
      </trkpt>
      <trkpt lat="47.62383" lon="-2.85792">
        <ele>9.1</ele>
        <time>2025-01-28T13:13:42Z</time>
      </trkpt>
      <trkpt lat="47.62383" lon="-2.85792">
        <ele>9.1</ele>
        <time>2025-01-28T13:13:43Z</time>
      </trkpt>
      <trkpt lat="47.62383" lon="-2.85792">
        <ele>9.1</ele>
        <time>2025-01-28T13:13:44Z</time>
      </trkpt>
      <trkpt lat="47.62383" lon="-2.85792">
        <ele>9.1</ele>
        <time>2025-01-28T13:13:45Z</time>
      </trkpt>
      <trkpt lat="47.62383" lon="-2.85792">
        <ele>9.1</ele>
        <time>2025-01-28T13:13:46Z</time>
      </trkpt>
      <trkpt lat="47.62383" lon="-2.85793">
        <ele>9.1</ele>
        <time>2025-01-28T13:13:47Z</time>
      </trkpt>
      <trkpt lat="47.62383" lon="-2.85793">
        <ele>9.1</ele>
        <time>2025-01-28T13:13:48Z</time>
      </trkpt>
      <trkpt lat="47.62383" lon="-2.85793">
        <ele>9.1</ele>
        <time>2025-01-28T13:13:49Z</time>
      </trkpt>
      <trkpt lat="47.62383" lon="-2.85793">
        <ele>9.1</ele>
        <time>2025-01-28T13:13:50Z</time>
      </trkpt>
      <trkpt lat="47.62383" lon="-2.85793">
        <ele>9.1</ele>
        <time>2025-01-28T13:13:51Z</time>
      </trkpt>
      <trkpt lat="47.62384" lon="-2.85793">
        <ele>9.1</ele>
        <time>2025-01-28T13:13:52Z</time>
      </trkpt>
      <trkpt lat="47.62383" lon="-2.85793">
        <ele>9.1</ele>
        <time>2025-01-28T13:13:53Z</time>
      </trkpt>
      <trkpt lat="47.62383" lon="-2.85793">
        <ele>9.1</ele>
        <time>2025-01-28T13:13:54Z</time>
      </trkpt>
      <trkpt lat="47.62383" lon="-2.85793">
        <ele>9.1</ele>
        <time>2025-01-28T13:13:55Z</time>
      </trkpt>
      <trkpt lat="47.62383" lon="-2.85794">
        <ele>9.1</ele>
        <time>2025-01-28T13:13:56Z</time>
      </trkpt>
      <trkpt lat="47.62382" lon="-2.85796">
        <ele>9.1</ele>
        <time>2025-01-28T13:13:57Z</time>
      </trkpt>
      <trkpt lat="47.62381" lon="-2.85797">
        <ele>9</ele>
        <time>2025-01-28T13:13:58Z</time>
      </trkpt>
      <trkpt lat="47.6238" lon="-2.85798">
        <ele>8.9</ele>
        <time>2025-01-28T13:13:59Z</time>
      </trkpt>
      <trkpt lat="47.62379" lon="-2.85798">
        <ele>8.9</ele>
        <time>2025-01-28T13:14:00Z</time>
      </trkpt>
      <trkpt lat="47.62379" lon="-2.85801">
        <ele>8.9</ele>
        <time>2025-01-28T13:14:01Z</time>
      </trkpt>
      <trkpt lat="47.62378" lon="-2.85802">
        <ele>8.8</ele>
        <time>2025-01-28T13:14:02Z</time>
      </trkpt>
      <trkpt lat="47.62378" lon="-2.85803">
        <ele>8.8</ele>
        <time>2025-01-28T13:14:03Z</time>
      </trkpt>
      <trkpt lat="47.62378" lon="-2.85803">
        <ele>8.8</ele>
        <time>2025-01-28T13:14:04Z</time>
      </trkpt>
      <trkpt lat="47.62378" lon="-2.85802">
        <ele>8.8</ele>
        <time>2025-01-28T13:14:05Z</time>
      </trkpt>
      <trkpt lat="47.62378" lon="-2.85802">
        <ele>8.8</ele>
        <time>2025-01-28T13:14:06Z</time>
      </trkpt>
      <trkpt lat="47.62378" lon="-2.858">
        <ele>8.8</ele>
        <time>2025-01-28T13:14:07Z</time>
      </trkpt>
      <trkpt lat="47.62379" lon="-2.858">
        <ele>8.8</ele>
        <time>2025-01-28T13:14:08Z</time>
      </trkpt>
      <trkpt lat="47.62379" lon="-2.858">
        <ele>8.9</ele>
        <time>2025-01-28T13:14:09Z</time>
      </trkpt>
      <trkpt lat="47.62379" lon="-2.858">
        <ele>8.9</ele>
        <time>2025-01-28T13:14:10Z</time>
      </trkpt>
      <trkpt lat="47.62379" lon="-2.858">
        <ele>8.9</ele>
        <time>2025-01-28T13:14:11Z</time>
      </trkpt>
      <trkpt lat="47.62379" lon="-2.858">
        <ele>8.9</ele>
        <time>2025-01-28T13:14:12Z</time>
      </trkpt>
      <trkpt lat="47.62379" lon="-2.858">
        <ele>8.9</ele>
        <time>2025-01-28T13:14:13Z</time>
      </trkpt>
      <trkpt lat="47.62379" lon="-2.858">
        <ele>8.9</ele>
        <time>2025-01-28T13:14:14Z</time>
      </trkpt>
      <trkpt lat="47.62379" lon="-2.858">
        <ele>8.9</ele>
        <time>2025-01-28T13:14:15Z</time>
      </trkpt>
      <trkpt lat="47.62379" lon="-2.858">
        <ele>8.9</ele>
        <time>2025-01-28T13:14:16Z</time>
      </trkpt>
      <trkpt lat="47.62379" lon="-2.858">
        <ele>8.9</ele>
        <time>2025-01-28T13:14:17Z</time>
      </trkpt>
      <trkpt lat="47.62379" lon="-2.858">
        <ele>8.9</ele>
        <time>2025-01-28T13:14:18Z</time>
      </trkpt>
      <trkpt lat="47.62379" lon="-2.858">
        <ele>8.9</ele>
        <time>2025-01-28T13:14:19Z</time>
      </trkpt>
      <trkpt lat="47.62379" lon="-2.858">
        <ele>8.9</ele>
        <time>2025-01-28T13:14:20Z</time>
      </trkpt>
      <trkpt lat="47.62379" lon="-2.858">
        <ele>8.9</ele>
        <time>2025-01-28T13:14:21Z</time>
      </trkpt>
      <trkpt lat="47.62379" lon="-2.858">
        <ele>8.9</ele>
        <time>2025-01-28T13:14:22Z</time>
      </trkpt>
      <trkpt lat="47.62379" lon="-2.858">
        <ele>8.9</ele>
        <time>2025-01-28T13:14:23Z</time>
      </trkpt>
      <trkpt lat="47.62379" lon="-2.858">
        <ele>8.9</ele>
        <time>2025-01-28T13:14:24Z</time>
      </trkpt>
      <trkpt lat="47.62379" lon="-2.858">
        <ele>8.9</ele>
        <time>2025-01-28T13:14:25Z</time>
      </trkpt>
      <trkpt lat="47.62379" lon="-2.858">
        <ele>8.9</ele>
        <time>2025-01-28T13:14:26Z</time>
      </trkpt>
      <trkpt lat="47.62379" lon="-2.858">
        <ele>8.9</ele>
        <time>2025-01-28T13:14:27Z</time>
      </trkpt>
      <trkpt lat="47.62379" lon="-2.858">
        <ele>8.9</ele>
        <time>2025-01-28T13:14:28Z</time>
      </trkpt>
      <trkpt lat="47.62379" lon="-2.858">
        <ele>8.9</ele>
        <time>2025-01-28T13:14:29Z</time>
      </trkpt>
      <trkpt lat="47.62379" lon="-2.858">
        <ele>8.9</ele>
        <time>2025-01-28T13:14:30Z</time>
      </trkpt>
      <trkpt lat="47.62379" lon="-2.858">
        <ele>8.9</ele>
        <time>2025-01-28T13:14:31Z</time>
      </trkpt>
      <trkpt lat="47.62379" lon="-2.858">
        <ele>8.9</ele>
        <time>2025-01-28T13:14:32Z</time>
      </trkpt>
      <trkpt lat="47.62379" lon="-2.858">
        <ele>8.9</ele>
        <time>2025-01-28T13:14:33Z</time>
      </trkpt>
      <trkpt lat="47.62379" lon="-2.858">
        <ele>8.9</ele>
        <time>2025-01-28T13:14:34Z</time>
      </trkpt>
      <trkpt lat="47.62379" lon="-2.858">
        <ele>8.9</ele>
        <time>2025-01-28T13:14:35Z</time>
      </trkpt>
      <trkpt lat="47.62379" lon="-2.858">
        <ele>8.9</ele>
        <time>2025-01-28T13:14:36Z</time>
      </trkpt>
      <trkpt lat="47.62379" lon="-2.858">
        <ele>8.9</ele>
        <time>2025-01-28T13:14:37Z</time>
      </trkpt>
      <trkpt lat="47.62379" lon="-2.858">
        <ele>8.9</ele>
        <time>2025-01-28T13:14:38Z</time>
      </trkpt>
      <trkpt lat="47.62379" lon="-2.858">
        <ele>8.9</ele>
        <time>2025-01-28T13:14:39Z</time>
      </trkpt>
      <trkpt lat="47.62379" lon="-2.858">
        <ele>8.9</ele>
        <time>2025-01-28T13:14:40Z</time>
      </trkpt>
      <trkpt lat="47.62379" lon="-2.858">
        <ele>8.9</ele>
        <time>2025-01-28T13:14:41Z</time>
      </trkpt>
      <trkpt lat="47.62379" lon="-2.858">
        <ele>8.9</ele>
        <time>2025-01-28T13:14:42Z</time>
      </trkpt>
      <trkpt lat="47.62379" lon="-2.858">
        <ele>8.9</ele>
        <time>2025-01-28T13:14:43Z</time>
      </trkpt>
      <trkpt lat="47.62379" lon="-2.858">
        <ele>8.9</ele>
        <time>2025-01-28T13:14:44Z</time>
      </trkpt>
      <trkpt lat="47.62379" lon="-2.858">
        <ele>8.9</ele>
        <time>2025-01-28T13:14:45Z</time>
      </trkpt>
      <trkpt lat="47.62379" lon="-2.858">
        <ele>8.9</ele>
        <time>2025-01-28T13:14:46Z</time>
      </trkpt>
      <trkpt lat="47.62379" lon="-2.858">
        <ele>8.9</ele>
        <time>2025-01-28T13:14:47Z</time>
      </trkpt>
      <trkpt lat="47.62379" lon="-2.858">
        <ele>8.9</ele>
        <time>2025-01-28T13:14:48Z</time>
      </trkpt>
      <trkpt lat="47.62379" lon="-2.858">
        <ele>8.9</ele>
        <time>2025-01-28T13:14:49Z</time>
      </trkpt>
      <trkpt lat="47.62379" lon="-2.858">
        <ele>8.9</ele>
        <time>2025-01-28T13:14:50Z</time>
      </trkpt>
      <trkpt lat="47.6238" lon="-2.858">
        <ele>8.9</ele>
        <time>2025-01-28T13:14:51Z</time>
      </trkpt>
      <trkpt lat="47.6238" lon="-2.858">
        <ele>8.9</ele>
        <time>2025-01-28T13:14:52Z</time>
      </trkpt>
      <trkpt lat="47.62379" lon="-2.858">
        <ele>8.9</ele>
        <time>2025-01-28T13:14:53Z</time>
      </trkpt>
      <trkpt lat="47.62379" lon="-2.858">
        <ele>8.9</ele>
        <time>2025-01-28T13:14:54Z</time>
      </trkpt>
      <trkpt lat="47.62379" lon="-2.85799">
        <ele>8.9</ele>
        <time>2025-01-28T13:14:55Z</time>
      </trkpt>
      <trkpt lat="47.6238" lon="-2.85798">
        <ele>8.9</ele>
        <time>2025-01-28T13:14:56Z</time>
      </trkpt>
      <trkpt lat="47.62381" lon="-2.85797">
        <ele>9</ele>
        <time>2025-01-28T13:14:57Z</time>
      </trkpt>
      <trkpt lat="47.62381" lon="-2.85797">
        <ele>9</ele>
        <time>2025-01-28T13:14:58Z</time>
      </trkpt>
      <trkpt lat="47.62381" lon="-2.85796">
        <ele>9</ele>
        <time>2025-01-28T13:14:59Z</time>
      </trkpt>
      <trkpt lat="47.62382" lon="-2.85796">
        <ele>9</ele>
        <time>2025-01-28T13:15:00Z</time>
      </trkpt>
      <trkpt lat="47.62382" lon="-2.85796">
        <ele>9</ele>
        <time>2025-01-28T13:15:01Z</time>
      </trkpt>
      <trkpt lat="47.62382" lon="-2.85796">
        <ele>9.1</ele>
        <time>2025-01-28T13:15:02Z</time>
      </trkpt>
      <trkpt lat="47.62381" lon="-2.85796">
        <ele>9</ele>
        <time>2025-01-28T13:15:03Z</time>
      </trkpt>
      <trkpt lat="47.62381" lon="-2.85795">
        <ele>9</ele>
        <time>2025-01-28T13:15:04Z</time>
      </trkpt>
      <trkpt lat="47.6238" lon="-2.85796">
        <ele>8.9</ele>
        <time>2025-01-28T13:15:05Z</time>
      </trkpt>
      <trkpt lat="47.62379" lon="-2.85796">
        <ele>8.8</ele>
        <time>2025-01-28T13:15:06Z</time>
      </trkpt>
      <trkpt lat="47.62379" lon="-2.85797">
        <ele>8.8</ele>
        <time>2025-01-28T13:15:07Z</time>
      </trkpt>
      <trkpt lat="47.62378" lon="-2.85798">
        <ele>8.8</ele>
        <time>2025-01-28T13:15:08Z</time>
      </trkpt>
      <trkpt lat="47.62379" lon="-2.85798">
        <ele>8.8</ele>
        <time>2025-01-28T13:15:09Z</time>
      </trkpt>
      <trkpt lat="47.62379" lon="-2.85798">
        <ele>8.9</ele>
        <time>2025-01-28T13:15:10Z</time>
      </trkpt>
      <trkpt lat="47.62379" lon="-2.85798">
        <ele>8.9</ele>
        <time>2025-01-28T13:15:11Z</time>
      </trkpt>
      <trkpt lat="47.6238" lon="-2.85798">
        <ele>8.9</ele>
        <time>2025-01-28T13:15:12Z</time>
      </trkpt>
      <trkpt lat="47.62381" lon="-2.85797">
        <ele>9</ele>
        <time>2025-01-28T13:15:13Z</time>
      </trkpt>
      <trkpt lat="47.62381" lon="-2.85796">
        <ele>9</ele>
        <time>2025-01-28T13:15:14Z</time>
      </trkpt>
      <trkpt lat="47.62381" lon="-2.85795">
        <ele>9</ele>
        <time>2025-01-28T13:15:15Z</time>
      </trkpt>
      <trkpt lat="47.6238" lon="-2.85795">
        <ele>8.9</ele>
        <time>2025-01-28T13:15:16Z</time>
      </trkpt>
      <trkpt lat="47.62379" lon="-2.85796">
        <ele>8.8</ele>
        <time>2025-01-28T13:15:17Z</time>
      </trkpt>
      <trkpt lat="47.62379" lon="-2.85796">
        <ele>8.8</ele>
        <time>2025-01-28T13:15:18Z</time>
      </trkpt>
      <trkpt lat="47.62379" lon="-2.85796">
        <ele>8.8</ele>
        <time>2025-01-28T13:15:19Z</time>
      </trkpt>
      <trkpt lat="47.62378" lon="-2.85795">
        <ele>8.7</ele>
        <time>2025-01-28T13:15:20Z</time>
      </trkpt>
      <trkpt lat="47.62377" lon="-2.85794">
        <ele>8.7</ele>
        <time>2025-01-28T13:15:21Z</time>
      </trkpt>
      <trkpt lat="47.62377" lon="-2.85794">
        <ele>8.6</ele>
        <time>2025-01-28T13:15:22Z</time>
      </trkpt>
      <trkpt lat="47.62377" lon="-2.85795">
        <ele>8.7</ele>
        <time>2025-01-28T13:15:23Z</time>
      </trkpt>
      <trkpt lat="47.62378" lon="-2.85796">
        <ele>8.8</ele>
        <time>2025-01-28T13:15:24Z</time>
      </trkpt>
      <trkpt lat="47.62379" lon="-2.85798">
        <ele>8.9</ele>
        <time>2025-01-28T13:15:25Z</time>
      </trkpt>
      <trkpt lat="47.62381" lon="-2.858">
        <ele>9</ele>
        <time>2025-01-28T13:15:26Z</time>
      </trkpt>
      <trkpt lat="47.62383" lon="-2.85802">
        <ele>9.3</ele>
        <time>2025-01-28T13:15:27Z</time>
      </trkpt>
      <trkpt lat="47.62384" lon="-2.85804">
        <ele>9.5</ele>
        <time>2025-01-28T13:15:28Z</time>
      </trkpt>
      <trkpt lat="47.62385" lon="-2.85807">
        <ele>9.7</ele>
        <time>2025-01-28T13:15:29Z</time>
      </trkpt>
      <trkpt lat="47.62386" lon="-2.8581">
        <ele>9.9</ele>
        <time>2025-01-28T13:15:30Z</time>
      </trkpt>
      <trkpt lat="47.62386" lon="-2.85812">
        <ele>10</ele>
        <time>2025-01-28T13:15:31Z</time>
      </trkpt>
      <trkpt lat="47.62386" lon="-2.85814">
        <ele>10.1</ele>
        <time>2025-01-28T13:15:32Z</time>
      </trkpt>
      <trkpt lat="47.62386" lon="-2.85817">
        <ele>10.1</ele>
        <time>2025-01-28T13:15:33Z</time>
      </trkpt>
      <trkpt lat="47.62386" lon="-2.8582">
        <ele>10.2</ele>
        <time>2025-01-28T13:15:34Z</time>
      </trkpt>
      <trkpt lat="47.62386" lon="-2.85823">
        <ele>10.3</ele>
        <time>2025-01-28T13:15:35Z</time>
      </trkpt>
      <trkpt lat="47.62385" lon="-2.85825">
        <ele>10.4</ele>
        <time>2025-01-28T13:15:36Z</time>
      </trkpt>
      <trkpt lat="47.62386" lon="-2.85827">
        <ele>10.5</ele>
        <time>2025-01-28T13:15:37Z</time>
      </trkpt>
      <trkpt lat="47.62386" lon="-2.8583">
        <ele>10.6</ele>
        <time>2025-01-28T13:15:38Z</time>
      </trkpt>
      <trkpt lat="47.62386" lon="-2.85831">
        <ele>10.7</ele>
        <time>2025-01-28T13:15:39Z</time>
      </trkpt>
      <trkpt lat="47.62385" lon="-2.85831">
        <ele>10.6</ele>
        <time>2025-01-28T13:15:40Z</time>
      </trkpt>
      <trkpt lat="47.62384" lon="-2.85831">
        <ele>10.6</ele>
        <time>2025-01-28T13:15:41Z</time>
      </trkpt>
      <trkpt lat="47.62384" lon="-2.85833">
        <ele>10.6</ele>
        <time>2025-01-28T13:15:42Z</time>
      </trkpt>
      <trkpt lat="47.62383" lon="-2.85834">
        <ele>10.6</ele>
        <time>2025-01-28T13:15:43Z</time>
      </trkpt>
      <trkpt lat="47.62382" lon="-2.85836">
        <ele>10.4</ele>
        <time>2025-01-28T13:15:44Z</time>
      </trkpt>
      <trkpt lat="47.62382" lon="-2.85838">
        <ele>10.3</ele>
        <time>2025-01-28T13:15:45Z</time>
      </trkpt>
      <trkpt lat="47.62381" lon="-2.85839">
        <ele>10.3</ele>
        <time>2025-01-28T13:15:46Z</time>
      </trkpt>
      <trkpt lat="47.62381" lon="-2.85841">
        <ele>10.2</ele>
        <time>2025-01-28T13:15:47Z</time>
      </trkpt>
      <trkpt lat="47.62381" lon="-2.85842">
        <ele>10.1</ele>
        <time>2025-01-28T13:15:48Z</time>
      </trkpt>
      <trkpt lat="47.62381" lon="-2.85843">
        <ele>10.1</ele>
        <time>2025-01-28T13:15:49Z</time>
      </trkpt>
      <trkpt lat="47.62381" lon="-2.85845">
        <ele>10</ele>
        <time>2025-01-28T13:15:50Z</time>
      </trkpt>
      <trkpt lat="47.62381" lon="-2.85846">
        <ele>10</ele>
        <time>2025-01-28T13:15:51Z</time>
      </trkpt>
      <trkpt lat="47.62381" lon="-2.85848">
        <ele>9.9</ele>
        <time>2025-01-28T13:15:52Z</time>
      </trkpt>
      <trkpt lat="47.62381" lon="-2.85849">
        <ele>9.9</ele>
        <time>2025-01-28T13:15:53Z</time>
      </trkpt>
      <trkpt lat="47.62381" lon="-2.85851">
        <ele>9.8</ele>
        <time>2025-01-28T13:15:54Z</time>
      </trkpt>
      <trkpt lat="47.62381" lon="-2.85853">
        <ele>9.7</ele>
        <time>2025-01-28T13:15:55Z</time>
      </trkpt>
      <trkpt lat="47.6238" lon="-2.85855">
        <ele>9.6</ele>
        <time>2025-01-28T13:15:56Z</time>
      </trkpt>
      <trkpt lat="47.62381" lon="-2.85857">
        <ele>9.6</ele>
        <time>2025-01-28T13:15:57Z</time>
      </trkpt>
      <trkpt lat="47.62381" lon="-2.85859">
        <ele>9.5</ele>
        <time>2025-01-28T13:15:58Z</time>
      </trkpt>
      <trkpt lat="47.62381" lon="-2.85861">
        <ele>9.4</ele>
        <time>2025-01-28T13:15:59Z</time>
      </trkpt>
      <trkpt lat="47.62381" lon="-2.85863">
        <ele>9.4</ele>
        <time>2025-01-28T13:16:00Z</time>
      </trkpt>
      <trkpt lat="47.62381" lon="-2.85865">
        <ele>9.4</ele>
        <time>2025-01-28T13:16:01Z</time>
      </trkpt>
      <trkpt lat="47.62381" lon="-2.85866">
        <ele>9.4</ele>
        <time>2025-01-28T13:16:02Z</time>
      </trkpt>
      <trkpt lat="47.62382" lon="-2.85868">
        <ele>9.5</ele>
        <time>2025-01-28T13:16:03Z</time>
      </trkpt>
      <trkpt lat="47.62382" lon="-2.8587">
        <ele>9.5</ele>
        <time>2025-01-28T13:16:04Z</time>
      </trkpt>
      <trkpt lat="47.62382" lon="-2.85872">
        <ele>9.5</ele>
        <time>2025-01-28T13:16:05Z</time>
      </trkpt>
      <trkpt lat="47.62382" lon="-2.85873">
        <ele>9.5</ele>
        <time>2025-01-28T13:16:06Z</time>
      </trkpt>
      <trkpt lat="47.62383" lon="-2.85875">
        <ele>9.5</ele>
        <time>2025-01-28T13:16:07Z</time>
      </trkpt>
      <trkpt lat="47.62383" lon="-2.85876">
        <ele>9.5</ele>
        <time>2025-01-28T13:16:08Z</time>
      </trkpt>
      <trkpt lat="47.62383" lon="-2.85878">
        <ele>9.6</ele>
        <time>2025-01-28T13:16:09Z</time>
      </trkpt>
      <trkpt lat="47.62383" lon="-2.85879">
        <ele>9.6</ele>
        <time>2025-01-28T13:16:10Z</time>
      </trkpt>
      <trkpt lat="47.62383" lon="-2.85881">
        <ele>9.6</ele>
        <time>2025-01-28T13:16:11Z</time>
      </trkpt>
      <trkpt lat="47.62383" lon="-2.85882">
        <ele>9.6</ele>
        <time>2025-01-28T13:16:12Z</time>
      </trkpt>
      <trkpt lat="47.62383" lon="-2.85884">
        <ele>9.6</ele>
        <time>2025-01-28T13:16:13Z</time>
      </trkpt>
      <trkpt lat="47.62383" lon="-2.85885">
        <ele>9.6</ele>
        <time>2025-01-28T13:16:14Z</time>
      </trkpt>
      <trkpt lat="47.62384" lon="-2.85887">
        <ele>9.6</ele>
        <time>2025-01-28T13:16:15Z</time>
      </trkpt>
      <trkpt lat="47.62384" lon="-2.85889">
        <ele>9.6</ele>
        <time>2025-01-28T13:16:16Z</time>
      </trkpt>
      <trkpt lat="47.62384" lon="-2.85891">
        <ele>9.6</ele>
        <time>2025-01-28T13:16:17Z</time>
      </trkpt>
      <trkpt lat="47.62385" lon="-2.85893">
        <ele>9.6</ele>
        <time>2025-01-28T13:16:18Z</time>
      </trkpt>
      <trkpt lat="47.62385" lon="-2.85894">
        <ele>9.5</ele>
        <time>2025-01-28T13:16:19Z</time>
      </trkpt>
      <trkpt lat="47.62385" lon="-2.85896">
        <ele>9.5</ele>
        <time>2025-01-28T13:16:20Z</time>
      </trkpt>
      <trkpt lat="47.62385" lon="-2.85898">
        <ele>9.4</ele>
        <time>2025-01-28T13:16:21Z</time>
      </trkpt>
      <trkpt lat="47.62385" lon="-2.859">
        <ele>9.4</ele>
        <time>2025-01-28T13:16:22Z</time>
      </trkpt>
      <trkpt lat="47.62385" lon="-2.85902">
        <ele>9.3</ele>
        <time>2025-01-28T13:16:23Z</time>
      </trkpt>
      <trkpt lat="47.62386" lon="-2.85903">
        <ele>9.3</ele>
        <time>2025-01-28T13:16:24Z</time>
      </trkpt>
      <trkpt lat="47.62386" lon="-2.85905">
        <ele>9.3</ele>
        <time>2025-01-28T13:16:25Z</time>
      </trkpt>
      <trkpt lat="47.62386" lon="-2.85906">
        <ele>9.2</ele>
        <time>2025-01-28T13:16:26Z</time>
      </trkpt>
      <trkpt lat="47.62387" lon="-2.85908">
        <ele>9.2</ele>
        <time>2025-01-28T13:16:27Z</time>
      </trkpt>
      <trkpt lat="47.62387" lon="-2.85909">
        <ele>9.2</ele>
        <time>2025-01-28T13:16:28Z</time>
      </trkpt>
      <trkpt lat="47.62387" lon="-2.85911">
        <ele>9.1</ele>
        <time>2025-01-28T13:16:29Z</time>
      </trkpt>
      <trkpt lat="47.62387" lon="-2.85913">
        <ele>9</ele>
        <time>2025-01-28T13:16:30Z</time>
      </trkpt>
      <trkpt lat="47.62387" lon="-2.85915">
        <ele>9</ele>
        <time>2025-01-28T13:16:31Z</time>
      </trkpt>
      <trkpt lat="47.62387" lon="-2.85917">
        <ele>8.9</ele>
        <time>2025-01-28T13:16:32Z</time>
      </trkpt>
      <trkpt lat="47.62387" lon="-2.85919">
        <ele>8.9</ele>
        <time>2025-01-28T13:16:33Z</time>
      </trkpt>
      <trkpt lat="47.62387" lon="-2.85921">
        <ele>8.9</ele>
        <time>2025-01-28T13:16:34Z</time>
      </trkpt>
      <trkpt lat="47.62388" lon="-2.85923">
        <ele>9</ele>
        <time>2025-01-28T13:16:35Z</time>
      </trkpt>
      <trkpt lat="47.62388" lon="-2.85924">
        <ele>9</ele>
        <time>2025-01-28T13:16:36Z</time>
      </trkpt>
      <trkpt lat="47.62388" lon="-2.85926">
        <ele>9</ele>
        <time>2025-01-28T13:16:37Z</time>
      </trkpt>
      <trkpt lat="47.62388" lon="-2.85928">
        <ele>9</ele>
        <time>2025-01-28T13:16:38Z</time>
      </trkpt>
      <trkpt lat="47.62388" lon="-2.85929">
        <ele>9</ele>
        <time>2025-01-28T13:16:39Z</time>
      </trkpt>
      <trkpt lat="47.62389" lon="-2.85931">
        <ele>9</ele>
        <time>2025-01-28T13:16:40Z</time>
      </trkpt>
      <trkpt lat="47.62389" lon="-2.85932">
        <ele>9</ele>
        <time>2025-01-28T13:16:41Z</time>
      </trkpt>
      <trkpt lat="47.62389" lon="-2.85934">
        <ele>9</ele>
        <time>2025-01-28T13:16:42Z</time>
      </trkpt>
      <trkpt lat="47.62389" lon="-2.85935">
        <ele>9</ele>
        <time>2025-01-28T13:16:43Z</time>
      </trkpt>
      <trkpt lat="47.6239" lon="-2.85937">
        <ele>9.1</ele>
        <time>2025-01-28T13:16:44Z</time>
      </trkpt>
      <trkpt lat="47.62389" lon="-2.85939">
        <ele>9</ele>
        <time>2025-01-28T13:16:45Z</time>
      </trkpt>
      <trkpt lat="47.6239" lon="-2.85941">
        <ele>9.1</ele>
        <time>2025-01-28T13:16:46Z</time>
      </trkpt>
      <trkpt lat="47.6239" lon="-2.85942">
        <ele>9.1</ele>
        <time>2025-01-28T13:16:47Z</time>
      </trkpt>
      <trkpt lat="47.6239" lon="-2.85944">
        <ele>9</ele>
        <time>2025-01-28T13:16:48Z</time>
      </trkpt>
      <trkpt lat="47.62389" lon="-2.85946">
        <ele>9</ele>
        <time>2025-01-28T13:16:49Z</time>
      </trkpt>
      <trkpt lat="47.62388" lon="-2.85947">
        <ele>9.1</ele>
        <time>2025-01-28T13:16:50Z</time>
      </trkpt>
      <trkpt lat="47.62387" lon="-2.85948">
        <ele>9.1</ele>
        <time>2025-01-28T13:16:51Z</time>
      </trkpt>
      <trkpt lat="47.62386" lon="-2.8595">
        <ele>9.1</ele>
        <time>2025-01-28T13:16:52Z</time>
      </trkpt>
      <trkpt lat="47.62385" lon="-2.8595">
        <ele>9.1</ele>
        <time>2025-01-28T13:16:53Z</time>
      </trkpt>
      <trkpt lat="47.62383" lon="-2.85951">
        <ele>9</ele>
        <time>2025-01-28T13:16:54Z</time>
      </trkpt>
      <trkpt lat="47.62382" lon="-2.85951">
        <ele>9</ele>
        <time>2025-01-28T13:16:55Z</time>
      </trkpt>
      <trkpt lat="47.62381" lon="-2.85952">
        <ele>9</ele>
        <time>2025-01-28T13:16:56Z</time>
      </trkpt>
      <trkpt lat="47.6238" lon="-2.85952">
        <ele>9</ele>
        <time>2025-01-28T13:16:57Z</time>
      </trkpt>
      <trkpt lat="47.62379" lon="-2.85953">
        <ele>8.9</ele>
        <time>2025-01-28T13:16:58Z</time>
      </trkpt>
      <trkpt lat="47.62377" lon="-2.85953">
        <ele>8.9</ele>
        <time>2025-01-28T13:16:59Z</time>
      </trkpt>
      <trkpt lat="47.62376" lon="-2.85953">
        <ele>8.9</ele>
        <time>2025-01-28T13:17:00Z</time>
      </trkpt>
      <trkpt lat="47.62375" lon="-2.85954">
        <ele>8.8</ele>
        <time>2025-01-28T13:17:01Z</time>
      </trkpt>
      <trkpt lat="47.62374" lon="-2.85954">
        <ele>8.8</ele>
        <time>2025-01-28T13:17:02Z</time>
      </trkpt>
      <trkpt lat="47.62373" lon="-2.85954">
        <ele>8.8</ele>
        <time>2025-01-28T13:17:03Z</time>
      </trkpt>
      <trkpt lat="47.62372" lon="-2.85954">
        <ele>8.7</ele>
        <time>2025-01-28T13:17:04Z</time>
      </trkpt>
      <trkpt lat="47.6237" lon="-2.85955">
        <ele>8.7</ele>
        <time>2025-01-28T13:17:05Z</time>
      </trkpt>
      <trkpt lat="47.62369" lon="-2.85956">
        <ele>8.7</ele>
        <time>2025-01-28T13:17:06Z</time>
      </trkpt>
      <trkpt lat="47.62368" lon="-2.85956">
        <ele>8.7</ele>
        <time>2025-01-28T13:17:07Z</time>
      </trkpt>
      <trkpt lat="47.62367" lon="-2.85956">
        <ele>8.6</ele>
        <time>2025-01-28T13:17:08Z</time>
      </trkpt>
      <trkpt lat="47.62366" lon="-2.85956">
        <ele>8.6</ele>
        <time>2025-01-28T13:17:09Z</time>
      </trkpt>
      <trkpt lat="47.62365" lon="-2.85955">
        <ele>8.5</ele>
        <time>2025-01-28T13:17:10Z</time>
      </trkpt>
      <trkpt lat="47.62364" lon="-2.85954">
        <ele>8.5</ele>
        <time>2025-01-28T13:17:11Z</time>
      </trkpt>
      <trkpt lat="47.62363" lon="-2.85953">
        <ele>8.4</ele>
        <time>2025-01-28T13:17:12Z</time>
      </trkpt>
      <trkpt lat="47.62362" lon="-2.85951">
        <ele>8.3</ele>
        <time>2025-01-28T13:17:13Z</time>
      </trkpt>
      <trkpt lat="47.62362" lon="-2.8595">
        <ele>8.2</ele>
        <time>2025-01-28T13:17:14Z</time>
      </trkpt>
      <trkpt lat="47.62361" lon="-2.85948">
        <ele>8.1</ele>
        <time>2025-01-28T13:17:15Z</time>
      </trkpt>
      <trkpt lat="47.6236" lon="-2.85946">
        <ele>8</ele>
        <time>2025-01-28T13:17:16Z</time>
      </trkpt>
      <trkpt lat="47.62359" lon="-2.85945">
        <ele>7.9</ele>
        <time>2025-01-28T13:17:17Z</time>
      </trkpt>
      <trkpt lat="47.62358" lon="-2.85944">
        <ele>7.8</ele>
        <time>2025-01-28T13:17:18Z</time>
      </trkpt>
      <trkpt lat="47.62357" lon="-2.85943">
        <ele>7.7</ele>
        <time>2025-01-28T13:17:19Z</time>
      </trkpt>
      <trkpt lat="47.62356" lon="-2.85941">
        <ele>7.6</ele>
        <time>2025-01-28T13:17:20Z</time>
      </trkpt>
      <trkpt lat="47.62355" lon="-2.8594">
        <ele>7.5</ele>
        <time>2025-01-28T13:17:21Z</time>
      </trkpt>
      <trkpt lat="47.62355" lon="-2.85938">
        <ele>7.4</ele>
        <time>2025-01-28T13:17:22Z</time>
      </trkpt>
      <trkpt lat="47.62354" lon="-2.85937">
        <ele>7.3</ele>
        <time>2025-01-28T13:17:23Z</time>
      </trkpt>
      <trkpt lat="47.62353" lon="-2.85935">
        <ele>7.2</ele>
        <time>2025-01-28T13:17:24Z</time>
      </trkpt>
      <trkpt lat="47.62352" lon="-2.85934">
        <ele>7.1</ele>
        <time>2025-01-28T13:17:25Z</time>
      </trkpt>
      <trkpt lat="47.6235" lon="-2.85933">
        <ele>6.9</ele>
        <time>2025-01-28T13:17:26Z</time>
      </trkpt>
      <trkpt lat="47.62349" lon="-2.85932">
        <ele>6.8</ele>
        <time>2025-01-28T13:17:27Z</time>
      </trkpt>
      <trkpt lat="47.62348" lon="-2.85931">
        <ele>6.6</ele>
        <time>2025-01-28T13:17:28Z</time>
      </trkpt>
      <trkpt lat="47.62347" lon="-2.8593">
        <ele>6.4</ele>
        <time>2025-01-28T13:17:29Z</time>
      </trkpt>
      <trkpt lat="47.62346" lon="-2.85929">
        <ele>6.3</ele>
        <time>2025-01-28T13:17:30Z</time>
      </trkpt>
      <trkpt lat="47.62345" lon="-2.85928">
        <ele>6.1</ele>
        <time>2025-01-28T13:17:31Z</time>
      </trkpt>
      <trkpt lat="47.62344" lon="-2.85926">
        <ele>6</ele>
        <time>2025-01-28T13:17:32Z</time>
      </trkpt>
      <trkpt lat="47.62343" lon="-2.85925">
        <ele>5.8</ele>
        <time>2025-01-28T13:17:33Z</time>
      </trkpt>
      <trkpt lat="47.62342" lon="-2.85925">
        <ele>5.7</ele>
        <time>2025-01-28T13:17:34Z</time>
      </trkpt>
      <trkpt lat="47.62341" lon="-2.85924">
        <ele>5.5</ele>
        <time>2025-01-28T13:17:35Z</time>
      </trkpt>
      <trkpt lat="47.6234" lon="-2.85924">
        <ele>5.3</ele>
        <time>2025-01-28T13:17:36Z</time>
      </trkpt>
      <trkpt lat="47.62338" lon="-2.85924">
        <ele>5.1</ele>
        <time>2025-01-28T13:17:37Z</time>
      </trkpt>
      <trkpt lat="47.62337" lon="-2.85923">
        <ele>4.9</ele>
        <time>2025-01-28T13:17:38Z</time>
      </trkpt>
      <trkpt lat="47.62336" lon="-2.85923">
        <ele>4.8</ele>
        <time>2025-01-28T13:17:39Z</time>
      </trkpt>
      <trkpt lat="47.62335" lon="-2.85923">
        <ele>4.6</ele>
        <time>2025-01-28T13:17:40Z</time>
      </trkpt>
      <trkpt lat="47.62333" lon="-2.85922">
        <ele>4.4</ele>
        <time>2025-01-28T13:17:41Z</time>
      </trkpt>
      <trkpt lat="47.62332" lon="-2.85921">
        <ele>4.2</ele>
        <time>2025-01-28T13:17:42Z</time>
      </trkpt>
      <trkpt lat="47.62331" lon="-2.85921">
        <ele>4</ele>
        <time>2025-01-28T13:17:43Z</time>
      </trkpt>
      <trkpt lat="47.6233" lon="-2.85919">
        <ele>3.8</ele>
        <time>2025-01-28T13:17:44Z</time>
      </trkpt>
      <trkpt lat="47.62328" lon="-2.85919">
        <ele>3.6</ele>
        <time>2025-01-28T13:17:45Z</time>
      </trkpt>
      <trkpt lat="47.62327" lon="-2.8592">
        <ele>3.5</ele>
        <time>2025-01-28T13:17:46Z</time>
      </trkpt>
      <trkpt lat="47.62326" lon="-2.85922">
        <ele>3.4</ele>
        <time>2025-01-28T13:17:47Z</time>
      </trkpt>
      <trkpt lat="47.62325" lon="-2.85923">
        <ele>3.4</ele>
        <time>2025-01-28T13:17:48Z</time>
      </trkpt>
      <trkpt lat="47.62323" lon="-2.85924">
        <ele>3.3</ele>
        <time>2025-01-28T13:17:49Z</time>
      </trkpt>
      <trkpt lat="47.62322" lon="-2.85925">
        <ele>3.2</ele>
        <time>2025-01-28T13:17:50Z</time>
      </trkpt>
      <trkpt lat="47.62321" lon="-2.85926">
        <ele>3</ele>
        <time>2025-01-28T13:17:51Z</time>
      </trkpt>
      <trkpt lat="47.6232" lon="-2.85927">
        <ele>2.9</ele>
        <time>2025-01-28T13:17:52Z</time>
      </trkpt>
      <trkpt lat="47.62319" lon="-2.85929">
        <ele>2.9</ele>
        <time>2025-01-28T13:17:53Z</time>
      </trkpt>
      <trkpt lat="47.62318" lon="-2.8593">
        <ele>2.8</ele>
        <time>2025-01-28T13:17:54Z</time>
      </trkpt>
      <trkpt lat="47.62318" lon="-2.85931">
        <ele>2.8</ele>
        <time>2025-01-28T13:17:55Z</time>
      </trkpt>
      <trkpt lat="47.62319" lon="-2.85934">
        <ele>3.1</ele>
        <time>2025-01-28T13:17:56Z</time>
      </trkpt>
      <trkpt lat="47.6232" lon="-2.85935">
        <ele>3.3</ele>
        <time>2025-01-28T13:17:57Z</time>
      </trkpt>
      <trkpt lat="47.62321" lon="-2.85936">
        <ele>3.5</ele>
        <time>2025-01-28T13:17:58Z</time>
      </trkpt>
      <trkpt lat="47.62322" lon="-2.85936">
        <ele>3.6</ele>
        <time>2025-01-28T13:17:59Z</time>
      </trkpt>
      <trkpt lat="47.62324" lon="-2.85936">
        <ele>3.8</ele>
        <time>2025-01-28T13:18:00Z</time>
      </trkpt>
      <trkpt lat="47.62325" lon="-2.85937">
        <ele>4.1</ele>
        <time>2025-01-28T13:18:01Z</time>
      </trkpt>
      <trkpt lat="47.62325" lon="-2.85939">
        <ele>4.2</ele>
        <time>2025-01-28T13:18:02Z</time>
      </trkpt>
      <trkpt lat="47.62325" lon="-2.8594">
        <ele>4.2</ele>
        <time>2025-01-28T13:18:03Z</time>
      </trkpt>
      <trkpt lat="47.62324" lon="-2.85941">
        <ele>4.2</ele>
        <time>2025-01-28T13:18:04Z</time>
      </trkpt>
      <trkpt lat="47.62324" lon="-2.85943">
        <ele>4.2</ele>
        <time>2025-01-28T13:18:05Z</time>
      </trkpt>
      <trkpt lat="47.62323" lon="-2.85944">
        <ele>4.2</ele>
        <time>2025-01-28T13:18:06Z</time>
      </trkpt>
      <trkpt lat="47.62323" lon="-2.85945">
        <ele>4.1</ele>
        <time>2025-01-28T13:18:07Z</time>
      </trkpt>
      <trkpt lat="47.62323" lon="-2.85944">
        <ele>4.1</ele>
        <time>2025-01-28T13:18:08Z</time>
      </trkpt>
      <trkpt lat="47.62321" lon="-2.85945">
        <ele>3.8</ele>
        <time>2025-01-28T13:18:09Z</time>
      </trkpt>
      <trkpt lat="47.6232" lon="-2.85947">
        <ele>3.6</ele>
        <time>2025-01-28T13:18:10Z</time>
      </trkpt>
      <trkpt lat="47.6232" lon="-2.85948">
        <ele>3.6</ele>
        <time>2025-01-28T13:18:11Z</time>
      </trkpt>
      <trkpt lat="47.62319" lon="-2.8595">
        <ele>3.5</ele>
        <time>2025-01-28T13:18:12Z</time>
      </trkpt>
      <trkpt lat="47.62319" lon="-2.85951">
        <ele>3.5</ele>
        <time>2025-01-28T13:18:13Z</time>
      </trkpt>
      <trkpt lat="47.62319" lon="-2.85953">
        <ele>3.5</ele>
        <time>2025-01-28T13:18:14Z</time>
      </trkpt>
      <trkpt lat="47.62319" lon="-2.85955">
        <ele>3.6</ele>
        <time>2025-01-28T13:18:15Z</time>
      </trkpt>
      <trkpt lat="47.62319" lon="-2.85956">
        <ele>3.6</ele>
        <time>2025-01-28T13:18:16Z</time>
      </trkpt>
      <trkpt lat="47.62318" lon="-2.85958">
        <ele>3.5</ele>
        <time>2025-01-28T13:18:17Z</time>
      </trkpt>
      <trkpt lat="47.62318" lon="-2.85959">
        <ele>3.4</ele>
        <time>2025-01-28T13:18:18Z</time>
      </trkpt>
      <trkpt lat="47.62317" lon="-2.8596">
        <ele>3.4</ele>
        <time>2025-01-28T13:18:19Z</time>
      </trkpt>
      <trkpt lat="47.62317" lon="-2.85961">
        <ele>3.4</ele>
        <time>2025-01-28T13:18:20Z</time>
      </trkpt>
      <trkpt lat="47.62317" lon="-2.85961">
        <ele>3.3</ele>
        <time>2025-01-28T13:18:21Z</time>
      </trkpt>
      <trkpt lat="47.62317" lon="-2.85963">
        <ele>3.2</ele>
        <time>2025-01-28T13:18:22Z</time>
      </trkpt>
      <trkpt lat="47.62316" lon="-2.85964">
        <ele>3.2</ele>
        <time>2025-01-28T13:18:23Z</time>
      </trkpt>
      <trkpt lat="47.62316" lon="-2.85965">
        <ele>3.1</ele>
        <time>2025-01-28T13:18:24Z</time>
      </trkpt>
      <trkpt lat="47.62316" lon="-2.85967">
        <ele>3.1</ele>
        <time>2025-01-28T13:18:25Z</time>
      </trkpt>
      <trkpt lat="47.62316" lon="-2.85969">
        <ele>3.2</ele>
        <time>2025-01-28T13:18:26Z</time>
      </trkpt>
      <trkpt lat="47.62316" lon="-2.85971">
        <ele>3.2</ele>
        <time>2025-01-28T13:18:27Z</time>
      </trkpt>
      <trkpt lat="47.62316" lon="-2.85972">
        <ele>3.2</ele>
        <time>2025-01-28T13:18:28Z</time>
      </trkpt>
      <trkpt lat="47.62316" lon="-2.85974">
        <ele>3.3</ele>
        <time>2025-01-28T13:18:29Z</time>
      </trkpt>
      <trkpt lat="47.62316" lon="-2.85975">
        <ele>3.4</ele>
        <time>2025-01-28T13:18:30Z</time>
      </trkpt>
      <trkpt lat="47.62316" lon="-2.85977">
        <ele>3.6</ele>
        <time>2025-01-28T13:18:31Z</time>
      </trkpt>
      <trkpt lat="47.62315" lon="-2.85979">
        <ele>3.6</ele>
        <time>2025-01-28T13:18:32Z</time>
      </trkpt>
      <trkpt lat="47.62315" lon="-2.8598">
        <ele>3.6</ele>
        <time>2025-01-28T13:18:33Z</time>
      </trkpt>
      <trkpt lat="47.62314" lon="-2.85982">
        <ele>3.6</ele>
        <time>2025-01-28T13:18:34Z</time>
      </trkpt>
      <trkpt lat="47.62313" lon="-2.85983">
        <ele>3.6</ele>
        <time>2025-01-28T13:18:35Z</time>
      </trkpt>
      <trkpt lat="47.62313" lon="-2.85985">
        <ele>3.7</ele>
        <time>2025-01-28T13:18:36Z</time>
      </trkpt>
      <trkpt lat="47.62312" lon="-2.85986">
        <ele>3.7</ele>
        <time>2025-01-28T13:18:37Z</time>
      </trkpt>
      <trkpt lat="47.62312" lon="-2.85988">
        <ele>3.7</ele>
        <time>2025-01-28T13:18:38Z</time>
      </trkpt>
      <trkpt lat="47.62311" lon="-2.85989">
        <ele>3.9</ele>
        <time>2025-01-28T13:18:39Z</time>
      </trkpt>
      <trkpt lat="47.62311" lon="-2.85991">
        <ele>3.9</ele>
        <time>2025-01-28T13:18:40Z</time>
      </trkpt>
      <trkpt lat="47.62311" lon="-2.85992">
        <ele>3.9</ele>
        <time>2025-01-28T13:18:41Z</time>
      </trkpt>
      <trkpt lat="47.62311" lon="-2.85993">
        <ele>4</ele>
        <time>2025-01-28T13:18:42Z</time>
      </trkpt>
      <trkpt lat="47.6231" lon="-2.85995">
        <ele>4.2</ele>
        <time>2025-01-28T13:18:43Z</time>
      </trkpt>
      <trkpt lat="47.6231" lon="-2.85996">
        <ele>4.3</ele>
        <time>2025-01-28T13:18:44Z</time>
      </trkpt>
      <trkpt lat="47.6231" lon="-2.85998">
        <ele>4.4</ele>
        <time>2025-01-28T13:18:45Z</time>
      </trkpt>
      <trkpt lat="47.6231" lon="-2.86">
        <ele>4.6</ele>
        <time>2025-01-28T13:18:46Z</time>
      </trkpt>
      <trkpt lat="47.6231" lon="-2.86002">
        <ele>4.7</ele>
        <time>2025-01-28T13:18:47Z</time>
      </trkpt>
      <trkpt lat="47.6231" lon="-2.86004">
        <ele>4.6</ele>
        <time>2025-01-28T13:18:48Z</time>
      </trkpt>
      <trkpt lat="47.6231" lon="-2.86005">
        <ele>4.6</ele>
        <time>2025-01-28T13:18:49Z</time>
      </trkpt>
      <trkpt lat="47.6231" lon="-2.86007">
        <ele>4.6</ele>
        <time>2025-01-28T13:18:50Z</time>
      </trkpt>
      <trkpt lat="47.62309" lon="-2.86008">
        <ele>4.5</ele>
        <time>2025-01-28T13:18:51Z</time>
      </trkpt>
      <trkpt lat="47.62309" lon="-2.8601">
        <ele>4.5</ele>
        <time>2025-01-28T13:18:52Z</time>
      </trkpt>
      <trkpt lat="47.62309" lon="-2.86012">
        <ele>4.5</ele>
        <time>2025-01-28T13:18:53Z</time>
      </trkpt>
      <trkpt lat="47.62309" lon="-2.86013">
        <ele>4.4</ele>
        <time>2025-01-28T13:18:54Z</time>
      </trkpt>
      <trkpt lat="47.62308" lon="-2.86015">
        <ele>4.4</ele>
        <time>2025-01-28T13:18:55Z</time>
      </trkpt>
      <trkpt lat="47.62308" lon="-2.86016">
        <ele>4.4</ele>
        <time>2025-01-28T13:18:56Z</time>
      </trkpt>
      <trkpt lat="47.62308" lon="-2.86017">
        <ele>4.4</ele>
        <time>2025-01-28T13:18:57Z</time>
      </trkpt>
      <trkpt lat="47.62308" lon="-2.86019">
        <ele>4.4</ele>
        <time>2025-01-28T13:18:58Z</time>
      </trkpt>
      <trkpt lat="47.62309" lon="-2.86021">
        <ele>4.4</ele>
        <time>2025-01-28T13:18:59Z</time>
      </trkpt>
      <trkpt lat="47.62309" lon="-2.86022">
        <ele>4.4</ele>
        <time>2025-01-28T13:19:00Z</time>
      </trkpt>
      <trkpt lat="47.62308" lon="-2.86024">
        <ele>4.3</ele>
        <time>2025-01-28T13:19:01Z</time>
      </trkpt>
      <trkpt lat="47.62307" lon="-2.86025">
        <ele>4.2</ele>
        <time>2025-01-28T13:19:02Z</time>
      </trkpt>
      <trkpt lat="47.62306" lon="-2.86026">
        <ele>4.1</ele>
        <time>2025-01-28T13:19:03Z</time>
      </trkpt>
      <trkpt lat="47.62306" lon="-2.86028">
        <ele>4</ele>
        <time>2025-01-28T13:19:04Z</time>
      </trkpt>
      <trkpt lat="47.62305" lon="-2.86029">
        <ele>4</ele>
        <time>2025-01-28T13:19:05Z</time>
      </trkpt>
      <trkpt lat="47.62304" lon="-2.86031">
        <ele>4</ele>
        <time>2025-01-28T13:19:06Z</time>
      </trkpt>
      <trkpt lat="47.62304" lon="-2.86032">
        <ele>3.9</ele>
        <time>2025-01-28T13:19:07Z</time>
      </trkpt>
      <trkpt lat="47.62303" lon="-2.86033">
        <ele>3.9</ele>
        <time>2025-01-28T13:19:08Z</time>
      </trkpt>
      <trkpt lat="47.62302" lon="-2.86035">
        <ele>3.9</ele>
        <time>2025-01-28T13:19:09Z</time>
      </trkpt>
      <trkpt lat="47.62301" lon="-2.86036">
        <ele>3.8</ele>
        <time>2025-01-28T13:19:10Z</time>
      </trkpt>
      <trkpt lat="47.623" lon="-2.86037">
        <ele>3.7</ele>
        <time>2025-01-28T13:19:11Z</time>
      </trkpt>
      <trkpt lat="47.623" lon="-2.86039">
        <ele>3.7</ele>
        <time>2025-01-28T13:19:12Z</time>
      </trkpt>
      <trkpt lat="47.623" lon="-2.8604">
        <ele>3.7</ele>
        <time>2025-01-28T13:19:13Z</time>
      </trkpt>
      <trkpt lat="47.62298" lon="-2.86041">
        <ele>3.6</ele>
        <time>2025-01-28T13:19:14Z</time>
      </trkpt>
      <trkpt lat="47.62298" lon="-2.86042">
        <ele>3.5</ele>
        <time>2025-01-28T13:19:15Z</time>
      </trkpt>
      <trkpt lat="47.62297" lon="-2.86044">
        <ele>3.5</ele>
        <time>2025-01-28T13:19:16Z</time>
      </trkpt>
      <trkpt lat="47.62297" lon="-2.86046">
        <ele>3.5</ele>
        <time>2025-01-28T13:19:17Z</time>
      </trkpt>
      <trkpt lat="47.62296" lon="-2.86047">
        <ele>3.4</ele>
        <time>2025-01-28T13:19:18Z</time>
      </trkpt>
      <trkpt lat="47.62296" lon="-2.86049">
        <ele>3.4</ele>
        <time>2025-01-28T13:19:19Z</time>
      </trkpt>
      <trkpt lat="47.62295" lon="-2.8605">
        <ele>3.3</ele>
        <time>2025-01-28T13:19:20Z</time>
      </trkpt>
      <trkpt lat="47.62294" lon="-2.86051">
        <ele>3.2</ele>
        <time>2025-01-28T13:19:21Z</time>
      </trkpt>
      <trkpt lat="47.62293" lon="-2.86052">
        <ele>3.1</ele>
        <time>2025-01-28T13:19:22Z</time>
      </trkpt>
      <trkpt lat="47.62293" lon="-2.86054">
        <ele>3.1</ele>
        <time>2025-01-28T13:19:23Z</time>
      </trkpt>
      <trkpt lat="47.62292" lon="-2.86055">
        <ele>3</ele>
        <time>2025-01-28T13:19:24Z</time>
      </trkpt>
      <trkpt lat="47.62291" lon="-2.86056">
        <ele>2.9</ele>
        <time>2025-01-28T13:19:25Z</time>
      </trkpt>
      <trkpt lat="47.62291" lon="-2.86058">
        <ele>3</ele>
        <time>2025-01-28T13:19:26Z</time>
      </trkpt>
      <trkpt lat="47.6229" lon="-2.8606">
        <ele>3.1</ele>
        <time>2025-01-28T13:19:27Z</time>
      </trkpt>
      <trkpt lat="47.6229" lon="-2.86061">
        <ele>3.1</ele>
        <time>2025-01-28T13:19:28Z</time>
      </trkpt>
      <trkpt lat="47.62289" lon="-2.86063">
        <ele>3.2</ele>
        <time>2025-01-28T13:19:29Z</time>
      </trkpt>
      <trkpt lat="47.62289" lon="-2.86064">
        <ele>3.2</ele>
        <time>2025-01-28T13:19:30Z</time>
      </trkpt>
      <trkpt lat="47.62288" lon="-2.86066">
        <ele>3.3</ele>
        <time>2025-01-28T13:19:31Z</time>
      </trkpt>
      <trkpt lat="47.62288" lon="-2.86067">
        <ele>3.4</ele>
        <time>2025-01-28T13:19:32Z</time>
      </trkpt>
      <trkpt lat="47.62287" lon="-2.86069">
        <ele>3.4</ele>
        <time>2025-01-28T13:19:33Z</time>
      </trkpt>
      <trkpt lat="47.62286" lon="-2.8607">
        <ele>3.5</ele>
        <time>2025-01-28T13:19:34Z</time>
      </trkpt>
      <trkpt lat="47.62286" lon="-2.86071">
        <ele>3.5</ele>
        <time>2025-01-28T13:19:35Z</time>
      </trkpt>
      <trkpt lat="47.62285" lon="-2.86073">
        <ele>3.5</ele>
        <time>2025-01-28T13:19:36Z</time>
      </trkpt>
      <trkpt lat="47.62284" lon="-2.86074">
        <ele>3.5</ele>
        <time>2025-01-28T13:19:37Z</time>
      </trkpt>
      <trkpt lat="47.62283" lon="-2.86075">
        <ele>3.5</ele>
        <time>2025-01-28T13:19:38Z</time>
      </trkpt>
      <trkpt lat="47.62282" lon="-2.86076">
        <ele>3.6</ele>
        <time>2025-01-28T13:19:39Z</time>
      </trkpt>
      <trkpt lat="47.62282" lon="-2.86077">
        <ele>3.7</ele>
        <time>2025-01-28T13:19:40Z</time>
      </trkpt>
      <trkpt lat="47.62281" lon="-2.86079">
        <ele>3.8</ele>
        <time>2025-01-28T13:19:41Z</time>
      </trkpt>
      <trkpt lat="47.62281" lon="-2.86081">
        <ele>4</ele>
        <time>2025-01-28T13:19:42Z</time>
      </trkpt>
      <trkpt lat="47.6228" lon="-2.86082">
        <ele>4</ele>
        <time>2025-01-28T13:19:43Z</time>
      </trkpt>
      <trkpt lat="47.6228" lon="-2.86084">
        <ele>4.2</ele>
        <time>2025-01-28T13:19:44Z</time>
      </trkpt>
      <trkpt lat="47.62279" lon="-2.86085">
        <ele>4.2</ele>
        <time>2025-01-28T13:19:45Z</time>
      </trkpt>
      <trkpt lat="47.62278" lon="-2.86087">
        <ele>4.3</ele>
        <time>2025-01-28T13:19:46Z</time>
      </trkpt>
      <trkpt lat="47.62278" lon="-2.86088">
        <ele>4.3</ele>
        <time>2025-01-28T13:19:47Z</time>
      </trkpt>
      <trkpt lat="47.62277" lon="-2.86089">
        <ele>4.3</ele>
        <time>2025-01-28T13:19:48Z</time>
      </trkpt>
      <trkpt lat="47.62277" lon="-2.8609">
        <ele>4.3</ele>
        <time>2025-01-28T13:19:49Z</time>
      </trkpt>
      <trkpt lat="47.62276" lon="-2.86092">
        <ele>4.4</ele>
        <time>2025-01-28T13:19:50Z</time>
      </trkpt>
      <trkpt lat="47.62276" lon="-2.86093">
        <ele>4.4</ele>
        <time>2025-01-28T13:19:51Z</time>
      </trkpt>
      <trkpt lat="47.62275" lon="-2.86094">
        <ele>4.4</ele>
        <time>2025-01-28T13:19:52Z</time>
      </trkpt>
      <trkpt lat="47.62274" lon="-2.86096">
        <ele>4.4</ele>
        <time>2025-01-28T13:19:53Z</time>
      </trkpt>
      <trkpt lat="47.62273" lon="-2.86097">
        <ele>4.4</ele>
        <time>2025-01-28T13:19:54Z</time>
      </trkpt>
      <trkpt lat="47.62272" lon="-2.86098">
        <ele>4.3</ele>
        <time>2025-01-28T13:19:55Z</time>
      </trkpt>
      <trkpt lat="47.62272" lon="-2.861">
        <ele>4.3</ele>
        <time>2025-01-28T13:19:56Z</time>
      </trkpt>
      <trkpt lat="47.62272" lon="-2.86101">
        <ele>4.3</ele>
        <time>2025-01-28T13:19:57Z</time>
      </trkpt>
      <trkpt lat="47.62271" lon="-2.86103">
        <ele>4.3</ele>
        <time>2025-01-28T13:19:58Z</time>
      </trkpt>
      <trkpt lat="47.62271" lon="-2.86104">
        <ele>4.3</ele>
        <time>2025-01-28T13:19:59Z</time>
      </trkpt>
      <trkpt lat="47.6227" lon="-2.86106">
        <ele>4.3</ele>
        <time>2025-01-28T13:20:00Z</time>
      </trkpt>
      <trkpt lat="47.62269" lon="-2.86107">
        <ele>4.2</ele>
        <time>2025-01-28T13:20:01Z</time>
      </trkpt>
      <trkpt lat="47.62269" lon="-2.86108">
        <ele>4.2</ele>
        <time>2025-01-28T13:20:02Z</time>
      </trkpt>
      <trkpt lat="47.62268" lon="-2.86109">
        <ele>4.2</ele>
        <time>2025-01-28T13:20:03Z</time>
      </trkpt>
      <trkpt lat="47.62268" lon="-2.8611">
        <ele>4.1</ele>
        <time>2025-01-28T13:20:04Z</time>
      </trkpt>
      <trkpt lat="47.62267" lon="-2.86111">
        <ele>4</ele>
        <time>2025-01-28T13:20:05Z</time>
      </trkpt>
      <trkpt lat="47.62266" lon="-2.86111">
        <ele>3.8</ele>
        <time>2025-01-28T13:20:06Z</time>
      </trkpt>
      <trkpt lat="47.62265" lon="-2.86112">
        <ele>3.7</ele>
        <time>2025-01-28T13:20:07Z</time>
      </trkpt>
      <trkpt lat="47.62264" lon="-2.86114">
        <ele>3.7</ele>
        <time>2025-01-28T13:20:08Z</time>
      </trkpt>
      <trkpt lat="47.62264" lon="-2.86115">
        <ele>3.6</ele>
        <time>2025-01-28T13:20:09Z</time>
      </trkpt>
      <trkpt lat="47.62263" lon="-2.86117">
        <ele>3.6</ele>
        <time>2025-01-28T13:20:10Z</time>
      </trkpt>
      <trkpt lat="47.62263" lon="-2.86118">
        <ele>3.6</ele>
        <time>2025-01-28T13:20:11Z</time>
      </trkpt>
      <trkpt lat="47.62262" lon="-2.86119">
        <ele>3.5</ele>
        <time>2025-01-28T13:20:12Z</time>
      </trkpt>
      <trkpt lat="47.62262" lon="-2.86121">
        <ele>3.5</ele>
        <time>2025-01-28T13:20:13Z</time>
      </trkpt>
      <trkpt lat="47.62262" lon="-2.86122">
        <ele>3.5</ele>
        <time>2025-01-28T13:20:14Z</time>
      </trkpt>
      <trkpt lat="47.62261" lon="-2.86124">
        <ele>3.5</ele>
        <time>2025-01-28T13:20:15Z</time>
      </trkpt>
      <trkpt lat="47.62261" lon="-2.86125">
        <ele>3.4</ele>
        <time>2025-01-28T13:20:16Z</time>
      </trkpt>
      <trkpt lat="47.62261" lon="-2.86127">
        <ele>3.4</ele>
        <time>2025-01-28T13:20:17Z</time>
      </trkpt>
      <trkpt lat="47.62261" lon="-2.86128">
        <ele>3.5</ele>
        <time>2025-01-28T13:20:18Z</time>
      </trkpt>
      <trkpt lat="47.6226" lon="-2.8613">
        <ele>3.5</ele>
        <time>2025-01-28T13:20:19Z</time>
      </trkpt>
      <trkpt lat="47.62259" lon="-2.86131">
        <ele>3.4</ele>
        <time>2025-01-28T13:20:20Z</time>
      </trkpt>
      <trkpt lat="47.62259" lon="-2.86133">
        <ele>3.3</ele>
        <time>2025-01-28T13:20:21Z</time>
      </trkpt>
      <trkpt lat="47.62258" lon="-2.86134">
        <ele>3.2</ele>
        <time>2025-01-28T13:20:22Z</time>
      </trkpt>
      <trkpt lat="47.62256" lon="-2.86134">
        <ele>3</ele>
        <time>2025-01-28T13:20:23Z</time>
      </trkpt>
      <trkpt lat="47.62255" lon="-2.86136">
        <ele>2.8</ele>
        <time>2025-01-28T13:20:24Z</time>
      </trkpt>
      <trkpt lat="47.62255" lon="-2.86137">
        <ele>2.8</ele>
        <time>2025-01-28T13:20:25Z</time>
      </trkpt>
      <trkpt lat="47.62254" lon="-2.86139">
        <ele>2.7</ele>
        <time>2025-01-28T13:20:26Z</time>
      </trkpt>
      <trkpt lat="47.62253" lon="-2.86139">
        <ele>2.6</ele>
        <time>2025-01-28T13:20:27Z</time>
      </trkpt>
      <trkpt lat="47.62253" lon="-2.8614">
        <ele>2.5</ele>
        <time>2025-01-28T13:20:28Z</time>
      </trkpt>
      <trkpt lat="47.62252" lon="-2.86142">
        <ele>2.5</ele>
        <time>2025-01-28T13:20:29Z</time>
      </trkpt>
      <trkpt lat="47.62253" lon="-2.86143">
        <ele>2.6</ele>
        <time>2025-01-28T13:20:30Z</time>
      </trkpt>
      <trkpt lat="47.62253" lon="-2.86145">
        <ele>2.7</ele>
        <time>2025-01-28T13:20:31Z</time>
      </trkpt>
      <trkpt lat="47.62253" lon="-2.86146">
        <ele>2.7</ele>
        <time>2025-01-28T13:20:32Z</time>
      </trkpt>
      <trkpt lat="47.62253" lon="-2.86148">
        <ele>2.8</ele>
        <time>2025-01-28T13:20:33Z</time>
      </trkpt>
      <trkpt lat="47.62253" lon="-2.8615">
        <ele>2.9</ele>
        <time>2025-01-28T13:20:34Z</time>
      </trkpt>
      <trkpt lat="47.62253" lon="-2.86152">
        <ele>2.9</ele>
        <time>2025-01-28T13:20:35Z</time>
      </trkpt>
      <trkpt lat="47.62253" lon="-2.86153">
        <ele>3</ele>
        <time>2025-01-28T13:20:36Z</time>
      </trkpt>
      <trkpt lat="47.62253" lon="-2.86155">
        <ele>3</ele>
        <time>2025-01-28T13:20:37Z</time>
      </trkpt>
      <trkpt lat="47.62252" lon="-2.86156">
        <ele>3.1</ele>
        <time>2025-01-28T13:20:38Z</time>
      </trkpt>
      <trkpt lat="47.62252" lon="-2.86158">
        <ele>3</ele>
        <time>2025-01-28T13:20:39Z</time>
      </trkpt>
      <trkpt lat="47.62252" lon="-2.8616">
        <ele>3.1</ele>
        <time>2025-01-28T13:20:40Z</time>
      </trkpt>
      <trkpt lat="47.62251" lon="-2.86161">
        <ele>3.1</ele>
        <time>2025-01-28T13:20:41Z</time>
      </trkpt>
      <trkpt lat="47.62251" lon="-2.86163">
        <ele>3</ele>
        <time>2025-01-28T13:20:42Z</time>
      </trkpt>
      <trkpt lat="47.6225" lon="-2.86165">
        <ele>3</ele>
        <time>2025-01-28T13:20:43Z</time>
      </trkpt>
      <trkpt lat="47.6225" lon="-2.86166">
        <ele>3</ele>
        <time>2025-01-28T13:20:44Z</time>
      </trkpt>
      <trkpt lat="47.6225" lon="-2.86168">
        <ele>3</ele>
        <time>2025-01-28T13:20:45Z</time>
      </trkpt>
      <trkpt lat="47.6225" lon="-2.86169">
        <ele>3.1</ele>
        <time>2025-01-28T13:20:46Z</time>
      </trkpt>
      <trkpt lat="47.62249" lon="-2.86171">
        <ele>3.1</ele>
        <time>2025-01-28T13:20:47Z</time>
      </trkpt>
      <trkpt lat="47.62248" lon="-2.86172">
        <ele>3.1</ele>
        <time>2025-01-28T13:20:48Z</time>
      </trkpt>
      <trkpt lat="47.62248" lon="-2.86174">
        <ele>3.1</ele>
        <time>2025-01-28T13:20:49Z</time>
      </trkpt>
      <trkpt lat="47.62248" lon="-2.86176">
        <ele>3.2</ele>
        <time>2025-01-28T13:20:50Z</time>
      </trkpt>
      <trkpt lat="47.62248" lon="-2.86178">
        <ele>3.2</ele>
        <time>2025-01-28T13:20:51Z</time>
      </trkpt>
      <trkpt lat="47.62248" lon="-2.86179">
        <ele>3.3</ele>
        <time>2025-01-28T13:20:52Z</time>
      </trkpt>
      <trkpt lat="47.62248" lon="-2.86181">
        <ele>3.3</ele>
        <time>2025-01-28T13:20:53Z</time>
      </trkpt>
      <trkpt lat="47.62248" lon="-2.86183">
        <ele>3.4</ele>
        <time>2025-01-28T13:20:54Z</time>
      </trkpt>
      <trkpt lat="47.62248" lon="-2.86185">
        <ele>3.4</ele>
        <time>2025-01-28T13:20:55Z</time>
      </trkpt>
      <trkpt lat="47.62248" lon="-2.86187">
        <ele>3.5</ele>
        <time>2025-01-28T13:20:56Z</time>
      </trkpt>
      <trkpt lat="47.62248" lon="-2.86189">
        <ele>3.6</ele>
        <time>2025-01-28T13:20:57Z</time>
      </trkpt>
      <trkpt lat="47.62248" lon="-2.86191">
        <ele>3.7</ele>
        <time>2025-01-28T13:20:58Z</time>
      </trkpt>
      <trkpt lat="47.62248" lon="-2.86192">
        <ele>3.7</ele>
        <time>2025-01-28T13:20:59Z</time>
      </trkpt>
      <trkpt lat="47.62248" lon="-2.86195">
        <ele>3.8</ele>
        <time>2025-01-28T13:21:00Z</time>
      </trkpt>
      <trkpt lat="47.62249" lon="-2.86196">
        <ele>4</ele>
        <time>2025-01-28T13:21:01Z</time>
      </trkpt>
      <trkpt lat="47.6225" lon="-2.86198">
        <ele>4.1</ele>
        <time>2025-01-28T13:21:02Z</time>
      </trkpt>
      <trkpt lat="47.6225" lon="-2.862">
        <ele>4.2</ele>
        <time>2025-01-28T13:21:03Z</time>
      </trkpt>
      <trkpt lat="47.6225" lon="-2.86202">
        <ele>4.2</ele>
        <time>2025-01-28T13:21:04Z</time>
      </trkpt>
      <trkpt lat="47.62249" lon="-2.86204">
        <ele>4.3</ele>
        <time>2025-01-28T13:21:05Z</time>
      </trkpt>
      <trkpt lat="47.62249" lon="-2.86206">
        <ele>4.3</ele>
        <time>2025-01-28T13:21:06Z</time>
      </trkpt>
      <trkpt lat="47.62249" lon="-2.86208">
        <ele>4.4</ele>
        <time>2025-01-28T13:21:07Z</time>
      </trkpt>
      <trkpt lat="47.62249" lon="-2.8621">
        <ele>4.5</ele>
        <time>2025-01-28T13:21:08Z</time>
      </trkpt>
      <trkpt lat="47.62249" lon="-2.86212">
        <ele>4.6</ele>
        <time>2025-01-28T13:21:09Z</time>
      </trkpt>
      <trkpt lat="47.62249" lon="-2.86214">
        <ele>4.5</ele>
        <time>2025-01-28T13:21:10Z</time>
      </trkpt>
      <trkpt lat="47.62247" lon="-2.86215">
        <ele>4.4</ele>
        <time>2025-01-28T13:21:11Z</time>
      </trkpt>
      <trkpt lat="47.62247" lon="-2.86217">
        <ele>4.3</ele>
        <time>2025-01-28T13:21:12Z</time>
      </trkpt>
      <trkpt lat="47.62246" lon="-2.86218">
        <ele>4.2</ele>
        <time>2025-01-28T13:21:13Z</time>
      </trkpt>
      <trkpt lat="47.62245" lon="-2.8622">
        <ele>4.3</ele>
        <time>2025-01-28T13:21:14Z</time>
      </trkpt>
      <trkpt lat="47.62245" lon="-2.86222">
        <ele>4.3</ele>
        <time>2025-01-28T13:21:15Z</time>
      </trkpt>
      <trkpt lat="47.62245" lon="-2.86224">
        <ele>4.2</ele>
        <time>2025-01-28T13:21:16Z</time>
      </trkpt>
      <trkpt lat="47.62244" lon="-2.86225">
        <ele>4.1</ele>
        <time>2025-01-28T13:21:17Z</time>
      </trkpt>
      <trkpt lat="47.62244" lon="-2.86227">
        <ele>4.1</ele>
        <time>2025-01-28T13:21:18Z</time>
      </trkpt>
      <trkpt lat="47.62244" lon="-2.86228">
        <ele>4</ele>
        <time>2025-01-28T13:21:19Z</time>
      </trkpt>
      <trkpt lat="47.62244" lon="-2.8623">
        <ele>4</ele>
        <time>2025-01-28T13:21:20Z</time>
      </trkpt>
      <trkpt lat="47.62244" lon="-2.86231">
        <ele>3.9</ele>
        <time>2025-01-28T13:21:21Z</time>
      </trkpt>
      <trkpt lat="47.62244" lon="-2.86233">
        <ele>3.9</ele>
        <time>2025-01-28T13:21:22Z</time>
      </trkpt>
      <trkpt lat="47.62244" lon="-2.86235">
        <ele>3.9</ele>
        <time>2025-01-28T13:21:23Z</time>
      </trkpt>
      <trkpt lat="47.62245" lon="-2.86236">
        <ele>3.9</ele>
        <time>2025-01-28T13:21:24Z</time>
      </trkpt>
      <trkpt lat="47.62245" lon="-2.86238">
        <ele>3.9</ele>
        <time>2025-01-28T13:21:25Z</time>
      </trkpt>
      <trkpt lat="47.62245" lon="-2.8624">
        <ele>3.9</ele>
        <time>2025-01-28T13:21:26Z</time>
      </trkpt>
      <trkpt lat="47.62244" lon="-2.86241">
        <ele>3.8</ele>
        <time>2025-01-28T13:21:27Z</time>
      </trkpt>
      <trkpt lat="47.62243" lon="-2.86242">
        <ele>3.7</ele>
        <time>2025-01-28T13:21:28Z</time>
      </trkpt>
      <trkpt lat="47.62243" lon="-2.86241">
        <ele>3.7</ele>
        <time>2025-01-28T13:21:29Z</time>
      </trkpt>
      <trkpt lat="47.62243" lon="-2.86241">
        <ele>3.7</ele>
        <time>2025-01-28T13:21:30Z</time>
      </trkpt>
      <trkpt lat="47.62243" lon="-2.86239">
        <ele>3.7</ele>
        <time>2025-01-28T13:21:31Z</time>
      </trkpt>
      <trkpt lat="47.62243" lon="-2.86238">
        <ele>3.7</ele>
        <time>2025-01-28T13:21:32Z</time>
      </trkpt>
      <trkpt lat="47.62244" lon="-2.86238">
        <ele>3.8</ele>
        <time>2025-01-28T13:21:33Z</time>
      </trkpt>
      <trkpt lat="47.62243" lon="-2.86238">
        <ele>3.7</ele>
        <time>2025-01-28T13:21:34Z</time>
      </trkpt>
      <trkpt lat="47.62243" lon="-2.86238">
        <ele>3.7</ele>
        <time>2025-01-28T13:21:35Z</time>
      </trkpt>
      <trkpt lat="47.62243" lon="-2.86239">
        <ele>3.7</ele>
        <time>2025-01-28T13:21:36Z</time>
      </trkpt>
      <trkpt lat="47.62243" lon="-2.8624">
        <ele>3.7</ele>
        <time>2025-01-28T13:21:37Z</time>
      </trkpt>
      <trkpt lat="47.62243" lon="-2.8624">
        <ele>3.6</ele>
        <time>2025-01-28T13:21:38Z</time>
      </trkpt>
      <trkpt lat="47.62242" lon="-2.86242">
        <ele>3.6</ele>
        <time>2025-01-28T13:21:39Z</time>
      </trkpt>
      <trkpt lat="47.62242" lon="-2.86243">
        <ele>3.5</ele>
        <time>2025-01-28T13:21:40Z</time>
      </trkpt>
      <trkpt lat="47.62242" lon="-2.86246">
        <ele>3.5</ele>
        <time>2025-01-28T13:21:41Z</time>
      </trkpt>
      <trkpt lat="47.6224" lon="-2.86246">
        <ele>3.3</ele>
        <time>2025-01-28T13:21:42Z</time>
      </trkpt>
      <trkpt lat="47.62239" lon="-2.86246">
        <ele>3.2</ele>
        <time>2025-01-28T13:21:43Z</time>
      </trkpt>
      <trkpt lat="47.62238" lon="-2.86248">
        <ele>3.1</ele>
        <time>2025-01-28T13:21:44Z</time>
      </trkpt>
      <trkpt lat="47.62237" lon="-2.86249">
        <ele>3.1</ele>
        <time>2025-01-28T13:21:45Z</time>
      </trkpt>
      <trkpt lat="47.62237" lon="-2.86251">
        <ele>3</ele>
        <time>2025-01-28T13:21:46Z</time>
      </trkpt>
      <trkpt lat="47.62236" lon="-2.86252">
        <ele>3</ele>
        <time>2025-01-28T13:21:47Z</time>
      </trkpt>
      <trkpt lat="47.62236" lon="-2.86254">
        <ele>3</ele>
        <time>2025-01-28T13:21:48Z</time>
      </trkpt>
      <trkpt lat="47.62235" lon="-2.86255">
        <ele>3</ele>
        <time>2025-01-28T13:21:49Z</time>
      </trkpt>
      <trkpt lat="47.62235" lon="-2.86256">
        <ele>3</ele>
        <time>2025-01-28T13:21:50Z</time>
      </trkpt>
      <trkpt lat="47.62235" lon="-2.86258">
        <ele>3.1</ele>
        <time>2025-01-28T13:21:51Z</time>
      </trkpt>
      <trkpt lat="47.62235" lon="-2.8626">
        <ele>3.1</ele>
        <time>2025-01-28T13:21:52Z</time>
      </trkpt>
      <trkpt lat="47.62234" lon="-2.86261">
        <ele>3.1</ele>
        <time>2025-01-28T13:21:53Z</time>
      </trkpt>
      <trkpt lat="47.62233" lon="-2.86262">
        <ele>3.1</ele>
        <time>2025-01-28T13:21:54Z</time>
      </trkpt>
      <trkpt lat="47.62233" lon="-2.86264">
        <ele>3.1</ele>
        <time>2025-01-28T13:21:55Z</time>
      </trkpt>
      <trkpt lat="47.62233" lon="-2.86265">
        <ele>3.1</ele>
        <time>2025-01-28T13:21:56Z</time>
      </trkpt>
      <trkpt lat="47.62232" lon="-2.86266">
        <ele>3.1</ele>
        <time>2025-01-28T13:21:57Z</time>
      </trkpt>
      <trkpt lat="47.62232" lon="-2.86267">
        <ele>3.1</ele>
        <time>2025-01-28T13:21:58Z</time>
      </trkpt>
      <trkpt lat="47.62232" lon="-2.86269">
        <ele>3.1</ele>
        <time>2025-01-28T13:21:59Z</time>
      </trkpt>
      <trkpt lat="47.62232" lon="-2.8627">
        <ele>3.2</ele>
        <time>2025-01-28T13:22:00Z</time>
      </trkpt>
      <trkpt lat="47.62231" lon="-2.86272">
        <ele>3.2</ele>
        <time>2025-01-28T13:22:01Z</time>
      </trkpt>
      <trkpt lat="47.62231" lon="-2.86273">
        <ele>3.2</ele>
        <time>2025-01-28T13:22:02Z</time>
      </trkpt>
      <trkpt lat="47.6223" lon="-2.86275">
        <ele>3.2</ele>
        <time>2025-01-28T13:22:03Z</time>
      </trkpt>
      <trkpt lat="47.6223" lon="-2.86277">
        <ele>3.2</ele>
        <time>2025-01-28T13:22:04Z</time>
      </trkpt>
      <trkpt lat="47.62229" lon="-2.86278">
        <ele>3.3</ele>
        <time>2025-01-28T13:22:05Z</time>
      </trkpt>
      <trkpt lat="47.62229" lon="-2.8628">
        <ele>3.3</ele>
        <time>2025-01-28T13:22:06Z</time>
      </trkpt>
      <trkpt lat="47.62228" lon="-2.86281">
        <ele>3.3</ele>
        <time>2025-01-28T13:22:07Z</time>
      </trkpt>
      <trkpt lat="47.62228" lon="-2.86283">
        <ele>3.3</ele>
        <time>2025-01-28T13:22:08Z</time>
      </trkpt>
      <trkpt lat="47.62228" lon="-2.86284">
        <ele>3.4</ele>
        <time>2025-01-28T13:22:09Z</time>
      </trkpt>
      <trkpt lat="47.62227" lon="-2.86285">
        <ele>3.4</ele>
        <time>2025-01-28T13:22:10Z</time>
      </trkpt>
      <trkpt lat="47.62226" lon="-2.86286">
        <ele>3.4</ele>
        <time>2025-01-28T13:22:11Z</time>
      </trkpt>
      <trkpt lat="47.62226" lon="-2.86287">
        <ele>3.4</ele>
        <time>2025-01-28T13:22:12Z</time>
      </trkpt>
      <trkpt lat="47.62225" lon="-2.86288">
        <ele>3.4</ele>
        <time>2025-01-28T13:22:13Z</time>
      </trkpt>
      <trkpt lat="47.62225" lon="-2.8629">
        <ele>3.5</ele>
        <time>2025-01-28T13:22:14Z</time>
      </trkpt>
      <trkpt lat="47.62224" lon="-2.86291">
        <ele>3.5</ele>
        <time>2025-01-28T13:22:15Z</time>
      </trkpt>
      <trkpt lat="47.62223" lon="-2.86292">
        <ele>3.5</ele>
        <time>2025-01-28T13:22:16Z</time>
      </trkpt>
      <trkpt lat="47.62223" lon="-2.86294">
        <ele>3.6</ele>
        <time>2025-01-28T13:22:17Z</time>
      </trkpt>
      <trkpt lat="47.62223" lon="-2.86296">
        <ele>3.6</ele>
        <time>2025-01-28T13:22:18Z</time>
      </trkpt>
      <trkpt lat="47.62222" lon="-2.86298">
        <ele>3.7</ele>
        <time>2025-01-28T13:22:19Z</time>
      </trkpt>
      <trkpt lat="47.62222" lon="-2.863">
        <ele>3.8</ele>
        <time>2025-01-28T13:22:20Z</time>
      </trkpt>
      <trkpt lat="47.62221" lon="-2.86301">
        <ele>3.7</ele>
        <time>2025-01-28T13:22:21Z</time>
      </trkpt>
      <trkpt lat="47.6222" lon="-2.86302">
        <ele>3.7</ele>
        <time>2025-01-28T13:22:22Z</time>
      </trkpt>
      <trkpt lat="47.6222" lon="-2.86304">
        <ele>3.7</ele>
        <time>2025-01-28T13:22:23Z</time>
      </trkpt>
      <trkpt lat="47.62219" lon="-2.86306">
        <ele>3.7</ele>
        <time>2025-01-28T13:22:24Z</time>
      </trkpt>
      <trkpt lat="47.62219" lon="-2.86307">
        <ele>3.7</ele>
        <time>2025-01-28T13:22:25Z</time>
      </trkpt>
      <trkpt lat="47.62218" lon="-2.86309">
        <ele>3.7</ele>
        <time>2025-01-28T13:22:26Z</time>
      </trkpt>
      <trkpt lat="47.62218" lon="-2.8631">
        <ele>3.7</ele>
        <time>2025-01-28T13:22:27Z</time>
      </trkpt>
      <trkpt lat="47.62217" lon="-2.86311">
        <ele>3.7</ele>
        <time>2025-01-28T13:22:28Z</time>
      </trkpt>
      <trkpt lat="47.62217" lon="-2.86312">
        <ele>3.7</ele>
        <time>2025-01-28T13:22:29Z</time>
      </trkpt>
      <trkpt lat="47.62216" lon="-2.86314">
        <ele>3.7</ele>
        <time>2025-01-28T13:22:30Z</time>
      </trkpt>
      <trkpt lat="47.62216" lon="-2.86315">
        <ele>3.6</ele>
        <time>2025-01-28T13:22:31Z</time>
      </trkpt>
      <trkpt lat="47.62215" lon="-2.86316">
        <ele>3.6</ele>
        <time>2025-01-28T13:22:32Z</time>
      </trkpt>
      <trkpt lat="47.62215" lon="-2.86318">
        <ele>3.6</ele>
        <time>2025-01-28T13:22:33Z</time>
      </trkpt>
      <trkpt lat="47.62214" lon="-2.86319">
        <ele>3.5</ele>
        <time>2025-01-28T13:22:34Z</time>
      </trkpt>
      <trkpt lat="47.62213" lon="-2.8632">
        <ele>3.5</ele>
        <time>2025-01-28T13:22:35Z</time>
      </trkpt>
      <trkpt lat="47.62213" lon="-2.86322">
        <ele>3.5</ele>
        <time>2025-01-28T13:22:36Z</time>
      </trkpt>
      <trkpt lat="47.62212" lon="-2.86323">
        <ele>3.5</ele>
        <time>2025-01-28T13:22:37Z</time>
      </trkpt>
      <trkpt lat="47.62211" lon="-2.86325">
        <ele>3.5</ele>
        <time>2025-01-28T13:22:38Z</time>
      </trkpt>
      <trkpt lat="47.62211" lon="-2.86327">
        <ele>3.5</ele>
        <time>2025-01-28T13:22:39Z</time>
      </trkpt>
      <trkpt lat="47.6221" lon="-2.86329">
        <ele>3.5</ele>
        <time>2025-01-28T13:22:40Z</time>
      </trkpt>
      <trkpt lat="47.62209" lon="-2.8633">
        <ele>3.5</ele>
        <time>2025-01-28T13:22:41Z</time>
      </trkpt>
      <trkpt lat="47.62208" lon="-2.86331">
        <ele>3.4</ele>
        <time>2025-01-28T13:22:42Z</time>
      </trkpt>
      <trkpt lat="47.62208" lon="-2.86333">
        <ele>3.4</ele>
        <time>2025-01-28T13:22:43Z</time>
      </trkpt>
      <trkpt lat="47.62207" lon="-2.86334">
        <ele>3.5</ele>
        <time>2025-01-28T13:22:44Z</time>
      </trkpt>
      <trkpt lat="47.62207" lon="-2.86336">
        <ele>3.6</ele>
        <time>2025-01-28T13:22:45Z</time>
      </trkpt>
      <trkpt lat="47.62206" lon="-2.86338">
        <ele>3.8</ele>
        <time>2025-01-28T13:22:46Z</time>
      </trkpt>
      <trkpt lat="47.62205" lon="-2.86339">
        <ele>3.8</ele>
        <time>2025-01-28T13:22:47Z</time>
      </trkpt>
      <trkpt lat="47.62204" lon="-2.86341">
        <ele>3.9</ele>
        <time>2025-01-28T13:22:48Z</time>
      </trkpt>
      <trkpt lat="47.62203" lon="-2.86342">
        <ele>4</ele>
        <time>2025-01-28T13:22:49Z</time>
      </trkpt>
      <trkpt lat="47.62203" lon="-2.86344">
        <ele>4.1</ele>
        <time>2025-01-28T13:22:50Z</time>
      </trkpt>
      <trkpt lat="47.62202" lon="-2.86345">
        <ele>4.3</ele>
        <time>2025-01-28T13:22:51Z</time>
      </trkpt>
      <trkpt lat="47.62201" lon="-2.86347">
        <ele>4.4</ele>
        <time>2025-01-28T13:22:52Z</time>
      </trkpt>
      <trkpt lat="47.622" lon="-2.86347">
        <ele>4.4</ele>
        <time>2025-01-28T13:22:53Z</time>
      </trkpt>
      <trkpt lat="47.62199" lon="-2.86348">
        <ele>4.5</ele>
        <time>2025-01-28T13:22:54Z</time>
      </trkpt>
      <trkpt lat="47.62198" lon="-2.8635">
        <ele>4.6</ele>
        <time>2025-01-28T13:22:55Z</time>
      </trkpt>
      <trkpt lat="47.62197" lon="-2.8635">
        <ele>4.5</ele>
        <time>2025-01-28T13:22:56Z</time>
      </trkpt>
      <trkpt lat="47.62196" lon="-2.86351">
        <ele>4.6</ele>
        <time>2025-01-28T13:22:57Z</time>
      </trkpt>
      <trkpt lat="47.62195" lon="-2.86352">
        <ele>4.7</ele>
        <time>2025-01-28T13:22:58Z</time>
      </trkpt>
      <trkpt lat="47.62194" lon="-2.86353">
        <ele>4.8</ele>
        <time>2025-01-28T13:22:59Z</time>
      </trkpt>
      <trkpt lat="47.62194" lon="-2.86355">
        <ele>5</ele>
        <time>2025-01-28T13:23:00Z</time>
      </trkpt>
      <trkpt lat="47.62193" lon="-2.86356">
        <ele>5</ele>
        <time>2025-01-28T13:23:01Z</time>
      </trkpt>
      <trkpt lat="47.62192" lon="-2.86357">
        <ele>5.1</ele>
        <time>2025-01-28T13:23:02Z</time>
      </trkpt>
      <trkpt lat="47.62191" lon="-2.86359">
        <ele>5.2</ele>
        <time>2025-01-28T13:23:03Z</time>
      </trkpt>
      <trkpt lat="47.62191" lon="-2.86361">
        <ele>5.3</ele>
        <time>2025-01-28T13:23:04Z</time>
      </trkpt>
      <trkpt lat="47.6219" lon="-2.86362">
        <ele>5.3</ele>
        <time>2025-01-28T13:23:05Z</time>
      </trkpt>
      <trkpt lat="47.62189" lon="-2.86363">
        <ele>5.1</ele>
        <time>2025-01-28T13:23:06Z</time>
      </trkpt>
      <trkpt lat="47.62188" lon="-2.86365">
        <ele>5.1</ele>
        <time>2025-01-28T13:23:07Z</time>
      </trkpt>
      <trkpt lat="47.62187" lon="-2.86367">
        <ele>5</ele>
        <time>2025-01-28T13:23:08Z</time>
      </trkpt>
      <trkpt lat="47.62186" lon="-2.86368">
        <ele>4.9</ele>
        <time>2025-01-28T13:23:09Z</time>
      </trkpt>
      <trkpt lat="47.62186" lon="-2.8637">
        <ele>4.9</ele>
        <time>2025-01-28T13:23:10Z</time>
      </trkpt>
      <trkpt lat="47.62185" lon="-2.86371">
        <ele>4.9</ele>
        <time>2025-01-28T13:23:11Z</time>
      </trkpt>
      <trkpt lat="47.62184" lon="-2.86372">
        <ele>4.8</ele>
        <time>2025-01-28T13:23:12Z</time>
      </trkpt>
      <trkpt lat="47.62183" lon="-2.86373">
        <ele>4.8</ele>
        <time>2025-01-28T13:23:13Z</time>
      </trkpt>
      <trkpt lat="47.62182" lon="-2.86375">
        <ele>4.7</ele>
        <time>2025-01-28T13:23:14Z</time>
      </trkpt>
      <trkpt lat="47.62182" lon="-2.86376">
        <ele>4.7</ele>
        <time>2025-01-28T13:23:15Z</time>
      </trkpt>
      <trkpt lat="47.62181" lon="-2.86377">
        <ele>4.7</ele>
        <time>2025-01-28T13:23:16Z</time>
      </trkpt>
      <trkpt lat="47.6218" lon="-2.86378">
        <ele>4.6</ele>
        <time>2025-01-28T13:23:17Z</time>
      </trkpt>
      <trkpt lat="47.62179" lon="-2.8638">
        <ele>4.6</ele>
        <time>2025-01-28T13:23:18Z</time>
      </trkpt>
      <trkpt lat="47.62178" lon="-2.86381">
        <ele>4.6</ele>
        <time>2025-01-28T13:23:19Z</time>
      </trkpt>
      <trkpt lat="47.62177" lon="-2.86383">
        <ele>4.6</ele>
        <time>2025-01-28T13:23:20Z</time>
      </trkpt>
      <trkpt lat="47.62176" lon="-2.86384">
        <ele>4.6</ele>
        <time>2025-01-28T13:23:21Z</time>
      </trkpt>
      <trkpt lat="47.62176" lon="-2.86386">
        <ele>4.7</ele>
        <time>2025-01-28T13:23:22Z</time>
      </trkpt>
      <trkpt lat="47.62174" lon="-2.86387">
        <ele>4.7</ele>
        <time>2025-01-28T13:23:23Z</time>
      </trkpt>
      <trkpt lat="47.62174" lon="-2.86388">
        <ele>4.7</ele>
        <time>2025-01-28T13:23:24Z</time>
      </trkpt>
      <trkpt lat="47.62173" lon="-2.8639">
        <ele>4.7</ele>
        <time>2025-01-28T13:23:25Z</time>
      </trkpt>
      <trkpt lat="47.62172" lon="-2.86391">
        <ele>4.7</ele>
        <time>2025-01-28T13:23:26Z</time>
      </trkpt>
      <trkpt lat="47.62171" lon="-2.86392">
        <ele>4.6</ele>
        <time>2025-01-28T13:23:27Z</time>
      </trkpt>
      <trkpt lat="47.6217" lon="-2.86393">
        <ele>4.6</ele>
        <time>2025-01-28T13:23:28Z</time>
      </trkpt>
      <trkpt lat="47.62169" lon="-2.86395">
        <ele>4.6</ele>
        <time>2025-01-28T13:23:29Z</time>
      </trkpt>
      <trkpt lat="47.62169" lon="-2.86396">
        <ele>4.7</ele>
        <time>2025-01-28T13:23:30Z</time>
      </trkpt>
      <trkpt lat="47.62168" lon="-2.86398">
        <ele>4.7</ele>
        <time>2025-01-28T13:23:31Z</time>
      </trkpt>
      <trkpt lat="47.62167" lon="-2.86399">
        <ele>4.7</ele>
        <time>2025-01-28T13:23:32Z</time>
      </trkpt>
      <trkpt lat="47.62166" lon="-2.864">
        <ele>4.7</ele>
        <time>2025-01-28T13:23:33Z</time>
      </trkpt>
      <trkpt lat="47.62164" lon="-2.864">
        <ele>4.6</ele>
        <time>2025-01-28T13:23:34Z</time>
      </trkpt>
      <trkpt lat="47.62163" lon="-2.86401">
        <ele>4.5</ele>
        <time>2025-01-28T13:23:35Z</time>
      </trkpt>
      <trkpt lat="47.62162" lon="-2.86401">
        <ele>4.5</ele>
        <time>2025-01-28T13:23:36Z</time>
      </trkpt>
      <trkpt lat="47.62161" lon="-2.86402">
        <ele>4.4</ele>
        <time>2025-01-28T13:23:37Z</time>
      </trkpt>
      <trkpt lat="47.6216" lon="-2.86403">
        <ele>4.4</ele>
        <time>2025-01-28T13:23:38Z</time>
      </trkpt>
      <trkpt lat="47.62159" lon="-2.86404">
        <ele>4.4</ele>
        <time>2025-01-28T13:23:39Z</time>
      </trkpt>
      <trkpt lat="47.62158" lon="-2.86405">
        <ele>4.4</ele>
        <time>2025-01-28T13:23:40Z</time>
      </trkpt>
      <trkpt lat="47.62156" lon="-2.86406">
        <ele>4.3</ele>
        <time>2025-01-28T13:23:41Z</time>
      </trkpt>
      <trkpt lat="47.62155" lon="-2.86406">
        <ele>4.3</ele>
        <time>2025-01-28T13:23:42Z</time>
      </trkpt>
      <trkpt lat="47.62154" lon="-2.86407">
        <ele>4.3</ele>
        <time>2025-01-28T13:23:43Z</time>
      </trkpt>
      <trkpt lat="47.62153" lon="-2.86409">
        <ele>4.4</ele>
        <time>2025-01-28T13:23:44Z</time>
      </trkpt>
      <trkpt lat="47.62152" lon="-2.86411">
        <ele>4.5</ele>
        <time>2025-01-28T13:23:45Z</time>
      </trkpt>
      <trkpt lat="47.62151" lon="-2.86413">
        <ele>4.5</ele>
        <time>2025-01-28T13:23:46Z</time>
      </trkpt>
      <trkpt lat="47.6215" lon="-2.86413">
        <ele>4.5</ele>
        <time>2025-01-28T13:23:47Z</time>
      </trkpt>
      <trkpt lat="47.62149" lon="-2.86414">
        <ele>4.4</ele>
        <time>2025-01-28T13:23:48Z</time>
      </trkpt>
      <trkpt lat="47.62147" lon="-2.86415">
        <ele>4.5</ele>
        <time>2025-01-28T13:23:49Z</time>
      </trkpt>
      <trkpt lat="47.62147" lon="-2.86417">
        <ele>4.6</ele>
        <time>2025-01-28T13:23:50Z</time>
      </trkpt>
      <trkpt lat="47.62146" lon="-2.86418">
        <ele>4.5</ele>
        <time>2025-01-28T13:23:51Z</time>
      </trkpt>
      <trkpt lat="47.62145" lon="-2.86419">
        <ele>4.5</ele>
        <time>2025-01-28T13:23:52Z</time>
      </trkpt>
      <trkpt lat="47.62143" lon="-2.8642">
        <ele>4.4</ele>
        <time>2025-01-28T13:23:53Z</time>
      </trkpt>
      <trkpt lat="47.62142" lon="-2.8642">
        <ele>4.4</ele>
        <time>2025-01-28T13:23:54Z</time>
      </trkpt>
      <trkpt lat="47.62141" lon="-2.86422">
        <ele>4.3</ele>
        <time>2025-01-28T13:23:55Z</time>
      </trkpt>
      <trkpt lat="47.6214" lon="-2.86423">
        <ele>4.3</ele>
        <time>2025-01-28T13:23:56Z</time>
      </trkpt>
      <trkpt lat="47.62139" lon="-2.86425">
        <ele>4.3</ele>
        <time>2025-01-28T13:23:57Z</time>
      </trkpt>
      <trkpt lat="47.62138" lon="-2.86426">
        <ele>4.2</ele>
        <time>2025-01-28T13:23:58Z</time>
      </trkpt>
      <trkpt lat="47.62136" lon="-2.86426">
        <ele>4.1</ele>
        <time>2025-01-28T13:23:59Z</time>
      </trkpt>
      <trkpt lat="47.62135" lon="-2.86426">
        <ele>4</ele>
        <time>2025-01-28T13:24:00Z</time>
      </trkpt>
      <trkpt lat="47.62134" lon="-2.86427">
        <ele>4</ele>
        <time>2025-01-28T13:24:01Z</time>
      </trkpt>
      <trkpt lat="47.62133" lon="-2.86428">
        <ele>4</ele>
        <time>2025-01-28T13:24:02Z</time>
      </trkpt>
      <trkpt lat="47.62132" lon="-2.86429">
        <ele>3.9</ele>
        <time>2025-01-28T13:24:03Z</time>
      </trkpt>
      <trkpt lat="47.62131" lon="-2.8643">
        <ele>3.9</ele>
        <time>2025-01-28T13:24:04Z</time>
      </trkpt>
      <trkpt lat="47.6213" lon="-2.86431">
        <ele>3.9</ele>
        <time>2025-01-28T13:24:05Z</time>
      </trkpt>
      <trkpt lat="47.62129" lon="-2.86432">
        <ele>3.8</ele>
        <time>2025-01-28T13:24:06Z</time>
      </trkpt>
      <trkpt lat="47.62127" lon="-2.86432">
        <ele>3.8</ele>
        <time>2025-01-28T13:24:07Z</time>
      </trkpt>
      <trkpt lat="47.62126" lon="-2.86434">
        <ele>3.8</ele>
        <time>2025-01-28T13:24:08Z</time>
      </trkpt>
      <trkpt lat="47.62125" lon="-2.86435">
        <ele>3.9</ele>
        <time>2025-01-28T13:24:09Z</time>
      </trkpt>
      <trkpt lat="47.62124" lon="-2.86436">
        <ele>3.8</ele>
        <time>2025-01-28T13:24:10Z</time>
      </trkpt>
      <trkpt lat="47.62123" lon="-2.86436">
        <ele>3.7</ele>
        <time>2025-01-28T13:24:11Z</time>
      </trkpt>
      <trkpt lat="47.62122" lon="-2.86435">
        <ele>3.7</ele>
        <time>2025-01-28T13:24:12Z</time>
      </trkpt>
      <trkpt lat="47.62121" lon="-2.86435">
        <ele>3.6</ele>
        <time>2025-01-28T13:24:13Z</time>
      </trkpt>
      <trkpt lat="47.6212" lon="-2.86435">
        <ele>3.5</ele>
        <time>2025-01-28T13:24:14Z</time>
      </trkpt>
      <trkpt lat="47.62119" lon="-2.86436">
        <ele>3.5</ele>
        <time>2025-01-28T13:24:15Z</time>
      </trkpt>
      <trkpt lat="47.62118" lon="-2.86437">
        <ele>3.5</ele>
        <time>2025-01-28T13:24:16Z</time>
      </trkpt>
      <trkpt lat="47.62117" lon="-2.86437">
        <ele>3.5</ele>
        <time>2025-01-28T13:24:17Z</time>
      </trkpt>
      <trkpt lat="47.62116" lon="-2.86438">
        <ele>3.5</ele>
        <time>2025-01-28T13:24:18Z</time>
      </trkpt>
      <trkpt lat="47.62115" lon="-2.86438">
        <ele>3.5</ele>
        <time>2025-01-28T13:24:19Z</time>
      </trkpt>
      <trkpt lat="47.62114" lon="-2.86438">
        <ele>3.4</ele>
        <time>2025-01-28T13:24:20Z</time>
      </trkpt>
      <trkpt lat="47.62113" lon="-2.86437">
        <ele>3.4</ele>
        <time>2025-01-28T13:24:21Z</time>
      </trkpt>
      <trkpt lat="47.62113" lon="-2.86437">
        <ele>3.3</ele>
        <time>2025-01-28T13:24:22Z</time>
      </trkpt>
      <trkpt lat="47.62113" lon="-2.86437">
        <ele>3.2</ele>
        <time>2025-01-28T13:24:23Z</time>
      </trkpt>
      <trkpt lat="47.62113" lon="-2.86437">
        <ele>3.2</ele>
        <time>2025-01-28T13:24:24Z</time>
      </trkpt>
      <trkpt lat="47.62113" lon="-2.86436">
        <ele>3.2</ele>
        <time>2025-01-28T13:24:25Z</time>
      </trkpt>
      <trkpt lat="47.62113" lon="-2.86436">
        <ele>3.2</ele>
        <time>2025-01-28T13:24:26Z</time>
      </trkpt>
      <trkpt lat="47.62113" lon="-2.86436">
        <ele>3.2</ele>
        <time>2025-01-28T13:24:27Z</time>
      </trkpt>
      <trkpt lat="47.62113" lon="-2.86436">
        <ele>3.2</ele>
        <time>2025-01-28T13:24:28Z</time>
      </trkpt>
      <trkpt lat="47.62113" lon="-2.86436">
        <ele>3.2</ele>
        <time>2025-01-28T13:24:29Z</time>
      </trkpt>
      <trkpt lat="47.62113" lon="-2.86435">
        <ele>3.1</ele>
        <time>2025-01-28T13:24:30Z</time>
      </trkpt>
      <trkpt lat="47.62113" lon="-2.86435">
        <ele>3.1</ele>
        <time>2025-01-28T13:24:31Z</time>
      </trkpt>
      <trkpt lat="47.62113" lon="-2.86435">
        <ele>3.1</ele>
        <time>2025-01-28T13:24:32Z</time>
      </trkpt>
      <trkpt lat="47.62113" lon="-2.86435">
        <ele>3.1</ele>
        <time>2025-01-28T13:24:33Z</time>
      </trkpt>
      <trkpt lat="47.62113" lon="-2.86436">
        <ele>3.2</ele>
        <time>2025-01-28T13:24:34Z</time>
      </trkpt>
      <trkpt lat="47.62113" lon="-2.86436">
        <ele>3.2</ele>
        <time>2025-01-28T13:24:35Z</time>
      </trkpt>
      <trkpt lat="47.62114" lon="-2.86436">
        <ele>3.2</ele>
        <time>2025-01-28T13:24:36Z</time>
      </trkpt>
      <trkpt lat="47.62114" lon="-2.86436">
        <ele>3.2</ele>
        <time>2025-01-28T13:24:37Z</time>
      </trkpt>
      <trkpt lat="47.62114" lon="-2.86436">
        <ele>3.2</ele>
        <time>2025-01-28T13:24:38Z</time>
      </trkpt>
      <trkpt lat="47.62114" lon="-2.86436">
        <ele>3.2</ele>
        <time>2025-01-28T13:24:39Z</time>
      </trkpt>
      <trkpt lat="47.62114" lon="-2.86436">
        <ele>3.2</ele>
        <time>2025-01-28T13:24:40Z</time>
      </trkpt>
      <trkpt lat="47.62114" lon="-2.86436">
        <ele>3.2</ele>
        <time>2025-01-28T13:24:41Z</time>
      </trkpt>
      <trkpt lat="47.62114" lon="-2.86436">
        <ele>3.2</ele>
        <time>2025-01-28T13:24:42Z</time>
      </trkpt>
      <trkpt lat="47.62114" lon="-2.86436">
        <ele>3.2</ele>
        <time>2025-01-28T13:24:43Z</time>
      </trkpt>
      <trkpt lat="47.62114" lon="-2.86436">
        <ele>3.2</ele>
        <time>2025-01-28T13:24:44Z</time>
      </trkpt>
      <trkpt lat="47.62114" lon="-2.86436">
        <ele>3.2</ele>
        <time>2025-01-28T13:24:45Z</time>
      </trkpt>
      <trkpt lat="47.62114" lon="-2.86436">
        <ele>3.2</ele>
        <time>2025-01-28T13:24:46Z</time>
      </trkpt>
      <trkpt lat="47.62114" lon="-2.86436">
        <ele>3.2</ele>
        <time>2025-01-28T13:24:47Z</time>
      </trkpt>
      <trkpt lat="47.62114" lon="-2.86436">
        <ele>3.2</ele>
        <time>2025-01-28T13:24:48Z</time>
      </trkpt>
      <trkpt lat="47.62115" lon="-2.86436">
        <ele>3.2</ele>
        <time>2025-01-28T13:24:49Z</time>
      </trkpt>
      <trkpt lat="47.62115" lon="-2.86436">
        <ele>3.2</ele>
        <time>2025-01-28T13:24:50Z</time>
      </trkpt>
      <trkpt lat="47.62115" lon="-2.86436">
        <ele>3.2</ele>
        <time>2025-01-28T13:24:51Z</time>
      </trkpt>
      <trkpt lat="47.62115" lon="-2.86436">
        <ele>3.2</ele>
        <time>2025-01-28T13:24:52Z</time>
      </trkpt>
      <trkpt lat="47.62115" lon="-2.86436">
        <ele>3.2</ele>
        <time>2025-01-28T13:24:53Z</time>
      </trkpt>
      <trkpt lat="47.62115" lon="-2.86436">
        <ele>3.2</ele>
        <time>2025-01-28T13:24:54Z</time>
      </trkpt>
      <trkpt lat="47.62115" lon="-2.86436">
        <ele>3.2</ele>
        <time>2025-01-28T13:24:55Z</time>
      </trkpt>
      <trkpt lat="47.62115" lon="-2.86435">
        <ele>3.2</ele>
        <time>2025-01-28T13:24:56Z</time>
      </trkpt>
      <trkpt lat="47.62115" lon="-2.86436">
        <ele>3.3</ele>
        <time>2025-01-28T13:24:57Z</time>
      </trkpt>
      <trkpt lat="47.62115" lon="-2.86436">
        <ele>3.3</ele>
        <time>2025-01-28T13:24:58Z</time>
      </trkpt>
      <trkpt lat="47.62115" lon="-2.86436">
        <ele>3.3</ele>
        <time>2025-01-28T13:24:59Z</time>
      </trkpt>
      <trkpt lat="47.62115" lon="-2.86435">
        <ele>3.3</ele>
        <time>2025-01-28T13:25:00Z</time>
      </trkpt>
      <trkpt lat="47.62115" lon="-2.86435">
        <ele>3.3</ele>
        <time>2025-01-28T13:25:01Z</time>
      </trkpt>
      <trkpt lat="47.62115" lon="-2.86435">
        <ele>3.3</ele>
        <time>2025-01-28T13:25:02Z</time>
      </trkpt>
      <trkpt lat="47.62115" lon="-2.86435">
        <ele>3.3</ele>
        <time>2025-01-28T13:25:03Z</time>
      </trkpt>
      <trkpt lat="47.62115" lon="-2.86435">
        <ele>3.3</ele>
        <time>2025-01-28T13:25:04Z</time>
      </trkpt>
      <trkpt lat="47.62115" lon="-2.86435">
        <ele>3.3</ele>
        <time>2025-01-28T13:25:05Z</time>
      </trkpt>
      <trkpt lat="47.62116" lon="-2.86436">
        <ele>3.3</ele>
        <time>2025-01-28T13:25:06Z</time>
      </trkpt>
      <trkpt lat="47.62116" lon="-2.86436">
        <ele>3.3</ele>
        <time>2025-01-28T13:25:07Z</time>
      </trkpt>
      <trkpt lat="47.62116" lon="-2.86436">
        <ele>3.3</ele>
        <time>2025-01-28T13:25:08Z</time>
      </trkpt>
      <trkpt lat="47.62116" lon="-2.86436">
        <ele>3.3</ele>
        <time>2025-01-28T13:25:09Z</time>
      </trkpt>
      <trkpt lat="47.62116" lon="-2.86436">
        <ele>3.3</ele>
        <time>2025-01-28T13:25:10Z</time>
      </trkpt>
      <trkpt lat="47.62116" lon="-2.86436">
        <ele>3.3</ele>
        <time>2025-01-28T13:25:11Z</time>
      </trkpt>
      <trkpt lat="47.62116" lon="-2.86436">
        <ele>3.3</ele>
        <time>2025-01-28T13:25:12Z</time>
      </trkpt>
      <trkpt lat="47.62116" lon="-2.86435">
        <ele>3.3</ele>
        <time>2025-01-28T13:25:13Z</time>
      </trkpt>
      <trkpt lat="47.62116" lon="-2.86435">
        <ele>3.2</ele>
        <time>2025-01-28T13:25:14Z</time>
      </trkpt>
      <trkpt lat="47.62116" lon="-2.86435">
        <ele>3.2</ele>
        <time>2025-01-28T13:25:15Z</time>
      </trkpt>
      <trkpt lat="47.62116" lon="-2.86435">
        <ele>3.2</ele>
        <time>2025-01-28T13:25:16Z</time>
      </trkpt>
      <trkpt lat="47.62116" lon="-2.86435">
        <ele>3.2</ele>
        <time>2025-01-28T13:25:17Z</time>
      </trkpt>
      <trkpt lat="47.62116" lon="-2.86435">
        <ele>3.2</ele>
        <time>2025-01-28T13:25:18Z</time>
      </trkpt>
      <trkpt lat="47.62116" lon="-2.86435">
        <ele>3.2</ele>
        <time>2025-01-28T13:25:19Z</time>
      </trkpt>
      <trkpt lat="47.62116" lon="-2.86435">
        <ele>3.2</ele>
        <time>2025-01-28T13:25:20Z</time>
      </trkpt>
      <trkpt lat="47.62116" lon="-2.86435">
        <ele>3.2</ele>
        <time>2025-01-28T13:25:21Z</time>
      </trkpt>
      <trkpt lat="47.62116" lon="-2.86435">
        <ele>3.2</ele>
        <time>2025-01-28T13:25:22Z</time>
      </trkpt>
      <trkpt lat="47.62116" lon="-2.86435">
        <ele>3.3</ele>
        <time>2025-01-28T13:25:23Z</time>
      </trkpt>
      <trkpt lat="47.62117" lon="-2.86436">
        <ele>3.4</ele>
        <time>2025-01-28T13:25:24Z</time>
      </trkpt>
      <trkpt lat="47.62116" lon="-2.86437">
        <ele>3.5</ele>
        <time>2025-01-28T13:25:25Z</time>
      </trkpt>
      <trkpt lat="47.62115" lon="-2.86438">
        <ele>3.5</ele>
        <time>2025-01-28T13:25:26Z</time>
      </trkpt>
      <trkpt lat="47.62114" lon="-2.86439">
        <ele>3.6</ele>
        <time>2025-01-28T13:25:27Z</time>
      </trkpt>
      <trkpt lat="47.62112" lon="-2.86441">
        <ele>3.6</ele>
        <time>2025-01-28T13:25:28Z</time>
      </trkpt>
      <trkpt lat="47.62111" lon="-2.86441">
        <ele>3.7</ele>
        <time>2025-01-28T13:25:29Z</time>
      </trkpt>
      <trkpt lat="47.62109" lon="-2.86443">
        <ele>3.7</ele>
        <time>2025-01-28T13:25:30Z</time>
      </trkpt>
      <trkpt lat="47.62109" lon="-2.86443">
        <ele>3.7</ele>
        <time>2025-01-28T13:25:31Z</time>
      </trkpt>
      <trkpt lat="47.62108" lon="-2.86443">
        <ele>3.6</ele>
        <time>2025-01-28T13:25:32Z</time>
      </trkpt>
      <trkpt lat="47.62107" lon="-2.86442">
        <ele>3.5</ele>
        <time>2025-01-28T13:25:33Z</time>
      </trkpt>
      <trkpt lat="47.62105" lon="-2.86443">
        <ele>3.4</ele>
        <time>2025-01-28T13:25:34Z</time>
      </trkpt>
      <trkpt lat="47.62104" lon="-2.86444">
        <ele>3.4</ele>
        <time>2025-01-28T13:25:35Z</time>
      </trkpt>
      <trkpt lat="47.62103" lon="-2.86445">
        <ele>3.4</ele>
        <time>2025-01-28T13:25:36Z</time>
      </trkpt>
      <trkpt lat="47.62102" lon="-2.86446">
        <ele>3.4</ele>
        <time>2025-01-28T13:25:37Z</time>
      </trkpt>
      <trkpt lat="47.621" lon="-2.86448">
        <ele>3.4</ele>
        <time>2025-01-28T13:25:38Z</time>
      </trkpt>
      <trkpt lat="47.62099" lon="-2.86449">
        <ele>3.4</ele>
        <time>2025-01-28T13:25:39Z</time>
      </trkpt>
      <trkpt lat="47.62098" lon="-2.8645">
        <ele>3.4</ele>
        <time>2025-01-28T13:25:40Z</time>
      </trkpt>
      <trkpt lat="47.62097" lon="-2.86451">
        <ele>3.3</ele>
        <time>2025-01-28T13:25:41Z</time>
      </trkpt>
      <trkpt lat="47.62095" lon="-2.86451">
        <ele>3.3</ele>
        <time>2025-01-28T13:25:42Z</time>
      </trkpt>
      <trkpt lat="47.62094" lon="-2.86452">
        <ele>3.2</ele>
        <time>2025-01-28T13:25:43Z</time>
      </trkpt>
      <trkpt lat="47.62093" lon="-2.86453">
        <ele>3.2</ele>
        <time>2025-01-28T13:25:44Z</time>
      </trkpt>
      <trkpt lat="47.62091" lon="-2.86455">
        <ele>3.2</ele>
        <time>2025-01-28T13:25:45Z</time>
      </trkpt>
      <trkpt lat="47.6209" lon="-2.86455">
        <ele>3.1</ele>
        <time>2025-01-28T13:25:46Z</time>
      </trkpt>
      <trkpt lat="47.62088" lon="-2.86456">
        <ele>3.1</ele>
        <time>2025-01-28T13:25:47Z</time>
      </trkpt>
      <trkpt lat="47.62087" lon="-2.86456">
        <ele>3</ele>
        <time>2025-01-28T13:25:48Z</time>
      </trkpt>
      <trkpt lat="47.62086" lon="-2.86456">
        <ele>3</ele>
        <time>2025-01-28T13:25:49Z</time>
      </trkpt>
      <trkpt lat="47.62084" lon="-2.86457">
        <ele>2.9</ele>
        <time>2025-01-28T13:25:50Z</time>
      </trkpt>
      <trkpt lat="47.62083" lon="-2.86458">
        <ele>2.9</ele>
        <time>2025-01-28T13:25:51Z</time>
      </trkpt>
      <trkpt lat="47.62081" lon="-2.86458">
        <ele>2.9</ele>
        <time>2025-01-28T13:25:52Z</time>
      </trkpt>
      <trkpt lat="47.6208" lon="-2.86457">
        <ele>2.9</ele>
        <time>2025-01-28T13:25:53Z</time>
      </trkpt>
      <trkpt lat="47.62079" lon="-2.86458">
        <ele>3</ele>
        <time>2025-01-28T13:25:54Z</time>
      </trkpt>
      <trkpt lat="47.62078" lon="-2.86458">
        <ele>3</ele>
        <time>2025-01-28T13:25:55Z</time>
      </trkpt>
      <trkpt lat="47.62076" lon="-2.86458">
        <ele>2.9</ele>
        <time>2025-01-28T13:25:56Z</time>
      </trkpt>
      <trkpt lat="47.62075" lon="-2.86457">
        <ele>2.9</ele>
        <time>2025-01-28T13:25:57Z</time>
      </trkpt>
      <trkpt lat="47.62074" lon="-2.86457">
        <ele>2.9</ele>
        <time>2025-01-28T13:25:58Z</time>
      </trkpt>
      <trkpt lat="47.62072" lon="-2.86456">
        <ele>2.9</ele>
        <time>2025-01-28T13:25:59Z</time>
      </trkpt>
      <trkpt lat="47.62071" lon="-2.86456">
        <ele>2.8</ele>
        <time>2025-01-28T13:26:00Z</time>
      </trkpt>
      <trkpt lat="47.6207" lon="-2.86456">
        <ele>2.8</ele>
        <time>2025-01-28T13:26:01Z</time>
      </trkpt>
      <trkpt lat="47.62069" lon="-2.86456">
        <ele>2.8</ele>
        <time>2025-01-28T13:26:02Z</time>
      </trkpt>
      <trkpt lat="47.62068" lon="-2.86455">
        <ele>2.8</ele>
        <time>2025-01-28T13:26:03Z</time>
      </trkpt>
      <trkpt lat="47.62066" lon="-2.86455">
        <ele>2.8</ele>
        <time>2025-01-28T13:26:04Z</time>
      </trkpt>
      <trkpt lat="47.62065" lon="-2.86455">
        <ele>2.8</ele>
        <time>2025-01-28T13:26:05Z</time>
      </trkpt>
      <trkpt lat="47.62064" lon="-2.86455">
        <ele>2.7</ele>
        <time>2025-01-28T13:26:06Z</time>
      </trkpt>
      <trkpt lat="47.62063" lon="-2.86454">
        <ele>2.7</ele>
        <time>2025-01-28T13:26:07Z</time>
      </trkpt>
      <trkpt lat="47.62063" lon="-2.86454">
        <ele>2.7</ele>
        <time>2025-01-28T13:26:08Z</time>
      </trkpt>
      <trkpt lat="47.62062" lon="-2.86454">
        <ele>2.7</ele>
        <time>2025-01-28T13:26:09Z</time>
      </trkpt>
      <trkpt lat="47.62061" lon="-2.86454">
        <ele>2.7</ele>
        <time>2025-01-28T13:26:10Z</time>
      </trkpt>
      <trkpt lat="47.6206" lon="-2.86453">
        <ele>2.6</ele>
        <time>2025-01-28T13:26:11Z</time>
      </trkpt>
      <trkpt lat="47.62059" lon="-2.86453">
        <ele>2.6</ele>
        <time>2025-01-28T13:26:12Z</time>
      </trkpt>
      <trkpt lat="47.62058" lon="-2.86452">
        <ele>2.5</ele>
        <time>2025-01-28T13:26:13Z</time>
      </trkpt>
      <trkpt lat="47.62057" lon="-2.86451">
        <ele>2.5</ele>
        <time>2025-01-28T13:26:14Z</time>
      </trkpt>
      <trkpt lat="47.62058" lon="-2.86451">
        <ele>2.5</ele>
        <time>2025-01-28T13:26:15Z</time>
      </trkpt>
      <trkpt lat="47.62058" lon="-2.86451">
        <ele>2.5</ele>
        <time>2025-01-28T13:26:16Z</time>
      </trkpt>
      <trkpt lat="47.62057" lon="-2.86452">
        <ele>2.5</ele>
        <time>2025-01-28T13:26:17Z</time>
      </trkpt>
      <trkpt lat="47.62056" lon="-2.86452">
        <ele>2.6</ele>
        <time>2025-01-28T13:26:18Z</time>
      </trkpt>
      <trkpt lat="47.62055" lon="-2.86452">
        <ele>2.6</ele>
        <time>2025-01-28T13:26:19Z</time>
      </trkpt>
      <trkpt lat="47.62054" lon="-2.86453">
        <ele>2.6</ele>
        <time>2025-01-28T13:26:20Z</time>
      </trkpt>
      <trkpt lat="47.62053" lon="-2.86453">
        <ele>2.6</ele>
        <time>2025-01-28T13:26:21Z</time>
      </trkpt>
      <trkpt lat="47.62052" lon="-2.86453">
        <ele>2.7</ele>
        <time>2025-01-28T13:26:22Z</time>
      </trkpt>
      <trkpt lat="47.62051" lon="-2.86453">
        <ele>2.7</ele>
        <time>2025-01-28T13:26:23Z</time>
      </trkpt>
      <trkpt lat="47.6205" lon="-2.86454">
        <ele>2.7</ele>
        <time>2025-01-28T13:26:24Z</time>
      </trkpt>
      <trkpt lat="47.62049" lon="-2.86454">
        <ele>2.8</ele>
        <time>2025-01-28T13:26:25Z</time>
      </trkpt>
      <trkpt lat="47.62047" lon="-2.86454">
        <ele>2.8</ele>
        <time>2025-01-28T13:26:26Z</time>
      </trkpt>
      <trkpt lat="47.62046" lon="-2.86454">
        <ele>2.8</ele>
        <time>2025-01-28T13:26:27Z</time>
      </trkpt>
      <trkpt lat="47.62045" lon="-2.86454">
        <ele>2.8</ele>
        <time>2025-01-28T13:26:28Z</time>
      </trkpt>
      <trkpt lat="47.62044" lon="-2.86454">
        <ele>2.8</ele>
        <time>2025-01-28T13:26:29Z</time>
      </trkpt>
      <trkpt lat="47.62043" lon="-2.86454">
        <ele>2.9</ele>
        <time>2025-01-28T13:26:30Z</time>
      </trkpt>
      <trkpt lat="47.62042" lon="-2.86454">
        <ele>2.9</ele>
        <time>2025-01-28T13:26:31Z</time>
      </trkpt>
      <trkpt lat="47.6204" lon="-2.86455">
        <ele>2.9</ele>
        <time>2025-01-28T13:26:32Z</time>
      </trkpt>
      <trkpt lat="47.62039" lon="-2.86455">
        <ele>3</ele>
        <time>2025-01-28T13:26:33Z</time>
      </trkpt>
      <trkpt lat="47.62038" lon="-2.86455">
        <ele>3</ele>
        <time>2025-01-28T13:26:34Z</time>
      </trkpt>
      <trkpt lat="47.62037" lon="-2.86454">
        <ele>3</ele>
        <time>2025-01-28T13:26:35Z</time>
      </trkpt>
      <trkpt lat="47.62036" lon="-2.86454">
        <ele>2.9</ele>
        <time>2025-01-28T13:26:36Z</time>
      </trkpt>
      <trkpt lat="47.62034" lon="-2.86454">
        <ele>2.9</ele>
        <time>2025-01-28T13:26:37Z</time>
      </trkpt>
      <trkpt lat="47.62033" lon="-2.86454">
        <ele>2.9</ele>
        <time>2025-01-28T13:26:38Z</time>
      </trkpt>
      <trkpt lat="47.62032" lon="-2.86454">
        <ele>3</ele>
        <time>2025-01-28T13:26:39Z</time>
      </trkpt>
      <trkpt lat="47.6203" lon="-2.86454">
        <ele>3</ele>
        <time>2025-01-28T13:26:40Z</time>
      </trkpt>
      <trkpt lat="47.62029" lon="-2.86454">
        <ele>3</ele>
        <time>2025-01-28T13:26:41Z</time>
      </trkpt>
      <trkpt lat="47.62028" lon="-2.86454">
        <ele>3</ele>
        <time>2025-01-28T13:26:42Z</time>
      </trkpt>
      <trkpt lat="47.62027" lon="-2.86454">
        <ele>3</ele>
        <time>2025-01-28T13:26:43Z</time>
      </trkpt>
      <trkpt lat="47.62025" lon="-2.86454">
        <ele>3</ele>
        <time>2025-01-28T13:26:44Z</time>
      </trkpt>
      <trkpt lat="47.62024" lon="-2.86454">
        <ele>3.1</ele>
        <time>2025-01-28T13:26:45Z</time>
      </trkpt>
      <trkpt lat="47.62023" lon="-2.86453">
        <ele>3.1</ele>
        <time>2025-01-28T13:26:46Z</time>
      </trkpt>
      <trkpt lat="47.62023" lon="-2.86453">
        <ele>3</ele>
        <time>2025-01-28T13:26:47Z</time>
      </trkpt>
      <trkpt lat="47.62023" lon="-2.86453">
        <ele>3</ele>
        <time>2025-01-28T13:26:48Z</time>
      </trkpt>
      <trkpt lat="47.62023" lon="-2.86453">
        <ele>3</ele>
        <time>2025-01-28T13:26:49Z</time>
      </trkpt>
      <trkpt lat="47.62023" lon="-2.86453">
        <ele>3</ele>
        <time>2025-01-28T13:26:50Z</time>
      </trkpt>
      <trkpt lat="47.62022" lon="-2.86452">
        <ele>3</ele>
        <time>2025-01-28T13:26:51Z</time>
      </trkpt>
      <trkpt lat="47.62022" lon="-2.86451">
        <ele>2.9</ele>
        <time>2025-01-28T13:26:52Z</time>
      </trkpt>
      <trkpt lat="47.62019" lon="-2.86453">
        <ele>3.2</ele>
        <time>2025-01-28T13:26:53Z</time>
      </trkpt>
      <trkpt lat="47.62018" lon="-2.86452">
        <ele>3.1</ele>
        <time>2025-01-28T13:26:54Z</time>
      </trkpt>
      <trkpt lat="47.62018" lon="-2.86451">
        <ele>3</ele>
        <time>2025-01-28T13:26:55Z</time>
      </trkpt>
      <trkpt lat="47.62017" lon="-2.8645">
        <ele>2.9</ele>
        <time>2025-01-28T13:26:56Z</time>
      </trkpt>
      <trkpt lat="47.62016" lon="-2.86449">
        <ele>2.8</ele>
        <time>2025-01-28T13:26:57Z</time>
      </trkpt>
      <trkpt lat="47.62015" lon="-2.86448">
        <ele>2.8</ele>
        <time>2025-01-28T13:26:58Z</time>
      </trkpt>
      <trkpt lat="47.62015" lon="-2.86447">
        <ele>2.7</ele>
        <time>2025-01-28T13:26:59Z</time>
      </trkpt>
      <trkpt lat="47.62013" lon="-2.86447">
        <ele>2.7</ele>
        <time>2025-01-28T13:27:00Z</time>
      </trkpt>
      <trkpt lat="47.62012" lon="-2.86447">
        <ele>2.7</ele>
        <time>2025-01-28T13:27:01Z</time>
      </trkpt>
      <trkpt lat="47.62012" lon="-2.86446">
        <ele>2.7</ele>
        <time>2025-01-28T13:27:02Z</time>
      </trkpt>
      <trkpt lat="47.62011" lon="-2.86446">
        <ele>2.8</ele>
        <time>2025-01-28T13:27:03Z</time>
      </trkpt>
      <trkpt lat="47.6201" lon="-2.86447">
        <ele>2.9</ele>
        <time>2025-01-28T13:27:04Z</time>
      </trkpt>
      <trkpt lat="47.62009" lon="-2.86448">
        <ele>2.9</ele>
        <time>2025-01-28T13:27:05Z</time>
      </trkpt>
      <trkpt lat="47.62008" lon="-2.86448">
        <ele>3</ele>
        <time>2025-01-28T13:27:06Z</time>
      </trkpt>
      <trkpt lat="47.62008" lon="-2.86449">
        <ele>3.1</ele>
        <time>2025-01-28T13:27:07Z</time>
      </trkpt>
      <trkpt lat="47.62007" lon="-2.86449">
        <ele>3.2</ele>
        <time>2025-01-28T13:27:08Z</time>
      </trkpt>
      <trkpt lat="47.62006" lon="-2.8645">
        <ele>3.2</ele>
        <time>2025-01-28T13:27:09Z</time>
      </trkpt>
      <trkpt lat="47.62005" lon="-2.8645">
        <ele>3.3</ele>
        <time>2025-01-28T13:27:10Z</time>
      </trkpt>
      <trkpt lat="47.62004" lon="-2.86451">
        <ele>3.3</ele>
        <time>2025-01-28T13:27:11Z</time>
      </trkpt>
      <trkpt lat="47.62003" lon="-2.86451">
        <ele>3.4</ele>
        <time>2025-01-28T13:27:12Z</time>
      </trkpt>
      <trkpt lat="47.62002" lon="-2.86451">
        <ele>3.5</ele>
        <time>2025-01-28T13:27:13Z</time>
      </trkpt>
      <trkpt lat="47.62001" lon="-2.86452">
        <ele>3.5</ele>
        <time>2025-01-28T13:27:14Z</time>
      </trkpt>
      <trkpt lat="47.62" lon="-2.86453">
        <ele>3.6</ele>
        <time>2025-01-28T13:27:15Z</time>
      </trkpt>
      <trkpt lat="47.61999" lon="-2.86453">
        <ele>3.5</ele>
        <time>2025-01-28T13:27:16Z</time>
      </trkpt>
      <trkpt lat="47.61998" lon="-2.86454">
        <ele>3.5</ele>
        <time>2025-01-28T13:27:17Z</time>
      </trkpt>
      <trkpt lat="47.61996" lon="-2.86454">
        <ele>3.5</ele>
        <time>2025-01-28T13:27:18Z</time>
      </trkpt>
      <trkpt lat="47.61995" lon="-2.86455">
        <ele>3.5</ele>
        <time>2025-01-28T13:27:19Z</time>
      </trkpt>
      <trkpt lat="47.61994" lon="-2.86455">
        <ele>3.4</ele>
        <time>2025-01-28T13:27:20Z</time>
      </trkpt>
      <trkpt lat="47.61993" lon="-2.86455">
        <ele>3.4</ele>
        <time>2025-01-28T13:27:21Z</time>
      </trkpt>
      <trkpt lat="47.61992" lon="-2.86455">
        <ele>3.3</ele>
        <time>2025-01-28T13:27:22Z</time>
      </trkpt>
      <trkpt lat="47.61991" lon="-2.86455">
        <ele>3.2</ele>
        <time>2025-01-28T13:27:23Z</time>
      </trkpt>
      <trkpt lat="47.6199" lon="-2.86455">
        <ele>3.2</ele>
        <time>2025-01-28T13:27:24Z</time>
      </trkpt>
      <trkpt lat="47.61989" lon="-2.86455">
        <ele>3.1</ele>
        <time>2025-01-28T13:27:25Z</time>
      </trkpt>
      <trkpt lat="47.61987" lon="-2.86455">
        <ele>3</ele>
        <time>2025-01-28T13:27:26Z</time>
      </trkpt>
      <trkpt lat="47.61986" lon="-2.86454">
        <ele>2.9</ele>
        <time>2025-01-28T13:27:27Z</time>
      </trkpt>
      <trkpt lat="47.61985" lon="-2.86454">
        <ele>2.8</ele>
        <time>2025-01-28T13:27:28Z</time>
      </trkpt>
      <trkpt lat="47.61984" lon="-2.86454">
        <ele>2.7</ele>
        <time>2025-01-28T13:27:29Z</time>
      </trkpt>
      <trkpt lat="47.61982" lon="-2.86454">
        <ele>2.7</ele>
        <time>2025-01-28T13:27:30Z</time>
      </trkpt>
      <trkpt lat="47.61981" lon="-2.86455">
        <ele>2.7</ele>
        <time>2025-01-28T13:27:31Z</time>
      </trkpt>
      <trkpt lat="47.6198" lon="-2.86455">
        <ele>2.6</ele>
        <time>2025-01-28T13:27:32Z</time>
      </trkpt>
      <trkpt lat="47.61979" lon="-2.86456">
        <ele>2.6</ele>
        <time>2025-01-28T13:27:33Z</time>
      </trkpt>
      <trkpt lat="47.61978" lon="-2.86456">
        <ele>2.6</ele>
        <time>2025-01-28T13:27:34Z</time>
      </trkpt>
      <trkpt lat="47.61977" lon="-2.86456">
        <ele>2.5</ele>
        <time>2025-01-28T13:27:35Z</time>
      </trkpt>
      <trkpt lat="47.61975" lon="-2.86456">
        <ele>2.4</ele>
        <time>2025-01-28T13:27:36Z</time>
      </trkpt>
      <trkpt lat="47.61974" lon="-2.86456">
        <ele>2.4</ele>
        <time>2025-01-28T13:27:37Z</time>
      </trkpt>
      <trkpt lat="47.61973" lon="-2.86457">
        <ele>2.3</ele>
        <time>2025-01-28T13:27:38Z</time>
      </trkpt>
      <trkpt lat="47.61972" lon="-2.86457">
        <ele>2.3</ele>
        <time>2025-01-28T13:27:39Z</time>
      </trkpt>
      <trkpt lat="47.6197" lon="-2.86457">
        <ele>2.3</ele>
        <time>2025-01-28T13:27:40Z</time>
      </trkpt>
      <trkpt lat="47.61969" lon="-2.86458">
        <ele>2.3</ele>
        <time>2025-01-28T13:27:41Z</time>
      </trkpt>
      <trkpt lat="47.61968" lon="-2.86459">
        <ele>2.4</ele>
        <time>2025-01-28T13:27:42Z</time>
      </trkpt>
      <trkpt lat="47.61967" lon="-2.8646">
        <ele>2.4</ele>
        <time>2025-01-28T13:27:43Z</time>
      </trkpt>
      <trkpt lat="47.61966" lon="-2.86461">
        <ele>2.4</ele>
        <time>2025-01-28T13:27:44Z</time>
      </trkpt>
      <trkpt lat="47.61965" lon="-2.86462">
        <ele>2.4</ele>
        <time>2025-01-28T13:27:45Z</time>
      </trkpt>
      <trkpt lat="47.61964" lon="-2.86463">
        <ele>2.4</ele>
        <time>2025-01-28T13:27:46Z</time>
      </trkpt>
      <trkpt lat="47.61963" lon="-2.86464">
        <ele>2.4</ele>
        <time>2025-01-28T13:27:47Z</time>
      </trkpt>
      <trkpt lat="47.61962" lon="-2.86466">
        <ele>2.4</ele>
        <time>2025-01-28T13:27:48Z</time>
      </trkpt>
      <trkpt lat="47.61961" lon="-2.86467">
        <ele>2.5</ele>
        <time>2025-01-28T13:27:49Z</time>
      </trkpt>
      <trkpt lat="47.6196" lon="-2.86469">
        <ele>2.5</ele>
        <time>2025-01-28T13:27:50Z</time>
      </trkpt>
      <trkpt lat="47.61959" lon="-2.86469">
        <ele>2.4</ele>
        <time>2025-01-28T13:27:51Z</time>
      </trkpt>
      <trkpt lat="47.61958" lon="-2.86471">
        <ele>2.4</ele>
        <time>2025-01-28T13:27:52Z</time>
      </trkpt>
      <trkpt lat="47.61957" lon="-2.86472">
        <ele>2.4</ele>
        <time>2025-01-28T13:27:53Z</time>
      </trkpt>
      <trkpt lat="47.61957" lon="-2.86473">
        <ele>2.4</ele>
        <time>2025-01-28T13:27:54Z</time>
      </trkpt>
      <trkpt lat="47.61956" lon="-2.86475">
        <ele>2.4</ele>
        <time>2025-01-28T13:27:55Z</time>
      </trkpt>
      <trkpt lat="47.61956" lon="-2.86477">
        <ele>2.4</ele>
        <time>2025-01-28T13:27:56Z</time>
      </trkpt>
      <trkpt lat="47.61956" lon="-2.86479">
        <ele>2.4</ele>
        <time>2025-01-28T13:27:57Z</time>
      </trkpt>
      <trkpt lat="47.61955" lon="-2.86481">
        <ele>2.4</ele>
        <time>2025-01-28T13:27:58Z</time>
      </trkpt>
      <trkpt lat="47.61955" lon="-2.86482">
        <ele>2.5</ele>
        <time>2025-01-28T13:27:59Z</time>
      </trkpt>
      <trkpt lat="47.61954" lon="-2.86484">
        <ele>2.5</ele>
        <time>2025-01-28T13:28:00Z</time>
      </trkpt>
      <trkpt lat="47.61954" lon="-2.86486">
        <ele>2.6</ele>
        <time>2025-01-28T13:28:01Z</time>
      </trkpt>
      <trkpt lat="47.61954" lon="-2.86488">
        <ele>2.6</ele>
        <time>2025-01-28T13:28:02Z</time>
      </trkpt>
      <trkpt lat="47.61954" lon="-2.8649">
        <ele>2.6</ele>
        <time>2025-01-28T13:28:03Z</time>
      </trkpt>
      <trkpt lat="47.61953" lon="-2.86491">
        <ele>2.7</ele>
        <time>2025-01-28T13:28:04Z</time>
      </trkpt>
      <trkpt lat="47.61953" lon="-2.86493">
        <ele>2.7</ele>
        <time>2025-01-28T13:28:05Z</time>
      </trkpt>
      <trkpt lat="47.61953" lon="-2.86494">
        <ele>2.7</ele>
        <time>2025-01-28T13:28:06Z</time>
      </trkpt>
      <trkpt lat="47.61953" lon="-2.86496">
        <ele>2.7</ele>
        <time>2025-01-28T13:28:07Z</time>
      </trkpt>
      <trkpt lat="47.61952" lon="-2.86498">
        <ele>2.8</ele>
        <time>2025-01-28T13:28:08Z</time>
      </trkpt>
      <trkpt lat="47.61952" lon="-2.865">
        <ele>2.8</ele>
        <time>2025-01-28T13:28:09Z</time>
      </trkpt>
      <trkpt lat="47.61952" lon="-2.86502">
        <ele>2.9</ele>
        <time>2025-01-28T13:28:10Z</time>
      </trkpt>
      <trkpt lat="47.61952" lon="-2.86504">
        <ele>2.9</ele>
        <time>2025-01-28T13:28:11Z</time>
      </trkpt>
      <trkpt lat="47.61951" lon="-2.86505">
        <ele>2.8</ele>
        <time>2025-01-28T13:28:12Z</time>
      </trkpt>
      <trkpt lat="47.6195" lon="-2.86507">
        <ele>2.8</ele>
        <time>2025-01-28T13:28:13Z</time>
      </trkpt>
      <trkpt lat="47.6195" lon="-2.86509">
        <ele>2.8</ele>
        <time>2025-01-28T13:28:14Z</time>
      </trkpt>
      <trkpt lat="47.61949" lon="-2.8651">
        <ele>2.8</ele>
        <time>2025-01-28T13:28:15Z</time>
      </trkpt>
      <trkpt lat="47.61948" lon="-2.86512">
        <ele>2.8</ele>
        <time>2025-01-28T13:28:16Z</time>
      </trkpt>
      <trkpt lat="47.61948" lon="-2.86514">
        <ele>2.8</ele>
        <time>2025-01-28T13:28:17Z</time>
      </trkpt>
      <trkpt lat="47.61948" lon="-2.86516">
        <ele>2.9</ele>
        <time>2025-01-28T13:28:18Z</time>
      </trkpt>
      <trkpt lat="47.61947" lon="-2.86517">
        <ele>2.9</ele>
        <time>2025-01-28T13:28:19Z</time>
      </trkpt>
      <trkpt lat="47.61947" lon="-2.86519">
        <ele>2.9</ele>
        <time>2025-01-28T13:28:20Z</time>
      </trkpt>
      <trkpt lat="47.61947" lon="-2.86521">
        <ele>2.9</ele>
        <time>2025-01-28T13:28:21Z</time>
      </trkpt>
      <trkpt lat="47.61946" lon="-2.86523">
        <ele>3</ele>
        <time>2025-01-28T13:28:22Z</time>
      </trkpt>
      <trkpt lat="47.61946" lon="-2.86524">
        <ele>3</ele>
        <time>2025-01-28T13:28:23Z</time>
      </trkpt>
      <trkpt lat="47.61946" lon="-2.86526">
        <ele>3</ele>
        <time>2025-01-28T13:28:24Z</time>
      </trkpt>
      <trkpt lat="47.61946" lon="-2.86528">
        <ele>3.1</ele>
        <time>2025-01-28T13:28:25Z</time>
      </trkpt>
      <trkpt lat="47.61945" lon="-2.8653">
        <ele>3.1</ele>
        <time>2025-01-28T13:28:26Z</time>
      </trkpt>
      <trkpt lat="47.61945" lon="-2.86531">
        <ele>3.2</ele>
        <time>2025-01-28T13:28:27Z</time>
      </trkpt>
      <trkpt lat="47.61945" lon="-2.86533">
        <ele>3.2</ele>
        <time>2025-01-28T13:28:28Z</time>
      </trkpt>
      <trkpt lat="47.61945" lon="-2.86535">
        <ele>3.3</ele>
        <time>2025-01-28T13:28:29Z</time>
      </trkpt>
      <trkpt lat="47.61945" lon="-2.86536">
        <ele>3.4</ele>
        <time>2025-01-28T13:28:30Z</time>
      </trkpt>
      <trkpt lat="47.61945" lon="-2.86538">
        <ele>3.4</ele>
        <time>2025-01-28T13:28:31Z</time>
      </trkpt>
      <trkpt lat="47.61944" lon="-2.8654">
        <ele>3.4</ele>
        <time>2025-01-28T13:28:32Z</time>
      </trkpt>
      <trkpt lat="47.61944" lon="-2.86542">
        <ele>3.5</ele>
        <time>2025-01-28T13:28:33Z</time>
      </trkpt>
      <trkpt lat="47.61943" lon="-2.86544">
        <ele>3.4</ele>
        <time>2025-01-28T13:28:34Z</time>
      </trkpt>
      <trkpt lat="47.61942" lon="-2.86544">
        <ele>3.4</ele>
        <time>2025-01-28T13:28:35Z</time>
      </trkpt>
      <trkpt lat="47.61941" lon="-2.86545">
        <ele>3.4</ele>
        <time>2025-01-28T13:28:36Z</time>
      </trkpt>
      <trkpt lat="47.6194" lon="-2.86546">
        <ele>3.3</ele>
        <time>2025-01-28T13:28:37Z</time>
      </trkpt>
      <trkpt lat="47.61939" lon="-2.86548">
        <ele>3.3</ele>
        <time>2025-01-28T13:28:38Z</time>
      </trkpt>
      <trkpt lat="47.61938" lon="-2.86548">
        <ele>3.3</ele>
        <time>2025-01-28T13:28:39Z</time>
      </trkpt>
      <trkpt lat="47.61937" lon="-2.86549">
        <ele>3.2</ele>
        <time>2025-01-28T13:28:40Z</time>
      </trkpt>
      <trkpt lat="47.61936" lon="-2.8655">
        <ele>3.2</ele>
        <time>2025-01-28T13:28:41Z</time>
      </trkpt>
      <trkpt lat="47.61935" lon="-2.86551">
        <ele>3.1</ele>
        <time>2025-01-28T13:28:42Z</time>
      </trkpt>
      <trkpt lat="47.61934" lon="-2.86552">
        <ele>3.1</ele>
        <time>2025-01-28T13:28:43Z</time>
      </trkpt>
      <trkpt lat="47.61933" lon="-2.86553">
        <ele>3</ele>
        <time>2025-01-28T13:28:44Z</time>
      </trkpt>
      <trkpt lat="47.61932" lon="-2.86553">
        <ele>3</ele>
        <time>2025-01-28T13:28:45Z</time>
      </trkpt>
      <trkpt lat="47.61931" lon="-2.86554">
        <ele>3</ele>
        <time>2025-01-28T13:28:46Z</time>
      </trkpt>
      <trkpt lat="47.6193" lon="-2.86555">
        <ele>2.9</ele>
        <time>2025-01-28T13:28:47Z</time>
      </trkpt>
      <trkpt lat="47.61929" lon="-2.86557">
        <ele>3</ele>
        <time>2025-01-28T13:28:48Z</time>
      </trkpt>
      <trkpt lat="47.61928" lon="-2.86558">
        <ele>3</ele>
        <time>2025-01-28T13:28:49Z</time>
      </trkpt>
      <trkpt lat="47.61927" lon="-2.86558">
        <ele>2.9</ele>
        <time>2025-01-28T13:28:50Z</time>
      </trkpt>
      <trkpt lat="47.61926" lon="-2.86558">
        <ele>2.9</ele>
        <time>2025-01-28T13:28:51Z</time>
      </trkpt>
      <trkpt lat="47.61925" lon="-2.86559">
        <ele>2.9</ele>
        <time>2025-01-28T13:28:52Z</time>
      </trkpt>
      <trkpt lat="47.61924" lon="-2.86559">
        <ele>2.9</ele>
        <time>2025-01-28T13:28:53Z</time>
      </trkpt>
      <trkpt lat="47.61923" lon="-2.86561">
        <ele>2.9</ele>
        <time>2025-01-28T13:28:54Z</time>
      </trkpt>
      <trkpt lat="47.61921" lon="-2.86561">
        <ele>2.9</ele>
        <time>2025-01-28T13:28:55Z</time>
      </trkpt>
      <trkpt lat="47.61919" lon="-2.86562">
        <ele>2.9</ele>
        <time>2025-01-28T13:28:56Z</time>
      </trkpt>
      <trkpt lat="47.61918" lon="-2.86563">
        <ele>2.8</ele>
        <time>2025-01-28T13:28:57Z</time>
      </trkpt>
      <trkpt lat="47.61917" lon="-2.86563">
        <ele>2.8</ele>
        <time>2025-01-28T13:28:58Z</time>
      </trkpt>
      <trkpt lat="47.61916" lon="-2.86564">
        <ele>2.8</ele>
        <time>2025-01-28T13:28:59Z</time>
      </trkpt>
      <trkpt lat="47.61915" lon="-2.86564">
        <ele>2.8</ele>
        <time>2025-01-28T13:29:00Z</time>
      </trkpt>
      <trkpt lat="47.61913" lon="-2.86564">
        <ele>2.8</ele>
        <time>2025-01-28T13:29:01Z</time>
      </trkpt>
      <trkpt lat="47.61912" lon="-2.86564">
        <ele>2.8</ele>
        <time>2025-01-28T13:29:02Z</time>
      </trkpt>
      <trkpt lat="47.61911" lon="-2.86564">
        <ele>2.7</ele>
        <time>2025-01-28T13:29:03Z</time>
      </trkpt>
      <trkpt lat="47.6191" lon="-2.86564">
        <ele>2.7</ele>
        <time>2025-01-28T13:29:04Z</time>
      </trkpt>
      <trkpt lat="47.61909" lon="-2.86564">
        <ele>2.7</ele>
        <time>2025-01-28T13:29:05Z</time>
      </trkpt>
      <trkpt lat="47.61908" lon="-2.86564">
        <ele>2.6</ele>
        <time>2025-01-28T13:29:06Z</time>
      </trkpt>
      <trkpt lat="47.61907" lon="-2.86565">
        <ele>2.7</ele>
        <time>2025-01-28T13:29:07Z</time>
      </trkpt>
      <trkpt lat="47.61905" lon="-2.86565">
        <ele>2.7</ele>
        <time>2025-01-28T13:29:08Z</time>
      </trkpt>
      <trkpt lat="47.61904" lon="-2.86566">
        <ele>2.6</ele>
        <time>2025-01-28T13:29:09Z</time>
      </trkpt>
      <trkpt lat="47.61903" lon="-2.86566">
        <ele>2.6</ele>
        <time>2025-01-28T13:29:10Z</time>
      </trkpt>
      <trkpt lat="47.61902" lon="-2.86567">
        <ele>2.7</ele>
        <time>2025-01-28T13:29:11Z</time>
      </trkpt>
      <trkpt lat="47.61901" lon="-2.86567">
        <ele>2.6</ele>
        <time>2025-01-28T13:29:12Z</time>
      </trkpt>
      <trkpt lat="47.619" lon="-2.86567">
        <ele>2.6</ele>
        <time>2025-01-28T13:29:13Z</time>
      </trkpt>
      <trkpt lat="47.61899" lon="-2.86567">
        <ele>2.6</ele>
        <time>2025-01-28T13:29:14Z</time>
      </trkpt>
      <trkpt lat="47.61898" lon="-2.86567">
        <ele>2.5</ele>
        <time>2025-01-28T13:29:15Z</time>
      </trkpt>
      <trkpt lat="47.61897" lon="-2.86567">
        <ele>2.5</ele>
        <time>2025-01-28T13:29:16Z</time>
      </trkpt>
      <trkpt lat="47.61896" lon="-2.86567">
        <ele>2.5</ele>
        <time>2025-01-28T13:29:17Z</time>
      </trkpt>
      <trkpt lat="47.61894" lon="-2.86567">
        <ele>2.4</ele>
        <time>2025-01-28T13:29:18Z</time>
      </trkpt>
      <trkpt lat="47.61893" lon="-2.86567">
        <ele>2.4</ele>
        <time>2025-01-28T13:29:19Z</time>
      </trkpt>
      <trkpt lat="47.61892" lon="-2.86567">
        <ele>2.4</ele>
        <time>2025-01-28T13:29:20Z</time>
      </trkpt>
      <trkpt lat="47.61891" lon="-2.86568">
        <ele>2.4</ele>
        <time>2025-01-28T13:29:21Z</time>
      </trkpt>
      <trkpt lat="47.6189" lon="-2.86568">
        <ele>2.4</ele>
        <time>2025-01-28T13:29:22Z</time>
      </trkpt>
      <trkpt lat="47.61888" lon="-2.86568">
        <ele>2.4</ele>
        <time>2025-01-28T13:29:23Z</time>
      </trkpt>
      <trkpt lat="47.61887" lon="-2.86569">
        <ele>2.4</ele>
        <time>2025-01-28T13:29:24Z</time>
      </trkpt>
      <trkpt lat="47.61886" lon="-2.86568">
        <ele>2.3</ele>
        <time>2025-01-28T13:29:25Z</time>
      </trkpt>
      <trkpt lat="47.61885" lon="-2.86569">
        <ele>2.3</ele>
        <time>2025-01-28T13:29:26Z</time>
      </trkpt>
      <trkpt lat="47.61883" lon="-2.86568">
        <ele>2.3</ele>
        <time>2025-01-28T13:29:27Z</time>
      </trkpt>
      <trkpt lat="47.61882" lon="-2.86568">
        <ele>2.2</ele>
        <time>2025-01-28T13:29:28Z</time>
      </trkpt>
      <trkpt lat="47.61881" lon="-2.86567">
        <ele>2.1</ele>
        <time>2025-01-28T13:29:29Z</time>
      </trkpt>
      <trkpt lat="47.6188" lon="-2.86568">
        <ele>2.1</ele>
        <time>2025-01-28T13:29:30Z</time>
      </trkpt>
      <trkpt lat="47.61878" lon="-2.86568">
        <ele>2.2</ele>
        <time>2025-01-28T13:29:31Z</time>
      </trkpt>
      <trkpt lat="47.61877" lon="-2.86569">
        <ele>2.2</ele>
        <time>2025-01-28T13:29:32Z</time>
      </trkpt>
      <trkpt lat="47.61876" lon="-2.86569">
        <ele>2.3</ele>
        <time>2025-01-28T13:29:33Z</time>
      </trkpt>
      <trkpt lat="47.61875" lon="-2.8657">
        <ele>2.3</ele>
        <time>2025-01-28T13:29:34Z</time>
      </trkpt>
      <trkpt lat="47.61874" lon="-2.86571">
        <ele>2.4</ele>
        <time>2025-01-28T13:29:35Z</time>
      </trkpt>
      <trkpt lat="47.61873" lon="-2.86571">
        <ele>2.3</ele>
        <time>2025-01-28T13:29:36Z</time>
      </trkpt>
      <trkpt lat="47.61872" lon="-2.86572">
        <ele>2.4</ele>
        <time>2025-01-28T13:29:37Z</time>
      </trkpt>
      <trkpt lat="47.61871" lon="-2.86573">
        <ele>2.5</ele>
        <time>2025-01-28T13:29:38Z</time>
      </trkpt>
      <trkpt lat="47.6187" lon="-2.86574">
        <ele>2.5</ele>
        <time>2025-01-28T13:29:39Z</time>
      </trkpt>
      <trkpt lat="47.61869" lon="-2.86575">
        <ele>2.6</ele>
        <time>2025-01-28T13:29:40Z</time>
      </trkpt>
      <trkpt lat="47.61868" lon="-2.86575">
        <ele>2.6</ele>
        <time>2025-01-28T13:29:41Z</time>
      </trkpt>
      <trkpt lat="47.61867" lon="-2.86576">
        <ele>2.6</ele>
        <time>2025-01-28T13:29:42Z</time>
      </trkpt>
      <trkpt lat="47.61865" lon="-2.86576">
        <ele>2.6</ele>
        <time>2025-01-28T13:29:43Z</time>
      </trkpt>
      <trkpt lat="47.61864" lon="-2.86576">
        <ele>2.6</ele>
        <time>2025-01-28T13:29:44Z</time>
      </trkpt>
      <trkpt lat="47.61863" lon="-2.86577">
        <ele>2.6</ele>
        <time>2025-01-28T13:29:45Z</time>
      </trkpt>
      <trkpt lat="47.61862" lon="-2.86577">
        <ele>2.6</ele>
        <time>2025-01-28T13:29:46Z</time>
      </trkpt>
      <trkpt lat="47.61861" lon="-2.86578">
        <ele>2.6</ele>
        <time>2025-01-28T13:29:47Z</time>
      </trkpt>
      <trkpt lat="47.6186" lon="-2.86579">
        <ele>2.6</ele>
        <time>2025-01-28T13:29:48Z</time>
      </trkpt>
      <trkpt lat="47.61858" lon="-2.8658">
        <ele>2.6</ele>
        <time>2025-01-28T13:29:49Z</time>
      </trkpt>
      <trkpt lat="47.61857" lon="-2.8658">
        <ele>2.5</ele>
        <time>2025-01-28T13:29:50Z</time>
      </trkpt>
      <trkpt lat="47.61856" lon="-2.86581">
        <ele>2.5</ele>
        <time>2025-01-28T13:29:51Z</time>
      </trkpt>
      <trkpt lat="47.61855" lon="-2.86582">
        <ele>2.5</ele>
        <time>2025-01-28T13:29:52Z</time>
      </trkpt>
      <trkpt lat="47.61854" lon="-2.86582">
        <ele>2.4</ele>
        <time>2025-01-28T13:29:53Z</time>
      </trkpt>
      <trkpt lat="47.61853" lon="-2.86584">
        <ele>2.4</ele>
        <time>2025-01-28T13:29:54Z</time>
      </trkpt>
      <trkpt lat="47.61852" lon="-2.86585">
        <ele>2.4</ele>
        <time>2025-01-28T13:29:55Z</time>
      </trkpt>
      <trkpt lat="47.61852" lon="-2.86588">
        <ele>2.5</ele>
        <time>2025-01-28T13:29:56Z</time>
      </trkpt>
      <trkpt lat="47.61852" lon="-2.86589">
        <ele>2.6</ele>
        <time>2025-01-28T13:29:57Z</time>
      </trkpt>
      <trkpt lat="47.61853" lon="-2.86591">
        <ele>2.8</ele>
        <time>2025-01-28T13:29:58Z</time>
      </trkpt>
      <trkpt lat="47.61854" lon="-2.86593">
        <ele>2.9</ele>
        <time>2025-01-28T13:29:59Z</time>
      </trkpt>
      <trkpt lat="47.61854" lon="-2.86595">
        <ele>3</ele>
        <time>2025-01-28T13:30:00Z</time>
      </trkpt>
      <trkpt lat="47.61855" lon="-2.86596">
        <ele>3.1</ele>
        <time>2025-01-28T13:30:01Z</time>
      </trkpt>
      <trkpt lat="47.61855" lon="-2.86598">
        <ele>3.2</ele>
        <time>2025-01-28T13:30:02Z</time>
      </trkpt>
      <trkpt lat="47.61855" lon="-2.866">
        <ele>3.3</ele>
        <time>2025-01-28T13:30:03Z</time>
      </trkpt>
      <trkpt lat="47.61855" lon="-2.86601">
        <ele>3.3</ele>
        <time>2025-01-28T13:30:04Z</time>
      </trkpt>
      <trkpt lat="47.61855" lon="-2.86603">
        <ele>3.4</ele>
        <time>2025-01-28T13:30:05Z</time>
      </trkpt>
      <trkpt lat="47.61855" lon="-2.86605">
        <ele>3.5</ele>
        <time>2025-01-28T13:30:06Z</time>
      </trkpt>
      <trkpt lat="47.61854" lon="-2.86607">
        <ele>3.6</ele>
        <time>2025-01-28T13:30:07Z</time>
      </trkpt>
      <trkpt lat="47.61854" lon="-2.86609">
        <ele>3.7</ele>
        <time>2025-01-28T13:30:08Z</time>
      </trkpt>
      <trkpt lat="47.61855" lon="-2.86611">
        <ele>3.8</ele>
        <time>2025-01-28T13:30:09Z</time>
      </trkpt>
      <trkpt lat="47.61855" lon="-2.86613">
        <ele>3.8</ele>
        <time>2025-01-28T13:30:10Z</time>
      </trkpt>
      <trkpt lat="47.61854" lon="-2.86615">
        <ele>3.9</ele>
        <time>2025-01-28T13:30:11Z</time>
      </trkpt>
      <trkpt lat="47.61855" lon="-2.86617">
        <ele>3.9</ele>
        <time>2025-01-28T13:30:12Z</time>
      </trkpt>
      <trkpt lat="47.61854" lon="-2.86619">
        <ele>4</ele>
        <time>2025-01-28T13:30:13Z</time>
      </trkpt>
      <trkpt lat="47.61855" lon="-2.86621">
        <ele>4</ele>
        <time>2025-01-28T13:30:14Z</time>
      </trkpt>
      <trkpt lat="47.61855" lon="-2.86622">
        <ele>4.1</ele>
        <time>2025-01-28T13:30:15Z</time>
      </trkpt>
      <trkpt lat="47.61855" lon="-2.86624">
        <ele>4.2</ele>
        <time>2025-01-28T13:30:16Z</time>
      </trkpt>
      <trkpt lat="47.61856" lon="-2.86625">
        <ele>4.2</ele>
        <time>2025-01-28T13:30:17Z</time>
      </trkpt>
      <trkpt lat="47.61855" lon="-2.86627">
        <ele>4.2</ele>
        <time>2025-01-28T13:30:18Z</time>
      </trkpt>
      <trkpt lat="47.61856" lon="-2.86628">
        <ele>4.3</ele>
        <time>2025-01-28T13:30:19Z</time>
      </trkpt>
      <trkpt lat="47.61856" lon="-2.8663">
        <ele>4.3</ele>
        <time>2025-01-28T13:30:20Z</time>
      </trkpt>
      <trkpt lat="47.61856" lon="-2.86632">
        <ele>4.4</ele>
        <time>2025-01-28T13:30:21Z</time>
      </trkpt>
      <trkpt lat="47.61856" lon="-2.86633">
        <ele>4.5</ele>
        <time>2025-01-28T13:30:22Z</time>
      </trkpt>
      <trkpt lat="47.61857" lon="-2.86635">
        <ele>4.6</ele>
        <time>2025-01-28T13:30:23Z</time>
      </trkpt>
      <trkpt lat="47.61857" lon="-2.86637">
        <ele>4.7</ele>
        <time>2025-01-28T13:30:24Z</time>
      </trkpt>
      <trkpt lat="47.61858" lon="-2.86639">
        <ele>4.7</ele>
        <time>2025-01-28T13:30:25Z</time>
      </trkpt>
      <trkpt lat="47.61859" lon="-2.8664">
        <ele>4.9</ele>
        <time>2025-01-28T13:30:26Z</time>
      </trkpt>
      <trkpt lat="47.61859" lon="-2.86642">
        <ele>5</ele>
        <time>2025-01-28T13:30:27Z</time>
      </trkpt>
      <trkpt lat="47.6186" lon="-2.86643">
        <ele>5.1</ele>
        <time>2025-01-28T13:30:28Z</time>
      </trkpt>
      <trkpt lat="47.6186" lon="-2.86645">
        <ele>5.2</ele>
        <time>2025-01-28T13:30:29Z</time>
      </trkpt>
      <trkpt lat="47.61861" lon="-2.86647">
        <ele>5.3</ele>
        <time>2025-01-28T13:30:30Z</time>
      </trkpt>
      <trkpt lat="47.61861" lon="-2.86649">
        <ele>5.4</ele>
        <time>2025-01-28T13:30:31Z</time>
      </trkpt>
      <trkpt lat="47.61862" lon="-2.86651">
        <ele>5.5</ele>
        <time>2025-01-28T13:30:32Z</time>
      </trkpt>
      <trkpt lat="47.61862" lon="-2.86652">
        <ele>5.5</ele>
        <time>2025-01-28T13:30:33Z</time>
      </trkpt>
      <trkpt lat="47.61862" lon="-2.86654">
        <ele>5.6</ele>
        <time>2025-01-28T13:30:34Z</time>
      </trkpt>
      <trkpt lat="47.61862" lon="-2.86656">
        <ele>5.7</ele>
        <time>2025-01-28T13:30:35Z</time>
      </trkpt>
      <trkpt lat="47.61863" lon="-2.86658">
        <ele>5.8</ele>
        <time>2025-01-28T13:30:36Z</time>
      </trkpt>
      <trkpt lat="47.61863" lon="-2.86659">
        <ele>5.9</ele>
        <time>2025-01-28T13:30:37Z</time>
      </trkpt>
      <trkpt lat="47.61864" lon="-2.86661">
        <ele>6</ele>
        <time>2025-01-28T13:30:38Z</time>
      </trkpt>
      <trkpt lat="47.61864" lon="-2.86662">
        <ele>6.1</ele>
        <time>2025-01-28T13:30:39Z</time>
      </trkpt>
      <trkpt lat="47.61864" lon="-2.86664">
        <ele>6.2</ele>
        <time>2025-01-28T13:30:40Z</time>
      </trkpt>
      <trkpt lat="47.61864" lon="-2.86666">
        <ele>6.2</ele>
        <time>2025-01-28T13:30:41Z</time>
      </trkpt>
      <trkpt lat="47.61864" lon="-2.86668">
        <ele>6.3</ele>
        <time>2025-01-28T13:30:42Z</time>
      </trkpt>
      <trkpt lat="47.61865" lon="-2.8667">
        <ele>6.4</ele>
        <time>2025-01-28T13:30:43Z</time>
      </trkpt>
      <trkpt lat="47.61864" lon="-2.86671">
        <ele>6.4</ele>
        <time>2025-01-28T13:30:44Z</time>
      </trkpt>
      <trkpt lat="47.61864" lon="-2.86673">
        <ele>6.4</ele>
        <time>2025-01-28T13:30:45Z</time>
      </trkpt>
      <trkpt lat="47.61864" lon="-2.86675">
        <ele>6.5</ele>
        <time>2025-01-28T13:30:46Z</time>
      </trkpt>
      <trkpt lat="47.61863" lon="-2.86677">
        <ele>6.5</ele>
        <time>2025-01-28T13:30:47Z</time>
      </trkpt>
      <trkpt lat="47.61863" lon="-2.86679">
        <ele>6.6</ele>
        <time>2025-01-28T13:30:48Z</time>
      </trkpt>
      <trkpt lat="47.61863" lon="-2.8668">
        <ele>6.6</ele>
        <time>2025-01-28T13:30:49Z</time>
      </trkpt>
      <trkpt lat="47.61863" lon="-2.86682">
        <ele>6.7</ele>
        <time>2025-01-28T13:30:50Z</time>
      </trkpt>
      <trkpt lat="47.61863" lon="-2.86684">
        <ele>6.7</ele>
        <time>2025-01-28T13:30:51Z</time>
      </trkpt>
      <trkpt lat="47.61862" lon="-2.86686">
        <ele>6.8</ele>
        <time>2025-01-28T13:30:52Z</time>
      </trkpt>
      <trkpt lat="47.61862" lon="-2.86689">
        <ele>6.9</ele>
        <time>2025-01-28T13:30:53Z</time>
      </trkpt>
      <trkpt lat="47.61862" lon="-2.8669">
        <ele>6.9</ele>
        <time>2025-01-28T13:30:54Z</time>
      </trkpt>
      <trkpt lat="47.61862" lon="-2.86692">
        <ele>7</ele>
        <time>2025-01-28T13:30:55Z</time>
      </trkpt>
      <trkpt lat="47.61862" lon="-2.86693">
        <ele>7</ele>
        <time>2025-01-28T13:30:56Z</time>
      </trkpt>
      <trkpt lat="47.61861" lon="-2.86694">
        <ele>7</ele>
        <time>2025-01-28T13:30:57Z</time>
      </trkpt>
      <trkpt lat="47.6186" lon="-2.86694">
        <ele>6.9</ele>
        <time>2025-01-28T13:30:58Z</time>
      </trkpt>
      <trkpt lat="47.61859" lon="-2.86693">
        <ele>6.7</ele>
        <time>2025-01-28T13:30:59Z</time>
      </trkpt>
      <trkpt lat="47.61858" lon="-2.86693">
        <ele>6.6</ele>
        <time>2025-01-28T13:31:00Z</time>
      </trkpt>
      <trkpt lat="47.61857" lon="-2.86692">
        <ele>6.4</ele>
        <time>2025-01-28T13:31:01Z</time>
      </trkpt>
      <trkpt lat="47.61855" lon="-2.86693">
        <ele>6.3</ele>
        <time>2025-01-28T13:31:02Z</time>
      </trkpt>
      <trkpt lat="47.61854" lon="-2.86693">
        <ele>6.2</ele>
        <time>2025-01-28T13:31:03Z</time>
      </trkpt>
      <trkpt lat="47.61853" lon="-2.86693">
        <ele>6.1</ele>
        <time>2025-01-28T13:31:04Z</time>
      </trkpt>
      <trkpt lat="47.61852" lon="-2.86694">
        <ele>6</ele>
        <time>2025-01-28T13:31:05Z</time>
      </trkpt>
      <trkpt lat="47.61851" lon="-2.86694">
        <ele>5.9</ele>
        <time>2025-01-28T13:31:06Z</time>
      </trkpt>
      <trkpt lat="47.6185" lon="-2.86694">
        <ele>5.8</ele>
        <time>2025-01-28T13:31:07Z</time>
      </trkpt>
      <trkpt lat="47.6185" lon="-2.86693">
        <ele>5.8</ele>
        <time>2025-01-28T13:31:08Z</time>
      </trkpt>
      <trkpt lat="47.6185" lon="-2.86693">
        <ele>5.8</ele>
        <time>2025-01-28T13:31:09Z</time>
      </trkpt>
      <trkpt lat="47.6185" lon="-2.86693">
        <ele>5.8</ele>
        <time>2025-01-28T13:31:10Z</time>
      </trkpt>
      <trkpt lat="47.6185" lon="-2.86693">
        <ele>5.8</ele>
        <time>2025-01-28T13:31:11Z</time>
      </trkpt>
      <trkpt lat="47.6185" lon="-2.86693">
        <ele>5.8</ele>
        <time>2025-01-28T13:31:12Z</time>
      </trkpt>
      <trkpt lat="47.6185" lon="-2.86693">
        <ele>5.8</ele>
        <time>2025-01-28T13:31:13Z</time>
      </trkpt>
      <trkpt lat="47.6185" lon="-2.86693">
        <ele>5.8</ele>
        <time>2025-01-28T13:31:14Z</time>
      </trkpt>
      <trkpt lat="47.6185" lon="-2.86693">
        <ele>5.8</ele>
        <time>2025-01-28T13:31:15Z</time>
      </trkpt>
      <trkpt lat="47.6185" lon="-2.86693">
        <ele>5.8</ele>
        <time>2025-01-28T13:31:16Z</time>
      </trkpt>
      <trkpt lat="47.6185" lon="-2.86694">
        <ele>5.8</ele>
        <time>2025-01-28T13:31:17Z</time>
      </trkpt>
      <trkpt lat="47.6185" lon="-2.86694">
        <ele>5.7</ele>
        <time>2025-01-28T13:31:18Z</time>
      </trkpt>
      <trkpt lat="47.61848" lon="-2.86694">
        <ele>5.6</ele>
        <time>2025-01-28T13:31:19Z</time>
      </trkpt>
      <trkpt lat="47.61846" lon="-2.86695">
        <ele>5.4</ele>
        <time>2025-01-28T13:31:20Z</time>
      </trkpt>
      <trkpt lat="47.61845" lon="-2.86696">
        <ele>5.3</ele>
        <time>2025-01-28T13:31:21Z</time>
      </trkpt>
      <trkpt lat="47.61844" lon="-2.86697">
        <ele>5.2</ele>
        <time>2025-01-28T13:31:22Z</time>
      </trkpt>
      <trkpt lat="47.61843" lon="-2.86697">
        <ele>5.2</ele>
        <time>2025-01-28T13:31:23Z</time>
      </trkpt>
      <trkpt lat="47.61842" lon="-2.86698">
        <ele>5.1</ele>
        <time>2025-01-28T13:31:24Z</time>
      </trkpt>
      <trkpt lat="47.61841" lon="-2.86699">
        <ele>5</ele>
        <time>2025-01-28T13:31:25Z</time>
      </trkpt>
      <trkpt lat="47.61841" lon="-2.867">
        <ele>5</ele>
        <time>2025-01-28T13:31:26Z</time>
      </trkpt>
      <trkpt lat="47.6184" lon="-2.86701">
        <ele>5</ele>
        <time>2025-01-28T13:31:27Z</time>
      </trkpt>
      <trkpt lat="47.61839" lon="-2.86702">
        <ele>5</ele>
        <time>2025-01-28T13:31:28Z</time>
      </trkpt>
      <trkpt lat="47.61838" lon="-2.86703">
        <ele>5</ele>
        <time>2025-01-28T13:31:29Z</time>
      </trkpt>
      <trkpt lat="47.61838" lon="-2.86705">
        <ele>5.1</ele>
        <time>2025-01-28T13:31:30Z</time>
      </trkpt>
      <trkpt lat="47.61839" lon="-2.86706">
        <ele>5.2</ele>
        <time>2025-01-28T13:31:31Z</time>
      </trkpt>
      <trkpt lat="47.61841" lon="-2.86707">
        <ele>5.4</ele>
        <time>2025-01-28T13:31:32Z</time>
      </trkpt>
      <trkpt lat="47.61842" lon="-2.86708">
        <ele>5.5</ele>
        <time>2025-01-28T13:31:33Z</time>
      </trkpt>
      <trkpt lat="47.61843" lon="-2.86709">
        <ele>5.5</ele>
        <time>2025-01-28T13:31:34Z</time>
      </trkpt>
      <trkpt lat="47.61843" lon="-2.8671">
        <ele>5.6</ele>
        <time>2025-01-28T13:31:35Z</time>
      </trkpt>
      <trkpt lat="47.61844" lon="-2.86712">
        <ele>5.7</ele>
        <time>2025-01-28T13:31:36Z</time>
      </trkpt>
      <trkpt lat="47.61845" lon="-2.86713">
        <ele>5.7</ele>
        <time>2025-01-28T13:31:37Z</time>
      </trkpt>
      <trkpt lat="47.61845" lon="-2.86714">
        <ele>5.8</ele>
        <time>2025-01-28T13:31:38Z</time>
      </trkpt>
      <trkpt lat="47.61846" lon="-2.86716">
        <ele>5.9</ele>
        <time>2025-01-28T13:31:39Z</time>
      </trkpt>
      <trkpt lat="47.61847" lon="-2.86717">
        <ele>5.9</ele>
        <time>2025-01-28T13:31:40Z</time>
      </trkpt>
      <trkpt lat="47.61847" lon="-2.86719">
        <ele>5.9</ele>
        <time>2025-01-28T13:31:41Z</time>
      </trkpt>
      <trkpt lat="47.61848" lon="-2.8672">
        <ele>6</ele>
        <time>2025-01-28T13:31:42Z</time>
      </trkpt>
      <trkpt lat="47.61849" lon="-2.86721">
        <ele>6</ele>
        <time>2025-01-28T13:31:43Z</time>
      </trkpt>
      <trkpt lat="47.61849" lon="-2.86722">
        <ele>6</ele>
        <time>2025-01-28T13:31:44Z</time>
      </trkpt>
      <trkpt lat="47.6185" lon="-2.86722">
        <ele>6</ele>
        <time>2025-01-28T13:31:45Z</time>
      </trkpt>
      <trkpt lat="47.61851" lon="-2.86723">
        <ele>5.9</ele>
        <time>2025-01-28T13:31:46Z</time>
      </trkpt>
      <trkpt lat="47.61852" lon="-2.86724">
        <ele>5.8</ele>
        <time>2025-01-28T13:31:47Z</time>
      </trkpt>
      <trkpt lat="47.61852" lon="-2.86725">
        <ele>5.6</ele>
        <time>2025-01-28T13:31:48Z</time>
      </trkpt>
      <trkpt lat="47.61853" lon="-2.86725">
        <ele>5.4</ele>
        <time>2025-01-28T13:31:49Z</time>
      </trkpt>
      <trkpt lat="47.61853" lon="-2.86726">
        <ele>5.3</ele>
        <time>2025-01-28T13:31:50Z</time>
      </trkpt>
      <trkpt lat="47.61854" lon="-2.86727">
        <ele>5.1</ele>
        <time>2025-01-28T13:31:51Z</time>
      </trkpt>
      <trkpt lat="47.61855" lon="-2.86729">
        <ele>4.9</ele>
        <time>2025-01-28T13:31:52Z</time>
      </trkpt>
      <trkpt lat="47.61855" lon="-2.8673">
        <ele>4.6</ele>
        <time>2025-01-28T13:31:53Z</time>
      </trkpt>
      <trkpt lat="47.61856" lon="-2.86732">
        <ele>4.3</ele>
        <time>2025-01-28T13:31:54Z</time>
      </trkpt>
      <trkpt lat="47.61856" lon="-2.86734">
        <ele>3.9</ele>
        <time>2025-01-28T13:31:55Z</time>
      </trkpt>
      <trkpt lat="47.61856" lon="-2.86736">
        <ele>3.6</ele>
        <time>2025-01-28T13:31:56Z</time>
      </trkpt>
      <trkpt lat="47.61856" lon="-2.86738">
        <ele>3.2</ele>
        <time>2025-01-28T13:31:57Z</time>
      </trkpt>
      <trkpt lat="47.61857" lon="-2.86739">
        <ele>3</ele>
        <time>2025-01-28T13:31:58Z</time>
      </trkpt>
      <trkpt lat="47.61857" lon="-2.8674">
        <ele>2.8</ele>
        <time>2025-01-28T13:31:59Z</time>
      </trkpt>
      <trkpt lat="47.61858" lon="-2.86741">
        <ele>2.7</ele>
        <time>2025-01-28T13:32:00Z</time>
      </trkpt>
      <trkpt lat="47.61858" lon="-2.86742">
        <ele>2.5</ele>
        <time>2025-01-28T13:32:01Z</time>
      </trkpt>
      <trkpt lat="47.61859" lon="-2.86742">
        <ele>2.5</ele>
        <time>2025-01-28T13:32:02Z</time>
      </trkpt>
      <trkpt lat="47.6186" lon="-2.86742">
        <ele>2.4</ele>
        <time>2025-01-28T13:32:03Z</time>
      </trkpt>
      <trkpt lat="47.61861" lon="-2.86742">
        <ele>2.4</ele>
        <time>2025-01-28T13:32:04Z</time>
      </trkpt>
      <trkpt lat="47.61862" lon="-2.86742">
        <ele>2.7</ele>
        <time>2025-01-28T13:32:05Z</time>
      </trkpt>
      <trkpt lat="47.61864" lon="-2.86742">
        <ele>3</ele>
        <time>2025-01-28T13:32:06Z</time>
      </trkpt>
      <trkpt lat="47.61865" lon="-2.86743">
        <ele>3.3</ele>
        <time>2025-01-28T13:32:07Z</time>
      </trkpt>
      <trkpt lat="47.61866" lon="-2.86743">
        <ele>3.6</ele>
        <time>2025-01-28T13:32:08Z</time>
      </trkpt>
      <trkpt lat="47.61868" lon="-2.86743">
        <ele>3.8</ele>
        <time>2025-01-28T13:32:09Z</time>
      </trkpt>
      <trkpt lat="47.61869" lon="-2.86744">
        <ele>4</ele>
        <time>2025-01-28T13:32:10Z</time>
      </trkpt>
      <trkpt lat="47.6187" lon="-2.86743">
        <ele>4.3</ele>
        <time>2025-01-28T13:32:11Z</time>
      </trkpt>
      <trkpt lat="47.6187" lon="-2.86743">
        <ele>4.5</ele>
        <time>2025-01-28T13:32:12Z</time>
      </trkpt>
      <trkpt lat="47.61871" lon="-2.86744">
        <ele>4.6</ele>
        <time>2025-01-28T13:32:13Z</time>
      </trkpt>
      <trkpt lat="47.61872" lon="-2.86745">
        <ele>4.7</ele>
        <time>2025-01-28T13:32:14Z</time>
      </trkpt>
      <trkpt lat="47.61873" lon="-2.86745">
        <ele>4.9</ele>
        <time>2025-01-28T13:32:15Z</time>
      </trkpt>
      <trkpt lat="47.61873" lon="-2.86746">
        <ele>4.9</ele>
        <time>2025-01-28T13:32:16Z</time>
      </trkpt>
      <trkpt lat="47.61874" lon="-2.86747">
        <ele>4.9</ele>
        <time>2025-01-28T13:32:17Z</time>
      </trkpt>
      <trkpt lat="47.61874" lon="-2.86748">
        <ele>4.9</ele>
        <time>2025-01-28T13:32:18Z</time>
      </trkpt>
      <trkpt lat="47.61874" lon="-2.8675">
        <ele>4.9</ele>
        <time>2025-01-28T13:32:19Z</time>
      </trkpt>
      <trkpt lat="47.61875" lon="-2.86751">
        <ele>4.9</ele>
        <time>2025-01-28T13:32:20Z</time>
      </trkpt>
      <trkpt lat="47.61875" lon="-2.86752">
        <ele>5</ele>
        <time>2025-01-28T13:32:21Z</time>
      </trkpt>
      <trkpt lat="47.61875" lon="-2.86754">
        <ele>5</ele>
        <time>2025-01-28T13:32:22Z</time>
      </trkpt>
      <trkpt lat="47.61876" lon="-2.86754">
        <ele>5.2</ele>
        <time>2025-01-28T13:32:23Z</time>
      </trkpt>
      <trkpt lat="47.61877" lon="-2.86755">
        <ele>5.4</ele>
        <time>2025-01-28T13:32:24Z</time>
      </trkpt>
      <trkpt lat="47.61878" lon="-2.86755">
        <ele>5.7</ele>
        <time>2025-01-28T13:32:25Z</time>
      </trkpt>
      <trkpt lat="47.61879" lon="-2.86756">
        <ele>5.9</ele>
        <time>2025-01-28T13:32:26Z</time>
      </trkpt>
      <trkpt lat="47.6188" lon="-2.86756">
        <ele>6</ele>
        <time>2025-01-28T13:32:27Z</time>
      </trkpt>
      <trkpt lat="47.6188" lon="-2.86756">
        <ele>6.2</ele>
        <time>2025-01-28T13:32:28Z</time>
      </trkpt>
      <trkpt lat="47.61881" lon="-2.86757">
        <ele>6.4</ele>
        <time>2025-01-28T13:32:29Z</time>
      </trkpt>
      <trkpt lat="47.61882" lon="-2.86758">
        <ele>6.4</ele>
        <time>2025-01-28T13:32:30Z</time>
      </trkpt>
      <trkpt lat="47.61883" lon="-2.8676">
        <ele>6.4</ele>
        <time>2025-01-28T13:32:31Z</time>
      </trkpt>
      <trkpt lat="47.61883" lon="-2.8676">
        <ele>6.4</ele>
        <time>2025-01-28T13:32:32Z</time>
      </trkpt>
      <trkpt lat="47.61883" lon="-2.86761">
        <ele>6.4</ele>
        <time>2025-01-28T13:32:33Z</time>
      </trkpt>
      <trkpt lat="47.61884" lon="-2.86762">
        <ele>6.4</ele>
        <time>2025-01-28T13:32:34Z</time>
      </trkpt>
      <trkpt lat="47.61884" lon="-2.86764">
        <ele>6.2</ele>
        <time>2025-01-28T13:32:35Z</time>
      </trkpt>
      <trkpt lat="47.61884" lon="-2.86766">
        <ele>6.1</ele>
        <time>2025-01-28T13:32:36Z</time>
      </trkpt>
      <trkpt lat="47.61885" lon="-2.86767">
        <ele>6.1</ele>
        <time>2025-01-28T13:32:37Z</time>
      </trkpt>
      <trkpt lat="47.61886" lon="-2.86767">
        <ele>6.2</ele>
        <time>2025-01-28T13:32:38Z</time>
      </trkpt>
      <trkpt lat="47.61886" lon="-2.86768">
        <ele>6.1</ele>
        <time>2025-01-28T13:32:39Z</time>
      </trkpt>
      <trkpt lat="47.61886" lon="-2.8677">
        <ele>5.9</ele>
        <time>2025-01-28T13:32:40Z</time>
      </trkpt>
      <trkpt lat="47.61886" lon="-2.86771">
        <ele>5.8</ele>
        <time>2025-01-28T13:32:41Z</time>
      </trkpt>
      <trkpt lat="47.61886" lon="-2.86772">
        <ele>5.7</ele>
        <time>2025-01-28T13:32:42Z</time>
      </trkpt>
      <trkpt lat="47.61886" lon="-2.86773">
        <ele>5.5</ele>
        <time>2025-01-28T13:32:43Z</time>
      </trkpt>
      <trkpt lat="47.61886" lon="-2.86775">
        <ele>5.4</ele>
        <time>2025-01-28T13:32:44Z</time>
      </trkpt>
      <trkpt lat="47.61886" lon="-2.86776">
        <ele>5.2</ele>
        <time>2025-01-28T13:32:45Z</time>
      </trkpt>
      <trkpt lat="47.61886" lon="-2.86778">
        <ele>5</ele>
        <time>2025-01-28T13:32:46Z</time>
      </trkpt>
      <trkpt lat="47.61887" lon="-2.86779">
        <ele>4.9</ele>
        <time>2025-01-28T13:32:47Z</time>
      </trkpt>
      <trkpt lat="47.61888" lon="-2.86779">
        <ele>4.8</ele>
        <time>2025-01-28T13:32:48Z</time>
      </trkpt>
      <trkpt lat="47.61888" lon="-2.8678">
        <ele>4.6</ele>
        <time>2025-01-28T13:32:49Z</time>
      </trkpt>
      <trkpt lat="47.61889" lon="-2.86782">
        <ele>4.4</ele>
        <time>2025-01-28T13:32:50Z</time>
      </trkpt>
      <trkpt lat="47.6189" lon="-2.86783">
        <ele>4.5</ele>
        <time>2025-01-28T13:32:51Z</time>
      </trkpt>
      <trkpt lat="47.6189" lon="-2.86784">
        <ele>4.5</ele>
        <time>2025-01-28T13:32:52Z</time>
      </trkpt>
      <trkpt lat="47.61891" lon="-2.86785">
        <ele>4.7</ele>
        <time>2025-01-28T13:32:53Z</time>
      </trkpt>
      <trkpt lat="47.61892" lon="-2.86785">
        <ele>5</ele>
        <time>2025-01-28T13:32:54Z</time>
      </trkpt>
      <trkpt lat="47.61892" lon="-2.86786">
        <ele>4.9</ele>
        <time>2025-01-28T13:32:55Z</time>
      </trkpt>
      <trkpt lat="47.61893" lon="-2.86787">
        <ele>4.9</ele>
        <time>2025-01-28T13:32:56Z</time>
      </trkpt>
      <trkpt lat="47.61893" lon="-2.86789">
        <ele>4.7</ele>
        <time>2025-01-28T13:32:57Z</time>
      </trkpt>
      <trkpt lat="47.61893" lon="-2.8679">
        <ele>4.7</ele>
        <time>2025-01-28T13:32:58Z</time>
      </trkpt>
      <trkpt lat="47.61894" lon="-2.86792">
        <ele>4.8</ele>
        <time>2025-01-28T13:32:59Z</time>
      </trkpt>
      <trkpt lat="47.61894" lon="-2.86794">
        <ele>4.6</ele>
        <time>2025-01-28T13:33:00Z</time>
      </trkpt>
      <trkpt lat="47.61894" lon="-2.86795">
        <ele>4.4</ele>
        <time>2025-01-28T13:33:01Z</time>
      </trkpt>
      <trkpt lat="47.61894" lon="-2.86797">
        <ele>4.3</ele>
        <time>2025-01-28T13:33:02Z</time>
      </trkpt>
      <trkpt lat="47.61894" lon="-2.86798">
        <ele>3.9</ele>
        <time>2025-01-28T13:33:03Z</time>
      </trkpt>
      <trkpt lat="47.61893" lon="-2.868">
        <ele>3.7</ele>
        <time>2025-01-28T13:33:04Z</time>
      </trkpt>
      <trkpt lat="47.61894" lon="-2.86801">
        <ele>3.5</ele>
        <time>2025-01-28T13:33:05Z</time>
      </trkpt>
      <trkpt lat="47.61894" lon="-2.86803">
        <ele>3.4</ele>
        <time>2025-01-28T13:33:06Z</time>
      </trkpt>
      <trkpt lat="47.61894" lon="-2.86804">
        <ele>3.2</ele>
        <time>2025-01-28T13:33:07Z</time>
      </trkpt>
      <trkpt lat="47.61894" lon="-2.86806">
        <ele>3.1</ele>
        <time>2025-01-28T13:33:08Z</time>
      </trkpt>
      <trkpt lat="47.61894" lon="-2.86807">
        <ele>3.8</ele>
        <time>2025-01-28T13:33:09Z</time>
      </trkpt>
      <trkpt lat="47.61895" lon="-2.86809">
        <ele>4.4</ele>
        <time>2025-01-28T13:33:10Z</time>
      </trkpt>
      <trkpt lat="47.61895" lon="-2.86811">
        <ele>5.1</ele>
        <time>2025-01-28T13:33:11Z</time>
      </trkpt>
      <trkpt lat="47.61895" lon="-2.86813">
        <ele>5.7</ele>
        <time>2025-01-28T13:33:12Z</time>
      </trkpt>
      <trkpt lat="47.61895" lon="-2.86815">
        <ele>6.4</ele>
        <time>2025-01-28T13:33:13Z</time>
      </trkpt>
      <trkpt lat="47.61895" lon="-2.86817">
        <ele>7</ele>
        <time>2025-01-28T13:33:14Z</time>
      </trkpt>
      <trkpt lat="47.61895" lon="-2.86819">
        <ele>7.7</ele>
        <time>2025-01-28T13:33:15Z</time>
      </trkpt>
      <trkpt lat="47.61896" lon="-2.86821">
        <ele>8.3</ele>
        <time>2025-01-28T13:33:16Z</time>
      </trkpt>
      <trkpt lat="47.61896" lon="-2.86823">
        <ele>8.9</ele>
        <time>2025-01-28T13:33:17Z</time>
      </trkpt>
      <trkpt lat="47.61895" lon="-2.86824">
        <ele>9.3</ele>
        <time>2025-01-28T13:33:18Z</time>
      </trkpt>
      <trkpt lat="47.61895" lon="-2.86825">
        <ele>9.5</ele>
        <time>2025-01-28T13:33:19Z</time>
      </trkpt>
      <trkpt lat="47.61894" lon="-2.86827">
        <ele>9.9</ele>
        <time>2025-01-28T13:33:20Z</time>
      </trkpt>
      <trkpt lat="47.61894" lon="-2.86828">
        <ele>10.3</ele>
        <time>2025-01-28T13:33:21Z</time>
      </trkpt>
      <trkpt lat="47.61894" lon="-2.86829">
        <ele>10.8</ele>
        <time>2025-01-28T13:33:22Z</time>
      </trkpt>
      <trkpt lat="47.61895" lon="-2.86831">
        <ele>11.2</ele>
        <time>2025-01-28T13:33:23Z</time>
      </trkpt>
      <trkpt lat="47.61895" lon="-2.86832">
        <ele>11.7</ele>
        <time>2025-01-28T13:33:24Z</time>
      </trkpt>
      <trkpt lat="47.61895" lon="-2.86834">
        <ele>12</ele>
        <time>2025-01-28T13:33:25Z</time>
      </trkpt>
      <trkpt lat="47.61896" lon="-2.86835">
        <ele>12</ele>
        <time>2025-01-28T13:33:26Z</time>
      </trkpt>
      <trkpt lat="47.61896" lon="-2.86836">
        <ele>11.9</ele>
        <time>2025-01-28T13:33:27Z</time>
      </trkpt>
      <trkpt lat="47.61896" lon="-2.86837">
        <ele>11.9</ele>
        <time>2025-01-28T13:33:28Z</time>
      </trkpt>
      <trkpt lat="47.61896" lon="-2.86839">
        <ele>11.8</ele>
        <time>2025-01-28T13:33:29Z</time>
      </trkpt>
      <trkpt lat="47.61896" lon="-2.86841">
        <ele>11.7</ele>
        <time>2025-01-28T13:33:30Z</time>
      </trkpt>
      <trkpt lat="47.61896" lon="-2.86842">
        <ele>11.7</ele>
        <time>2025-01-28T13:33:31Z</time>
      </trkpt>
      <trkpt lat="47.61896" lon="-2.86844">
        <ele>11.6</ele>
        <time>2025-01-28T13:33:32Z</time>
      </trkpt>
      <trkpt lat="47.61896" lon="-2.86846">
        <ele>11.5</ele>
        <time>2025-01-28T13:33:33Z</time>
      </trkpt>
      <trkpt lat="47.61896" lon="-2.86847">
        <ele>11.5</ele>
        <time>2025-01-28T13:33:34Z</time>
      </trkpt>
      <trkpt lat="47.61896" lon="-2.86849">
        <ele>11.4</ele>
        <time>2025-01-28T13:33:35Z</time>
      </trkpt>
      <trkpt lat="47.61896" lon="-2.8685">
        <ele>11.4</ele>
        <time>2025-01-28T13:33:36Z</time>
      </trkpt>
      <trkpt lat="47.61896" lon="-2.86852">
        <ele>11.3</ele>
        <time>2025-01-28T13:33:37Z</time>
      </trkpt>
      <trkpt lat="47.61896" lon="-2.86854">
        <ele>11.3</ele>
        <time>2025-01-28T13:33:38Z</time>
      </trkpt>
      <trkpt lat="47.61896" lon="-2.86855">
        <ele>11.2</ele>
        <time>2025-01-28T13:33:39Z</time>
      </trkpt>
      <trkpt lat="47.61896" lon="-2.86857">
        <ele>11.1</ele>
        <time>2025-01-28T13:33:40Z</time>
      </trkpt>
      <trkpt lat="47.61896" lon="-2.86859">
        <ele>11.1</ele>
        <time>2025-01-28T13:33:41Z</time>
      </trkpt>
      <trkpt lat="47.61896" lon="-2.8686">
        <ele>11</ele>
        <time>2025-01-28T13:33:42Z</time>
      </trkpt>
      <trkpt lat="47.61897" lon="-2.86862">
        <ele>10.8</ele>
        <time>2025-01-28T13:33:43Z</time>
      </trkpt>
      <trkpt lat="47.61897" lon="-2.86864">
        <ele>10.3</ele>
        <time>2025-01-28T13:33:44Z</time>
      </trkpt>
      <trkpt lat="47.61897" lon="-2.86865">
        <ele>9.9</ele>
        <time>2025-01-28T13:33:45Z</time>
      </trkpt>
      <trkpt lat="47.61897" lon="-2.86867">
        <ele>9.4</ele>
        <time>2025-01-28T13:33:46Z</time>
      </trkpt>
      <trkpt lat="47.61897" lon="-2.86869">
        <ele>8.9</ele>
        <time>2025-01-28T13:33:47Z</time>
      </trkpt>
      <trkpt lat="47.61897" lon="-2.86871">
        <ele>8.4</ele>
        <time>2025-01-28T13:33:48Z</time>
      </trkpt>
      <trkpt lat="47.61897" lon="-2.86873">
        <ele>7.9</ele>
        <time>2025-01-28T13:33:49Z</time>
      </trkpt>
      <trkpt lat="47.61897" lon="-2.86874">
        <ele>7.5</ele>
        <time>2025-01-28T13:33:50Z</time>
      </trkpt>
      <trkpt lat="47.61897" lon="-2.86876">
        <ele>7.1</ele>
        <time>2025-01-28T13:33:51Z</time>
      </trkpt>
      <trkpt lat="47.61897" lon="-2.86877">
        <ele>6.8</ele>
        <time>2025-01-28T13:33:52Z</time>
      </trkpt>
      <trkpt lat="47.61898" lon="-2.86879">
        <ele>6.4</ele>
        <time>2025-01-28T13:33:53Z</time>
      </trkpt>
      <trkpt lat="47.61898" lon="-2.86881">
        <ele>6</ele>
        <time>2025-01-28T13:33:54Z</time>
      </trkpt>
      <trkpt lat="47.61899" lon="-2.86882">
        <ele>5.8</ele>
        <time>2025-01-28T13:33:55Z</time>
      </trkpt>
      <trkpt lat="47.61899" lon="-2.86883">
        <ele>5.6</ele>
        <time>2025-01-28T13:33:56Z</time>
      </trkpt>
      <trkpt lat="47.61899" lon="-2.86885">
        <ele>5.2</ele>
        <time>2025-01-28T13:33:57Z</time>
      </trkpt>
      <trkpt lat="47.61899" lon="-2.86886">
        <ele>4.9</ele>
        <time>2025-01-28T13:33:58Z</time>
      </trkpt>
      <trkpt lat="47.61899" lon="-2.86887">
        <ele>4.8</ele>
        <time>2025-01-28T13:33:59Z</time>
      </trkpt>
      <trkpt lat="47.61899" lon="-2.86886">
        <ele>5.1</ele>
        <time>2025-01-28T13:34:00Z</time>
      </trkpt>
      <trkpt lat="47.61899" lon="-2.86887">
        <ele>4.9</ele>
        <time>2025-01-28T13:34:01Z</time>
      </trkpt>
      <trkpt lat="47.61899" lon="-2.86888">
        <ele>4.5</ele>
        <time>2025-01-28T13:34:02Z</time>
      </trkpt>
      <trkpt lat="47.619" lon="-2.86889">
        <ele>4.5</ele>
        <time>2025-01-28T13:34:03Z</time>
      </trkpt>
      <trkpt lat="47.619" lon="-2.8689">
        <ele>4.6</ele>
        <time>2025-01-28T13:34:04Z</time>
      </trkpt>
      <trkpt lat="47.61899" lon="-2.86892">
        <ele>4.6</ele>
        <time>2025-01-28T13:34:05Z</time>
      </trkpt>
      <trkpt lat="47.61899" lon="-2.86893">
        <ele>4.7</ele>
        <time>2025-01-28T13:34:06Z</time>
      </trkpt>
      <trkpt lat="47.61898" lon="-2.86895">
        <ele>4.8</ele>
        <time>2025-01-28T13:34:07Z</time>
      </trkpt>
      <trkpt lat="47.61898" lon="-2.86897">
        <ele>4.9</ele>
        <time>2025-01-28T13:34:08Z</time>
      </trkpt>
      <trkpt lat="47.61898" lon="-2.86899">
        <ele>5.1</ele>
        <time>2025-01-28T13:34:09Z</time>
      </trkpt>
      <trkpt lat="47.61899" lon="-2.86901">
        <ele>5.4</ele>
        <time>2025-01-28T13:34:10Z</time>
      </trkpt>
      <trkpt lat="47.61899" lon="-2.86902">
        <ele>5.6</ele>
        <time>2025-01-28T13:34:11Z</time>
      </trkpt>
      <trkpt lat="47.619" lon="-2.86903">
        <ele>5.8</ele>
        <time>2025-01-28T13:34:12Z</time>
      </trkpt>
      <trkpt lat="47.619" lon="-2.86904">
        <ele>5.9</ele>
        <time>2025-01-28T13:34:13Z</time>
      </trkpt>
      <trkpt lat="47.61901" lon="-2.86904">
        <ele>6</ele>
        <time>2025-01-28T13:34:14Z</time>
      </trkpt>
      <trkpt lat="47.61901" lon="-2.86906">
        <ele>6.1</ele>
        <time>2025-01-28T13:34:15Z</time>
      </trkpt>
      <trkpt lat="47.61901" lon="-2.86907">
        <ele>6.2</ele>
        <time>2025-01-28T13:34:16Z</time>
      </trkpt>
      <trkpt lat="47.61901" lon="-2.86908">
        <ele>6.4</ele>
        <time>2025-01-28T13:34:17Z</time>
      </trkpt>
      <trkpt lat="47.61902" lon="-2.86909">
        <ele>6.5</ele>
        <time>2025-01-28T13:34:18Z</time>
      </trkpt>
      <trkpt lat="47.61902" lon="-2.86911">
        <ele>6.6</ele>
        <time>2025-01-28T13:34:19Z</time>
      </trkpt>
      <trkpt lat="47.61902" lon="-2.86912">
        <ele>6.7</ele>
        <time>2025-01-28T13:34:20Z</time>
      </trkpt>
      <trkpt lat="47.61903" lon="-2.86914">
        <ele>6.8</ele>
        <time>2025-01-28T13:34:21Z</time>
      </trkpt>
      <trkpt lat="47.61903" lon="-2.86915">
        <ele>6.9</ele>
        <time>2025-01-28T13:34:22Z</time>
      </trkpt>
      <trkpt lat="47.61904" lon="-2.86915">
        <ele>6.9</ele>
        <time>2025-01-28T13:34:23Z</time>
      </trkpt>
      <trkpt lat="47.61905" lon="-2.86915">
        <ele>6.9</ele>
        <time>2025-01-28T13:34:24Z</time>
      </trkpt>
      <trkpt lat="47.61906" lon="-2.86915">
        <ele>7</ele>
        <time>2025-01-28T13:34:25Z</time>
      </trkpt>
      <trkpt lat="47.61907" lon="-2.86914">
        <ele>7</ele>
        <time>2025-01-28T13:34:26Z</time>
      </trkpt>
      <trkpt lat="47.61907" lon="-2.86914">
        <ele>7</ele>
        <time>2025-01-28T13:34:27Z</time>
      </trkpt>
      <trkpt lat="47.61908" lon="-2.86914">
        <ele>7</ele>
        <time>2025-01-28T13:34:28Z</time>
      </trkpt>
      <trkpt lat="47.61908" lon="-2.86914">
        <ele>7</ele>
        <time>2025-01-28T13:34:29Z</time>
      </trkpt>
      <trkpt lat="47.61909" lon="-2.86915">
        <ele>7</ele>
        <time>2025-01-28T13:34:30Z</time>
      </trkpt>
      <trkpt lat="47.61909" lon="-2.86915">
        <ele>7</ele>
        <time>2025-01-28T13:34:31Z</time>
      </trkpt>
      <trkpt lat="47.61909" lon="-2.86916">
        <ele>7</ele>
        <time>2025-01-28T13:34:32Z</time>
      </trkpt>
      <trkpt lat="47.6191" lon="-2.86917">
        <ele>7</ele>
        <time>2025-01-28T13:34:33Z</time>
      </trkpt>
      <trkpt lat="47.6191" lon="-2.86919">
        <ele>7</ele>
        <time>2025-01-28T13:34:34Z</time>
      </trkpt>
      <trkpt lat="47.6191" lon="-2.8692">
        <ele>7</ele>
        <time>2025-01-28T13:34:35Z</time>
      </trkpt>
      <trkpt lat="47.6191" lon="-2.86922">
        <ele>7</ele>
        <time>2025-01-28T13:34:36Z</time>
      </trkpt>
      <trkpt lat="47.61911" lon="-2.86923">
        <ele>7</ele>
        <time>2025-01-28T13:34:37Z</time>
      </trkpt>
      <trkpt lat="47.61911" lon="-2.86924">
        <ele>7</ele>
        <time>2025-01-28T13:34:38Z</time>
      </trkpt>
      <trkpt lat="47.61912" lon="-2.86925">
        <ele>7</ele>
        <time>2025-01-28T13:34:39Z</time>
      </trkpt>
      <trkpt lat="47.61912" lon="-2.86926">
        <ele>7</ele>
        <time>2025-01-28T13:34:40Z</time>
      </trkpt>
      <trkpt lat="47.61912" lon="-2.86928">
        <ele>7</ele>
        <time>2025-01-28T13:34:41Z</time>
      </trkpt>
      <trkpt lat="47.61912" lon="-2.8693">
        <ele>7</ele>
        <time>2025-01-28T13:34:42Z</time>
      </trkpt>
      <trkpt lat="47.61912" lon="-2.86932">
        <ele>7</ele>
        <time>2025-01-28T13:34:43Z</time>
      </trkpt>
      <trkpt lat="47.61911" lon="-2.86934">
        <ele>7</ele>
        <time>2025-01-28T13:34:44Z</time>
      </trkpt>
      <trkpt lat="47.61913" lon="-2.86937">
        <ele>7</ele>
        <time>2025-01-28T13:34:45Z</time>
      </trkpt>
      <trkpt lat="47.61914" lon="-2.86938">
        <ele>7</ele>
        <time>2025-01-28T13:34:46Z</time>
      </trkpt>
      <trkpt lat="47.61916" lon="-2.86938">
        <ele>7</ele>
        <time>2025-01-28T13:34:47Z</time>
      </trkpt>
      <trkpt lat="47.61917" lon="-2.86937">
        <ele>6.3</ele>
        <time>2025-01-28T13:34:48Z</time>
      </trkpt>
      <trkpt lat="47.61918" lon="-2.86937">
        <ele>6.3</ele>
        <time>2025-01-28T13:34:49Z</time>
      </trkpt>
      <trkpt lat="47.61919" lon="-2.86936">
        <ele>6.4</ele>
        <time>2025-01-28T13:34:50Z</time>
      </trkpt>
      <trkpt lat="47.61919" lon="-2.86935">
        <ele>6.5</ele>
        <time>2025-01-28T13:34:51Z</time>
      </trkpt>
      <trkpt lat="47.61919" lon="-2.86934">
        <ele>6.5</ele>
        <time>2025-01-28T13:34:52Z</time>
      </trkpt>
      <trkpt lat="47.6192" lon="-2.86933">
        <ele>6.6</ele>
        <time>2025-01-28T13:34:53Z</time>
      </trkpt>
      <trkpt lat="47.61921" lon="-2.86931">
        <ele>6.8</ele>
        <time>2025-01-28T13:34:54Z</time>
      </trkpt>
      <trkpt lat="47.61921" lon="-2.86931">
        <ele>6.9</ele>
        <time>2025-01-28T13:34:55Z</time>
      </trkpt>
      <trkpt lat="47.61921" lon="-2.86931">
        <ele>6.8</ele>
        <time>2025-01-28T13:34:56Z</time>
      </trkpt>
      <trkpt lat="47.61921" lon="-2.86931">
        <ele>6.8</ele>
        <time>2025-01-28T13:34:57Z</time>
      </trkpt>
      <trkpt lat="47.61921" lon="-2.86931">
        <ele>6.9</ele>
        <time>2025-01-28T13:34:58Z</time>
      </trkpt>
      <trkpt lat="47.61922" lon="-2.86931">
        <ele>6.9</ele>
        <time>2025-01-28T13:34:59Z</time>
      </trkpt>
      <trkpt lat="47.61922" lon="-2.86931">
        <ele>6.9</ele>
        <time>2025-01-28T13:35:00Z</time>
      </trkpt>
      <trkpt lat="47.61922" lon="-2.86932">
        <ele>6.9</ele>
        <time>2025-01-28T13:35:01Z</time>
      </trkpt>
      <trkpt lat="47.61922" lon="-2.86933">
        <ele>6.8</ele>
        <time>2025-01-28T13:35:02Z</time>
      </trkpt>
      <trkpt lat="47.61922" lon="-2.86934">
        <ele>6.8</ele>
        <time>2025-01-28T13:35:03Z</time>
      </trkpt>
      <trkpt lat="47.61922" lon="-2.86935">
        <ele>6.7</ele>
        <time>2025-01-28T13:35:04Z</time>
      </trkpt>
      <trkpt lat="47.61922" lon="-2.86935">
        <ele>6.6</ele>
        <time>2025-01-28T13:35:05Z</time>
      </trkpt>
      <trkpt lat="47.61922" lon="-2.86937">
        <ele>6.5</ele>
        <time>2025-01-28T13:35:06Z</time>
      </trkpt>
      <trkpt lat="47.61923" lon="-2.86937">
        <ele>6.6</ele>
        <time>2025-01-28T13:35:07Z</time>
      </trkpt>
      <trkpt lat="47.61925" lon="-2.86937">
        <ele>6.7</ele>
        <time>2025-01-28T13:35:08Z</time>
      </trkpt>
      <trkpt lat="47.61925" lon="-2.86938">
        <ele>6.6</ele>
        <time>2025-01-28T13:35:09Z</time>
      </trkpt>
      <trkpt lat="47.61925" lon="-2.86938">
        <ele>6.6</ele>
        <time>2025-01-28T13:35:10Z</time>
      </trkpt>
      <trkpt lat="47.61924" lon="-2.86939">
        <ele>6.5</ele>
        <time>2025-01-28T13:35:11Z</time>
      </trkpt>
      <trkpt lat="47.61926" lon="-2.86939">
        <ele>6.5</ele>
        <time>2025-01-28T13:35:12Z</time>
      </trkpt>
      <trkpt lat="47.61927" lon="-2.86939">
        <ele>6.5</ele>
        <time>2025-01-28T13:35:13Z</time>
      </trkpt>
      <trkpt lat="47.61928" lon="-2.86939">
        <ele>6.5</ele>
        <time>2025-01-28T13:35:14Z</time>
      </trkpt>
      <trkpt lat="47.61929" lon="-2.86941">
        <ele>6.5</ele>
        <time>2025-01-28T13:35:15Z</time>
      </trkpt>
      <trkpt lat="47.6193" lon="-2.86942">
        <ele>6.3</ele>
        <time>2025-01-28T13:35:16Z</time>
      </trkpt>
      <trkpt lat="47.61931" lon="-2.86943">
        <ele>6.2</ele>
        <time>2025-01-28T13:35:17Z</time>
      </trkpt>
      <trkpt lat="47.61931" lon="-2.86942">
        <ele>6.3</ele>
        <time>2025-01-28T13:35:18Z</time>
      </trkpt>
      <trkpt lat="47.61932" lon="-2.86942">
        <ele>6.4</ele>
        <time>2025-01-28T13:35:19Z</time>
      </trkpt>
      <trkpt lat="47.61933" lon="-2.86941">
        <ele>6.6</ele>
        <time>2025-01-28T13:35:20Z</time>
      </trkpt>
      <trkpt lat="47.61934" lon="-2.86939">
        <ele>6.8</ele>
        <time>2025-01-28T13:35:21Z</time>
      </trkpt>
      <trkpt lat="47.61935" lon="-2.86939">
        <ele>6.9</ele>
        <time>2025-01-28T13:35:22Z</time>
      </trkpt>
      <trkpt lat="47.61935" lon="-2.86938">
        <ele>7.1</ele>
        <time>2025-01-28T13:35:23Z</time>
      </trkpt>
      <trkpt lat="47.61936" lon="-2.86937">
        <ele>7.2</ele>
        <time>2025-01-28T13:35:24Z</time>
      </trkpt>
      <trkpt lat="47.61938" lon="-2.86937">
        <ele>7.4</ele>
        <time>2025-01-28T13:35:25Z</time>
      </trkpt>
      <trkpt lat="47.61939" lon="-2.86937">
        <ele>7.3</ele>
        <time>2025-01-28T13:35:26Z</time>
      </trkpt>
      <trkpt lat="47.6194" lon="-2.86938">
        <ele>7.2</ele>
        <time>2025-01-28T13:35:27Z</time>
      </trkpt>
      <trkpt lat="47.61941" lon="-2.86938">
        <ele>7.2</ele>
        <time>2025-01-28T13:35:28Z</time>
      </trkpt>
      <trkpt lat="47.61941" lon="-2.8694">
        <ele>6.9</ele>
        <time>2025-01-28T13:35:29Z</time>
      </trkpt>
      <trkpt lat="47.61942" lon="-2.86941">
        <ele>6.8</ele>
        <time>2025-01-28T13:35:30Z</time>
      </trkpt>
      <trkpt lat="47.61942" lon="-2.86942">
        <ele>6.6</ele>
        <time>2025-01-28T13:35:31Z</time>
      </trkpt>
      <trkpt lat="47.61942" lon="-2.86943">
        <ele>6.2</ele>
        <time>2025-01-28T13:35:32Z</time>
      </trkpt>
      <trkpt lat="47.61942" lon="-2.86945">
        <ele>6</ele>
        <time>2025-01-28T13:35:33Z</time>
      </trkpt>
      <trkpt lat="47.61943" lon="-2.86946">
        <ele>6</ele>
        <time>2025-01-28T13:35:34Z</time>
      </trkpt>
      <trkpt lat="47.61943" lon="-2.86948">
        <ele>6</ele>
        <time>2025-01-28T13:35:35Z</time>
      </trkpt>
      <trkpt lat="47.61944" lon="-2.86949">
        <ele>6</ele>
        <time>2025-01-28T13:35:36Z</time>
      </trkpt>
      <trkpt lat="47.61945" lon="-2.8695">
        <ele>5.2</ele>
        <time>2025-01-28T13:35:37Z</time>
      </trkpt>
      <trkpt lat="47.61945" lon="-2.86951">
        <ele>5.1</ele>
        <time>2025-01-28T13:35:38Z</time>
      </trkpt>
      <trkpt lat="47.61943" lon="-2.8695">
        <ele>6</ele>
        <time>2025-01-28T13:35:39Z</time>
      </trkpt>
      <trkpt lat="47.61943" lon="-2.8695">
        <ele>6</ele>
        <time>2025-01-28T13:35:40Z</time>
      </trkpt>
      <trkpt lat="47.61943" lon="-2.8695">
        <ele>6</ele>
        <time>2025-01-28T13:35:41Z</time>
      </trkpt>
      <trkpt lat="47.61943" lon="-2.8695">
        <ele>6</ele>
        <time>2025-01-28T13:35:42Z</time>
      </trkpt>
      <trkpt lat="47.61944" lon="-2.86952">
        <ele>6</ele>
        <time>2025-01-28T13:35:43Z</time>
      </trkpt>
      <trkpt lat="47.61945" lon="-2.86953">
        <ele>4.8</ele>
        <time>2025-01-28T13:35:44Z</time>
      </trkpt>
      <trkpt lat="47.61945" lon="-2.86954">
        <ele>4.7</ele>
        <time>2025-01-28T13:35:45Z</time>
      </trkpt>
      <trkpt lat="47.61946" lon="-2.86955">
        <ele>4.6</ele>
        <time>2025-01-28T13:35:46Z</time>
      </trkpt>
      <trkpt lat="47.61947" lon="-2.86956">
        <ele>4.6</ele>
        <time>2025-01-28T13:35:47Z</time>
      </trkpt>
      <trkpt lat="47.61948" lon="-2.86957">
        <ele>4.5</ele>
        <time>2025-01-28T13:35:48Z</time>
      </trkpt>
      <trkpt lat="47.61949" lon="-2.86958">
        <ele>4.4</ele>
        <time>2025-01-28T13:35:49Z</time>
      </trkpt>
      <trkpt lat="47.61949" lon="-2.86959">
        <ele>4.2</ele>
        <time>2025-01-28T13:35:50Z</time>
      </trkpt>
      <trkpt lat="47.6195" lon="-2.8696">
        <ele>4.1</ele>
        <time>2025-01-28T13:35:51Z</time>
      </trkpt>
      <trkpt lat="47.61951" lon="-2.86961">
        <ele>4.1</ele>
        <time>2025-01-28T13:35:52Z</time>
      </trkpt>
      <trkpt lat="47.61952" lon="-2.86962">
        <ele>3.9</ele>
        <time>2025-01-28T13:35:53Z</time>
      </trkpt>
      <trkpt lat="47.61953" lon="-2.86962">
        <ele>3.9</ele>
        <time>2025-01-28T13:35:54Z</time>
      </trkpt>
      <trkpt lat="47.61954" lon="-2.86962">
        <ele>4</ele>
        <time>2025-01-28T13:35:55Z</time>
      </trkpt>
      <trkpt lat="47.61955" lon="-2.86962">
        <ele>4</ele>
        <time>2025-01-28T13:35:56Z</time>
      </trkpt>
      <trkpt lat="47.61955" lon="-2.86963">
        <ele>4</ele>
        <time>2025-01-28T13:35:57Z</time>
      </trkpt>
      <trkpt lat="47.61956" lon="-2.86963">
        <ele>3.9</ele>
        <time>2025-01-28T13:35:58Z</time>
      </trkpt>
      <trkpt lat="47.61957" lon="-2.86964">
        <ele>3.7</ele>
        <time>2025-01-28T13:35:59Z</time>
      </trkpt>
      <trkpt lat="47.61958" lon="-2.86965">
        <ele>3.6</ele>
        <time>2025-01-28T13:36:00Z</time>
      </trkpt>
      <trkpt lat="47.61959" lon="-2.86965">
        <ele>3.6</ele>
        <time>2025-01-28T13:36:01Z</time>
      </trkpt>
      <trkpt lat="47.6196" lon="-2.86965">
        <ele>3.5</ele>
        <time>2025-01-28T13:36:02Z</time>
      </trkpt>
      <trkpt lat="47.61961" lon="-2.86966">
        <ele>3.5</ele>
        <time>2025-01-28T13:36:03Z</time>
      </trkpt>
      <trkpt lat="47.61962" lon="-2.86967">
        <ele>3.3</ele>
        <time>2025-01-28T13:36:04Z</time>
      </trkpt>
      <trkpt lat="47.61963" lon="-2.86967">
        <ele>3.3</ele>
        <time>2025-01-28T13:36:05Z</time>
      </trkpt>
      <trkpt lat="47.61964" lon="-2.86967">
        <ele>3.3</ele>
        <time>2025-01-28T13:36:06Z</time>
      </trkpt>
      <trkpt lat="47.61965" lon="-2.86967">
        <ele>3.4</ele>
        <time>2025-01-28T13:36:07Z</time>
      </trkpt>
      <trkpt lat="47.61966" lon="-2.86967">
        <ele>3.4</ele>
        <time>2025-01-28T13:36:08Z</time>
      </trkpt>
      <trkpt lat="47.61967" lon="-2.86967">
        <ele>3.4</ele>
        <time>2025-01-28T13:36:09Z</time>
      </trkpt>
      <trkpt lat="47.61968" lon="-2.86967">
        <ele>3.3</ele>
        <time>2025-01-28T13:36:10Z</time>
      </trkpt>
      <trkpt lat="47.61969" lon="-2.86968">
        <ele>3.2</ele>
        <time>2025-01-28T13:36:11Z</time>
      </trkpt>
      <trkpt lat="47.6197" lon="-2.86968">
        <ele>3.3</ele>
        <time>2025-01-28T13:36:12Z</time>
      </trkpt>
      <trkpt lat="47.61971" lon="-2.86968">
        <ele>3.2</ele>
        <time>2025-01-28T13:36:13Z</time>
      </trkpt>
      <trkpt lat="47.61972" lon="-2.86968">
        <ele>3.2</ele>
        <time>2025-01-28T13:36:14Z</time>
      </trkpt>
      <trkpt lat="47.61974" lon="-2.86967">
        <ele>3.4</ele>
        <time>2025-01-28T13:36:15Z</time>
      </trkpt>
      <trkpt lat="47.61975" lon="-2.86968">
        <ele>3.3</ele>
        <time>2025-01-28T13:36:16Z</time>
      </trkpt>
      <trkpt lat="47.61976" lon="-2.86968">
        <ele>3.3</ele>
        <time>2025-01-28T13:36:17Z</time>
      </trkpt>
      <trkpt lat="47.61977" lon="-2.86967">
        <ele>3.4</ele>
        <time>2025-01-28T13:36:18Z</time>
      </trkpt>
      <trkpt lat="47.61979" lon="-2.86968">
        <ele>3.4</ele>
        <time>2025-01-28T13:36:19Z</time>
      </trkpt>
      <trkpt lat="47.6198" lon="-2.86968">
        <ele>3.1</ele>
        <time>2025-01-28T13:36:20Z</time>
      </trkpt>
      <trkpt lat="47.61981" lon="-2.86969">
        <ele>3.1</ele>
        <time>2025-01-28T13:36:21Z</time>
      </trkpt>
      <trkpt lat="47.61982" lon="-2.86968">
        <ele>3.1</ele>
        <time>2025-01-28T13:36:22Z</time>
      </trkpt>
      <trkpt lat="47.61983" lon="-2.86968">
        <ele>3.1</ele>
        <time>2025-01-28T13:36:23Z</time>
      </trkpt>
      <trkpt lat="47.61984" lon="-2.86968">
        <ele>3.2</ele>
        <time>2025-01-28T13:36:24Z</time>
      </trkpt>
      <trkpt lat="47.61985" lon="-2.86968">
        <ele>3.2</ele>
        <time>2025-01-28T13:36:25Z</time>
      </trkpt>
      <trkpt lat="47.61986" lon="-2.86967">
        <ele>3.4</ele>
        <time>2025-01-28T13:36:26Z</time>
      </trkpt>
      <trkpt lat="47.61987" lon="-2.86967">
        <ele>3.4</ele>
        <time>2025-01-28T13:36:27Z</time>
      </trkpt>
      <trkpt lat="47.61988" lon="-2.86967">
        <ele>3.4</ele>
        <time>2025-01-28T13:36:28Z</time>
      </trkpt>
      <trkpt lat="47.61989" lon="-2.86967">
        <ele>3.4</ele>
        <time>2025-01-28T13:36:29Z</time>
      </trkpt>
      <trkpt lat="47.6199" lon="-2.86967">
        <ele>3.4</ele>
        <time>2025-01-28T13:36:30Z</time>
      </trkpt>
      <trkpt lat="47.61991" lon="-2.86967">
        <ele>3.4</ele>
        <time>2025-01-28T13:36:31Z</time>
      </trkpt>
      <trkpt lat="47.61993" lon="-2.86968">
        <ele>3.4</ele>
        <time>2025-01-28T13:36:32Z</time>
      </trkpt>
      <trkpt lat="47.61994" lon="-2.86968">
        <ele>3.3</ele>
        <time>2025-01-28T13:36:33Z</time>
      </trkpt>
      <trkpt lat="47.61995" lon="-2.86967">
        <ele>3.4</ele>
        <time>2025-01-28T13:36:34Z</time>
      </trkpt>
      <trkpt lat="47.61996" lon="-2.86967">
        <ele>3.5</ele>
        <time>2025-01-28T13:36:35Z</time>
      </trkpt>
      <trkpt lat="47.61997" lon="-2.86967">
        <ele>3.5</ele>
        <time>2025-01-28T13:36:36Z</time>
      </trkpt>
      <trkpt lat="47.61999" lon="-2.86967">
        <ele>3.6</ele>
        <time>2025-01-28T13:36:37Z</time>
      </trkpt>
      <trkpt lat="47.62" lon="-2.86966">
        <ele>3.7</ele>
        <time>2025-01-28T13:36:38Z</time>
      </trkpt>
      <trkpt lat="47.62001" lon="-2.86966">
        <ele>3.6</ele>
        <time>2025-01-28T13:36:39Z</time>
      </trkpt>
      <trkpt lat="47.62002" lon="-2.86966">
        <ele>3.8</ele>
        <time>2025-01-28T13:36:40Z</time>
      </trkpt>
      <trkpt lat="47.62003" lon="-2.86966">
        <ele>3.7</ele>
        <time>2025-01-28T13:36:41Z</time>
      </trkpt>
      <trkpt lat="47.62004" lon="-2.86967">
        <ele>3.5</ele>
        <time>2025-01-28T13:36:42Z</time>
      </trkpt>
      <trkpt lat="47.62005" lon="-2.86967">
        <ele>3.4</ele>
        <time>2025-01-28T13:36:43Z</time>
      </trkpt>
      <trkpt lat="47.62006" lon="-2.86967">
        <ele>3.4</ele>
        <time>2025-01-28T13:36:44Z</time>
      </trkpt>
      <trkpt lat="47.62007" lon="-2.86967">
        <ele>3.4</ele>
        <time>2025-01-28T13:36:45Z</time>
      </trkpt>
      <trkpt lat="47.62008" lon="-2.86967">
        <ele>3.5</ele>
        <time>2025-01-28T13:36:46Z</time>
      </trkpt>
      <trkpt lat="47.62009" lon="-2.86966">
        <ele>3.5</ele>
        <time>2025-01-28T13:36:47Z</time>
      </trkpt>
      <trkpt lat="47.62011" lon="-2.86966">
        <ele>3.5</ele>
        <time>2025-01-28T13:36:48Z</time>
      </trkpt>
      <trkpt lat="47.62012" lon="-2.86966">
        <ele>3.5</ele>
        <time>2025-01-28T13:36:49Z</time>
      </trkpt>
      <trkpt lat="47.62013" lon="-2.86966">
        <ele>3.5</ele>
        <time>2025-01-28T13:36:50Z</time>
      </trkpt>
      <trkpt lat="47.62014" lon="-2.86965">
        <ele>3.7</ele>
        <time>2025-01-28T13:36:51Z</time>
      </trkpt>
      <trkpt lat="47.62015" lon="-2.86964">
        <ele>3.9</ele>
        <time>2025-01-28T13:36:52Z</time>
      </trkpt>
      <trkpt lat="47.62015" lon="-2.86964">
        <ele>4</ele>
        <time>2025-01-28T13:36:53Z</time>
      </trkpt>
      <trkpt lat="47.62016" lon="-2.86964">
        <ele>4</ele>
        <time>2025-01-28T13:36:54Z</time>
      </trkpt>
      <trkpt lat="47.62016" lon="-2.86964">
        <ele>3.9</ele>
        <time>2025-01-28T13:36:55Z</time>
      </trkpt>
      <trkpt lat="47.62017" lon="-2.86964">
        <ele>3.9</ele>
        <time>2025-01-28T13:36:56Z</time>
      </trkpt>
      <trkpt lat="47.62018" lon="-2.86963">
        <ele>3.9</ele>
        <time>2025-01-28T13:36:57Z</time>
      </trkpt>
      <trkpt lat="47.62018" lon="-2.86963">
        <ele>4</ele>
        <time>2025-01-28T13:36:58Z</time>
      </trkpt>
      <trkpt lat="47.62018" lon="-2.86963">
        <ele>4</ele>
        <time>2025-01-28T13:36:59Z</time>
      </trkpt>
      <trkpt lat="47.62018" lon="-2.86963">
        <ele>4</ele>
        <time>2025-01-28T13:37:00Z</time>
      </trkpt>
      <trkpt lat="47.62018" lon="-2.86963">
        <ele>4</ele>
        <time>2025-01-28T13:37:01Z</time>
      </trkpt>
      <trkpt lat="47.62018" lon="-2.86963">
        <ele>4</ele>
        <time>2025-01-28T13:37:02Z</time>
      </trkpt>
      <trkpt lat="47.62018" lon="-2.86963">
        <ele>4</ele>
        <time>2025-01-28T13:37:03Z</time>
      </trkpt>
      <trkpt lat="47.62018" lon="-2.86963">
        <ele>4</ele>
        <time>2025-01-28T13:37:04Z</time>
      </trkpt>
      <trkpt lat="47.62018" lon="-2.86963">
        <ele>4</ele>
        <time>2025-01-28T13:37:05Z</time>
      </trkpt>
      <trkpt lat="47.62018" lon="-2.86963">
        <ele>4</ele>
        <time>2025-01-28T13:37:06Z</time>
      </trkpt>
      <trkpt lat="47.62018" lon="-2.86963">
        <ele>4</ele>
        <time>2025-01-28T13:37:07Z</time>
      </trkpt>
      <trkpt lat="47.62018" lon="-2.86963">
        <ele>4</ele>
        <time>2025-01-28T13:37:08Z</time>
      </trkpt>
      <trkpt lat="47.62018" lon="-2.86964">
        <ele>3.8</ele>
        <time>2025-01-28T13:37:09Z</time>
      </trkpt>
      <trkpt lat="47.62018" lon="-2.86965">
        <ele>3.6</ele>
        <time>2025-01-28T13:37:10Z</time>
      </trkpt>
      <trkpt lat="47.62017" lon="-2.86965">
        <ele>3.6</ele>
        <time>2025-01-28T13:37:11Z</time>
      </trkpt>
      <trkpt lat="47.62017" lon="-2.86965">
        <ele>3.6</ele>
        <time>2025-01-28T13:37:12Z</time>
      </trkpt>
      <trkpt lat="47.62017" lon="-2.86965">
        <ele>3.6</ele>
        <time>2025-01-28T13:37:13Z</time>
      </trkpt>
      <trkpt lat="47.62017" lon="-2.86965">
        <ele>3.6</ele>
        <time>2025-01-28T13:37:14Z</time>
      </trkpt>
      <trkpt lat="47.62017" lon="-2.86965">
        <ele>3.6</ele>
        <time>2025-01-28T13:37:15Z</time>
      </trkpt>
      <trkpt lat="47.62017" lon="-2.86965">
        <ele>3.6</ele>
        <time>2025-01-28T13:37:16Z</time>
      </trkpt>
      <trkpt lat="47.62017" lon="-2.86965">
        <ele>3.6</ele>
        <time>2025-01-28T13:37:17Z</time>
      </trkpt>
      <trkpt lat="47.62017" lon="-2.86965">
        <ele>3.6</ele>
        <time>2025-01-28T13:37:18Z</time>
      </trkpt>
      <trkpt lat="47.62017" lon="-2.86965">
        <ele>3.6</ele>
        <time>2025-01-28T13:37:19Z</time>
      </trkpt>
      <trkpt lat="47.62017" lon="-2.86965">
        <ele>3.6</ele>
        <time>2025-01-28T13:37:20Z</time>
      </trkpt>
      <trkpt lat="47.62017" lon="-2.86964">
        <ele>3.8</ele>
        <time>2025-01-28T13:37:21Z</time>
      </trkpt>
      <trkpt lat="47.62017" lon="-2.86963">
        <ele>4.1</ele>
        <time>2025-01-28T13:37:22Z</time>
      </trkpt>
      <trkpt lat="47.62017" lon="-2.86962">
        <ele>4.3</ele>
        <time>2025-01-28T13:37:23Z</time>
      </trkpt>
      <trkpt lat="47.62016" lon="-2.86962">
        <ele>4.4</ele>
        <time>2025-01-28T13:37:24Z</time>
      </trkpt>
      <trkpt lat="47.62017" lon="-2.86961">
        <ele>4.5</ele>
        <time>2025-01-28T13:37:25Z</time>
      </trkpt>
      <trkpt lat="47.62018" lon="-2.8696">
        <ele>4.7</ele>
        <time>2025-01-28T13:37:26Z</time>
      </trkpt>
      <trkpt lat="47.6202" lon="-2.86959">
        <ele>4.8</ele>
        <time>2025-01-28T13:37:27Z</time>
      </trkpt>
      <trkpt lat="47.6202" lon="-2.86959">
        <ele>4.8</ele>
        <time>2025-01-28T13:37:28Z</time>
      </trkpt>
      <trkpt lat="47.62021" lon="-2.86958">
        <ele>4.9</ele>
        <time>2025-01-28T13:37:29Z</time>
      </trkpt>
      <trkpt lat="47.62023" lon="-2.86956">
        <ele>5.2</ele>
        <time>2025-01-28T13:37:30Z</time>
      </trkpt>
      <trkpt lat="47.62024" lon="-2.86955">
        <ele>5.3</ele>
        <time>2025-01-28T13:37:31Z</time>
      </trkpt>
      <trkpt lat="47.62025" lon="-2.86955">
        <ele>5.3</ele>
        <time>2025-01-28T13:37:32Z</time>
      </trkpt>
      <trkpt lat="47.62026" lon="-2.86954">
        <ele>5.4</ele>
        <time>2025-01-28T13:37:33Z</time>
      </trkpt>
      <trkpt lat="47.62027" lon="-2.86953">
        <ele>5.4</ele>
        <time>2025-01-28T13:37:34Z</time>
      </trkpt>
      <trkpt lat="47.62029" lon="-2.86953">
        <ele>6.82</ele>
        <time>2025-01-28T13:37:35Z</time>
      </trkpt>
      <trkpt lat="47.6203" lon="-2.86952">
        <ele>6.52</ele>
        <time>2025-01-28T13:37:36Z</time>
      </trkpt>
      <trkpt lat="47.62031" lon="-2.86951">
        <ele>6.22</ele>
        <time>2025-01-28T13:37:37Z</time>
      </trkpt>
      <trkpt lat="47.62032" lon="-2.86951">
        <ele>6</ele>
        <time>2025-01-28T13:37:38Z</time>
      </trkpt>
      <trkpt lat="47.62034" lon="-2.86951">
        <ele>5.63</ele>
        <time>2025-01-28T13:37:39Z</time>
      </trkpt>
      <trkpt lat="47.62035" lon="-2.86951">
        <ele>5.44</ele>
        <time>2025-01-28T13:37:40Z</time>
      </trkpt>
      <trkpt lat="47.62036" lon="-2.86949">
        <ele>5.2</ele>
        <time>2025-01-28T13:37:41Z</time>
      </trkpt>
      <trkpt lat="47.62037" lon="-2.86948">
        <ele>4.99</ele>
        <time>2025-01-28T13:37:42Z</time>
      </trkpt>
      <trkpt lat="47.62038" lon="-2.86947">
        <ele>4.77</ele>
        <time>2025-01-28T13:37:43Z</time>
      </trkpt>
      <trkpt lat="47.62038" lon="-2.86946">
        <ele>4.71</ele>
        <time>2025-01-28T13:37:44Z</time>
      </trkpt>
      <trkpt lat="47.6204" lon="-2.86946">
        <ele>4.47</ele>
        <time>2025-01-28T13:37:45Z</time>
      </trkpt>
      <trkpt lat="47.6204" lon="-2.86945">
        <ele>4.3</ele>
        <time>2025-01-28T13:37:46Z</time>
      </trkpt>
      <trkpt lat="47.62041" lon="-2.86946">
        <ele>4.06</ele>
        <time>2025-01-28T13:37:47Z</time>
      </trkpt>
      <trkpt lat="47.62043" lon="-2.86945">
        <ele>3.8</ele>
        <time>2025-01-28T13:37:48Z</time>
      </trkpt>
      <trkpt lat="47.62044" lon="-2.86944">
        <ele>3.6</ele>
        <time>2025-01-28T13:37:49Z</time>
      </trkpt>
      <trkpt lat="47.62045" lon="-2.86945">
        <ele>3.28</ele>
        <time>2025-01-28T13:37:50Z</time>
      </trkpt>
      <trkpt lat="47.62046" lon="-2.86945">
        <ele>3</ele>
        <time>2025-01-28T13:37:51Z</time>
      </trkpt>
      <trkpt lat="47.62048" lon="-2.86944">
        <ele>2.9</ele>
        <time>2025-01-28T13:37:52Z</time>
      </trkpt>
      <trkpt lat="47.62049" lon="-2.86943">
        <ele>2.9</ele>
        <time>2025-01-28T13:37:53Z</time>
      </trkpt>
      <trkpt lat="47.6205" lon="-2.86942">
        <ele>2.9</ele>
        <time>2025-01-28T13:37:54Z</time>
      </trkpt>
      <trkpt lat="47.62051" lon="-2.86941">
        <ele>3</ele>
        <time>2025-01-28T13:37:55Z</time>
      </trkpt>
      <trkpt lat="47.62052" lon="-2.8694">
        <ele>2.9</ele>
        <time>2025-01-28T13:37:56Z</time>
      </trkpt>
      <trkpt lat="47.62053" lon="-2.8694">
        <ele>2.8</ele>
        <time>2025-01-28T13:37:57Z</time>
      </trkpt>
      <trkpt lat="47.62054" lon="-2.86939">
        <ele>2.9</ele>
        <time>2025-01-28T13:37:58Z</time>
      </trkpt>
      <trkpt lat="47.62055" lon="-2.86938">
        <ele>2.8</ele>
        <time>2025-01-28T13:37:59Z</time>
      </trkpt>
      <trkpt lat="47.62056" lon="-2.86938">
        <ele>3</ele>
        <time>2025-01-28T13:38:00Z</time>
      </trkpt>
      <trkpt lat="47.62058" lon="-2.86937">
        <ele>3.1</ele>
        <time>2025-01-28T13:38:01Z</time>
      </trkpt>
      <trkpt lat="47.62059" lon="-2.86936">
        <ele>3.2</ele>
        <time>2025-01-28T13:38:02Z</time>
      </trkpt>
      <trkpt lat="47.62061" lon="-2.86936">
        <ele>3.3</ele>
        <time>2025-01-28T13:38:03Z</time>
      </trkpt>
      <trkpt lat="47.62062" lon="-2.86935">
        <ele>3.4</ele>
        <time>2025-01-28T13:38:04Z</time>
      </trkpt>
      <trkpt lat="47.62063" lon="-2.86934">
        <ele>3.6</ele>
        <time>2025-01-28T13:38:05Z</time>
      </trkpt>
      <trkpt lat="47.62064" lon="-2.86934">
        <ele>3.7</ele>
        <time>2025-01-28T13:38:06Z</time>
      </trkpt>
      <trkpt lat="47.62065" lon="-2.86932">
        <ele>4</ele>
        <time>2025-01-28T13:38:07Z</time>
      </trkpt>
      <trkpt lat="47.62066" lon="-2.86931">
        <ele>4.2</ele>
        <time>2025-01-28T13:38:08Z</time>
      </trkpt>
      <trkpt lat="47.62067" lon="-2.8693">
        <ele>4.2</ele>
        <time>2025-01-28T13:38:09Z</time>
      </trkpt>
      <trkpt lat="47.62068" lon="-2.8693">
        <ele>4.3</ele>
        <time>2025-01-28T13:38:10Z</time>
      </trkpt>
      <trkpt lat="47.62069" lon="-2.86929">
        <ele>4.3</ele>
        <time>2025-01-28T13:38:11Z</time>
      </trkpt>
      <trkpt lat="47.62069" lon="-2.86928">
        <ele>4.4</ele>
        <time>2025-01-28T13:38:12Z</time>
      </trkpt>
      <trkpt lat="47.62069" lon="-2.86927">
        <ele>4.6</ele>
        <time>2025-01-28T13:38:13Z</time>
      </trkpt>
      <trkpt lat="47.62069" lon="-2.86925">
        <ele>4.9</ele>
        <time>2025-01-28T13:38:14Z</time>
      </trkpt>
      <trkpt lat="47.6207" lon="-2.86925">
        <ele>5</ele>
        <time>2025-01-28T13:38:15Z</time>
      </trkpt>
      <trkpt lat="47.6207" lon="-2.86924">
        <ele>5.1</ele>
        <time>2025-01-28T13:38:16Z</time>
      </trkpt>
      <trkpt lat="47.6207" lon="-2.86922">
        <ele>5.5</ele>
        <time>2025-01-28T13:38:17Z</time>
      </trkpt>
      <trkpt lat="47.62071" lon="-2.86921">
        <ele>5.6</ele>
        <time>2025-01-28T13:38:18Z</time>
      </trkpt>
      <trkpt lat="47.62071" lon="-2.8692">
        <ele>5.6</ele>
        <time>2025-01-28T13:38:19Z</time>
      </trkpt>
      <trkpt lat="47.62072" lon="-2.8692">
        <ele>5.5</ele>
        <time>2025-01-28T13:38:20Z</time>
      </trkpt>
      <trkpt lat="47.62073" lon="-2.8692">
        <ele>5.3</ele>
        <time>2025-01-28T13:38:21Z</time>
      </trkpt>
      <trkpt lat="47.62074" lon="-2.86922">
        <ele>4.9</ele>
        <time>2025-01-28T13:38:22Z</time>
      </trkpt>
      <trkpt lat="47.62077" lon="-2.86922">
        <ele>4.6</ele>
        <time>2025-01-28T13:38:23Z</time>
      </trkpt>
      <trkpt lat="47.62078" lon="-2.86921">
        <ele>4.5</ele>
        <time>2025-01-28T13:38:24Z</time>
      </trkpt>
      <trkpt lat="47.62079" lon="-2.8692">
        <ele>4.4</ele>
        <time>2025-01-28T13:38:25Z</time>
      </trkpt>
      <trkpt lat="47.62079" lon="-2.86919">
        <ele>4.5</ele>
        <time>2025-01-28T13:38:26Z</time>
      </trkpt>
      <trkpt lat="47.6208" lon="-2.86918">
        <ele>4.5</ele>
        <time>2025-01-28T13:38:27Z</time>
      </trkpt>
      <trkpt lat="47.62081" lon="-2.86917">
        <ele>4.5</ele>
        <time>2025-01-28T13:38:28Z</time>
      </trkpt>
      <trkpt lat="47.62082" lon="-2.86915">
        <ele>4.5</ele>
        <time>2025-01-28T13:38:29Z</time>
      </trkpt>
      <trkpt lat="47.62082" lon="-2.86914">
        <ele>4.5</ele>
        <time>2025-01-28T13:38:30Z</time>
      </trkpt>
      <trkpt lat="47.62083" lon="-2.86913">
        <ele>4.6</ele>
        <time>2025-01-28T13:38:31Z</time>
      </trkpt>
      <trkpt lat="47.62083" lon="-2.86912">
        <ele>4.7</ele>
        <time>2025-01-28T13:38:32Z</time>
      </trkpt>
      <trkpt lat="47.62083" lon="-2.8691">
        <ele>5</ele>
        <time>2025-01-28T13:38:33Z</time>
      </trkpt>
      <trkpt lat="47.62084" lon="-2.86909">
        <ele>5.1</ele>
        <time>2025-01-28T13:38:34Z</time>
      </trkpt>
      <trkpt lat="47.62084" lon="-2.86908">
        <ele>5.1</ele>
        <time>2025-01-28T13:38:35Z</time>
      </trkpt>
      <trkpt lat="47.62085" lon="-2.86908">
        <ele>5.1</ele>
        <time>2025-01-28T13:38:36Z</time>
      </trkpt>
      <trkpt lat="47.62086" lon="-2.86907">
        <ele>5.2</ele>
        <time>2025-01-28T13:38:37Z</time>
      </trkpt>
      <trkpt lat="47.62086" lon="-2.86906">
        <ele>5.2</ele>
        <time>2025-01-28T13:38:38Z</time>
      </trkpt>
      <trkpt lat="47.62087" lon="-2.86906">
        <ele>5.1</ele>
        <time>2025-01-28T13:38:39Z</time>
      </trkpt>
      <trkpt lat="47.62088" lon="-2.86906">
        <ele>5</ele>
        <time>2025-01-28T13:38:40Z</time>
      </trkpt>
      <trkpt lat="47.62089" lon="-2.86905">
        <ele>5</ele>
        <time>2025-01-28T13:38:41Z</time>
      </trkpt>
      <trkpt lat="47.6209" lon="-2.86905">
        <ele>4.9</ele>
        <time>2025-01-28T13:38:42Z</time>
      </trkpt>
      <trkpt lat="47.62091" lon="-2.86905">
        <ele>4.8</ele>
        <time>2025-01-28T13:38:43Z</time>
      </trkpt>
      <trkpt lat="47.62092" lon="-2.86905">
        <ele>4.8</ele>
        <time>2025-01-28T13:38:44Z</time>
      </trkpt>
      <trkpt lat="47.62092" lon="-2.86905">
        <ele>4.7</ele>
        <time>2025-01-28T13:38:45Z</time>
      </trkpt>
      <trkpt lat="47.62093" lon="-2.86905">
        <ele>4.7</ele>
        <time>2025-01-28T13:38:46Z</time>
      </trkpt>
      <trkpt lat="47.62093" lon="-2.86905">
        <ele>4.6</ele>
        <time>2025-01-28T13:38:47Z</time>
      </trkpt>
      <trkpt lat="47.62092" lon="-2.86905">
        <ele>4.7</ele>
        <time>2025-01-28T13:38:48Z</time>
      </trkpt>
      <trkpt lat="47.62092" lon="-2.86905">
        <ele>4.7</ele>
        <time>2025-01-28T13:38:49Z</time>
      </trkpt>
      <trkpt lat="47.62093" lon="-2.86905">
        <ele>4.7</ele>
        <time>2025-01-28T13:38:50Z</time>
      </trkpt>
      <trkpt lat="47.62092" lon="-2.86906">
        <ele>4.6</ele>
        <time>2025-01-28T13:38:51Z</time>
      </trkpt>
      <trkpt lat="47.62092" lon="-2.86906">
        <ele>4.6</ele>
        <time>2025-01-28T13:38:52Z</time>
      </trkpt>
      <trkpt lat="47.62092" lon="-2.86906">
        <ele>4.6</ele>
        <time>2025-01-28T13:38:53Z</time>
      </trkpt>
      <trkpt lat="47.62092" lon="-2.86906">
        <ele>4.6</ele>
        <time>2025-01-28T13:38:54Z</time>
      </trkpt>
      <trkpt lat="47.62092" lon="-2.86906">
        <ele>4.6</ele>
        <time>2025-01-28T13:38:55Z</time>
      </trkpt>
      <trkpt lat="47.62092" lon="-2.86906">
        <ele>4.6</ele>
        <time>2025-01-28T13:38:56Z</time>
      </trkpt>
      <trkpt lat="47.62092" lon="-2.86906">
        <ele>4.6</ele>
        <time>2025-01-28T13:38:57Z</time>
      </trkpt>
      <trkpt lat="47.62092" lon="-2.86906">
        <ele>4.6</ele>
        <time>2025-01-28T13:38:58Z</time>
      </trkpt>
      <trkpt lat="47.62092" lon="-2.86906">
        <ele>4.6</ele>
        <time>2025-01-28T13:38:59Z</time>
      </trkpt>
      <trkpt lat="47.62092" lon="-2.86906">
        <ele>4.6</ele>
        <time>2025-01-28T13:39:00Z</time>
      </trkpt>
      <trkpt lat="47.62092" lon="-2.86906">
        <ele>4.7</ele>
        <time>2025-01-28T13:39:01Z</time>
      </trkpt>
      <trkpt lat="47.62092" lon="-2.86906">
        <ele>4.6</ele>
        <time>2025-01-28T13:39:02Z</time>
      </trkpt>
      <trkpt lat="47.62092" lon="-2.86905">
        <ele>4.7</ele>
        <time>2025-01-28T13:39:03Z</time>
      </trkpt>
      <trkpt lat="47.62092" lon="-2.86904">
        <ele>4.8</ele>
        <time>2025-01-28T13:39:04Z</time>
      </trkpt>
      <trkpt lat="47.62092" lon="-2.86903">
        <ele>5.1</ele>
        <time>2025-01-28T13:39:05Z</time>
      </trkpt>
      <trkpt lat="47.62091" lon="-2.86902">
        <ele>5.3</ele>
        <time>2025-01-28T13:39:06Z</time>
      </trkpt>
      <trkpt lat="47.62091" lon="-2.869">
        <ele>5.6</ele>
        <time>2025-01-28T13:39:07Z</time>
      </trkpt>
      <trkpt lat="47.6209" lon="-2.86899">
        <ele>5.9</ele>
        <time>2025-01-28T13:39:08Z</time>
      </trkpt>
      <trkpt lat="47.6209" lon="-2.86897">
        <ele>6.1</ele>
        <time>2025-01-28T13:39:09Z</time>
      </trkpt>
      <trkpt lat="47.6209" lon="-2.86896">
        <ele>6.3</ele>
        <time>2025-01-28T13:39:10Z</time>
      </trkpt>
      <trkpt lat="47.62089" lon="-2.86895">
        <ele>6.5</ele>
        <time>2025-01-28T13:39:11Z</time>
      </trkpt>
      <trkpt lat="47.62089" lon="-2.86894">
        <ele>6.7</ele>
        <time>2025-01-28T13:39:12Z</time>
      </trkpt>
      <trkpt lat="47.62089" lon="-2.86893">
        <ele>6.9</ele>
        <time>2025-01-28T13:39:13Z</time>
      </trkpt>
      <trkpt lat="47.62088" lon="-2.86892">
        <ele>7.1</ele>
        <time>2025-01-28T13:39:14Z</time>
      </trkpt>
      <trkpt lat="47.62088" lon="-2.86891">
        <ele>7.3</ele>
        <time>2025-01-28T13:39:15Z</time>
      </trkpt>
      <trkpt lat="47.62087" lon="-2.86889">
        <ele>7.5</ele>
        <time>2025-01-28T13:39:16Z</time>
      </trkpt>
      <trkpt lat="47.62088" lon="-2.86888">
        <ele>7.7</ele>
        <time>2025-01-28T13:39:17Z</time>
      </trkpt>
      <trkpt lat="47.62088" lon="-2.86887">
        <ele>7.9</ele>
        <time>2025-01-28T13:39:18Z</time>
      </trkpt>
      <trkpt lat="47.62087" lon="-2.86886">
        <ele>8</ele>
        <time>2025-01-28T13:39:19Z</time>
      </trkpt>
      <trkpt lat="47.62087" lon="-2.86885">
        <ele>8.2</ele>
        <time>2025-01-28T13:39:20Z</time>
      </trkpt>
      <trkpt lat="47.62088" lon="-2.86883">
        <ele>8.3</ele>
        <time>2025-01-28T13:39:21Z</time>
      </trkpt>
      <trkpt lat="47.62089" lon="-2.86882">
        <ele>8.3</ele>
        <time>2025-01-28T13:39:22Z</time>
      </trkpt>
      <trkpt lat="47.6209" lon="-2.86881">
        <ele>8.4</ele>
        <time>2025-01-28T13:39:23Z</time>
      </trkpt>
      <trkpt lat="47.6209" lon="-2.8688">
        <ele>8.5</ele>
        <time>2025-01-28T13:39:24Z</time>
      </trkpt>
      <trkpt lat="47.6209" lon="-2.86879">
        <ele>8.5</ele>
        <time>2025-01-28T13:39:25Z</time>
      </trkpt>
      <trkpt lat="47.62091" lon="-2.86877">
        <ele>8.6</ele>
        <time>2025-01-28T13:39:26Z</time>
      </trkpt>
      <trkpt lat="47.62092" lon="-2.86876">
        <ele>8.6</ele>
        <time>2025-01-28T13:39:27Z</time>
      </trkpt>
      <trkpt lat="47.62093" lon="-2.86875">
        <ele>8.6</ele>
        <time>2025-01-28T13:39:28Z</time>
      </trkpt>
      <trkpt lat="47.62094" lon="-2.86874">
        <ele>8.5</ele>
        <time>2025-01-28T13:39:29Z</time>
      </trkpt>
      <trkpt lat="47.62094" lon="-2.86874">
        <ele>8.6</ele>
        <time>2025-01-28T13:39:30Z</time>
      </trkpt>
      <trkpt lat="47.62094" lon="-2.86873">
        <ele>8.7</ele>
        <time>2025-01-28T13:39:31Z</time>
      </trkpt>
      <trkpt lat="47.62094" lon="-2.86871">
        <ele>9</ele>
        <time>2025-01-28T13:39:32Z</time>
      </trkpt>
      <trkpt lat="47.62094" lon="-2.86869">
        <ele>9.2</ele>
        <time>2025-01-28T13:39:33Z</time>
      </trkpt>
      <trkpt lat="47.62095" lon="-2.86867">
        <ele>9.3</ele>
        <time>2025-01-28T13:39:34Z</time>
      </trkpt>
      <trkpt lat="47.62095" lon="-2.86866">
        <ele>9.3</ele>
        <time>2025-01-28T13:39:35Z</time>
      </trkpt>
      <trkpt lat="47.62096" lon="-2.86864">
        <ele>9.4</ele>
        <time>2025-01-28T13:39:36Z</time>
      </trkpt>
      <trkpt lat="47.62096" lon="-2.86863">
        <ele>9.4</ele>
        <time>2025-01-28T13:39:37Z</time>
      </trkpt>
      <trkpt lat="47.62097" lon="-2.86862">
        <ele>9.4</ele>
        <time>2025-01-28T13:39:38Z</time>
      </trkpt>
      <trkpt lat="47.62098" lon="-2.86861">
        <ele>9.3</ele>
        <time>2025-01-28T13:39:39Z</time>
      </trkpt>
      <trkpt lat="47.621" lon="-2.86859">
        <ele>9.1</ele>
        <time>2025-01-28T13:39:40Z</time>
      </trkpt>
      <trkpt lat="47.62102" lon="-2.86858">
        <ele>9.1</ele>
        <time>2025-01-28T13:39:41Z</time>
      </trkpt>
      <trkpt lat="47.62103" lon="-2.86856">
        <ele>9</ele>
        <time>2025-01-28T13:39:42Z</time>
      </trkpt>
      <trkpt lat="47.62104" lon="-2.86855">
        <ele>9.1</ele>
        <time>2025-01-28T13:39:43Z</time>
      </trkpt>
      <trkpt lat="47.62104" lon="-2.86853">
        <ele>9.2</ele>
        <time>2025-01-28T13:39:44Z</time>
      </trkpt>
      <trkpt lat="47.62105" lon="-2.86852">
        <ele>9.2</ele>
        <time>2025-01-28T13:39:45Z</time>
      </trkpt>
      <trkpt lat="47.62107" lon="-2.86851">
        <ele>9.1</ele>
        <time>2025-01-28T13:39:46Z</time>
      </trkpt>
      <trkpt lat="47.62108" lon="-2.8685">
        <ele>9</ele>
        <time>2025-01-28T13:39:47Z</time>
      </trkpt>
      <trkpt lat="47.62109" lon="-2.86849">
        <ele>9.1</ele>
        <time>2025-01-28T13:39:48Z</time>
      </trkpt>
      <trkpt lat="47.62109" lon="-2.86847">
        <ele>9.2</ele>
        <time>2025-01-28T13:39:49Z</time>
      </trkpt>
      <trkpt lat="47.6211" lon="-2.86846">
        <ele>9.3</ele>
        <time>2025-01-28T13:39:50Z</time>
      </trkpt>
      <trkpt lat="47.6211" lon="-2.86844">
        <ele>9.6</ele>
        <time>2025-01-28T13:39:51Z</time>
      </trkpt>
      <trkpt lat="47.6211" lon="-2.86842">
        <ele>9.9</ele>
        <time>2025-01-28T13:39:52Z</time>
      </trkpt>
      <trkpt lat="47.6211" lon="-2.86841">
        <ele>10</ele>
        <time>2025-01-28T13:39:53Z</time>
      </trkpt>
      <trkpt lat="47.62112" lon="-2.86839">
        <ele>10.2</ele>
        <time>2025-01-28T13:39:54Z</time>
      </trkpt>
      <trkpt lat="47.62113" lon="-2.86838">
        <ele>10.2</ele>
        <time>2025-01-28T13:39:55Z</time>
      </trkpt>
      <trkpt lat="47.62114" lon="-2.86836">
        <ele>10.3</ele>
        <time>2025-01-28T13:39:56Z</time>
      </trkpt>
      <trkpt lat="47.62114" lon="-2.86835">
        <ele>10.5</ele>
        <time>2025-01-28T13:39:57Z</time>
      </trkpt>
      <trkpt lat="47.62115" lon="-2.86833">
        <ele>10.6</ele>
        <time>2025-01-28T13:39:58Z</time>
      </trkpt>
      <trkpt lat="47.62116" lon="-2.86831">
        <ele>10.6</ele>
        <time>2025-01-28T13:39:59Z</time>
      </trkpt>
      <trkpt lat="47.62116" lon="-2.8683">
        <ele>10.7</ele>
        <time>2025-01-28T13:40:00Z</time>
      </trkpt>
      <trkpt lat="47.62117" lon="-2.86829">
        <ele>10.7</ele>
        <time>2025-01-28T13:40:01Z</time>
      </trkpt>
      <trkpt lat="47.62117" lon="-2.86827">
        <ele>10.8</ele>
        <time>2025-01-28T13:40:02Z</time>
      </trkpt>
      <trkpt lat="47.62118" lon="-2.86826">
        <ele>10.9</ele>
        <time>2025-01-28T13:40:03Z</time>
      </trkpt>
      <trkpt lat="47.62117" lon="-2.86824">
        <ele>11</ele>
        <time>2025-01-28T13:40:04Z</time>
      </trkpt>
      <trkpt lat="47.62118" lon="-2.86822">
        <ele>11</ele>
        <time>2025-01-28T13:40:05Z</time>
      </trkpt>
      <trkpt lat="47.62119" lon="-2.86821">
        <ele>11.1</ele>
        <time>2025-01-28T13:40:06Z</time>
      </trkpt>
      <trkpt lat="47.62119" lon="-2.86819">
        <ele>11.1</ele>
        <time>2025-01-28T13:40:07Z</time>
      </trkpt>
      <trkpt lat="47.6212" lon="-2.86819">
        <ele>11.1</ele>
        <time>2025-01-28T13:40:08Z</time>
      </trkpt>
      <trkpt lat="47.6212" lon="-2.86817">
        <ele>11.2</ele>
        <time>2025-01-28T13:40:09Z</time>
      </trkpt>
      <trkpt lat="47.62121" lon="-2.86815">
        <ele>11.3</ele>
        <time>2025-01-28T13:40:10Z</time>
      </trkpt>
      <trkpt lat="47.62121" lon="-2.86814">
        <ele>11.3</ele>
        <time>2025-01-28T13:40:11Z</time>
      </trkpt>
      <trkpt lat="47.62122" lon="-2.86813">
        <ele>11.3</ele>
        <time>2025-01-28T13:40:12Z</time>
      </trkpt>
      <trkpt lat="47.62123" lon="-2.86813">
        <ele>11.2</ele>
        <time>2025-01-28T13:40:13Z</time>
      </trkpt>
      <trkpt lat="47.62123" lon="-2.86812">
        <ele>11.3</ele>
        <time>2025-01-28T13:40:14Z</time>
      </trkpt>
      <trkpt lat="47.62124" lon="-2.8681">
        <ele>11.3</ele>
        <time>2025-01-28T13:40:15Z</time>
      </trkpt>
      <trkpt lat="47.62124" lon="-2.86809">
        <ele>11.3</ele>
        <time>2025-01-28T13:40:16Z</time>
      </trkpt>
      <trkpt lat="47.62124" lon="-2.86808">
        <ele>11.4</ele>
        <time>2025-01-28T13:40:17Z</time>
      </trkpt>
      <trkpt lat="47.62124" lon="-2.8681">
        <ele>11.3</ele>
        <time>2025-01-28T13:40:18Z</time>
      </trkpt>
      <trkpt lat="47.62124" lon="-2.86808">
        <ele>11.4</ele>
        <time>2025-01-28T13:40:19Z</time>
      </trkpt>
      <trkpt lat="47.62125" lon="-2.86807">
        <ele>11.4</ele>
        <time>2025-01-28T13:40:20Z</time>
      </trkpt>
      <trkpt lat="47.62125" lon="-2.86807">
        <ele>11.4</ele>
        <time>2025-01-28T13:40:21Z</time>
      </trkpt>
      <trkpt lat="47.62125" lon="-2.86807">
        <ele>11.5</ele>
        <time>2025-01-28T13:40:22Z</time>
      </trkpt>
      <trkpt lat="47.62125" lon="-2.86807">
        <ele>11.5</ele>
        <time>2025-01-28T13:40:23Z</time>
      </trkpt>
      <trkpt lat="47.62125" lon="-2.86807">
        <ele>11.4</ele>
        <time>2025-01-28T13:40:24Z</time>
      </trkpt>
      <trkpt lat="47.62125" lon="-2.86806">
        <ele>11.4</ele>
        <time>2025-01-28T13:40:25Z</time>
      </trkpt>
      <trkpt lat="47.62125" lon="-2.86806">
        <ele>11.5</ele>
        <time>2025-01-28T13:40:26Z</time>
      </trkpt>
      <trkpt lat="47.62126" lon="-2.86804">
        <ele>11.5</ele>
        <time>2025-01-28T13:40:27Z</time>
      </trkpt>
      <trkpt lat="47.62126" lon="-2.86802">
        <ele>11.6</ele>
        <time>2025-01-28T13:40:28Z</time>
      </trkpt>
      <trkpt lat="47.62126" lon="-2.868">
        <ele>11.8</ele>
        <time>2025-01-28T13:40:29Z</time>
      </trkpt>
      <trkpt lat="47.62125" lon="-2.86799">
        <ele>11.8</ele>
        <time>2025-01-28T13:40:30Z</time>
      </trkpt>
      <trkpt lat="47.62125" lon="-2.86798">
        <ele>11.9</ele>
        <time>2025-01-28T13:40:31Z</time>
      </trkpt>
      <trkpt lat="47.62125" lon="-2.86797">
        <ele>12</ele>
        <time>2025-01-28T13:40:32Z</time>
      </trkpt>
      <trkpt lat="47.62125" lon="-2.86795">
        <ele>12.1</ele>
        <time>2025-01-28T13:40:33Z</time>
      </trkpt>
      <trkpt lat="47.62125" lon="-2.86794">
        <ele>12.2</ele>
        <time>2025-01-28T13:40:34Z</time>
      </trkpt>
      <trkpt lat="47.62125" lon="-2.86792">
        <ele>12.2</ele>
        <time>2025-01-28T13:40:35Z</time>
      </trkpt>
      <trkpt lat="47.62125" lon="-2.86791">
        <ele>12.3</ele>
        <time>2025-01-28T13:40:36Z</time>
      </trkpt>
      <trkpt lat="47.62126" lon="-2.86789">
        <ele>12.4</ele>
        <time>2025-01-28T13:40:37Z</time>
      </trkpt>
      <trkpt lat="47.62127" lon="-2.86787">
        <ele>12.4</ele>
        <time>2025-01-28T13:40:38Z</time>
      </trkpt>
      <trkpt lat="47.62127" lon="-2.86786">
        <ele>12.4</ele>
        <time>2025-01-28T13:40:39Z</time>
      </trkpt>
      <trkpt lat="47.62127" lon="-2.86784">
        <ele>12.5</ele>
        <time>2025-01-28T13:40:40Z</time>
      </trkpt>
      <trkpt lat="47.62126" lon="-2.86782">
        <ele>12.7</ele>
        <time>2025-01-28T13:40:41Z</time>
      </trkpt>
      <trkpt lat="47.62126" lon="-2.8678">
        <ele>12.8</ele>
        <time>2025-01-28T13:40:42Z</time>
      </trkpt>
      <trkpt lat="47.62126" lon="-2.86778">
        <ele>12.9</ele>
        <time>2025-01-28T13:40:43Z</time>
      </trkpt>
      <trkpt lat="47.62126" lon="-2.86776">
        <ele>12.9</ele>
        <time>2025-01-28T13:40:44Z</time>
      </trkpt>
      <trkpt lat="47.62126" lon="-2.86774">
        <ele>12.9</ele>
        <time>2025-01-28T13:40:45Z</time>
      </trkpt>
      <trkpt lat="47.62127" lon="-2.86772">
        <ele>12.9</ele>
        <time>2025-01-28T13:40:46Z</time>
      </trkpt>
      <trkpt lat="47.62127" lon="-2.86771">
        <ele>12.9</ele>
        <time>2025-01-28T13:40:47Z</time>
      </trkpt>
      <trkpt lat="47.62127" lon="-2.86769">
        <ele>12.9</ele>
        <time>2025-01-28T13:40:48Z</time>
      </trkpt>
      <trkpt lat="47.62126" lon="-2.86768">
        <ele>12.9</ele>
        <time>2025-01-28T13:40:49Z</time>
      </trkpt>
      <trkpt lat="47.62126" lon="-2.86766">
        <ele>12.9</ele>
        <time>2025-01-28T13:40:50Z</time>
      </trkpt>
      <trkpt lat="47.62127" lon="-2.86765">
        <ele>12.9</ele>
        <time>2025-01-28T13:40:51Z</time>
      </trkpt>
      <trkpt lat="47.62126" lon="-2.86763">
        <ele>12.9</ele>
        <time>2025-01-28T13:40:52Z</time>
      </trkpt>
      <trkpt lat="47.62127" lon="-2.86762">
        <ele>12.9</ele>
        <time>2025-01-28T13:40:53Z</time>
      </trkpt>
      <trkpt lat="47.62127" lon="-2.86761">
        <ele>12.9</ele>
        <time>2025-01-28T13:40:54Z</time>
      </trkpt>
      <trkpt lat="47.62126" lon="-2.86759">
        <ele>12.9</ele>
        <time>2025-01-28T13:40:55Z</time>
      </trkpt>
      <trkpt lat="47.62125" lon="-2.86757">
        <ele>13</ele>
        <time>2025-01-28T13:40:56Z</time>
      </trkpt>
      <trkpt lat="47.62125" lon="-2.86756">
        <ele>13</ele>
        <time>2025-01-28T13:40:57Z</time>
      </trkpt>
      <trkpt lat="47.62124" lon="-2.86754">
        <ele>13</ele>
        <time>2025-01-28T13:40:58Z</time>
      </trkpt>
      <trkpt lat="47.62124" lon="-2.86752">
        <ele>13.1</ele>
        <time>2025-01-28T13:40:59Z</time>
      </trkpt>
      <trkpt lat="47.62123" lon="-2.8675">
        <ele>13.1</ele>
        <time>2025-01-28T13:41:00Z</time>
      </trkpt>
      <trkpt lat="47.62123" lon="-2.86748">
        <ele>13.1</ele>
        <time>2025-01-28T13:41:01Z</time>
      </trkpt>
      <trkpt lat="47.62123" lon="-2.86747">
        <ele>13</ele>
        <time>2025-01-28T13:41:02Z</time>
      </trkpt>
      <trkpt lat="47.62122" lon="-2.86745">
        <ele>13</ele>
        <time>2025-01-28T13:41:03Z</time>
      </trkpt>
      <trkpt lat="47.62122" lon="-2.86743">
        <ele>12.9</ele>
        <time>2025-01-28T13:41:04Z</time>
      </trkpt>
      <trkpt lat="47.62122" lon="-2.86742">
        <ele>12.8</ele>
        <time>2025-01-28T13:41:05Z</time>
      </trkpt>
      <trkpt lat="47.62122" lon="-2.8674">
        <ele>12.8</ele>
        <time>2025-01-28T13:41:06Z</time>
      </trkpt>
      <trkpt lat="47.62121" lon="-2.86738">
        <ele>12.7</ele>
        <time>2025-01-28T13:41:07Z</time>
      </trkpt>
      <trkpt lat="47.62121" lon="-2.86736">
        <ele>12.7</ele>
        <time>2025-01-28T13:41:08Z</time>
      </trkpt>
      <trkpt lat="47.62121" lon="-2.86735">
        <ele>12.6</ele>
        <time>2025-01-28T13:41:09Z</time>
      </trkpt>
      <trkpt lat="47.62121" lon="-2.86733">
        <ele>12.5</ele>
        <time>2025-01-28T13:41:10Z</time>
      </trkpt>
      <trkpt lat="47.62121" lon="-2.86731">
        <ele>12.4</ele>
        <time>2025-01-28T13:41:11Z</time>
      </trkpt>
      <trkpt lat="47.6212" lon="-2.86729">
        <ele>12.3</ele>
        <time>2025-01-28T13:41:12Z</time>
      </trkpt>
      <trkpt lat="47.6212" lon="-2.86728">
        <ele>12.3</ele>
        <time>2025-01-28T13:41:13Z</time>
      </trkpt>
      <trkpt lat="47.6212" lon="-2.86726">
        <ele>12.2</ele>
        <time>2025-01-28T13:41:14Z</time>
      </trkpt>
      <trkpt lat="47.62119" lon="-2.86724">
        <ele>12.1</ele>
        <time>2025-01-28T13:41:15Z</time>
      </trkpt>
      <trkpt lat="47.62119" lon="-2.86722">
        <ele>12</ele>
        <time>2025-01-28T13:41:16Z</time>
      </trkpt>
      <trkpt lat="47.62119" lon="-2.8672">
        <ele>12</ele>
        <time>2025-01-28T13:41:17Z</time>
      </trkpt>
      <trkpt lat="47.62119" lon="-2.86719">
        <ele>12</ele>
        <time>2025-01-28T13:41:18Z</time>
      </trkpt>
      <trkpt lat="47.62119" lon="-2.86717">
        <ele>12</ele>
        <time>2025-01-28T13:41:19Z</time>
      </trkpt>
      <trkpt lat="47.6212" lon="-2.86715">
        <ele>12</ele>
        <time>2025-01-28T13:41:20Z</time>
      </trkpt>
      <trkpt lat="47.6212" lon="-2.86713">
        <ele>12</ele>
        <time>2025-01-28T13:41:21Z</time>
      </trkpt>
      <trkpt lat="47.6212" lon="-2.86712">
        <ele>12</ele>
        <time>2025-01-28T13:41:22Z</time>
      </trkpt>
      <trkpt lat="47.62121" lon="-2.8671">
        <ele>12</ele>
        <time>2025-01-28T13:41:23Z</time>
      </trkpt>
      <trkpt lat="47.62122" lon="-2.86709">
        <ele>12</ele>
        <time>2025-01-28T13:41:24Z</time>
      </trkpt>
      <trkpt lat="47.62122" lon="-2.86708">
        <ele>12</ele>
        <time>2025-01-28T13:41:25Z</time>
      </trkpt>
      <trkpt lat="47.62123" lon="-2.86706">
        <ele>12</ele>
        <time>2025-01-28T13:41:26Z</time>
      </trkpt>
      <trkpt lat="47.62123" lon="-2.86704">
        <ele>12</ele>
        <time>2025-01-28T13:41:27Z</time>
      </trkpt>
      <trkpt lat="47.62124" lon="-2.86702">
        <ele>12</ele>
        <time>2025-01-28T13:41:28Z</time>
      </trkpt>
      <trkpt lat="47.62124" lon="-2.86701">
        <ele>12</ele>
        <time>2025-01-28T13:41:29Z</time>
      </trkpt>
      <trkpt lat="47.62125" lon="-2.86699">
        <ele>12</ele>
        <time>2025-01-28T13:41:30Z</time>
      </trkpt>
      <trkpt lat="47.62126" lon="-2.86698">
        <ele>12</ele>
        <time>2025-01-28T13:41:31Z</time>
      </trkpt>
      <trkpt lat="47.62127" lon="-2.86696">
        <ele>12</ele>
        <time>2025-01-28T13:41:32Z</time>
      </trkpt>
      <trkpt lat="47.62127" lon="-2.86695">
        <ele>12</ele>
        <time>2025-01-28T13:41:33Z</time>
      </trkpt>
      <trkpt lat="47.62128" lon="-2.86693">
        <ele>11.9</ele>
        <time>2025-01-28T13:41:34Z</time>
      </trkpt>
      <trkpt lat="47.62128" lon="-2.86691">
        <ele>11.9</ele>
        <time>2025-01-28T13:41:35Z</time>
      </trkpt>
      <trkpt lat="47.62129" lon="-2.86689">
        <ele>11.8</ele>
        <time>2025-01-28T13:41:36Z</time>
      </trkpt>
      <trkpt lat="47.6213" lon="-2.86687">
        <ele>11.7</ele>
        <time>2025-01-28T13:41:37Z</time>
      </trkpt>
      <trkpt lat="47.62131" lon="-2.86686">
        <ele>11.7</ele>
        <time>2025-01-28T13:41:38Z</time>
      </trkpt>
      <trkpt lat="47.62132" lon="-2.86685">
        <ele>11.6</ele>
        <time>2025-01-28T13:41:39Z</time>
      </trkpt>
      <trkpt lat="47.62133" lon="-2.86684">
        <ele>11.6</ele>
        <time>2025-01-28T13:41:40Z</time>
      </trkpt>
      <trkpt lat="47.62134" lon="-2.86682">
        <ele>11.5</ele>
        <time>2025-01-28T13:41:41Z</time>
      </trkpt>
      <trkpt lat="47.62134" lon="-2.8668">
        <ele>11.5</ele>
        <time>2025-01-28T13:41:42Z</time>
      </trkpt>
      <trkpt lat="47.62135" lon="-2.86679">
        <ele>11.4</ele>
        <time>2025-01-28T13:41:43Z</time>
      </trkpt>
      <trkpt lat="47.62136" lon="-2.86677">
        <ele>11.4</ele>
        <time>2025-01-28T13:41:44Z</time>
      </trkpt>
      <trkpt lat="47.62137" lon="-2.86676">
        <ele>11.3</ele>
        <time>2025-01-28T13:41:45Z</time>
      </trkpt>
      <trkpt lat="47.62138" lon="-2.86674">
        <ele>11.3</ele>
        <time>2025-01-28T13:41:46Z</time>
      </trkpt>
      <trkpt lat="47.62138" lon="-2.86672">
        <ele>11.2</ele>
        <time>2025-01-28T13:41:47Z</time>
      </trkpt>
      <trkpt lat="47.62138" lon="-2.8667">
        <ele>11.1</ele>
        <time>2025-01-28T13:41:48Z</time>
      </trkpt>
      <trkpt lat="47.62138" lon="-2.86669">
        <ele>11.1</ele>
        <time>2025-01-28T13:41:49Z</time>
      </trkpt>
      <trkpt lat="47.62138" lon="-2.86667">
        <ele>11</ele>
        <time>2025-01-28T13:41:50Z</time>
      </trkpt>
      <trkpt lat="47.62138" lon="-2.86665">
        <ele>10.9</ele>
        <time>2025-01-28T13:41:51Z</time>
      </trkpt>
      <trkpt lat="47.62138" lon="-2.86663">
        <ele>10.9</ele>
        <time>2025-01-28T13:41:52Z</time>
      </trkpt>
      <trkpt lat="47.62138" lon="-2.86662">
        <ele>10.8</ele>
        <time>2025-01-28T13:41:53Z</time>
      </trkpt>
      <trkpt lat="47.62138" lon="-2.8666">
        <ele>10.7</ele>
        <time>2025-01-28T13:41:54Z</time>
      </trkpt>
      <trkpt lat="47.62138" lon="-2.86658">
        <ele>10.7</ele>
        <time>2025-01-28T13:41:55Z</time>
      </trkpt>
      <trkpt lat="47.62138" lon="-2.86656">
        <ele>10.6</ele>
        <time>2025-01-28T13:41:56Z</time>
      </trkpt>
      <trkpt lat="47.62137" lon="-2.86654">
        <ele>10.5</ele>
        <time>2025-01-28T13:41:57Z</time>
      </trkpt>
      <trkpt lat="47.62137" lon="-2.86652">
        <ele>10.4</ele>
        <time>2025-01-28T13:41:58Z</time>
      </trkpt>
      <trkpt lat="47.62137" lon="-2.86651">
        <ele>10.4</ele>
        <time>2025-01-28T13:41:59Z</time>
      </trkpt>
      <trkpt lat="47.62136" lon="-2.86649">
        <ele>10.3</ele>
        <time>2025-01-28T13:42:00Z</time>
      </trkpt>
      <trkpt lat="47.62136" lon="-2.86647">
        <ele>10.2</ele>
        <time>2025-01-28T13:42:01Z</time>
      </trkpt>
      <trkpt lat="47.62136" lon="-2.86646">
        <ele>10.2</ele>
        <time>2025-01-28T13:42:02Z</time>
      </trkpt>
      <trkpt lat="47.62136" lon="-2.86644">
        <ele>10.1</ele>
        <time>2025-01-28T13:42:03Z</time>
      </trkpt>
      <trkpt lat="47.62135" lon="-2.86642">
        <ele>10</ele>
        <time>2025-01-28T13:42:04Z</time>
      </trkpt>
      <trkpt lat="47.62135" lon="-2.8664">
        <ele>9.9</ele>
        <time>2025-01-28T13:42:05Z</time>
      </trkpt>
      <trkpt lat="47.62135" lon="-2.86638">
        <ele>9.8</ele>
        <time>2025-01-28T13:42:06Z</time>
      </trkpt>
      <trkpt lat="47.62135" lon="-2.86636">
        <ele>9.7</ele>
        <time>2025-01-28T13:42:07Z</time>
      </trkpt>
      <trkpt lat="47.62134" lon="-2.86634">
        <ele>9.7</ele>
        <time>2025-01-28T13:42:08Z</time>
      </trkpt>
      <trkpt lat="47.62134" lon="-2.86632">
        <ele>9.6</ele>
        <time>2025-01-28T13:42:09Z</time>
      </trkpt>
      <trkpt lat="47.62134" lon="-2.8663">
        <ele>9.6</ele>
        <time>2025-01-28T13:42:10Z</time>
      </trkpt>
      <trkpt lat="47.62134" lon="-2.86628">
        <ele>9.5</ele>
        <time>2025-01-28T13:42:11Z</time>
      </trkpt>
      <trkpt lat="47.62134" lon="-2.86626">
        <ele>9.4</ele>
        <time>2025-01-28T13:42:12Z</time>
      </trkpt>
      <trkpt lat="47.62134" lon="-2.86624">
        <ele>9.4</ele>
        <time>2025-01-28T13:42:13Z</time>
      </trkpt>
      <trkpt lat="47.62134" lon="-2.86622">
        <ele>9.3</ele>
        <time>2025-01-28T13:42:14Z</time>
      </trkpt>
      <trkpt lat="47.62134" lon="-2.8662">
        <ele>9.3</ele>
        <time>2025-01-28T13:42:15Z</time>
      </trkpt>
      <trkpt lat="47.62134" lon="-2.86618">
        <ele>9.2</ele>
        <time>2025-01-28T13:42:16Z</time>
      </trkpt>
      <trkpt lat="47.62133" lon="-2.86616">
        <ele>9.1</ele>
        <time>2025-01-28T13:42:17Z</time>
      </trkpt>
      <trkpt lat="47.62133" lon="-2.86615">
        <ele>9.1</ele>
        <time>2025-01-28T13:42:18Z</time>
      </trkpt>
      <trkpt lat="47.62133" lon="-2.86613">
        <ele>9</ele>
        <time>2025-01-28T13:42:19Z</time>
      </trkpt>
      <trkpt lat="47.62133" lon="-2.86611">
        <ele>9</ele>
        <time>2025-01-28T13:42:20Z</time>
      </trkpt>
      <trkpt lat="47.62133" lon="-2.86609">
        <ele>9</ele>
        <time>2025-01-28T13:42:21Z</time>
      </trkpt>
      <trkpt lat="47.62133" lon="-2.86607">
        <ele>9</ele>
        <time>2025-01-28T13:42:22Z</time>
      </trkpt>
      <trkpt lat="47.62133" lon="-2.86606">
        <ele>9</ele>
        <time>2025-01-28T13:42:23Z</time>
      </trkpt>
      <trkpt lat="47.62132" lon="-2.86604">
        <ele>8.9</ele>
        <time>2025-01-28T13:42:24Z</time>
      </trkpt>
      <trkpt lat="47.62132" lon="-2.86602">
        <ele>8.9</ele>
        <time>2025-01-28T13:42:25Z</time>
      </trkpt>
      <trkpt lat="47.62132" lon="-2.866">
        <ele>8.9</ele>
        <time>2025-01-28T13:42:26Z</time>
      </trkpt>
      <trkpt lat="47.62132" lon="-2.86598">
        <ele>8.9</ele>
        <time>2025-01-28T13:42:27Z</time>
      </trkpt>
      <trkpt lat="47.62132" lon="-2.86596">
        <ele>8.9</ele>
        <time>2025-01-28T13:42:28Z</time>
      </trkpt>
      <trkpt lat="47.62132" lon="-2.86594">
        <ele>8.8</ele>
        <time>2025-01-28T13:42:29Z</time>
      </trkpt>
      <trkpt lat="47.62132" lon="-2.86592">
        <ele>8.8</ele>
        <time>2025-01-28T13:42:30Z</time>
      </trkpt>
      <trkpt lat="47.62131" lon="-2.86591">
        <ele>8.8</ele>
        <time>2025-01-28T13:42:31Z</time>
      </trkpt>
      <trkpt lat="47.62131" lon="-2.86589">
        <ele>8.8</ele>
        <time>2025-01-28T13:42:32Z</time>
      </trkpt>
      <trkpt lat="47.62131" lon="-2.86587">
        <ele>8.7</ele>
        <time>2025-01-28T13:42:33Z</time>
      </trkpt>
      <trkpt lat="47.62131" lon="-2.86585">
        <ele>8.7</ele>
        <time>2025-01-28T13:42:34Z</time>
      </trkpt>
      <trkpt lat="47.62131" lon="-2.86583">
        <ele>8.7</ele>
        <time>2025-01-28T13:42:35Z</time>
      </trkpt>
      <trkpt lat="47.62131" lon="-2.86581">
        <ele>8.7</ele>
        <time>2025-01-28T13:42:36Z</time>
      </trkpt>
      <trkpt lat="47.62131" lon="-2.86579">
        <ele>8.7</ele>
        <time>2025-01-28T13:42:37Z</time>
      </trkpt>
      <trkpt lat="47.6213" lon="-2.86578">
        <ele>8.6</ele>
        <time>2025-01-28T13:42:38Z</time>
      </trkpt>
      <trkpt lat="47.6213" lon="-2.86576">
        <ele>8.6</ele>
        <time>2025-01-28T13:42:39Z</time>
      </trkpt>
      <trkpt lat="47.6213" lon="-2.86574">
        <ele>8.6</ele>
        <time>2025-01-28T13:42:40Z</time>
      </trkpt>
      <trkpt lat="47.6213" lon="-2.86572">
        <ele>8.5</ele>
        <time>2025-01-28T13:42:41Z</time>
      </trkpt>
      <trkpt lat="47.6213" lon="-2.86571">
        <ele>8.5</ele>
        <time>2025-01-28T13:42:42Z</time>
      </trkpt>
      <trkpt lat="47.6213" lon="-2.86569">
        <ele>8.5</ele>
        <time>2025-01-28T13:42:43Z</time>
      </trkpt>
      <trkpt lat="47.62129" lon="-2.86567">
        <ele>8.5</ele>
        <time>2025-01-28T13:42:44Z</time>
      </trkpt>
      <trkpt lat="47.62129" lon="-2.86566">
        <ele>8.4</ele>
        <time>2025-01-28T13:42:45Z</time>
      </trkpt>
      <trkpt lat="47.62129" lon="-2.86564">
        <ele>8.4</ele>
        <time>2025-01-28T13:42:46Z</time>
      </trkpt>
      <trkpt lat="47.62129" lon="-2.86562">
        <ele>8.4</ele>
        <time>2025-01-28T13:42:47Z</time>
      </trkpt>
      <trkpt lat="47.62129" lon="-2.8656">
        <ele>8.3</ele>
        <time>2025-01-28T13:42:48Z</time>
      </trkpt>
      <trkpt lat="47.62129" lon="-2.86558">
        <ele>8.3</ele>
        <time>2025-01-28T13:42:49Z</time>
      </trkpt>
      <trkpt lat="47.62129" lon="-2.86556">
        <ele>8.3</ele>
        <time>2025-01-28T13:42:50Z</time>
      </trkpt>
      <trkpt lat="47.62129" lon="-2.86555">
        <ele>8.2</ele>
        <time>2025-01-28T13:42:51Z</time>
      </trkpt>
      <trkpt lat="47.62129" lon="-2.86553">
        <ele>8.1</ele>
        <time>2025-01-28T13:42:52Z</time>
      </trkpt>
      <trkpt lat="47.62128" lon="-2.86551">
        <ele>8.1</ele>
        <time>2025-01-28T13:42:53Z</time>
      </trkpt>
      <trkpt lat="47.62128" lon="-2.86549">
        <ele>8</ele>
        <time>2025-01-28T13:42:54Z</time>
      </trkpt>
      <trkpt lat="47.62128" lon="-2.86547">
        <ele>7.9</ele>
        <time>2025-01-28T13:42:55Z</time>
      </trkpt>
      <trkpt lat="47.62128" lon="-2.86546">
        <ele>7.8</ele>
        <time>2025-01-28T13:42:56Z</time>
      </trkpt>
      <trkpt lat="47.62128" lon="-2.86544">
        <ele>7.8</ele>
        <time>2025-01-28T13:42:57Z</time>
      </trkpt>
      <trkpt lat="47.62128" lon="-2.86542">
        <ele>7.7</ele>
        <time>2025-01-28T13:42:58Z</time>
      </trkpt>
      <trkpt lat="47.62128" lon="-2.86541">
        <ele>7.7</ele>
        <time>2025-01-28T13:42:59Z</time>
      </trkpt>
      <trkpt lat="47.62128" lon="-2.86539">
        <ele>7.6</ele>
        <time>2025-01-28T13:43:00Z</time>
      </trkpt>
      <trkpt lat="47.62128" lon="-2.86537">
        <ele>7.5</ele>
        <time>2025-01-28T13:43:01Z</time>
      </trkpt>
      <trkpt lat="47.62128" lon="-2.86536">
        <ele>7.5</ele>
        <time>2025-01-28T13:43:02Z</time>
      </trkpt>
      <trkpt lat="47.62127" lon="-2.86534">
        <ele>7.4</ele>
        <time>2025-01-28T13:43:03Z</time>
      </trkpt>
      <trkpt lat="47.62127" lon="-2.86532">
        <ele>7.3</ele>
        <time>2025-01-28T13:43:04Z</time>
      </trkpt>
      <trkpt lat="47.62127" lon="-2.8653">
        <ele>7.2</ele>
        <time>2025-01-28T13:43:05Z</time>
      </trkpt>
      <trkpt lat="47.62127" lon="-2.86529">
        <ele>7.2</ele>
        <time>2025-01-28T13:43:06Z</time>
      </trkpt>
      <trkpt lat="47.62127" lon="-2.86527">
        <ele>7.1</ele>
        <time>2025-01-28T13:43:07Z</time>
      </trkpt>
      <trkpt lat="47.62127" lon="-2.86525">
        <ele>7</ele>
        <time>2025-01-28T13:43:08Z</time>
      </trkpt>
      <trkpt lat="47.62127" lon="-2.86524">
        <ele>7</ele>
        <time>2025-01-28T13:43:09Z</time>
      </trkpt>
      <trkpt lat="47.62127" lon="-2.86522">
        <ele>6.9</ele>
        <time>2025-01-28T13:43:10Z</time>
      </trkpt>
      <trkpt lat="47.62127" lon="-2.8652">
        <ele>6.8</ele>
        <time>2025-01-28T13:43:11Z</time>
      </trkpt>
      <trkpt lat="47.62127" lon="-2.86518">
        <ele>6.8</ele>
        <time>2025-01-28T13:43:12Z</time>
      </trkpt>
      <trkpt lat="47.62126" lon="-2.86516">
        <ele>6.7</ele>
        <time>2025-01-28T13:43:13Z</time>
      </trkpt>
      <trkpt lat="47.62126" lon="-2.86514">
        <ele>6.6</ele>
        <time>2025-01-28T13:43:14Z</time>
      </trkpt>
      <trkpt lat="47.62126" lon="-2.86512">
        <ele>6.5</ele>
        <time>2025-01-28T13:43:15Z</time>
      </trkpt>
      <trkpt lat="47.62126" lon="-2.8651">
        <ele>6.4</ele>
        <time>2025-01-28T13:43:16Z</time>
      </trkpt>
      <trkpt lat="47.62126" lon="-2.86508">
        <ele>6.3</ele>
        <time>2025-01-28T13:43:17Z</time>
      </trkpt>
      <trkpt lat="47.62125" lon="-2.86506">
        <ele>6.3</ele>
        <time>2025-01-28T13:43:18Z</time>
      </trkpt>
      <trkpt lat="47.62126" lon="-2.86505">
        <ele>6.2</ele>
        <time>2025-01-28T13:43:19Z</time>
      </trkpt>
      <trkpt lat="47.62126" lon="-2.86503">
        <ele>6.2</ele>
        <time>2025-01-28T13:43:20Z</time>
      </trkpt>
      <trkpt lat="47.62126" lon="-2.86501">
        <ele>6.1</ele>
        <time>2025-01-28T13:43:21Z</time>
      </trkpt>
      <trkpt lat="47.62126" lon="-2.86499">
        <ele>6</ele>
        <time>2025-01-28T13:43:22Z</time>
      </trkpt>
      <trkpt lat="47.62125" lon="-2.86497">
        <ele>6</ele>
        <time>2025-01-28T13:43:23Z</time>
      </trkpt>
      <trkpt lat="47.62126" lon="-2.86495">
        <ele>5.9</ele>
        <time>2025-01-28T13:43:24Z</time>
      </trkpt>
      <trkpt lat="47.62125" lon="-2.86493">
        <ele>5.9</ele>
        <time>2025-01-28T13:43:25Z</time>
      </trkpt>
      <trkpt lat="47.62125" lon="-2.86491">
        <ele>5.8</ele>
        <time>2025-01-28T13:43:26Z</time>
      </trkpt>
      <trkpt lat="47.62125" lon="-2.86489">
        <ele>5.8</ele>
        <time>2025-01-28T13:43:27Z</time>
      </trkpt>
      <trkpt lat="47.62125" lon="-2.86487">
        <ele>5.7</ele>
        <time>2025-01-28T13:43:28Z</time>
      </trkpt>
      <trkpt lat="47.62124" lon="-2.86485">
        <ele>5.7</ele>
        <time>2025-01-28T13:43:29Z</time>
      </trkpt>
      <trkpt lat="47.62124" lon="-2.86483">
        <ele>5.7</ele>
        <time>2025-01-28T13:43:30Z</time>
      </trkpt>
      <trkpt lat="47.62124" lon="-2.86481">
        <ele>5.6</ele>
        <time>2025-01-28T13:43:31Z</time>
      </trkpt>
      <trkpt lat="47.62124" lon="-2.86479">
        <ele>5.6</ele>
        <time>2025-01-28T13:43:32Z</time>
      </trkpt>
      <trkpt lat="47.62123" lon="-2.86477">
        <ele>5.5</ele>
        <time>2025-01-28T13:43:33Z</time>
      </trkpt>
      <trkpt lat="47.62123" lon="-2.86475">
        <ele>5.5</ele>
        <time>2025-01-28T13:43:34Z</time>
      </trkpt>
      <trkpt lat="47.62123" lon="-2.86474">
        <ele>5.5</ele>
        <time>2025-01-28T13:43:35Z</time>
      </trkpt>
      <trkpt lat="47.62123" lon="-2.86472">
        <ele>5.4</ele>
        <time>2025-01-28T13:43:36Z</time>
      </trkpt>
      <trkpt lat="47.62123" lon="-2.8647">
        <ele>5.3</ele>
        <time>2025-01-28T13:43:37Z</time>
      </trkpt>
      <trkpt lat="47.62123" lon="-2.86468">
        <ele>5.2</ele>
        <time>2025-01-28T13:43:38Z</time>
      </trkpt>
      <trkpt lat="47.62122" lon="-2.86466">
        <ele>5.2</ele>
        <time>2025-01-28T13:43:39Z</time>
      </trkpt>
      <trkpt lat="47.62122" lon="-2.86464">
        <ele>5.1</ele>
        <time>2025-01-28T13:43:40Z</time>
      </trkpt>
      <trkpt lat="47.62122" lon="-2.86461">
        <ele>5</ele>
        <time>2025-01-28T13:43:41Z</time>
      </trkpt>
      <trkpt lat="47.62122" lon="-2.86459">
        <ele>4.9</ele>
        <time>2025-01-28T13:43:42Z</time>
      </trkpt>
      <trkpt lat="47.62122" lon="-2.86457">
        <ele>4.8</ele>
        <time>2025-01-28T13:43:43Z</time>
      </trkpt>
      <trkpt lat="47.62121" lon="-2.86455">
        <ele>4.7</ele>
        <time>2025-01-28T13:43:44Z</time>
      </trkpt>
      <trkpt lat="47.62121" lon="-2.86453">
        <ele>4.7</ele>
        <time>2025-01-28T13:43:45Z</time>
      </trkpt>
      <trkpt lat="47.62121" lon="-2.86451">
        <ele>4.6</ele>
        <time>2025-01-28T13:43:46Z</time>
      </trkpt>
      <trkpt lat="47.62121" lon="-2.86449">
        <ele>4.5</ele>
        <time>2025-01-28T13:43:47Z</time>
      </trkpt>
      <trkpt lat="47.6212" lon="-2.86447">
        <ele>4.4</ele>
        <time>2025-01-28T13:43:48Z</time>
      </trkpt>
      <trkpt lat="47.6212" lon="-2.86445">
        <ele>4.4</ele>
        <time>2025-01-28T13:43:49Z</time>
      </trkpt>
      <trkpt lat="47.6212" lon="-2.86443">
        <ele>4.2</ele>
        <time>2025-01-28T13:43:50Z</time>
      </trkpt>
      <trkpt lat="47.62119" lon="-2.86441">
        <ele>4</ele>
        <time>2025-01-28T13:43:51Z</time>
      </trkpt>
      <trkpt lat="47.62119" lon="-2.86439">
        <ele>3.8</ele>
        <time>2025-01-28T13:43:52Z</time>
      </trkpt>
      <trkpt lat="47.6212" lon="-2.86437">
        <ele>3.7</ele>
        <time>2025-01-28T13:43:53Z</time>
      </trkpt>
      <trkpt lat="47.6212" lon="-2.86435">
        <ele>3.5</ele>
        <time>2025-01-28T13:43:54Z</time>
      </trkpt>
      <trkpt lat="47.62121" lon="-2.86433">
        <ele>3.4</ele>
        <time>2025-01-28T13:43:55Z</time>
      </trkpt>
      <trkpt lat="47.62122" lon="-2.86432">
        <ele>3.4</ele>
        <time>2025-01-28T13:43:56Z</time>
      </trkpt>
      <trkpt lat="47.62124" lon="-2.86431">
        <ele>3.4</ele>
        <time>2025-01-28T13:43:57Z</time>
      </trkpt>
      <trkpt lat="47.62125" lon="-2.8643">
        <ele>3.5</ele>
        <time>2025-01-28T13:43:58Z</time>
      </trkpt>
      <trkpt lat="47.62127" lon="-2.86429">
        <ele>3.5</ele>
        <time>2025-01-28T13:43:59Z</time>
      </trkpt>
      <trkpt lat="47.62128" lon="-2.86429">
        <ele>3.6</ele>
        <time>2025-01-28T13:44:00Z</time>
      </trkpt>
      <trkpt lat="47.6213" lon="-2.86429">
        <ele>3.7</ele>
        <time>2025-01-28T13:44:01Z</time>
      </trkpt>
      <trkpt lat="47.62131" lon="-2.86428">
        <ele>3.8</ele>
        <time>2025-01-28T13:44:02Z</time>
      </trkpt>
      <trkpt lat="47.62132" lon="-2.86428">
        <ele>3.9</ele>
        <time>2025-01-28T13:44:03Z</time>
      </trkpt>
      <trkpt lat="47.62134" lon="-2.86427">
        <ele>3.9</ele>
        <time>2025-01-28T13:44:04Z</time>
      </trkpt>
      <trkpt lat="47.62135" lon="-2.86426">
        <ele>4</ele>
        <time>2025-01-28T13:44:05Z</time>
      </trkpt>
      <trkpt lat="47.62136" lon="-2.86426">
        <ele>4.1</ele>
        <time>2025-01-28T13:44:06Z</time>
      </trkpt>
      <trkpt lat="47.62138" lon="-2.86425">
        <ele>4.2</ele>
        <time>2025-01-28T13:44:07Z</time>
      </trkpt>
      <trkpt lat="47.62139" lon="-2.86424">
        <ele>4.3</ele>
        <time>2025-01-28T13:44:08Z</time>
      </trkpt>
      <trkpt lat="47.6214" lon="-2.86423">
        <ele>4.3</ele>
        <time>2025-01-28T13:44:09Z</time>
      </trkpt>
      <trkpt lat="47.62141" lon="-2.86421">
        <ele>4.3</ele>
        <time>2025-01-28T13:44:10Z</time>
      </trkpt>
      <trkpt lat="47.62142" lon="-2.8642">
        <ele>4.4</ele>
        <time>2025-01-28T13:44:11Z</time>
      </trkpt>
      <trkpt lat="47.62144" lon="-2.8642">
        <ele>4.4</ele>
        <time>2025-01-28T13:44:12Z</time>
      </trkpt>
      <trkpt lat="47.62145" lon="-2.86418">
        <ele>4.5</ele>
        <time>2025-01-28T13:44:13Z</time>
      </trkpt>
      <trkpt lat="47.62146" lon="-2.86417">
        <ele>4.5</ele>
        <time>2025-01-28T13:44:14Z</time>
      </trkpt>
      <trkpt lat="47.62147" lon="-2.86416">
        <ele>4.5</ele>
        <time>2025-01-28T13:44:15Z</time>
      </trkpt>
      <trkpt lat="47.62148" lon="-2.86415">
        <ele>4.4</ele>
        <time>2025-01-28T13:44:16Z</time>
      </trkpt>
      <trkpt lat="47.62148" lon="-2.86413">
        <ele>4.3</ele>
        <time>2025-01-28T13:44:17Z</time>
      </trkpt>
      <trkpt lat="47.62149" lon="-2.86412">
        <ele>4.3</ele>
        <time>2025-01-28T13:44:18Z</time>
      </trkpt>
      <trkpt lat="47.62151" lon="-2.86411">
        <ele>4.3</ele>
        <time>2025-01-28T13:44:19Z</time>
      </trkpt>
      <trkpt lat="47.62151" lon="-2.86409">
        <ele>4.2</ele>
        <time>2025-01-28T13:44:20Z</time>
      </trkpt>
      <trkpt lat="47.62153" lon="-2.86407">
        <ele>4.1</ele>
        <time>2025-01-28T13:44:21Z</time>
      </trkpt>
      <trkpt lat="47.62154" lon="-2.86407">
        <ele>4.2</ele>
        <time>2025-01-28T13:44:22Z</time>
      </trkpt>
      <trkpt lat="47.62154" lon="-2.86406">
        <ele>4.1</ele>
        <time>2025-01-28T13:44:23Z</time>
      </trkpt>
      <trkpt lat="47.62155" lon="-2.86405">
        <ele>4.1</ele>
        <time>2025-01-28T13:44:24Z</time>
      </trkpt>
      <trkpt lat="47.62156" lon="-2.86404">
        <ele>4.2</ele>
        <time>2025-01-28T13:44:25Z</time>
      </trkpt>
      <trkpt lat="47.62157" lon="-2.86404">
        <ele>4.3</ele>
        <time>2025-01-28T13:44:26Z</time>
      </trkpt>
      <trkpt lat="47.62159" lon="-2.86403">
        <ele>4.3</ele>
        <time>2025-01-28T13:44:27Z</time>
      </trkpt>
      <trkpt lat="47.62159" lon="-2.86402">
        <ele>4.3</ele>
        <time>2025-01-28T13:44:28Z</time>
      </trkpt>
      <trkpt lat="47.6216" lon="-2.86401">
        <ele>4.3</ele>
        <time>2025-01-28T13:44:29Z</time>
      </trkpt>
      <trkpt lat="47.62161" lon="-2.864">
        <ele>4.3</ele>
        <time>2025-01-28T13:44:30Z</time>
      </trkpt>
      <trkpt lat="47.62162" lon="-2.864">
        <ele>4.4</ele>
        <time>2025-01-28T13:44:31Z</time>
      </trkpt>
      <trkpt lat="47.62163" lon="-2.86399">
        <ele>4.4</ele>
        <time>2025-01-28T13:44:32Z</time>
      </trkpt>
      <trkpt lat="47.62164" lon="-2.86397">
        <ele>4.3</ele>
        <time>2025-01-28T13:44:33Z</time>
      </trkpt>
      <trkpt lat="47.62165" lon="-2.86396">
        <ele>4.3</ele>
        <time>2025-01-28T13:44:34Z</time>
      </trkpt>
      <trkpt lat="47.62166" lon="-2.86395">
        <ele>4.3</ele>
        <time>2025-01-28T13:44:35Z</time>
      </trkpt>
      <trkpt lat="47.62166" lon="-2.86395">
        <ele>4.4</ele>
        <time>2025-01-28T13:44:36Z</time>
      </trkpt>
      <trkpt lat="47.62167" lon="-2.86394">
        <ele>4.4</ele>
        <time>2025-01-28T13:44:37Z</time>
      </trkpt>
      <trkpt lat="47.62168" lon="-2.86393">
        <ele>4.5</ele>
        <time>2025-01-28T13:44:38Z</time>
      </trkpt>
      <trkpt lat="47.62169" lon="-2.86392">
        <ele>4.5</ele>
        <time>2025-01-28T13:44:39Z</time>
      </trkpt>
      <trkpt lat="47.62171" lon="-2.86391">
        <ele>4.5</ele>
        <time>2025-01-28T13:44:40Z</time>
      </trkpt>
      <trkpt lat="47.62172" lon="-2.8639">
        <ele>4.6</ele>
        <time>2025-01-28T13:44:41Z</time>
      </trkpt>
      <trkpt lat="47.62173" lon="-2.86389">
        <ele>4.7</ele>
        <time>2025-01-28T13:44:42Z</time>
      </trkpt>
      <trkpt lat="47.62174" lon="-2.86387">
        <ele>4.6</ele>
        <time>2025-01-28T13:44:43Z</time>
      </trkpt>
      <trkpt lat="47.62175" lon="-2.86386">
        <ele>4.6</ele>
        <time>2025-01-28T13:44:44Z</time>
      </trkpt>
      <trkpt lat="47.62175" lon="-2.86384">
        <ele>4.5</ele>
        <time>2025-01-28T13:44:45Z</time>
      </trkpt>
      <trkpt lat="47.62176" lon="-2.86383">
        <ele>4.5</ele>
        <time>2025-01-28T13:44:46Z</time>
      </trkpt>
      <trkpt lat="47.62177" lon="-2.86382">
        <ele>4.6</ele>
        <time>2025-01-28T13:44:47Z</time>
      </trkpt>
      <trkpt lat="47.62178" lon="-2.86381">
        <ele>4.6</ele>
        <time>2025-01-28T13:44:48Z</time>
      </trkpt>
      <trkpt lat="47.62179" lon="-2.86379">
        <ele>4.7</ele>
        <time>2025-01-28T13:44:49Z</time>
      </trkpt>
      <trkpt lat="47.6218" lon="-2.86378">
        <ele>4.6</ele>
        <time>2025-01-28T13:44:50Z</time>
      </trkpt>
      <trkpt lat="47.62181" lon="-2.86376">
        <ele>4.6</ele>
        <time>2025-01-28T13:44:51Z</time>
      </trkpt>
      <trkpt lat="47.62182" lon="-2.86375">
        <ele>4.7</ele>
        <time>2025-01-28T13:44:52Z</time>
      </trkpt>
      <trkpt lat="47.62183" lon="-2.86374">
        <ele>4.8</ele>
        <time>2025-01-28T13:44:53Z</time>
      </trkpt>
      <trkpt lat="47.62184" lon="-2.86373">
        <ele>4.9</ele>
        <time>2025-01-28T13:44:54Z</time>
      </trkpt>
      <trkpt lat="47.62185" lon="-2.86371">
        <ele>4.9</ele>
        <time>2025-01-28T13:44:55Z</time>
      </trkpt>
      <trkpt lat="47.62186" lon="-2.8637">
        <ele>4.9</ele>
        <time>2025-01-28T13:44:56Z</time>
      </trkpt>
      <trkpt lat="47.62186" lon="-2.86368">
        <ele>4.9</ele>
        <time>2025-01-28T13:44:57Z</time>
      </trkpt>
      <trkpt lat="47.62187" lon="-2.86365">
        <ele>4.8</ele>
        <time>2025-01-28T13:44:58Z</time>
      </trkpt>
      <trkpt lat="47.62187" lon="-2.86363">
        <ele>4.8</ele>
        <time>2025-01-28T13:44:59Z</time>
      </trkpt>
      <trkpt lat="47.62188" lon="-2.86362">
        <ele>4.9</ele>
        <time>2025-01-28T13:45:00Z</time>
      </trkpt>
      <trkpt lat="47.62189" lon="-2.86361">
        <ele>5.1</ele>
        <time>2025-01-28T13:45:01Z</time>
      </trkpt>
      <trkpt lat="47.6219" lon="-2.8636">
        <ele>5.1</ele>
        <time>2025-01-28T13:45:02Z</time>
      </trkpt>
      <trkpt lat="47.62191" lon="-2.86359">
        <ele>5.1</ele>
        <time>2025-01-28T13:45:03Z</time>
      </trkpt>
      <trkpt lat="47.62192" lon="-2.86358">
        <ele>5.1</ele>
        <time>2025-01-28T13:45:04Z</time>
      </trkpt>
      <trkpt lat="47.62193" lon="-2.86356">
        <ele>5.1</ele>
        <time>2025-01-28T13:45:05Z</time>
      </trkpt>
      <trkpt lat="47.62194" lon="-2.86355">
        <ele>5</ele>
        <time>2025-01-28T13:45:06Z</time>
      </trkpt>
      <trkpt lat="47.62194" lon="-2.86354">
        <ele>4.9</ele>
        <time>2025-01-28T13:45:07Z</time>
      </trkpt>
      <trkpt lat="47.62195" lon="-2.86352">
        <ele>4.8</ele>
        <time>2025-01-28T13:45:08Z</time>
      </trkpt>
      <trkpt lat="47.62196" lon="-2.86351">
        <ele>4.7</ele>
        <time>2025-01-28T13:45:09Z</time>
      </trkpt>
      <trkpt lat="47.62197" lon="-2.8635">
        <ele>4.6</ele>
        <time>2025-01-28T13:45:10Z</time>
      </trkpt>
      <trkpt lat="47.62198" lon="-2.86349">
        <ele>4.5</ele>
        <time>2025-01-28T13:45:11Z</time>
      </trkpt>
      <trkpt lat="47.62199" lon="-2.86347">
        <ele>4.3</ele>
        <time>2025-01-28T13:45:12Z</time>
      </trkpt>
      <trkpt lat="47.622" lon="-2.86346">
        <ele>4.2</ele>
        <time>2025-01-28T13:45:13Z</time>
      </trkpt>
      <trkpt lat="47.622" lon="-2.86344">
        <ele>4</ele>
        <time>2025-01-28T13:45:14Z</time>
      </trkpt>
      <trkpt lat="47.62201" lon="-2.86342">
        <ele>3.8</ele>
        <time>2025-01-28T13:45:15Z</time>
      </trkpt>
      <trkpt lat="47.62201" lon="-2.86341">
        <ele>3.6</ele>
        <time>2025-01-28T13:45:16Z</time>
      </trkpt>
      <trkpt lat="47.62202" lon="-2.86339">
        <ele>3.5</ele>
        <time>2025-01-28T13:45:17Z</time>
      </trkpt>
      <trkpt lat="47.62203" lon="-2.86338">
        <ele>3.5</ele>
        <time>2025-01-28T13:45:18Z</time>
      </trkpt>
      <trkpt lat="47.62204" lon="-2.86337">
        <ele>3.5</ele>
        <time>2025-01-28T13:45:19Z</time>
      </trkpt>
      <trkpt lat="47.62205" lon="-2.86336">
        <ele>3.4</ele>
        <time>2025-01-28T13:45:20Z</time>
      </trkpt>
      <trkpt lat="47.62206" lon="-2.86335">
        <ele>3.4</ele>
        <time>2025-01-28T13:45:21Z</time>
      </trkpt>
      <trkpt lat="47.62207" lon="-2.86333">
        <ele>3.3</ele>
        <time>2025-01-28T13:45:22Z</time>
      </trkpt>
      <trkpt lat="47.62208" lon="-2.86332">
        <ele>3.4</ele>
        <time>2025-01-28T13:45:23Z</time>
      </trkpt>
      <trkpt lat="47.62209" lon="-2.86331">
        <ele>3.5</ele>
        <time>2025-01-28T13:45:24Z</time>
      </trkpt>
      <trkpt lat="47.6221" lon="-2.86329">
        <ele>3.5</ele>
        <time>2025-01-28T13:45:25Z</time>
      </trkpt>
      <trkpt lat="47.62211" lon="-2.86328">
        <ele>3.5</ele>
        <time>2025-01-28T13:45:26Z</time>
      </trkpt>
      <trkpt lat="47.62211" lon="-2.86326">
        <ele>3.6</ele>
        <time>2025-01-28T13:45:27Z</time>
      </trkpt>
      <trkpt lat="47.62212" lon="-2.86325">
        <ele>3.6</ele>
        <time>2025-01-28T13:45:28Z</time>
      </trkpt>
      <trkpt lat="47.62213" lon="-2.86323">
        <ele>3.6</ele>
        <time>2025-01-28T13:45:29Z</time>
      </trkpt>
      <trkpt lat="47.62213" lon="-2.86321">
        <ele>3.6</ele>
        <time>2025-01-28T13:45:30Z</time>
      </trkpt>
      <trkpt lat="47.62214" lon="-2.8632">
        <ele>3.6</ele>
        <time>2025-01-28T13:45:31Z</time>
      </trkpt>
      <trkpt lat="47.62215" lon="-2.86319">
        <ele>3.7</ele>
        <time>2025-01-28T13:45:32Z</time>
      </trkpt>
      <trkpt lat="47.62216" lon="-2.86318">
        <ele>3.7</ele>
        <time>2025-01-28T13:45:33Z</time>
      </trkpt>
      <trkpt lat="47.62217" lon="-2.86317">
        <ele>3.8</ele>
        <time>2025-01-28T13:45:34Z</time>
      </trkpt>
      <trkpt lat="47.62217" lon="-2.86315">
        <ele>3.8</ele>
        <time>2025-01-28T13:45:35Z</time>
      </trkpt>
      <trkpt lat="47.62218" lon="-2.86313">
        <ele>3.8</ele>
        <time>2025-01-28T13:45:36Z</time>
      </trkpt>
      <trkpt lat="47.62219" lon="-2.86312">
        <ele>3.8</ele>
        <time>2025-01-28T13:45:37Z</time>
      </trkpt>
      <trkpt lat="47.62219" lon="-2.8631">
        <ele>3.8</ele>
        <time>2025-01-28T13:45:38Z</time>
      </trkpt>
      <trkpt lat="47.6222" lon="-2.86309">
        <ele>3.9</ele>
        <time>2025-01-28T13:45:39Z</time>
      </trkpt>
      <trkpt lat="47.62221" lon="-2.86307">
        <ele>3.9</ele>
        <time>2025-01-28T13:45:40Z</time>
      </trkpt>
      <trkpt lat="47.62221" lon="-2.86306">
        <ele>3.9</ele>
        <time>2025-01-28T13:45:41Z</time>
      </trkpt>
      <trkpt lat="47.62222" lon="-2.86305">
        <ele>4</ele>
        <time>2025-01-28T13:45:42Z</time>
      </trkpt>
      <trkpt lat="47.62223" lon="-2.86303">
        <ele>3.9</ele>
        <time>2025-01-28T13:45:43Z</time>
      </trkpt>
      <trkpt lat="47.62224" lon="-2.86302">
        <ele>3.9</ele>
        <time>2025-01-28T13:45:44Z</time>
      </trkpt>
      <trkpt lat="47.62224" lon="-2.86301">
        <ele>3.8</ele>
        <time>2025-01-28T13:45:45Z</time>
      </trkpt>
      <trkpt lat="47.62225" lon="-2.86299">
        <ele>3.8</ele>
        <time>2025-01-28T13:45:46Z</time>
      </trkpt>
      <trkpt lat="47.62226" lon="-2.86298">
        <ele>3.7</ele>
        <time>2025-01-28T13:45:47Z</time>
      </trkpt>
      <trkpt lat="47.62226" lon="-2.86296">
        <ele>3.7</ele>
        <time>2025-01-28T13:45:48Z</time>
      </trkpt>
      <trkpt lat="47.62227" lon="-2.86294">
        <ele>3.7</ele>
        <time>2025-01-28T13:45:49Z</time>
      </trkpt>
      <trkpt lat="47.62228" lon="-2.86292">
        <ele>3.6</ele>
        <time>2025-01-28T13:45:50Z</time>
      </trkpt>
      <trkpt lat="47.62228" lon="-2.86291">
        <ele>3.6</ele>
        <time>2025-01-28T13:45:51Z</time>
      </trkpt>
      <trkpt lat="47.62229" lon="-2.86289">
        <ele>3.5</ele>
        <time>2025-01-28T13:45:52Z</time>
      </trkpt>
      <trkpt lat="47.6223" lon="-2.86287">
        <ele>3.5</ele>
        <time>2025-01-28T13:45:53Z</time>
      </trkpt>
      <trkpt lat="47.6223" lon="-2.86286">
        <ele>3.5</ele>
        <time>2025-01-28T13:45:54Z</time>
      </trkpt>
      <trkpt lat="47.62231" lon="-2.86284">
        <ele>3.4</ele>
        <time>2025-01-28T13:45:55Z</time>
      </trkpt>
      <trkpt lat="47.62231" lon="-2.86282">
        <ele>3.4</ele>
        <time>2025-01-28T13:45:56Z</time>
      </trkpt>
      <trkpt lat="47.62231" lon="-2.8628">
        <ele>3.4</ele>
        <time>2025-01-28T13:45:57Z</time>
      </trkpt>
      <trkpt lat="47.62232" lon="-2.86278">
        <ele>3.4</ele>
        <time>2025-01-28T13:45:58Z</time>
      </trkpt>
      <trkpt lat="47.62233" lon="-2.86277">
        <ele>3.4</ele>
        <time>2025-01-28T13:45:59Z</time>
      </trkpt>
      <trkpt lat="47.62233" lon="-2.86274">
        <ele>3.3</ele>
        <time>2025-01-28T13:46:00Z</time>
      </trkpt>
      <trkpt lat="47.62234" lon="-2.86272">
        <ele>3.3</ele>
        <time>2025-01-28T13:46:01Z</time>
      </trkpt>
      <trkpt lat="47.62235" lon="-2.86271">
        <ele>3.3</ele>
        <time>2025-01-28T13:46:02Z</time>
      </trkpt>
      <trkpt lat="47.62235" lon="-2.8627">
        <ele>3.3</ele>
        <time>2025-01-28T13:46:03Z</time>
      </trkpt>
      <trkpt lat="47.62236" lon="-2.86268">
        <ele>3.3</ele>
        <time>2025-01-28T13:46:04Z</time>
      </trkpt>
      <trkpt lat="47.62236" lon="-2.86266">
        <ele>3.3</ele>
        <time>2025-01-28T13:46:05Z</time>
      </trkpt>
      <trkpt lat="47.62236" lon="-2.86264">
        <ele>3.3</ele>
        <time>2025-01-28T13:46:06Z</time>
      </trkpt>
      <trkpt lat="47.62237" lon="-2.86263">
        <ele>3.3</ele>
        <time>2025-01-28T13:46:07Z</time>
      </trkpt>
      <trkpt lat="47.62238" lon="-2.86262">
        <ele>3.3</ele>
        <time>2025-01-28T13:46:08Z</time>
      </trkpt>
      <trkpt lat="47.62238" lon="-2.8626">
        <ele>3.3</ele>
        <time>2025-01-28T13:46:09Z</time>
      </trkpt>
      <trkpt lat="47.62238" lon="-2.86258">
        <ele>3.3</ele>
        <time>2025-01-28T13:46:10Z</time>
      </trkpt>
      <trkpt lat="47.62238" lon="-2.86256">
        <ele>3.2</ele>
        <time>2025-01-28T13:46:11Z</time>
      </trkpt>
      <trkpt lat="47.62239" lon="-2.86254">
        <ele>3.2</ele>
        <time>2025-01-28T13:46:12Z</time>
      </trkpt>
      <trkpt lat="47.62239" lon="-2.86251">
        <ele>3.2</ele>
        <time>2025-01-28T13:46:13Z</time>
      </trkpt>
      <trkpt lat="47.62239" lon="-2.86249">
        <ele>3.2</ele>
        <time>2025-01-28T13:46:14Z</time>
      </trkpt>
      <trkpt lat="47.6224" lon="-2.86248">
        <ele>3.3</ele>
        <time>2025-01-28T13:46:15Z</time>
      </trkpt>
      <trkpt lat="47.6224" lon="-2.86247">
        <ele>3.3</ele>
        <time>2025-01-28T13:46:16Z</time>
      </trkpt>
      <trkpt lat="47.6224" lon="-2.86246">
        <ele>3.4</ele>
        <time>2025-01-28T13:46:17Z</time>
      </trkpt>
      <trkpt lat="47.62241" lon="-2.86244">
        <ele>3.4</ele>
        <time>2025-01-28T13:46:18Z</time>
      </trkpt>
      <trkpt lat="47.62241" lon="-2.86243">
        <ele>3.5</ele>
        <time>2025-01-28T13:46:19Z</time>
      </trkpt>
      <trkpt lat="47.62241" lon="-2.86241">
        <ele>3.5</ele>
        <time>2025-01-28T13:46:20Z</time>
      </trkpt>
      <trkpt lat="47.62242" lon="-2.86239">
        <ele>3.5</ele>
        <time>2025-01-28T13:46:21Z</time>
      </trkpt>
      <trkpt lat="47.62242" lon="-2.86238">
        <ele>3.6</ele>
        <time>2025-01-28T13:46:22Z</time>
      </trkpt>
      <trkpt lat="47.62243" lon="-2.86237">
        <ele>3.7</ele>
        <time>2025-01-28T13:46:23Z</time>
      </trkpt>
      <trkpt lat="47.62244" lon="-2.86236">
        <ele>3.8</ele>
        <time>2025-01-28T13:46:24Z</time>
      </trkpt>
      <trkpt lat="47.62245" lon="-2.86236">
        <ele>3.9</ele>
        <time>2025-01-28T13:46:25Z</time>
      </trkpt>
      <trkpt lat="47.62246" lon="-2.86237">
        <ele>4</ele>
        <time>2025-01-28T13:46:26Z</time>
      </trkpt>
      <trkpt lat="47.62247" lon="-2.86238">
        <ele>4.1</ele>
        <time>2025-01-28T13:46:27Z</time>
      </trkpt>
      <trkpt lat="47.62248" lon="-2.8624">
        <ele>4.2</ele>
        <time>2025-01-28T13:46:28Z</time>
      </trkpt>
      <trkpt lat="47.62249" lon="-2.8624">
        <ele>4.3</ele>
        <time>2025-01-28T13:46:29Z</time>
      </trkpt>
      <trkpt lat="47.6225" lon="-2.86242">
        <ele>4.3</ele>
        <time>2025-01-28T13:46:30Z</time>
      </trkpt>
      <trkpt lat="47.62251" lon="-2.86243">
        <ele>4.4</ele>
        <time>2025-01-28T13:46:31Z</time>
      </trkpt>
      <trkpt lat="47.62252" lon="-2.86244">
        <ele>4.4</ele>
        <time>2025-01-28T13:46:32Z</time>
      </trkpt>
      <trkpt lat="47.62252" lon="-2.86245">
        <ele>4.5</ele>
        <time>2025-01-28T13:46:33Z</time>
      </trkpt>
      <trkpt lat="47.62253" lon="-2.86246">
        <ele>4.5</ele>
        <time>2025-01-28T13:46:34Z</time>
      </trkpt>
      <trkpt lat="47.62254" lon="-2.86247">
        <ele>4.6</ele>
        <time>2025-01-28T13:46:35Z</time>
      </trkpt>
      <trkpt lat="47.62255" lon="-2.86248">
        <ele>4.7</ele>
        <time>2025-01-28T13:46:36Z</time>
      </trkpt>
      <trkpt lat="47.62255" lon="-2.86249">
        <ele>4.8</ele>
        <time>2025-01-28T13:46:37Z</time>
      </trkpt>
      <trkpt lat="47.62256" lon="-2.8625">
        <ele>4.9</ele>
        <time>2025-01-28T13:46:38Z</time>
      </trkpt>
      <trkpt lat="47.62257" lon="-2.86251">
        <ele>5</ele>
        <time>2025-01-28T13:46:39Z</time>
      </trkpt>
      <trkpt lat="47.62258" lon="-2.86253">
        <ele>5.1</ele>
        <time>2025-01-28T13:46:40Z</time>
      </trkpt>
      <trkpt lat="47.62259" lon="-2.86253">
        <ele>5.3</ele>
        <time>2025-01-28T13:46:41Z</time>
      </trkpt>
      <trkpt lat="47.6226" lon="-2.86254">
        <ele>5.4</ele>
        <time>2025-01-28T13:46:42Z</time>
      </trkpt>
      <trkpt lat="47.62261" lon="-2.86255">
        <ele>5.5</ele>
        <time>2025-01-28T13:46:43Z</time>
      </trkpt>
      <trkpt lat="47.62262" lon="-2.86255">
        <ele>5.7</ele>
        <time>2025-01-28T13:46:44Z</time>
      </trkpt>
      <trkpt lat="47.62263" lon="-2.86255">
        <ele>5.8</ele>
        <time>2025-01-28T13:46:45Z</time>
      </trkpt>
      <trkpt lat="47.62264" lon="-2.86256">
        <ele>5.9</ele>
        <time>2025-01-28T13:46:46Z</time>
      </trkpt>
      <trkpt lat="47.62265" lon="-2.86257">
        <ele>6</ele>
        <time>2025-01-28T13:46:47Z</time>
      </trkpt>
      <trkpt lat="47.62265" lon="-2.86258">
        <ele>6</ele>
        <time>2025-01-28T13:46:48Z</time>
      </trkpt>
      <trkpt lat="47.62266" lon="-2.86259">
        <ele>6.1</ele>
        <time>2025-01-28T13:46:49Z</time>
      </trkpt>
      <trkpt lat="47.62267" lon="-2.86259">
        <ele>6.2</ele>
        <time>2025-01-28T13:46:50Z</time>
      </trkpt>
      <trkpt lat="47.62268" lon="-2.86261">
        <ele>6.3</ele>
        <time>2025-01-28T13:46:51Z</time>
      </trkpt>
      <trkpt lat="47.62268" lon="-2.86262">
        <ele>6.3</ele>
        <time>2025-01-28T13:46:52Z</time>
      </trkpt>
      <trkpt lat="47.62268" lon="-2.86263">
        <ele>6.3</ele>
        <time>2025-01-28T13:46:53Z</time>
      </trkpt>
      <trkpt lat="47.62269" lon="-2.86265">
        <ele>6.3</ele>
        <time>2025-01-28T13:46:54Z</time>
      </trkpt>
      <trkpt lat="47.6227" lon="-2.86266">
        <ele>6.4</ele>
        <time>2025-01-28T13:46:55Z</time>
      </trkpt>
      <trkpt lat="47.62271" lon="-2.86266">
        <ele>6.6</ele>
        <time>2025-01-28T13:46:56Z</time>
      </trkpt>
      <trkpt lat="47.62272" lon="-2.86267">
        <ele>6.7</ele>
        <time>2025-01-28T13:46:57Z</time>
      </trkpt>
      <trkpt lat="47.62273" lon="-2.86268">
        <ele>6.8</ele>
        <time>2025-01-28T13:46:58Z</time>
      </trkpt>
      <trkpt lat="47.62274" lon="-2.86269">
        <ele>6.9</ele>
        <time>2025-01-28T13:46:59Z</time>
      </trkpt>
      <trkpt lat="47.62276" lon="-2.8627">
        <ele>7</ele>
        <time>2025-01-28T13:47:00Z</time>
      </trkpt>
      <trkpt lat="47.62277" lon="-2.86272">
        <ele>7.1</ele>
        <time>2025-01-28T13:47:01Z</time>
      </trkpt>
      <trkpt lat="47.62277" lon="-2.86273">
        <ele>7.1</ele>
        <time>2025-01-28T13:47:02Z</time>
      </trkpt>
      <trkpt lat="47.62277" lon="-2.86276">
        <ele>7</ele>
        <time>2025-01-28T13:47:03Z</time>
      </trkpt>
      <trkpt lat="47.62277" lon="-2.86278">
        <ele>6.9</ele>
        <time>2025-01-28T13:47:04Z</time>
      </trkpt>
      <trkpt lat="47.62279" lon="-2.86279">
        <ele>7</ele>
        <time>2025-01-28T13:47:05Z</time>
      </trkpt>
      <trkpt lat="47.6228" lon="-2.86279">
        <ele>7.1</ele>
        <time>2025-01-28T13:47:06Z</time>
      </trkpt>
      <trkpt lat="47.62281" lon="-2.86279">
        <ele>7.2</ele>
        <time>2025-01-28T13:47:07Z</time>
      </trkpt>
      <trkpt lat="47.62282" lon="-2.86279">
        <ele>7.3</ele>
        <time>2025-01-28T13:47:08Z</time>
      </trkpt>
      <trkpt lat="47.62284" lon="-2.86279">
        <ele>7.4</ele>
        <time>2025-01-28T13:47:09Z</time>
      </trkpt>
      <trkpt lat="47.62285" lon="-2.8628">
        <ele>7.4</ele>
        <time>2025-01-28T13:47:10Z</time>
      </trkpt>
      <trkpt lat="47.62286" lon="-2.86279">
        <ele>7.6</ele>
        <time>2025-01-28T13:47:11Z</time>
      </trkpt>
      <trkpt lat="47.62287" lon="-2.86279">
        <ele>7.6</ele>
        <time>2025-01-28T13:47:12Z</time>
      </trkpt>
      <trkpt lat="47.62289" lon="-2.86279">
        <ele>7.7</ele>
        <time>2025-01-28T13:47:13Z</time>
      </trkpt>
      <trkpt lat="47.6229" lon="-2.86279">
        <ele>7.8</ele>
        <time>2025-01-28T13:47:14Z</time>
      </trkpt>
      <trkpt lat="47.62291" lon="-2.86279">
        <ele>7.9</ele>
        <time>2025-01-28T13:47:15Z</time>
      </trkpt>
      <trkpt lat="47.62292" lon="-2.86278">
        <ele>8</ele>
        <time>2025-01-28T13:47:16Z</time>
      </trkpt>
      <trkpt lat="47.62293" lon="-2.86279">
        <ele>8.1</ele>
        <time>2025-01-28T13:47:17Z</time>
      </trkpt>
      <trkpt lat="47.62294" lon="-2.86279">
        <ele>8.1</ele>
        <time>2025-01-28T13:47:18Z</time>
      </trkpt>
      <trkpt lat="47.62295" lon="-2.86278">
        <ele>8.3</ele>
        <time>2025-01-28T13:47:19Z</time>
      </trkpt>
      <trkpt lat="47.62297" lon="-2.86278">
        <ele>8.4</ele>
        <time>2025-01-28T13:47:20Z</time>
      </trkpt>
      <trkpt lat="47.62298" lon="-2.86278">
        <ele>8.4</ele>
        <time>2025-01-28T13:47:21Z</time>
      </trkpt>
      <trkpt lat="47.62299" lon="-2.86278">
        <ele>8.5</ele>
        <time>2025-01-28T13:47:22Z</time>
      </trkpt>
      <trkpt lat="47.623" lon="-2.86277">
        <ele>8.7</ele>
        <time>2025-01-28T13:47:23Z</time>
      </trkpt>
      <trkpt lat="47.62301" lon="-2.86276">
        <ele>8.8</ele>
        <time>2025-01-28T13:47:24Z</time>
      </trkpt>
      <trkpt lat="47.62303" lon="-2.86276">
        <ele>8.9</ele>
        <time>2025-01-28T13:47:25Z</time>
      </trkpt>
      <trkpt lat="47.62304" lon="-2.86276">
        <ele>9</ele>
        <time>2025-01-28T13:47:26Z</time>
      </trkpt>
      <trkpt lat="47.62305" lon="-2.86277">
        <ele>9.1</ele>
        <time>2025-01-28T13:47:27Z</time>
      </trkpt>
      <trkpt lat="47.62306" lon="-2.86277">
        <ele>9.1</ele>
        <time>2025-01-28T13:47:28Z</time>
      </trkpt>
      <trkpt lat="47.62308" lon="-2.86276">
        <ele>9.2</ele>
        <time>2025-01-28T13:47:29Z</time>
      </trkpt>
      <trkpt lat="47.62309" lon="-2.86276">
        <ele>9.2</ele>
        <time>2025-01-28T13:47:30Z</time>
      </trkpt>
      <trkpt lat="47.6231" lon="-2.86276">
        <ele>9.3</ele>
        <time>2025-01-28T13:47:31Z</time>
      </trkpt>
      <trkpt lat="47.62311" lon="-2.86276">
        <ele>9.3</ele>
        <time>2025-01-28T13:47:32Z</time>
      </trkpt>
      <trkpt lat="47.62312" lon="-2.86275">
        <ele>9.4</ele>
        <time>2025-01-28T13:47:33Z</time>
      </trkpt>
      <trkpt lat="47.62313" lon="-2.86275">
        <ele>9.5</ele>
        <time>2025-01-28T13:47:34Z</time>
      </trkpt>
      <trkpt lat="47.62314" lon="-2.86274">
        <ele>9.5</ele>
        <time>2025-01-28T13:47:35Z</time>
      </trkpt>
      <trkpt lat="47.62316" lon="-2.86274">
        <ele>9.6</ele>
        <time>2025-01-28T13:47:36Z</time>
      </trkpt>
      <trkpt lat="47.62317" lon="-2.86273">
        <ele>9.7</ele>
        <time>2025-01-28T13:47:37Z</time>
      </trkpt>
      <trkpt lat="47.62318" lon="-2.86273">
        <ele>9.7</ele>
        <time>2025-01-28T13:47:38Z</time>
      </trkpt>
      <trkpt lat="47.6232" lon="-2.86272">
        <ele>9.8</ele>
        <time>2025-01-28T13:47:39Z</time>
      </trkpt>
      <trkpt lat="47.62321" lon="-2.86271">
        <ele>9.9</ele>
        <time>2025-01-28T13:47:40Z</time>
      </trkpt>
      <trkpt lat="47.62322" lon="-2.86271">
        <ele>10</ele>
        <time>2025-01-28T13:47:41Z</time>
      </trkpt>
      <trkpt lat="47.62323" lon="-2.8627">
        <ele>10</ele>
        <time>2025-01-28T13:47:42Z</time>
      </trkpt>
      <trkpt lat="47.62325" lon="-2.86269">
        <ele>10.1</ele>
        <time>2025-01-28T13:47:43Z</time>
      </trkpt>
      <trkpt lat="47.62326" lon="-2.86268">
        <ele>10.2</ele>
        <time>2025-01-28T13:47:44Z</time>
      </trkpt>
      <trkpt lat="47.62327" lon="-2.86267">
        <ele>10.3</ele>
        <time>2025-01-28T13:47:45Z</time>
      </trkpt>
      <trkpt lat="47.62328" lon="-2.86265">
        <ele>10.4</ele>
        <time>2025-01-28T13:47:46Z</time>
      </trkpt>
      <trkpt lat="47.62329" lon="-2.86263">
        <ele>10.4</ele>
        <time>2025-01-28T13:47:47Z</time>
      </trkpt>
      <trkpt lat="47.6233" lon="-2.86262">
        <ele>10.5</ele>
        <time>2025-01-28T13:47:48Z</time>
      </trkpt>
      <trkpt lat="47.6233" lon="-2.86261">
        <ele>10.6</ele>
        <time>2025-01-28T13:47:49Z</time>
      </trkpt>
      <trkpt lat="47.6233" lon="-2.86259">
        <ele>10.7</ele>
        <time>2025-01-28T13:47:50Z</time>
      </trkpt>
      <trkpt lat="47.6233" lon="-2.86257">
        <ele>10.7</ele>
        <time>2025-01-28T13:47:51Z</time>
      </trkpt>
      <trkpt lat="47.62331" lon="-2.86255">
        <ele>10.8</ele>
        <time>2025-01-28T13:47:52Z</time>
      </trkpt>
      <trkpt lat="47.62332" lon="-2.86253">
        <ele>10.9</ele>
        <time>2025-01-28T13:47:53Z</time>
      </trkpt>
      <trkpt lat="47.62332" lon="-2.86252">
        <ele>10.9</ele>
        <time>2025-01-28T13:47:54Z</time>
      </trkpt>
      <trkpt lat="47.62333" lon="-2.8625">
        <ele>11</ele>
        <time>2025-01-28T13:47:55Z</time>
      </trkpt>
      <trkpt lat="47.62334" lon="-2.86249">
        <ele>11.1</ele>
        <time>2025-01-28T13:47:56Z</time>
      </trkpt>
      <trkpt lat="47.62334" lon="-2.86247">
        <ele>11.2</ele>
        <time>2025-01-28T13:47:57Z</time>
      </trkpt>
      <trkpt lat="47.62335" lon="-2.86246">
        <ele>11.2</ele>
        <time>2025-01-28T13:47:58Z</time>
      </trkpt>
      <trkpt lat="47.62335" lon="-2.86245">
        <ele>11.3</ele>
        <time>2025-01-28T13:47:59Z</time>
      </trkpt>
      <trkpt lat="47.62336" lon="-2.86243">
        <ele>11.5</ele>
        <time>2025-01-28T13:48:00Z</time>
      </trkpt>
      <trkpt lat="47.62337" lon="-2.86242">
        <ele>11.6</ele>
        <time>2025-01-28T13:48:01Z</time>
      </trkpt>
      <trkpt lat="47.62338" lon="-2.86241">
        <ele>11.7</ele>
        <time>2025-01-28T13:48:02Z</time>
      </trkpt>
      <trkpt lat="47.62339" lon="-2.86239">
        <ele>11.8</ele>
        <time>2025-01-28T13:48:03Z</time>
      </trkpt>
      <trkpt lat="47.62339" lon="-2.86237">
        <ele>11.9</ele>
        <time>2025-01-28T13:48:04Z</time>
      </trkpt>
      <trkpt lat="47.6234" lon="-2.86236">
        <ele>12</ele>
        <time>2025-01-28T13:48:05Z</time>
      </trkpt>
      <trkpt lat="47.6234" lon="-2.86234">
        <ele>12.1</ele>
        <time>2025-01-28T13:48:06Z</time>
      </trkpt>
      <trkpt lat="47.62341" lon="-2.86233">
        <ele>12.2</ele>
        <time>2025-01-28T13:48:07Z</time>
      </trkpt>
      <trkpt lat="47.62342" lon="-2.86232">
        <ele>12.3</ele>
        <time>2025-01-28T13:48:08Z</time>
      </trkpt>
      <trkpt lat="47.62342" lon="-2.8623">
        <ele>12.4</ele>
        <time>2025-01-28T13:48:09Z</time>
      </trkpt>
      <trkpt lat="47.62343" lon="-2.86229">
        <ele>12.5</ele>
        <time>2025-01-28T13:48:10Z</time>
      </trkpt>
      <trkpt lat="47.62344" lon="-2.86227">
        <ele>12.6</ele>
        <time>2025-01-28T13:48:11Z</time>
      </trkpt>
      <trkpt lat="47.62344" lon="-2.86225">
        <ele>12.7</ele>
        <time>2025-01-28T13:48:12Z</time>
      </trkpt>
      <trkpt lat="47.62345" lon="-2.86224">
        <ele>12.8</ele>
        <time>2025-01-28T13:48:13Z</time>
      </trkpt>
      <trkpt lat="47.62346" lon="-2.86222">
        <ele>12.9</ele>
        <time>2025-01-28T13:48:14Z</time>
      </trkpt>
      <trkpt lat="47.62346" lon="-2.8622">
        <ele>12.9</ele>
        <time>2025-01-28T13:48:15Z</time>
      </trkpt>
      <trkpt lat="47.62347" lon="-2.86218">
        <ele>13</ele>
        <time>2025-01-28T13:48:16Z</time>
      </trkpt>
      <trkpt lat="47.62347" lon="-2.86216">
        <ele>13</ele>
        <time>2025-01-28T13:48:17Z</time>
      </trkpt>
      <trkpt lat="47.62348" lon="-2.86214">
        <ele>13</ele>
        <time>2025-01-28T13:48:18Z</time>
      </trkpt>
      <trkpt lat="47.62348" lon="-2.86213">
        <ele>13.1</ele>
        <time>2025-01-28T13:48:19Z</time>
      </trkpt>
      <trkpt lat="47.62349" lon="-2.86212">
        <ele>13.1</ele>
        <time>2025-01-28T13:48:20Z</time>
      </trkpt>
      <trkpt lat="47.6235" lon="-2.8621">
        <ele>13.1</ele>
        <time>2025-01-28T13:48:21Z</time>
      </trkpt>
      <trkpt lat="47.62351" lon="-2.86209">
        <ele>13.1</ele>
        <time>2025-01-28T13:48:22Z</time>
      </trkpt>
      <trkpt lat="47.62352" lon="-2.86207">
        <ele>13.1</ele>
        <time>2025-01-28T13:48:23Z</time>
      </trkpt>
      <trkpt lat="47.62352" lon="-2.86206">
        <ele>13.2</ele>
        <time>2025-01-28T13:48:24Z</time>
      </trkpt>
      <trkpt lat="47.62353" lon="-2.86204">
        <ele>13.1</ele>
        <time>2025-01-28T13:48:25Z</time>
      </trkpt>
      <trkpt lat="47.62354" lon="-2.86203">
        <ele>13.1</ele>
        <time>2025-01-28T13:48:26Z</time>
      </trkpt>
      <trkpt lat="47.62355" lon="-2.86202">
        <ele>13.1</ele>
        <time>2025-01-28T13:48:27Z</time>
      </trkpt>
      <trkpt lat="47.62356" lon="-2.862">
        <ele>13.1</ele>
        <time>2025-01-28T13:48:28Z</time>
      </trkpt>
      <trkpt lat="47.62357" lon="-2.86199">
        <ele>13.1</ele>
        <time>2025-01-28T13:48:29Z</time>
      </trkpt>
      <trkpt lat="47.62358" lon="-2.86197">
        <ele>13.1</ele>
        <time>2025-01-28T13:48:30Z</time>
      </trkpt>
      <trkpt lat="47.62358" lon="-2.86196">
        <ele>13</ele>
        <time>2025-01-28T13:48:31Z</time>
      </trkpt>
      <trkpt lat="47.62359" lon="-2.86194">
        <ele>13</ele>
        <time>2025-01-28T13:48:32Z</time>
      </trkpt>
      <trkpt lat="47.6236" lon="-2.86192">
        <ele>13</ele>
        <time>2025-01-28T13:48:33Z</time>
      </trkpt>
      <trkpt lat="47.6236" lon="-2.86191">
        <ele>13</ele>
        <time>2025-01-28T13:48:34Z</time>
      </trkpt>
      <trkpt lat="47.62361" lon="-2.86189">
        <ele>13</ele>
        <time>2025-01-28T13:48:35Z</time>
      </trkpt>
      <trkpt lat="47.62361" lon="-2.86187">
        <ele>13</ele>
        <time>2025-01-28T13:48:36Z</time>
      </trkpt>
      <trkpt lat="47.62362" lon="-2.86185">
        <ele>13</ele>
        <time>2025-01-28T13:48:37Z</time>
      </trkpt>
      <trkpt lat="47.62362" lon="-2.86183">
        <ele>13</ele>
        <time>2025-01-28T13:48:38Z</time>
      </trkpt>
      <trkpt lat="47.62363" lon="-2.86182">
        <ele>13.1</ele>
        <time>2025-01-28T13:48:39Z</time>
      </trkpt>
      <trkpt lat="47.62364" lon="-2.86181">
        <ele>13.1</ele>
        <time>2025-01-28T13:48:40Z</time>
      </trkpt>
      <trkpt lat="47.62365" lon="-2.86179">
        <ele>13.1</ele>
        <time>2025-01-28T13:48:41Z</time>
      </trkpt>
      <trkpt lat="47.62366" lon="-2.86178">
        <ele>13.2</ele>
        <time>2025-01-28T13:48:42Z</time>
      </trkpt>
      <trkpt lat="47.62367" lon="-2.86177">
        <ele>13.2</ele>
        <time>2025-01-28T13:48:43Z</time>
      </trkpt>
      <trkpt lat="47.62368" lon="-2.86175">
        <ele>13.2</ele>
        <time>2025-01-28T13:48:44Z</time>
      </trkpt>
      <trkpt lat="47.62369" lon="-2.86175">
        <ele>13.3</ele>
        <time>2025-01-28T13:48:45Z</time>
      </trkpt>
      <trkpt lat="47.6237" lon="-2.86173">
        <ele>13.3</ele>
        <time>2025-01-28T13:48:46Z</time>
      </trkpt>
      <trkpt lat="47.62371" lon="-2.86172">
        <ele>13.3</ele>
        <time>2025-01-28T13:48:47Z</time>
      </trkpt>
      <trkpt lat="47.62371" lon="-2.8617">
        <ele>13.4</ele>
        <time>2025-01-28T13:48:48Z</time>
      </trkpt>
      <trkpt lat="47.62372" lon="-2.86169">
        <ele>13.4</ele>
        <time>2025-01-28T13:48:49Z</time>
      </trkpt>
      <trkpt lat="47.62372" lon="-2.86167">
        <ele>13.4</ele>
        <time>2025-01-28T13:48:50Z</time>
      </trkpt>
      <trkpt lat="47.62373" lon="-2.86165">
        <ele>13.4</ele>
        <time>2025-01-28T13:48:51Z</time>
      </trkpt>
      <trkpt lat="47.62373" lon="-2.86164">
        <ele>13.4</ele>
        <time>2025-01-28T13:48:52Z</time>
      </trkpt>
      <trkpt lat="47.62374" lon="-2.86162">
        <ele>13.5</ele>
        <time>2025-01-28T13:48:53Z</time>
      </trkpt>
      <trkpt lat="47.62375" lon="-2.8616">
        <ele>13.5</ele>
        <time>2025-01-28T13:48:54Z</time>
      </trkpt>
      <trkpt lat="47.62375" lon="-2.86158">
        <ele>13.5</ele>
        <time>2025-01-28T13:48:55Z</time>
      </trkpt>
      <trkpt lat="47.62376" lon="-2.86156">
        <ele>13.5</ele>
        <time>2025-01-28T13:48:56Z</time>
      </trkpt>
      <trkpt lat="47.62377" lon="-2.86155">
        <ele>13.6</ele>
        <time>2025-01-28T13:48:57Z</time>
      </trkpt>
      <trkpt lat="47.62377" lon="-2.86153">
        <ele>13.6</ele>
        <time>2025-01-28T13:48:58Z</time>
      </trkpt>
      <trkpt lat="47.62378" lon="-2.86152">
        <ele>13.6</ele>
        <time>2025-01-28T13:48:59Z</time>
      </trkpt>
      <trkpt lat="47.62379" lon="-2.8615">
        <ele>13.7</ele>
        <time>2025-01-28T13:49:00Z</time>
      </trkpt>
      <trkpt lat="47.6238" lon="-2.86148">
        <ele>13.7</ele>
        <time>2025-01-28T13:49:01Z</time>
      </trkpt>
      <trkpt lat="47.62381" lon="-2.86147">
        <ele>13.7</ele>
        <time>2025-01-28T13:49:02Z</time>
      </trkpt>
      <trkpt lat="47.62381" lon="-2.86146">
        <ele>13.7</ele>
        <time>2025-01-28T13:49:03Z</time>
      </trkpt>
      <trkpt lat="47.62382" lon="-2.86144">
        <ele>13.7</ele>
        <time>2025-01-28T13:49:04Z</time>
      </trkpt>
      <trkpt lat="47.62382" lon="-2.86142">
        <ele>13.8</ele>
        <time>2025-01-28T13:49:05Z</time>
      </trkpt>
      <trkpt lat="47.62383" lon="-2.8614">
        <ele>13.8</ele>
        <time>2025-01-28T13:49:06Z</time>
      </trkpt>
      <trkpt lat="47.62384" lon="-2.86138">
        <ele>13.8</ele>
        <time>2025-01-28T13:49:07Z</time>
      </trkpt>
      <trkpt lat="47.62384" lon="-2.86137">
        <ele>13.8</ele>
        <time>2025-01-28T13:49:08Z</time>
      </trkpt>
      <trkpt lat="47.62385" lon="-2.86135">
        <ele>13.8</ele>
        <time>2025-01-28T13:49:09Z</time>
      </trkpt>
      <trkpt lat="47.62386" lon="-2.86133">
        <ele>13.9</ele>
        <time>2025-01-28T13:49:10Z</time>
      </trkpt>
      <trkpt lat="47.62387" lon="-2.86132">
        <ele>13.9</ele>
        <time>2025-01-28T13:49:11Z</time>
      </trkpt>
      <trkpt lat="47.62388" lon="-2.8613">
        <ele>13.9</ele>
        <time>2025-01-28T13:49:12Z</time>
      </trkpt>
      <trkpt lat="47.62388" lon="-2.86128">
        <ele>14</ele>
        <time>2025-01-28T13:49:13Z</time>
      </trkpt>
      <trkpt lat="47.62389" lon="-2.86127">
        <ele>14</ele>
        <time>2025-01-28T13:49:14Z</time>
      </trkpt>
      <trkpt lat="47.6239" lon="-2.86125">
        <ele>14</ele>
        <time>2025-01-28T13:49:15Z</time>
      </trkpt>
      <trkpt lat="47.6239" lon="-2.86123">
        <ele>14</ele>
        <time>2025-01-28T13:49:16Z</time>
      </trkpt>
      <trkpt lat="47.62391" lon="-2.86122">
        <ele>14.1</ele>
        <time>2025-01-28T13:49:17Z</time>
      </trkpt>
      <trkpt lat="47.62392" lon="-2.8612">
        <ele>14.1</ele>
        <time>2025-01-28T13:49:18Z</time>
      </trkpt>
      <trkpt lat="47.62393" lon="-2.86119">
        <ele>14.1</ele>
        <time>2025-01-28T13:49:19Z</time>
      </trkpt>
      <trkpt lat="47.62394" lon="-2.86117">
        <ele>14.2</ele>
        <time>2025-01-28T13:49:20Z</time>
      </trkpt>
      <trkpt lat="47.62394" lon="-2.86116">
        <ele>14.2</ele>
        <time>2025-01-28T13:49:21Z</time>
      </trkpt>
      <trkpt lat="47.62395" lon="-2.86114">
        <ele>14.2</ele>
        <time>2025-01-28T13:49:22Z</time>
      </trkpt>
      <trkpt lat="47.62395" lon="-2.86112">
        <ele>14.2</ele>
        <time>2025-01-28T13:49:23Z</time>
      </trkpt>
      <trkpt lat="47.62395" lon="-2.8611">
        <ele>14.2</ele>
        <time>2025-01-28T13:49:24Z</time>
      </trkpt>
      <trkpt lat="47.62395" lon="-2.86108">
        <ele>14.1</ele>
        <time>2025-01-28T13:49:25Z</time>
      </trkpt>
      <trkpt lat="47.62396" lon="-2.86106">
        <ele>14.1</ele>
        <time>2025-01-28T13:49:26Z</time>
      </trkpt>
      <trkpt lat="47.62396" lon="-2.86104">
        <ele>14</ele>
        <time>2025-01-28T13:49:27Z</time>
      </trkpt>
      <trkpt lat="47.62397" lon="-2.86102">
        <ele>14</ele>
        <time>2025-01-28T13:49:28Z</time>
      </trkpt>
      <trkpt lat="47.62397" lon="-2.861">
        <ele>13.9</ele>
        <time>2025-01-28T13:49:29Z</time>
      </trkpt>
      <trkpt lat="47.62398" lon="-2.86098">
        <ele>13.8</ele>
        <time>2025-01-28T13:49:30Z</time>
      </trkpt>
      <trkpt lat="47.62398" lon="-2.86096">
        <ele>13.8</ele>
        <time>2025-01-28T13:49:31Z</time>
      </trkpt>
      <trkpt lat="47.62397" lon="-2.86094">
        <ele>13.7</ele>
        <time>2025-01-28T13:49:32Z</time>
      </trkpt>
      <trkpt lat="47.62397" lon="-2.86092">
        <ele>13.6</ele>
        <time>2025-01-28T13:49:33Z</time>
      </trkpt>
      <trkpt lat="47.62397" lon="-2.8609">
        <ele>13.5</ele>
        <time>2025-01-28T13:49:34Z</time>
      </trkpt>
      <trkpt lat="47.62397" lon="-2.86088">
        <ele>13.5</ele>
        <time>2025-01-28T13:49:35Z</time>
      </trkpt>
      <trkpt lat="47.62397" lon="-2.86086">
        <ele>13.4</ele>
        <time>2025-01-28T13:49:36Z</time>
      </trkpt>
      <trkpt lat="47.62397" lon="-2.86085">
        <ele>13.3</ele>
        <time>2025-01-28T13:49:37Z</time>
      </trkpt>
      <trkpt lat="47.62396" lon="-2.86083">
        <ele>13.3</ele>
        <time>2025-01-28T13:49:38Z</time>
      </trkpt>
      <trkpt lat="47.62396" lon="-2.86081">
        <ele>13.2</ele>
        <time>2025-01-28T13:49:39Z</time>
      </trkpt>
      <trkpt lat="47.62396" lon="-2.86079">
        <ele>13.2</ele>
        <time>2025-01-28T13:49:40Z</time>
      </trkpt>
      <trkpt lat="47.62396" lon="-2.86077">
        <ele>13.2</ele>
        <time>2025-01-28T13:49:41Z</time>
      </trkpt>
      <trkpt lat="47.62395" lon="-2.86075">
        <ele>13.2</ele>
        <time>2025-01-28T13:49:42Z</time>
      </trkpt>
      <trkpt lat="47.62395" lon="-2.86073">
        <ele>13.2</ele>
        <time>2025-01-28T13:49:43Z</time>
      </trkpt>
      <trkpt lat="47.62395" lon="-2.86071">
        <ele>13.2</ele>
        <time>2025-01-28T13:49:44Z</time>
      </trkpt>
      <trkpt lat="47.62395" lon="-2.8607">
        <ele>13.2</ele>
        <time>2025-01-28T13:49:45Z</time>
      </trkpt>
      <trkpt lat="47.62395" lon="-2.86068">
        <ele>13.2</ele>
        <time>2025-01-28T13:49:46Z</time>
      </trkpt>
      <trkpt lat="47.62396" lon="-2.86066">
        <ele>13.2</ele>
        <time>2025-01-28T13:49:47Z</time>
      </trkpt>
      <trkpt lat="47.62396" lon="-2.86064">
        <ele>13.2</ele>
        <time>2025-01-28T13:49:48Z</time>
      </trkpt>
      <trkpt lat="47.62395" lon="-2.86062">
        <ele>13.2</ele>
        <time>2025-01-28T13:49:49Z</time>
      </trkpt>
      <trkpt lat="47.62395" lon="-2.8606">
        <ele>13.2</ele>
        <time>2025-01-28T13:49:50Z</time>
      </trkpt>
      <trkpt lat="47.62395" lon="-2.86058">
        <ele>13.2</ele>
        <time>2025-01-28T13:49:51Z</time>
      </trkpt>
      <trkpt lat="47.62394" lon="-2.86057">
        <ele>13.2</ele>
        <time>2025-01-28T13:49:52Z</time>
      </trkpt>
      <trkpt lat="47.62394" lon="-2.86055">
        <ele>13.2</ele>
        <time>2025-01-28T13:49:53Z</time>
      </trkpt>
      <trkpt lat="47.62395" lon="-2.86053">
        <ele>13.1</ele>
        <time>2025-01-28T13:49:54Z</time>
      </trkpt>
      <trkpt lat="47.62394" lon="-2.86051">
        <ele>13</ele>
        <time>2025-01-28T13:49:55Z</time>
      </trkpt>
      <trkpt lat="47.62394" lon="-2.86049">
        <ele>13</ele>
        <time>2025-01-28T13:49:56Z</time>
      </trkpt>
      <trkpt lat="47.62394" lon="-2.86047">
        <ele>12.9</ele>
        <time>2025-01-28T13:49:57Z</time>
      </trkpt>
      <trkpt lat="47.62394" lon="-2.86045">
        <ele>12.8</ele>
        <time>2025-01-28T13:49:58Z</time>
      </trkpt>
      <trkpt lat="47.62394" lon="-2.86044">
        <ele>12.8</ele>
        <time>2025-01-28T13:49:59Z</time>
      </trkpt>
      <trkpt lat="47.62395" lon="-2.86042">
        <ele>12.7</ele>
        <time>2025-01-28T13:50:00Z</time>
      </trkpt>
      <trkpt lat="47.62395" lon="-2.8604">
        <ele>12.7</ele>
        <time>2025-01-28T13:50:01Z</time>
      </trkpt>
      <trkpt lat="47.62395" lon="-2.86038">
        <ele>12.6</ele>
        <time>2025-01-28T13:50:02Z</time>
      </trkpt>
      <trkpt lat="47.62396" lon="-2.86036">
        <ele>12.5</ele>
        <time>2025-01-28T13:50:03Z</time>
      </trkpt>
      <trkpt lat="47.62396" lon="-2.86035">
        <ele>12.5</ele>
        <time>2025-01-28T13:50:04Z</time>
      </trkpt>
      <trkpt lat="47.62397" lon="-2.86033">
        <ele>12.5</ele>
        <time>2025-01-28T13:50:05Z</time>
      </trkpt>
      <trkpt lat="47.62399" lon="-2.86032">
        <ele>12.5</ele>
        <time>2025-01-28T13:50:06Z</time>
      </trkpt>
      <trkpt lat="47.624" lon="-2.8603">
        <ele>12.5</ele>
        <time>2025-01-28T13:50:07Z</time>
      </trkpt>
      <trkpt lat="47.624" lon="-2.86028">
        <ele>12.4</ele>
        <time>2025-01-28T13:50:08Z</time>
      </trkpt>
      <trkpt lat="47.624" lon="-2.86026">
        <ele>12.4</ele>
        <time>2025-01-28T13:50:09Z</time>
      </trkpt>
      <trkpt lat="47.624" lon="-2.86025">
        <ele>12.3</ele>
        <time>2025-01-28T13:50:10Z</time>
      </trkpt>
      <trkpt lat="47.62401" lon="-2.86023">
        <ele>12.3</ele>
        <time>2025-01-28T13:50:11Z</time>
      </trkpt>
      <trkpt lat="47.62401" lon="-2.86021">
        <ele>12.3</ele>
        <time>2025-01-28T13:50:12Z</time>
      </trkpt>
      <trkpt lat="47.62401" lon="-2.86019">
        <ele>12.3</ele>
        <time>2025-01-28T13:50:13Z</time>
      </trkpt>
      <trkpt lat="47.62401" lon="-2.86017">
        <ele>12.2</ele>
        <time>2025-01-28T13:50:14Z</time>
      </trkpt>
      <trkpt lat="47.62401" lon="-2.86015">
        <ele>12.2</ele>
        <time>2025-01-28T13:50:15Z</time>
      </trkpt>
      <trkpt lat="47.62401" lon="-2.86014">
        <ele>12.2</ele>
        <time>2025-01-28T13:50:16Z</time>
      </trkpt>
      <trkpt lat="47.62402" lon="-2.86012">
        <ele>12.2</ele>
        <time>2025-01-28T13:50:17Z</time>
      </trkpt>
      <trkpt lat="47.62402" lon="-2.86011">
        <ele>12.1</ele>
        <time>2025-01-28T13:50:18Z</time>
      </trkpt>
      <trkpt lat="47.62402" lon="-2.86009">
        <ele>12.1</ele>
        <time>2025-01-28T13:50:19Z</time>
      </trkpt>
      <trkpt lat="47.62402" lon="-2.86007">
        <ele>12.1</ele>
        <time>2025-01-28T13:50:20Z</time>
      </trkpt>
      <trkpt lat="47.62402" lon="-2.86005">
        <ele>12.1</ele>
        <time>2025-01-28T13:50:21Z</time>
      </trkpt>
      <trkpt lat="47.62403" lon="-2.86004">
        <ele>12</ele>
        <time>2025-01-28T13:50:22Z</time>
      </trkpt>
      <trkpt lat="47.62403" lon="-2.86002">
        <ele>12</ele>
        <time>2025-01-28T13:50:23Z</time>
      </trkpt>
      <trkpt lat="47.62403" lon="-2.86">
        <ele>12</ele>
        <time>2025-01-28T13:50:24Z</time>
      </trkpt>
      <trkpt lat="47.62404" lon="-2.85999">
        <ele>12</ele>
        <time>2025-01-28T13:50:25Z</time>
      </trkpt>
      <trkpt lat="47.62405" lon="-2.85998">
        <ele>12.1</ele>
        <time>2025-01-28T13:50:26Z</time>
      </trkpt>
      <trkpt lat="47.62406" lon="-2.85997">
        <ele>12.1</ele>
        <time>2025-01-28T13:50:27Z</time>
      </trkpt>
      <trkpt lat="47.62407" lon="-2.85997">
        <ele>12.2</ele>
        <time>2025-01-28T13:50:28Z</time>
      </trkpt>
      <trkpt lat="47.62409" lon="-2.85999">
        <ele>12.4</ele>
        <time>2025-01-28T13:50:29Z</time>
      </trkpt>
      <trkpt lat="47.62409" lon="-2.86">
        <ele>12.4</ele>
        <time>2025-01-28T13:50:30Z</time>
      </trkpt>
      <trkpt lat="47.62409" lon="-2.86001">
        <ele>12.4</ele>
        <time>2025-01-28T13:50:31Z</time>
      </trkpt>
      <trkpt lat="47.62409" lon="-2.86001">
        <ele>12.4</ele>
        <time>2025-01-28T13:50:32Z</time>
      </trkpt>
      <trkpt lat="47.62409" lon="-2.86001">
        <ele>12.4</ele>
        <time>2025-01-28T13:50:33Z</time>
      </trkpt>
      <trkpt lat="47.62409" lon="-2.86001">
        <ele>12.4</ele>
        <time>2025-01-28T13:50:34Z</time>
      </trkpt>
      <trkpt lat="47.62409" lon="-2.86001">
        <ele>12.4</ele>
        <time>2025-01-28T13:50:35Z</time>
      </trkpt>
      <trkpt lat="47.62408" lon="-2.86001">
        <ele>12.4</ele>
        <time>2025-01-28T13:50:36Z</time>
      </trkpt>
      <trkpt lat="47.62408" lon="-2.86002">
        <ele>12.4</ele>
        <time>2025-01-28T13:50:37Z</time>
      </trkpt>
      <trkpt lat="47.62408" lon="-2.86002">
        <ele>12.4</ele>
        <time>2025-01-28T13:50:38Z</time>
      </trkpt>
      <trkpt lat="47.62408" lon="-2.86002">
        <ele>12.4</ele>
        <time>2025-01-28T13:50:39Z</time>
      </trkpt>
      <trkpt lat="47.62408" lon="-2.86002">
        <ele>12.4</ele>
        <time>2025-01-28T13:50:40Z</time>
      </trkpt>
      <trkpt lat="47.62408" lon="-2.86002">
        <ele>12.4</ele>
        <time>2025-01-28T13:50:41Z</time>
      </trkpt>
      <trkpt lat="47.62408" lon="-2.86002">
        <ele>12.4</ele>
        <time>2025-01-28T13:50:42Z</time>
      </trkpt>
      <trkpt lat="47.62408" lon="-2.86002">
        <ele>12.4</ele>
        <time>2025-01-28T13:50:43Z</time>
      </trkpt>
      <trkpt lat="47.62408" lon="-2.86002">
        <ele>12.4</ele>
        <time>2025-01-28T13:50:44Z</time>
      </trkpt>
      <trkpt lat="47.62408" lon="-2.86002">
        <ele>12.4</ele>
        <time>2025-01-28T13:50:45Z</time>
      </trkpt>
      <trkpt lat="47.62408" lon="-2.86002">
        <ele>12.4</ele>
        <time>2025-01-28T13:50:46Z</time>
      </trkpt>
      <trkpt lat="47.62408" lon="-2.86002">
        <ele>12.4</ele>
        <time>2025-01-28T13:50:47Z</time>
      </trkpt>
      <trkpt lat="47.62408" lon="-2.86002">
        <ele>12.4</ele>
        <time>2025-01-28T13:50:48Z</time>
      </trkpt>
      <trkpt lat="47.62408" lon="-2.86002">
        <ele>12.4</ele>
        <time>2025-01-28T13:50:49Z</time>
      </trkpt>
      <trkpt lat="47.62408" lon="-2.86002">
        <ele>12.4</ele>
        <time>2025-01-28T13:50:50Z</time>
      </trkpt>
      <trkpt lat="47.62408" lon="-2.86002">
        <ele>12.4</ele>
        <time>2025-01-28T13:50:51Z</time>
      </trkpt>
      <trkpt lat="47.62408" lon="-2.86002">
        <ele>12.4</ele>
        <time>2025-01-28T13:50:52Z</time>
      </trkpt>
      <trkpt lat="47.62408" lon="-2.86002">
        <ele>12.4</ele>
        <time>2025-01-28T13:50:53Z</time>
      </trkpt>
      <trkpt lat="47.62408" lon="-2.86002">
        <ele>12.4</ele>
        <time>2025-01-28T13:50:54Z</time>
      </trkpt>
      <trkpt lat="47.62408" lon="-2.86002">
        <ele>12.4</ele>
        <time>2025-01-28T13:50:55Z</time>
      </trkpt>
      <trkpt lat="47.62408" lon="-2.86002">
        <ele>12.4</ele>
        <time>2025-01-28T13:50:56Z</time>
      </trkpt>
      <trkpt lat="47.62408" lon="-2.86002">
        <ele>12.4</ele>
        <time>2025-01-28T13:50:57Z</time>
      </trkpt>
      <trkpt lat="47.62408" lon="-2.86002">
        <ele>12.4</ele>
        <time>2025-01-28T13:50:58Z</time>
      </trkpt>
      <trkpt lat="47.62408" lon="-2.86002">
        <ele>12.4</ele>
        <time>2025-01-28T13:50:59Z</time>
      </trkpt>
      <trkpt lat="47.62408" lon="-2.86002">
        <ele>12.4</ele>
        <time>2025-01-28T13:51:00Z</time>
      </trkpt>
      <trkpt lat="47.62408" lon="-2.86002">
        <ele>12.4</ele>
        <time>2025-01-28T13:51:01Z</time>
      </trkpt>
      <trkpt lat="47.62408" lon="-2.86002">
        <ele>12.4</ele>
        <time>2025-01-28T13:51:02Z</time>
      </trkpt>
      <trkpt lat="47.62408" lon="-2.86002">
        <ele>12.4</ele>
        <time>2025-01-28T13:51:03Z</time>
      </trkpt>
      <trkpt lat="47.62408" lon="-2.86002">
        <ele>12.4</ele>
        <time>2025-01-28T13:51:04Z</time>
      </trkpt>
      <trkpt lat="47.62408" lon="-2.86002">
        <ele>12.4</ele>
        <time>2025-01-28T13:51:05Z</time>
      </trkpt>
      <trkpt lat="47.62408" lon="-2.86002">
        <ele>12.4</ele>
        <time>2025-01-28T13:51:06Z</time>
      </trkpt>
      <trkpt lat="47.62408" lon="-2.86002">
        <ele>12.4</ele>
        <time>2025-01-28T13:51:07Z</time>
      </trkpt>
      <trkpt lat="47.62408" lon="-2.86002">
        <ele>12.4</ele>
        <time>2025-01-28T13:51:08Z</time>
      </trkpt>
      <trkpt lat="47.62408" lon="-2.86001">
        <ele>12.4</ele>
        <time>2025-01-28T13:51:09Z</time>
      </trkpt>
      <trkpt lat="47.62408" lon="-2.86">
        <ele>12.4</ele>
        <time>2025-01-28T13:51:10Z</time>
      </trkpt>
      <trkpt lat="47.6241" lon="-2.86001">
        <ele>12.5</ele>
        <time>2025-01-28T13:51:11Z</time>
      </trkpt>
      <trkpt lat="47.6241" lon="-2.86">
        <ele>12.5</ele>
        <time>2025-01-28T13:51:12Z</time>
      </trkpt>
      <trkpt lat="47.6241" lon="-2.85999">
        <ele>12.5</ele>
        <time>2025-01-28T13:51:13Z</time>
      </trkpt>
      <trkpt lat="47.62411" lon="-2.85998">
        <ele>12.5</ele>
        <time>2025-01-28T13:51:14Z</time>
      </trkpt>
      <trkpt lat="47.62412" lon="-2.85996">
        <ele>12.5</ele>
        <time>2025-01-28T13:51:15Z</time>
      </trkpt>
      <trkpt lat="47.62412" lon="-2.85995">
        <ele>12.5</ele>
        <time>2025-01-28T13:51:16Z</time>
      </trkpt>
      <trkpt lat="47.62413" lon="-2.85994">
        <ele>12.5</ele>
        <time>2025-01-28T13:51:17Z</time>
      </trkpt>
      <trkpt lat="47.62414" lon="-2.85993">
        <ele>12.5</ele>
        <time>2025-01-28T13:51:18Z</time>
      </trkpt>
      <trkpt lat="47.62414" lon="-2.85992">
        <ele>12.5</ele>
        <time>2025-01-28T13:51:19Z</time>
      </trkpt>
      <trkpt lat="47.62415" lon="-2.8599">
        <ele>12.6</ele>
        <time>2025-01-28T13:51:20Z</time>
      </trkpt>
      <trkpt lat="47.62416" lon="-2.85989">
        <ele>12.5</ele>
        <time>2025-01-28T13:51:21Z</time>
      </trkpt>
      <trkpt lat="47.62417" lon="-2.85987">
        <ele>12.5</ele>
        <time>2025-01-28T13:51:22Z</time>
      </trkpt>
      <trkpt lat="47.62418" lon="-2.85986">
        <ele>12.5</ele>
        <time>2025-01-28T13:51:23Z</time>
      </trkpt>
      <trkpt lat="47.62418" lon="-2.85985">
        <ele>12.4</ele>
        <time>2025-01-28T13:51:24Z</time>
      </trkpt>
      <trkpt lat="47.62419" lon="-2.85983">
        <ele>12.4</ele>
        <time>2025-01-28T13:51:25Z</time>
      </trkpt>
      <trkpt lat="47.6242" lon="-2.85982">
        <ele>12.3</ele>
        <time>2025-01-28T13:51:26Z</time>
      </trkpt>
      <trkpt lat="47.62421" lon="-2.85981">
        <ele>12.3</ele>
        <time>2025-01-28T13:51:27Z</time>
      </trkpt>
      <trkpt lat="47.62421" lon="-2.85979">
        <ele>12.2</ele>
        <time>2025-01-28T13:51:28Z</time>
      </trkpt>
      <trkpt lat="47.62422" lon="-2.85978">
        <ele>12.2</ele>
        <time>2025-01-28T13:51:29Z</time>
      </trkpt>
      <trkpt lat="47.62423" lon="-2.85977">
        <ele>12.2</ele>
        <time>2025-01-28T13:51:30Z</time>
      </trkpt>
      <trkpt lat="47.62423" lon="-2.85975">
        <ele>12.1</ele>
        <time>2025-01-28T13:51:31Z</time>
      </trkpt>
      <trkpt lat="47.62424" lon="-2.85973">
        <ele>12</ele>
        <time>2025-01-28T13:51:32Z</time>
      </trkpt>
      <trkpt lat="47.62425" lon="-2.85972">
        <ele>12</ele>
        <time>2025-01-28T13:51:33Z</time>
      </trkpt>
      <trkpt lat="47.62426" lon="-2.85971">
        <ele>12</ele>
        <time>2025-01-28T13:51:34Z</time>
      </trkpt>
      <trkpt lat="47.62427" lon="-2.8597">
        <ele>11.9</ele>
        <time>2025-01-28T13:51:35Z</time>
      </trkpt>
      <trkpt lat="47.62428" lon="-2.85968">
        <ele>11.9</ele>
        <time>2025-01-28T13:51:36Z</time>
      </trkpt>
      <trkpt lat="47.62429" lon="-2.85967">
        <ele>11.9</ele>
        <time>2025-01-28T13:51:37Z</time>
      </trkpt>
      <trkpt lat="47.62429" lon="-2.85966">
        <ele>11.9</ele>
        <time>2025-01-28T13:51:38Z</time>
      </trkpt>
      <trkpt lat="47.6243" lon="-2.85965">
        <ele>11.9</ele>
        <time>2025-01-28T13:51:39Z</time>
      </trkpt>
      <trkpt lat="47.62431" lon="-2.85964">
        <ele>11.9</ele>
        <time>2025-01-28T13:51:40Z</time>
      </trkpt>
      <trkpt lat="47.62432" lon="-2.85962">
        <ele>11.8</ele>
        <time>2025-01-28T13:51:41Z</time>
      </trkpt>
      <trkpt lat="47.62433" lon="-2.8596">
        <ele>11.8</ele>
        <time>2025-01-28T13:51:42Z</time>
      </trkpt>
      <trkpt lat="47.62434" lon="-2.85959">
        <ele>11.8</ele>
        <time>2025-01-28T13:51:43Z</time>
      </trkpt>
      <trkpt lat="47.62434" lon="-2.85957">
        <ele>11.8</ele>
        <time>2025-01-28T13:51:44Z</time>
      </trkpt>
      <trkpt lat="47.62435" lon="-2.85956">
        <ele>11.8</ele>
        <time>2025-01-28T13:51:45Z</time>
      </trkpt>
      <trkpt lat="47.62436" lon="-2.85955">
        <ele>11.8</ele>
        <time>2025-01-28T13:51:46Z</time>
      </trkpt>
      <trkpt lat="47.62437" lon="-2.85954">
        <ele>11.8</ele>
        <time>2025-01-28T13:51:47Z</time>
      </trkpt>
      <trkpt lat="47.62438" lon="-2.85953">
        <ele>11.9</ele>
        <time>2025-01-28T13:51:48Z</time>
      </trkpt>
      <trkpt lat="47.6244" lon="-2.85953">
        <ele>11.9</ele>
        <time>2025-01-28T13:51:49Z</time>
      </trkpt>
      <trkpt lat="47.62441" lon="-2.85952">
        <ele>11.9</ele>
        <time>2025-01-28T13:51:50Z</time>
      </trkpt>
      <trkpt lat="47.62442" lon="-2.85951">
        <ele>11.9</ele>
        <time>2025-01-28T13:51:51Z</time>
      </trkpt>
      <trkpt lat="47.62443" lon="-2.85951">
        <ele>12</ele>
        <time>2025-01-28T13:51:52Z</time>
      </trkpt>
      <trkpt lat="47.62444" lon="-2.8595">
        <ele>12</ele>
        <time>2025-01-28T13:51:53Z</time>
      </trkpt>
      <trkpt lat="47.62445" lon="-2.85949">
        <ele>12</ele>
        <time>2025-01-28T13:51:54Z</time>
      </trkpt>
      <trkpt lat="47.62446" lon="-2.85948">
        <ele>12.1</ele>
        <time>2025-01-28T13:51:55Z</time>
      </trkpt>
      <trkpt lat="47.62447" lon="-2.85947">
        <ele>12.1</ele>
        <time>2025-01-28T13:51:56Z</time>
      </trkpt>
      <trkpt lat="47.62448" lon="-2.85946">
        <ele>12.1</ele>
        <time>2025-01-28T13:51:57Z</time>
      </trkpt>
      <trkpt lat="47.62449" lon="-2.85945">
        <ele>12.2</ele>
        <time>2025-01-28T13:51:58Z</time>
      </trkpt>
      <trkpt lat="47.6245" lon="-2.85944">
        <ele>12.2</ele>
        <time>2025-01-28T13:51:59Z</time>
      </trkpt>
      <trkpt lat="47.62451" lon="-2.85943">
        <ele>12.2</ele>
        <time>2025-01-28T13:52:00Z</time>
      </trkpt>
      <trkpt lat="47.62452" lon="-2.85942">
        <ele>12.3</ele>
        <time>2025-01-28T13:52:01Z</time>
      </trkpt>
      <trkpt lat="47.62453" lon="-2.85942">
        <ele>12.3</ele>
        <time>2025-01-28T13:52:02Z</time>
      </trkpt>
      <trkpt lat="47.62454" lon="-2.8594">
        <ele>12.3</ele>
        <time>2025-01-28T13:52:03Z</time>
      </trkpt>
      <trkpt lat="47.62455" lon="-2.85939">
        <ele>12.4</ele>
        <time>2025-01-28T13:52:04Z</time>
      </trkpt>
      <trkpt lat="47.62455" lon="-2.85938">
        <ele>12.4</ele>
        <time>2025-01-28T13:52:05Z</time>
      </trkpt>
      <trkpt lat="47.62456" lon="-2.85937">
        <ele>12.4</ele>
        <time>2025-01-28T13:52:06Z</time>
      </trkpt>
      <trkpt lat="47.62456" lon="-2.85935">
        <ele>12.4</ele>
        <time>2025-01-28T13:52:07Z</time>
      </trkpt>
      <trkpt lat="47.62458" lon="-2.85934">
        <ele>12.5</ele>
        <time>2025-01-28T13:52:08Z</time>
      </trkpt>
      <trkpt lat="47.62459" lon="-2.85933">
        <ele>12.5</ele>
        <time>2025-01-28T13:52:09Z</time>
      </trkpt>
      <trkpt lat="47.6246" lon="-2.85932">
        <ele>12.5</ele>
        <time>2025-01-28T13:52:10Z</time>
      </trkpt>
      <trkpt lat="47.6246" lon="-2.8593">
        <ele>12.6</ele>
        <time>2025-01-28T13:52:11Z</time>
      </trkpt>
      <trkpt lat="47.62461" lon="-2.85928">
        <ele>12.6</ele>
        <time>2025-01-28T13:52:12Z</time>
      </trkpt>
      <trkpt lat="47.62461" lon="-2.85927">
        <ele>12.6</ele>
        <time>2025-01-28T13:52:13Z</time>
      </trkpt>
      <trkpt lat="47.62462" lon="-2.85925">
        <ele>12.6</ele>
        <time>2025-01-28T13:52:14Z</time>
      </trkpt>
      <trkpt lat="47.62463" lon="-2.85924">
        <ele>12.7</ele>
        <time>2025-01-28T13:52:15Z</time>
      </trkpt>
      <trkpt lat="47.62463" lon="-2.85922">
        <ele>12.7</ele>
        <time>2025-01-28T13:52:16Z</time>
      </trkpt>
      <trkpt lat="47.62464" lon="-2.85921">
        <ele>12.7</ele>
        <time>2025-01-28T13:52:17Z</time>
      </trkpt>
      <trkpt lat="47.62465" lon="-2.8592">
        <ele>12.7</ele>
        <time>2025-01-28T13:52:18Z</time>
      </trkpt>
      <trkpt lat="47.62465" lon="-2.85919">
        <ele>12.7</ele>
        <time>2025-01-28T13:52:19Z</time>
      </trkpt>
      <trkpt lat="47.62466" lon="-2.85918">
        <ele>12.8</ele>
        <time>2025-01-28T13:52:20Z</time>
      </trkpt>
      <trkpt lat="47.62467" lon="-2.85916">
        <ele>12.8</ele>
        <time>2025-01-28T13:52:21Z</time>
      </trkpt>
      <trkpt lat="47.62468" lon="-2.85915">
        <ele>12.9</ele>
        <time>2025-01-28T13:52:22Z</time>
      </trkpt>
      <trkpt lat="47.6247" lon="-2.85914">
        <ele>12.9</ele>
        <time>2025-01-28T13:52:23Z</time>
      </trkpt>
      <trkpt lat="47.62471" lon="-2.85913">
        <ele>12.9</ele>
        <time>2025-01-28T13:52:24Z</time>
      </trkpt>
      <trkpt lat="47.62472" lon="-2.85912">
        <ele>13</ele>
        <time>2025-01-28T13:52:25Z</time>
      </trkpt>
      <trkpt lat="47.62473" lon="-2.85911">
        <ele>13</ele>
        <time>2025-01-28T13:52:26Z</time>
      </trkpt>
      <trkpt lat="47.62474" lon="-2.8591">
        <ele>13.1</ele>
        <time>2025-01-28T13:52:27Z</time>
      </trkpt>
      <trkpt lat="47.62475" lon="-2.85909">
        <ele>13.1</ele>
        <time>2025-01-28T13:52:28Z</time>
      </trkpt>
      <trkpt lat="47.62475" lon="-2.85907">
        <ele>13.1</ele>
        <time>2025-01-28T13:52:29Z</time>
      </trkpt>
      <trkpt lat="47.62476" lon="-2.85906">
        <ele>13.2</ele>
        <time>2025-01-28T13:52:30Z</time>
      </trkpt>
      <trkpt lat="47.62477" lon="-2.85905">
        <ele>13.2</ele>
        <time>2025-01-28T13:52:31Z</time>
      </trkpt>
      <trkpt lat="47.62477" lon="-2.85904">
        <ele>13.3</ele>
        <time>2025-01-28T13:52:32Z</time>
      </trkpt>
      <trkpt lat="47.62478" lon="-2.85903">
        <ele>13.3</ele>
        <time>2025-01-28T13:52:33Z</time>
      </trkpt>
      <trkpt lat="47.62479" lon="-2.85901">
        <ele>13.4</ele>
        <time>2025-01-28T13:52:34Z</time>
      </trkpt>
      <trkpt lat="47.6248" lon="-2.85899">
        <ele>13.4</ele>
        <time>2025-01-28T13:52:35Z</time>
      </trkpt>
      <trkpt lat="47.62481" lon="-2.85897">
        <ele>13.5</ele>
        <time>2025-01-28T13:52:36Z</time>
      </trkpt>
      <trkpt lat="47.62481" lon="-2.85896">
        <ele>13.6</ele>
        <time>2025-01-28T13:52:37Z</time>
      </trkpt>
      <trkpt lat="47.62482" lon="-2.85894">
        <ele>13.7</ele>
        <time>2025-01-28T13:52:38Z</time>
      </trkpt>
      <trkpt lat="47.62483" lon="-2.85892">
        <ele>13.7</ele>
        <time>2025-01-28T13:52:39Z</time>
      </trkpt>
      <trkpt lat="47.62483" lon="-2.8589">
        <ele>13.8</ele>
        <time>2025-01-28T13:52:40Z</time>
      </trkpt>
      <trkpt lat="47.62484" lon="-2.85889">
        <ele>13.8</ele>
        <time>2025-01-28T13:52:41Z</time>
      </trkpt>
      <trkpt lat="47.62484" lon="-2.85887">
        <ele>13.8</ele>
        <time>2025-01-28T13:52:42Z</time>
      </trkpt>
      <trkpt lat="47.62485" lon="-2.85886">
        <ele>13.9</ele>
        <time>2025-01-28T13:52:43Z</time>
      </trkpt>
      <trkpt lat="47.62486" lon="-2.85884">
        <ele>13.9</ele>
        <time>2025-01-28T13:52:44Z</time>
      </trkpt>
      <trkpt lat="47.62486" lon="-2.85882">
        <ele>13.9</ele>
        <time>2025-01-28T13:52:45Z</time>
      </trkpt>
      <trkpt lat="47.62487" lon="-2.85881">
        <ele>13.9</ele>
        <time>2025-01-28T13:52:46Z</time>
      </trkpt>
      <trkpt lat="47.62488" lon="-2.85879">
        <ele>13.9</ele>
        <time>2025-01-28T13:52:47Z</time>
      </trkpt>
      <trkpt lat="47.62488" lon="-2.85878">
        <ele>13.9</ele>
        <time>2025-01-28T13:52:48Z</time>
      </trkpt>
      <trkpt lat="47.62489" lon="-2.85876">
        <ele>13.9</ele>
        <time>2025-01-28T13:52:49Z</time>
      </trkpt>
      <trkpt lat="47.6249" lon="-2.85875">
        <ele>13.9</ele>
        <time>2025-01-28T13:52:50Z</time>
      </trkpt>
      <trkpt lat="47.6249" lon="-2.85873">
        <ele>13.9</ele>
        <time>2025-01-28T13:52:51Z</time>
      </trkpt>
      <trkpt lat="47.62491" lon="-2.85872">
        <ele>13.9</ele>
        <time>2025-01-28T13:52:52Z</time>
      </trkpt>
      <trkpt lat="47.62492" lon="-2.8587">
        <ele>13.9</ele>
        <time>2025-01-28T13:52:53Z</time>
      </trkpt>
      <trkpt lat="47.62492" lon="-2.85869">
        <ele>13.9</ele>
        <time>2025-01-28T13:52:54Z</time>
      </trkpt>
      <trkpt lat="47.62493" lon="-2.85867">
        <ele>13.9</ele>
        <time>2025-01-28T13:52:55Z</time>
      </trkpt>
      <trkpt lat="47.62494" lon="-2.85866">
        <ele>13.9</ele>
        <time>2025-01-28T13:52:56Z</time>
      </trkpt>
      <trkpt lat="47.62494" lon="-2.85864">
        <ele>13.9</ele>
        <time>2025-01-28T13:52:57Z</time>
      </trkpt>
      <trkpt lat="47.62495" lon="-2.85863">
        <ele>13.9</ele>
        <time>2025-01-28T13:52:58Z</time>
      </trkpt>
      <trkpt lat="47.62496" lon="-2.85861">
        <ele>13.9</ele>
        <time>2025-01-28T13:52:59Z</time>
      </trkpt>
      <trkpt lat="47.62497" lon="-2.85859">
        <ele>13.9</ele>
        <time>2025-01-28T13:53:00Z</time>
      </trkpt>
      <trkpt lat="47.62497" lon="-2.85857">
        <ele>13.9</ele>
        <time>2025-01-28T13:53:01Z</time>
      </trkpt>
      <trkpt lat="47.62498" lon="-2.85855">
        <ele>13.9</ele>
        <time>2025-01-28T13:53:02Z</time>
      </trkpt>
      <trkpt lat="47.62499" lon="-2.85854">
        <ele>14</ele>
        <time>2025-01-28T13:53:03Z</time>
      </trkpt>
      <trkpt lat="47.625" lon="-2.85852">
        <ele>14</ele>
        <time>2025-01-28T13:53:04Z</time>
      </trkpt>
      <trkpt lat="47.62501" lon="-2.85851">
        <ele>14</ele>
        <time>2025-01-28T13:53:05Z</time>
      </trkpt>
      <trkpt lat="47.62501" lon="-2.85849">
        <ele>14.1</ele>
        <time>2025-01-28T13:53:06Z</time>
      </trkpt>
      <trkpt lat="47.62502" lon="-2.85848">
        <ele>14.1</ele>
        <time>2025-01-28T13:53:07Z</time>
      </trkpt>
      <trkpt lat="47.62503" lon="-2.85846">
        <ele>14.2</ele>
        <time>2025-01-28T13:53:08Z</time>
      </trkpt>
      <trkpt lat="47.62504" lon="-2.85845">
        <ele>14.2</ele>
        <time>2025-01-28T13:53:09Z</time>
      </trkpt>
      <trkpt lat="47.62505" lon="-2.85843">
        <ele>14.2</ele>
        <time>2025-01-28T13:53:10Z</time>
      </trkpt>
      <trkpt lat="47.62505" lon="-2.85842">
        <ele>14.3</ele>
        <time>2025-01-28T13:53:11Z</time>
      </trkpt>
      <trkpt lat="47.62506" lon="-2.8584">
        <ele>14.3</ele>
        <time>2025-01-28T13:53:12Z</time>
      </trkpt>
      <trkpt lat="47.62507" lon="-2.85838">
        <ele>14.3</ele>
        <time>2025-01-28T13:53:13Z</time>
      </trkpt>
      <trkpt lat="47.62507" lon="-2.85836">
        <ele>14.3</ele>
        <time>2025-01-28T13:53:14Z</time>
      </trkpt>
      <trkpt lat="47.62508" lon="-2.85834">
        <ele>14.3</ele>
        <time>2025-01-28T13:53:15Z</time>
      </trkpt>
      <trkpt lat="47.62509" lon="-2.85833">
        <ele>14.3</ele>
        <time>2025-01-28T13:53:16Z</time>
      </trkpt>
      <trkpt lat="47.6251" lon="-2.85831">
        <ele>14.3</ele>
        <time>2025-01-28T13:53:17Z</time>
      </trkpt>
      <trkpt lat="47.62511" lon="-2.85829">
        <ele>14.4</ele>
        <time>2025-01-28T13:53:18Z</time>
      </trkpt>
      <trkpt lat="47.62512" lon="-2.85828">
        <ele>14.4</ele>
        <time>2025-01-28T13:53:19Z</time>
      </trkpt>
      <trkpt lat="47.62512" lon="-2.85826">
        <ele>14.4</ele>
        <time>2025-01-28T13:53:20Z</time>
      </trkpt>
      <trkpt lat="47.62513" lon="-2.85824">
        <ele>14.5</ele>
        <time>2025-01-28T13:53:21Z</time>
      </trkpt>
      <trkpt lat="47.62514" lon="-2.85822">
        <ele>14.5</ele>
        <time>2025-01-28T13:53:22Z</time>
      </trkpt>
      <trkpt lat="47.62515" lon="-2.85821">
        <ele>14.5</ele>
        <time>2025-01-28T13:53:23Z</time>
      </trkpt>
      <trkpt lat="47.62516" lon="-2.8582">
        <ele>14.6</ele>
        <time>2025-01-28T13:53:24Z</time>
      </trkpt>
      <trkpt lat="47.62517" lon="-2.85818">
        <ele>14.6</ele>
        <time>2025-01-28T13:53:25Z</time>
      </trkpt>
      <trkpt lat="47.62518" lon="-2.85817">
        <ele>14.6</ele>
        <time>2025-01-28T13:53:26Z</time>
      </trkpt>
      <trkpt lat="47.62518" lon="-2.85815">
        <ele>14.6</ele>
        <time>2025-01-28T13:53:27Z</time>
      </trkpt>
      <trkpt lat="47.62518" lon="-2.85813">
        <ele>14.7</ele>
        <time>2025-01-28T13:53:28Z</time>
      </trkpt>
      <trkpt lat="47.62518" lon="-2.85812">
        <ele>14.7</ele>
        <time>2025-01-28T13:53:29Z</time>
      </trkpt>
      <trkpt lat="47.62519" lon="-2.8581">
        <ele>14.7</ele>
        <time>2025-01-28T13:53:30Z</time>
      </trkpt>
      <trkpt lat="47.62519" lon="-2.85809">
        <ele>14.7</ele>
        <time>2025-01-28T13:53:31Z</time>
      </trkpt>
      <trkpt lat="47.62519" lon="-2.85807">
        <ele>14.7</ele>
        <time>2025-01-28T13:53:32Z</time>
      </trkpt>
      <trkpt lat="47.62519" lon="-2.85808">
        <ele>14.7</ele>
        <time>2025-01-28T13:53:33Z</time>
      </trkpt>
      <trkpt lat="47.62519" lon="-2.85809">
        <ele>14.7</ele>
        <time>2025-01-28T13:53:34Z</time>
      </trkpt>
      <trkpt lat="47.62519" lon="-2.85809">
        <ele>14.7</ele>
        <time>2025-01-28T13:53:35Z</time>
      </trkpt>
      <trkpt lat="47.62519" lon="-2.85809">
        <ele>14.7</ele>
        <time>2025-01-28T13:53:36Z</time>
      </trkpt>
      <trkpt lat="47.62519" lon="-2.85807">
        <ele>14.7</ele>
        <time>2025-01-28T13:53:37Z</time>
      </trkpt>
      <trkpt lat="47.6252" lon="-2.85807">
        <ele>14.7</ele>
        <time>2025-01-28T13:53:38Z</time>
      </trkpt>
      <trkpt lat="47.62521" lon="-2.85806">
        <ele>14.7</ele>
        <time>2025-01-28T13:53:39Z</time>
      </trkpt>
      <trkpt lat="47.62521" lon="-2.85807">
        <ele>14.7</ele>
        <time>2025-01-28T13:53:40Z</time>
      </trkpt>
      <trkpt lat="47.62521" lon="-2.85807">
        <ele>14.7</ele>
        <time>2025-01-28T13:53:41Z</time>
      </trkpt>
      <trkpt lat="47.62521" lon="-2.85807">
        <ele>14.7</ele>
        <time>2025-01-28T13:53:42Z</time>
      </trkpt>
      <trkpt lat="47.6252" lon="-2.85807">
        <ele>14.7</ele>
        <time>2025-01-28T13:53:43Z</time>
      </trkpt>
      <trkpt lat="47.6252" lon="-2.85809">
        <ele>14.7</ele>
        <time>2025-01-28T13:53:44Z</time>
      </trkpt>
      <trkpt lat="47.6252" lon="-2.85807">
        <ele>14.7</ele>
        <time>2025-01-28T13:53:45Z</time>
      </trkpt>
      <trkpt lat="47.62521" lon="-2.85805">
        <ele>14.7</ele>
        <time>2025-01-28T13:53:46Z</time>
      </trkpt>
      <trkpt lat="47.62521" lon="-2.85804">
        <ele>14.8</ele>
        <time>2025-01-28T13:53:47Z</time>
      </trkpt>
      <trkpt lat="47.62522" lon="-2.85803">
        <ele>14.8</ele>
        <time>2025-01-28T13:53:48Z</time>
      </trkpt>
      <trkpt lat="47.62523" lon="-2.858">
        <ele>14.8</ele>
        <time>2025-01-28T13:53:49Z</time>
      </trkpt>
      <trkpt lat="47.62523" lon="-2.85799">
        <ele>14.8</ele>
        <time>2025-01-28T13:53:50Z</time>
      </trkpt>
      <trkpt lat="47.62524" lon="-2.85798">
        <ele>14.9</ele>
        <time>2025-01-28T13:53:51Z</time>
      </trkpt>
      <trkpt lat="47.62525" lon="-2.85797">
        <ele>14.9</ele>
        <time>2025-01-28T13:53:52Z</time>
      </trkpt>
      <trkpt lat="47.62525" lon="-2.85795">
        <ele>14.9</ele>
        <time>2025-01-28T13:53:53Z</time>
      </trkpt>
      <trkpt lat="47.62526" lon="-2.85793">
        <ele>14.9</ele>
        <time>2025-01-28T13:53:54Z</time>
      </trkpt>
      <trkpt lat="47.62527" lon="-2.85792">
        <ele>15</ele>
        <time>2025-01-28T13:53:55Z</time>
      </trkpt>
      <trkpt lat="47.62528" lon="-2.85791">
        <ele>15</ele>
        <time>2025-01-28T13:53:56Z</time>
      </trkpt>
      <trkpt lat="47.62529" lon="-2.8579">
        <ele>15.1</ele>
        <time>2025-01-28T13:53:57Z</time>
      </trkpt>
      <trkpt lat="47.6253" lon="-2.85788">
        <ele>15.2</ele>
        <time>2025-01-28T13:53:58Z</time>
      </trkpt>
      <trkpt lat="47.62531" lon="-2.85787">
        <ele>15.2</ele>
        <time>2025-01-28T13:53:59Z</time>
      </trkpt>
      <trkpt lat="47.62532" lon="-2.85786">
        <ele>15.3</ele>
        <time>2025-01-28T13:54:00Z</time>
      </trkpt>
      <trkpt lat="47.62533" lon="-2.85784">
        <ele>15.3</ele>
        <time>2025-01-28T13:54:01Z</time>
      </trkpt>
      <trkpt lat="47.62533" lon="-2.85783">
        <ele>15.4</ele>
        <time>2025-01-28T13:54:02Z</time>
      </trkpt>
      <trkpt lat="47.62534" lon="-2.85781">
        <ele>15.4</ele>
        <time>2025-01-28T13:54:03Z</time>
      </trkpt>
      <trkpt lat="47.62535" lon="-2.85779">
        <ele>15.5</ele>
        <time>2025-01-28T13:54:04Z</time>
      </trkpt>
      <trkpt lat="47.62536" lon="-2.85777">
        <ele>15.6</ele>
        <time>2025-01-28T13:54:05Z</time>
      </trkpt>
      <trkpt lat="47.62537" lon="-2.85776">
        <ele>15.6</ele>
        <time>2025-01-28T13:54:06Z</time>
      </trkpt>
      <trkpt lat="47.62538" lon="-2.85774">
        <ele>15.7</ele>
        <time>2025-01-28T13:54:07Z</time>
      </trkpt>
      <trkpt lat="47.62539" lon="-2.85773">
        <ele>15.7</ele>
        <time>2025-01-28T13:54:08Z</time>
      </trkpt>
      <trkpt lat="47.6254" lon="-2.85771">
        <ele>15.7</ele>
        <time>2025-01-28T13:54:09Z</time>
      </trkpt>
      <trkpt lat="47.62541" lon="-2.85769">
        <ele>15.8</ele>
        <time>2025-01-28T13:54:10Z</time>
      </trkpt>
      <trkpt lat="47.62542" lon="-2.85768">
        <ele>15.8</ele>
        <time>2025-01-28T13:54:11Z</time>
      </trkpt>
      <trkpt lat="47.62542" lon="-2.85766">
        <ele>15.8</ele>
        <time>2025-01-28T13:54:12Z</time>
      </trkpt>
      <trkpt lat="47.62543" lon="-2.85764">
        <ele>15.8</ele>
        <time>2025-01-28T13:54:13Z</time>
      </trkpt>
      <trkpt lat="47.62543" lon="-2.85763">
        <ele>15.8</ele>
        <time>2025-01-28T13:54:14Z</time>
      </trkpt>
      <trkpt lat="47.62544" lon="-2.85761">
        <ele>15.8</ele>
        <time>2025-01-28T13:54:15Z</time>
      </trkpt>
      <trkpt lat="47.62545" lon="-2.8576">
        <ele>15.8</ele>
        <time>2025-01-28T13:54:16Z</time>
      </trkpt>
      <trkpt lat="47.62545" lon="-2.85758">
        <ele>15.8</ele>
        <time>2025-01-28T13:54:17Z</time>
      </trkpt>
      <trkpt lat="47.62546" lon="-2.85756">
        <ele>15.8</ele>
        <time>2025-01-28T13:54:18Z</time>
      </trkpt>
      <trkpt lat="47.62546" lon="-2.85754">
        <ele>15.8</ele>
        <time>2025-01-28T13:54:19Z</time>
      </trkpt>
      <trkpt lat="47.62547" lon="-2.85753">
        <ele>15.8</ele>
        <time>2025-01-28T13:54:20Z</time>
      </trkpt>
      <trkpt lat="47.62548" lon="-2.85751">
        <ele>15.7</ele>
        <time>2025-01-28T13:54:21Z</time>
      </trkpt>
      <trkpt lat="47.62548" lon="-2.8575">
        <ele>15.7</ele>
        <time>2025-01-28T13:54:22Z</time>
      </trkpt>
      <trkpt lat="47.62549" lon="-2.85748">
        <ele>15.8</ele>
        <time>2025-01-28T13:54:23Z</time>
      </trkpt>
      <trkpt lat="47.6255" lon="-2.85747">
        <ele>15.8</ele>
        <time>2025-01-28T13:54:24Z</time>
      </trkpt>
      <trkpt lat="47.62551" lon="-2.85745">
        <ele>15.8</ele>
        <time>2025-01-28T13:54:25Z</time>
      </trkpt>
      <trkpt lat="47.62551" lon="-2.85744">
        <ele>15.8</ele>
        <time>2025-01-28T13:54:26Z</time>
      </trkpt>
      <trkpt lat="47.62552" lon="-2.85742">
        <ele>15.9</ele>
        <time>2025-01-28T13:54:27Z</time>
      </trkpt>
      <trkpt lat="47.62552" lon="-2.85741">
        <ele>15.9</ele>
        <time>2025-01-28T13:54:28Z</time>
      </trkpt>
      <trkpt lat="47.62553" lon="-2.85739">
        <ele>15.9</ele>
        <time>2025-01-28T13:54:29Z</time>
      </trkpt>
      <trkpt lat="47.62554" lon="-2.85738">
        <ele>16</ele>
        <time>2025-01-28T13:54:30Z</time>
      </trkpt>
      <trkpt lat="47.62555" lon="-2.85736">
        <ele>16</ele>
        <time>2025-01-28T13:54:31Z</time>
      </trkpt>
      <trkpt lat="47.62556" lon="-2.85735">
        <ele>16</ele>
        <time>2025-01-28T13:54:32Z</time>
      </trkpt>
      <trkpt lat="47.62557" lon="-2.85734">
        <ele>16</ele>
        <time>2025-01-28T13:54:33Z</time>
      </trkpt>
      <trkpt lat="47.62558" lon="-2.85732">
        <ele>16.1</ele>
        <time>2025-01-28T13:54:34Z</time>
      </trkpt>
      <trkpt lat="47.62559" lon="-2.85731">
        <ele>16.1</ele>
        <time>2025-01-28T13:54:35Z</time>
      </trkpt>
      <trkpt lat="47.6256" lon="-2.85729">
        <ele>16.1</ele>
        <time>2025-01-28T13:54:36Z</time>
      </trkpt>
      <trkpt lat="47.6256" lon="-2.85728">
        <ele>16.2</ele>
        <time>2025-01-28T13:54:37Z</time>
      </trkpt>
      <trkpt lat="47.62561" lon="-2.85725">
        <ele>16.2</ele>
        <time>2025-01-28T13:54:38Z</time>
      </trkpt>
      <trkpt lat="47.62562" lon="-2.85724">
        <ele>16.2</ele>
        <time>2025-01-28T13:54:39Z</time>
      </trkpt>
      <trkpt lat="47.62563" lon="-2.85723">
        <ele>16.3</ele>
        <time>2025-01-28T13:54:40Z</time>
      </trkpt>
      <trkpt lat="47.62564" lon="-2.85721">
        <ele>16.3</ele>
        <time>2025-01-28T13:54:41Z</time>
      </trkpt>
      <trkpt lat="47.62565" lon="-2.85719">
        <ele>16.3</ele>
        <time>2025-01-28T13:54:42Z</time>
      </trkpt>
      <trkpt lat="47.62566" lon="-2.85717">
        <ele>16.4</ele>
        <time>2025-01-28T13:54:43Z</time>
      </trkpt>
      <trkpt lat="47.62567" lon="-2.85716">
        <ele>16.4</ele>
        <time>2025-01-28T13:54:44Z</time>
      </trkpt>
      <trkpt lat="47.62567" lon="-2.85714">
        <ele>16.4</ele>
        <time>2025-01-28T13:54:45Z</time>
      </trkpt>
      <trkpt lat="47.62568" lon="-2.85712">
        <ele>16.4</ele>
        <time>2025-01-28T13:54:46Z</time>
      </trkpt>
      <trkpt lat="47.62568" lon="-2.8571">
        <ele>16.4</ele>
        <time>2025-01-28T13:54:47Z</time>
      </trkpt>
      <trkpt lat="47.62567" lon="-2.85708">
        <ele>16.4</ele>
        <time>2025-01-28T13:54:48Z</time>
      </trkpt>
      <trkpt lat="47.62565" lon="-2.85707">
        <ele>16.4</ele>
        <time>2025-01-28T13:54:49Z</time>
      </trkpt>
      <trkpt lat="47.62564" lon="-2.85707">
        <ele>16.3</ele>
        <time>2025-01-28T13:54:50Z</time>
      </trkpt>
      <trkpt lat="47.62563" lon="-2.85705">
        <ele>16.3</ele>
        <time>2025-01-28T13:54:51Z</time>
      </trkpt>
      <trkpt lat="47.62562" lon="-2.85704">
        <ele>16.2</ele>
        <time>2025-01-28T13:54:52Z</time>
      </trkpt>
      <trkpt lat="47.6256" lon="-2.85703">
        <ele>16.2</ele>
        <time>2025-01-28T13:54:53Z</time>
      </trkpt>
      <trkpt lat="47.62559" lon="-2.85703">
        <ele>16.1</ele>
        <time>2025-01-28T13:54:54Z</time>
      </trkpt>
      <trkpt lat="47.62558" lon="-2.85702">
        <ele>16.1</ele>
        <time>2025-01-28T13:54:55Z</time>
      </trkpt>
      <trkpt lat="47.62557" lon="-2.85701">
        <ele>16</ele>
        <time>2025-01-28T13:54:56Z</time>
      </trkpt>
      <trkpt lat="47.62555" lon="-2.857">
        <ele>16</ele>
        <time>2025-01-28T13:54:57Z</time>
      </trkpt>
      <trkpt lat="47.62554" lon="-2.85699">
        <ele>15.9</ele>
        <time>2025-01-28T13:54:58Z</time>
      </trkpt>
      <trkpt lat="47.62553" lon="-2.85698">
        <ele>15.9</ele>
        <time>2025-01-28T13:54:59Z</time>
      </trkpt>
      <trkpt lat="47.62552" lon="-2.85697">
        <ele>15.9</ele>
        <time>2025-01-28T13:55:00Z</time>
      </trkpt>
      <trkpt lat="47.62551" lon="-2.85696">
        <ele>15.8</ele>
        <time>2025-01-28T13:55:01Z</time>
      </trkpt>
      <trkpt lat="47.6255" lon="-2.85695">
        <ele>15.8</ele>
        <time>2025-01-28T13:55:02Z</time>
      </trkpt>
      <trkpt lat="47.62549" lon="-2.85695">
        <ele>15.7</ele>
        <time>2025-01-28T13:55:03Z</time>
      </trkpt>
      <trkpt lat="47.62547" lon="-2.85694">
        <ele>15.7</ele>
        <time>2025-01-28T13:55:04Z</time>
      </trkpt>
      <trkpt lat="47.62546" lon="-2.85692">
        <ele>15.6</ele>
        <time>2025-01-28T13:55:05Z</time>
      </trkpt>
      <trkpt lat="47.62546" lon="-2.8569">
        <ele>15.5</ele>
        <time>2025-01-28T13:55:06Z</time>
      </trkpt>
      <trkpt lat="47.62546" lon="-2.85689">
        <ele>15.4</ele>
        <time>2025-01-28T13:55:07Z</time>
      </trkpt>
      <trkpt lat="47.62545" lon="-2.85687">
        <ele>15.3</ele>
        <time>2025-01-28T13:55:08Z</time>
      </trkpt>
      <trkpt lat="47.62545" lon="-2.85685">
        <ele>15.3</ele>
        <time>2025-01-28T13:55:09Z</time>
      </trkpt>
      <trkpt lat="47.62544" lon="-2.85683">
        <ele>15.2</ele>
        <time>2025-01-28T13:55:10Z</time>
      </trkpt>
      <trkpt lat="47.62543" lon="-2.85681">
        <ele>15.1</ele>
        <time>2025-01-28T13:55:11Z</time>
      </trkpt>
      <trkpt lat="47.62543" lon="-2.8568">
        <ele>15</ele>
        <time>2025-01-28T13:55:12Z</time>
      </trkpt>
      <trkpt lat="47.62542" lon="-2.85678">
        <ele>14.9</ele>
        <time>2025-01-28T13:55:13Z</time>
      </trkpt>
      <trkpt lat="47.62541" lon="-2.85677">
        <ele>14.8</ele>
        <time>2025-01-28T13:55:14Z</time>
      </trkpt>
      <trkpt lat="47.62541" lon="-2.85675">
        <ele>14.8</ele>
        <time>2025-01-28T13:55:15Z</time>
      </trkpt>
      <trkpt lat="47.62541" lon="-2.85673">
        <ele>14.7</ele>
        <time>2025-01-28T13:55:16Z</time>
      </trkpt>
      <trkpt lat="47.62541" lon="-2.85671">
        <ele>14.7</ele>
        <time>2025-01-28T13:55:17Z</time>
      </trkpt>
      <trkpt lat="47.62541" lon="-2.85669">
        <ele>14.6</ele>
        <time>2025-01-28T13:55:18Z</time>
      </trkpt>
      <trkpt lat="47.62541" lon="-2.85668">
        <ele>14.5</ele>
        <time>2025-01-28T13:55:19Z</time>
      </trkpt>
      <trkpt lat="47.6254" lon="-2.85666">
        <ele>14.4</ele>
        <time>2025-01-28T13:55:20Z</time>
      </trkpt>
      <trkpt lat="47.62539" lon="-2.85665">
        <ele>14.4</ele>
        <time>2025-01-28T13:55:21Z</time>
      </trkpt>
      <trkpt lat="47.62539" lon="-2.85663">
        <ele>14.4</ele>
        <time>2025-01-28T13:55:22Z</time>
      </trkpt>
      <trkpt lat="47.62539" lon="-2.85661">
        <ele>14.4</ele>
        <time>2025-01-28T13:55:23Z</time>
      </trkpt>
      <trkpt lat="47.62538" lon="-2.85659">
        <ele>14.4</ele>
        <time>2025-01-28T13:55:24Z</time>
      </trkpt>
      <trkpt lat="47.62538" lon="-2.85657">
        <ele>14.4</ele>
        <time>2025-01-28T13:55:25Z</time>
      </trkpt>
      <trkpt lat="47.62538" lon="-2.85655">
        <ele>14.4</ele>
        <time>2025-01-28T13:55:26Z</time>
      </trkpt>
      <trkpt lat="47.62538" lon="-2.85653">
        <ele>14.3</ele>
        <time>2025-01-28T13:55:27Z</time>
      </trkpt>
      <trkpt lat="47.62538" lon="-2.85651">
        <ele>14.4</ele>
        <time>2025-01-28T13:55:28Z</time>
      </trkpt>
      <trkpt lat="47.62538" lon="-2.85649">
        <ele>14.4</ele>
        <time>2025-01-28T13:55:29Z</time>
      </trkpt>
      <trkpt lat="47.62538" lon="-2.85647">
        <ele>14.4</ele>
        <time>2025-01-28T13:55:30Z</time>
      </trkpt>
      <trkpt lat="47.62538" lon="-2.85645">
        <ele>14.4</ele>
        <time>2025-01-28T13:55:31Z</time>
      </trkpt>
      <trkpt lat="47.62539" lon="-2.85642">
        <ele>14.4</ele>
        <time>2025-01-28T13:55:32Z</time>
      </trkpt>
      <trkpt lat="47.62539" lon="-2.8564">
        <ele>14.4</ele>
        <time>2025-01-28T13:55:33Z</time>
      </trkpt>
      <trkpt lat="47.62538" lon="-2.85639">
        <ele>14.4</ele>
        <time>2025-01-28T13:55:34Z</time>
      </trkpt>
      <trkpt lat="47.62538" lon="-2.85637">
        <ele>14.3</ele>
        <time>2025-01-28T13:55:35Z</time>
      </trkpt>
      <trkpt lat="47.62539" lon="-2.85635">
        <ele>14.3</ele>
        <time>2025-01-28T13:55:36Z</time>
      </trkpt>
      <trkpt lat="47.6254" lon="-2.85633">
        <ele>14.2</ele>
        <time>2025-01-28T13:55:37Z</time>
      </trkpt>
      <trkpt lat="47.6254" lon="-2.85631">
        <ele>14.1</ele>
        <time>2025-01-28T13:55:38Z</time>
      </trkpt>
      <trkpt lat="47.6254" lon="-2.85629">
        <ele>14.1</ele>
        <time>2025-01-28T13:55:39Z</time>
      </trkpt>
      <trkpt lat="47.6254" lon="-2.85627">
        <ele>14</ele>
        <time>2025-01-28T13:55:40Z</time>
      </trkpt>
      <trkpt lat="47.62539" lon="-2.85626">
        <ele>13.9</ele>
        <time>2025-01-28T13:55:41Z</time>
      </trkpt>
      <trkpt lat="47.62539" lon="-2.85624">
        <ele>13.9</ele>
        <time>2025-01-28T13:55:42Z</time>
      </trkpt>
      <trkpt lat="47.62539" lon="-2.85622">
        <ele>13.8</ele>
        <time>2025-01-28T13:55:43Z</time>
      </trkpt>
      <trkpt lat="47.62539" lon="-2.8562">
        <ele>13.7</ele>
        <time>2025-01-28T13:55:44Z</time>
      </trkpt>
      <trkpt lat="47.62539" lon="-2.85619">
        <ele>13.7</ele>
        <time>2025-01-28T13:55:45Z</time>
      </trkpt>
      <trkpt lat="47.62538" lon="-2.85617">
        <ele>13.6</ele>
        <time>2025-01-28T13:55:46Z</time>
      </trkpt>
      <trkpt lat="47.62538" lon="-2.85615">
        <ele>13.5</ele>
        <time>2025-01-28T13:55:47Z</time>
      </trkpt>
      <trkpt lat="47.62538" lon="-2.85613">
        <ele>13.4</ele>
        <time>2025-01-28T13:55:48Z</time>
      </trkpt>
      <trkpt lat="47.62537" lon="-2.85612">
        <ele>13.4</ele>
        <time>2025-01-28T13:55:49Z</time>
      </trkpt>
      <trkpt lat="47.62537" lon="-2.8561">
        <ele>13.3</ele>
        <time>2025-01-28T13:55:50Z</time>
      </trkpt>
      <trkpt lat="47.62536" lon="-2.85609">
        <ele>13.2</ele>
        <time>2025-01-28T13:55:51Z</time>
      </trkpt>
      <trkpt lat="47.62536" lon="-2.85607">
        <ele>13.2</ele>
        <time>2025-01-28T13:55:52Z</time>
      </trkpt>
      <trkpt lat="47.62536" lon="-2.85605">
        <ele>13.2</ele>
        <time>2025-01-28T13:55:53Z</time>
      </trkpt>
      <trkpt lat="47.62536" lon="-2.85604">
        <ele>13.1</ele>
        <time>2025-01-28T13:55:54Z</time>
      </trkpt>
      <trkpt lat="47.62536" lon="-2.85602">
        <ele>13.1</ele>
        <time>2025-01-28T13:55:55Z</time>
      </trkpt>
      <trkpt lat="47.62536" lon="-2.856">
        <ele>13</ele>
        <time>2025-01-28T13:55:56Z</time>
      </trkpt>
      <trkpt lat="47.62535" lon="-2.85598">
        <ele>12.9</ele>
        <time>2025-01-28T13:55:57Z</time>
      </trkpt>
      <trkpt lat="47.62535" lon="-2.85597">
        <ele>12.9</ele>
        <time>2025-01-28T13:55:58Z</time>
      </trkpt>
      <trkpt lat="47.62534" lon="-2.85595">
        <ele>12.8</ele>
        <time>2025-01-28T13:55:59Z</time>
      </trkpt>
      <trkpt lat="47.62534" lon="-2.85593">
        <ele>12.7</ele>
        <time>2025-01-28T13:56:00Z</time>
      </trkpt>
      <trkpt lat="47.62534" lon="-2.85591">
        <ele>12.6</ele>
        <time>2025-01-28T13:56:01Z</time>
      </trkpt>
      <trkpt lat="47.62533" lon="-2.85589">
        <ele>12.6</ele>
        <time>2025-01-28T13:56:02Z</time>
      </trkpt>
      <trkpt lat="47.62533" lon="-2.85588">
        <ele>12.5</ele>
        <time>2025-01-28T13:56:03Z</time>
      </trkpt>
      <trkpt lat="47.62532" lon="-2.85586">
        <ele>12.4</ele>
        <time>2025-01-28T13:56:04Z</time>
      </trkpt>
      <trkpt lat="47.62531" lon="-2.85584">
        <ele>12.3</ele>
        <time>2025-01-28T13:56:05Z</time>
      </trkpt>
      <trkpt lat="47.62531" lon="-2.85582">
        <ele>12.2</ele>
        <time>2025-01-28T13:56:06Z</time>
      </trkpt>
      <trkpt lat="47.6253" lon="-2.8558">
        <ele>12.2</ele>
        <time>2025-01-28T13:56:07Z</time>
      </trkpt>
      <trkpt lat="47.6253" lon="-2.85578">
        <ele>12.2</ele>
        <time>2025-01-28T13:56:08Z</time>
      </trkpt>
      <trkpt lat="47.6253" lon="-2.85576">
        <ele>12.1</ele>
        <time>2025-01-28T13:56:09Z</time>
      </trkpt>
      <trkpt lat="47.62531" lon="-2.85574">
        <ele>12.2</ele>
        <time>2025-01-28T13:56:10Z</time>
      </trkpt>
      <trkpt lat="47.62531" lon="-2.85573">
        <ele>12.2</ele>
        <time>2025-01-28T13:56:11Z</time>
      </trkpt>
      <trkpt lat="47.62531" lon="-2.85571">
        <ele>12.2</ele>
        <time>2025-01-28T13:56:12Z</time>
      </trkpt>
      <trkpt lat="47.62531" lon="-2.85569">
        <ele>12.2</ele>
        <time>2025-01-28T13:56:13Z</time>
      </trkpt>
      <trkpt lat="47.62531" lon="-2.85567">
        <ele>12.2</ele>
        <time>2025-01-28T13:56:14Z</time>
      </trkpt>
      <trkpt lat="47.62531" lon="-2.85565">
        <ele>12.2</ele>
        <time>2025-01-28T13:56:15Z</time>
      </trkpt>
      <trkpt lat="47.62531" lon="-2.85564">
        <ele>12.1</ele>
        <time>2025-01-28T13:56:16Z</time>
      </trkpt>
      <trkpt lat="47.6253" lon="-2.85562">
        <ele>12.1</ele>
        <time>2025-01-28T13:56:17Z</time>
      </trkpt>
      <trkpt lat="47.6253" lon="-2.85561">
        <ele>12.1</ele>
        <time>2025-01-28T13:56:18Z</time>
      </trkpt>
      <trkpt lat="47.62529" lon="-2.85559">
        <ele>12</ele>
        <time>2025-01-28T13:56:19Z</time>
      </trkpt>
      <trkpt lat="47.62528" lon="-2.85558">
        <ele>12</ele>
        <time>2025-01-28T13:56:20Z</time>
      </trkpt>
      <trkpt lat="47.62527" lon="-2.85556">
        <ele>12</ele>
        <time>2025-01-28T13:56:21Z</time>
      </trkpt>
      <trkpt lat="47.62527" lon="-2.85554">
        <ele>11.9</ele>
        <time>2025-01-28T13:56:22Z</time>
      </trkpt>
      <trkpt lat="47.62527" lon="-2.85552">
        <ele>11.8</ele>
        <time>2025-01-28T13:56:23Z</time>
      </trkpt>
      <trkpt lat="47.62528" lon="-2.8555">
        <ele>11.8</ele>
        <time>2025-01-28T13:56:24Z</time>
      </trkpt>
      <trkpt lat="47.62528" lon="-2.85548">
        <ele>11.7</ele>
        <time>2025-01-28T13:56:25Z</time>
      </trkpt>
      <trkpt lat="47.62528" lon="-2.85546">
        <ele>11.6</ele>
        <time>2025-01-28T13:56:26Z</time>
      </trkpt>
      <trkpt lat="47.62528" lon="-2.85544">
        <ele>11.6</ele>
        <time>2025-01-28T13:56:27Z</time>
      </trkpt>
      <trkpt lat="47.62527" lon="-2.85542">
        <ele>11.5</ele>
        <time>2025-01-28T13:56:28Z</time>
      </trkpt>
      <trkpt lat="47.62528" lon="-2.8554">
        <ele>11.4</ele>
        <time>2025-01-28T13:56:29Z</time>
      </trkpt>
      <trkpt lat="47.62528" lon="-2.85538">
        <ele>11.4</ele>
        <time>2025-01-28T13:56:30Z</time>
      </trkpt>
      <trkpt lat="47.62529" lon="-2.85537">
        <ele>11.3</ele>
        <time>2025-01-28T13:56:31Z</time>
      </trkpt>
      <trkpt lat="47.62529" lon="-2.85535">
        <ele>11.3</ele>
        <time>2025-01-28T13:56:32Z</time>
      </trkpt>
      <trkpt lat="47.6253" lon="-2.85534">
        <ele>11.3</ele>
        <time>2025-01-28T13:56:33Z</time>
      </trkpt>
      <trkpt lat="47.6253" lon="-2.85532">
        <ele>11.2</ele>
        <time>2025-01-28T13:56:34Z</time>
      </trkpt>
      <trkpt lat="47.62531" lon="-2.85531">
        <ele>11.2</ele>
        <time>2025-01-28T13:56:35Z</time>
      </trkpt>
      <trkpt lat="47.62531" lon="-2.85529">
        <ele>11.2</ele>
        <time>2025-01-28T13:56:36Z</time>
      </trkpt>
      <trkpt lat="47.62532" lon="-2.85528">
        <ele>11.1</ele>
        <time>2025-01-28T13:56:37Z</time>
      </trkpt>
      <trkpt lat="47.62532" lon="-2.85526">
        <ele>11.2</ele>
        <time>2025-01-28T13:56:38Z</time>
      </trkpt>
      <trkpt lat="47.62533" lon="-2.85525">
        <ele>11.2</ele>
        <time>2025-01-28T13:56:39Z</time>
      </trkpt>
      <trkpt lat="47.62534" lon="-2.85524">
        <ele>11.2</ele>
        <time>2025-01-28T13:56:40Z</time>
      </trkpt>
      <trkpt lat="47.62534" lon="-2.85522">
        <ele>11.2</ele>
        <time>2025-01-28T13:56:41Z</time>
      </trkpt>
      <trkpt lat="47.62535" lon="-2.85521">
        <ele>11.2</ele>
        <time>2025-01-28T13:56:42Z</time>
      </trkpt>
      <trkpt lat="47.62535" lon="-2.8552">
        <ele>11.2</ele>
        <time>2025-01-28T13:56:43Z</time>
      </trkpt>
      <trkpt lat="47.62535" lon="-2.8552">
        <ele>11.2</ele>
        <time>2025-01-28T13:56:44Z</time>
      </trkpt>
      <trkpt lat="47.62535" lon="-2.8552">
        <ele>11.3</ele>
        <time>2025-01-28T13:56:45Z</time>
      </trkpt>
      <trkpt lat="47.62535" lon="-2.8552">
        <ele>11.2</ele>
        <time>2025-01-28T13:56:46Z</time>
      </trkpt>
      <trkpt lat="47.62534" lon="-2.8552">
        <ele>11.2</ele>
        <time>2025-01-28T13:56:47Z</time>
      </trkpt>
      <trkpt lat="47.62533" lon="-2.85519">
        <ele>11.2</ele>
        <time>2025-01-28T13:56:48Z</time>
      </trkpt>
      <trkpt lat="47.62532" lon="-2.85518">
        <ele>11.1</ele>
        <time>2025-01-28T13:56:49Z</time>
      </trkpt>
      <trkpt lat="47.62531" lon="-2.85517">
        <ele>11.1</ele>
        <time>2025-01-28T13:56:50Z</time>
      </trkpt>
      <trkpt lat="47.6253" lon="-2.85516">
        <ele>11.1</ele>
        <time>2025-01-28T13:56:51Z</time>
      </trkpt>
      <trkpt lat="47.62529" lon="-2.85514">
        <ele>11</ele>
        <time>2025-01-28T13:56:52Z</time>
      </trkpt>
      <trkpt lat="47.62527" lon="-2.85514">
        <ele>11</ele>
        <time>2025-01-28T13:56:53Z</time>
      </trkpt>
      <trkpt lat="47.62525" lon="-2.85515">
        <ele>11</ele>
        <time>2025-01-28T13:56:54Z</time>
      </trkpt>
      <trkpt lat="47.62523" lon="-2.85516">
        <ele>11</ele>
        <time>2025-01-28T13:56:55Z</time>
      </trkpt>
      <trkpt lat="47.62522" lon="-2.85516">
        <ele>11</ele>
        <time>2025-01-28T13:56:56Z</time>
      </trkpt>
      <trkpt lat="47.62521" lon="-2.85515">
        <ele>11</ele>
        <time>2025-01-28T13:56:57Z</time>
      </trkpt>
      <trkpt lat="47.62519" lon="-2.85515">
        <ele>11</ele>
        <time>2025-01-28T13:56:58Z</time>
      </trkpt>
      <trkpt lat="47.62518" lon="-2.85515">
        <ele>11</ele>
        <time>2025-01-28T13:56:59Z</time>
      </trkpt>
      <trkpt lat="47.62517" lon="-2.85515">
        <ele>11</ele>
        <time>2025-01-28T13:57:00Z</time>
      </trkpt>
      <trkpt lat="47.62516" lon="-2.85515">
        <ele>11</ele>
        <time>2025-01-28T13:57:01Z</time>
      </trkpt>
      <trkpt lat="47.62516" lon="-2.85514">
        <ele>11</ele>
        <time>2025-01-28T13:57:02Z</time>
      </trkpt>
      <trkpt lat="47.62515" lon="-2.85513">
        <ele>11</ele>
        <time>2025-01-28T13:57:03Z</time>
      </trkpt>
      <trkpt lat="47.62513" lon="-2.85513">
        <ele>11</ele>
        <time>2025-01-28T13:57:04Z</time>
      </trkpt>
      <trkpt lat="47.62512" lon="-2.85513">
        <ele>11</ele>
        <time>2025-01-28T13:57:05Z</time>
      </trkpt>
      <trkpt lat="47.62511" lon="-2.85514">
        <ele>11</ele>
        <time>2025-01-28T13:57:06Z</time>
      </trkpt>
      <trkpt lat="47.6251" lon="-2.85514">
        <ele>11</ele>
        <time>2025-01-28T13:57:07Z</time>
      </trkpt>
      <trkpt lat="47.6251" lon="-2.85514">
        <ele>11</ele>
        <time>2025-01-28T13:57:08Z</time>
      </trkpt>
      <trkpt lat="47.62509" lon="-2.85514">
        <ele>11</ele>
        <time>2025-01-28T13:57:09Z</time>
      </trkpt>
      <trkpt lat="47.62507" lon="-2.85514">
        <ele>11</ele>
        <time>2025-01-28T13:57:10Z</time>
      </trkpt>
      <trkpt lat="47.62506" lon="-2.85513">
        <ele>11</ele>
        <time>2025-01-28T13:57:11Z</time>
      </trkpt>
      <trkpt lat="47.62505" lon="-2.85512">
        <ele>11</ele>
        <time>2025-01-28T13:57:12Z</time>
      </trkpt>
      <trkpt lat="47.62505" lon="-2.85511">
        <ele>11</ele>
        <time>2025-01-28T13:57:13Z</time>
      </trkpt>
      <trkpt lat="47.62504" lon="-2.8551">
        <ele>11</ele>
        <time>2025-01-28T13:57:14Z</time>
      </trkpt>
      <trkpt lat="47.62503" lon="-2.85508">
        <ele>11</ele>
        <time>2025-01-28T13:57:15Z</time>
      </trkpt>
      <trkpt lat="47.62503" lon="-2.85507">
        <ele>11</ele>
        <time>2025-01-28T13:57:16Z</time>
      </trkpt>
      <trkpt lat="47.62502" lon="-2.85505">
        <ele>11</ele>
        <time>2025-01-28T13:57:17Z</time>
      </trkpt>
      <trkpt lat="47.62502" lon="-2.85503">
        <ele>11</ele>
        <time>2025-01-28T13:57:18Z</time>
      </trkpt>
      <trkpt lat="47.62501" lon="-2.85502">
        <ele>11</ele>
        <time>2025-01-28T13:57:19Z</time>
      </trkpt>
      <trkpt lat="47.62501" lon="-2.855">
        <ele>11</ele>
        <time>2025-01-28T13:57:20Z</time>
      </trkpt>
      <trkpt lat="47.62501" lon="-2.85499">
        <ele>11</ele>
        <time>2025-01-28T13:57:21Z</time>
      </trkpt>
      <trkpt lat="47.62501" lon="-2.85498">
        <ele>11.1</ele>
        <time>2025-01-28T13:57:22Z</time>
      </trkpt>
      <trkpt lat="47.625" lon="-2.85496">
        <ele>11.1</ele>
        <time>2025-01-28T13:57:23Z</time>
      </trkpt>
      <trkpt lat="47.625" lon="-2.85495">
        <ele>11.2</ele>
        <time>2025-01-28T13:57:24Z</time>
      </trkpt>
      <trkpt lat="47.625" lon="-2.85493">
        <ele>11.3</ele>
        <time>2025-01-28T13:57:25Z</time>
      </trkpt>
      <trkpt lat="47.625" lon="-2.85491">
        <ele>11.3</ele>
        <time>2025-01-28T13:57:26Z</time>
      </trkpt>
      <trkpt lat="47.625" lon="-2.85489">
        <ele>11.4</ele>
        <time>2025-01-28T13:57:27Z</time>
      </trkpt>
      <trkpt lat="47.625" lon="-2.85488">
        <ele>11.4</ele>
        <time>2025-01-28T13:57:28Z</time>
      </trkpt>
      <trkpt lat="47.62501" lon="-2.85486">
        <ele>11.5</ele>
        <time>2025-01-28T13:57:29Z</time>
      </trkpt>
      <trkpt lat="47.625" lon="-2.85483">
        <ele>11.6</ele>
        <time>2025-01-28T13:57:30Z</time>
      </trkpt>
      <trkpt lat="47.62501" lon="-2.85481">
        <ele>11.7</ele>
        <time>2025-01-28T13:57:31Z</time>
      </trkpt>
      <trkpt lat="47.62501" lon="-2.8548">
        <ele>11.8</ele>
        <time>2025-01-28T13:57:32Z</time>
      </trkpt>
      <trkpt lat="47.62502" lon="-2.85479">
        <ele>11.8</ele>
        <time>2025-01-28T13:57:33Z</time>
      </trkpt>
      <trkpt lat="47.62502" lon="-2.85478">
        <ele>11.9</ele>
        <time>2025-01-28T13:57:34Z</time>
      </trkpt>
      <trkpt lat="47.62502" lon="-2.85476">
        <ele>11.9</ele>
        <time>2025-01-28T13:57:35Z</time>
      </trkpt>
      <trkpt lat="47.62502" lon="-2.85475">
        <ele>12</ele>
        <time>2025-01-28T13:57:36Z</time>
      </trkpt>
      <trkpt lat="47.62503" lon="-2.85474">
        <ele>12</ele>
        <time>2025-01-28T13:57:37Z</time>
      </trkpt>
      <trkpt lat="47.62503" lon="-2.85472">
        <ele>12.1</ele>
        <time>2025-01-28T13:57:38Z</time>
      </trkpt>
      <trkpt lat="47.62503" lon="-2.8547">
        <ele>12.1</ele>
        <time>2025-01-28T13:57:39Z</time>
      </trkpt>
      <trkpt lat="47.62504" lon="-2.85469">
        <ele>12.1</ele>
        <time>2025-01-28T13:57:40Z</time>
      </trkpt>
      <trkpt lat="47.62504" lon="-2.85467">
        <ele>12.1</ele>
        <time>2025-01-28T13:57:41Z</time>
      </trkpt>
      <trkpt lat="47.62504" lon="-2.85465">
        <ele>12.1</ele>
        <time>2025-01-28T13:57:42Z</time>
      </trkpt>
      <trkpt lat="47.62504" lon="-2.85464">
        <ele>12.2</ele>
        <time>2025-01-28T13:57:43Z</time>
      </trkpt>
      <trkpt lat="47.62505" lon="-2.85462">
        <ele>12.2</ele>
        <time>2025-01-28T13:57:44Z</time>
      </trkpt>
      <trkpt lat="47.62505" lon="-2.85461">
        <ele>12.2</ele>
        <time>2025-01-28T13:57:45Z</time>
      </trkpt>
      <trkpt lat="47.62505" lon="-2.85459">
        <ele>12.2</ele>
        <time>2025-01-28T13:57:46Z</time>
      </trkpt>
      <trkpt lat="47.62506" lon="-2.85457">
        <ele>12.2</ele>
        <time>2025-01-28T13:57:47Z</time>
      </trkpt>
      <trkpt lat="47.62506" lon="-2.85456">
        <ele>12.2</ele>
        <time>2025-01-28T13:57:48Z</time>
      </trkpt>
      <trkpt lat="47.62507" lon="-2.85454">
        <ele>12.2</ele>
        <time>2025-01-28T13:57:49Z</time>
      </trkpt>
      <trkpt lat="47.62508" lon="-2.85453">
        <ele>12.3</ele>
        <time>2025-01-28T13:57:50Z</time>
      </trkpt>
      <trkpt lat="47.62508" lon="-2.85451">
        <ele>12.3</ele>
        <time>2025-01-28T13:57:51Z</time>
      </trkpt>
      <trkpt lat="47.62508" lon="-2.8545">
        <ele>12.3</ele>
        <time>2025-01-28T13:57:52Z</time>
      </trkpt>
      <trkpt lat="47.62508" lon="-2.85448">
        <ele>12.3</ele>
        <time>2025-01-28T13:57:53Z</time>
      </trkpt>
      <trkpt lat="47.62509" lon="-2.85446">
        <ele>12.3</ele>
        <time>2025-01-28T13:57:54Z</time>
      </trkpt>
      <trkpt lat="47.62509" lon="-2.85445">
        <ele>12.3</ele>
        <time>2025-01-28T13:57:55Z</time>
      </trkpt>
      <trkpt lat="47.62509" lon="-2.85443">
        <ele>12.4</ele>
        <time>2025-01-28T13:57:56Z</time>
      </trkpt>
      <trkpt lat="47.62508" lon="-2.85442">
        <ele>12.4</ele>
        <time>2025-01-28T13:57:57Z</time>
      </trkpt>
      <trkpt lat="47.62507" lon="-2.85441">
        <ele>12.4</ele>
        <time>2025-01-28T13:57:58Z</time>
      </trkpt>
      <trkpt lat="47.62506" lon="-2.8544">
        <ele>12.4</ele>
        <time>2025-01-28T13:57:59Z</time>
      </trkpt>
      <trkpt lat="47.62505" lon="-2.85439">
        <ele>12.4</ele>
        <time>2025-01-28T13:58:00Z</time>
      </trkpt>
      <trkpt lat="47.62505" lon="-2.85437">
        <ele>12.5</ele>
        <time>2025-01-28T13:58:01Z</time>
      </trkpt>
      <trkpt lat="47.62504" lon="-2.85435">
        <ele>12.5</ele>
        <time>2025-01-28T13:58:02Z</time>
      </trkpt>
      <trkpt lat="47.62503" lon="-2.85433">
        <ele>12.6</ele>
        <time>2025-01-28T13:58:03Z</time>
      </trkpt>
      <trkpt lat="47.62503" lon="-2.8543">
        <ele>12.7</ele>
        <time>2025-01-28T13:58:04Z</time>
      </trkpt>
      <trkpt lat="47.62503" lon="-2.85428">
        <ele>12.8</ele>
        <time>2025-01-28T13:58:05Z</time>
      </trkpt>
      <trkpt lat="47.62504" lon="-2.85426">
        <ele>12.9</ele>
        <time>2025-01-28T13:58:06Z</time>
      </trkpt>
      <trkpt lat="47.62504" lon="-2.85424">
        <ele>13</ele>
        <time>2025-01-28T13:58:07Z</time>
      </trkpt>
      <trkpt lat="47.62505" lon="-2.85423">
        <ele>13.1</ele>
        <time>2025-01-28T13:58:08Z</time>
      </trkpt>
      <trkpt lat="47.62505" lon="-2.85421">
        <ele>13.2</ele>
        <time>2025-01-28T13:58:09Z</time>
      </trkpt>
      <trkpt lat="47.62505" lon="-2.85419">
        <ele>13.3</ele>
        <time>2025-01-28T13:58:10Z</time>
      </trkpt>
      <trkpt lat="47.62505" lon="-2.85417">
        <ele>13.3</ele>
        <time>2025-01-28T13:58:11Z</time>
      </trkpt>
      <trkpt lat="47.62506" lon="-2.85416">
        <ele>13.4</ele>
        <time>2025-01-28T13:58:12Z</time>
      </trkpt>
      <trkpt lat="47.62506" lon="-2.85414">
        <ele>13.5</ele>
        <time>2025-01-28T13:58:13Z</time>
      </trkpt>
      <trkpt lat="47.62506" lon="-2.85412">
        <ele>13.6</ele>
        <time>2025-01-28T13:58:14Z</time>
      </trkpt>
      <trkpt lat="47.62507" lon="-2.85411">
        <ele>13.7</ele>
        <time>2025-01-28T13:58:15Z</time>
      </trkpt>
      <trkpt lat="47.62508" lon="-2.85409">
        <ele>13.7</ele>
        <time>2025-01-28T13:58:16Z</time>
      </trkpt>
      <trkpt lat="47.62508" lon="-2.85408">
        <ele>13.8</ele>
        <time>2025-01-28T13:58:17Z</time>
      </trkpt>
      <trkpt lat="47.62508" lon="-2.85406">
        <ele>13.9</ele>
        <time>2025-01-28T13:58:18Z</time>
      </trkpt>
      <trkpt lat="47.62508" lon="-2.85404">
        <ele>13.9</ele>
        <time>2025-01-28T13:58:19Z</time>
      </trkpt>
      <trkpt lat="47.62509" lon="-2.85402">
        <ele>14</ele>
        <time>2025-01-28T13:58:20Z</time>
      </trkpt>
      <trkpt lat="47.62509" lon="-2.85401">
        <ele>14</ele>
        <time>2025-01-28T13:58:21Z</time>
      </trkpt>
      <trkpt lat="47.62509" lon="-2.85399">
        <ele>14.1</ele>
        <time>2025-01-28T13:58:22Z</time>
      </trkpt>
      <trkpt lat="47.6251" lon="-2.85397">
        <ele>14.2</ele>
        <time>2025-01-28T13:58:23Z</time>
      </trkpt>
      <trkpt lat="47.6251" lon="-2.85395">
        <ele>14.2</ele>
        <time>2025-01-28T13:58:24Z</time>
      </trkpt>
      <trkpt lat="47.6251" lon="-2.85393">
        <ele>14.3</ele>
        <time>2025-01-28T13:58:25Z</time>
      </trkpt>
      <trkpt lat="47.6251" lon="-2.85391">
        <ele>14.3</ele>
        <time>2025-01-28T13:58:26Z</time>
      </trkpt>
      <trkpt lat="47.62511" lon="-2.85389">
        <ele>14.4</ele>
        <time>2025-01-28T13:58:27Z</time>
      </trkpt>
      <trkpt lat="47.62511" lon="-2.85388">
        <ele>14.5</ele>
        <time>2025-01-28T13:58:28Z</time>
      </trkpt>
      <trkpt lat="47.62511" lon="-2.85385">
        <ele>14.6</ele>
        <time>2025-01-28T13:58:29Z</time>
      </trkpt>
      <trkpt lat="47.62511" lon="-2.85384">
        <ele>14.7</ele>
        <time>2025-01-28T13:58:30Z</time>
      </trkpt>
      <trkpt lat="47.62511" lon="-2.85382">
        <ele>14.8</ele>
        <time>2025-01-28T13:58:31Z</time>
      </trkpt>
      <trkpt lat="47.62512" lon="-2.85381">
        <ele>14.9</ele>
        <time>2025-01-28T13:58:32Z</time>
      </trkpt>
      <trkpt lat="47.62512" lon="-2.85379">
        <ele>14.9</ele>
        <time>2025-01-28T13:58:33Z</time>
      </trkpt>
      <trkpt lat="47.62512" lon="-2.85378">
        <ele>15</ele>
        <time>2025-01-28T13:58:34Z</time>
      </trkpt>
      <trkpt lat="47.62513" lon="-2.85376">
        <ele>15.1</ele>
        <time>2025-01-28T13:58:35Z</time>
      </trkpt>
      <trkpt lat="47.62513" lon="-2.85374">
        <ele>15.2</ele>
        <time>2025-01-28T13:58:36Z</time>
      </trkpt>
      <trkpt lat="47.62513" lon="-2.85372">
        <ele>15.3</ele>
        <time>2025-01-28T13:58:37Z</time>
      </trkpt>
      <trkpt lat="47.62513" lon="-2.8537">
        <ele>15.5</ele>
        <time>2025-01-28T13:58:38Z</time>
      </trkpt>
      <trkpt lat="47.62513" lon="-2.85368">
        <ele>15.6</ele>
        <time>2025-01-28T13:58:39Z</time>
      </trkpt>
      <trkpt lat="47.62513" lon="-2.85366">
        <ele>15.7</ele>
        <time>2025-01-28T13:58:40Z</time>
      </trkpt>
      <trkpt lat="47.62514" lon="-2.85364">
        <ele>15.8</ele>
        <time>2025-01-28T13:58:41Z</time>
      </trkpt>
      <trkpt lat="47.62514" lon="-2.85363">
        <ele>15.9</ele>
        <time>2025-01-28T13:58:42Z</time>
      </trkpt>
      <trkpt lat="47.62515" lon="-2.85361">
        <ele>16</ele>
        <time>2025-01-28T13:58:43Z</time>
      </trkpt>
      <trkpt lat="47.62515" lon="-2.8536">
        <ele>16.1</ele>
        <time>2025-01-28T13:58:44Z</time>
      </trkpt>
      <trkpt lat="47.62515" lon="-2.85358">
        <ele>16.1</ele>
        <time>2025-01-28T13:58:45Z</time>
      </trkpt>
      <trkpt lat="47.62516" lon="-2.85357">
        <ele>16.1</ele>
        <time>2025-01-28T13:58:46Z</time>
      </trkpt>
      <trkpt lat="47.62516" lon="-2.85355">
        <ele>16.2</ele>
        <time>2025-01-28T13:58:47Z</time>
      </trkpt>
      <trkpt lat="47.62517" lon="-2.85354">
        <ele>16.2</ele>
        <time>2025-01-28T13:58:48Z</time>
      </trkpt>
      <trkpt lat="47.62517" lon="-2.85352">
        <ele>16.2</ele>
        <time>2025-01-28T13:58:49Z</time>
      </trkpt>
      <trkpt lat="47.62517" lon="-2.85351">
        <ele>16.2</ele>
        <time>2025-01-28T13:58:50Z</time>
      </trkpt>
      <trkpt lat="47.62517" lon="-2.85349">
        <ele>16.2</ele>
        <time>2025-01-28T13:58:51Z</time>
      </trkpt>
      <trkpt lat="47.62516" lon="-2.85348">
        <ele>16.1</ele>
        <time>2025-01-28T13:58:52Z</time>
      </trkpt>
      <trkpt lat="47.62515" lon="-2.85346">
        <ele>16.1</ele>
        <time>2025-01-28T13:58:53Z</time>
      </trkpt>
      <trkpt lat="47.62515" lon="-2.85345">
        <ele>16</ele>
        <time>2025-01-28T13:58:54Z</time>
      </trkpt>
      <trkpt lat="47.62514" lon="-2.85344">
        <ele>16</ele>
        <time>2025-01-28T13:58:55Z</time>
      </trkpt>
      <trkpt lat="47.62513" lon="-2.85343">
        <ele>15.9</ele>
        <time>2025-01-28T13:58:56Z</time>
      </trkpt>
      <trkpt lat="47.62512" lon="-2.85342">
        <ele>15.9</ele>
        <time>2025-01-28T13:58:57Z</time>
      </trkpt>
      <trkpt lat="47.62512" lon="-2.85341">
        <ele>15.9</ele>
        <time>2025-01-28T13:58:58Z</time>
      </trkpt>
      <trkpt lat="47.62512" lon="-2.8534">
        <ele>15.8</ele>
        <time>2025-01-28T13:58:59Z</time>
      </trkpt>
      <trkpt lat="47.62511" lon="-2.85338">
        <ele>15.8</ele>
        <time>2025-01-28T13:59:00Z</time>
      </trkpt>
      <trkpt lat="47.62511" lon="-2.85338">
        <ele>15.8</ele>
        <time>2025-01-28T13:59:01Z</time>
      </trkpt>
      <trkpt lat="47.62512" lon="-2.85338">
        <ele>15.8</ele>
        <time>2025-01-28T13:59:02Z</time>
      </trkpt>
      <trkpt lat="47.62512" lon="-2.85338">
        <ele>15.9</ele>
        <time>2025-01-28T13:59:03Z</time>
      </trkpt>
      <trkpt lat="47.62512" lon="-2.85337">
        <ele>15.9</ele>
        <time>2025-01-28T13:59:04Z</time>
      </trkpt>
      <trkpt lat="47.62511" lon="-2.85337">
        <ele>15.8</ele>
        <time>2025-01-28T13:59:05Z</time>
      </trkpt>
      <trkpt lat="47.62511" lon="-2.85336">
        <ele>15.8</ele>
        <time>2025-01-28T13:59:06Z</time>
      </trkpt>
      <trkpt lat="47.62509" lon="-2.85336">
        <ele>15.7</ele>
        <time>2025-01-28T13:59:07Z</time>
      </trkpt>
      <trkpt lat="47.62508" lon="-2.85335">
        <ele>15.6</ele>
        <time>2025-01-28T13:59:08Z</time>
      </trkpt>
      <trkpt lat="47.62507" lon="-2.85335">
        <ele>15.5</ele>
        <time>2025-01-28T13:59:09Z</time>
      </trkpt>
      <trkpt lat="47.62506" lon="-2.85336">
        <ele>15.4</ele>
        <time>2025-01-28T13:59:10Z</time>
      </trkpt>
      <trkpt lat="47.62505" lon="-2.85336">
        <ele>15.4</ele>
        <time>2025-01-28T13:59:11Z</time>
      </trkpt>
      <trkpt lat="47.62504" lon="-2.85335">
        <ele>15.3</ele>
        <time>2025-01-28T13:59:12Z</time>
      </trkpt>
      <trkpt lat="47.62503" lon="-2.85334">
        <ele>15.2</ele>
        <time>2025-01-28T13:59:13Z</time>
      </trkpt>
      <trkpt lat="47.62501" lon="-2.85333">
        <ele>15.1</ele>
        <time>2025-01-28T13:59:14Z</time>
      </trkpt>
      <trkpt lat="47.625" lon="-2.85331">
        <ele>15.1</ele>
        <time>2025-01-28T13:59:15Z</time>
      </trkpt>
      <trkpt lat="47.62499" lon="-2.85329">
        <ele>15.1</ele>
        <time>2025-01-28T13:59:16Z</time>
      </trkpt>
      <trkpt lat="47.62499" lon="-2.85327">
        <ele>15.2</ele>
        <time>2025-01-28T13:59:17Z</time>
      </trkpt>
      <trkpt lat="47.62498" lon="-2.85326">
        <ele>15.2</ele>
        <time>2025-01-28T13:59:18Z</time>
      </trkpt>
      <trkpt lat="47.62498" lon="-2.85324">
        <ele>15.3</ele>
        <time>2025-01-28T13:59:19Z</time>
      </trkpt>
      <trkpt lat="47.62498" lon="-2.85323">
        <ele>15.3</ele>
        <time>2025-01-28T13:59:20Z</time>
      </trkpt>
      <trkpt lat="47.62498" lon="-2.85321">
        <ele>15.4</ele>
        <time>2025-01-28T13:59:21Z</time>
      </trkpt>
      <trkpt lat="47.62498" lon="-2.85319">
        <ele>15.4</ele>
        <time>2025-01-28T13:59:22Z</time>
      </trkpt>
      <trkpt lat="47.62497" lon="-2.85318">
        <ele>15.5</ele>
        <time>2025-01-28T13:59:23Z</time>
      </trkpt>
      <trkpt lat="47.62497" lon="-2.85316">
        <ele>15.5</ele>
        <time>2025-01-28T13:59:24Z</time>
      </trkpt>
      <trkpt lat="47.62497" lon="-2.85315">
        <ele>15.6</ele>
        <time>2025-01-28T13:59:25Z</time>
      </trkpt>
      <trkpt lat="47.62496" lon="-2.85313">
        <ele>15.6</ele>
        <time>2025-01-28T13:59:26Z</time>
      </trkpt>
      <trkpt lat="47.62496" lon="-2.85311">
        <ele>15.7</ele>
        <time>2025-01-28T13:59:27Z</time>
      </trkpt>
      <trkpt lat="47.62496" lon="-2.85309">
        <ele>15.7</ele>
        <time>2025-01-28T13:59:28Z</time>
      </trkpt>
      <trkpt lat="47.62496" lon="-2.85307">
        <ele>15.8</ele>
        <time>2025-01-28T13:59:29Z</time>
      </trkpt>
      <trkpt lat="47.62495" lon="-2.85305">
        <ele>15.8</ele>
        <time>2025-01-28T13:59:30Z</time>
      </trkpt>
      <trkpt lat="47.62495" lon="-2.85304">
        <ele>15.8</ele>
        <time>2025-01-28T13:59:31Z</time>
      </trkpt>
      <trkpt lat="47.62494" lon="-2.85302">
        <ele>15.8</ele>
        <time>2025-01-28T13:59:32Z</time>
      </trkpt>
      <trkpt lat="47.62494" lon="-2.853">
        <ele>15.8</ele>
        <time>2025-01-28T13:59:33Z</time>
      </trkpt>
      <trkpt lat="47.62493" lon="-2.85299">
        <ele>15.8</ele>
        <time>2025-01-28T13:59:34Z</time>
      </trkpt>
      <trkpt lat="47.62493" lon="-2.85297">
        <ele>15.7</ele>
        <time>2025-01-28T13:59:35Z</time>
      </trkpt>
      <trkpt lat="47.62492" lon="-2.85296">
        <ele>15.7</ele>
        <time>2025-01-28T13:59:36Z</time>
      </trkpt>
      <trkpt lat="47.62491" lon="-2.85294">
        <ele>15.7</ele>
        <time>2025-01-28T13:59:37Z</time>
      </trkpt>
      <trkpt lat="47.6249" lon="-2.85294">
        <ele>15.6</ele>
        <time>2025-01-28T13:59:38Z</time>
      </trkpt>
      <trkpt lat="47.62489" lon="-2.85294">
        <ele>15.6</ele>
        <time>2025-01-28T13:59:39Z</time>
      </trkpt>
      <trkpt lat="47.62488" lon="-2.85295">
        <ele>15.6</ele>
        <time>2025-01-28T13:59:40Z</time>
      </trkpt>
      <trkpt lat="47.62487" lon="-2.85296">
        <ele>15.5</ele>
        <time>2025-01-28T13:59:41Z</time>
      </trkpt>
      <trkpt lat="47.62485" lon="-2.85296">
        <ele>15.5</ele>
        <time>2025-01-28T13:59:42Z</time>
      </trkpt>
      <trkpt lat="47.62484" lon="-2.85297">
        <ele>15.4</ele>
        <time>2025-01-28T13:59:43Z</time>
      </trkpt>
      <trkpt lat="47.62483" lon="-2.85297">
        <ele>15.4</ele>
        <time>2025-01-28T13:59:44Z</time>
      </trkpt>
      <trkpt lat="47.62482" lon="-2.85297">
        <ele>15.3</ele>
        <time>2025-01-28T13:59:45Z</time>
      </trkpt>
      <trkpt lat="47.62481" lon="-2.85298">
        <ele>15.3</ele>
        <time>2025-01-28T13:59:46Z</time>
      </trkpt>
      <trkpt lat="47.62479" lon="-2.85298">
        <ele>15.3</ele>
        <time>2025-01-28T13:59:47Z</time>
      </trkpt>
      <trkpt lat="47.62478" lon="-2.85299">
        <ele>15.2</ele>
        <time>2025-01-28T13:59:48Z</time>
      </trkpt>
      <trkpt lat="47.62476" lon="-2.853">
        <ele>15.2</ele>
        <time>2025-01-28T13:59:49Z</time>
      </trkpt>
      <trkpt lat="47.62475" lon="-2.85301">
        <ele>15.1</ele>
        <time>2025-01-28T13:59:50Z</time>
      </trkpt>
      <trkpt lat="47.62474" lon="-2.85302">
        <ele>15.1</ele>
        <time>2025-01-28T13:59:51Z</time>
      </trkpt>
      <trkpt lat="47.62473" lon="-2.85303">
        <ele>15</ele>
        <time>2025-01-28T13:59:52Z</time>
      </trkpt>
      <trkpt lat="47.62471" lon="-2.85304">
        <ele>14.9</ele>
        <time>2025-01-28T13:59:53Z</time>
      </trkpt>
      <trkpt lat="47.6247" lon="-2.85303">
        <ele>14.8</ele>
        <time>2025-01-28T13:59:54Z</time>
      </trkpt>
      <trkpt lat="47.62469" lon="-2.85302">
        <ele>14.8</ele>
        <time>2025-01-28T13:59:55Z</time>
      </trkpt>
      <trkpt lat="47.62467" lon="-2.85303">
        <ele>14.6</ele>
        <time>2025-01-28T13:59:56Z</time>
      </trkpt>
      <trkpt lat="47.62466" lon="-2.85303">
        <ele>14.6</ele>
        <time>2025-01-28T13:59:57Z</time>
      </trkpt>
      <trkpt lat="47.62465" lon="-2.85303">
        <ele>14.5</ele>
        <time>2025-01-28T13:59:58Z</time>
      </trkpt>
      <trkpt lat="47.62463" lon="-2.85304">
        <ele>14.4</ele>
        <time>2025-01-28T13:59:59Z</time>
      </trkpt>
      <trkpt lat="47.62462" lon="-2.85304">
        <ele>14.3</ele>
        <time>2025-01-28T14:00:00Z</time>
      </trkpt>
      <trkpt lat="47.62461" lon="-2.85304">
        <ele>14.2</ele>
        <time>2025-01-28T14:00:01Z</time>
      </trkpt>
      <trkpt lat="47.6246" lon="-2.85306">
        <ele>14.1</ele>
        <time>2025-01-28T14:00:02Z</time>
      </trkpt>
      <trkpt lat="47.62459" lon="-2.85306">
        <ele>14</ele>
        <time>2025-01-28T14:00:03Z</time>
      </trkpt>
      <trkpt lat="47.62457" lon="-2.85307">
        <ele>13.9</ele>
        <time>2025-01-28T14:00:04Z</time>
      </trkpt>
      <trkpt lat="47.62456" lon="-2.85307">
        <ele>13.8</ele>
        <time>2025-01-28T14:00:05Z</time>
      </trkpt>
      <trkpt lat="47.62455" lon="-2.85307">
        <ele>13.7</ele>
        <time>2025-01-28T14:00:06Z</time>
      </trkpt>
      <trkpt lat="47.62453" lon="-2.85308">
        <ele>13.6</ele>
        <time>2025-01-28T14:00:07Z</time>
      </trkpt>
      <trkpt lat="47.62452" lon="-2.85309">
        <ele>13.5</ele>
        <time>2025-01-28T14:00:08Z</time>
      </trkpt>
      <trkpt lat="47.62451" lon="-2.85309">
        <ele>13.4</ele>
        <time>2025-01-28T14:00:09Z</time>
      </trkpt>
      <trkpt lat="47.62449" lon="-2.85309">
        <ele>13.3</ele>
        <time>2025-01-28T14:00:10Z</time>
      </trkpt>
      <trkpt lat="47.62448" lon="-2.85309">
        <ele>13.2</ele>
        <time>2025-01-28T14:00:11Z</time>
      </trkpt>
      <trkpt lat="47.62447" lon="-2.85309">
        <ele>13.2</ele>
        <time>2025-01-28T14:00:12Z</time>
      </trkpt>
      <trkpt lat="47.62445" lon="-2.8531">
        <ele>13.1</ele>
        <time>2025-01-28T14:00:13Z</time>
      </trkpt>
      <trkpt lat="47.62444" lon="-2.8531">
        <ele>13</ele>
        <time>2025-01-28T14:00:14Z</time>
      </trkpt>
      <trkpt lat="47.62443" lon="-2.8531">
        <ele>13</ele>
        <time>2025-01-28T14:00:15Z</time>
      </trkpt>
      <trkpt lat="47.62441" lon="-2.85311">
        <ele>13</ele>
        <time>2025-01-28T14:00:16Z</time>
      </trkpt>
      <trkpt lat="47.6244" lon="-2.85311">
        <ele>13</ele>
        <time>2025-01-28T14:00:17Z</time>
      </trkpt>
      <trkpt lat="47.62439" lon="-2.85312">
        <ele>13</ele>
        <time>2025-01-28T14:00:18Z</time>
      </trkpt>
      <trkpt lat="47.62438" lon="-2.85314">
        <ele>13</ele>
        <time>2025-01-28T14:00:19Z</time>
      </trkpt>
      <trkpt lat="47.62437" lon="-2.85314">
        <ele>13</ele>
        <time>2025-01-28T14:00:20Z</time>
      </trkpt>
      <trkpt lat="47.62435" lon="-2.85314">
        <ele>13</ele>
        <time>2025-01-28T14:00:21Z</time>
      </trkpt>
      <trkpt lat="47.62434" lon="-2.85315">
        <ele>13</ele>
        <time>2025-01-28T14:00:22Z</time>
      </trkpt>
      <trkpt lat="47.62433" lon="-2.85315">
        <ele>13</ele>
        <time>2025-01-28T14:00:23Z</time>
      </trkpt>
      <trkpt lat="47.62432" lon="-2.85315">
        <ele>13</ele>
        <time>2025-01-28T14:00:24Z</time>
      </trkpt>
      <trkpt lat="47.62431" lon="-2.85316">
        <ele>13</ele>
        <time>2025-01-28T14:00:25Z</time>
      </trkpt>
      <trkpt lat="47.62429" lon="-2.85317">
        <ele>13</ele>
        <time>2025-01-28T14:00:26Z</time>
      </trkpt>
      <trkpt lat="47.62428" lon="-2.85318">
        <ele>13</ele>
        <time>2025-01-28T14:00:27Z</time>
      </trkpt>
      <trkpt lat="47.62427" lon="-2.85318">
        <ele>13</ele>
        <time>2025-01-28T14:00:28Z</time>
      </trkpt>
      <trkpt lat="47.62426" lon="-2.85318">
        <ele>13</ele>
        <time>2025-01-28T14:00:29Z</time>
      </trkpt>
      <trkpt lat="47.62424" lon="-2.85318">
        <ele>13</ele>
        <time>2025-01-28T14:00:30Z</time>
      </trkpt>
      <trkpt lat="47.62423" lon="-2.85319">
        <ele>13</ele>
        <time>2025-01-28T14:00:31Z</time>
      </trkpt>
      <trkpt lat="47.62422" lon="-2.85319">
        <ele>13</ele>
        <time>2025-01-28T14:00:32Z</time>
      </trkpt>
      <trkpt lat="47.62421" lon="-2.85319">
        <ele>13</ele>
        <time>2025-01-28T14:00:33Z</time>
      </trkpt>
      <trkpt lat="47.6242" lon="-2.8532">
        <ele>13</ele>
        <time>2025-01-28T14:00:34Z</time>
      </trkpt>
      <trkpt lat="47.62418" lon="-2.8532">
        <ele>13</ele>
        <time>2025-01-28T14:00:35Z</time>
      </trkpt>
      <trkpt lat="47.62417" lon="-2.8532">
        <ele>13</ele>
        <time>2025-01-28T14:00:36Z</time>
      </trkpt>
      <trkpt lat="47.62416" lon="-2.85321">
        <ele>13</ele>
        <time>2025-01-28T14:00:37Z</time>
      </trkpt>
      <trkpt lat="47.62414" lon="-2.85321">
        <ele>12.9</ele>
        <time>2025-01-28T14:00:38Z</time>
      </trkpt>
      <trkpt lat="47.62414" lon="-2.85321">
        <ele>12.9</ele>
        <time>2025-01-28T14:00:39Z</time>
      </trkpt>
      <trkpt lat="47.62412" lon="-2.85321">
        <ele>12.8</ele>
        <time>2025-01-28T14:00:40Z</time>
      </trkpt>
      <trkpt lat="47.62411" lon="-2.85321">
        <ele>12.8</ele>
        <time>2025-01-28T14:00:41Z</time>
      </trkpt>
      <trkpt lat="47.6241" lon="-2.85322">
        <ele>12.8</ele>
        <time>2025-01-28T14:00:42Z</time>
      </trkpt>
      <trkpt lat="47.62409" lon="-2.85323">
        <ele>12.7</ele>
        <time>2025-01-28T14:00:43Z</time>
      </trkpt>
      <trkpt lat="47.62407" lon="-2.85323">
        <ele>12.7</ele>
        <time>2025-01-28T14:00:44Z</time>
      </trkpt>
      <trkpt lat="47.62406" lon="-2.85324">
        <ele>12.6</ele>
        <time>2025-01-28T14:00:45Z</time>
      </trkpt>
      <trkpt lat="47.62405" lon="-2.85323">
        <ele>12.6</ele>
        <time>2025-01-28T14:00:46Z</time>
      </trkpt>
      <trkpt lat="47.62405" lon="-2.85322">
        <ele>12.6</ele>
        <time>2025-01-28T14:00:47Z</time>
      </trkpt>
      <trkpt lat="47.62404" lon="-2.8532">
        <ele>12.5</ele>
        <time>2025-01-28T14:00:48Z</time>
      </trkpt>
      <trkpt lat="47.62403" lon="-2.85319">
        <ele>12.5</ele>
        <time>2025-01-28T14:00:49Z</time>
      </trkpt>
      <trkpt lat="47.62403" lon="-2.85317">
        <ele>12.5</ele>
        <time>2025-01-28T14:00:50Z</time>
      </trkpt>
      <trkpt lat="47.62402" lon="-2.85316">
        <ele>12.5</ele>
        <time>2025-01-28T14:00:51Z</time>
      </trkpt>
      <trkpt lat="47.62402" lon="-2.85314">
        <ele>12.5</ele>
        <time>2025-01-28T14:00:52Z</time>
      </trkpt>
      <trkpt lat="47.62402" lon="-2.85313">
        <ele>12.5</ele>
        <time>2025-01-28T14:00:53Z</time>
      </trkpt>
      <trkpt lat="47.62401" lon="-2.85311">
        <ele>12.4</ele>
        <time>2025-01-28T14:00:54Z</time>
      </trkpt>
      <trkpt lat="47.62401" lon="-2.85309">
        <ele>12.4</ele>
        <time>2025-01-28T14:00:55Z</time>
      </trkpt>
      <trkpt lat="47.62401" lon="-2.85307">
        <ele>12.4</ele>
        <time>2025-01-28T14:00:56Z</time>
      </trkpt>
      <trkpt lat="47.624" lon="-2.85306">
        <ele>12.4</ele>
        <time>2025-01-28T14:00:57Z</time>
      </trkpt>
      <trkpt lat="47.62399" lon="-2.85304">
        <ele>12.3</ele>
        <time>2025-01-28T14:00:58Z</time>
      </trkpt>
      <trkpt lat="47.62398" lon="-2.85303">
        <ele>12.3</ele>
        <time>2025-01-28T14:00:59Z</time>
      </trkpt>
      <trkpt lat="47.62397" lon="-2.85302">
        <ele>12.2</ele>
        <time>2025-01-28T14:01:00Z</time>
      </trkpt>
      <trkpt lat="47.62397" lon="-2.853">
        <ele>12.1</ele>
        <time>2025-01-28T14:01:01Z</time>
      </trkpt>
      <trkpt lat="47.62396" lon="-2.85299">
        <ele>12.1</ele>
        <time>2025-01-28T14:01:02Z</time>
      </trkpt>
      <trkpt lat="47.62396" lon="-2.85297">
        <ele>12</ele>
        <time>2025-01-28T14:01:03Z</time>
      </trkpt>
      <trkpt lat="47.62395" lon="-2.85295">
        <ele>11.9</ele>
        <time>2025-01-28T14:01:04Z</time>
      </trkpt>
      <trkpt lat="47.62394" lon="-2.85294">
        <ele>11.8</ele>
        <time>2025-01-28T14:01:05Z</time>
      </trkpt>
      <trkpt lat="47.62393" lon="-2.85292">
        <ele>11.7</ele>
        <time>2025-01-28T14:01:06Z</time>
      </trkpt>
      <trkpt lat="47.62393" lon="-2.8529">
        <ele>11.7</ele>
        <time>2025-01-28T14:01:07Z</time>
      </trkpt>
      <trkpt lat="47.62392" lon="-2.85288">
        <ele>11.6</ele>
        <time>2025-01-28T14:01:08Z</time>
      </trkpt>
      <trkpt lat="47.62391" lon="-2.85287">
        <ele>11.5</ele>
        <time>2025-01-28T14:01:09Z</time>
      </trkpt>
      <trkpt lat="47.62391" lon="-2.85286">
        <ele>11.4</ele>
        <time>2025-01-28T14:01:10Z</time>
      </trkpt>
      <trkpt lat="47.62389" lon="-2.85285">
        <ele>11.3</ele>
        <time>2025-01-28T14:01:11Z</time>
      </trkpt>
      <trkpt lat="47.62388" lon="-2.85284">
        <ele>11.2</ele>
        <time>2025-01-28T14:01:12Z</time>
      </trkpt>
      <trkpt lat="47.62388" lon="-2.85283">
        <ele>11.1</ele>
        <time>2025-01-28T14:01:13Z</time>
      </trkpt>
      <trkpt lat="47.62387" lon="-2.85282">
        <ele>11</ele>
        <time>2025-01-28T14:01:14Z</time>
      </trkpt>
      <trkpt lat="47.62386" lon="-2.85281">
        <ele>10.9</ele>
        <time>2025-01-28T14:01:15Z</time>
      </trkpt>
      <trkpt lat="47.62385" lon="-2.85279">
        <ele>10.8</ele>
        <time>2025-01-28T14:01:16Z</time>
      </trkpt>
      <trkpt lat="47.62385" lon="-2.85278">
        <ele>10.7</ele>
        <time>2025-01-28T14:01:17Z</time>
      </trkpt>
      <trkpt lat="47.62384" lon="-2.85277">
        <ele>10.6</ele>
        <time>2025-01-28T14:01:18Z</time>
      </trkpt>
      <trkpt lat="47.62384" lon="-2.85276">
        <ele>10.6</ele>
        <time>2025-01-28T14:01:19Z</time>
      </trkpt>
      <trkpt lat="47.62384" lon="-2.85274">
        <ele>10.6</ele>
        <time>2025-01-28T14:01:20Z</time>
      </trkpt>
      <trkpt lat="47.62385" lon="-2.85272">
        <ele>10.7</ele>
        <time>2025-01-28T14:01:21Z</time>
      </trkpt>
      <trkpt lat="47.62386" lon="-2.8527">
        <ele>10.8</ele>
        <time>2025-01-28T14:01:22Z</time>
      </trkpt>
      <trkpt lat="47.62387" lon="-2.85269">
        <ele>10.8</ele>
        <time>2025-01-28T14:01:23Z</time>
      </trkpt>
      <trkpt lat="47.62387" lon="-2.85267">
        <ele>10.8</ele>
        <time>2025-01-28T14:01:24Z</time>
      </trkpt>
      <trkpt lat="47.62387" lon="-2.85265">
        <ele>10.9</ele>
        <time>2025-01-28T14:01:25Z</time>
      </trkpt>
      <trkpt lat="47.62388" lon="-2.85263">
        <ele>10.9</ele>
        <time>2025-01-28T14:01:26Z</time>
      </trkpt>
      <trkpt lat="47.62389" lon="-2.85262">
        <ele>11</ele>
        <time>2025-01-28T14:01:27Z</time>
      </trkpt>
      <trkpt lat="47.6239" lon="-2.85261">
        <ele>11.1</ele>
        <time>2025-01-28T14:01:28Z</time>
      </trkpt>
      <trkpt lat="47.62391" lon="-2.8526">
        <ele>11.1</ele>
        <time>2025-01-28T14:01:29Z</time>
      </trkpt>
      <trkpt lat="47.62391" lon="-2.85258">
        <ele>11.2</ele>
        <time>2025-01-28T14:01:30Z</time>
      </trkpt>
      <trkpt lat="47.62392" lon="-2.85257">
        <ele>11.2</ele>
        <time>2025-01-28T14:01:31Z</time>
      </trkpt>
      <trkpt lat="47.62392" lon="-2.85255">
        <ele>11.3</ele>
        <time>2025-01-28T14:01:32Z</time>
      </trkpt>
      <trkpt lat="47.62392" lon="-2.85253">
        <ele>11.2</ele>
        <time>2025-01-28T14:01:33Z</time>
      </trkpt>
      <trkpt lat="47.62392" lon="-2.85251">
        <ele>11.2</ele>
        <time>2025-01-28T14:01:34Z</time>
      </trkpt>
      <trkpt lat="47.62392" lon="-2.85249">
        <ele>11.2</ele>
        <time>2025-01-28T14:01:35Z</time>
      </trkpt>
      <trkpt lat="47.62393" lon="-2.85247">
        <ele>11.3</ele>
        <time>2025-01-28T14:01:36Z</time>
      </trkpt>
      <trkpt lat="47.62394" lon="-2.85245">
        <ele>11.3</ele>
        <time>2025-01-28T14:01:37Z</time>
      </trkpt>
      <trkpt lat="47.62395" lon="-2.85244">
        <ele>11.4</ele>
        <time>2025-01-28T14:01:38Z</time>
      </trkpt>
      <trkpt lat="47.62395" lon="-2.85242">
        <ele>11.4</ele>
        <time>2025-01-28T14:01:39Z</time>
      </trkpt>
      <trkpt lat="47.62396" lon="-2.8524">
        <ele>11.5</ele>
        <time>2025-01-28T14:01:40Z</time>
      </trkpt>
      <trkpt lat="47.62396" lon="-2.85239">
        <ele>11.5</ele>
        <time>2025-01-28T14:01:41Z</time>
      </trkpt>
      <trkpt lat="47.62396" lon="-2.85237">
        <ele>11.5</ele>
        <time>2025-01-28T14:01:42Z</time>
      </trkpt>
      <trkpt lat="47.62396" lon="-2.85235">
        <ele>11.5</ele>
        <time>2025-01-28T14:01:43Z</time>
      </trkpt>
      <trkpt lat="47.62396" lon="-2.85233">
        <ele>11.5</ele>
        <time>2025-01-28T14:01:44Z</time>
      </trkpt>
      <trkpt lat="47.62396" lon="-2.85231">
        <ele>11.5</ele>
        <time>2025-01-28T14:01:45Z</time>
      </trkpt>
      <trkpt lat="47.62396" lon="-2.85229">
        <ele>11.5</ele>
        <time>2025-01-28T14:01:46Z</time>
      </trkpt>
      <trkpt lat="47.62395" lon="-2.85227">
        <ele>11.5</ele>
        <time>2025-01-28T14:01:47Z</time>
      </trkpt>
      <trkpt lat="47.62395" lon="-2.85226">
        <ele>11.4</ele>
        <time>2025-01-28T14:01:48Z</time>
      </trkpt>
      <trkpt lat="47.62395" lon="-2.85224">
        <ele>11.4</ele>
        <time>2025-01-28T14:01:49Z</time>
      </trkpt>
      <trkpt lat="47.62395" lon="-2.85222">
        <ele>11.4</ele>
        <time>2025-01-28T14:01:50Z</time>
      </trkpt>
      <trkpt lat="47.62395" lon="-2.8522">
        <ele>11.4</ele>
        <time>2025-01-28T14:01:51Z</time>
      </trkpt>
      <trkpt lat="47.62395" lon="-2.85219">
        <ele>11.4</ele>
        <time>2025-01-28T14:01:52Z</time>
      </trkpt>
      <trkpt lat="47.62394" lon="-2.85217">
        <ele>11.4</ele>
        <time>2025-01-28T14:01:53Z</time>
      </trkpt>
      <trkpt lat="47.62394" lon="-2.85215">
        <ele>11.4</ele>
        <time>2025-01-28T14:01:54Z</time>
      </trkpt>
      <trkpt lat="47.62395" lon="-2.85213">
        <ele>11.4</ele>
        <time>2025-01-28T14:01:55Z</time>
      </trkpt>
      <trkpt lat="47.62395" lon="-2.85211">
        <ele>11.4</ele>
        <time>2025-01-28T14:01:56Z</time>
      </trkpt>
      <trkpt lat="47.62395" lon="-2.8521">
        <ele>11.4</ele>
        <time>2025-01-28T14:01:57Z</time>
      </trkpt>
      <trkpt lat="47.62395" lon="-2.85208">
        <ele>11.4</ele>
        <time>2025-01-28T14:01:58Z</time>
      </trkpt>
      <trkpt lat="47.62395" lon="-2.85206">
        <ele>11.5</ele>
        <time>2025-01-28T14:01:59Z</time>
      </trkpt>
      <trkpt lat="47.62395" lon="-2.85205">
        <ele>11.5</ele>
        <time>2025-01-28T14:02:00Z</time>
      </trkpt>
      <trkpt lat="47.62396" lon="-2.85205">
        <ele>11.5</ele>
        <time>2025-01-28T14:02:01Z</time>
      </trkpt>
      <trkpt lat="47.62396" lon="-2.85205">
        <ele>11.5</ele>
        <time>2025-01-28T14:02:02Z</time>
      </trkpt>
      <trkpt lat="47.62396" lon="-2.85203">
        <ele>11.5</ele>
        <time>2025-01-28T14:02:03Z</time>
      </trkpt>
      <trkpt lat="47.62396" lon="-2.85201">
        <ele>11.5</ele>
        <time>2025-01-28T14:02:04Z</time>
      </trkpt>
      <trkpt lat="47.62397" lon="-2.852">
        <ele>11.6</ele>
        <time>2025-01-28T14:02:05Z</time>
      </trkpt>
      <trkpt lat="47.62397" lon="-2.852">
        <ele>11.6</ele>
        <time>2025-01-28T14:02:06Z</time>
      </trkpt>
      <trkpt lat="47.62396" lon="-2.85196">
        <ele>11.5</ele>
        <time>2025-01-28T14:02:07Z</time>
      </trkpt>
      <trkpt lat="47.62396" lon="-2.85194">
        <ele>11.5</ele>
        <time>2025-01-28T14:02:08Z</time>
      </trkpt>
      <trkpt lat="47.62396" lon="-2.85193">
        <ele>11.5</ele>
        <time>2025-01-28T14:02:09Z</time>
      </trkpt>
      <trkpt lat="47.62396" lon="-2.85191">
        <ele>11.4</ele>
        <time>2025-01-28T14:02:10Z</time>
      </trkpt>
      <trkpt lat="47.62395" lon="-2.8519">
        <ele>11.3</ele>
        <time>2025-01-28T14:02:11Z</time>
      </trkpt>
      <trkpt lat="47.62395" lon="-2.8519">
        <ele>11.3</ele>
        <time>2025-01-28T14:02:12Z</time>
      </trkpt>
      <trkpt lat="47.62394" lon="-2.85188">
        <ele>11.2</ele>
        <time>2025-01-28T14:02:13Z</time>
      </trkpt>
      <trkpt lat="47.62394" lon="-2.85187">
        <ele>11.1</ele>
        <time>2025-01-28T14:02:14Z</time>
      </trkpt>
      <trkpt lat="47.62394" lon="-2.85186">
        <ele>11.1</ele>
        <time>2025-01-28T14:02:15Z</time>
      </trkpt>
      <trkpt lat="47.62394" lon="-2.85185">
        <ele>11.1</ele>
        <time>2025-01-28T14:02:16Z</time>
      </trkpt>
      <trkpt lat="47.62395" lon="-2.85184">
        <ele>11.2</ele>
        <time>2025-01-28T14:02:17Z</time>
      </trkpt>
      <trkpt lat="47.62396" lon="-2.85183">
        <ele>11.2</ele>
        <time>2025-01-28T14:02:18Z</time>
      </trkpt>
      <trkpt lat="47.62397" lon="-2.85182">
        <ele>11.2</ele>
        <time>2025-01-28T14:02:19Z</time>
      </trkpt>
      <trkpt lat="47.62397" lon="-2.8518">
        <ele>11.2</ele>
        <time>2025-01-28T14:02:20Z</time>
      </trkpt>
      <trkpt lat="47.62397" lon="-2.85179">
        <ele>11.2</ele>
        <time>2025-01-28T14:02:21Z</time>
      </trkpt>
      <trkpt lat="47.62397" lon="-2.85178">
        <ele>11.1</ele>
        <time>2025-01-28T14:02:22Z</time>
      </trkpt>
      <trkpt lat="47.62396" lon="-2.85176">
        <ele>11.1</ele>
        <time>2025-01-28T14:02:23Z</time>
      </trkpt>
      <trkpt lat="47.62396" lon="-2.85175">
        <ele>10.9</ele>
        <time>2025-01-28T14:02:24Z</time>
      </trkpt>
      <trkpt lat="47.62395" lon="-2.85174">
        <ele>10.8</ele>
        <time>2025-01-28T14:02:25Z</time>
      </trkpt>
      <trkpt lat="47.62395" lon="-2.85172">
        <ele>10.8</ele>
        <time>2025-01-28T14:02:26Z</time>
      </trkpt>
      <trkpt lat="47.62394" lon="-2.85171">
        <ele>10.7</ele>
        <time>2025-01-28T14:02:27Z</time>
      </trkpt>
      <trkpt lat="47.62394" lon="-2.85169">
        <ele>10.6</ele>
        <time>2025-01-28T14:02:28Z</time>
      </trkpt>
      <trkpt lat="47.62393" lon="-2.85167">
        <ele>10.5</ele>
        <time>2025-01-28T14:02:29Z</time>
      </trkpt>
      <trkpt lat="47.62393" lon="-2.85166">
        <ele>10.4</ele>
        <time>2025-01-28T14:02:30Z</time>
      </trkpt>
      <trkpt lat="47.62393" lon="-2.85164">
        <ele>10.3</ele>
        <time>2025-01-28T14:02:31Z</time>
      </trkpt>
      <trkpt lat="47.62393" lon="-2.85163">
        <ele>10.3</ele>
        <time>2025-01-28T14:02:32Z</time>
      </trkpt>
      <trkpt lat="47.62393" lon="-2.85161">
        <ele>10.2</ele>
        <time>2025-01-28T14:02:33Z</time>
      </trkpt>
      <trkpt lat="47.62392" lon="-2.85159">
        <ele>10</ele>
        <time>2025-01-28T14:02:34Z</time>
      </trkpt>
      <trkpt lat="47.62392" lon="-2.85157">
        <ele>10</ele>
        <time>2025-01-28T14:02:35Z</time>
      </trkpt>
      <trkpt lat="47.62392" lon="-2.85156">
        <ele>9.9</ele>
        <time>2025-01-28T14:02:36Z</time>
      </trkpt>
      <trkpt lat="47.62392" lon="-2.85154">
        <ele>9.8</ele>
        <time>2025-01-28T14:02:37Z</time>
      </trkpt>
      <trkpt lat="47.62392" lon="-2.85152">
        <ele>9.8</ele>
        <time>2025-01-28T14:02:38Z</time>
      </trkpt>
      <trkpt lat="47.62392" lon="-2.85151">
        <ele>9.8</ele>
        <time>2025-01-28T14:02:39Z</time>
      </trkpt>
      <trkpt lat="47.62392" lon="-2.85149">
        <ele>9.7</ele>
        <time>2025-01-28T14:02:40Z</time>
      </trkpt>
      <trkpt lat="47.62393" lon="-2.85148">
        <ele>9.7</ele>
        <time>2025-01-28T14:02:41Z</time>
      </trkpt>
      <trkpt lat="47.62393" lon="-2.85146">
        <ele>9.6</ele>
        <time>2025-01-28T14:02:42Z</time>
      </trkpt>
      <trkpt lat="47.62393" lon="-2.85144">
        <ele>9.6</ele>
        <time>2025-01-28T14:02:43Z</time>
      </trkpt>
      <trkpt lat="47.62393" lon="-2.85142">
        <ele>9.6</ele>
        <time>2025-01-28T14:02:44Z</time>
      </trkpt>
      <trkpt lat="47.62393" lon="-2.8514">
        <ele>9.5</ele>
        <time>2025-01-28T14:02:45Z</time>
      </trkpt>
      <trkpt lat="47.62393" lon="-2.85139">
        <ele>9.4</ele>
        <time>2025-01-28T14:02:46Z</time>
      </trkpt>
      <trkpt lat="47.62393" lon="-2.85137">
        <ele>9.4</ele>
        <time>2025-01-28T14:02:47Z</time>
      </trkpt>
      <trkpt lat="47.62393" lon="-2.85135">
        <ele>9.4</ele>
        <time>2025-01-28T14:02:48Z</time>
      </trkpt>
      <trkpt lat="47.62393" lon="-2.85133">
        <ele>9.4</ele>
        <time>2025-01-28T14:02:49Z</time>
      </trkpt>
      <trkpt lat="47.62393" lon="-2.85132">
        <ele>9.4</ele>
        <time>2025-01-28T14:02:50Z</time>
      </trkpt>
      <trkpt lat="47.62393" lon="-2.8513">
        <ele>9.4</ele>
        <time>2025-01-28T14:02:51Z</time>
      </trkpt>
      <trkpt lat="47.62393" lon="-2.85128">
        <ele>9.4</ele>
        <time>2025-01-28T14:02:52Z</time>
      </trkpt>
      <trkpt lat="47.62393" lon="-2.85126">
        <ele>9.4</ele>
        <time>2025-01-28T14:02:53Z</time>
      </trkpt>
      <trkpt lat="47.62393" lon="-2.85124">
        <ele>9.4</ele>
        <time>2025-01-28T14:02:54Z</time>
      </trkpt>
      <trkpt lat="47.62394" lon="-2.85123">
        <ele>9.4</ele>
        <time>2025-01-28T14:02:55Z</time>
      </trkpt>
      <trkpt lat="47.62394" lon="-2.85121">
        <ele>9.4</ele>
        <time>2025-01-28T14:02:56Z</time>
      </trkpt>
      <trkpt lat="47.62394" lon="-2.85119">
        <ele>9.4</ele>
        <time>2025-01-28T14:02:57Z</time>
      </trkpt>
      <trkpt lat="47.62394" lon="-2.85118">
        <ele>9.4</ele>
        <time>2025-01-28T14:02:58Z</time>
      </trkpt>
      <trkpt lat="47.62394" lon="-2.85116">
        <ele>9.4</ele>
        <time>2025-01-28T14:02:59Z</time>
      </trkpt>
      <trkpt lat="47.62394" lon="-2.85114">
        <ele>9.4</ele>
        <time>2025-01-28T14:03:00Z</time>
      </trkpt>
      <trkpt lat="47.62394" lon="-2.85112">
        <ele>9.4</ele>
        <time>2025-01-28T14:03:01Z</time>
      </trkpt>
      <trkpt lat="47.62394" lon="-2.85111">
        <ele>9.4</ele>
        <time>2025-01-28T14:03:02Z</time>
      </trkpt>
      <trkpt lat="47.62394" lon="-2.85109">
        <ele>9.5</ele>
        <time>2025-01-28T14:03:03Z</time>
      </trkpt>
      <trkpt lat="47.62394" lon="-2.85108">
        <ele>9.6</ele>
        <time>2025-01-28T14:03:04Z</time>
      </trkpt>
      <trkpt lat="47.62394" lon="-2.85106">
        <ele>9.7</ele>
        <time>2025-01-28T14:03:05Z</time>
      </trkpt>
      <trkpt lat="47.62394" lon="-2.85104">
        <ele>9.8</ele>
        <time>2025-01-28T14:03:06Z</time>
      </trkpt>
      <trkpt lat="47.62393" lon="-2.85102">
        <ele>9.9</ele>
        <time>2025-01-28T14:03:07Z</time>
      </trkpt>
      <trkpt lat="47.62393" lon="-2.851">
        <ele>9.9</ele>
        <time>2025-01-28T14:03:08Z</time>
      </trkpt>
      <trkpt lat="47.62393" lon="-2.85098">
        <ele>10.1</ele>
        <time>2025-01-28T14:03:09Z</time>
      </trkpt>
      <trkpt lat="47.62392" lon="-2.85097">
        <ele>10.1</ele>
        <time>2025-01-28T14:03:10Z</time>
      </trkpt>
      <trkpt lat="47.62391" lon="-2.85095">
        <ele>10.2</ele>
        <time>2025-01-28T14:03:11Z</time>
      </trkpt>
      <trkpt lat="47.6239" lon="-2.85093">
        <ele>10.3</ele>
        <time>2025-01-28T14:03:12Z</time>
      </trkpt>
      <trkpt lat="47.6239" lon="-2.85092">
        <ele>10.4</ele>
        <time>2025-01-28T14:03:13Z</time>
      </trkpt>
      <trkpt lat="47.62389" lon="-2.8509">
        <ele>10.5</ele>
        <time>2025-01-28T14:03:14Z</time>
      </trkpt>
      <trkpt lat="47.62388" lon="-2.85089">
        <ele>10.6</ele>
        <time>2025-01-28T14:03:15Z</time>
      </trkpt>
      <trkpt lat="47.62387" lon="-2.85088">
        <ele>10.6</ele>
        <time>2025-01-28T14:03:16Z</time>
      </trkpt>
      <trkpt lat="47.62386" lon="-2.85087">
        <ele>10.6</ele>
        <time>2025-01-28T14:03:17Z</time>
      </trkpt>
      <trkpt lat="47.62385" lon="-2.85086">
        <ele>10.7</ele>
        <time>2025-01-28T14:03:18Z</time>
      </trkpt>
      <trkpt lat="47.62384" lon="-2.85084">
        <ele>10.8</ele>
        <time>2025-01-28T14:03:19Z</time>
      </trkpt>
      <trkpt lat="47.62384" lon="-2.85083">
        <ele>10.8</ele>
        <time>2025-01-28T14:03:20Z</time>
      </trkpt>
      <trkpt lat="47.62383" lon="-2.85082">
        <ele>10.9</ele>
        <time>2025-01-28T14:03:21Z</time>
      </trkpt>
      <trkpt lat="47.62382" lon="-2.8508">
        <ele>10.9</ele>
        <time>2025-01-28T14:03:22Z</time>
      </trkpt>
      <trkpt lat="47.62381" lon="-2.85079">
        <ele>11</ele>
        <time>2025-01-28T14:03:23Z</time>
      </trkpt>
      <trkpt lat="47.62381" lon="-2.85078">
        <ele>11</ele>
        <time>2025-01-28T14:03:24Z</time>
      </trkpt>
      <trkpt lat="47.6238" lon="-2.85076">
        <ele>11.1</ele>
        <time>2025-01-28T14:03:25Z</time>
      </trkpt>
      <trkpt lat="47.6238" lon="-2.85075">
        <ele>11.2</ele>
        <time>2025-01-28T14:03:26Z</time>
      </trkpt>
      <trkpt lat="47.62379" lon="-2.85074">
        <ele>11.2</ele>
        <time>2025-01-28T14:03:27Z</time>
      </trkpt>
      <trkpt lat="47.62378" lon="-2.85072">
        <ele>11.3</ele>
        <time>2025-01-28T14:03:28Z</time>
      </trkpt>
      <trkpt lat="47.62377" lon="-2.85072">
        <ele>11.3</ele>
        <time>2025-01-28T14:03:29Z</time>
      </trkpt>
      <trkpt lat="47.62376" lon="-2.85071">
        <ele>11.4</ele>
        <time>2025-01-28T14:03:30Z</time>
      </trkpt>
      <trkpt lat="47.62376" lon="-2.8507">
        <ele>11.5</ele>
        <time>2025-01-28T14:03:31Z</time>
      </trkpt>
      <trkpt lat="47.62375" lon="-2.85068">
        <ele>11.6</ele>
        <time>2025-01-28T14:03:32Z</time>
      </trkpt>
      <trkpt lat="47.62375" lon="-2.85067">
        <ele>11.7</ele>
        <time>2025-01-28T14:03:33Z</time>
      </trkpt>
      <trkpt lat="47.62375" lon="-2.85065">
        <ele>11.8</ele>
        <time>2025-01-28T14:03:34Z</time>
      </trkpt>
      <trkpt lat="47.62375" lon="-2.85063">
        <ele>12</ele>
        <time>2025-01-28T14:03:35Z</time>
      </trkpt>
      <trkpt lat="47.62375" lon="-2.85061">
        <ele>12.1</ele>
        <time>2025-01-28T14:03:36Z</time>
      </trkpt>
      <trkpt lat="47.62375" lon="-2.85059">
        <ele>12.2</ele>
        <time>2025-01-28T14:03:37Z</time>
      </trkpt>
      <trkpt lat="47.62375" lon="-2.85057">
        <ele>12.4</ele>
        <time>2025-01-28T14:03:38Z</time>
      </trkpt>
      <trkpt lat="47.62374" lon="-2.85056">
        <ele>12.5</ele>
        <time>2025-01-28T14:03:39Z</time>
      </trkpt>
      <trkpt lat="47.62374" lon="-2.85054">
        <ele>12.6</ele>
        <time>2025-01-28T14:03:40Z</time>
      </trkpt>
      <trkpt lat="47.62374" lon="-2.85052">
        <ele>12.6</ele>
        <time>2025-01-28T14:03:41Z</time>
      </trkpt>
      <trkpt lat="47.62374" lon="-2.8505">
        <ele>12.6</ele>
        <time>2025-01-28T14:03:42Z</time>
      </trkpt>
      <trkpt lat="47.62373" lon="-2.85049">
        <ele>12.7</ele>
        <time>2025-01-28T14:03:43Z</time>
      </trkpt>
      <trkpt lat="47.62373" lon="-2.85047">
        <ele>12.7</ele>
        <time>2025-01-28T14:03:44Z</time>
      </trkpt>
      <trkpt lat="47.62372" lon="-2.85046">
        <ele>12.7</ele>
        <time>2025-01-28T14:03:45Z</time>
      </trkpt>
      <trkpt lat="47.62372" lon="-2.85044">
        <ele>12.8</ele>
        <time>2025-01-28T14:03:46Z</time>
      </trkpt>
      <trkpt lat="47.62372" lon="-2.85043">
        <ele>12.8</ele>
        <time>2025-01-28T14:03:47Z</time>
      </trkpt>
      <trkpt lat="47.62372" lon="-2.85041">
        <ele>12.8</ele>
        <time>2025-01-28T14:03:48Z</time>
      </trkpt>
      <trkpt lat="47.62371" lon="-2.85039">
        <ele>12.9</ele>
        <time>2025-01-28T14:03:49Z</time>
      </trkpt>
      <trkpt lat="47.62371" lon="-2.85038">
        <ele>12.9</ele>
        <time>2025-01-28T14:03:50Z</time>
      </trkpt>
      <trkpt lat="47.6237" lon="-2.85037">
        <ele>12.9</ele>
        <time>2025-01-28T14:03:51Z</time>
      </trkpt>
      <trkpt lat="47.6237" lon="-2.85035">
        <ele>12.9</ele>
        <time>2025-01-28T14:03:52Z</time>
      </trkpt>
      <trkpt lat="47.62369" lon="-2.85034">
        <ele>12.9</ele>
        <time>2025-01-28T14:03:53Z</time>
      </trkpt>
      <trkpt lat="47.62369" lon="-2.85033">
        <ele>13</ele>
        <time>2025-01-28T14:03:54Z</time>
      </trkpt>
      <trkpt lat="47.62368" lon="-2.85031">
        <ele>13</ele>
        <time>2025-01-28T14:03:55Z</time>
      </trkpt>
      <trkpt lat="47.62368" lon="-2.8503">
        <ele>13</ele>
        <time>2025-01-28T14:03:56Z</time>
      </trkpt>
      <trkpt lat="47.62368" lon="-2.85028">
        <ele>13</ele>
        <time>2025-01-28T14:03:57Z</time>
      </trkpt>
      <trkpt lat="47.62367" lon="-2.85027">
        <ele>13.1</ele>
        <time>2025-01-28T14:03:58Z</time>
      </trkpt>
      <trkpt lat="47.62367" lon="-2.85025">
        <ele>13.2</ele>
        <time>2025-01-28T14:03:59Z</time>
      </trkpt>
      <trkpt lat="47.62366" lon="-2.85024">
        <ele>13.3</ele>
        <time>2025-01-28T14:04:00Z</time>
      </trkpt>
      <trkpt lat="47.62366" lon="-2.85022">
        <ele>13.4</ele>
        <time>2025-01-28T14:04:01Z</time>
      </trkpt>
      <trkpt lat="47.62365" lon="-2.85021">
        <ele>13.5</ele>
        <time>2025-01-28T14:04:02Z</time>
      </trkpt>
      <trkpt lat="47.62365" lon="-2.85019">
        <ele>13.6</ele>
        <time>2025-01-28T14:04:03Z</time>
      </trkpt>
      <trkpt lat="47.62365" lon="-2.85018">
        <ele>13.7</ele>
        <time>2025-01-28T14:04:04Z</time>
      </trkpt>
      <trkpt lat="47.62365" lon="-2.85017">
        <ele>13.8</ele>
        <time>2025-01-28T14:04:05Z</time>
      </trkpt>
      <trkpt lat="47.62365" lon="-2.85015">
        <ele>13.9</ele>
        <time>2025-01-28T14:04:06Z</time>
      </trkpt>
      <trkpt lat="47.62365" lon="-2.85014">
        <ele>14</ele>
        <time>2025-01-28T14:04:07Z</time>
      </trkpt>
      <trkpt lat="47.62364" lon="-2.85012">
        <ele>14.1</ele>
        <time>2025-01-28T14:04:08Z</time>
      </trkpt>
      <trkpt lat="47.62364" lon="-2.8501">
        <ele>14.2</ele>
        <time>2025-01-28T14:04:09Z</time>
      </trkpt>
      <trkpt lat="47.62364" lon="-2.85008">
        <ele>14.4</ele>
        <time>2025-01-28T14:04:10Z</time>
      </trkpt>
      <trkpt lat="47.62363" lon="-2.85006">
        <ele>14.5</ele>
        <time>2025-01-28T14:04:11Z</time>
      </trkpt>
      <trkpt lat="47.62363" lon="-2.85005">
        <ele>14.6</ele>
        <time>2025-01-28T14:04:12Z</time>
      </trkpt>
      <trkpt lat="47.62363" lon="-2.85003">
        <ele>14.7</ele>
        <time>2025-01-28T14:04:13Z</time>
      </trkpt>
      <trkpt lat="47.62362" lon="-2.85002">
        <ele>14.9</ele>
        <time>2025-01-28T14:04:14Z</time>
      </trkpt>
      <trkpt lat="47.62361" lon="-2.85">
        <ele>15</ele>
        <time>2025-01-28T14:04:15Z</time>
      </trkpt>
      <trkpt lat="47.62361" lon="-2.84999">
        <ele>15.1</ele>
        <time>2025-01-28T14:04:16Z</time>
      </trkpt>
      <trkpt lat="47.6236" lon="-2.84997">
        <ele>15.1</ele>
        <time>2025-01-28T14:04:17Z</time>
      </trkpt>
      <trkpt lat="47.6236" lon="-2.84996">
        <ele>15.2</ele>
        <time>2025-01-28T14:04:18Z</time>
      </trkpt>
      <trkpt lat="47.62359" lon="-2.84994">
        <ele>15.3</ele>
        <time>2025-01-28T14:04:19Z</time>
      </trkpt>
      <trkpt lat="47.62359" lon="-2.84993">
        <ele>15.4</ele>
        <time>2025-01-28T14:04:20Z</time>
      </trkpt>
      <trkpt lat="47.62358" lon="-2.84991">
        <ele>15.4</ele>
        <time>2025-01-28T14:04:21Z</time>
      </trkpt>
      <trkpt lat="47.62358" lon="-2.8499">
        <ele>15.5</ele>
        <time>2025-01-28T14:04:22Z</time>
      </trkpt>
      <trkpt lat="47.62357" lon="-2.84988">
        <ele>15.6</ele>
        <time>2025-01-28T14:04:23Z</time>
      </trkpt>
      <trkpt lat="47.62357" lon="-2.84987">
        <ele>15.6</ele>
        <time>2025-01-28T14:04:24Z</time>
      </trkpt>
      <trkpt lat="47.62356" lon="-2.84986">
        <ele>15.7</ele>
        <time>2025-01-28T14:04:25Z</time>
      </trkpt>
      <trkpt lat="47.62356" lon="-2.84984">
        <ele>15.8</ele>
        <time>2025-01-28T14:04:26Z</time>
      </trkpt>
      <trkpt lat="47.62355" lon="-2.84983">
        <ele>15.8</ele>
        <time>2025-01-28T14:04:27Z</time>
      </trkpt>
      <trkpt lat="47.62355" lon="-2.84982">
        <ele>15.9</ele>
        <time>2025-01-28T14:04:28Z</time>
      </trkpt>
      <trkpt lat="47.62354" lon="-2.8498">
        <ele>16</ele>
        <time>2025-01-28T14:04:29Z</time>
      </trkpt>
      <trkpt lat="47.62353" lon="-2.84979">
        <ele>16</ele>
        <time>2025-01-28T14:04:30Z</time>
      </trkpt>
      <trkpt lat="47.62353" lon="-2.84977">
        <ele>16.1</ele>
        <time>2025-01-28T14:04:31Z</time>
      </trkpt>
      <trkpt lat="47.62352" lon="-2.84976">
        <ele>16.2</ele>
        <time>2025-01-28T14:04:32Z</time>
      </trkpt>
      <trkpt lat="47.62351" lon="-2.84975">
        <ele>16.3</ele>
        <time>2025-01-28T14:04:33Z</time>
      </trkpt>
      <trkpt lat="47.6235" lon="-2.84974">
        <ele>16.3</ele>
        <time>2025-01-28T14:04:34Z</time>
      </trkpt>
      <trkpt lat="47.6235" lon="-2.84973">
        <ele>16.4</ele>
        <time>2025-01-28T14:04:35Z</time>
      </trkpt>
      <trkpt lat="47.62349" lon="-2.84972">
        <ele>16.5</ele>
        <time>2025-01-28T14:04:36Z</time>
      </trkpt>
      <trkpt lat="47.62348" lon="-2.84971">
        <ele>16.6</ele>
        <time>2025-01-28T14:04:37Z</time>
      </trkpt>
      <trkpt lat="47.62347" lon="-2.8497">
        <ele>16.7</ele>
        <time>2025-01-28T14:04:38Z</time>
      </trkpt>
      <trkpt lat="47.62347" lon="-2.84968">
        <ele>16.7</ele>
        <time>2025-01-28T14:04:39Z</time>
      </trkpt>
      <trkpt lat="47.62346" lon="-2.84967">
        <ele>16.8</ele>
        <time>2025-01-28T14:04:40Z</time>
      </trkpt>
      <trkpt lat="47.62345" lon="-2.84966">
        <ele>17</ele>
        <time>2025-01-28T14:04:41Z</time>
      </trkpt>
      <trkpt lat="47.62344" lon="-2.84964">
        <ele>17.1</ele>
        <time>2025-01-28T14:04:42Z</time>
      </trkpt>
      <trkpt lat="47.62343" lon="-2.84963">
        <ele>17.2</ele>
        <time>2025-01-28T14:04:43Z</time>
      </trkpt>
      <trkpt lat="47.62343" lon="-2.84962">
        <ele>17.3</ele>
        <time>2025-01-28T14:04:44Z</time>
      </trkpt>
      <trkpt lat="47.62342" lon="-2.8496">
        <ele>17.4</ele>
        <time>2025-01-28T14:04:45Z</time>
      </trkpt>
      <trkpt lat="47.62341" lon="-2.8496">
        <ele>17.5</ele>
        <time>2025-01-28T14:04:46Z</time>
      </trkpt>
      <trkpt lat="47.6234" lon="-2.84958">
        <ele>17.7</ele>
        <time>2025-01-28T14:04:47Z</time>
      </trkpt>
      <trkpt lat="47.62339" lon="-2.84958">
        <ele>17.7</ele>
        <time>2025-01-28T14:04:48Z</time>
      </trkpt>
      <trkpt lat="47.62338" lon="-2.84957">
        <ele>17.8</ele>
        <time>2025-01-28T14:04:49Z</time>
      </trkpt>
      <trkpt lat="47.62337" lon="-2.84956">
        <ele>17.9</ele>
        <time>2025-01-28T14:04:50Z</time>
      </trkpt>
      <trkpt lat="47.62336" lon="-2.84956">
        <ele>18</ele>
        <time>2025-01-28T14:04:51Z</time>
      </trkpt>
      <trkpt lat="47.62335" lon="-2.84955">
        <ele>18.1</ele>
        <time>2025-01-28T14:04:52Z</time>
      </trkpt>
      <trkpt lat="47.62334" lon="-2.84954">
        <ele>18.2</ele>
        <time>2025-01-28T14:04:53Z</time>
      </trkpt>
      <trkpt lat="47.62334" lon="-2.84953">
        <ele>18.3</ele>
        <time>2025-01-28T14:04:54Z</time>
      </trkpt>
      <trkpt lat="47.62333" lon="-2.84952">
        <ele>18.5</ele>
        <time>2025-01-28T14:04:55Z</time>
      </trkpt>
      <trkpt lat="47.62332" lon="-2.84951">
        <ele>18.6</ele>
        <time>2025-01-28T14:04:56Z</time>
      </trkpt>
      <trkpt lat="47.62331" lon="-2.8495">
        <ele>18.7</ele>
        <time>2025-01-28T14:04:57Z</time>
      </trkpt>
      <trkpt lat="47.62331" lon="-2.84948">
        <ele>18.8</ele>
        <time>2025-01-28T14:04:58Z</time>
      </trkpt>
      <trkpt lat="47.6233" lon="-2.84947">
        <ele>18.9</ele>
        <time>2025-01-28T14:04:59Z</time>
      </trkpt>
      <trkpt lat="47.62329" lon="-2.84946">
        <ele>19.1</ele>
        <time>2025-01-28T14:05:00Z</time>
      </trkpt>
      <trkpt lat="47.62329" lon="-2.84944">
        <ele>19.2</ele>
        <time>2025-01-28T14:05:01Z</time>
      </trkpt>
      <trkpt lat="47.62329" lon="-2.84943">
        <ele>19.2</ele>
        <time>2025-01-28T14:05:02Z</time>
      </trkpt>
      <trkpt lat="47.62328" lon="-2.84943">
        <ele>19.2</ele>
        <time>2025-01-28T14:05:03Z</time>
      </trkpt>
      <trkpt lat="47.62327" lon="-2.84942">
        <ele>19.3</ele>
        <time>2025-01-28T14:05:04Z</time>
      </trkpt>
      <trkpt lat="47.62326" lon="-2.84942">
        <ele>19.3</ele>
        <time>2025-01-28T14:05:05Z</time>
      </trkpt>
      <trkpt lat="47.62325" lon="-2.8494">
        <ele>19.4</ele>
        <time>2025-01-28T14:05:06Z</time>
      </trkpt>
      <trkpt lat="47.62325" lon="-2.84939">
        <ele>19.5</ele>
        <time>2025-01-28T14:05:07Z</time>
      </trkpt>
      <trkpt lat="47.62324" lon="-2.84938">
        <ele>19.5</ele>
        <time>2025-01-28T14:05:08Z</time>
      </trkpt>
      <trkpt lat="47.62323" lon="-2.84938">
        <ele>19.5</ele>
        <time>2025-01-28T14:05:09Z</time>
      </trkpt>
      <trkpt lat="47.62323" lon="-2.84937">
        <ele>19.5</ele>
        <time>2025-01-28T14:05:10Z</time>
      </trkpt>
      <trkpt lat="47.62322" lon="-2.84937">
        <ele>19.6</ele>
        <time>2025-01-28T14:05:11Z</time>
      </trkpt>
      <trkpt lat="47.62322" lon="-2.84937">
        <ele>19.6</ele>
        <time>2025-01-28T14:05:12Z</time>
      </trkpt>
      <trkpt lat="47.62321" lon="-2.84937">
        <ele>19.6</ele>
        <time>2025-01-28T14:05:13Z</time>
      </trkpt>
      <trkpt lat="47.62321" lon="-2.84936">
        <ele>19.6</ele>
        <time>2025-01-28T14:05:14Z</time>
      </trkpt>
      <trkpt lat="47.6232" lon="-2.84935">
        <ele>19.7</ele>
        <time>2025-01-28T14:05:15Z</time>
      </trkpt>
      <trkpt lat="47.6232" lon="-2.84934">
        <ele>19.7</ele>
        <time>2025-01-28T14:05:16Z</time>
      </trkpt>
      <trkpt lat="47.62319" lon="-2.84933">
        <ele>19.7</ele>
        <time>2025-01-28T14:05:17Z</time>
      </trkpt>
      <trkpt lat="47.62319" lon="-2.84932">
        <ele>19.7</ele>
        <time>2025-01-28T14:05:18Z</time>
      </trkpt>
      <trkpt lat="47.62318" lon="-2.84931">
        <ele>19.8</ele>
        <time>2025-01-28T14:05:19Z</time>
      </trkpt>
      <trkpt lat="47.62317" lon="-2.8493">
        <ele>19.8</ele>
        <time>2025-01-28T14:05:20Z</time>
      </trkpt>
      <trkpt lat="47.62316" lon="-2.84929">
        <ele>19.8</ele>
        <time>2025-01-28T14:05:21Z</time>
      </trkpt>
      <trkpt lat="47.62316" lon="-2.84928">
        <ele>19.8</ele>
        <time>2025-01-28T14:05:22Z</time>
      </trkpt>
      <trkpt lat="47.62315" lon="-2.84927">
        <ele>19.9</ele>
        <time>2025-01-28T14:05:23Z</time>
      </trkpt>
      <trkpt lat="47.62314" lon="-2.84926">
        <ele>19.9</ele>
        <time>2025-01-28T14:05:24Z</time>
      </trkpt>
      <trkpt lat="47.62313" lon="-2.84925">
        <ele>19.9</ele>
        <time>2025-01-28T14:05:25Z</time>
      </trkpt>
      <trkpt lat="47.62313" lon="-2.84924">
        <ele>19.9</ele>
        <time>2025-01-28T14:05:26Z</time>
      </trkpt>
      <trkpt lat="47.62312" lon="-2.84922">
        <ele>20</ele>
        <time>2025-01-28T14:05:27Z</time>
      </trkpt>
      <trkpt lat="47.62311" lon="-2.84921">
        <ele>20</ele>
        <time>2025-01-28T14:05:28Z</time>
      </trkpt>
      <trkpt lat="47.6231" lon="-2.84919">
        <ele>20</ele>
        <time>2025-01-28T14:05:29Z</time>
      </trkpt>
      <trkpt lat="47.6231" lon="-2.84918">
        <ele>20</ele>
        <time>2025-01-28T14:05:30Z</time>
      </trkpt>
      <trkpt lat="47.62309" lon="-2.84916">
        <ele>20</ele>
        <time>2025-01-28T14:05:31Z</time>
      </trkpt>
      <trkpt lat="47.62308" lon="-2.84915">
        <ele>20</ele>
        <time>2025-01-28T14:05:32Z</time>
      </trkpt>
      <trkpt lat="47.62308" lon="-2.84914">
        <ele>20</ele>
        <time>2025-01-28T14:05:33Z</time>
      </trkpt>
      <trkpt lat="47.62307" lon="-2.84913">
        <ele>20</ele>
        <time>2025-01-28T14:05:34Z</time>
      </trkpt>
      <trkpt lat="47.62306" lon="-2.84911">
        <ele>20</ele>
        <time>2025-01-28T14:05:35Z</time>
      </trkpt>
      <trkpt lat="47.62305" lon="-2.84909">
        <ele>20</ele>
        <time>2025-01-28T14:05:36Z</time>
      </trkpt>
      <trkpt lat="47.62305" lon="-2.84908">
        <ele>20</ele>
        <time>2025-01-28T14:05:37Z</time>
      </trkpt>
      <trkpt lat="47.62304" lon="-2.84906">
        <ele>20</ele>
        <time>2025-01-28T14:05:38Z</time>
      </trkpt>
      <trkpt lat="47.62304" lon="-2.84904">
        <ele>19.9</ele>
        <time>2025-01-28T14:05:39Z</time>
      </trkpt>
      <trkpt lat="47.62304" lon="-2.84903">
        <ele>19.9</ele>
        <time>2025-01-28T14:05:40Z</time>
      </trkpt>
      <trkpt lat="47.62303" lon="-2.84901">
        <ele>19.9</ele>
        <time>2025-01-28T14:05:41Z</time>
      </trkpt>
      <trkpt lat="47.62302" lon="-2.849">
        <ele>19.9</ele>
        <time>2025-01-28T14:05:42Z</time>
      </trkpt>
      <trkpt lat="47.62302" lon="-2.84898">
        <ele>19.9</ele>
        <time>2025-01-28T14:05:43Z</time>
      </trkpt>
      <trkpt lat="47.62301" lon="-2.84897">
        <ele>19.8</ele>
        <time>2025-01-28T14:05:44Z</time>
      </trkpt>
      <trkpt lat="47.62301" lon="-2.84895">
        <ele>19.8</ele>
        <time>2025-01-28T14:05:45Z</time>
      </trkpt>
      <trkpt lat="47.623" lon="-2.84894">
        <ele>19.8</ele>
        <time>2025-01-28T14:05:46Z</time>
      </trkpt>
      <trkpt lat="47.623" lon="-2.84892">
        <ele>19.8</ele>
        <time>2025-01-28T14:05:47Z</time>
      </trkpt>
      <trkpt lat="47.62299" lon="-2.8489">
        <ele>19.8</ele>
        <time>2025-01-28T14:05:48Z</time>
      </trkpt>
      <trkpt lat="47.62298" lon="-2.84889">
        <ele>19.7</ele>
        <time>2025-01-28T14:05:49Z</time>
      </trkpt>
      <trkpt lat="47.62298" lon="-2.84888">
        <ele>19.7</ele>
        <time>2025-01-28T14:05:50Z</time>
      </trkpt>
      <trkpt lat="47.62298" lon="-2.84886">
        <ele>19.8</ele>
        <time>2025-01-28T14:05:51Z</time>
      </trkpt>
      <trkpt lat="47.62298" lon="-2.84884">
        <ele>19.8</ele>
        <time>2025-01-28T14:05:52Z</time>
      </trkpt>
      <trkpt lat="47.62298" lon="-2.84883">
        <ele>19.8</ele>
        <time>2025-01-28T14:05:53Z</time>
      </trkpt>
      <trkpt lat="47.62297" lon="-2.84881">
        <ele>19.8</ele>
        <time>2025-01-28T14:05:54Z</time>
      </trkpt>
      <trkpt lat="47.62296" lon="-2.8488">
        <ele>19.8</ele>
        <time>2025-01-28T14:05:55Z</time>
      </trkpt>
      <trkpt lat="47.62295" lon="-2.84879">
        <ele>19.8</ele>
        <time>2025-01-28T14:05:56Z</time>
      </trkpt>
      <trkpt lat="47.62295" lon="-2.84878">
        <ele>19.8</ele>
        <time>2025-01-28T14:05:57Z</time>
      </trkpt>
      <trkpt lat="47.62294" lon="-2.84877">
        <ele>19.8</ele>
        <time>2025-01-28T14:05:58Z</time>
      </trkpt>
      <trkpt lat="47.62293" lon="-2.84875">
        <ele>19.8</ele>
        <time>2025-01-28T14:05:59Z</time>
      </trkpt>
      <trkpt lat="47.62293" lon="-2.84874">
        <ele>19.8</ele>
        <time>2025-01-28T14:06:00Z</time>
      </trkpt>
      <trkpt lat="47.62292" lon="-2.84873">
        <ele>19.8</ele>
        <time>2025-01-28T14:06:01Z</time>
      </trkpt>
      <trkpt lat="47.62291" lon="-2.84871">
        <ele>19.8</ele>
        <time>2025-01-28T14:06:02Z</time>
      </trkpt>
      <trkpt lat="47.62291" lon="-2.8487">
        <ele>19.8</ele>
        <time>2025-01-28T14:06:03Z</time>
      </trkpt>
      <trkpt lat="47.6229" lon="-2.84869">
        <ele>19.8</ele>
        <time>2025-01-28T14:06:04Z</time>
      </trkpt>
      <trkpt lat="47.6229" lon="-2.84867">
        <ele>19.9</ele>
        <time>2025-01-28T14:06:05Z</time>
      </trkpt>
      <trkpt lat="47.62289" lon="-2.84866">
        <ele>19.9</ele>
        <time>2025-01-28T14:06:06Z</time>
      </trkpt>
      <trkpt lat="47.62288" lon="-2.84864">
        <ele>19.9</ele>
        <time>2025-01-28T14:06:07Z</time>
      </trkpt>
      <trkpt lat="47.62288" lon="-2.84863">
        <ele>20</ele>
        <time>2025-01-28T14:06:08Z</time>
      </trkpt>
      <trkpt lat="47.62287" lon="-2.84861">
        <ele>20</ele>
        <time>2025-01-28T14:06:09Z</time>
      </trkpt>
      <trkpt lat="47.62287" lon="-2.8486">
        <ele>20</ele>
        <time>2025-01-28T14:06:10Z</time>
      </trkpt>
      <trkpt lat="47.62286" lon="-2.84858">
        <ele>20</ele>
        <time>2025-01-28T14:06:11Z</time>
      </trkpt>
      <trkpt lat="47.62286" lon="-2.84857">
        <ele>20</ele>
        <time>2025-01-28T14:06:12Z</time>
      </trkpt>
      <trkpt lat="47.62285" lon="-2.84855">
        <ele>20</ele>
        <time>2025-01-28T14:06:13Z</time>
      </trkpt>
      <trkpt lat="47.62284" lon="-2.84854">
        <ele>20</ele>
        <time>2025-01-28T14:06:14Z</time>
      </trkpt>
      <trkpt lat="47.62283" lon="-2.84853">
        <ele>20</ele>
        <time>2025-01-28T14:06:15Z</time>
      </trkpt>
      <trkpt lat="47.62282" lon="-2.84852">
        <ele>20</ele>
        <time>2025-01-28T14:06:16Z</time>
      </trkpt>
      <trkpt lat="47.62282" lon="-2.8485">
        <ele>20</ele>
        <time>2025-01-28T14:06:17Z</time>
      </trkpt>
      <trkpt lat="47.62281" lon="-2.84849">
        <ele>20</ele>
        <time>2025-01-28T14:06:18Z</time>
      </trkpt>
      <trkpt lat="47.6228" lon="-2.84847">
        <ele>20</ele>
        <time>2025-01-28T14:06:19Z</time>
      </trkpt>
      <trkpt lat="47.62279" lon="-2.84846">
        <ele>20</ele>
        <time>2025-01-28T14:06:20Z</time>
      </trkpt>
      <trkpt lat="47.62278" lon="-2.84845">
        <ele>20</ele>
        <time>2025-01-28T14:06:21Z</time>
      </trkpt>
      <trkpt lat="47.62278" lon="-2.84843">
        <ele>20</ele>
        <time>2025-01-28T14:06:22Z</time>
      </trkpt>
      <trkpt lat="47.62277" lon="-2.84842">
        <ele>20</ele>
        <time>2025-01-28T14:06:23Z</time>
      </trkpt>
      <trkpt lat="47.62276" lon="-2.8484">
        <ele>20</ele>
        <time>2025-01-28T14:06:24Z</time>
      </trkpt>
      <trkpt lat="47.62275" lon="-2.84839">
        <ele>20</ele>
        <time>2025-01-28T14:06:25Z</time>
      </trkpt>
      <trkpt lat="47.62274" lon="-2.84838">
        <ele>20</ele>
        <time>2025-01-28T14:06:26Z</time>
      </trkpt>
      <trkpt lat="47.62273" lon="-2.84837">
        <ele>20</ele>
        <time>2025-01-28T14:06:27Z</time>
      </trkpt>
      <trkpt lat="47.62273" lon="-2.84836">
        <ele>20</ele>
        <time>2025-01-28T14:06:28Z</time>
      </trkpt>
      <trkpt lat="47.62272" lon="-2.84835">
        <ele>20</ele>
        <time>2025-01-28T14:06:29Z</time>
      </trkpt>
      <trkpt lat="47.62271" lon="-2.84834">
        <ele>20</ele>
        <time>2025-01-28T14:06:30Z</time>
      </trkpt>
      <trkpt lat="47.6227" lon="-2.84833">
        <ele>20</ele>
        <time>2025-01-28T14:06:31Z</time>
      </trkpt>
      <trkpt lat="47.62269" lon="-2.84832">
        <ele>20</ele>
        <time>2025-01-28T14:06:32Z</time>
      </trkpt>
      <trkpt lat="47.62268" lon="-2.84831">
        <ele>20</ele>
        <time>2025-01-28T14:06:33Z</time>
      </trkpt>
      <trkpt lat="47.62266" lon="-2.8483">
        <ele>20</ele>
        <time>2025-01-28T14:06:34Z</time>
      </trkpt>
      <trkpt lat="47.62266" lon="-2.84829">
        <ele>20</ele>
        <time>2025-01-28T14:06:35Z</time>
      </trkpt>
      <trkpt lat="47.62265" lon="-2.84827">
        <ele>20</ele>
        <time>2025-01-28T14:06:36Z</time>
      </trkpt>
      <trkpt lat="47.62264" lon="-2.84826">
        <ele>20</ele>
        <time>2025-01-28T14:06:37Z</time>
      </trkpt>
      <trkpt lat="47.62263" lon="-2.84825">
        <ele>20</ele>
        <time>2025-01-28T14:06:38Z</time>
      </trkpt>
      <trkpt lat="47.62262" lon="-2.84824">
        <ele>20</ele>
        <time>2025-01-28T14:06:39Z</time>
      </trkpt>
      <trkpt lat="47.62261" lon="-2.84824">
        <ele>20</ele>
        <time>2025-01-28T14:06:40Z</time>
      </trkpt>
      <trkpt lat="47.6226" lon="-2.84822">
        <ele>20</ele>
        <time>2025-01-28T14:06:41Z</time>
      </trkpt>
      <trkpt lat="47.62259" lon="-2.84821">
        <ele>20</ele>
        <time>2025-01-28T14:06:42Z</time>
      </trkpt>
      <trkpt lat="47.62259" lon="-2.84819">
        <ele>20</ele>
        <time>2025-01-28T14:06:43Z</time>
      </trkpt>
      <trkpt lat="47.62259" lon="-2.84817">
        <ele>20</ele>
        <time>2025-01-28T14:06:44Z</time>
      </trkpt>
      <trkpt lat="47.62258" lon="-2.84815">
        <ele>20</ele>
        <time>2025-01-28T14:06:45Z</time>
      </trkpt>
      <trkpt lat="47.62258" lon="-2.84813">
        <ele>20</ele>
        <time>2025-01-28T14:06:46Z</time>
      </trkpt>
      <trkpt lat="47.62258" lon="-2.84811">
        <ele>20</ele>
        <time>2025-01-28T14:06:47Z</time>
      </trkpt>
      <trkpt lat="47.62258" lon="-2.8481">
        <ele>20</ele>
        <time>2025-01-28T14:06:48Z</time>
      </trkpt>
      <trkpt lat="47.62258" lon="-2.84808">
        <ele>20</ele>
        <time>2025-01-28T14:06:49Z</time>
      </trkpt>
      <trkpt lat="47.62258" lon="-2.84806">
        <ele>20</ele>
        <time>2025-01-28T14:06:50Z</time>
      </trkpt>
      <trkpt lat="47.62258" lon="-2.84805">
        <ele>20</ele>
        <time>2025-01-28T14:06:51Z</time>
      </trkpt>
      <trkpt lat="47.62259" lon="-2.84803">
        <ele>20</ele>
        <time>2025-01-28T14:06:52Z</time>
      </trkpt>
      <trkpt lat="47.62259" lon="-2.84802">
        <ele>20</ele>
        <time>2025-01-28T14:06:53Z</time>
      </trkpt>
      <trkpt lat="47.6226" lon="-2.848">
        <ele>19.9</ele>
        <time>2025-01-28T14:06:54Z</time>
      </trkpt>
      <trkpt lat="47.62259" lon="-2.84797">
        <ele>19.9</ele>
        <time>2025-01-28T14:06:55Z</time>
      </trkpt>
      <trkpt lat="47.6226" lon="-2.84795">
        <ele>19.9</ele>
        <time>2025-01-28T14:06:56Z</time>
      </trkpt>
      <trkpt lat="47.62261" lon="-2.84793">
        <ele>19.9</ele>
        <time>2025-01-28T14:06:57Z</time>
      </trkpt>
      <trkpt lat="47.62261" lon="-2.84792">
        <ele>19.9</ele>
        <time>2025-01-28T14:06:58Z</time>
      </trkpt>
      <trkpt lat="47.62262" lon="-2.8479">
        <ele>19.9</ele>
        <time>2025-01-28T14:06:59Z</time>
      </trkpt>
      <trkpt lat="47.62262" lon="-2.84788">
        <ele>19.9</ele>
        <time>2025-01-28T14:07:00Z</time>
      </trkpt>
      <trkpt lat="47.62263" lon="-2.84786">
        <ele>19.9</ele>
        <time>2025-01-28T14:07:01Z</time>
      </trkpt>
      <trkpt lat="47.62263" lon="-2.84784">
        <ele>20</ele>
        <time>2025-01-28T14:07:02Z</time>
      </trkpt>
      <trkpt lat="47.62264" lon="-2.84782">
        <ele>20</ele>
        <time>2025-01-28T14:07:03Z</time>
      </trkpt>
      <trkpt lat="47.62265" lon="-2.84781">
        <ele>20.1</ele>
        <time>2025-01-28T14:07:04Z</time>
      </trkpt>
      <trkpt lat="47.62266" lon="-2.84779">
        <ele>20.1</ele>
        <time>2025-01-28T14:07:05Z</time>
      </trkpt>
      <trkpt lat="47.62267" lon="-2.84778">
        <ele>20.2</ele>
        <time>2025-01-28T14:07:06Z</time>
      </trkpt>
      <trkpt lat="47.62268" lon="-2.84776">
        <ele>20.2</ele>
        <time>2025-01-28T14:07:07Z</time>
      </trkpt>
      <trkpt lat="47.62269" lon="-2.84776">
        <ele>20.3</ele>
        <time>2025-01-28T14:07:08Z</time>
      </trkpt>
      <trkpt lat="47.6227" lon="-2.84775">
        <ele>20.4</ele>
        <time>2025-01-28T14:07:09Z</time>
      </trkpt>
      <trkpt lat="47.62272" lon="-2.84774">
        <ele>20.5</ele>
        <time>2025-01-28T14:07:10Z</time>
      </trkpt>
      <trkpt lat="47.62273" lon="-2.84773">
        <ele>20.5</ele>
        <time>2025-01-28T14:07:11Z</time>
      </trkpt>
      <trkpt lat="47.62274" lon="-2.84771">
        <ele>20.5</ele>
        <time>2025-01-28T14:07:12Z</time>
      </trkpt>
      <trkpt lat="47.62275" lon="-2.8477">
        <ele>20.5</ele>
        <time>2025-01-28T14:07:13Z</time>
      </trkpt>
      <trkpt lat="47.62276" lon="-2.84769">
        <ele>20.6</ele>
        <time>2025-01-28T14:07:14Z</time>
      </trkpt>
      <trkpt lat="47.62277" lon="-2.84767">
        <ele>20.6</ele>
        <time>2025-01-28T14:07:15Z</time>
      </trkpt>
      <trkpt lat="47.62278" lon="-2.84765">
        <ele>20.5</ele>
        <time>2025-01-28T14:07:16Z</time>
      </trkpt>
      <trkpt lat="47.62279" lon="-2.84764">
        <ele>20.5</ele>
        <time>2025-01-28T14:07:17Z</time>
      </trkpt>
      <trkpt lat="47.6228" lon="-2.84763">
        <ele>20.5</ele>
        <time>2025-01-28T14:07:18Z</time>
      </trkpt>
      <trkpt lat="47.6228" lon="-2.84762">
        <ele>20.5</ele>
        <time>2025-01-28T14:07:19Z</time>
      </trkpt>
      <trkpt lat="47.62282" lon="-2.84761">
        <ele>20.5</ele>
        <time>2025-01-28T14:07:20Z</time>
      </trkpt>
      <trkpt lat="47.62283" lon="-2.8476">
        <ele>20.5</ele>
        <time>2025-01-28T14:07:21Z</time>
      </trkpt>
      <trkpt lat="47.62283" lon="-2.84758">
        <ele>20.4</ele>
        <time>2025-01-28T14:07:22Z</time>
      </trkpt>
      <trkpt lat="47.62284" lon="-2.84757">
        <ele>20.4</ele>
        <time>2025-01-28T14:07:23Z</time>
      </trkpt>
      <trkpt lat="47.62285" lon="-2.84756">
        <ele>20.4</ele>
        <time>2025-01-28T14:07:24Z</time>
      </trkpt>
      <trkpt lat="47.62286" lon="-2.84754">
        <ele>20.4</ele>
        <time>2025-01-28T14:07:25Z</time>
      </trkpt>
      <trkpt lat="47.62287" lon="-2.84753">
        <ele>20.4</ele>
        <time>2025-01-28T14:07:26Z</time>
      </trkpt>
      <trkpt lat="47.62287" lon="-2.84752">
        <ele>20.4</ele>
        <time>2025-01-28T14:07:27Z</time>
      </trkpt>
      <trkpt lat="47.62288" lon="-2.84751">
        <ele>20.4</ele>
        <time>2025-01-28T14:07:28Z</time>
      </trkpt>
      <trkpt lat="47.62289" lon="-2.8475">
        <ele>20.4</ele>
        <time>2025-01-28T14:07:29Z</time>
      </trkpt>
      <trkpt lat="47.6229" lon="-2.84749">
        <ele>20.4</ele>
        <time>2025-01-28T14:07:30Z</time>
      </trkpt>
      <trkpt lat="47.62291" lon="-2.84748">
        <ele>20.5</ele>
        <time>2025-01-28T14:07:31Z</time>
      </trkpt>
      <trkpt lat="47.62292" lon="-2.84747">
        <ele>20.5</ele>
        <time>2025-01-28T14:07:32Z</time>
      </trkpt>
      <trkpt lat="47.62292" lon="-2.84745">
        <ele>20.5</ele>
        <time>2025-01-28T14:07:33Z</time>
      </trkpt>
      <trkpt lat="47.62293" lon="-2.84744">
        <ele>20.5</ele>
        <time>2025-01-28T14:07:34Z</time>
      </trkpt>
      <trkpt lat="47.62294" lon="-2.84743">
        <ele>20.6</ele>
        <time>2025-01-28T14:07:35Z</time>
      </trkpt>
      <trkpt lat="47.62295" lon="-2.84742">
        <ele>20.6</ele>
        <time>2025-01-28T14:07:36Z</time>
      </trkpt>
      <trkpt lat="47.62296" lon="-2.84741">
        <ele>20.6</ele>
        <time>2025-01-28T14:07:37Z</time>
      </trkpt>
      <trkpt lat="47.62296" lon="-2.84739">
        <ele>20.7</ele>
        <time>2025-01-28T14:07:38Z</time>
      </trkpt>
      <trkpt lat="47.62297" lon="-2.84738">
        <ele>20.7</ele>
        <time>2025-01-28T14:07:39Z</time>
      </trkpt>
      <trkpt lat="47.62298" lon="-2.84737">
        <ele>20.7</ele>
        <time>2025-01-28T14:07:40Z</time>
      </trkpt>
      <trkpt lat="47.62299" lon="-2.84735">
        <ele>20.8</ele>
        <time>2025-01-28T14:07:41Z</time>
      </trkpt>
      <trkpt lat="47.623" lon="-2.84734">
        <ele>20.8</ele>
        <time>2025-01-28T14:07:42Z</time>
      </trkpt>
      <trkpt lat="47.62301" lon="-2.84733">
        <ele>20.8</ele>
        <time>2025-01-28T14:07:43Z</time>
      </trkpt>
      <trkpt lat="47.62302" lon="-2.84732">
        <ele>20.9</ele>
        <time>2025-01-28T14:07:44Z</time>
      </trkpt>
      <trkpt lat="47.62302" lon="-2.84731">
        <ele>20.9</ele>
        <time>2025-01-28T14:07:45Z</time>
      </trkpt>
      <trkpt lat="47.62303" lon="-2.8473">
        <ele>20.9</ele>
        <time>2025-01-28T14:07:46Z</time>
      </trkpt>
      <trkpt lat="47.62304" lon="-2.84729">
        <ele>20.9</ele>
        <time>2025-01-28T14:07:47Z</time>
      </trkpt>
      <trkpt lat="47.62305" lon="-2.84727">
        <ele>21</ele>
        <time>2025-01-28T14:07:48Z</time>
      </trkpt>
      <trkpt lat="47.62306" lon="-2.84726">
        <ele>21</ele>
        <time>2025-01-28T14:07:49Z</time>
      </trkpt>
      <trkpt lat="47.62307" lon="-2.84726">
        <ele>21</ele>
        <time>2025-01-28T14:07:50Z</time>
      </trkpt>
      <trkpt lat="47.62307" lon="-2.84725">
        <ele>21</ele>
        <time>2025-01-28T14:07:51Z</time>
      </trkpt>
      <trkpt lat="47.62308" lon="-2.84724">
        <ele>21</ele>
        <time>2025-01-28T14:07:52Z</time>
      </trkpt>
      <trkpt lat="47.62309" lon="-2.84722">
        <ele>21</ele>
        <time>2025-01-28T14:07:53Z</time>
      </trkpt>
      <trkpt lat="47.6231" lon="-2.84721">
        <ele>21</ele>
        <time>2025-01-28T14:07:54Z</time>
      </trkpt>
      <trkpt lat="47.6231" lon="-2.8472">
        <ele>21</ele>
        <time>2025-01-28T14:07:55Z</time>
      </trkpt>
      <trkpt lat="47.62311" lon="-2.84718">
        <ele>21</ele>
        <time>2025-01-28T14:07:56Z</time>
      </trkpt>
      <trkpt lat="47.62312" lon="-2.84717">
        <ele>21</ele>
        <time>2025-01-28T14:07:57Z</time>
      </trkpt>
      <trkpt lat="47.62312" lon="-2.84716">
        <ele>21.1</ele>
        <time>2025-01-28T14:07:58Z</time>
      </trkpt>
      <trkpt lat="47.62313" lon="-2.84715">
        <ele>21.1</ele>
        <time>2025-01-28T14:07:59Z</time>
      </trkpt>
      <trkpt lat="47.62314" lon="-2.84713">
        <ele>21.1</ele>
        <time>2025-01-28T14:08:00Z</time>
      </trkpt>
      <trkpt lat="47.62315" lon="-2.84712">
        <ele>21.1</ele>
        <time>2025-01-28T14:08:01Z</time>
      </trkpt>
      <trkpt lat="47.62316" lon="-2.84711">
        <ele>21.1</ele>
        <time>2025-01-28T14:08:02Z</time>
      </trkpt>
      <trkpt lat="47.62317" lon="-2.8471">
        <ele>21.2</ele>
        <time>2025-01-28T14:08:03Z</time>
      </trkpt>
      <trkpt lat="47.62318" lon="-2.84709">
        <ele>21.2</ele>
        <time>2025-01-28T14:08:04Z</time>
      </trkpt>
      <trkpt lat="47.62319" lon="-2.84708">
        <ele>21.2</ele>
        <time>2025-01-28T14:08:05Z</time>
      </trkpt>
      <trkpt lat="47.6232" lon="-2.84707">
        <ele>21.3</ele>
        <time>2025-01-28T14:08:06Z</time>
      </trkpt>
      <trkpt lat="47.62321" lon="-2.84706">
        <ele>21.3</ele>
        <time>2025-01-28T14:08:07Z</time>
      </trkpt>
      <trkpt lat="47.62322" lon="-2.84705">
        <ele>21.4</ele>
        <time>2025-01-28T14:08:08Z</time>
      </trkpt>
      <trkpt lat="47.62323" lon="-2.84704">
        <ele>21.4</ele>
        <time>2025-01-28T14:08:09Z</time>
      </trkpt>
      <trkpt lat="47.62324" lon="-2.84702">
        <ele>21.5</ele>
        <time>2025-01-28T14:08:10Z</time>
      </trkpt>
      <trkpt lat="47.62325" lon="-2.84701">
        <ele>21.5</ele>
        <time>2025-01-28T14:08:11Z</time>
      </trkpt>
      <trkpt lat="47.62326" lon="-2.847">
        <ele>21.6</ele>
        <time>2025-01-28T14:08:12Z</time>
      </trkpt>
      <trkpt lat="47.62327" lon="-2.84699">
        <ele>21.6</ele>
        <time>2025-01-28T14:08:13Z</time>
      </trkpt>
      <trkpt lat="47.62328" lon="-2.84698">
        <ele>21.7</ele>
        <time>2025-01-28T14:08:14Z</time>
      </trkpt>
      <trkpt lat="47.62329" lon="-2.84697">
        <ele>21.8</ele>
        <time>2025-01-28T14:08:15Z</time>
      </trkpt>
      <trkpt lat="47.62329" lon="-2.84695">
        <ele>21.8</ele>
        <time>2025-01-28T14:08:16Z</time>
      </trkpt>
      <trkpt lat="47.6233" lon="-2.84693">
        <ele>21.9</ele>
        <time>2025-01-28T14:08:17Z</time>
      </trkpt>
      <trkpt lat="47.62331" lon="-2.84692">
        <ele>21.9</ele>
        <time>2025-01-28T14:08:18Z</time>
      </trkpt>
      <trkpt lat="47.62332" lon="-2.8469">
        <ele>21.9</ele>
        <time>2025-01-28T14:08:19Z</time>
      </trkpt>
      <trkpt lat="47.62332" lon="-2.84688">
        <ele>22</ele>
        <time>2025-01-28T14:08:20Z</time>
      </trkpt>
      <trkpt lat="47.62333" lon="-2.84687">
        <ele>22</ele>
        <time>2025-01-28T14:08:21Z</time>
      </trkpt>
      <trkpt lat="47.62334" lon="-2.84685">
        <ele>22</ele>
        <time>2025-01-28T14:08:22Z</time>
      </trkpt>
      <trkpt lat="47.62335" lon="-2.84684">
        <ele>21.9</ele>
        <time>2025-01-28T14:08:23Z</time>
      </trkpt>
      <trkpt lat="47.62336" lon="-2.84683">
        <ele>21.9</ele>
        <time>2025-01-28T14:08:24Z</time>
      </trkpt>
      <trkpt lat="47.62336" lon="-2.84682">
        <ele>21.9</ele>
        <time>2025-01-28T14:08:25Z</time>
      </trkpt>
      <trkpt lat="47.62337" lon="-2.8468">
        <ele>21.9</ele>
        <time>2025-01-28T14:08:26Z</time>
      </trkpt>
      <trkpt lat="47.62338" lon="-2.84679">
        <ele>21.8</ele>
        <time>2025-01-28T14:08:27Z</time>
      </trkpt>
      <trkpt lat="47.62339" lon="-2.84678">
        <ele>21.8</ele>
        <time>2025-01-28T14:08:28Z</time>
      </trkpt>
      <trkpt lat="47.6234" lon="-2.84677">
        <ele>21.8</ele>
        <time>2025-01-28T14:08:29Z</time>
      </trkpt>
      <trkpt lat="47.62341" lon="-2.84676">
        <ele>21.7</ele>
        <time>2025-01-28T14:08:30Z</time>
      </trkpt>
      <trkpt lat="47.62342" lon="-2.84674">
        <ele>21.7</ele>
        <time>2025-01-28T14:08:31Z</time>
      </trkpt>
      <trkpt lat="47.62343" lon="-2.84673">
        <ele>21.6</ele>
        <time>2025-01-28T14:08:32Z</time>
      </trkpt>
      <trkpt lat="47.62344" lon="-2.84671">
        <ele>21.6</ele>
        <time>2025-01-28T14:08:33Z</time>
      </trkpt>
      <trkpt lat="47.62345" lon="-2.8467">
        <ele>21.6</ele>
        <time>2025-01-28T14:08:34Z</time>
      </trkpt>
      <trkpt lat="47.62346" lon="-2.84669">
        <ele>21.6</ele>
        <time>2025-01-28T14:08:35Z</time>
      </trkpt>
      <trkpt lat="47.62347" lon="-2.84668">
        <ele>21.5</ele>
        <time>2025-01-28T14:08:36Z</time>
      </trkpt>
      <trkpt lat="47.62348" lon="-2.84667">
        <ele>21.5</ele>
        <time>2025-01-28T14:08:37Z</time>
      </trkpt>
      <trkpt lat="47.62348" lon="-2.84665">
        <ele>21.5</ele>
        <time>2025-01-28T14:08:38Z</time>
      </trkpt>
      <trkpt lat="47.62349" lon="-2.84663">
        <ele>21.5</ele>
        <time>2025-01-28T14:08:39Z</time>
      </trkpt>
      <trkpt lat="47.6235" lon="-2.84662">
        <ele>21.5</ele>
        <time>2025-01-28T14:08:40Z</time>
      </trkpt>
      <trkpt lat="47.62352" lon="-2.84662">
        <ele>21.5</ele>
        <time>2025-01-28T14:08:41Z</time>
      </trkpt>
      <trkpt lat="47.62353" lon="-2.8466">
        <ele>21.5</ele>
        <time>2025-01-28T14:08:42Z</time>
      </trkpt>
      <trkpt lat="47.62353" lon="-2.84659">
        <ele>21.5</ele>
        <time>2025-01-28T14:08:43Z</time>
      </trkpt>
      <trkpt lat="47.62354" lon="-2.84657">
        <ele>21.5</ele>
        <time>2025-01-28T14:08:44Z</time>
      </trkpt>
      <trkpt lat="47.62355" lon="-2.84656">
        <ele>21.5</ele>
        <time>2025-01-28T14:08:45Z</time>
      </trkpt>
      <trkpt lat="47.62356" lon="-2.84655">
        <ele>21.5</ele>
        <time>2025-01-28T14:08:46Z</time>
      </trkpt>
      <trkpt lat="47.62357" lon="-2.84653">
        <ele>21.6</ele>
        <time>2025-01-28T14:08:47Z</time>
      </trkpt>
      <trkpt lat="47.62357" lon="-2.84652">
        <ele>21.6</ele>
        <time>2025-01-28T14:08:48Z</time>
      </trkpt>
      <trkpt lat="47.62358" lon="-2.84651">
        <ele>21.6</ele>
        <time>2025-01-28T14:08:49Z</time>
      </trkpt>
      <trkpt lat="47.62359" lon="-2.8465">
        <ele>21.6</ele>
        <time>2025-01-28T14:08:50Z</time>
      </trkpt>
      <trkpt lat="47.6236" lon="-2.84648">
        <ele>21.7</ele>
        <time>2025-01-28T14:08:51Z</time>
      </trkpt>
      <trkpt lat="47.62361" lon="-2.84647">
        <ele>21.7</ele>
        <time>2025-01-28T14:08:52Z</time>
      </trkpt>
      <trkpt lat="47.62363" lon="-2.84647">
        <ele>21.7</ele>
        <time>2025-01-28T14:08:53Z</time>
      </trkpt>
      <trkpt lat="47.62363" lon="-2.84646">
        <ele>21.7</ele>
        <time>2025-01-28T14:08:54Z</time>
      </trkpt>
      <trkpt lat="47.62364" lon="-2.84645">
        <ele>21.7</ele>
        <time>2025-01-28T14:08:55Z</time>
      </trkpt>
      <trkpt lat="47.62365" lon="-2.84643">
        <ele>21.7</ele>
        <time>2025-01-28T14:08:56Z</time>
      </trkpt>
      <trkpt lat="47.62366" lon="-2.84642">
        <ele>21.7</ele>
        <time>2025-01-28T14:08:57Z</time>
      </trkpt>
      <trkpt lat="47.62367" lon="-2.84641">
        <ele>21.7</ele>
        <time>2025-01-28T14:08:58Z</time>
      </trkpt>
      <trkpt lat="47.62368" lon="-2.84639">
        <ele>21.8</ele>
        <time>2025-01-28T14:08:59Z</time>
      </trkpt>
      <trkpt lat="47.62369" lon="-2.84637">
        <ele>21.7</ele>
        <time>2025-01-28T14:09:00Z</time>
      </trkpt>
      <trkpt lat="47.6237" lon="-2.84636">
        <ele>21.7</ele>
        <time>2025-01-28T14:09:01Z</time>
      </trkpt>
      <trkpt lat="47.62371" lon="-2.84634">
        <ele>21.7</ele>
        <time>2025-01-28T14:09:02Z</time>
      </trkpt>
      <trkpt lat="47.62372" lon="-2.84633">
        <ele>21.7</ele>
        <time>2025-01-28T14:09:03Z</time>
      </trkpt>
      <trkpt lat="47.62373" lon="-2.84632">
        <ele>21.7</ele>
        <time>2025-01-28T14:09:04Z</time>
      </trkpt>
      <trkpt lat="47.62374" lon="-2.84631">
        <ele>21.7</ele>
        <time>2025-01-28T14:09:05Z</time>
      </trkpt>
      <trkpt lat="47.62375" lon="-2.8463">
        <ele>21.7</ele>
        <time>2025-01-28T14:09:06Z</time>
      </trkpt>
      <trkpt lat="47.62376" lon="-2.84629">
        <ele>21.7</ele>
        <time>2025-01-28T14:09:07Z</time>
      </trkpt>
      <trkpt lat="47.62377" lon="-2.84628">
        <ele>21.7</ele>
        <time>2025-01-28T14:09:08Z</time>
      </trkpt>
      <trkpt lat="47.62378" lon="-2.84626">
        <ele>21.7</ele>
        <time>2025-01-28T14:09:09Z</time>
      </trkpt>
      <trkpt lat="47.62379" lon="-2.84625">
        <ele>21.7</ele>
        <time>2025-01-28T14:09:10Z</time>
      </trkpt>
      <trkpt lat="47.6238" lon="-2.84624">
        <ele>21.7</ele>
        <time>2025-01-28T14:09:11Z</time>
      </trkpt>
      <trkpt lat="47.62381" lon="-2.84623">
        <ele>21.7</ele>
        <time>2025-01-28T14:09:12Z</time>
      </trkpt>
      <trkpt lat="47.62381" lon="-2.84621">
        <ele>21.7</ele>
        <time>2025-01-28T14:09:13Z</time>
      </trkpt>
      <trkpt lat="47.62382" lon="-2.8462">
        <ele>21.8</ele>
        <time>2025-01-28T14:09:14Z</time>
      </trkpt>
      <trkpt lat="47.62383" lon="-2.84619">
        <ele>21.8</ele>
        <time>2025-01-28T14:09:15Z</time>
      </trkpt>
      <trkpt lat="47.62384" lon="-2.84618">
        <ele>21.8</ele>
        <time>2025-01-28T14:09:16Z</time>
      </trkpt>
      <trkpt lat="47.62385" lon="-2.84617">
        <ele>21.8</ele>
        <time>2025-01-28T14:09:17Z</time>
      </trkpt>
      <trkpt lat="47.62386" lon="-2.84615">
        <ele>21.9</ele>
        <time>2025-01-28T14:09:18Z</time>
      </trkpt>
      <trkpt lat="47.62387" lon="-2.84614">
        <ele>21.9</ele>
        <time>2025-01-28T14:09:19Z</time>
      </trkpt>
      <trkpt lat="47.62388" lon="-2.84612">
        <ele>22</ele>
        <time>2025-01-28T14:09:20Z</time>
      </trkpt>
      <trkpt lat="47.62389" lon="-2.84611">
        <ele>22</ele>
        <time>2025-01-28T14:09:21Z</time>
      </trkpt>
      <trkpt lat="47.6239" lon="-2.8461">
        <ele>22</ele>
        <time>2025-01-28T14:09:22Z</time>
      </trkpt>
      <trkpt lat="47.62391" lon="-2.84609">
        <ele>22</ele>
        <time>2025-01-28T14:09:23Z</time>
      </trkpt>
      <trkpt lat="47.62392" lon="-2.84607">
        <ele>22</ele>
        <time>2025-01-28T14:09:24Z</time>
      </trkpt>
      <trkpt lat="47.62393" lon="-2.84606">
        <ele>22</ele>
        <time>2025-01-28T14:09:25Z</time>
      </trkpt>
      <trkpt lat="47.62394" lon="-2.84605">
        <ele>22</ele>
        <time>2025-01-28T14:09:26Z</time>
      </trkpt>
      <trkpt lat="47.62394" lon="-2.84604">
        <ele>22</ele>
        <time>2025-01-28T14:09:27Z</time>
      </trkpt>
      <trkpt lat="47.62395" lon="-2.84603">
        <ele>22</ele>
        <time>2025-01-28T14:09:28Z</time>
      </trkpt>
      <trkpt lat="47.62396" lon="-2.84602">
        <ele>22</ele>
        <time>2025-01-28T14:09:29Z</time>
      </trkpt>
      <trkpt lat="47.62397" lon="-2.84602">
        <ele>22</ele>
        <time>2025-01-28T14:09:30Z</time>
      </trkpt>
      <trkpt lat="47.62398" lon="-2.84601">
        <ele>22</ele>
        <time>2025-01-28T14:09:31Z</time>
      </trkpt>
      <trkpt lat="47.62399" lon="-2.846">
        <ele>22</ele>
        <time>2025-01-28T14:09:32Z</time>
      </trkpt>
      <trkpt lat="47.624" lon="-2.846">
        <ele>22</ele>
        <time>2025-01-28T14:09:33Z</time>
      </trkpt>
      <trkpt lat="47.62401" lon="-2.84599">
        <ele>22</ele>
        <time>2025-01-28T14:09:34Z</time>
      </trkpt>
      <trkpt lat="47.62402" lon="-2.84598">
        <ele>22</ele>
        <time>2025-01-28T14:09:35Z</time>
      </trkpt>
      <trkpt lat="47.62403" lon="-2.84598">
        <ele>22</ele>
        <time>2025-01-28T14:09:36Z</time>
      </trkpt>
      <trkpt lat="47.62404" lon="-2.84598">
        <ele>22</ele>
        <time>2025-01-28T14:09:37Z</time>
      </trkpt>
      <trkpt lat="47.62406" lon="-2.84597">
        <ele>22</ele>
        <time>2025-01-28T14:09:38Z</time>
      </trkpt>
      <trkpt lat="47.62407" lon="-2.84597">
        <ele>22</ele>
        <time>2025-01-28T14:09:39Z</time>
      </trkpt>
      <trkpt lat="47.62408" lon="-2.84595">
        <ele>22</ele>
        <time>2025-01-28T14:09:40Z</time>
      </trkpt>
      <trkpt lat="47.62409" lon="-2.84594">
        <ele>22</ele>
        <time>2025-01-28T14:09:41Z</time>
      </trkpt>
      <trkpt lat="47.62409" lon="-2.84593">
        <ele>22</ele>
        <time>2025-01-28T14:09:42Z</time>
      </trkpt>
      <trkpt lat="47.6241" lon="-2.84592">
        <ele>22</ele>
        <time>2025-01-28T14:09:43Z</time>
      </trkpt>
      <trkpt lat="47.62411" lon="-2.84592">
        <ele>22</ele>
        <time>2025-01-28T14:09:44Z</time>
      </trkpt>
      <trkpt lat="47.62412" lon="-2.84592">
        <ele>22</ele>
        <time>2025-01-28T14:09:45Z</time>
      </trkpt>
      <trkpt lat="47.62414" lon="-2.84592">
        <ele>22</ele>
        <time>2025-01-28T14:09:46Z</time>
      </trkpt>
      <trkpt lat="47.62415" lon="-2.84592">
        <ele>22</ele>
        <time>2025-01-28T14:09:47Z</time>
      </trkpt>
      <trkpt lat="47.62416" lon="-2.84593">
        <ele>22</ele>
        <time>2025-01-28T14:09:48Z</time>
      </trkpt>
      <trkpt lat="47.62417" lon="-2.84592">
        <ele>22</ele>
        <time>2025-01-28T14:09:49Z</time>
      </trkpt>
      <trkpt lat="47.62418" lon="-2.84593">
        <ele>22</ele>
        <time>2025-01-28T14:09:50Z</time>
      </trkpt>
      <trkpt lat="47.62419" lon="-2.84593">
        <ele>21.9</ele>
        <time>2025-01-28T14:09:51Z</time>
      </trkpt>
      <trkpt lat="47.6242" lon="-2.84594">
        <ele>21.9</ele>
        <time>2025-01-28T14:09:52Z</time>
      </trkpt>
      <trkpt lat="47.62421" lon="-2.84594">
        <ele>21.8</ele>
        <time>2025-01-28T14:09:53Z</time>
      </trkpt>
      <trkpt lat="47.62423" lon="-2.84595">
        <ele>21.8</ele>
        <time>2025-01-28T14:09:54Z</time>
      </trkpt>
      <trkpt lat="47.62424" lon="-2.84596">
        <ele>21.8</ele>
        <time>2025-01-28T14:09:55Z</time>
      </trkpt>
      <trkpt lat="47.62425" lon="-2.84596">
        <ele>21.7</ele>
        <time>2025-01-28T14:09:56Z</time>
      </trkpt>
      <trkpt lat="47.62426" lon="-2.84596">
        <ele>21.7</ele>
        <time>2025-01-28T14:09:57Z</time>
      </trkpt>
      <trkpt lat="47.62427" lon="-2.84597">
        <ele>21.6</ele>
        <time>2025-01-28T14:09:58Z</time>
      </trkpt>
      <trkpt lat="47.62429" lon="-2.84597">
        <ele>21.6</ele>
        <time>2025-01-28T14:09:59Z</time>
      </trkpt>
      <trkpt lat="47.6243" lon="-2.84597">
        <ele>21.5</ele>
        <time>2025-01-28T14:10:00Z</time>
      </trkpt>
      <trkpt lat="47.62431" lon="-2.84598">
        <ele>21.5</ele>
        <time>2025-01-28T14:10:01Z</time>
      </trkpt>
      <trkpt lat="47.62432" lon="-2.84598">
        <ele>21.4</ele>
        <time>2025-01-28T14:10:02Z</time>
      </trkpt>
      <trkpt lat="47.62433" lon="-2.84598">
        <ele>21.4</ele>
        <time>2025-01-28T14:10:03Z</time>
      </trkpt>
      <trkpt lat="47.62435" lon="-2.84598">
        <ele>21.4</ele>
        <time>2025-01-28T14:10:04Z</time>
      </trkpt>
      <trkpt lat="47.62436" lon="-2.84598">
        <ele>21.3</ele>
        <time>2025-01-28T14:10:05Z</time>
      </trkpt>
      <trkpt lat="47.62437" lon="-2.84599">
        <ele>21.3</ele>
        <time>2025-01-28T14:10:06Z</time>
      </trkpt>
      <trkpt lat="47.62438" lon="-2.84599">
        <ele>21.2</ele>
        <time>2025-01-28T14:10:07Z</time>
      </trkpt>
      <trkpt lat="47.62439" lon="-2.846">
        <ele>21.2</ele>
        <time>2025-01-28T14:10:08Z</time>
      </trkpt>
      <trkpt lat="47.6244" lon="-2.846">
        <ele>21.2</ele>
        <time>2025-01-28T14:10:09Z</time>
      </trkpt>
      <trkpt lat="47.62441" lon="-2.84601">
        <ele>21.1</ele>
        <time>2025-01-28T14:10:10Z</time>
      </trkpt>
      <trkpt lat="47.62442" lon="-2.84601">
        <ele>21.1</ele>
        <time>2025-01-28T14:10:11Z</time>
      </trkpt>
      <trkpt lat="47.62443" lon="-2.84601">
        <ele>21</ele>
        <time>2025-01-28T14:10:12Z</time>
      </trkpt>
      <trkpt lat="47.62445" lon="-2.84601">
        <ele>21</ele>
        <time>2025-01-28T14:10:13Z</time>
      </trkpt>
      <trkpt lat="47.62446" lon="-2.84601">
        <ele>21</ele>
        <time>2025-01-28T14:10:14Z</time>
      </trkpt>
      <trkpt lat="47.62447" lon="-2.84601">
        <ele>21</ele>
        <time>2025-01-28T14:10:15Z</time>
      </trkpt>
      <trkpt lat="47.62449" lon="-2.84602">
        <ele>21</ele>
        <time>2025-01-28T14:10:16Z</time>
      </trkpt>
      <trkpt lat="47.6245" lon="-2.84602">
        <ele>21</ele>
        <time>2025-01-28T14:10:17Z</time>
      </trkpt>
      <trkpt lat="47.62451" lon="-2.84602">
        <ele>21</ele>
        <time>2025-01-28T14:10:18Z</time>
      </trkpt>
      <trkpt lat="47.62453" lon="-2.84602">
        <ele>21</ele>
        <time>2025-01-28T14:10:19Z</time>
      </trkpt>
      <trkpt lat="47.62454" lon="-2.84602">
        <ele>21</ele>
        <time>2025-01-28T14:10:20Z</time>
      </trkpt>
      <trkpt lat="47.62455" lon="-2.84602">
        <ele>21</ele>
        <time>2025-01-28T14:10:21Z</time>
      </trkpt>
      <trkpt lat="47.62456" lon="-2.84602">
        <ele>21</ele>
        <time>2025-01-28T14:10:22Z</time>
      </trkpt>
      <trkpt lat="47.62457" lon="-2.84603">
        <ele>21</ele>
        <time>2025-01-28T14:10:23Z</time>
      </trkpt>
      <trkpt lat="47.62459" lon="-2.84603">
        <ele>21</ele>
        <time>2025-01-28T14:10:24Z</time>
      </trkpt>
      <trkpt lat="47.6246" lon="-2.84602">
        <ele>21</ele>
        <time>2025-01-28T14:10:25Z</time>
      </trkpt>
      <trkpt lat="47.62461" lon="-2.84603">
        <ele>21</ele>
        <time>2025-01-28T14:10:26Z</time>
      </trkpt>
      <trkpt lat="47.62463" lon="-2.84603">
        <ele>21</ele>
        <time>2025-01-28T14:10:27Z</time>
      </trkpt>
      <trkpt lat="47.62464" lon="-2.84603">
        <ele>21</ele>
        <time>2025-01-28T14:10:28Z</time>
      </trkpt>
      <trkpt lat="47.62465" lon="-2.84603">
        <ele>21</ele>
        <time>2025-01-28T14:10:29Z</time>
      </trkpt>
      <trkpt lat="47.62466" lon="-2.84603">
        <ele>21</ele>
        <time>2025-01-28T14:10:30Z</time>
      </trkpt>
      <trkpt lat="47.62467" lon="-2.84603">
        <ele>21</ele>
        <time>2025-01-28T14:10:31Z</time>
      </trkpt>
      <trkpt lat="47.62468" lon="-2.84604">
        <ele>21</ele>
        <time>2025-01-28T14:10:32Z</time>
      </trkpt>
      <trkpt lat="47.6247" lon="-2.84603">
        <ele>21</ele>
        <time>2025-01-28T14:10:33Z</time>
      </trkpt>
      <trkpt lat="47.62471" lon="-2.84603">
        <ele>21</ele>
        <time>2025-01-28T14:10:34Z</time>
      </trkpt>
      <trkpt lat="47.62472" lon="-2.84604">
        <ele>21</ele>
        <time>2025-01-28T14:10:35Z</time>
      </trkpt>
      <trkpt lat="47.62473" lon="-2.84603">
        <ele>21</ele>
        <time>2025-01-28T14:10:36Z</time>
      </trkpt>
      <trkpt lat="47.62474" lon="-2.84603">
        <ele>21</ele>
        <time>2025-01-28T14:10:37Z</time>
      </trkpt>
      <trkpt lat="47.62476" lon="-2.84602">
        <ele>21</ele>
        <time>2025-01-28T14:10:38Z</time>
      </trkpt>
      <trkpt lat="47.62477" lon="-2.84603">
        <ele>21</ele>
        <time>2025-01-28T14:10:39Z</time>
      </trkpt>
      <trkpt lat="47.62478" lon="-2.84603">
        <ele>21</ele>
        <time>2025-01-28T14:10:40Z</time>
      </trkpt>
      <trkpt lat="47.62479" lon="-2.84603">
        <ele>21</ele>
        <time>2025-01-28T14:10:41Z</time>
      </trkpt>
      <trkpt lat="47.6248" lon="-2.84603">
        <ele>21</ele>
        <time>2025-01-28T14:10:42Z</time>
      </trkpt>
      <trkpt lat="47.62481" lon="-2.84603">
        <ele>21</ele>
        <time>2025-01-28T14:10:43Z</time>
      </trkpt>
      <trkpt lat="47.62483" lon="-2.84603">
        <ele>21</ele>
        <time>2025-01-28T14:10:44Z</time>
      </trkpt>
      <trkpt lat="47.62484" lon="-2.84602">
        <ele>21</ele>
        <time>2025-01-28T14:10:45Z</time>
      </trkpt>
      <trkpt lat="47.62485" lon="-2.84602">
        <ele>21</ele>
        <time>2025-01-28T14:10:46Z</time>
      </trkpt>
      <trkpt lat="47.62487" lon="-2.84602">
        <ele>21</ele>
        <time>2025-01-28T14:10:47Z</time>
      </trkpt>
      <trkpt lat="47.62488" lon="-2.84601">
        <ele>21</ele>
        <time>2025-01-28T14:10:48Z</time>
      </trkpt>
      <trkpt lat="47.6249" lon="-2.84602">
        <ele>21</ele>
        <time>2025-01-28T14:10:49Z</time>
      </trkpt>
      <trkpt lat="47.62491" lon="-2.84601">
        <ele>21</ele>
        <time>2025-01-28T14:10:50Z</time>
      </trkpt>
      <trkpt lat="47.62492" lon="-2.84601">
        <ele>21</ele>
        <time>2025-01-28T14:10:51Z</time>
      </trkpt>
      <trkpt lat="47.62494" lon="-2.846">
        <ele>21</ele>
        <time>2025-01-28T14:10:52Z</time>
      </trkpt>
      <trkpt lat="47.62495" lon="-2.846">
        <ele>21</ele>
        <time>2025-01-28T14:10:53Z</time>
      </trkpt>
      <trkpt lat="47.62496" lon="-2.84599">
        <ele>21</ele>
        <time>2025-01-28T14:10:54Z</time>
      </trkpt>
      <trkpt lat="47.62497" lon="-2.84599">
        <ele>21</ele>
        <time>2025-01-28T14:10:55Z</time>
      </trkpt>
      <trkpt lat="47.62499" lon="-2.84599">
        <ele>21</ele>
        <time>2025-01-28T14:10:56Z</time>
      </trkpt>
      <trkpt lat="47.625" lon="-2.84598">
        <ele>21</ele>
        <time>2025-01-28T14:10:57Z</time>
      </trkpt>
      <trkpt lat="47.62501" lon="-2.84598">
        <ele>21</ele>
        <time>2025-01-28T14:10:58Z</time>
      </trkpt>
      <trkpt lat="47.62502" lon="-2.84597">
        <ele>21</ele>
        <time>2025-01-28T14:10:59Z</time>
      </trkpt>
      <trkpt lat="47.62503" lon="-2.84596">
        <ele>20.9</ele>
        <time>2025-01-28T14:11:00Z</time>
      </trkpt>
      <trkpt lat="47.62505" lon="-2.84596">
        <ele>20.9</ele>
        <time>2025-01-28T14:11:01Z</time>
      </trkpt>
      <trkpt lat="47.62506" lon="-2.84595">
        <ele>20.9</ele>
        <time>2025-01-28T14:11:02Z</time>
      </trkpt>
      <trkpt lat="47.62507" lon="-2.84594">
        <ele>20.9</ele>
        <time>2025-01-28T14:11:03Z</time>
      </trkpt>
      <trkpt lat="47.62508" lon="-2.84594">
        <ele>20.9</ele>
        <time>2025-01-28T14:11:04Z</time>
      </trkpt>
      <trkpt lat="47.62509" lon="-2.84593">
        <ele>20.9</ele>
        <time>2025-01-28T14:11:05Z</time>
      </trkpt>
      <trkpt lat="47.6251" lon="-2.84593">
        <ele>20.9</ele>
        <time>2025-01-28T14:11:06Z</time>
      </trkpt>
      <trkpt lat="47.62511" lon="-2.84593">
        <ele>20.9</ele>
        <time>2025-01-28T14:11:07Z</time>
      </trkpt>
      <trkpt lat="47.62512" lon="-2.84593">
        <ele>20.9</ele>
        <time>2025-01-28T14:11:08Z</time>
      </trkpt>
      <trkpt lat="47.62513" lon="-2.84592">
        <ele>20.9</ele>
        <time>2025-01-28T14:11:09Z</time>
      </trkpt>
      <trkpt lat="47.62514" lon="-2.84592">
        <ele>20.8</ele>
        <time>2025-01-28T14:11:10Z</time>
      </trkpt>
      <trkpt lat="47.62515" lon="-2.84592">
        <ele>20.8</ele>
        <time>2025-01-28T14:11:11Z</time>
      </trkpt>
      <trkpt lat="47.62516" lon="-2.84592">
        <ele>20.8</ele>
        <time>2025-01-28T14:11:12Z</time>
      </trkpt>
      <trkpt lat="47.62517" lon="-2.84591">
        <ele>20.8</ele>
        <time>2025-01-28T14:11:13Z</time>
      </trkpt>
      <trkpt lat="47.62519" lon="-2.84591">
        <ele>20.8</ele>
        <time>2025-01-28T14:11:14Z</time>
      </trkpt>
      <trkpt lat="47.6252" lon="-2.8459">
        <ele>20.8</ele>
        <time>2025-01-28T14:11:15Z</time>
      </trkpt>
      <trkpt lat="47.62521" lon="-2.84589">
        <ele>20.8</ele>
        <time>2025-01-28T14:11:16Z</time>
      </trkpt>
      <trkpt lat="47.62522" lon="-2.84589">
        <ele>20.8</ele>
        <time>2025-01-28T14:11:17Z</time>
      </trkpt>
      <trkpt lat="47.62523" lon="-2.84588">
        <ele>20.9</ele>
        <time>2025-01-28T14:11:18Z</time>
      </trkpt>
      <trkpt lat="47.62524" lon="-2.84587">
        <ele>20.9</ele>
        <time>2025-01-28T14:11:19Z</time>
      </trkpt>
      <trkpt lat="47.62525" lon="-2.84587">
        <ele>20.9</ele>
        <time>2025-01-28T14:11:20Z</time>
      </trkpt>
      <trkpt lat="47.62526" lon="-2.84587">
        <ele>20.9</ele>
        <time>2025-01-28T14:11:21Z</time>
      </trkpt>
      <trkpt lat="47.62527" lon="-2.84587">
        <ele>20.9</ele>
        <time>2025-01-28T14:11:22Z</time>
      </trkpt>
      <trkpt lat="47.62528" lon="-2.84586">
        <ele>20.9</ele>
        <time>2025-01-28T14:11:23Z</time>
      </trkpt>
      <trkpt lat="47.6253" lon="-2.84586">
        <ele>20.9</ele>
        <time>2025-01-28T14:11:24Z</time>
      </trkpt>
      <trkpt lat="47.6253" lon="-2.84585">
        <ele>20.9</ele>
        <time>2025-01-28T14:11:25Z</time>
      </trkpt>
      <trkpt lat="47.62531" lon="-2.84585">
        <ele>20.9</ele>
        <time>2025-01-28T14:11:26Z</time>
      </trkpt>
      <trkpt lat="47.62532" lon="-2.84584">
        <ele>21</ele>
        <time>2025-01-28T14:11:27Z</time>
      </trkpt>
      <trkpt lat="47.62533" lon="-2.84584">
        <ele>21</ele>
        <time>2025-01-28T14:11:28Z</time>
      </trkpt>
      <trkpt lat="47.62534" lon="-2.84583">
        <ele>21</ele>
        <time>2025-01-28T14:11:29Z</time>
      </trkpt>
      <trkpt lat="47.62536" lon="-2.84582">
        <ele>21</ele>
        <time>2025-01-28T14:11:30Z</time>
      </trkpt>
      <trkpt lat="47.62537" lon="-2.84583">
        <ele>21</ele>
        <time>2025-01-28T14:11:31Z</time>
      </trkpt>
      <trkpt lat="47.62538" lon="-2.84582">
        <ele>21</ele>
        <time>2025-01-28T14:11:32Z</time>
      </trkpt>
      <trkpt lat="47.62539" lon="-2.84581">
        <ele>21</ele>
        <time>2025-01-28T14:11:33Z</time>
      </trkpt>
      <trkpt lat="47.6254" lon="-2.84581">
        <ele>20.9</ele>
        <time>2025-01-28T14:11:34Z</time>
      </trkpt>
      <trkpt lat="47.62541" lon="-2.8458">
        <ele>20.9</ele>
        <time>2025-01-28T14:11:35Z</time>
      </trkpt>
      <trkpt lat="47.62542" lon="-2.8458">
        <ele>20.9</ele>
        <time>2025-01-28T14:11:36Z</time>
      </trkpt>
      <trkpt lat="47.62543" lon="-2.84579">
        <ele>20.9</ele>
        <time>2025-01-28T14:11:37Z</time>
      </trkpt>
      <trkpt lat="47.62544" lon="-2.84579">
        <ele>20.9</ele>
        <time>2025-01-28T14:11:38Z</time>
      </trkpt>
      <trkpt lat="47.62546" lon="-2.84578">
        <ele>20.9</ele>
        <time>2025-01-28T14:11:39Z</time>
      </trkpt>
      <trkpt lat="47.62547" lon="-2.84576">
        <ele>20.9</ele>
        <time>2025-01-28T14:11:40Z</time>
      </trkpt>
      <trkpt lat="47.62548" lon="-2.84576">
        <ele>20.9</ele>
        <time>2025-01-28T14:11:41Z</time>
      </trkpt>
      <trkpt lat="47.62549" lon="-2.84575">
        <ele>20.9</ele>
        <time>2025-01-28T14:11:42Z</time>
      </trkpt>
      <trkpt lat="47.62551" lon="-2.84575">
        <ele>20.9</ele>
        <time>2025-01-28T14:11:43Z</time>
      </trkpt>
      <trkpt lat="47.62552" lon="-2.84574">
        <ele>21</ele>
        <time>2025-01-28T14:11:44Z</time>
      </trkpt>
      <trkpt lat="47.62553" lon="-2.84573">
        <ele>21</ele>
        <time>2025-01-28T14:11:45Z</time>
      </trkpt>
      <trkpt lat="47.62554" lon="-2.84573">
        <ele>21</ele>
        <time>2025-01-28T14:11:46Z</time>
      </trkpt>
      <trkpt lat="47.62555" lon="-2.84572">
        <ele>21</ele>
        <time>2025-01-28T14:11:47Z</time>
      </trkpt>
      <trkpt lat="47.62556" lon="-2.84571">
        <ele>21</ele>
        <time>2025-01-28T14:11:48Z</time>
      </trkpt>
      <trkpt lat="47.62557" lon="-2.8457">
        <ele>21.1</ele>
        <time>2025-01-28T14:11:49Z</time>
      </trkpt>
      <trkpt lat="47.62558" lon="-2.8457">
        <ele>21.1</ele>
        <time>2025-01-28T14:11:50Z</time>
      </trkpt>
      <trkpt lat="47.62559" lon="-2.8457">
        <ele>21.1</ele>
        <time>2025-01-28T14:11:51Z</time>
      </trkpt>
      <trkpt lat="47.62561" lon="-2.8457">
        <ele>21.2</ele>
        <time>2025-01-28T14:11:52Z</time>
      </trkpt>
      <trkpt lat="47.62562" lon="-2.84569">
        <ele>21.2</ele>
        <time>2025-01-28T14:11:53Z</time>
      </trkpt>
      <trkpt lat="47.62563" lon="-2.84569">
        <ele>21.3</ele>
        <time>2025-01-28T14:11:54Z</time>
      </trkpt>
      <trkpt lat="47.62564" lon="-2.84569">
        <ele>21.3</ele>
        <time>2025-01-28T14:11:55Z</time>
      </trkpt>
      <trkpt lat="47.62565" lon="-2.84569">
        <ele>21.3</ele>
        <time>2025-01-28T14:11:56Z</time>
      </trkpt>
      <trkpt lat="47.62566" lon="-2.84569">
        <ele>21.4</ele>
        <time>2025-01-28T14:11:57Z</time>
      </trkpt>
      <trkpt lat="47.62567" lon="-2.84569">
        <ele>21.4</ele>
        <time>2025-01-28T14:11:58Z</time>
      </trkpt>
      <trkpt lat="47.62568" lon="-2.84568">
        <ele>21.5</ele>
        <time>2025-01-28T14:11:59Z</time>
      </trkpt>
      <trkpt lat="47.62569" lon="-2.84567">
        <ele>21.5</ele>
        <time>2025-01-28T14:12:00Z</time>
      </trkpt>
      <trkpt lat="47.6257" lon="-2.84566">
        <ele>21.5</ele>
        <time>2025-01-28T14:12:01Z</time>
      </trkpt>
      <trkpt lat="47.62572" lon="-2.84566">
        <ele>21.6</ele>
        <time>2025-01-28T14:12:02Z</time>
      </trkpt>
      <trkpt lat="47.62573" lon="-2.84565">
        <ele>21.6</ele>
        <time>2025-01-28T14:12:03Z</time>
      </trkpt>
      <trkpt lat="47.62574" lon="-2.84564">
        <ele>21.7</ele>
        <time>2025-01-28T14:12:04Z</time>
      </trkpt>
      <trkpt lat="47.62575" lon="-2.84563">
        <ele>21.7</ele>
        <time>2025-01-28T14:12:05Z</time>
      </trkpt>
      <trkpt lat="47.62576" lon="-2.84563">
        <ele>21.7</ele>
        <time>2025-01-28T14:12:06Z</time>
      </trkpt>
      <trkpt lat="47.62577" lon="-2.84562">
        <ele>21.8</ele>
        <time>2025-01-28T14:12:07Z</time>
      </trkpt>
      <trkpt lat="47.62579" lon="-2.84562">
        <ele>21.8</ele>
        <time>2025-01-28T14:12:08Z</time>
      </trkpt>
      <trkpt lat="47.6258" lon="-2.84561">
        <ele>21.9</ele>
        <time>2025-01-28T14:12:09Z</time>
      </trkpt>
      <trkpt lat="47.62581" lon="-2.8456">
        <ele>21.9</ele>
        <time>2025-01-28T14:12:10Z</time>
      </trkpt>
      <trkpt lat="47.62582" lon="-2.8456">
        <ele>22</ele>
        <time>2025-01-28T14:12:11Z</time>
      </trkpt>
      <trkpt lat="47.62583" lon="-2.84559">
        <ele>22</ele>
        <time>2025-01-28T14:12:12Z</time>
      </trkpt>
      <trkpt lat="47.62585" lon="-2.84559">
        <ele>22</ele>
        <time>2025-01-28T14:12:13Z</time>
      </trkpt>
      <trkpt lat="47.62586" lon="-2.84558">
        <ele>22.1</ele>
        <time>2025-01-28T14:12:14Z</time>
      </trkpt>
      <trkpt lat="47.62587" lon="-2.84558">
        <ele>22.1</ele>
        <time>2025-01-28T14:12:15Z</time>
      </trkpt>
      <trkpt lat="47.62588" lon="-2.84558">
        <ele>22.2</ele>
        <time>2025-01-28T14:12:16Z</time>
      </trkpt>
      <trkpt lat="47.62589" lon="-2.84558">
        <ele>22.2</ele>
        <time>2025-01-28T14:12:17Z</time>
      </trkpt>
      <trkpt lat="47.62591" lon="-2.84557">
        <ele>22.3</ele>
        <time>2025-01-28T14:12:18Z</time>
      </trkpt>
      <trkpt lat="47.62592" lon="-2.84556">
        <ele>22.3</ele>
        <time>2025-01-28T14:12:19Z</time>
      </trkpt>
      <trkpt lat="47.62593" lon="-2.84555">
        <ele>22.3</ele>
        <time>2025-01-28T14:12:20Z</time>
      </trkpt>
      <trkpt lat="47.62594" lon="-2.84555">
        <ele>22.4</ele>
        <time>2025-01-28T14:12:21Z</time>
      </trkpt>
      <trkpt lat="47.62595" lon="-2.84554">
        <ele>22.4</ele>
        <time>2025-01-28T14:12:22Z</time>
      </trkpt>
      <trkpt lat="47.62596" lon="-2.84553">
        <ele>22.4</ele>
        <time>2025-01-28T14:12:23Z</time>
      </trkpt>
      <trkpt lat="47.62597" lon="-2.84553">
        <ele>22.4</ele>
        <time>2025-01-28T14:12:24Z</time>
      </trkpt>
      <trkpt lat="47.62598" lon="-2.84553">
        <ele>22.5</ele>
        <time>2025-01-28T14:12:25Z</time>
      </trkpt>
      <trkpt lat="47.626" lon="-2.84553">
        <ele>22.5</ele>
        <time>2025-01-28T14:12:26Z</time>
      </trkpt>
      <trkpt lat="47.62601" lon="-2.84553">
        <ele>22.6</ele>
        <time>2025-01-28T14:12:27Z</time>
      </trkpt>
      <trkpt lat="47.62602" lon="-2.84552">
        <ele>22.6</ele>
        <time>2025-01-28T14:12:28Z</time>
      </trkpt>
      <trkpt lat="47.62603" lon="-2.84552">
        <ele>22.7</ele>
        <time>2025-01-28T14:12:29Z</time>
      </trkpt>
      <trkpt lat="47.62604" lon="-2.84551">
        <ele>22.7</ele>
        <time>2025-01-28T14:12:30Z</time>
      </trkpt>
      <trkpt lat="47.62606" lon="-2.84551">
        <ele>22.8</ele>
        <time>2025-01-28T14:12:31Z</time>
      </trkpt>
      <trkpt lat="47.62607" lon="-2.8455">
        <ele>22.8</ele>
        <time>2025-01-28T14:12:32Z</time>
      </trkpt>
      <trkpt lat="47.62609" lon="-2.8455">
        <ele>22.9</ele>
        <time>2025-01-28T14:12:33Z</time>
      </trkpt>
      <trkpt lat="47.6261" lon="-2.84549">
        <ele>22.9</ele>
        <time>2025-01-28T14:12:34Z</time>
      </trkpt>
      <trkpt lat="47.6261" lon="-2.84547">
        <ele>23</ele>
        <time>2025-01-28T14:12:35Z</time>
      </trkpt>
      <trkpt lat="47.62611" lon="-2.84546">
        <ele>23</ele>
        <time>2025-01-28T14:12:36Z</time>
      </trkpt>
      <trkpt lat="47.62611" lon="-2.84544">
        <ele>23</ele>
        <time>2025-01-28T14:12:37Z</time>
      </trkpt>
      <trkpt lat="47.62613" lon="-2.84543">
        <ele>23.1</ele>
        <time>2025-01-28T14:12:38Z</time>
      </trkpt>
      <trkpt lat="47.62614" lon="-2.84543">
        <ele>23.1</ele>
        <time>2025-01-28T14:12:39Z</time>
      </trkpt>
      <trkpt lat="47.62614" lon="-2.84542">
        <ele>23.2</ele>
        <time>2025-01-28T14:12:40Z</time>
      </trkpt>
      <trkpt lat="47.62616" lon="-2.84542">
        <ele>23.2</ele>
        <time>2025-01-28T14:12:41Z</time>
      </trkpt>
      <trkpt lat="47.62617" lon="-2.84541">
        <ele>23.3</ele>
        <time>2025-01-28T14:12:42Z</time>
      </trkpt>
      <trkpt lat="47.62618" lon="-2.8454">
        <ele>23.4</ele>
        <time>2025-01-28T14:12:43Z</time>
      </trkpt>
      <trkpt lat="47.62619" lon="-2.84539">
        <ele>23.4</ele>
        <time>2025-01-28T14:12:44Z</time>
      </trkpt>
      <trkpt lat="47.6262" lon="-2.84538">
        <ele>23.5</ele>
        <time>2025-01-28T14:12:45Z</time>
      </trkpt>
      <trkpt lat="47.62621" lon="-2.84538">
        <ele>23.6</ele>
        <time>2025-01-28T14:12:46Z</time>
      </trkpt>
      <trkpt lat="47.62622" lon="-2.84538">
        <ele>23.7</ele>
        <time>2025-01-28T14:12:47Z</time>
      </trkpt>
      <trkpt lat="47.62624" lon="-2.84537">
        <ele>23.7</ele>
        <time>2025-01-28T14:12:48Z</time>
      </trkpt>
      <trkpt lat="47.62625" lon="-2.84536">
        <ele>23.8</ele>
        <time>2025-01-28T14:12:49Z</time>
      </trkpt>
      <trkpt lat="47.62626" lon="-2.84536">
        <ele>23.9</ele>
        <time>2025-01-28T14:12:50Z</time>
      </trkpt>
      <trkpt lat="47.62627" lon="-2.84536">
        <ele>24</ele>
        <time>2025-01-28T14:12:51Z</time>
      </trkpt>
      <trkpt lat="47.62629" lon="-2.84536">
        <ele>24.1</ele>
        <time>2025-01-28T14:12:52Z</time>
      </trkpt>
      <trkpt lat="47.6263" lon="-2.84535">
        <ele>24.2</ele>
        <time>2025-01-28T14:12:53Z</time>
      </trkpt>
      <trkpt lat="47.62631" lon="-2.84535">
        <ele>24.2</ele>
        <time>2025-01-28T14:12:54Z</time>
      </trkpt>
      <trkpt lat="47.62632" lon="-2.84535">
        <ele>24.3</ele>
        <time>2025-01-28T14:12:55Z</time>
      </trkpt>
      <trkpt lat="47.62634" lon="-2.84535">
        <ele>24.4</ele>
        <time>2025-01-28T14:12:56Z</time>
      </trkpt>
      <trkpt lat="47.62635" lon="-2.84535">
        <ele>24.5</ele>
        <time>2025-01-28T14:12:57Z</time>
      </trkpt>
      <trkpt lat="47.62636" lon="-2.84536">
        <ele>24.6</ele>
        <time>2025-01-28T14:12:58Z</time>
      </trkpt>
      <trkpt lat="47.62638" lon="-2.84536">
        <ele>24.6</ele>
        <time>2025-01-28T14:12:59Z</time>
      </trkpt>
      <trkpt lat="47.62639" lon="-2.84536">
        <ele>24.7</ele>
        <time>2025-01-28T14:13:00Z</time>
      </trkpt>
      <trkpt lat="47.6264" lon="-2.84536">
        <ele>24.7</ele>
        <time>2025-01-28T14:13:01Z</time>
      </trkpt>
      <trkpt lat="47.62641" lon="-2.84537">
        <ele>24.7</ele>
        <time>2025-01-28T14:13:02Z</time>
      </trkpt>
      <trkpt lat="47.62642" lon="-2.84537">
        <ele>24.8</ele>
        <time>2025-01-28T14:13:03Z</time>
      </trkpt>
      <trkpt lat="47.62643" lon="-2.84536">
        <ele>24.8</ele>
        <time>2025-01-28T14:13:04Z</time>
      </trkpt>
      <trkpt lat="47.62645" lon="-2.84536">
        <ele>24.8</ele>
        <time>2025-01-28T14:13:05Z</time>
      </trkpt>
      <trkpt lat="47.62646" lon="-2.84535">
        <ele>24.9</ele>
        <time>2025-01-28T14:13:06Z</time>
      </trkpt>
      <trkpt lat="47.62648" lon="-2.84535">
        <ele>24.9</ele>
        <time>2025-01-28T14:13:07Z</time>
      </trkpt>
      <trkpt lat="47.62649" lon="-2.84534">
        <ele>24.9</ele>
        <time>2025-01-28T14:13:08Z</time>
      </trkpt>
      <trkpt lat="47.62651" lon="-2.84534">
        <ele>25</ele>
        <time>2025-01-28T14:13:09Z</time>
      </trkpt>
      <trkpt lat="47.62653" lon="-2.84534">
        <ele>25</ele>
        <time>2025-01-28T14:13:10Z</time>
      </trkpt>
      <trkpt lat="47.62655" lon="-2.84533">
        <ele>25</ele>
        <time>2025-01-28T14:13:11Z</time>
      </trkpt>
      <trkpt lat="47.62656" lon="-2.84533">
        <ele>25</ele>
        <time>2025-01-28T14:13:12Z</time>
      </trkpt>
      <trkpt lat="47.62657" lon="-2.84532">
        <ele>25.1</ele>
        <time>2025-01-28T14:13:13Z</time>
      </trkpt>
      <trkpt lat="47.62658" lon="-2.84532">
        <ele>25.1</ele>
        <time>2025-01-28T14:13:14Z</time>
      </trkpt>
      <trkpt lat="47.6266" lon="-2.84531">
        <ele>25.1</ele>
        <time>2025-01-28T14:13:15Z</time>
      </trkpt>
      <trkpt lat="47.62661" lon="-2.8453">
        <ele>25</ele>
        <time>2025-01-28T14:13:16Z</time>
      </trkpt>
      <trkpt lat="47.62662" lon="-2.84529">
        <ele>25</ele>
        <time>2025-01-28T14:13:17Z</time>
      </trkpt>
      <trkpt lat="47.62664" lon="-2.84529">
        <ele>25</ele>
        <time>2025-01-28T14:13:18Z</time>
      </trkpt>
      <trkpt lat="47.62665" lon="-2.84528">
        <ele>25</ele>
        <time>2025-01-28T14:13:19Z</time>
      </trkpt>
      <trkpt lat="47.62666" lon="-2.84528">
        <ele>25</ele>
        <time>2025-01-28T14:13:20Z</time>
      </trkpt>
      <trkpt lat="47.62667" lon="-2.84528">
        <ele>25</ele>
        <time>2025-01-28T14:13:21Z</time>
      </trkpt>
      <trkpt lat="47.62668" lon="-2.84528">
        <ele>25.1</ele>
        <time>2025-01-28T14:13:22Z</time>
      </trkpt>
      <trkpt lat="47.62669" lon="-2.84527">
        <ele>25.2</ele>
        <time>2025-01-28T14:13:23Z</time>
      </trkpt>
      <trkpt lat="47.6267" lon="-2.84527">
        <ele>25.3</ele>
        <time>2025-01-28T14:13:24Z</time>
      </trkpt>
      <trkpt lat="47.62671" lon="-2.84526">
        <ele>25.4</ele>
        <time>2025-01-28T14:13:25Z</time>
      </trkpt>
      <trkpt lat="47.62672" lon="-2.84525">
        <ele>25.5</ele>
        <time>2025-01-28T14:13:26Z</time>
      </trkpt>
      <trkpt lat="47.62673" lon="-2.84525">
        <ele>25.6</ele>
        <time>2025-01-28T14:13:27Z</time>
      </trkpt>
      <trkpt lat="47.62675" lon="-2.84524">
        <ele>25.7</ele>
        <time>2025-01-28T14:13:28Z</time>
      </trkpt>
      <trkpt lat="47.62676" lon="-2.84524">
        <ele>25.7</ele>
        <time>2025-01-28T14:13:29Z</time>
      </trkpt>
      <trkpt lat="47.62677" lon="-2.84525">
        <ele>25.8</ele>
        <time>2025-01-28T14:13:30Z</time>
      </trkpt>
      <trkpt lat="47.62678" lon="-2.84524">
        <ele>25.9</ele>
        <time>2025-01-28T14:13:31Z</time>
      </trkpt>
      <trkpt lat="47.6268" lon="-2.84524">
        <ele>26</ele>
        <time>2025-01-28T14:13:32Z</time>
      </trkpt>
      <trkpt lat="47.62681" lon="-2.84524">
        <ele>26.1</ele>
        <time>2025-01-28T14:13:33Z</time>
      </trkpt>
      <trkpt lat="47.62682" lon="-2.84523">
        <ele>26.2</ele>
        <time>2025-01-28T14:13:34Z</time>
      </trkpt>
      <trkpt lat="47.62683" lon="-2.84522">
        <ele>26.3</ele>
        <time>2025-01-28T14:13:35Z</time>
      </trkpt>
      <trkpt lat="47.62684" lon="-2.84522">
        <ele>26.3</ele>
        <time>2025-01-28T14:13:36Z</time>
      </trkpt>
      <trkpt lat="47.62685" lon="-2.84521">
        <ele>26.4</ele>
        <time>2025-01-28T14:13:37Z</time>
      </trkpt>
      <trkpt lat="47.62686" lon="-2.8452">
        <ele>26.5</ele>
        <time>2025-01-28T14:13:38Z</time>
      </trkpt>
      <trkpt lat="47.62687" lon="-2.84519">
        <ele>26.6</ele>
        <time>2025-01-28T14:13:39Z</time>
      </trkpt>
      <trkpt lat="47.62688" lon="-2.84518">
        <ele>26.6</ele>
        <time>2025-01-28T14:13:40Z</time>
      </trkpt>
      <trkpt lat="47.6269" lon="-2.84518">
        <ele>26.7</ele>
        <time>2025-01-28T14:13:41Z</time>
      </trkpt>
      <trkpt lat="47.62691" lon="-2.84518">
        <ele>26.8</ele>
        <time>2025-01-28T14:13:42Z</time>
      </trkpt>
      <trkpt lat="47.62692" lon="-2.84518">
        <ele>26.9</ele>
        <time>2025-01-28T14:13:43Z</time>
      </trkpt>
      <trkpt lat="47.62693" lon="-2.84517">
        <ele>26.9</ele>
        <time>2025-01-28T14:13:44Z</time>
      </trkpt>
      <trkpt lat="47.62694" lon="-2.84517">
        <ele>27</ele>
        <time>2025-01-28T14:13:45Z</time>
      </trkpt>
      <trkpt lat="47.62695" lon="-2.84517">
        <ele>27</ele>
        <time>2025-01-28T14:13:46Z</time>
      </trkpt>
      <trkpt lat="47.62697" lon="-2.84516">
        <ele>27</ele>
        <time>2025-01-28T14:13:47Z</time>
      </trkpt>
      <trkpt lat="47.62698" lon="-2.84516">
        <ele>27.1</ele>
        <time>2025-01-28T14:13:48Z</time>
      </trkpt>
      <trkpt lat="47.62699" lon="-2.84515">
        <ele>27.1</ele>
        <time>2025-01-28T14:13:49Z</time>
      </trkpt>
      <trkpt lat="47.627" lon="-2.84515">
        <ele>27.1</ele>
        <time>2025-01-28T14:13:50Z</time>
      </trkpt>
      <trkpt lat="47.62702" lon="-2.84515">
        <ele>27.1</ele>
        <time>2025-01-28T14:13:51Z</time>
      </trkpt>
      <trkpt lat="47.62703" lon="-2.84514">
        <ele>27.2</ele>
        <time>2025-01-28T14:13:52Z</time>
      </trkpt>
      <trkpt lat="47.62704" lon="-2.84513">
        <ele>27.2</ele>
        <time>2025-01-28T14:13:53Z</time>
      </trkpt>
      <trkpt lat="47.62705" lon="-2.84512">
        <ele>27.2</ele>
        <time>2025-01-28T14:13:54Z</time>
      </trkpt>
      <trkpt lat="47.62706" lon="-2.84512">
        <ele>27.2</ele>
        <time>2025-01-28T14:13:55Z</time>
      </trkpt>
      <trkpt lat="47.62707" lon="-2.84511">
        <ele>27.2</ele>
        <time>2025-01-28T14:13:56Z</time>
      </trkpt>
      <trkpt lat="47.62708" lon="-2.8451">
        <ele>27.2</ele>
        <time>2025-01-28T14:13:57Z</time>
      </trkpt>
      <trkpt lat="47.62709" lon="-2.8451">
        <ele>27.2</ele>
        <time>2025-01-28T14:13:58Z</time>
      </trkpt>
      <trkpt lat="47.6271" lon="-2.84509">
        <ele>27.2</ele>
        <time>2025-01-28T14:13:59Z</time>
      </trkpt>
      <trkpt lat="47.62712" lon="-2.84509">
        <ele>27.2</ele>
        <time>2025-01-28T14:14:00Z</time>
      </trkpt>
      <trkpt lat="47.62713" lon="-2.84508">
        <ele>27.2</ele>
        <time>2025-01-28T14:14:01Z</time>
      </trkpt>
      <trkpt lat="47.62713" lon="-2.84507">
        <ele>27.2</ele>
        <time>2025-01-28T14:14:02Z</time>
      </trkpt>
      <trkpt lat="47.62714" lon="-2.84506">
        <ele>27.1</ele>
        <time>2025-01-28T14:14:03Z</time>
      </trkpt>
      <trkpt lat="47.62715" lon="-2.84505">
        <ele>27.1</ele>
        <time>2025-01-28T14:14:04Z</time>
      </trkpt>
      <trkpt lat="47.62717" lon="-2.84505">
        <ele>27.1</ele>
        <time>2025-01-28T14:14:05Z</time>
      </trkpt>
      <trkpt lat="47.62718" lon="-2.84504">
        <ele>27.1</ele>
        <time>2025-01-28T14:14:06Z</time>
      </trkpt>
      <trkpt lat="47.62719" lon="-2.84504">
        <ele>27.1</ele>
        <time>2025-01-28T14:14:07Z</time>
      </trkpt>
      <trkpt lat="47.6272" lon="-2.84504">
        <ele>27.1</ele>
        <time>2025-01-28T14:14:08Z</time>
      </trkpt>
      <trkpt lat="47.62721" lon="-2.84503">
        <ele>27.1</ele>
        <time>2025-01-28T14:14:09Z</time>
      </trkpt>
      <trkpt lat="47.62722" lon="-2.84502">
        <ele>27.1</ele>
        <time>2025-01-28T14:14:10Z</time>
      </trkpt>
      <trkpt lat="47.62723" lon="-2.84501">
        <ele>27</ele>
        <time>2025-01-28T14:14:11Z</time>
      </trkpt>
      <trkpt lat="47.62723" lon="-2.84499">
        <ele>27</ele>
        <time>2025-01-28T14:14:12Z</time>
      </trkpt>
      <trkpt lat="47.62724" lon="-2.84498">
        <ele>27</ele>
        <time>2025-01-28T14:14:13Z</time>
      </trkpt>
      <trkpt lat="47.62725" lon="-2.84497">
        <ele>27</ele>
        <time>2025-01-28T14:14:14Z</time>
      </trkpt>
      <trkpt lat="47.62726" lon="-2.84496">
        <ele>27</ele>
        <time>2025-01-28T14:14:15Z</time>
      </trkpt>
      <trkpt lat="47.62728" lon="-2.84496">
        <ele>27</ele>
        <time>2025-01-28T14:14:16Z</time>
      </trkpt>
      <trkpt lat="47.62729" lon="-2.84495">
        <ele>27</ele>
        <time>2025-01-28T14:14:17Z</time>
      </trkpt>
      <trkpt lat="47.6273" lon="-2.84494">
        <ele>26.9</ele>
        <time>2025-01-28T14:14:18Z</time>
      </trkpt>
      <trkpt lat="47.62731" lon="-2.84493">
        <ele>26.9</ele>
        <time>2025-01-28T14:14:19Z</time>
      </trkpt>
      <trkpt lat="47.62732" lon="-2.84493">
        <ele>26.9</ele>
        <time>2025-01-28T14:14:20Z</time>
      </trkpt>
      <trkpt lat="47.62733" lon="-2.84492">
        <ele>26.9</ele>
        <time>2025-01-28T14:14:21Z</time>
      </trkpt>
      <trkpt lat="47.62734" lon="-2.84491">
        <ele>26.9</ele>
        <time>2025-01-28T14:14:22Z</time>
      </trkpt>
      <trkpt lat="47.62735" lon="-2.84491">
        <ele>26.9</ele>
        <time>2025-01-28T14:14:23Z</time>
      </trkpt>
      <trkpt lat="47.62736" lon="-2.8449">
        <ele>26.8</ele>
        <time>2025-01-28T14:14:24Z</time>
      </trkpt>
      <trkpt lat="47.62737" lon="-2.84489">
        <ele>26.8</ele>
        <time>2025-01-28T14:14:25Z</time>
      </trkpt>
      <trkpt lat="47.62738" lon="-2.84488">
        <ele>26.8</ele>
        <time>2025-01-28T14:14:26Z</time>
      </trkpt>
      <trkpt lat="47.62739" lon="-2.84487">
        <ele>26.7</ele>
        <time>2025-01-28T14:14:27Z</time>
      </trkpt>
      <trkpt lat="47.6274" lon="-2.84486">
        <ele>26.7</ele>
        <time>2025-01-28T14:14:28Z</time>
      </trkpt>
      <trkpt lat="47.62741" lon="-2.84486">
        <ele>26.7</ele>
        <time>2025-01-28T14:14:29Z</time>
      </trkpt>
      <trkpt lat="47.62742" lon="-2.84485">
        <ele>26.6</ele>
        <time>2025-01-28T14:14:30Z</time>
      </trkpt>
      <trkpt lat="47.62743" lon="-2.84484">
        <ele>26.6</ele>
        <time>2025-01-28T14:14:31Z</time>
      </trkpt>
      <trkpt lat="47.62744" lon="-2.84483">
        <ele>26.5</ele>
        <time>2025-01-28T14:14:32Z</time>
      </trkpt>
      <trkpt lat="47.62745" lon="-2.84483">
        <ele>26.5</ele>
        <time>2025-01-28T14:14:33Z</time>
      </trkpt>
      <trkpt lat="47.62746" lon="-2.84482">
        <ele>26.5</ele>
        <time>2025-01-28T14:14:34Z</time>
      </trkpt>
      <trkpt lat="47.62747" lon="-2.84482">
        <ele>26.4</ele>
        <time>2025-01-28T14:14:35Z</time>
      </trkpt>
      <trkpt lat="47.62748" lon="-2.84481">
        <ele>26.4</ele>
        <time>2025-01-28T14:14:36Z</time>
      </trkpt>
      <trkpt lat="47.62749" lon="-2.8448">
        <ele>26.3</ele>
        <time>2025-01-28T14:14:37Z</time>
      </trkpt>
      <trkpt lat="47.6275" lon="-2.84479">
        <ele>26.2</ele>
        <time>2025-01-28T14:14:38Z</time>
      </trkpt>
      <trkpt lat="47.62751" lon="-2.84478">
        <ele>26.2</ele>
        <time>2025-01-28T14:14:39Z</time>
      </trkpt>
      <trkpt lat="47.62752" lon="-2.84478">
        <ele>26.1</ele>
        <time>2025-01-28T14:14:40Z</time>
      </trkpt>
      <trkpt lat="47.62753" lon="-2.84477">
        <ele>26.1</ele>
        <time>2025-01-28T14:14:41Z</time>
      </trkpt>
      <trkpt lat="47.62754" lon="-2.84477">
        <ele>26</ele>
        <time>2025-01-28T14:14:42Z</time>
      </trkpt>
      <trkpt lat="47.62755" lon="-2.84476">
        <ele>26</ele>
        <time>2025-01-28T14:14:43Z</time>
      </trkpt>
      <trkpt lat="47.62756" lon="-2.84476">
        <ele>25.9</ele>
        <time>2025-01-28T14:14:44Z</time>
      </trkpt>
      <trkpt lat="47.62757" lon="-2.84475">
        <ele>25.8</ele>
        <time>2025-01-28T14:14:45Z</time>
      </trkpt>
      <trkpt lat="47.62758" lon="-2.84474">
        <ele>25.8</ele>
        <time>2025-01-28T14:14:46Z</time>
      </trkpt>
      <trkpt lat="47.62759" lon="-2.84474">
        <ele>25.7</ele>
        <time>2025-01-28T14:14:47Z</time>
      </trkpt>
      <trkpt lat="47.6276" lon="-2.84473">
        <ele>25.7</ele>
        <time>2025-01-28T14:14:48Z</time>
      </trkpt>
      <trkpt lat="47.62761" lon="-2.84473">
        <ele>25.6</ele>
        <time>2025-01-28T14:14:49Z</time>
      </trkpt>
      <trkpt lat="47.62762" lon="-2.84472">
        <ele>25.6</ele>
        <time>2025-01-28T14:14:50Z</time>
      </trkpt>
      <trkpt lat="47.62763" lon="-2.84471">
        <ele>25.5</ele>
        <time>2025-01-28T14:14:51Z</time>
      </trkpt>
      <trkpt lat="47.62764" lon="-2.8447">
        <ele>25.5</ele>
        <time>2025-01-28T14:14:52Z</time>
      </trkpt>
      <trkpt lat="47.62765" lon="-2.84469">
        <ele>25.5</ele>
        <time>2025-01-28T14:14:53Z</time>
      </trkpt>
      <trkpt lat="47.62766" lon="-2.84469">
        <ele>25.4</ele>
        <time>2025-01-28T14:14:54Z</time>
      </trkpt>
      <trkpt lat="47.62768" lon="-2.84468">
        <ele>25.4</ele>
        <time>2025-01-28T14:14:55Z</time>
      </trkpt>
      <trkpt lat="47.62769" lon="-2.84467">
        <ele>25.3</ele>
        <time>2025-01-28T14:14:56Z</time>
      </trkpt>
      <trkpt lat="47.6277" lon="-2.84467">
        <ele>25.3</ele>
        <time>2025-01-28T14:14:57Z</time>
      </trkpt>
      <trkpt lat="47.62771" lon="-2.84466">
        <ele>25.3</ele>
        <time>2025-01-28T14:14:58Z</time>
      </trkpt>
      <trkpt lat="47.62772" lon="-2.84465">
        <ele>25.2</ele>
        <time>2025-01-28T14:14:59Z</time>
      </trkpt>
      <trkpt lat="47.62773" lon="-2.84465">
        <ele>25.2</ele>
        <time>2025-01-28T14:15:00Z</time>
      </trkpt>
      <trkpt lat="47.62774" lon="-2.84464">
        <ele>25.1</ele>
        <time>2025-01-28T14:15:01Z</time>
      </trkpt>
      <trkpt lat="47.62775" lon="-2.84463">
        <ele>25.1</ele>
        <time>2025-01-28T14:15:02Z</time>
      </trkpt>
      <trkpt lat="47.62776" lon="-2.84462">
        <ele>25</ele>
        <time>2025-01-28T14:15:03Z</time>
      </trkpt>
      <trkpt lat="47.62778" lon="-2.84461">
        <ele>25</ele>
        <time>2025-01-28T14:15:04Z</time>
      </trkpt>
      <trkpt lat="47.62779" lon="-2.8446">
        <ele>24.9</ele>
        <time>2025-01-28T14:15:05Z</time>
      </trkpt>
      <trkpt lat="47.6278" lon="-2.84458">
        <ele>24.9</ele>
        <time>2025-01-28T14:15:06Z</time>
      </trkpt>
      <trkpt lat="47.62781" lon="-2.84457">
        <ele>24.8</ele>
        <time>2025-01-28T14:15:07Z</time>
      </trkpt>
      <trkpt lat="47.62782" lon="-2.84457">
        <ele>24.8</ele>
        <time>2025-01-28T14:15:08Z</time>
      </trkpt>
      <trkpt lat="47.62783" lon="-2.84456">
        <ele>24.7</ele>
        <time>2025-01-28T14:15:09Z</time>
      </trkpt>
      <trkpt lat="47.62785" lon="-2.84455">
        <ele>24.6</ele>
        <time>2025-01-28T14:15:10Z</time>
      </trkpt>
      <trkpt lat="47.62786" lon="-2.84454">
        <ele>24.5</ele>
        <time>2025-01-28T14:15:11Z</time>
      </trkpt>
      <trkpt lat="47.62787" lon="-2.84453">
        <ele>24.5</ele>
        <time>2025-01-28T14:15:12Z</time>
      </trkpt>
      <trkpt lat="47.62788" lon="-2.84452">
        <ele>24.4</ele>
        <time>2025-01-28T14:15:13Z</time>
      </trkpt>
      <trkpt lat="47.62789" lon="-2.84451">
        <ele>24.3</ele>
        <time>2025-01-28T14:15:14Z</time>
      </trkpt>
      <trkpt lat="47.6279" lon="-2.84451">
        <ele>24.2</ele>
        <time>2025-01-28T14:15:15Z</time>
      </trkpt>
      <trkpt lat="47.62791" lon="-2.8445">
        <ele>24.1</ele>
        <time>2025-01-28T14:15:16Z</time>
      </trkpt>
      <trkpt lat="47.62792" lon="-2.84449">
        <ele>24</ele>
        <time>2025-01-28T14:15:17Z</time>
      </trkpt>
      <trkpt lat="47.62794" lon="-2.84449">
        <ele>23.9</ele>
        <time>2025-01-28T14:15:18Z</time>
      </trkpt>
      <trkpt lat="47.62795" lon="-2.84448">
        <ele>23.9</ele>
        <time>2025-01-28T14:15:19Z</time>
      </trkpt>
      <trkpt lat="47.62796" lon="-2.84447">
        <ele>23.8</ele>
        <time>2025-01-28T14:15:20Z</time>
      </trkpt>
      <trkpt lat="47.62797" lon="-2.84447">
        <ele>23.7</ele>
        <time>2025-01-28T14:15:21Z</time>
      </trkpt>
      <trkpt lat="47.62798" lon="-2.84446">
        <ele>23.6</ele>
        <time>2025-01-28T14:15:22Z</time>
      </trkpt>
      <trkpt lat="47.62799" lon="-2.84444">
        <ele>23.5</ele>
        <time>2025-01-28T14:15:23Z</time>
      </trkpt>
      <trkpt lat="47.628" lon="-2.84443">
        <ele>23.4</ele>
        <time>2025-01-28T14:15:24Z</time>
      </trkpt>
      <trkpt lat="47.62801" lon="-2.84442">
        <ele>23.3</ele>
        <time>2025-01-28T14:15:25Z</time>
      </trkpt>
      <trkpt lat="47.62802" lon="-2.84442">
        <ele>23.2</ele>
        <time>2025-01-28T14:15:26Z</time>
      </trkpt>
      <trkpt lat="47.62803" lon="-2.84441">
        <ele>23.1</ele>
        <time>2025-01-28T14:15:27Z</time>
      </trkpt>
      <trkpt lat="47.62804" lon="-2.84441">
        <ele>23</ele>
        <time>2025-01-28T14:15:28Z</time>
      </trkpt>
      <trkpt lat="47.62806" lon="-2.8444">
        <ele>22.9</ele>
        <time>2025-01-28T14:15:29Z</time>
      </trkpt>
      <trkpt lat="47.62807" lon="-2.8444">
        <ele>22.8</ele>
        <time>2025-01-28T14:15:30Z</time>
      </trkpt>
      <trkpt lat="47.62808" lon="-2.84439">
        <ele>22.8</ele>
        <time>2025-01-28T14:15:31Z</time>
      </trkpt>
      <trkpt lat="47.62809" lon="-2.84439">
        <ele>22.8</ele>
        <time>2025-01-28T14:15:32Z</time>
      </trkpt>
      <trkpt lat="47.6281" lon="-2.84438">
        <ele>22.7</ele>
        <time>2025-01-28T14:15:33Z</time>
      </trkpt>
      <trkpt lat="47.62812" lon="-2.84438">
        <ele>22.7</ele>
        <time>2025-01-28T14:15:34Z</time>
      </trkpt>
      <trkpt lat="47.62813" lon="-2.84437">
        <ele>22.7</ele>
        <time>2025-01-28T14:15:35Z</time>
      </trkpt>
      <trkpt lat="47.62814" lon="-2.84437">
        <ele>22.7</ele>
        <time>2025-01-28T14:15:36Z</time>
      </trkpt>
      <trkpt lat="47.62815" lon="-2.84436">
        <ele>22.6</ele>
        <time>2025-01-28T14:15:37Z</time>
      </trkpt>
      <trkpt lat="47.62816" lon="-2.84436">
        <ele>22.6</ele>
        <time>2025-01-28T14:15:38Z</time>
      </trkpt>
      <trkpt lat="47.62818" lon="-2.84434">
        <ele>22.5</ele>
        <time>2025-01-28T14:15:39Z</time>
      </trkpt>
      <trkpt lat="47.62819" lon="-2.84433">
        <ele>22.4</ele>
        <time>2025-01-28T14:15:40Z</time>
      </trkpt>
      <trkpt lat="47.6282" lon="-2.84432">
        <ele>22.3</ele>
        <time>2025-01-28T14:15:41Z</time>
      </trkpt>
      <trkpt lat="47.62821" lon="-2.84431">
        <ele>22.3</ele>
        <time>2025-01-28T14:15:42Z</time>
      </trkpt>
      <trkpt lat="47.62822" lon="-2.8443">
        <ele>22.2</ele>
        <time>2025-01-28T14:15:43Z</time>
      </trkpt>
      <trkpt lat="47.62823" lon="-2.8443">
        <ele>22.1</ele>
        <time>2025-01-28T14:15:44Z</time>
      </trkpt>
      <trkpt lat="47.62824" lon="-2.84429">
        <ele>22.1</ele>
        <time>2025-01-28T14:15:45Z</time>
      </trkpt>
      <trkpt lat="47.62826" lon="-2.84428">
        <ele>22</ele>
        <time>2025-01-28T14:15:46Z</time>
      </trkpt>
      <trkpt lat="47.62827" lon="-2.84428">
        <ele>21.9</ele>
        <time>2025-01-28T14:15:47Z</time>
      </trkpt>
      <trkpt lat="47.62828" lon="-2.84427">
        <ele>21.9</ele>
        <time>2025-01-28T14:15:48Z</time>
      </trkpt>
      <trkpt lat="47.62829" lon="-2.84427">
        <ele>21.8</ele>
        <time>2025-01-28T14:15:49Z</time>
      </trkpt>
      <trkpt lat="47.6283" lon="-2.84427">
        <ele>21.8</ele>
        <time>2025-01-28T14:15:50Z</time>
      </trkpt>
      <trkpt lat="47.62832" lon="-2.84426">
        <ele>21.7</ele>
        <time>2025-01-28T14:15:51Z</time>
      </trkpt>
      <trkpt lat="47.62833" lon="-2.84426">
        <ele>21.7</ele>
        <time>2025-01-28T14:15:52Z</time>
      </trkpt>
      <trkpt lat="47.62834" lon="-2.84425">
        <ele>21.6</ele>
        <time>2025-01-28T14:15:53Z</time>
      </trkpt>
      <trkpt lat="47.62835" lon="-2.84425">
        <ele>21.6</ele>
        <time>2025-01-28T14:15:54Z</time>
      </trkpt>
      <trkpt lat="47.62836" lon="-2.84424">
        <ele>21.5</ele>
        <time>2025-01-28T14:15:55Z</time>
      </trkpt>
      <trkpt lat="47.62837" lon="-2.84424">
        <ele>21.5</ele>
        <time>2025-01-28T14:15:56Z</time>
      </trkpt>
      <trkpt lat="47.62839" lon="-2.84423">
        <ele>21.5</ele>
        <time>2025-01-28T14:15:57Z</time>
      </trkpt>
      <trkpt lat="47.6284" lon="-2.84423">
        <ele>21.4</ele>
        <time>2025-01-28T14:15:58Z</time>
      </trkpt>
      <trkpt lat="47.62841" lon="-2.84422">
        <ele>21.4</ele>
        <time>2025-01-28T14:15:59Z</time>
      </trkpt>
      <trkpt lat="47.62842" lon="-2.84422">
        <ele>21.4</ele>
        <time>2025-01-28T14:16:00Z</time>
      </trkpt>
      <trkpt lat="47.62843" lon="-2.84421">
        <ele>21.3</ele>
        <time>2025-01-28T14:16:01Z</time>
      </trkpt>
      <trkpt lat="47.62844" lon="-2.84421">
        <ele>21.3</ele>
        <time>2025-01-28T14:16:02Z</time>
      </trkpt>
      <trkpt lat="47.62846" lon="-2.84421">
        <ele>21.3</ele>
        <time>2025-01-28T14:16:03Z</time>
      </trkpt>
      <trkpt lat="47.62847" lon="-2.8442">
        <ele>21.2</ele>
        <time>2025-01-28T14:16:04Z</time>
      </trkpt>
      <trkpt lat="47.62848" lon="-2.84419">
        <ele>21.2</ele>
        <time>2025-01-28T14:16:05Z</time>
      </trkpt>
      <trkpt lat="47.62849" lon="-2.84418">
        <ele>21.1</ele>
        <time>2025-01-28T14:16:06Z</time>
      </trkpt>
      <trkpt lat="47.6285" lon="-2.84417">
        <ele>21</ele>
        <time>2025-01-28T14:16:07Z</time>
      </trkpt>
      <trkpt lat="47.62851" lon="-2.84416">
        <ele>21</ele>
        <time>2025-01-28T14:16:08Z</time>
      </trkpt>
      <trkpt lat="47.62852" lon="-2.84415">
        <ele>21</ele>
        <time>2025-01-28T14:16:09Z</time>
      </trkpt>
      <trkpt lat="47.62853" lon="-2.84415">
        <ele>21</ele>
        <time>2025-01-28T14:16:10Z</time>
      </trkpt>
      <trkpt lat="47.62854" lon="-2.84415">
        <ele>20.9</ele>
        <time>2025-01-28T14:16:11Z</time>
      </trkpt>
      <trkpt lat="47.62855" lon="-2.84414">
        <ele>20.9</ele>
        <time>2025-01-28T14:16:12Z</time>
      </trkpt>
      <trkpt lat="47.62857" lon="-2.84414">
        <ele>20.9</ele>
        <time>2025-01-28T14:16:13Z</time>
      </trkpt>
      <trkpt lat="47.62858" lon="-2.84413">
        <ele>20.9</ele>
        <time>2025-01-28T14:16:14Z</time>
      </trkpt>
      <trkpt lat="47.62859" lon="-2.84412">
        <ele>20.9</ele>
        <time>2025-01-28T14:16:15Z</time>
      </trkpt>
      <trkpt lat="47.6286" lon="-2.84412">
        <ele>20.8</ele>
        <time>2025-01-28T14:16:16Z</time>
      </trkpt>
      <trkpt lat="47.62861" lon="-2.84411">
        <ele>20.8</ele>
        <time>2025-01-28T14:16:17Z</time>
      </trkpt>
      <trkpt lat="47.62862" lon="-2.84409">
        <ele>20.7</ele>
        <time>2025-01-28T14:16:18Z</time>
      </trkpt>
      <trkpt lat="47.62863" lon="-2.84408">
        <ele>20.7</ele>
        <time>2025-01-28T14:16:19Z</time>
      </trkpt>
      <trkpt lat="47.62864" lon="-2.84407">
        <ele>20.7</ele>
        <time>2025-01-28T14:16:20Z</time>
      </trkpt>
      <trkpt lat="47.62865" lon="-2.84407">
        <ele>20.6</ele>
        <time>2025-01-28T14:16:21Z</time>
      </trkpt>
      <trkpt lat="47.62866" lon="-2.84406">
        <ele>20.6</ele>
        <time>2025-01-28T14:16:22Z</time>
      </trkpt>
      <trkpt lat="47.62867" lon="-2.84405">
        <ele>20.6</ele>
        <time>2025-01-28T14:16:23Z</time>
      </trkpt>
      <trkpt lat="47.62868" lon="-2.84404">
        <ele>20.6</ele>
        <time>2025-01-28T14:16:24Z</time>
      </trkpt>
      <trkpt lat="47.62869" lon="-2.84404">
        <ele>20.5</ele>
        <time>2025-01-28T14:16:25Z</time>
      </trkpt>
      <trkpt lat="47.62871" lon="-2.84403">
        <ele>20.5</ele>
        <time>2025-01-28T14:16:26Z</time>
      </trkpt>
      <trkpt lat="47.62872" lon="-2.84403">
        <ele>20.5</ele>
        <time>2025-01-28T14:16:27Z</time>
      </trkpt>
      <trkpt lat="47.62873" lon="-2.84402">
        <ele>20.5</ele>
        <time>2025-01-28T14:16:28Z</time>
      </trkpt>
      <trkpt lat="47.62874" lon="-2.84402">
        <ele>20.5</ele>
        <time>2025-01-28T14:16:29Z</time>
      </trkpt>
      <trkpt lat="47.62874" lon="-2.84402">
        <ele>20.5</ele>
        <time>2025-01-28T14:16:30Z</time>
      </trkpt>
      <trkpt lat="47.62874" lon="-2.84402">
        <ele>20.5</ele>
        <time>2025-01-28T14:16:31Z</time>
      </trkpt>
      <trkpt lat="47.62875" lon="-2.84401">
        <ele>20.4</ele>
        <time>2025-01-28T14:16:32Z</time>
      </trkpt>
      <trkpt lat="47.62876" lon="-2.844">
        <ele>20.4</ele>
        <time>2025-01-28T14:16:33Z</time>
      </trkpt>
      <trkpt lat="47.62877" lon="-2.844">
        <ele>20.4</ele>
        <time>2025-01-28T14:16:34Z</time>
      </trkpt>
      <trkpt lat="47.62878" lon="-2.84399">
        <ele>20.3</ele>
        <time>2025-01-28T14:16:35Z</time>
      </trkpt>
      <trkpt lat="47.62879" lon="-2.84398">
        <ele>20.3</ele>
        <time>2025-01-28T14:16:36Z</time>
      </trkpt>
      <trkpt lat="47.6288" lon="-2.84397">
        <ele>20.3</ele>
        <time>2025-01-28T14:16:37Z</time>
      </trkpt>
      <trkpt lat="47.62881" lon="-2.84396">
        <ele>20.3</ele>
        <time>2025-01-28T14:16:38Z</time>
      </trkpt>
      <trkpt lat="47.62882" lon="-2.84395">
        <ele>20.2</ele>
        <time>2025-01-28T14:16:39Z</time>
      </trkpt>
      <trkpt lat="47.62883" lon="-2.84394">
        <ele>20.2</ele>
        <time>2025-01-28T14:16:40Z</time>
      </trkpt>
      <trkpt lat="47.62884" lon="-2.84393">
        <ele>20.2</ele>
        <time>2025-01-28T14:16:41Z</time>
      </trkpt>
      <trkpt lat="47.62885" lon="-2.84392">
        <ele>20.1</ele>
        <time>2025-01-28T14:16:42Z</time>
      </trkpt>
      <trkpt lat="47.62886" lon="-2.84391">
        <ele>20.1</ele>
        <time>2025-01-28T14:16:43Z</time>
      </trkpt>
      <trkpt lat="47.62888" lon="-2.8439">
        <ele>20</ele>
        <time>2025-01-28T14:16:44Z</time>
      </trkpt>
      <trkpt lat="47.62889" lon="-2.84389">
        <ele>20</ele>
        <time>2025-01-28T14:16:45Z</time>
      </trkpt>
      <trkpt lat="47.6289" lon="-2.84387">
        <ele>19.9</ele>
        <time>2025-01-28T14:16:46Z</time>
      </trkpt>
      <trkpt lat="47.62891" lon="-2.84386">
        <ele>19.9</ele>
        <time>2025-01-28T14:16:47Z</time>
      </trkpt>
      <trkpt lat="47.62892" lon="-2.84385">
        <ele>19.9</ele>
        <time>2025-01-28T14:16:48Z</time>
      </trkpt>
      <trkpt lat="47.62893" lon="-2.84384">
        <ele>19.8</ele>
        <time>2025-01-28T14:16:49Z</time>
      </trkpt>
      <trkpt lat="47.62894" lon="-2.84383">
        <ele>19.8</ele>
        <time>2025-01-28T14:16:50Z</time>
      </trkpt>
      <trkpt lat="47.62895" lon="-2.84382">
        <ele>19.7</ele>
        <time>2025-01-28T14:16:51Z</time>
      </trkpt>
      <trkpt lat="47.62896" lon="-2.84381">
        <ele>19.7</ele>
        <time>2025-01-28T14:16:52Z</time>
      </trkpt>
      <trkpt lat="47.62897" lon="-2.84381">
        <ele>19.6</ele>
        <time>2025-01-28T14:16:53Z</time>
      </trkpt>
      <trkpt lat="47.62898" lon="-2.8438">
        <ele>19.6</ele>
        <time>2025-01-28T14:16:54Z</time>
      </trkpt>
      <trkpt lat="47.62899" lon="-2.84378">
        <ele>19.5</ele>
        <time>2025-01-28T14:16:55Z</time>
      </trkpt>
      <trkpt lat="47.629" lon="-2.84378">
        <ele>19.4</ele>
        <time>2025-01-28T14:16:56Z</time>
      </trkpt>
      <trkpt lat="47.62902" lon="-2.84377">
        <ele>19.4</ele>
        <time>2025-01-28T14:16:57Z</time>
      </trkpt>
      <trkpt lat="47.62903" lon="-2.84376">
        <ele>19.3</ele>
        <time>2025-01-28T14:16:58Z</time>
      </trkpt>
      <trkpt lat="47.62904" lon="-2.84376">
        <ele>19.3</ele>
        <time>2025-01-28T14:16:59Z</time>
      </trkpt>
      <trkpt lat="47.62906" lon="-2.84375">
        <ele>19.2</ele>
        <time>2025-01-28T14:17:00Z</time>
      </trkpt>
      <trkpt lat="47.62907" lon="-2.84373">
        <ele>19.1</ele>
        <time>2025-01-28T14:17:01Z</time>
      </trkpt>
      <trkpt lat="47.62908" lon="-2.84373">
        <ele>19</ele>
        <time>2025-01-28T14:17:02Z</time>
      </trkpt>
      <trkpt lat="47.62909" lon="-2.84372">
        <ele>18.9</ele>
        <time>2025-01-28T14:17:03Z</time>
      </trkpt>
      <trkpt lat="47.6291" lon="-2.84371">
        <ele>18.8</ele>
        <time>2025-01-28T14:17:04Z</time>
      </trkpt>
      <trkpt lat="47.62911" lon="-2.8437">
        <ele>18.7</ele>
        <time>2025-01-28T14:17:05Z</time>
      </trkpt>
      <trkpt lat="47.62913" lon="-2.84369">
        <ele>18.7</ele>
        <time>2025-01-28T14:17:06Z</time>
      </trkpt>
      <trkpt lat="47.62914" lon="-2.84369">
        <ele>18.6</ele>
        <time>2025-01-28T14:17:07Z</time>
      </trkpt>
      <trkpt lat="47.62915" lon="-2.84368">
        <ele>18.6</ele>
        <time>2025-01-28T14:17:08Z</time>
      </trkpt>
      <trkpt lat="47.62916" lon="-2.84368">
        <ele>18.5</ele>
        <time>2025-01-28T14:17:09Z</time>
      </trkpt>
      <trkpt lat="47.62917" lon="-2.84368">
        <ele>18.5</ele>
        <time>2025-01-28T14:17:10Z</time>
      </trkpt>
      <trkpt lat="47.62918" lon="-2.84369">
        <ele>18.6</ele>
        <time>2025-01-28T14:17:11Z</time>
      </trkpt>
      <trkpt lat="47.62919" lon="-2.84367">
        <ele>18.5</ele>
        <time>2025-01-28T14:17:12Z</time>
      </trkpt>
      <trkpt lat="47.6292" lon="-2.84368">
        <ele>18.6</ele>
        <time>2025-01-28T14:17:13Z</time>
      </trkpt>
      <trkpt lat="47.62921" lon="-2.84366">
        <ele>18.5</ele>
        <time>2025-01-28T14:17:14Z</time>
      </trkpt>
      <trkpt lat="47.62922" lon="-2.84366">
        <ele>18.5</ele>
        <time>2025-01-28T14:17:15Z</time>
      </trkpt>
      <trkpt lat="47.62923" lon="-2.84365">
        <ele>18.5</ele>
        <time>2025-01-28T14:17:16Z</time>
      </trkpt>
      <trkpt lat="47.62924" lon="-2.84365">
        <ele>18.5</ele>
        <time>2025-01-28T14:17:17Z</time>
      </trkpt>
      <trkpt lat="47.62925" lon="-2.84365">
        <ele>18.5</ele>
        <time>2025-01-28T14:17:18Z</time>
      </trkpt>
      <trkpt lat="47.62926" lon="-2.84363">
        <ele>18.4</ele>
        <time>2025-01-28T14:17:19Z</time>
      </trkpt>
      <trkpt lat="47.62926" lon="-2.84362">
        <ele>18.4</ele>
        <time>2025-01-28T14:17:20Z</time>
      </trkpt>
      <trkpt lat="47.62927" lon="-2.84361">
        <ele>18.4</ele>
        <time>2025-01-28T14:17:21Z</time>
      </trkpt>
      <trkpt lat="47.62928" lon="-2.84361">
        <ele>18.4</ele>
        <time>2025-01-28T14:17:22Z</time>
      </trkpt>
      <trkpt lat="47.62929" lon="-2.8436">
        <ele>18.4</ele>
        <time>2025-01-28T14:17:23Z</time>
      </trkpt>
      <trkpt lat="47.6293" lon="-2.8436">
        <ele>18.4</ele>
        <time>2025-01-28T14:17:24Z</time>
      </trkpt>
      <trkpt lat="47.62931" lon="-2.84361">
        <ele>18.5</ele>
        <time>2025-01-28T14:17:25Z</time>
      </trkpt>
      <trkpt lat="47.62932" lon="-2.84362">
        <ele>18.6</ele>
        <time>2025-01-28T14:17:26Z</time>
      </trkpt>
      <trkpt lat="47.62933" lon="-2.84362">
        <ele>18.6</ele>
        <time>2025-01-28T14:17:27Z</time>
      </trkpt>
      <trkpt lat="47.62934" lon="-2.84361">
        <ele>18.6</ele>
        <time>2025-01-28T14:17:28Z</time>
      </trkpt>
      <trkpt lat="47.62935" lon="-2.84361">
        <ele>18.6</ele>
        <time>2025-01-28T14:17:29Z</time>
      </trkpt>
      <trkpt lat="47.62935" lon="-2.84361">
        <ele>18.7</ele>
        <time>2025-01-28T14:17:30Z</time>
      </trkpt>
      <trkpt lat="47.62936" lon="-2.8436">
        <ele>18.7</ele>
        <time>2025-01-28T14:17:31Z</time>
      </trkpt>
      <trkpt lat="47.62937" lon="-2.8436">
        <ele>18.7</ele>
        <time>2025-01-28T14:17:32Z</time>
      </trkpt>
      <trkpt lat="47.62938" lon="-2.84359">
        <ele>18.7</ele>
        <time>2025-01-28T14:17:33Z</time>
      </trkpt>
      <trkpt lat="47.62938" lon="-2.84358">
        <ele>18.7</ele>
        <time>2025-01-28T14:17:34Z</time>
      </trkpt>
      <trkpt lat="47.62939" lon="-2.84358">
        <ele>18.7</ele>
        <time>2025-01-28T14:17:35Z</time>
      </trkpt>
      <trkpt lat="47.62939" lon="-2.84357">
        <ele>18.7</ele>
        <time>2025-01-28T14:17:36Z</time>
      </trkpt>
      <trkpt lat="47.6294" lon="-2.84357">
        <ele>18.7</ele>
        <time>2025-01-28T14:17:37Z</time>
      </trkpt>
      <trkpt lat="47.62941" lon="-2.84356">
        <ele>18.7</ele>
        <time>2025-01-28T14:17:38Z</time>
      </trkpt>
      <trkpt lat="47.62942" lon="-2.84356">
        <ele>18.7</ele>
        <time>2025-01-28T14:17:39Z</time>
      </trkpt>
      <trkpt lat="47.62942" lon="-2.84355">
        <ele>18.7</ele>
        <time>2025-01-28T14:17:40Z</time>
      </trkpt>
      <trkpt lat="47.62943" lon="-2.84355">
        <ele>18.7</ele>
        <time>2025-01-28T14:17:41Z</time>
      </trkpt>
      <trkpt lat="47.62944" lon="-2.84355">
        <ele>18.8</ele>
        <time>2025-01-28T14:17:42Z</time>
      </trkpt>
      <trkpt lat="47.62945" lon="-2.84355">
        <ele>18.8</ele>
        <time>2025-01-28T14:17:43Z</time>
      </trkpt>
      <trkpt lat="47.62945" lon="-2.84354">
        <ele>18.7</ele>
        <time>2025-01-28T14:17:44Z</time>
      </trkpt>
      <trkpt lat="47.62946" lon="-2.84354">
        <ele>18.8</ele>
        <time>2025-01-28T14:17:45Z</time>
      </trkpt>
      <trkpt lat="47.62947" lon="-2.84353">
        <ele>18.7</ele>
        <time>2025-01-28T14:17:46Z</time>
      </trkpt>
      <trkpt lat="47.62948" lon="-2.84352">
        <ele>18.7</ele>
        <time>2025-01-28T14:17:47Z</time>
      </trkpt>
      <trkpt lat="47.62947" lon="-2.84352">
        <ele>18.7</ele>
        <time>2025-01-28T14:17:48Z</time>
      </trkpt>
      <trkpt lat="47.62947" lon="-2.84352">
        <ele>18.7</ele>
        <time>2025-01-28T14:17:49Z</time>
      </trkpt>
      <trkpt lat="47.62947" lon="-2.84352">
        <ele>18.7</ele>
        <time>2025-01-28T14:17:50Z</time>
      </trkpt>
      <trkpt lat="47.62947" lon="-2.84352">
        <ele>18.7</ele>
        <time>2025-01-28T14:17:51Z</time>
      </trkpt>
      <trkpt lat="47.62947" lon="-2.84352">
        <ele>18.7</ele>
        <time>2025-01-28T14:17:52Z</time>
      </trkpt>
      <trkpt lat="47.62947" lon="-2.84352">
        <ele>18.7</ele>
        <time>2025-01-28T14:17:53Z</time>
      </trkpt>
      <trkpt lat="47.62947" lon="-2.84352">
        <ele>18.7</ele>
        <time>2025-01-28T14:17:54Z</time>
      </trkpt>
      <trkpt lat="47.62947" lon="-2.84352">
        <ele>18.7</ele>
        <time>2025-01-28T14:17:55Z</time>
      </trkpt>
      <trkpt lat="47.62947" lon="-2.84352">
        <ele>18.7</ele>
        <time>2025-01-28T14:17:56Z</time>
      </trkpt>
      <trkpt lat="47.62947" lon="-2.84352">
        <ele>18.7</ele>
        <time>2025-01-28T14:17:57Z</time>
      </trkpt>
      <trkpt lat="47.62947" lon="-2.84351">
        <ele>18.6</ele>
        <time>2025-01-28T14:17:58Z</time>
      </trkpt>
      <trkpt lat="47.62948" lon="-2.84346">
        <ele>18.5</ele>
        <time>2025-01-28T14:17:59Z</time>
      </trkpt>
      <trkpt lat="47.62949" lon="-2.84345">
        <ele>18.4</ele>
        <time>2025-01-28T14:18:00Z</time>
      </trkpt>
      <trkpt lat="47.6295" lon="-2.84345">
        <ele>18.4</ele>
        <time>2025-01-28T14:18:01Z</time>
      </trkpt>
      <trkpt lat="47.6295" lon="-2.84344">
        <ele>18.4</ele>
        <time>2025-01-28T14:18:02Z</time>
      </trkpt>
      <trkpt lat="47.62951" lon="-2.84344">
        <ele>18.4</ele>
        <time>2025-01-28T14:18:03Z</time>
      </trkpt>
      <trkpt lat="47.62952" lon="-2.84344">
        <ele>18.4</ele>
        <time>2025-01-28T14:18:04Z</time>
      </trkpt>
      <trkpt lat="47.62952" lon="-2.84343">
        <ele>18.3</ele>
        <time>2025-01-28T14:18:05Z</time>
      </trkpt>
      <trkpt lat="47.62953" lon="-2.84342">
        <ele>18.3</ele>
        <time>2025-01-28T14:18:06Z</time>
      </trkpt>
      <trkpt lat="47.62954" lon="-2.84342">
        <ele>18.3</ele>
        <time>2025-01-28T14:18:07Z</time>
      </trkpt>
      <trkpt lat="47.62955" lon="-2.84341">
        <ele>18.3</ele>
        <time>2025-01-28T14:18:08Z</time>
      </trkpt>
      <trkpt lat="47.62956" lon="-2.84341">
        <ele>18.3</ele>
        <time>2025-01-28T14:18:09Z</time>
      </trkpt>
      <trkpt lat="47.62957" lon="-2.8434">
        <ele>18.2</ele>
        <time>2025-01-28T14:18:10Z</time>
      </trkpt>
      <trkpt lat="47.62958" lon="-2.84339">
        <ele>18.2</ele>
        <time>2025-01-28T14:18:11Z</time>
      </trkpt>
      <trkpt lat="47.62959" lon="-2.84339">
        <ele>18.2</ele>
        <time>2025-01-28T14:18:12Z</time>
      </trkpt>
      <trkpt lat="47.6296" lon="-2.84338">
        <ele>18.2</ele>
        <time>2025-01-28T14:18:13Z</time>
      </trkpt>
      <trkpt lat="47.62961" lon="-2.84338">
        <ele>18.2</ele>
        <time>2025-01-28T14:18:14Z</time>
      </trkpt>
      <trkpt lat="47.62962" lon="-2.84337">
        <ele>18.1</ele>
        <time>2025-01-28T14:18:15Z</time>
      </trkpt>
      <trkpt lat="47.62963" lon="-2.84336">
        <ele>18.1</ele>
        <time>2025-01-28T14:18:16Z</time>
      </trkpt>
      <trkpt lat="47.62964" lon="-2.84335">
        <ele>18.1</ele>
        <time>2025-01-28T14:18:17Z</time>
      </trkpt>
      <trkpt lat="47.62965" lon="-2.84334">
        <ele>18</ele>
        <time>2025-01-28T14:18:18Z</time>
      </trkpt>
      <trkpt lat="47.62966" lon="-2.84334">
        <ele>18</ele>
        <time>2025-01-28T14:18:19Z</time>
      </trkpt>
      <trkpt lat="47.62967" lon="-2.84333">
        <ele>18</ele>
        <time>2025-01-28T14:18:20Z</time>
      </trkpt>
      <trkpt lat="47.62968" lon="-2.84333">
        <ele>18</ele>
        <time>2025-01-28T14:18:21Z</time>
      </trkpt>
      <trkpt lat="47.62969" lon="-2.84332">
        <ele>17.9</ele>
        <time>2025-01-28T14:18:22Z</time>
      </trkpt>
      <trkpt lat="47.6297" lon="-2.84331">
        <ele>17.9</ele>
        <time>2025-01-28T14:18:23Z</time>
      </trkpt>
      <trkpt lat="47.62971" lon="-2.8433">
        <ele>17.9</ele>
        <time>2025-01-28T14:18:24Z</time>
      </trkpt>
      <trkpt lat="47.62972" lon="-2.84329">
        <ele>17.8</ele>
        <time>2025-01-28T14:18:25Z</time>
      </trkpt>
      <trkpt lat="47.62972" lon="-2.84328">
        <ele>17.8</ele>
        <time>2025-01-28T14:18:26Z</time>
      </trkpt>
      <trkpt lat="47.62973" lon="-2.84326">
        <ele>17.8</ele>
        <time>2025-01-28T14:18:27Z</time>
      </trkpt>
      <trkpt lat="47.62974" lon="-2.84325">
        <ele>17.7</ele>
        <time>2025-01-28T14:18:28Z</time>
      </trkpt>
      <trkpt lat="47.62975" lon="-2.84324">
        <ele>17.7</ele>
        <time>2025-01-28T14:18:29Z</time>
      </trkpt>
      <trkpt lat="47.62976" lon="-2.84324">
        <ele>17.6</ele>
        <time>2025-01-28T14:18:30Z</time>
      </trkpt>
      <trkpt lat="47.62976" lon="-2.84322">
        <ele>17.6</ele>
        <time>2025-01-28T14:18:31Z</time>
      </trkpt>
      <trkpt lat="47.62977" lon="-2.84321">
        <ele>17.5</ele>
        <time>2025-01-28T14:18:32Z</time>
      </trkpt>
      <trkpt lat="47.62978" lon="-2.8432">
        <ele>17.5</ele>
        <time>2025-01-28T14:18:33Z</time>
      </trkpt>
      <trkpt lat="47.62979" lon="-2.84319">
        <ele>17.5</ele>
        <time>2025-01-28T14:18:34Z</time>
      </trkpt>
      <trkpt lat="47.6298" lon="-2.84318">
        <ele>17.4</ele>
        <time>2025-01-28T14:18:35Z</time>
      </trkpt>
      <trkpt lat="47.62981" lon="-2.84317">
        <ele>17.4</ele>
        <time>2025-01-28T14:18:36Z</time>
      </trkpt>
      <trkpt lat="47.62982" lon="-2.84317">
        <ele>17.4</ele>
        <time>2025-01-28T14:18:37Z</time>
      </trkpt>
      <trkpt lat="47.62983" lon="-2.84315">
        <ele>17.3</ele>
        <time>2025-01-28T14:18:38Z</time>
      </trkpt>
      <trkpt lat="47.62984" lon="-2.84314">
        <ele>17.3</ele>
        <time>2025-01-28T14:18:39Z</time>
      </trkpt>
      <trkpt lat="47.62985" lon="-2.84313">
        <ele>17.3</ele>
        <time>2025-01-28T14:18:40Z</time>
      </trkpt>
      <trkpt lat="47.62986" lon="-2.84312">
        <ele>17.2</ele>
        <time>2025-01-28T14:18:41Z</time>
      </trkpt>
      <trkpt lat="47.62987" lon="-2.84311">
        <ele>17.2</ele>
        <time>2025-01-28T14:18:42Z</time>
      </trkpt>
      <trkpt lat="47.62987" lon="-2.8431">
        <ele>17.1</ele>
        <time>2025-01-28T14:18:43Z</time>
      </trkpt>
      <trkpt lat="47.62987" lon="-2.84309">
        <ele>17.1</ele>
        <time>2025-01-28T14:18:44Z</time>
      </trkpt>
      <trkpt lat="47.62986" lon="-2.84309">
        <ele>17.1</ele>
        <time>2025-01-28T14:18:45Z</time>
      </trkpt>
      <trkpt lat="47.62986" lon="-2.84309">
        <ele>17.1</ele>
        <time>2025-01-28T14:18:46Z</time>
      </trkpt>
      <trkpt lat="47.62987" lon="-2.84309">
        <ele>17.1</ele>
        <time>2025-01-28T14:18:47Z</time>
      </trkpt>
      <trkpt lat="47.62987" lon="-2.84309">
        <ele>17.1</ele>
        <time>2025-01-28T14:18:48Z</time>
      </trkpt>
      <trkpt lat="47.62988" lon="-2.84308">
        <ele>17.1</ele>
        <time>2025-01-28T14:18:49Z</time>
      </trkpt>
      <trkpt lat="47.62989" lon="-2.84306">
        <ele>17</ele>
        <time>2025-01-28T14:18:50Z</time>
      </trkpt>
      <trkpt lat="47.6299" lon="-2.84305">
        <ele>17</ele>
        <time>2025-01-28T14:18:51Z</time>
      </trkpt>
      <trkpt lat="47.62991" lon="-2.84304">
        <ele>16.9</ele>
        <time>2025-01-28T14:18:52Z</time>
      </trkpt>
      <trkpt lat="47.62992" lon="-2.84303">
        <ele>16.9</ele>
        <time>2025-01-28T14:18:53Z</time>
      </trkpt>
      <trkpt lat="47.62993" lon="-2.84303">
        <ele>16.9</ele>
        <time>2025-01-28T14:18:54Z</time>
      </trkpt>
      <trkpt lat="47.62994" lon="-2.84303">
        <ele>16.9</ele>
        <time>2025-01-28T14:18:55Z</time>
      </trkpt>
      <trkpt lat="47.62995" lon="-2.84301">
        <ele>16.8</ele>
        <time>2025-01-28T14:18:56Z</time>
      </trkpt>
      <trkpt lat="47.62996" lon="-2.843">
        <ele>16.8</ele>
        <time>2025-01-28T14:18:57Z</time>
      </trkpt>
      <trkpt lat="47.62996" lon="-2.84299">
        <ele>16.8</ele>
        <time>2025-01-28T14:18:58Z</time>
      </trkpt>
      <trkpt lat="47.62997" lon="-2.84298">
        <ele>16.7</ele>
        <time>2025-01-28T14:18:59Z</time>
      </trkpt>
      <trkpt lat="47.62998" lon="-2.84297">
        <ele>16.7</ele>
        <time>2025-01-28T14:19:00Z</time>
      </trkpt>
      <trkpt lat="47.62999" lon="-2.84296">
        <ele>16.7</ele>
        <time>2025-01-28T14:19:01Z</time>
      </trkpt>
      <trkpt lat="47.63" lon="-2.84295">
        <ele>16.6</ele>
        <time>2025-01-28T14:19:02Z</time>
      </trkpt>
      <trkpt lat="47.63" lon="-2.84294">
        <ele>16.6</ele>
        <time>2025-01-28T14:19:03Z</time>
      </trkpt>
      <trkpt lat="47.63001" lon="-2.84293">
        <ele>16.6</ele>
        <time>2025-01-28T14:19:04Z</time>
      </trkpt>
      <trkpt lat="47.63002" lon="-2.84291">
        <ele>16.5</ele>
        <time>2025-01-28T14:19:05Z</time>
      </trkpt>
      <trkpt lat="47.63003" lon="-2.8429">
        <ele>16.5</ele>
        <time>2025-01-28T14:19:06Z</time>
      </trkpt>
      <trkpt lat="47.63004" lon="-2.84289">
        <ele>16.5</ele>
        <time>2025-01-28T14:19:07Z</time>
      </trkpt>
      <trkpt lat="47.63004" lon="-2.84287">
        <ele>16.5</ele>
        <time>2025-01-28T14:19:08Z</time>
      </trkpt>
      <trkpt lat="47.63005" lon="-2.84286">
        <ele>16.5</ele>
        <time>2025-01-28T14:19:09Z</time>
      </trkpt>
      <trkpt lat="47.63005" lon="-2.84285">
        <ele>16.5</ele>
        <time>2025-01-28T14:19:10Z</time>
      </trkpt>
      <trkpt lat="47.63006" lon="-2.84284">
        <ele>16.5</ele>
        <time>2025-01-28T14:19:11Z</time>
      </trkpt>
      <trkpt lat="47.63007" lon="-2.84283">
        <ele>16.4</ele>
        <time>2025-01-28T14:19:12Z</time>
      </trkpt>
      <trkpt lat="47.63008" lon="-2.84282">
        <ele>16.4</ele>
        <time>2025-01-28T14:19:13Z</time>
      </trkpt>
      <trkpt lat="47.63009" lon="-2.84281">
        <ele>16.4</ele>
        <time>2025-01-28T14:19:14Z</time>
      </trkpt>
      <trkpt lat="47.63009" lon="-2.84279">
        <ele>16.4</ele>
        <time>2025-01-28T14:19:15Z</time>
      </trkpt>
      <trkpt lat="47.6301" lon="-2.84278">
        <ele>16.4</ele>
        <time>2025-01-28T14:19:16Z</time>
      </trkpt>
      <trkpt lat="47.63011" lon="-2.84277">
        <ele>16.4</ele>
        <time>2025-01-28T14:19:17Z</time>
      </trkpt>
      <trkpt lat="47.63012" lon="-2.84276">
        <ele>16.3</ele>
        <time>2025-01-28T14:19:18Z</time>
      </trkpt>
      <trkpt lat="47.63013" lon="-2.84275">
        <ele>16.3</ele>
        <time>2025-01-28T14:19:19Z</time>
      </trkpt>
      <trkpt lat="47.63014" lon="-2.84274">
        <ele>16.3</ele>
        <time>2025-01-28T14:19:20Z</time>
      </trkpt>
      <trkpt lat="47.63015" lon="-2.84273">
        <ele>16.2</ele>
        <time>2025-01-28T14:19:21Z</time>
      </trkpt>
      <trkpt lat="47.63015" lon="-2.84272">
        <ele>16.2</ele>
        <time>2025-01-28T14:19:22Z</time>
      </trkpt>
      <trkpt lat="47.63016" lon="-2.84271">
        <ele>16.2</ele>
        <time>2025-01-28T14:19:23Z</time>
      </trkpt>
      <trkpt lat="47.63017" lon="-2.8427">
        <ele>16.1</ele>
        <time>2025-01-28T14:19:24Z</time>
      </trkpt>
      <trkpt lat="47.63017" lon="-2.84268">
        <ele>16.1</ele>
        <time>2025-01-28T14:19:25Z</time>
      </trkpt>
      <trkpt lat="47.63018" lon="-2.84267">
        <ele>16</ele>
        <time>2025-01-28T14:19:26Z</time>
      </trkpt>
      <trkpt lat="47.63018" lon="-2.84265">
        <ele>15.9</ele>
        <time>2025-01-28T14:19:27Z</time>
      </trkpt>
      <trkpt lat="47.63019" lon="-2.84264">
        <ele>15.9</ele>
        <time>2025-01-28T14:19:28Z</time>
      </trkpt>
      <trkpt lat="47.6302" lon="-2.84263">
        <ele>15.8</ele>
        <time>2025-01-28T14:19:29Z</time>
      </trkpt>
      <trkpt lat="47.6302" lon="-2.84262">
        <ele>15.7</ele>
        <time>2025-01-28T14:19:30Z</time>
      </trkpt>
      <trkpt lat="47.63021" lon="-2.8426">
        <ele>15.6</ele>
        <time>2025-01-28T14:19:31Z</time>
      </trkpt>
      <trkpt lat="47.63022" lon="-2.84259">
        <ele>15.6</ele>
        <time>2025-01-28T14:19:32Z</time>
      </trkpt>
      <trkpt lat="47.63023" lon="-2.84258">
        <ele>15.5</ele>
        <time>2025-01-28T14:19:33Z</time>
      </trkpt>
      <trkpt lat="47.63024" lon="-2.84257">
        <ele>15.5</ele>
        <time>2025-01-28T14:19:34Z</time>
      </trkpt>
      <trkpt lat="47.63024" lon="-2.84256">
        <ele>15.4</ele>
        <time>2025-01-28T14:19:35Z</time>
      </trkpt>
      <trkpt lat="47.63025" lon="-2.84255">
        <ele>15.3</ele>
        <time>2025-01-28T14:19:36Z</time>
      </trkpt>
      <trkpt lat="47.63026" lon="-2.84253">
        <ele>15.2</ele>
        <time>2025-01-28T14:19:37Z</time>
      </trkpt>
      <trkpt lat="47.63026" lon="-2.84252">
        <ele>15.1</ele>
        <time>2025-01-28T14:19:38Z</time>
      </trkpt>
      <trkpt lat="47.63028" lon="-2.8425">
        <ele>15</ele>
        <time>2025-01-28T14:19:39Z</time>
      </trkpt>
      <trkpt lat="47.63029" lon="-2.84249">
        <ele>15</ele>
        <time>2025-01-28T14:19:40Z</time>
      </trkpt>
      <trkpt lat="47.6303" lon="-2.84248">
        <ele>14.9</ele>
        <time>2025-01-28T14:19:41Z</time>
      </trkpt>
      <trkpt lat="47.63031" lon="-2.84246">
        <ele>14.9</ele>
        <time>2025-01-28T14:19:42Z</time>
      </trkpt>
      <trkpt lat="47.63031" lon="-2.84245">
        <ele>14.9</ele>
        <time>2025-01-28T14:19:43Z</time>
      </trkpt>
      <trkpt lat="47.63032" lon="-2.84244">
        <ele>14.8</ele>
        <time>2025-01-28T14:19:44Z</time>
      </trkpt>
      <trkpt lat="47.63033" lon="-2.84243">
        <ele>14.8</ele>
        <time>2025-01-28T14:19:45Z</time>
      </trkpt>
      <trkpt lat="47.63034" lon="-2.84242">
        <ele>14.8</ele>
        <time>2025-01-28T14:19:46Z</time>
      </trkpt>
      <trkpt lat="47.63034" lon="-2.8424">
        <ele>14.8</ele>
        <time>2025-01-28T14:19:47Z</time>
      </trkpt>
      <trkpt lat="47.63035" lon="-2.84239">
        <ele>14.7</ele>
        <time>2025-01-28T14:19:48Z</time>
      </trkpt>
      <trkpt lat="47.63036" lon="-2.84238">
        <ele>14.7</ele>
        <time>2025-01-28T14:19:49Z</time>
      </trkpt>
      <trkpt lat="47.63037" lon="-2.84236">
        <ele>14.7</ele>
        <time>2025-01-28T14:19:50Z</time>
      </trkpt>
      <trkpt lat="47.63037" lon="-2.84235">
        <ele>14.7</ele>
        <time>2025-01-28T14:19:51Z</time>
      </trkpt>
      <trkpt lat="47.63039" lon="-2.84236">
        <ele>14.6</ele>
        <time>2025-01-28T14:19:52Z</time>
      </trkpt>
      <trkpt lat="47.6304" lon="-2.84235">
        <ele>14.6</ele>
        <time>2025-01-28T14:19:53Z</time>
      </trkpt>
      <trkpt lat="47.63041" lon="-2.84233">
        <ele>14.5</ele>
        <time>2025-01-28T14:19:54Z</time>
      </trkpt>
      <trkpt lat="47.63041" lon="-2.84232">
        <ele>14.5</ele>
        <time>2025-01-28T14:19:55Z</time>
      </trkpt>
      <trkpt lat="47.63042" lon="-2.84231">
        <ele>14.5</ele>
        <time>2025-01-28T14:19:56Z</time>
      </trkpt>
      <trkpt lat="47.63043" lon="-2.8423">
        <ele>14.5</ele>
        <time>2025-01-28T14:19:57Z</time>
      </trkpt>
      <trkpt lat="47.63044" lon="-2.84229">
        <ele>14.4</ele>
        <time>2025-01-28T14:19:58Z</time>
      </trkpt>
      <trkpt lat="47.63044" lon="-2.84228">
        <ele>14.4</ele>
        <time>2025-01-28T14:19:59Z</time>
      </trkpt>
      <trkpt lat="47.63045" lon="-2.84227">
        <ele>14.4</ele>
        <time>2025-01-28T14:20:00Z</time>
      </trkpt>
      <trkpt lat="47.63046" lon="-2.84226">
        <ele>14.3</ele>
        <time>2025-01-28T14:20:01Z</time>
      </trkpt>
      <trkpt lat="47.63047" lon="-2.84224">
        <ele>14.3</ele>
        <time>2025-01-28T14:20:02Z</time>
      </trkpt>
      <trkpt lat="47.63047" lon="-2.84223">
        <ele>14.3</ele>
        <time>2025-01-28T14:20:03Z</time>
      </trkpt>
      <trkpt lat="47.63048" lon="-2.84221">
        <ele>14.3</ele>
        <time>2025-01-28T14:20:04Z</time>
      </trkpt>
      <trkpt lat="47.63049" lon="-2.8422">
        <ele>14.2</ele>
        <time>2025-01-28T14:20:05Z</time>
      </trkpt>
      <trkpt lat="47.6305" lon="-2.84219">
        <ele>14.2</ele>
        <time>2025-01-28T14:20:06Z</time>
      </trkpt>
      <trkpt lat="47.6305" lon="-2.84217">
        <ele>14.2</ele>
        <time>2025-01-28T14:20:07Z</time>
      </trkpt>
      <trkpt lat="47.63051" lon="-2.84215">
        <ele>14.2</ele>
        <time>2025-01-28T14:20:08Z</time>
      </trkpt>
      <trkpt lat="47.63052" lon="-2.84214">
        <ele>14.1</ele>
        <time>2025-01-28T14:20:09Z</time>
      </trkpt>
      <trkpt lat="47.63052" lon="-2.84213">
        <ele>14.1</ele>
        <time>2025-01-28T14:20:10Z</time>
      </trkpt>
      <trkpt lat="47.63053" lon="-2.84211">
        <ele>14.1</ele>
        <time>2025-01-28T14:20:11Z</time>
      </trkpt>
      <trkpt lat="47.63054" lon="-2.8421">
        <ele>14</ele>
        <time>2025-01-28T14:20:12Z</time>
      </trkpt>
      <trkpt lat="47.63055" lon="-2.84209">
        <ele>14</ele>
        <time>2025-01-28T14:20:13Z</time>
      </trkpt>
      <trkpt lat="47.63056" lon="-2.84208">
        <ele>14</ele>
        <time>2025-01-28T14:20:14Z</time>
      </trkpt>
      <trkpt lat="47.63057" lon="-2.84207">
        <ele>13.9</ele>
        <time>2025-01-28T14:20:15Z</time>
      </trkpt>
      <trkpt lat="47.63058" lon="-2.84206">
        <ele>13.9</ele>
        <time>2025-01-28T14:20:16Z</time>
      </trkpt>
      <trkpt lat="47.63059" lon="-2.84205">
        <ele>13.9</ele>
        <time>2025-01-28T14:20:17Z</time>
      </trkpt>
      <trkpt lat="47.63059" lon="-2.84204">
        <ele>13.9</ele>
        <time>2025-01-28T14:20:18Z</time>
      </trkpt>
      <trkpt lat="47.6306" lon="-2.84203">
        <ele>13.8</ele>
        <time>2025-01-28T14:20:19Z</time>
      </trkpt>
      <trkpt lat="47.63061" lon="-2.84202">
        <ele>13.8</ele>
        <time>2025-01-28T14:20:20Z</time>
      </trkpt>
      <trkpt lat="47.63062" lon="-2.84201">
        <ele>13.8</ele>
        <time>2025-01-28T14:20:21Z</time>
      </trkpt>
      <trkpt lat="47.63063" lon="-2.84199">
        <ele>13.7</ele>
        <time>2025-01-28T14:20:22Z</time>
      </trkpt>
      <trkpt lat="47.63064" lon="-2.84198">
        <ele>13.7</ele>
        <time>2025-01-28T14:20:23Z</time>
      </trkpt>
      <trkpt lat="47.63064" lon="-2.84196">
        <ele>13.7</ele>
        <time>2025-01-28T14:20:24Z</time>
      </trkpt>
      <trkpt lat="47.63065" lon="-2.84194">
        <ele>13.7</ele>
        <time>2025-01-28T14:20:25Z</time>
      </trkpt>
      <trkpt lat="47.63066" lon="-2.84193">
        <ele>13.7</ele>
        <time>2025-01-28T14:20:26Z</time>
      </trkpt>
      <trkpt lat="47.63067" lon="-2.84191">
        <ele>13.8</ele>
        <time>2025-01-28T14:20:27Z</time>
      </trkpt>
      <trkpt lat="47.63067" lon="-2.8419">
        <ele>13.8</ele>
        <time>2025-01-28T14:20:28Z</time>
      </trkpt>
      <trkpt lat="47.63068" lon="-2.84189">
        <ele>13.8</ele>
        <time>2025-01-28T14:20:29Z</time>
      </trkpt>
      <trkpt lat="47.63069" lon="-2.84188">
        <ele>13.9</ele>
        <time>2025-01-28T14:20:30Z</time>
      </trkpt>
      <trkpt lat="47.6307" lon="-2.84187">
        <ele>13.9</ele>
        <time>2025-01-28T14:20:31Z</time>
      </trkpt>
      <trkpt lat="47.63071" lon="-2.84186">
        <ele>13.9</ele>
        <time>2025-01-28T14:20:32Z</time>
      </trkpt>
      <trkpt lat="47.63072" lon="-2.84185">
        <ele>13.9</ele>
        <time>2025-01-28T14:20:33Z</time>
      </trkpt>
      <trkpt lat="47.63073" lon="-2.84183">
        <ele>14</ele>
        <time>2025-01-28T14:20:34Z</time>
      </trkpt>
      <trkpt lat="47.63074" lon="-2.84182">
        <ele>14.1</ele>
        <time>2025-01-28T14:20:35Z</time>
      </trkpt>
      <trkpt lat="47.63074" lon="-2.8418">
        <ele>14.2</ele>
        <time>2025-01-28T14:20:36Z</time>
      </trkpt>
      <trkpt lat="47.63075" lon="-2.84179">
        <ele>14.2</ele>
        <time>2025-01-28T14:20:37Z</time>
      </trkpt>
      <trkpt lat="47.63076" lon="-2.84178">
        <ele>14.3</ele>
        <time>2025-01-28T14:20:38Z</time>
      </trkpt>
      <trkpt lat="47.63076" lon="-2.84177">
        <ele>14.4</ele>
        <time>2025-01-28T14:20:39Z</time>
      </trkpt>
      <trkpt lat="47.63077" lon="-2.84175">
        <ele>14.5</ele>
        <time>2025-01-28T14:20:40Z</time>
      </trkpt>
      <trkpt lat="47.63077" lon="-2.84174">
        <ele>14.6</ele>
        <time>2025-01-28T14:20:41Z</time>
      </trkpt>
      <trkpt lat="47.63078" lon="-2.84173">
        <ele>14.6</ele>
        <time>2025-01-28T14:20:42Z</time>
      </trkpt>
      <trkpt lat="47.63079" lon="-2.84172">
        <ele>14.7</ele>
        <time>2025-01-28T14:20:43Z</time>
      </trkpt>
      <trkpt lat="47.6308" lon="-2.8417">
        <ele>14.8</ele>
        <time>2025-01-28T14:20:44Z</time>
      </trkpt>
      <trkpt lat="47.6308" lon="-2.84169">
        <ele>14.8</ele>
        <time>2025-01-28T14:20:45Z</time>
      </trkpt>
      <trkpt lat="47.63081" lon="-2.84168">
        <ele>14.9</ele>
        <time>2025-01-28T14:20:46Z</time>
      </trkpt>
      <trkpt lat="47.63081" lon="-2.84166">
        <ele>15</ele>
        <time>2025-01-28T14:20:47Z</time>
      </trkpt>
      <trkpt lat="47.63082" lon="-2.84165">
        <ele>15</ele>
        <time>2025-01-28T14:20:48Z</time>
      </trkpt>
      <trkpt lat="47.63082" lon="-2.84165">
        <ele>15</ele>
        <time>2025-01-28T14:20:49Z</time>
      </trkpt>
      <trkpt lat="47.63082" lon="-2.84164">
        <ele>15</ele>
        <time>2025-01-28T14:20:50Z</time>
      </trkpt>
      <trkpt lat="47.63083" lon="-2.84163">
        <ele>15</ele>
        <time>2025-01-28T14:20:51Z</time>
      </trkpt>
      <trkpt lat="47.63084" lon="-2.84162">
        <ele>15</ele>
        <time>2025-01-28T14:20:52Z</time>
      </trkpt>
      <trkpt lat="47.63085" lon="-2.84161">
        <ele>15.1</ele>
        <time>2025-01-28T14:20:53Z</time>
      </trkpt>
      <trkpt lat="47.63085" lon="-2.84159">
        <ele>15.1</ele>
        <time>2025-01-28T14:20:54Z</time>
      </trkpt>
      <trkpt lat="47.63086" lon="-2.84159">
        <ele>15.2</ele>
        <time>2025-01-28T14:20:55Z</time>
      </trkpt>
      <trkpt lat="47.63087" lon="-2.84158">
        <ele>15.2</ele>
        <time>2025-01-28T14:20:56Z</time>
      </trkpt>
      <trkpt lat="47.63087" lon="-2.84156">
        <ele>15.3</ele>
        <time>2025-01-28T14:20:57Z</time>
      </trkpt>
      <trkpt lat="47.63088" lon="-2.84155">
        <ele>15.3</ele>
        <time>2025-01-28T14:20:58Z</time>
      </trkpt>
      <trkpt lat="47.63089" lon="-2.84154">
        <ele>15.4</ele>
        <time>2025-01-28T14:20:59Z</time>
      </trkpt>
      <trkpt lat="47.63089" lon="-2.84153">
        <ele>15.4</ele>
        <time>2025-01-28T14:21:00Z</time>
      </trkpt>
      <trkpt lat="47.6309" lon="-2.84152">
        <ele>15.5</ele>
        <time>2025-01-28T14:21:01Z</time>
      </trkpt>
      <trkpt lat="47.63091" lon="-2.84151">
        <ele>15.5</ele>
        <time>2025-01-28T14:21:02Z</time>
      </trkpt>
      <trkpt lat="47.63092" lon="-2.84151">
        <ele>15.6</ele>
        <time>2025-01-28T14:21:03Z</time>
      </trkpt>
      <trkpt lat="47.63092" lon="-2.8415">
        <ele>15.6</ele>
        <time>2025-01-28T14:21:04Z</time>
      </trkpt>
      <trkpt lat="47.63093" lon="-2.84149">
        <ele>15.7</ele>
        <time>2025-01-28T14:21:05Z</time>
      </trkpt>
      <trkpt lat="47.63094" lon="-2.84148">
        <ele>15.7</ele>
        <time>2025-01-28T14:21:06Z</time>
      </trkpt>
      <trkpt lat="47.63095" lon="-2.84147">
        <ele>15.8</ele>
        <time>2025-01-28T14:21:07Z</time>
      </trkpt>
      <trkpt lat="47.63095" lon="-2.84146">
        <ele>15.9</ele>
        <time>2025-01-28T14:21:08Z</time>
      </trkpt>
      <trkpt lat="47.63096" lon="-2.84145">
        <ele>15.9</ele>
        <time>2025-01-28T14:21:09Z</time>
      </trkpt>
      <trkpt lat="47.63097" lon="-2.84144">
        <ele>16</ele>
        <time>2025-01-28T14:21:10Z</time>
      </trkpt>
      <trkpt lat="47.63098" lon="-2.84143">
        <ele>16</ele>
        <time>2025-01-28T14:21:11Z</time>
      </trkpt>
      <trkpt lat="47.63099" lon="-2.84142">
        <ele>16.1</ele>
        <time>2025-01-28T14:21:12Z</time>
      </trkpt>
      <trkpt lat="47.63099" lon="-2.84141">
        <ele>16.1</ele>
        <time>2025-01-28T14:21:13Z</time>
      </trkpt>
      <trkpt lat="47.631" lon="-2.8414">
        <ele>16.2</ele>
        <time>2025-01-28T14:21:14Z</time>
      </trkpt>
      <trkpt lat="47.63101" lon="-2.84139">
        <ele>16.3</ele>
        <time>2025-01-28T14:21:15Z</time>
      </trkpt>
      <trkpt lat="47.63102" lon="-2.84138">
        <ele>16.4</ele>
        <time>2025-01-28T14:21:16Z</time>
      </trkpt>
      <trkpt lat="47.63103" lon="-2.84137">
        <ele>16.4</ele>
        <time>2025-01-28T14:21:17Z</time>
      </trkpt>
      <trkpt lat="47.63104" lon="-2.84136">
        <ele>16.5</ele>
        <time>2025-01-28T14:21:18Z</time>
      </trkpt>
      <trkpt lat="47.63105" lon="-2.84135">
        <ele>16.6</ele>
        <time>2025-01-28T14:21:19Z</time>
      </trkpt>
      <trkpt lat="47.63106" lon="-2.84133">
        <ele>16.6</ele>
        <time>2025-01-28T14:21:20Z</time>
      </trkpt>
      <trkpt lat="47.63107" lon="-2.84132">
        <ele>16.7</ele>
        <time>2025-01-28T14:21:21Z</time>
      </trkpt>
      <trkpt lat="47.63107" lon="-2.84131">
        <ele>16.7</ele>
        <time>2025-01-28T14:21:22Z</time>
      </trkpt>
      <trkpt lat="47.63108" lon="-2.84129">
        <ele>16.8</ele>
        <time>2025-01-28T14:21:23Z</time>
      </trkpt>
      <trkpt lat="47.63109" lon="-2.84128">
        <ele>16.8</ele>
        <time>2025-01-28T14:21:24Z</time>
      </trkpt>
      <trkpt lat="47.6311" lon="-2.84126">
        <ele>16.9</ele>
        <time>2025-01-28T14:21:25Z</time>
      </trkpt>
      <trkpt lat="47.63111" lon="-2.84125">
        <ele>17</ele>
        <time>2025-01-28T14:21:26Z</time>
      </trkpt>
      <trkpt lat="47.63112" lon="-2.84124">
        <ele>17</ele>
        <time>2025-01-28T14:21:27Z</time>
      </trkpt>
      <trkpt lat="47.63113" lon="-2.84123">
        <ele>17.1</ele>
        <time>2025-01-28T14:21:28Z</time>
      </trkpt>
      <trkpt lat="47.63114" lon="-2.84122">
        <ele>17.2</ele>
        <time>2025-01-28T14:21:29Z</time>
      </trkpt>
      <trkpt lat="47.63115" lon="-2.84121">
        <ele>17.3</ele>
        <time>2025-01-28T14:21:30Z</time>
      </trkpt>
      <trkpt lat="47.63116" lon="-2.8412">
        <ele>17.4</ele>
        <time>2025-01-28T14:21:31Z</time>
      </trkpt>
      <trkpt lat="47.63117" lon="-2.84119">
        <ele>17.4</ele>
        <time>2025-01-28T14:21:32Z</time>
      </trkpt>
      <trkpt lat="47.63118" lon="-2.84117">
        <ele>17.5</ele>
        <time>2025-01-28T14:21:33Z</time>
      </trkpt>
      <trkpt lat="47.63118" lon="-2.84115">
        <ele>17.5</ele>
        <time>2025-01-28T14:21:34Z</time>
      </trkpt>
      <trkpt lat="47.63119" lon="-2.84114">
        <ele>17.6</ele>
        <time>2025-01-28T14:21:35Z</time>
      </trkpt>
      <trkpt lat="47.6312" lon="-2.84113">
        <ele>17.6</ele>
        <time>2025-01-28T14:21:36Z</time>
      </trkpt>
      <trkpt lat="47.63121" lon="-2.84112">
        <ele>17.7</ele>
        <time>2025-01-28T14:21:37Z</time>
      </trkpt>
      <trkpt lat="47.63122" lon="-2.84111">
        <ele>17.8</ele>
        <time>2025-01-28T14:21:38Z</time>
      </trkpt>
      <trkpt lat="47.63123" lon="-2.8411">
        <ele>17.8</ele>
        <time>2025-01-28T14:21:39Z</time>
      </trkpt>
      <trkpt lat="47.63123" lon="-2.84109">
        <ele>17.9</ele>
        <time>2025-01-28T14:21:40Z</time>
      </trkpt>
      <trkpt lat="47.63124" lon="-2.84108">
        <ele>17.9</ele>
        <time>2025-01-28T14:21:41Z</time>
      </trkpt>
      <trkpt lat="47.63125" lon="-2.84106">
        <ele>18</ele>
        <time>2025-01-28T14:21:42Z</time>
      </trkpt>
      <trkpt lat="47.63126" lon="-2.84105">
        <ele>18.1</ele>
        <time>2025-01-28T14:21:43Z</time>
      </trkpt>
      <trkpt lat="47.63127" lon="-2.84103">
        <ele>18.1</ele>
        <time>2025-01-28T14:21:44Z</time>
      </trkpt>
      <trkpt lat="47.63128" lon="-2.84102">
        <ele>18.2</ele>
        <time>2025-01-28T14:21:45Z</time>
      </trkpt>
      <trkpt lat="47.63128" lon="-2.84101">
        <ele>18.2</ele>
        <time>2025-01-28T14:21:46Z</time>
      </trkpt>
      <trkpt lat="47.63129" lon="-2.841">
        <ele>18.3</ele>
        <time>2025-01-28T14:21:47Z</time>
      </trkpt>
      <trkpt lat="47.6313" lon="-2.84098">
        <ele>18.4</ele>
        <time>2025-01-28T14:21:48Z</time>
      </trkpt>
      <trkpt lat="47.63131" lon="-2.84097">
        <ele>18.4</ele>
        <time>2025-01-28T14:21:49Z</time>
      </trkpt>
      <trkpt lat="47.63132" lon="-2.84095">
        <ele>18.5</ele>
        <time>2025-01-28T14:21:50Z</time>
      </trkpt>
      <trkpt lat="47.63132" lon="-2.84093">
        <ele>18.5</ele>
        <time>2025-01-28T14:21:51Z</time>
      </trkpt>
      <trkpt lat="47.63133" lon="-2.84092">
        <ele>18.6</ele>
        <time>2025-01-28T14:21:52Z</time>
      </trkpt>
      <trkpt lat="47.63134" lon="-2.8409">
        <ele>18.6</ele>
        <time>2025-01-28T14:21:53Z</time>
      </trkpt>
      <trkpt lat="47.63135" lon="-2.84089">
        <ele>18.7</ele>
        <time>2025-01-28T14:21:54Z</time>
      </trkpt>
      <trkpt lat="47.63136" lon="-2.84087">
        <ele>18.8</ele>
        <time>2025-01-28T14:21:55Z</time>
      </trkpt>
      <trkpt lat="47.63136" lon="-2.84086">
        <ele>18.8</ele>
        <time>2025-01-28T14:21:56Z</time>
      </trkpt>
      <trkpt lat="47.63137" lon="-2.84085">
        <ele>18.9</ele>
        <time>2025-01-28T14:21:57Z</time>
      </trkpt>
      <trkpt lat="47.63138" lon="-2.84083">
        <ele>18.9</ele>
        <time>2025-01-28T14:21:58Z</time>
      </trkpt>
      <trkpt lat="47.63139" lon="-2.84082">
        <ele>19</ele>
        <time>2025-01-28T14:21:59Z</time>
      </trkpt>
      <trkpt lat="47.6314" lon="-2.84081">
        <ele>19.1</ele>
        <time>2025-01-28T14:22:00Z</time>
      </trkpt>
      <trkpt lat="47.63141" lon="-2.8408">
        <ele>19.2</ele>
        <time>2025-01-28T14:22:01Z</time>
      </trkpt>
      <trkpt lat="47.63141" lon="-2.84079">
        <ele>19.2</ele>
        <time>2025-01-28T14:22:02Z</time>
      </trkpt>
      <trkpt lat="47.63142" lon="-2.84077">
        <ele>19.3</ele>
        <time>2025-01-28T14:22:03Z</time>
      </trkpt>
      <trkpt lat="47.63143" lon="-2.84076">
        <ele>19.4</ele>
        <time>2025-01-28T14:22:04Z</time>
      </trkpt>
      <trkpt lat="47.63143" lon="-2.84074">
        <ele>19.5</ele>
        <time>2025-01-28T14:22:05Z</time>
      </trkpt>
      <trkpt lat="47.63143" lon="-2.84072">
        <ele>19.5</ele>
        <time>2025-01-28T14:22:06Z</time>
      </trkpt>
      <trkpt lat="47.63143" lon="-2.84071">
        <ele>19.5</ele>
        <time>2025-01-28T14:22:07Z</time>
      </trkpt>
      <trkpt lat="47.63144" lon="-2.84069">
        <ele>19.5</ele>
        <time>2025-01-28T14:22:08Z</time>
      </trkpt>
      <trkpt lat="47.63144" lon="-2.84067">
        <ele>19.6</ele>
        <time>2025-01-28T14:22:09Z</time>
      </trkpt>
      <trkpt lat="47.63144" lon="-2.84066">
        <ele>19.6</ele>
        <time>2025-01-28T14:22:10Z</time>
      </trkpt>
      <trkpt lat="47.63145" lon="-2.84064">
        <ele>19.6</ele>
        <time>2025-01-28T14:22:11Z</time>
      </trkpt>
      <trkpt lat="47.63145" lon="-2.84062">
        <ele>19.6</ele>
        <time>2025-01-28T14:22:12Z</time>
      </trkpt>
      <trkpt lat="47.63144" lon="-2.84061">
        <ele>19.6</ele>
        <time>2025-01-28T14:22:13Z</time>
      </trkpt>
      <trkpt lat="47.63144" lon="-2.84059">
        <ele>19.5</ele>
        <time>2025-01-28T14:22:14Z</time>
      </trkpt>
      <trkpt lat="47.63144" lon="-2.84058">
        <ele>19.5</ele>
        <time>2025-01-28T14:22:15Z</time>
      </trkpt>
      <trkpt lat="47.63143" lon="-2.84056">
        <ele>19.4</ele>
        <time>2025-01-28T14:22:16Z</time>
      </trkpt>
      <trkpt lat="47.63143" lon="-2.84054">
        <ele>19.4</ele>
        <time>2025-01-28T14:22:17Z</time>
      </trkpt>
      <trkpt lat="47.63142" lon="-2.84053">
        <ele>19.4</ele>
        <time>2025-01-28T14:22:18Z</time>
      </trkpt>
      <trkpt lat="47.63141" lon="-2.84051">
        <ele>19.4</ele>
        <time>2025-01-28T14:22:19Z</time>
      </trkpt>
      <trkpt lat="47.63141" lon="-2.84049">
        <ele>19.4</ele>
        <time>2025-01-28T14:22:20Z</time>
      </trkpt>
      <trkpt lat="47.6314" lon="-2.84048">
        <ele>19.4</ele>
        <time>2025-01-28T14:22:21Z</time>
      </trkpt>
      <trkpt lat="47.6314" lon="-2.84046">
        <ele>19.4</ele>
        <time>2025-01-28T14:22:22Z</time>
      </trkpt>
      <trkpt lat="47.63139" lon="-2.84045">
        <ele>19.4</ele>
        <time>2025-01-28T14:22:23Z</time>
      </trkpt>
      <trkpt lat="47.63138" lon="-2.84043">
        <ele>19.4</ele>
        <time>2025-01-28T14:22:24Z</time>
      </trkpt>
      <trkpt lat="47.63137" lon="-2.84042">
        <ele>19.3</ele>
        <time>2025-01-28T14:22:25Z</time>
      </trkpt>
      <trkpt lat="47.63137" lon="-2.8404">
        <ele>19.3</ele>
        <time>2025-01-28T14:22:26Z</time>
      </trkpt>
      <trkpt lat="47.63136" lon="-2.84039">
        <ele>19.3</ele>
        <time>2025-01-28T14:22:27Z</time>
      </trkpt>
      <trkpt lat="47.63135" lon="-2.84037">
        <ele>19.3</ele>
        <time>2025-01-28T14:22:28Z</time>
      </trkpt>
      <trkpt lat="47.63134" lon="-2.84035">
        <ele>19.3</ele>
        <time>2025-01-28T14:22:29Z</time>
      </trkpt>
      <trkpt lat="47.63133" lon="-2.84034">
        <ele>19.2</ele>
        <time>2025-01-28T14:22:30Z</time>
      </trkpt>
      <trkpt lat="47.63133" lon="-2.84032">
        <ele>19.2</ele>
        <time>2025-01-28T14:22:31Z</time>
      </trkpt>
      <trkpt lat="47.63133" lon="-2.8403">
        <ele>19.3</ele>
        <time>2025-01-28T14:22:32Z</time>
      </trkpt>
      <trkpt lat="47.63132" lon="-2.84028">
        <ele>19.3</ele>
        <time>2025-01-28T14:22:33Z</time>
      </trkpt>
      <trkpt lat="47.63132" lon="-2.84026">
        <ele>19.2</ele>
        <time>2025-01-28T14:22:34Z</time>
      </trkpt>
      <trkpt lat="47.63131" lon="-2.84025">
        <ele>19.1</ele>
        <time>2025-01-28T14:22:35Z</time>
      </trkpt>
      <trkpt lat="47.6313" lon="-2.84023">
        <ele>19.1</ele>
        <time>2025-01-28T14:22:36Z</time>
      </trkpt>
      <trkpt lat="47.63129" lon="-2.84022">
        <ele>19</ele>
        <time>2025-01-28T14:22:37Z</time>
      </trkpt>
      <trkpt lat="47.63129" lon="-2.8402">
        <ele>18.9</ele>
        <time>2025-01-28T14:22:38Z</time>
      </trkpt>
      <trkpt lat="47.63128" lon="-2.84018">
        <ele>18.8</ele>
        <time>2025-01-28T14:22:39Z</time>
      </trkpt>
      <trkpt lat="47.63127" lon="-2.84017">
        <ele>18.7</ele>
        <time>2025-01-28T14:22:40Z</time>
      </trkpt>
      <trkpt lat="47.63126" lon="-2.84016">
        <ele>18.6</ele>
        <time>2025-01-28T14:22:41Z</time>
      </trkpt>
      <trkpt lat="47.63125" lon="-2.84014">
        <ele>18.4</ele>
        <time>2025-01-28T14:22:42Z</time>
      </trkpt>
      <trkpt lat="47.63124" lon="-2.84013">
        <ele>18.3</ele>
        <time>2025-01-28T14:22:43Z</time>
      </trkpt>
      <trkpt lat="47.63123" lon="-2.84012">
        <ele>18.3</ele>
        <time>2025-01-28T14:22:44Z</time>
      </trkpt>
      <trkpt lat="47.63122" lon="-2.8401">
        <ele>18.2</ele>
        <time>2025-01-28T14:22:45Z</time>
      </trkpt>
      <trkpt lat="47.63121" lon="-2.84009">
        <ele>18.1</ele>
        <time>2025-01-28T14:22:46Z</time>
      </trkpt>
      <trkpt lat="47.63121" lon="-2.84007">
        <ele>18.1</ele>
        <time>2025-01-28T14:22:47Z</time>
      </trkpt>
      <trkpt lat="47.63121" lon="-2.84005">
        <ele>18.1</ele>
        <time>2025-01-28T14:22:48Z</time>
      </trkpt>
      <trkpt lat="47.63121" lon="-2.84004">
        <ele>18</ele>
        <time>2025-01-28T14:22:49Z</time>
      </trkpt>
      <trkpt lat="47.63121" lon="-2.84002">
        <ele>18</ele>
        <time>2025-01-28T14:22:50Z</time>
      </trkpt>
      <trkpt lat="47.6312" lon="-2.84">
        <ele>18</ele>
        <time>2025-01-28T14:22:51Z</time>
      </trkpt>
      <trkpt lat="47.63119" lon="-2.83999">
        <ele>17.9</ele>
        <time>2025-01-28T14:22:52Z</time>
      </trkpt>
      <trkpt lat="47.63119" lon="-2.83997">
        <ele>17.9</ele>
        <time>2025-01-28T14:22:53Z</time>
      </trkpt>
      <trkpt lat="47.63118" lon="-2.83996">
        <ele>17.9</ele>
        <time>2025-01-28T14:22:54Z</time>
      </trkpt>
      <trkpt lat="47.63117" lon="-2.83994">
        <ele>17.9</ele>
        <time>2025-01-28T14:22:55Z</time>
      </trkpt>
      <trkpt lat="47.63116" lon="-2.83992">
        <ele>17.8</ele>
        <time>2025-01-28T14:22:56Z</time>
      </trkpt>
      <trkpt lat="47.63116" lon="-2.83991">
        <ele>17.8</ele>
        <time>2025-01-28T14:22:57Z</time>
      </trkpt>
      <trkpt lat="47.63115" lon="-2.83989">
        <ele>17.8</ele>
        <time>2025-01-28T14:22:58Z</time>
      </trkpt>
      <trkpt lat="47.63114" lon="-2.83988">
        <ele>17.8</ele>
        <time>2025-01-28T14:22:59Z</time>
      </trkpt>
      <trkpt lat="47.63113" lon="-2.83986">
        <ele>17.7</ele>
        <time>2025-01-28T14:23:00Z</time>
      </trkpt>
      <trkpt lat="47.63113" lon="-2.83984">
        <ele>17.7</ele>
        <time>2025-01-28T14:23:01Z</time>
      </trkpt>
      <trkpt lat="47.63112" lon="-2.83983">
        <ele>17.7</ele>
        <time>2025-01-28T14:23:02Z</time>
      </trkpt>
      <trkpt lat="47.63112" lon="-2.83981">
        <ele>17.8</ele>
        <time>2025-01-28T14:23:03Z</time>
      </trkpt>
      <trkpt lat="47.63111" lon="-2.83979">
        <ele>17.8</ele>
        <time>2025-01-28T14:23:04Z</time>
      </trkpt>
      <trkpt lat="47.6311" lon="-2.83977">
        <ele>17.8</ele>
        <time>2025-01-28T14:23:05Z</time>
      </trkpt>
      <trkpt lat="47.6311" lon="-2.83976">
        <ele>17.8</ele>
        <time>2025-01-28T14:23:06Z</time>
      </trkpt>
      <trkpt lat="47.63109" lon="-2.83974">
        <ele>17.8</ele>
        <time>2025-01-28T14:23:07Z</time>
      </trkpt>
      <trkpt lat="47.63108" lon="-2.83973">
        <ele>17.8</ele>
        <time>2025-01-28T14:23:08Z</time>
      </trkpt>
      <trkpt lat="47.63108" lon="-2.83971">
        <ele>17.7</ele>
        <time>2025-01-28T14:23:09Z</time>
      </trkpt>
      <trkpt lat="47.63107" lon="-2.8397">
        <ele>17.7</ele>
        <time>2025-01-28T14:23:10Z</time>
      </trkpt>
      <trkpt lat="47.63106" lon="-2.83969">
        <ele>17.6</ele>
        <time>2025-01-28T14:23:11Z</time>
      </trkpt>
      <trkpt lat="47.63105" lon="-2.83967">
        <ele>17.6</ele>
        <time>2025-01-28T14:23:12Z</time>
      </trkpt>
      <trkpt lat="47.63104" lon="-2.83966">
        <ele>17.6</ele>
        <time>2025-01-28T14:23:13Z</time>
      </trkpt>
      <trkpt lat="47.63104" lon="-2.83964">
        <ele>17.5</ele>
        <time>2025-01-28T14:23:14Z</time>
      </trkpt>
      <trkpt lat="47.63103" lon="-2.83963">
        <ele>17.5</ele>
        <time>2025-01-28T14:23:15Z</time>
      </trkpt>
      <trkpt lat="47.63103" lon="-2.83961">
        <ele>17.5</ele>
        <time>2025-01-28T14:23:16Z</time>
      </trkpt>
      <trkpt lat="47.63102" lon="-2.8396">
        <ele>17.5</ele>
        <time>2025-01-28T14:23:17Z</time>
      </trkpt>
      <trkpt lat="47.63101" lon="-2.83958">
        <ele>17.5</ele>
        <time>2025-01-28T14:23:18Z</time>
      </trkpt>
      <trkpt lat="47.63101" lon="-2.83957">
        <ele>17.5</ele>
        <time>2025-01-28T14:23:19Z</time>
      </trkpt>
      <trkpt lat="47.631" lon="-2.83956">
        <ele>17.4</ele>
        <time>2025-01-28T14:23:20Z</time>
      </trkpt>
      <trkpt lat="47.631" lon="-2.83954">
        <ele>17.4</ele>
        <time>2025-01-28T14:23:21Z</time>
      </trkpt>
      <trkpt lat="47.63099" lon="-2.83952">
        <ele>17.4</ele>
        <time>2025-01-28T14:23:22Z</time>
      </trkpt>
      <trkpt lat="47.63098" lon="-2.83951">
        <ele>17.4</ele>
        <time>2025-01-28T14:23:23Z</time>
      </trkpt>
      <trkpt lat="47.63098" lon="-2.83949">
        <ele>17.5</ele>
        <time>2025-01-28T14:23:24Z</time>
      </trkpt>
      <trkpt lat="47.63098" lon="-2.83948">
        <ele>17.5</ele>
        <time>2025-01-28T14:23:25Z</time>
      </trkpt>
      <trkpt lat="47.63097" lon="-2.83946">
        <ele>17.5</ele>
        <time>2025-01-28T14:23:26Z</time>
      </trkpt>
      <trkpt lat="47.63096" lon="-2.83945">
        <ele>17.4</ele>
        <time>2025-01-28T14:23:27Z</time>
      </trkpt>
      <trkpt lat="47.63096" lon="-2.83944">
        <ele>17.5</ele>
        <time>2025-01-28T14:23:28Z</time>
      </trkpt>
      <trkpt lat="47.63095" lon="-2.83943">
        <ele>17.5</ele>
        <time>2025-01-28T14:23:29Z</time>
      </trkpt>
      <trkpt lat="47.63094" lon="-2.83942">
        <ele>17.5</ele>
        <time>2025-01-28T14:23:30Z</time>
      </trkpt>
      <trkpt lat="47.63093" lon="-2.8394">
        <ele>17.6</ele>
        <time>2025-01-28T14:23:31Z</time>
      </trkpt>
      <trkpt lat="47.63093" lon="-2.83939">
        <ele>17.6</ele>
        <time>2025-01-28T14:23:32Z</time>
      </trkpt>
      <trkpt lat="47.63092" lon="-2.83937">
        <ele>17.7</ele>
        <time>2025-01-28T14:23:33Z</time>
      </trkpt>
      <trkpt lat="47.63091" lon="-2.83936">
        <ele>17.7</ele>
        <time>2025-01-28T14:23:34Z</time>
      </trkpt>
      <trkpt lat="47.63091" lon="-2.83934">
        <ele>17.8</ele>
        <time>2025-01-28T14:23:35Z</time>
      </trkpt>
      <trkpt lat="47.6309" lon="-2.83933">
        <ele>17.9</ele>
        <time>2025-01-28T14:23:36Z</time>
      </trkpt>
      <trkpt lat="47.6309" lon="-2.83931">
        <ele>18</ele>
        <time>2025-01-28T14:23:37Z</time>
      </trkpt>
      <trkpt lat="47.63089" lon="-2.83929">
        <ele>18.1</ele>
        <time>2025-01-28T14:23:38Z</time>
      </trkpt>
      <trkpt lat="47.63089" lon="-2.83928">
        <ele>18.1</ele>
        <time>2025-01-28T14:23:39Z</time>
      </trkpt>
      <trkpt lat="47.63088" lon="-2.83927">
        <ele>18.2</ele>
        <time>2025-01-28T14:23:40Z</time>
      </trkpt>
      <trkpt lat="47.63087" lon="-2.83926">
        <ele>18.3</ele>
        <time>2025-01-28T14:23:41Z</time>
      </trkpt>
      <trkpt lat="47.63086" lon="-2.83925">
        <ele>18.4</ele>
        <time>2025-01-28T14:23:42Z</time>
      </trkpt>
      <trkpt lat="47.63086" lon="-2.83923">
        <ele>18.5</ele>
        <time>2025-01-28T14:23:43Z</time>
      </trkpt>
      <trkpt lat="47.63085" lon="-2.83921">
        <ele>18.6</ele>
        <time>2025-01-28T14:23:44Z</time>
      </trkpt>
      <trkpt lat="47.63085" lon="-2.8392">
        <ele>18.7</ele>
        <time>2025-01-28T14:23:45Z</time>
      </trkpt>
      <trkpt lat="47.63085" lon="-2.83918">
        <ele>18.8</ele>
        <time>2025-01-28T14:23:46Z</time>
      </trkpt>
      <trkpt lat="47.63084" lon="-2.83917">
        <ele>19</ele>
        <time>2025-01-28T14:23:47Z</time>
      </trkpt>
      <trkpt lat="47.63083" lon="-2.83915">
        <ele>19.1</ele>
        <time>2025-01-28T14:23:48Z</time>
      </trkpt>
      <trkpt lat="47.63082" lon="-2.83914">
        <ele>19.2</ele>
        <time>2025-01-28T14:23:49Z</time>
      </trkpt>
      <trkpt lat="47.63082" lon="-2.83912">
        <ele>19.3</ele>
        <time>2025-01-28T14:23:50Z</time>
      </trkpt>
      <trkpt lat="47.63081" lon="-2.83911">
        <ele>19.4</ele>
        <time>2025-01-28T14:23:51Z</time>
      </trkpt>
      <trkpt lat="47.63081" lon="-2.83909">
        <ele>19.4</ele>
        <time>2025-01-28T14:23:52Z</time>
      </trkpt>
      <trkpt lat="47.6308" lon="-2.83908">
        <ele>19.5</ele>
        <time>2025-01-28T14:23:53Z</time>
      </trkpt>
      <trkpt lat="47.63079" lon="-2.83907">
        <ele>19.5</ele>
        <time>2025-01-28T14:23:54Z</time>
      </trkpt>
      <trkpt lat="47.63078" lon="-2.83906">
        <ele>19.6</ele>
        <time>2025-01-28T14:23:55Z</time>
      </trkpt>
      <trkpt lat="47.63077" lon="-2.83904">
        <ele>19.7</ele>
        <time>2025-01-28T14:23:56Z</time>
      </trkpt>
      <trkpt lat="47.63077" lon="-2.83903">
        <ele>19.8</ele>
        <time>2025-01-28T14:23:57Z</time>
      </trkpt>
      <trkpt lat="47.63077" lon="-2.83901">
        <ele>19.9</ele>
        <time>2025-01-28T14:23:58Z</time>
      </trkpt>
      <trkpt lat="47.63076" lon="-2.83899">
        <ele>20</ele>
        <time>2025-01-28T14:23:59Z</time>
      </trkpt>
      <trkpt lat="47.63076" lon="-2.83898">
        <ele>20.1</ele>
        <time>2025-01-28T14:24:00Z</time>
      </trkpt>
      <trkpt lat="47.63075" lon="-2.83896">
        <ele>20.2</ele>
        <time>2025-01-28T14:24:01Z</time>
      </trkpt>
      <trkpt lat="47.63074" lon="-2.83895">
        <ele>20.2</ele>
        <time>2025-01-28T14:24:02Z</time>
      </trkpt>
      <trkpt lat="47.63074" lon="-2.83894">
        <ele>20.3</ele>
        <time>2025-01-28T14:24:03Z</time>
      </trkpt>
      <trkpt lat="47.63073" lon="-2.83892">
        <ele>20.4</ele>
        <time>2025-01-28T14:24:04Z</time>
      </trkpt>
      <trkpt lat="47.63072" lon="-2.83891">
        <ele>20.4</ele>
        <time>2025-01-28T14:24:05Z</time>
      </trkpt>
      <trkpt lat="47.63072" lon="-2.83889">
        <ele>20.5</ele>
        <time>2025-01-28T14:24:06Z</time>
      </trkpt>
      <trkpt lat="47.63071" lon="-2.83888">
        <ele>20.6</ele>
        <time>2025-01-28T14:24:07Z</time>
      </trkpt>
      <trkpt lat="47.63071" lon="-2.83887">
        <ele>20.6</ele>
        <time>2025-01-28T14:24:08Z</time>
      </trkpt>
      <trkpt lat="47.6307" lon="-2.83885">
        <ele>20.7</ele>
        <time>2025-01-28T14:24:09Z</time>
      </trkpt>
      <trkpt lat="47.6307" lon="-2.83884">
        <ele>20.7</ele>
        <time>2025-01-28T14:24:10Z</time>
      </trkpt>
      <trkpt lat="47.63069" lon="-2.83882">
        <ele>20.7</ele>
        <time>2025-01-28T14:24:11Z</time>
      </trkpt>
      <trkpt lat="47.63068" lon="-2.83881">
        <ele>20.8</ele>
        <time>2025-01-28T14:24:12Z</time>
      </trkpt>
      <trkpt lat="47.63068" lon="-2.83879">
        <ele>20.8</ele>
        <time>2025-01-28T14:24:13Z</time>
      </trkpt>
      <trkpt lat="47.63067" lon="-2.83877">
        <ele>20.8</ele>
        <time>2025-01-28T14:24:14Z</time>
      </trkpt>
      <trkpt lat="47.63067" lon="-2.83875">
        <ele>20.9</ele>
        <time>2025-01-28T14:24:15Z</time>
      </trkpt>
      <trkpt lat="47.63066" lon="-2.83874">
        <ele>20.9</ele>
        <time>2025-01-28T14:24:16Z</time>
      </trkpt>
      <trkpt lat="47.63065" lon="-2.83872">
        <ele>20.9</ele>
        <time>2025-01-28T14:24:17Z</time>
      </trkpt>
      <trkpt lat="47.63065" lon="-2.83871">
        <ele>21</ele>
        <time>2025-01-28T14:24:18Z</time>
      </trkpt>
      <trkpt lat="47.63064" lon="-2.83869">
        <ele>21</ele>
        <time>2025-01-28T14:24:19Z</time>
      </trkpt>
      <trkpt lat="47.63063" lon="-2.83868">
        <ele>21</ele>
        <time>2025-01-28T14:24:20Z</time>
      </trkpt>
      <trkpt lat="47.63063" lon="-2.83867">
        <ele>21.1</ele>
        <time>2025-01-28T14:24:21Z</time>
      </trkpt>
      <trkpt lat="47.63062" lon="-2.83865">
        <ele>21.1</ele>
        <time>2025-01-28T14:24:22Z</time>
      </trkpt>
      <trkpt lat="47.63061" lon="-2.83863">
        <ele>21.1</ele>
        <time>2025-01-28T14:24:23Z</time>
      </trkpt>
      <trkpt lat="47.63061" lon="-2.83862">
        <ele>21.2</ele>
        <time>2025-01-28T14:24:24Z</time>
      </trkpt>
      <trkpt lat="47.6306" lon="-2.8386">
        <ele>21.2</ele>
        <time>2025-01-28T14:24:25Z</time>
      </trkpt>
      <trkpt lat="47.63059" lon="-2.83859">
        <ele>21.2</ele>
        <time>2025-01-28T14:24:26Z</time>
      </trkpt>
      <trkpt lat="47.63059" lon="-2.83857">
        <ele>21.3</ele>
        <time>2025-01-28T14:24:27Z</time>
      </trkpt>
      <trkpt lat="47.63058" lon="-2.83855">
        <ele>21.3</ele>
        <time>2025-01-28T14:24:28Z</time>
      </trkpt>
      <trkpt lat="47.63057" lon="-2.83854">
        <ele>21.3</ele>
        <time>2025-01-28T14:24:29Z</time>
      </trkpt>
      <trkpt lat="47.63057" lon="-2.83852">
        <ele>21.4</ele>
        <time>2025-01-28T14:24:30Z</time>
      </trkpt>
      <trkpt lat="47.63056" lon="-2.83851">
        <ele>21.4</ele>
        <time>2025-01-28T14:24:31Z</time>
      </trkpt>
      <trkpt lat="47.63056" lon="-2.83849">
        <ele>21.4</ele>
        <time>2025-01-28T14:24:32Z</time>
      </trkpt>
      <trkpt lat="47.63056" lon="-2.83847">
        <ele>21.5</ele>
        <time>2025-01-28T14:24:33Z</time>
      </trkpt>
      <trkpt lat="47.63055" lon="-2.83845">
        <ele>21.5</ele>
        <time>2025-01-28T14:24:34Z</time>
      </trkpt>
      <trkpt lat="47.63054" lon="-2.83844">
        <ele>21.5</ele>
        <time>2025-01-28T14:24:35Z</time>
      </trkpt>
      <trkpt lat="47.63053" lon="-2.83842">
        <ele>21.5</ele>
        <time>2025-01-28T14:24:36Z</time>
      </trkpt>
      <trkpt lat="47.63053" lon="-2.83841">
        <ele>21.5</ele>
        <time>2025-01-28T14:24:37Z</time>
      </trkpt>
      <trkpt lat="47.63052" lon="-2.83839">
        <ele>21.5</ele>
        <time>2025-01-28T14:24:38Z</time>
      </trkpt>
      <trkpt lat="47.63051" lon="-2.83838">
        <ele>21.5</ele>
        <time>2025-01-28T14:24:39Z</time>
      </trkpt>
      <trkpt lat="47.6305" lon="-2.83837">
        <ele>21.5</ele>
        <time>2025-01-28T14:24:40Z</time>
      </trkpt>
      <trkpt lat="47.63049" lon="-2.83836">
        <ele>21.5</ele>
        <time>2025-01-28T14:24:41Z</time>
      </trkpt>
      <trkpt lat="47.63049" lon="-2.83834">
        <ele>21.5</ele>
        <time>2025-01-28T14:24:42Z</time>
      </trkpt>
      <trkpt lat="47.63049" lon="-2.83832">
        <ele>21.5</ele>
        <time>2025-01-28T14:24:43Z</time>
      </trkpt>
      <trkpt lat="47.63049" lon="-2.8383">
        <ele>21.6</ele>
        <time>2025-01-28T14:24:44Z</time>
      </trkpt>
      <trkpt lat="47.63049" lon="-2.83829">
        <ele>21.7</ele>
        <time>2025-01-28T14:24:45Z</time>
      </trkpt>
      <trkpt lat="47.6305" lon="-2.83827">
        <ele>21.8</ele>
        <time>2025-01-28T14:24:46Z</time>
      </trkpt>
      <trkpt lat="47.63051" lon="-2.83826">
        <ele>21.9</ele>
        <time>2025-01-28T14:24:47Z</time>
      </trkpt>
      <trkpt lat="47.6305" lon="-2.83824">
        <ele>22</ele>
        <time>2025-01-28T14:24:48Z</time>
      </trkpt>
      <trkpt lat="47.6305" lon="-2.83823">
        <ele>22</ele>
        <time>2025-01-28T14:24:49Z</time>
      </trkpt>
      <trkpt lat="47.63049" lon="-2.83822">
        <ele>22</ele>
        <time>2025-01-28T14:24:50Z</time>
      </trkpt>
      <trkpt lat="47.63048" lon="-2.83822">
        <ele>21.9</ele>
        <time>2025-01-28T14:24:51Z</time>
      </trkpt>
      <trkpt lat="47.63047" lon="-2.83821">
        <ele>21.9</ele>
        <time>2025-01-28T14:24:52Z</time>
      </trkpt>
      <trkpt lat="47.63046" lon="-2.8382">
        <ele>21.8</ele>
        <time>2025-01-28T14:24:53Z</time>
      </trkpt>
      <trkpt lat="47.63046" lon="-2.83819">
        <ele>21.8</ele>
        <time>2025-01-28T14:24:54Z</time>
      </trkpt>
      <trkpt lat="47.63045" lon="-2.83817">
        <ele>21.8</ele>
        <time>2025-01-28T14:24:55Z</time>
      </trkpt>
      <trkpt lat="47.63044" lon="-2.83816">
        <ele>21.8</ele>
        <time>2025-01-28T14:24:56Z</time>
      </trkpt>
      <trkpt lat="47.63042" lon="-2.83815">
        <ele>21.7</ele>
        <time>2025-01-28T14:24:57Z</time>
      </trkpt>
      <trkpt lat="47.63042" lon="-2.83814">
        <ele>21.7</ele>
        <time>2025-01-28T14:24:58Z</time>
      </trkpt>
      <trkpt lat="47.63041" lon="-2.83813">
        <ele>21.7</ele>
        <time>2025-01-28T14:24:59Z</time>
      </trkpt>
      <trkpt lat="47.6304" lon="-2.83813">
        <ele>21.6</ele>
        <time>2025-01-28T14:25:00Z</time>
      </trkpt>
      <trkpt lat="47.6304" lon="-2.83811">
        <ele>21.6</ele>
        <time>2025-01-28T14:25:01Z</time>
      </trkpt>
      <trkpt lat="47.63039" lon="-2.8381">
        <ele>21.7</ele>
        <time>2025-01-28T14:25:02Z</time>
      </trkpt>
      <trkpt lat="47.63039" lon="-2.83809">
        <ele>21.7</ele>
        <time>2025-01-28T14:25:03Z</time>
      </trkpt>
      <trkpt lat="47.63039" lon="-2.83807">
        <ele>21.7</ele>
        <time>2025-01-28T14:25:04Z</time>
      </trkpt>
      <trkpt lat="47.63038" lon="-2.83805">
        <ele>21.8</ele>
        <time>2025-01-28T14:25:05Z</time>
      </trkpt>
      <trkpt lat="47.63038" lon="-2.83804">
        <ele>21.8</ele>
        <time>2025-01-28T14:25:06Z</time>
      </trkpt>
      <trkpt lat="47.63037" lon="-2.83803">
        <ele>21.8</ele>
        <time>2025-01-28T14:25:07Z</time>
      </trkpt>
      <trkpt lat="47.63037" lon="-2.83801">
        <ele>21.8</ele>
        <time>2025-01-28T14:25:08Z</time>
      </trkpt>
      <trkpt lat="47.63036" lon="-2.838">
        <ele>21.8</ele>
        <time>2025-01-28T14:25:09Z</time>
      </trkpt>
      <trkpt lat="47.63036" lon="-2.83799">
        <ele>21.7</ele>
        <time>2025-01-28T14:25:10Z</time>
      </trkpt>
      <trkpt lat="47.63035" lon="-2.83797">
        <ele>21.7</ele>
        <time>2025-01-28T14:25:11Z</time>
      </trkpt>
      <trkpt lat="47.63035" lon="-2.83796">
        <ele>21.8</ele>
        <time>2025-01-28T14:25:12Z</time>
      </trkpt>
      <trkpt lat="47.63034" lon="-2.83795">
        <ele>21.8</ele>
        <time>2025-01-28T14:25:13Z</time>
      </trkpt>
      <trkpt lat="47.63034" lon="-2.83793">
        <ele>21.8</ele>
        <time>2025-01-28T14:25:14Z</time>
      </trkpt>
      <trkpt lat="47.63033" lon="-2.83792">
        <ele>21.8</ele>
        <time>2025-01-28T14:25:15Z</time>
      </trkpt>
      <trkpt lat="47.63033" lon="-2.8379">
        <ele>21.8</ele>
        <time>2025-01-28T14:25:16Z</time>
      </trkpt>
      <trkpt lat="47.63032" lon="-2.83788">
        <ele>21.8</ele>
        <time>2025-01-28T14:25:17Z</time>
      </trkpt>
      <trkpt lat="47.63032" lon="-2.83787">
        <ele>21.8</ele>
        <time>2025-01-28T14:25:18Z</time>
      </trkpt>
      <trkpt lat="47.63031" lon="-2.83786">
        <ele>21.9</ele>
        <time>2025-01-28T14:25:19Z</time>
      </trkpt>
      <trkpt lat="47.6303" lon="-2.83784">
        <ele>21.9</ele>
        <time>2025-01-28T14:25:20Z</time>
      </trkpt>
      <trkpt lat="47.63029" lon="-2.83783">
        <ele>21.9</ele>
        <time>2025-01-28T14:25:21Z</time>
      </trkpt>
      <trkpt lat="47.63029" lon="-2.83781">
        <ele>21.9</ele>
        <time>2025-01-28T14:25:22Z</time>
      </trkpt>
      <trkpt lat="47.63028" lon="-2.83779">
        <ele>22</ele>
        <time>2025-01-28T14:25:23Z</time>
      </trkpt>
      <trkpt lat="47.63028" lon="-2.83778">
        <ele>22</ele>
        <time>2025-01-28T14:25:24Z</time>
      </trkpt>
      <trkpt lat="47.63027" lon="-2.83776">
        <ele>22</ele>
        <time>2025-01-28T14:25:25Z</time>
      </trkpt>
      <trkpt lat="47.63027" lon="-2.83774">
        <ele>21.9</ele>
        <time>2025-01-28T14:25:26Z</time>
      </trkpt>
      <trkpt lat="47.63026" lon="-2.83773">
        <ele>21.9</ele>
        <time>2025-01-28T14:25:27Z</time>
      </trkpt>
      <trkpt lat="47.63026" lon="-2.83771">
        <ele>21.8</ele>
        <time>2025-01-28T14:25:28Z</time>
      </trkpt>
      <trkpt lat="47.63025" lon="-2.8377">
        <ele>21.7</ele>
        <time>2025-01-28T14:25:29Z</time>
      </trkpt>
      <trkpt lat="47.63024" lon="-2.83769">
        <ele>21.6</ele>
        <time>2025-01-28T14:25:30Z</time>
      </trkpt>
      <trkpt lat="47.63023" lon="-2.83767">
        <ele>21.6</ele>
        <time>2025-01-28T14:25:31Z</time>
      </trkpt>
      <trkpt lat="47.63023" lon="-2.83766">
        <ele>21.5</ele>
        <time>2025-01-28T14:25:32Z</time>
      </trkpt>
      <trkpt lat="47.63022" lon="-2.83765">
        <ele>21.5</ele>
        <time>2025-01-28T14:25:33Z</time>
      </trkpt>
      <trkpt lat="47.63021" lon="-2.83764">
        <ele>21.4</ele>
        <time>2025-01-28T14:25:34Z</time>
      </trkpt>
      <trkpt lat="47.63021" lon="-2.83762">
        <ele>21.4</ele>
        <time>2025-01-28T14:25:35Z</time>
      </trkpt>
      <trkpt lat="47.6302" lon="-2.83761">
        <ele>21.3</ele>
        <time>2025-01-28T14:25:36Z</time>
      </trkpt>
      <trkpt lat="47.63019" lon="-2.83759">
        <ele>21.3</ele>
        <time>2025-01-28T14:25:37Z</time>
      </trkpt>
      <trkpt lat="47.63019" lon="-2.83758">
        <ele>21.3</ele>
        <time>2025-01-28T14:25:38Z</time>
      </trkpt>
      <trkpt lat="47.63019" lon="-2.83756">
        <ele>21.3</ele>
        <time>2025-01-28T14:25:39Z</time>
      </trkpt>
      <trkpt lat="47.63018" lon="-2.83754">
        <ele>21.3</ele>
        <time>2025-01-28T14:25:40Z</time>
      </trkpt>
      <trkpt lat="47.63018" lon="-2.83753">
        <ele>21.2</ele>
        <time>2025-01-28T14:25:41Z</time>
      </trkpt>
      <trkpt lat="47.63017" lon="-2.83751">
        <ele>21.2</ele>
        <time>2025-01-28T14:25:42Z</time>
      </trkpt>
      <trkpt lat="47.63016" lon="-2.8375">
        <ele>21.1</ele>
        <time>2025-01-28T14:25:43Z</time>
      </trkpt>
      <trkpt lat="47.63015" lon="-2.83748">
        <ele>21.1</ele>
        <time>2025-01-28T14:25:44Z</time>
      </trkpt>
      <trkpt lat="47.63014" lon="-2.83747">
        <ele>21</ele>
        <time>2025-01-28T14:25:45Z</time>
      </trkpt>
      <trkpt lat="47.63014" lon="-2.83745">
        <ele>21</ele>
        <time>2025-01-28T14:25:46Z</time>
      </trkpt>
      <trkpt lat="47.63014" lon="-2.83743">
        <ele>21</ele>
        <time>2025-01-28T14:25:47Z</time>
      </trkpt>
      <trkpt lat="47.63013" lon="-2.83741">
        <ele>20.9</ele>
        <time>2025-01-28T14:25:48Z</time>
      </trkpt>
      <trkpt lat="47.63012" lon="-2.8374">
        <ele>20.8</ele>
        <time>2025-01-28T14:25:49Z</time>
      </trkpt>
      <trkpt lat="47.63011" lon="-2.83739">
        <ele>20.8</ele>
        <time>2025-01-28T14:25:50Z</time>
      </trkpt>
      <trkpt lat="47.63011" lon="-2.83737">
        <ele>20.8</ele>
        <time>2025-01-28T14:25:51Z</time>
      </trkpt>
      <trkpt lat="47.6301" lon="-2.83736">
        <ele>20.7</ele>
        <time>2025-01-28T14:25:52Z</time>
      </trkpt>
      <trkpt lat="47.63009" lon="-2.83734">
        <ele>20.6</ele>
        <time>2025-01-28T14:25:53Z</time>
      </trkpt>
      <trkpt lat="47.63009" lon="-2.83733">
        <ele>20.6</ele>
        <time>2025-01-28T14:25:54Z</time>
      </trkpt>
      <trkpt lat="47.63008" lon="-2.83731">
        <ele>20.6</ele>
        <time>2025-01-28T14:25:55Z</time>
      </trkpt>
      <trkpt lat="47.63007" lon="-2.8373">
        <ele>20.5</ele>
        <time>2025-01-28T14:25:56Z</time>
      </trkpt>
      <trkpt lat="47.63006" lon="-2.83729">
        <ele>20.4</ele>
        <time>2025-01-28T14:25:57Z</time>
      </trkpt>
      <trkpt lat="47.63005" lon="-2.83728">
        <ele>20.3</ele>
        <time>2025-01-28T14:25:58Z</time>
      </trkpt>
      <trkpt lat="47.63004" lon="-2.83726">
        <ele>20.3</ele>
        <time>2025-01-28T14:25:59Z</time>
      </trkpt>
      <trkpt lat="47.63003" lon="-2.83724">
        <ele>20.2</ele>
        <time>2025-01-28T14:26:00Z</time>
      </trkpt>
      <trkpt lat="47.63003" lon="-2.83723">
        <ele>20.2</ele>
        <time>2025-01-28T14:26:01Z</time>
      </trkpt>
      <trkpt lat="47.63002" lon="-2.83721">
        <ele>20.2</ele>
        <time>2025-01-28T14:26:02Z</time>
      </trkpt>
      <trkpt lat="47.63002" lon="-2.83719">
        <ele>20.1</ele>
        <time>2025-01-28T14:26:03Z</time>
      </trkpt>
      <trkpt lat="47.63002" lon="-2.83718">
        <ele>20.1</ele>
        <time>2025-01-28T14:26:04Z</time>
      </trkpt>
      <trkpt lat="47.63001" lon="-2.83716">
        <ele>20.1</ele>
        <time>2025-01-28T14:26:05Z</time>
      </trkpt>
      <trkpt lat="47.63" lon="-2.83715">
        <ele>20</ele>
        <time>2025-01-28T14:26:06Z</time>
      </trkpt>
      <trkpt lat="47.63" lon="-2.83713">
        <ele>20</ele>
        <time>2025-01-28T14:26:07Z</time>
      </trkpt>
      <trkpt lat="47.62999" lon="-2.83711">
        <ele>20</ele>
        <time>2025-01-28T14:26:08Z</time>
      </trkpt>
      <trkpt lat="47.62999" lon="-2.8371">
        <ele>19.9</ele>
        <time>2025-01-28T14:26:09Z</time>
      </trkpt>
      <trkpt lat="47.62998" lon="-2.83708">
        <ele>19.9</ele>
        <time>2025-01-28T14:26:10Z</time>
      </trkpt>
      <trkpt lat="47.62997" lon="-2.83707">
        <ele>19.9</ele>
        <time>2025-01-28T14:26:11Z</time>
      </trkpt>
      <trkpt lat="47.62997" lon="-2.83705">
        <ele>19.8</ele>
        <time>2025-01-28T14:26:12Z</time>
      </trkpt>
      <trkpt lat="47.62996" lon="-2.83704">
        <ele>19.8</ele>
        <time>2025-01-28T14:26:13Z</time>
      </trkpt>
      <trkpt lat="47.62996" lon="-2.83702">
        <ele>19.8</ele>
        <time>2025-01-28T14:26:14Z</time>
      </trkpt>
      <trkpt lat="47.62995" lon="-2.83701">
        <ele>19.8</ele>
        <time>2025-01-28T14:26:15Z</time>
      </trkpt>
      <trkpt lat="47.62994" lon="-2.837">
        <ele>19.8</ele>
        <time>2025-01-28T14:26:16Z</time>
      </trkpt>
      <trkpt lat="47.62994" lon="-2.83698">
        <ele>19.7</ele>
        <time>2025-01-28T14:26:17Z</time>
      </trkpt>
      <trkpt lat="47.62993" lon="-2.83697">
        <ele>19.7</ele>
        <time>2025-01-28T14:26:18Z</time>
      </trkpt>
      <trkpt lat="47.62992" lon="-2.83696">
        <ele>19.7</ele>
        <time>2025-01-28T14:26:19Z</time>
      </trkpt>
      <trkpt lat="47.62992" lon="-2.83694">
        <ele>19.7</ele>
        <time>2025-01-28T14:26:20Z</time>
      </trkpt>
      <trkpt lat="47.62991" lon="-2.83693">
        <ele>19.7</ele>
        <time>2025-01-28T14:26:21Z</time>
      </trkpt>
      <trkpt lat="47.62991" lon="-2.83691">
        <ele>19.7</ele>
        <time>2025-01-28T14:26:22Z</time>
      </trkpt>
      <trkpt lat="47.6299" lon="-2.8369">
        <ele>19.6</ele>
        <time>2025-01-28T14:26:23Z</time>
      </trkpt>
      <trkpt lat="47.6299" lon="-2.83688">
        <ele>19.6</ele>
        <time>2025-01-28T14:26:24Z</time>
      </trkpt>
      <trkpt lat="47.62989" lon="-2.83687">
        <ele>19.6</ele>
        <time>2025-01-28T14:26:25Z</time>
      </trkpt>
      <trkpt lat="47.62988" lon="-2.83686">
        <ele>19.6</ele>
        <time>2025-01-28T14:26:26Z</time>
      </trkpt>
      <trkpt lat="47.62987" lon="-2.83684">
        <ele>19.5</ele>
        <time>2025-01-28T14:26:27Z</time>
      </trkpt>
      <trkpt lat="47.62987" lon="-2.83683">
        <ele>19.5</ele>
        <time>2025-01-28T14:26:28Z</time>
      </trkpt>
      <trkpt lat="47.62986" lon="-2.83681">
        <ele>19.5</ele>
        <time>2025-01-28T14:26:29Z</time>
      </trkpt>
      <trkpt lat="47.62986" lon="-2.8368">
        <ele>19.5</ele>
        <time>2025-01-28T14:26:30Z</time>
      </trkpt>
      <trkpt lat="47.62985" lon="-2.83678">
        <ele>19.5</ele>
        <time>2025-01-28T14:26:31Z</time>
      </trkpt>
      <trkpt lat="47.62985" lon="-2.83676">
        <ele>19.4</ele>
        <time>2025-01-28T14:26:32Z</time>
      </trkpt>
      <trkpt lat="47.62984" lon="-2.83675">
        <ele>19.4</ele>
        <time>2025-01-28T14:26:33Z</time>
      </trkpt>
      <trkpt lat="47.62983" lon="-2.83673">
        <ele>19.4</ele>
        <time>2025-01-28T14:26:34Z</time>
      </trkpt>
      <trkpt lat="47.62983" lon="-2.83672">
        <ele>19.4</ele>
        <time>2025-01-28T14:26:35Z</time>
      </trkpt>
      <trkpt lat="47.62982" lon="-2.8367">
        <ele>19.4</ele>
        <time>2025-01-28T14:26:36Z</time>
      </trkpt>
      <trkpt lat="47.62982" lon="-2.83669">
        <ele>19.3</ele>
        <time>2025-01-28T14:26:37Z</time>
      </trkpt>
      <trkpt lat="47.62981" lon="-2.83667">
        <ele>19.3</ele>
        <time>2025-01-28T14:26:38Z</time>
      </trkpt>
      <trkpt lat="47.6298" lon="-2.83666">
        <ele>19.3</ele>
        <time>2025-01-28T14:26:39Z</time>
      </trkpt>
      <trkpt lat="47.6298" lon="-2.83664">
        <ele>19.3</ele>
        <time>2025-01-28T14:26:40Z</time>
      </trkpt>
      <trkpt lat="47.62979" lon="-2.83662">
        <ele>19.2</ele>
        <time>2025-01-28T14:26:41Z</time>
      </trkpt>
      <trkpt lat="47.62978" lon="-2.8366">
        <ele>19.2</ele>
        <time>2025-01-28T14:26:42Z</time>
      </trkpt>
      <trkpt lat="47.62977" lon="-2.83659">
        <ele>19.2</ele>
        <time>2025-01-28T14:26:43Z</time>
      </trkpt>
      <trkpt lat="47.62977" lon="-2.83657">
        <ele>19.2</ele>
        <time>2025-01-28T14:26:44Z</time>
      </trkpt>
      <trkpt lat="47.62976" lon="-2.83656">
        <ele>19.1</ele>
        <time>2025-01-28T14:26:45Z</time>
      </trkpt>
      <trkpt lat="47.62975" lon="-2.83654">
        <ele>19.1</ele>
        <time>2025-01-28T14:26:46Z</time>
      </trkpt>
      <trkpt lat="47.62974" lon="-2.83653">
        <ele>19.1</ele>
        <time>2025-01-28T14:26:47Z</time>
      </trkpt>
      <trkpt lat="47.62974" lon="-2.83651">
        <ele>19.1</ele>
        <time>2025-01-28T14:26:48Z</time>
      </trkpt>
      <trkpt lat="47.62973" lon="-2.8365">
        <ele>19</ele>
        <time>2025-01-28T14:26:49Z</time>
      </trkpt>
      <trkpt lat="47.62972" lon="-2.83648">
        <ele>19</ele>
        <time>2025-01-28T14:26:50Z</time>
      </trkpt>
      <trkpt lat="47.62972" lon="-2.83646">
        <ele>19</ele>
        <time>2025-01-28T14:26:51Z</time>
      </trkpt>
      <trkpt lat="47.62971" lon="-2.83645">
        <ele>18.9</ele>
        <time>2025-01-28T14:26:52Z</time>
      </trkpt>
      <trkpt lat="47.6297" lon="-2.83643">
        <ele>18.9</ele>
        <time>2025-01-28T14:26:53Z</time>
      </trkpt>
      <trkpt lat="47.62969" lon="-2.83641">
        <ele>18.9</ele>
        <time>2025-01-28T14:26:54Z</time>
      </trkpt>
      <trkpt lat="47.62969" lon="-2.8364">
        <ele>18.9</ele>
        <time>2025-01-28T14:26:55Z</time>
      </trkpt>
      <trkpt lat="47.62968" lon="-2.83638">
        <ele>18.9</ele>
        <time>2025-01-28T14:26:56Z</time>
      </trkpt>
      <trkpt lat="47.62967" lon="-2.83636">
        <ele>18.8</ele>
        <time>2025-01-28T14:26:57Z</time>
      </trkpt>
      <trkpt lat="47.62967" lon="-2.83635">
        <ele>18.8</ele>
        <time>2025-01-28T14:26:58Z</time>
      </trkpt>
      <trkpt lat="47.62966" lon="-2.83633">
        <ele>18.8</ele>
        <time>2025-01-28T14:26:59Z</time>
      </trkpt>
      <trkpt lat="47.62965" lon="-2.83632">
        <ele>18.8</ele>
        <time>2025-01-28T14:27:00Z</time>
      </trkpt>
      <trkpt lat="47.62964" lon="-2.8363">
        <ele>18.7</ele>
        <time>2025-01-28T14:27:01Z</time>
      </trkpt>
      <trkpt lat="47.62964" lon="-2.83629">
        <ele>18.7</ele>
        <time>2025-01-28T14:27:02Z</time>
      </trkpt>
      <trkpt lat="47.62963" lon="-2.83627">
        <ele>18.7</ele>
        <time>2025-01-28T14:27:03Z</time>
      </trkpt>
      <trkpt lat="47.62962" lon="-2.83625">
        <ele>18.6</ele>
        <time>2025-01-28T14:27:04Z</time>
      </trkpt>
      <trkpt lat="47.62961" lon="-2.83623">
        <ele>18.6</ele>
        <time>2025-01-28T14:27:05Z</time>
      </trkpt>
      <trkpt lat="47.62961" lon="-2.83622">
        <ele>18.6</ele>
        <time>2025-01-28T14:27:06Z</time>
      </trkpt>
      <trkpt lat="47.6296" lon="-2.8362">
        <ele>18.6</ele>
        <time>2025-01-28T14:27:07Z</time>
      </trkpt>
      <trkpt lat="47.62959" lon="-2.83618">
        <ele>18.5</ele>
        <time>2025-01-28T14:27:08Z</time>
      </trkpt>
      <trkpt lat="47.62959" lon="-2.83617">
        <ele>18.5</ele>
        <time>2025-01-28T14:27:09Z</time>
      </trkpt>
      <trkpt lat="47.62958" lon="-2.83615">
        <ele>18.5</ele>
        <time>2025-01-28T14:27:10Z</time>
      </trkpt>
      <trkpt lat="47.62958" lon="-2.83614">
        <ele>18.5</ele>
        <time>2025-01-28T14:27:11Z</time>
      </trkpt>
      <trkpt lat="47.62957" lon="-2.83612">
        <ele>18.5</ele>
        <time>2025-01-28T14:27:12Z</time>
      </trkpt>
      <trkpt lat="47.62957" lon="-2.8361">
        <ele>18.5</ele>
        <time>2025-01-28T14:27:13Z</time>
      </trkpt>
      <trkpt lat="47.62956" lon="-2.83609">
        <ele>18.4</ele>
        <time>2025-01-28T14:27:14Z</time>
      </trkpt>
      <trkpt lat="47.62955" lon="-2.83608">
        <ele>18.4</ele>
        <time>2025-01-28T14:27:15Z</time>
      </trkpt>
      <trkpt lat="47.62955" lon="-2.83606">
        <ele>18.4</ele>
        <time>2025-01-28T14:27:16Z</time>
      </trkpt>
      <trkpt lat="47.62954" lon="-2.83604">
        <ele>18.4</ele>
        <time>2025-01-28T14:27:17Z</time>
      </trkpt>
      <trkpt lat="47.62954" lon="-2.83602">
        <ele>18.4</ele>
        <time>2025-01-28T14:27:18Z</time>
      </trkpt>
      <trkpt lat="47.62953" lon="-2.83601">
        <ele>18.4</ele>
        <time>2025-01-28T14:27:19Z</time>
      </trkpt>
      <trkpt lat="47.62953" lon="-2.836">
        <ele>18.4</ele>
        <time>2025-01-28T14:27:20Z</time>
      </trkpt>
      <trkpt lat="47.62952" lon="-2.83598">
        <ele>18.4</ele>
        <time>2025-01-28T14:27:21Z</time>
      </trkpt>
      <trkpt lat="47.62952" lon="-2.83596">
        <ele>18.4</ele>
        <time>2025-01-28T14:27:22Z</time>
      </trkpt>
      <trkpt lat="47.62951" lon="-2.83595">
        <ele>18.4</ele>
        <time>2025-01-28T14:27:23Z</time>
      </trkpt>
      <trkpt lat="47.6295" lon="-2.83594">
        <ele>18.3</ele>
        <time>2025-01-28T14:27:24Z</time>
      </trkpt>
      <trkpt lat="47.62949" lon="-2.83593">
        <ele>18.3</ele>
        <time>2025-01-28T14:27:25Z</time>
      </trkpt>
      <trkpt lat="47.62948" lon="-2.83591">
        <ele>18.2</ele>
        <time>2025-01-28T14:27:26Z</time>
      </trkpt>
      <trkpt lat="47.62948" lon="-2.83589">
        <ele>18.2</ele>
        <time>2025-01-28T14:27:27Z</time>
      </trkpt>
      <trkpt lat="47.62947" lon="-2.83588">
        <ele>18.2</ele>
        <time>2025-01-28T14:27:28Z</time>
      </trkpt>
      <trkpt lat="47.62946" lon="-2.83586">
        <ele>18.1</ele>
        <time>2025-01-28T14:27:29Z</time>
      </trkpt>
      <trkpt lat="47.62946" lon="-2.83584">
        <ele>18.1</ele>
        <time>2025-01-28T14:27:30Z</time>
      </trkpt>
      <trkpt lat="47.62945" lon="-2.83582">
        <ele>18</ele>
        <time>2025-01-28T14:27:31Z</time>
      </trkpt>
      <trkpt lat="47.62944" lon="-2.83581">
        <ele>18</ele>
        <time>2025-01-28T14:27:32Z</time>
      </trkpt>
      <trkpt lat="47.62943" lon="-2.83579">
        <ele>18</ele>
        <time>2025-01-28T14:27:33Z</time>
      </trkpt>
      <trkpt lat="47.62943" lon="-2.83577">
        <ele>17.9</ele>
        <time>2025-01-28T14:27:34Z</time>
      </trkpt>
      <trkpt lat="47.62942" lon="-2.83576">
        <ele>17.9</ele>
        <time>2025-01-28T14:27:35Z</time>
      </trkpt>
      <trkpt lat="47.62941" lon="-2.83574">
        <ele>17.8</ele>
        <time>2025-01-28T14:27:36Z</time>
      </trkpt>
      <trkpt lat="47.6294" lon="-2.83572">
        <ele>17.8</ele>
        <time>2025-01-28T14:27:37Z</time>
      </trkpt>
      <trkpt lat="47.62939" lon="-2.8357">
        <ele>17.7</ele>
        <time>2025-01-28T14:27:38Z</time>
      </trkpt>
      <trkpt lat="47.62938" lon="-2.83569">
        <ele>17.6</ele>
        <time>2025-01-28T14:27:39Z</time>
      </trkpt>
      <trkpt lat="47.62937" lon="-2.83566">
        <ele>17.6</ele>
        <time>2025-01-28T14:27:40Z</time>
      </trkpt>
      <trkpt lat="47.62937" lon="-2.83564">
        <ele>17.5</ele>
        <time>2025-01-28T14:27:41Z</time>
      </trkpt>
      <trkpt lat="47.62936" lon="-2.83562">
        <ele>17.5</ele>
        <time>2025-01-28T14:27:42Z</time>
      </trkpt>
      <trkpt lat="47.62935" lon="-2.8356">
        <ele>17.4</ele>
        <time>2025-01-28T14:27:43Z</time>
      </trkpt>
      <trkpt lat="47.62935" lon="-2.83558">
        <ele>17.3</ele>
        <time>2025-01-28T14:27:44Z</time>
      </trkpt>
      <trkpt lat="47.62934" lon="-2.83556">
        <ele>17.2</ele>
        <time>2025-01-28T14:27:45Z</time>
      </trkpt>
      <trkpt lat="47.62933" lon="-2.83554">
        <ele>17.2</ele>
        <time>2025-01-28T14:27:46Z</time>
      </trkpt>
      <trkpt lat="47.62933" lon="-2.83553">
        <ele>17.1</ele>
        <time>2025-01-28T14:27:47Z</time>
      </trkpt>
      <trkpt lat="47.62932" lon="-2.83551">
        <ele>17</ele>
        <time>2025-01-28T14:27:48Z</time>
      </trkpt>
      <trkpt lat="47.62931" lon="-2.8355">
        <ele>16.9</ele>
        <time>2025-01-28T14:27:49Z</time>
      </trkpt>
      <trkpt lat="47.6293" lon="-2.83548">
        <ele>16.8</ele>
        <time>2025-01-28T14:27:50Z</time>
      </trkpt>
      <trkpt lat="47.62929" lon="-2.83546">
        <ele>16.8</ele>
        <time>2025-01-28T14:27:51Z</time>
      </trkpt>
      <trkpt lat="47.62929" lon="-2.83545">
        <ele>16.7</ele>
        <time>2025-01-28T14:27:52Z</time>
      </trkpt>
      <trkpt lat="47.62928" lon="-2.83543">
        <ele>16.6</ele>
        <time>2025-01-28T14:27:53Z</time>
      </trkpt>
      <trkpt lat="47.62927" lon="-2.83541">
        <ele>16.6</ele>
        <time>2025-01-28T14:27:54Z</time>
      </trkpt>
      <trkpt lat="47.62927" lon="-2.83539">
        <ele>16.5</ele>
        <time>2025-01-28T14:27:55Z</time>
      </trkpt>
      <trkpt lat="47.62926" lon="-2.83537">
        <ele>16.4</ele>
        <time>2025-01-28T14:27:56Z</time>
      </trkpt>
      <trkpt lat="47.62925" lon="-2.83536">
        <ele>16.4</ele>
        <time>2025-01-28T14:27:57Z</time>
      </trkpt>
      <trkpt lat="47.62924" lon="-2.83534">
        <ele>16.3</ele>
        <time>2025-01-28T14:27:58Z</time>
      </trkpt>
      <trkpt lat="47.62923" lon="-2.83533">
        <ele>16.3</ele>
        <time>2025-01-28T14:27:59Z</time>
      </trkpt>
      <trkpt lat="47.62922" lon="-2.83531">
        <ele>16.2</ele>
        <time>2025-01-28T14:28:00Z</time>
      </trkpt>
      <trkpt lat="47.62921" lon="-2.83529">
        <ele>16.2</ele>
        <time>2025-01-28T14:28:01Z</time>
      </trkpt>
      <trkpt lat="47.62921" lon="-2.83527">
        <ele>16.1</ele>
        <time>2025-01-28T14:28:02Z</time>
      </trkpt>
      <trkpt lat="47.6292" lon="-2.83526">
        <ele>16</ele>
        <time>2025-01-28T14:28:03Z</time>
      </trkpt>
      <trkpt lat="47.62919" lon="-2.83524">
        <ele>16</ele>
        <time>2025-01-28T14:28:04Z</time>
      </trkpt>
      <trkpt lat="47.62919" lon="-2.83522">
        <ele>15.9</ele>
        <time>2025-01-28T14:28:05Z</time>
      </trkpt>
      <trkpt lat="47.62918" lon="-2.8352">
        <ele>15.8</ele>
        <time>2025-01-28T14:28:06Z</time>
      </trkpt>
      <trkpt lat="47.62917" lon="-2.83519">
        <ele>15.7</ele>
        <time>2025-01-28T14:28:07Z</time>
      </trkpt>
      <trkpt lat="47.62917" lon="-2.83517">
        <ele>15.6</ele>
        <time>2025-01-28T14:28:08Z</time>
      </trkpt>
      <trkpt lat="47.62917" lon="-2.83515">
        <ele>15.5</ele>
        <time>2025-01-28T14:28:09Z</time>
      </trkpt>
      <trkpt lat="47.62916" lon="-2.83513">
        <ele>15.4</ele>
        <time>2025-01-28T14:28:10Z</time>
      </trkpt>
      <trkpt lat="47.62915" lon="-2.83512">
        <ele>15.3</ele>
        <time>2025-01-28T14:28:11Z</time>
      </trkpt>
      <trkpt lat="47.62915" lon="-2.8351">
        <ele>15.2</ele>
        <time>2025-01-28T14:28:12Z</time>
      </trkpt>
      <trkpt lat="47.62914" lon="-2.83508">
        <ele>15.1</ele>
        <time>2025-01-28T14:28:13Z</time>
      </trkpt>
      <trkpt lat="47.62913" lon="-2.83507">
        <ele>15</ele>
        <time>2025-01-28T14:28:14Z</time>
      </trkpt>
      <trkpt lat="47.62913" lon="-2.83505">
        <ele>14.9</ele>
        <time>2025-01-28T14:28:15Z</time>
      </trkpt>
      <trkpt lat="47.62912" lon="-2.83503">
        <ele>14.8</ele>
        <time>2025-01-28T14:28:16Z</time>
      </trkpt>
      <trkpt lat="47.62911" lon="-2.83502">
        <ele>14.7</ele>
        <time>2025-01-28T14:28:17Z</time>
      </trkpt>
      <trkpt lat="47.6291" lon="-2.835">
        <ele>14.5</ele>
        <time>2025-01-28T14:28:18Z</time>
      </trkpt>
      <trkpt lat="47.62909" lon="-2.83498">
        <ele>14.4</ele>
        <time>2025-01-28T14:28:19Z</time>
      </trkpt>
      <trkpt lat="47.62909" lon="-2.83497">
        <ele>14.4</ele>
        <time>2025-01-28T14:28:20Z</time>
      </trkpt>
      <trkpt lat="47.62908" lon="-2.83495">
        <ele>14.3</ele>
        <time>2025-01-28T14:28:21Z</time>
      </trkpt>
      <trkpt lat="47.62907" lon="-2.83493">
        <ele>14.2</ele>
        <time>2025-01-28T14:28:22Z</time>
      </trkpt>
      <trkpt lat="47.62907" lon="-2.83491">
        <ele>14.2</ele>
        <time>2025-01-28T14:28:23Z</time>
      </trkpt>
      <trkpt lat="47.62906" lon="-2.83489">
        <ele>14.2</ele>
        <time>2025-01-28T14:28:24Z</time>
      </trkpt>
      <trkpt lat="47.62906" lon="-2.83487">
        <ele>14.1</ele>
        <time>2025-01-28T14:28:25Z</time>
      </trkpt>
      <trkpt lat="47.62906" lon="-2.83485">
        <ele>14.1</ele>
        <time>2025-01-28T14:28:26Z</time>
      </trkpt>
      <trkpt lat="47.62905" lon="-2.83483">
        <ele>14.1</ele>
        <time>2025-01-28T14:28:27Z</time>
      </trkpt>
      <trkpt lat="47.62905" lon="-2.83482">
        <ele>14.1</ele>
        <time>2025-01-28T14:28:28Z</time>
      </trkpt>
      <trkpt lat="47.62905" lon="-2.8348">
        <ele>14</ele>
        <time>2025-01-28T14:28:29Z</time>
      </trkpt>
      <trkpt lat="47.62904" lon="-2.83478">
        <ele>14</ele>
        <time>2025-01-28T14:28:30Z</time>
      </trkpt>
      <trkpt lat="47.62903" lon="-2.83476">
        <ele>14</ele>
        <time>2025-01-28T14:28:31Z</time>
      </trkpt>
      <trkpt lat="47.62903" lon="-2.83475">
        <ele>14</ele>
        <time>2025-01-28T14:28:32Z</time>
      </trkpt>
      <trkpt lat="47.62903" lon="-2.83473">
        <ele>14</ele>
        <time>2025-01-28T14:28:33Z</time>
      </trkpt>
      <trkpt lat="47.62903" lon="-2.83471">
        <ele>14</ele>
        <time>2025-01-28T14:28:34Z</time>
      </trkpt>
      <trkpt lat="47.62903" lon="-2.83469">
        <ele>14.1</ele>
        <time>2025-01-28T14:28:35Z</time>
      </trkpt>
      <trkpt lat="47.62903" lon="-2.83467">
        <ele>14.1</ele>
        <time>2025-01-28T14:28:36Z</time>
      </trkpt>
      <trkpt lat="47.62903" lon="-2.83466">
        <ele>14.1</ele>
        <time>2025-01-28T14:28:37Z</time>
      </trkpt>
      <trkpt lat="47.62904" lon="-2.83464">
        <ele>14.1</ele>
        <time>2025-01-28T14:28:38Z</time>
      </trkpt>
      <trkpt lat="47.62905" lon="-2.83462">
        <ele>14.2</ele>
        <time>2025-01-28T14:28:39Z</time>
      </trkpt>
      <trkpt lat="47.62906" lon="-2.83461">
        <ele>14.2</ele>
        <time>2025-01-28T14:28:40Z</time>
      </trkpt>
      <trkpt lat="47.62907" lon="-2.8346">
        <ele>14.2</ele>
        <time>2025-01-28T14:28:41Z</time>
      </trkpt>
      <trkpt lat="47.62908" lon="-2.83458">
        <ele>14.2</ele>
        <time>2025-01-28T14:28:42Z</time>
      </trkpt>
      <trkpt lat="47.6291" lon="-2.83457">
        <ele>14.1</ele>
        <time>2025-01-28T14:28:43Z</time>
      </trkpt>
      <trkpt lat="47.6291" lon="-2.83455">
        <ele>14.1</ele>
        <time>2025-01-28T14:28:44Z</time>
      </trkpt>
      <trkpt lat="47.62911" lon="-2.83453">
        <ele>14.1</ele>
        <time>2025-01-28T14:28:45Z</time>
      </trkpt>
      <trkpt lat="47.62913" lon="-2.83452">
        <ele>14.1</ele>
        <time>2025-01-28T14:28:46Z</time>
      </trkpt>
      <trkpt lat="47.62914" lon="-2.83451">
        <ele>14.1</ele>
        <time>2025-01-28T14:28:47Z</time>
      </trkpt>
      <trkpt lat="47.62915" lon="-2.8345">
        <ele>14.1</ele>
        <time>2025-01-28T14:28:48Z</time>
      </trkpt>
      <trkpt lat="47.62916" lon="-2.83449">
        <ele>14</ele>
        <time>2025-01-28T14:28:49Z</time>
      </trkpt>
      <trkpt lat="47.62917" lon="-2.83447">
        <ele>14</ele>
        <time>2025-01-28T14:28:50Z</time>
      </trkpt>
      <trkpt lat="47.62918" lon="-2.83446">
        <ele>14.1</ele>
        <time>2025-01-28T14:28:51Z</time>
      </trkpt>
      <trkpt lat="47.62918" lon="-2.83444">
        <ele>14.1</ele>
        <time>2025-01-28T14:28:52Z</time>
      </trkpt>
      <trkpt lat="47.62919" lon="-2.83443">
        <ele>14.2</ele>
        <time>2025-01-28T14:28:53Z</time>
      </trkpt>
      <trkpt lat="47.6292" lon="-2.83442">
        <ele>14.3</ele>
        <time>2025-01-28T14:28:54Z</time>
      </trkpt>
      <trkpt lat="47.62921" lon="-2.83441">
        <ele>14.4</ele>
        <time>2025-01-28T14:28:55Z</time>
      </trkpt>
      <trkpt lat="47.62922" lon="-2.8344">
        <ele>14.5</ele>
        <time>2025-01-28T14:28:56Z</time>
      </trkpt>
      <trkpt lat="47.62923" lon="-2.83438">
        <ele>14.6</ele>
        <time>2025-01-28T14:28:57Z</time>
      </trkpt>
      <trkpt lat="47.62924" lon="-2.83437">
        <ele>14.6</ele>
        <time>2025-01-28T14:28:58Z</time>
      </trkpt>
      <trkpt lat="47.62925" lon="-2.83436">
        <ele>14.7</ele>
        <time>2025-01-28T14:28:59Z</time>
      </trkpt>
      <trkpt lat="47.62926" lon="-2.83434">
        <ele>14.8</ele>
        <time>2025-01-28T14:29:00Z</time>
      </trkpt>
      <trkpt lat="47.62927" lon="-2.83433">
        <ele>14.8</ele>
        <time>2025-01-28T14:29:01Z</time>
      </trkpt>
      <trkpt lat="47.62927" lon="-2.83432">
        <ele>14.9</ele>
        <time>2025-01-28T14:29:02Z</time>
      </trkpt>
      <trkpt lat="47.62927" lon="-2.83432">
        <ele>14.9</ele>
        <time>2025-01-28T14:29:03Z</time>
      </trkpt>
      <trkpt lat="47.62928" lon="-2.83431">
        <ele>14.9</ele>
        <time>2025-01-28T14:29:04Z</time>
      </trkpt>
      <trkpt lat="47.62928" lon="-2.8343">
        <ele>14.9</ele>
        <time>2025-01-28T14:29:05Z</time>
      </trkpt>
      <trkpt lat="47.6293" lon="-2.83429">
        <ele>15</ele>
        <time>2025-01-28T14:29:06Z</time>
      </trkpt>
      <trkpt lat="47.6293" lon="-2.83428">
        <ele>15</ele>
        <time>2025-01-28T14:29:07Z</time>
      </trkpt>
      <trkpt lat="47.62931" lon="-2.83427">
        <ele>15</ele>
        <time>2025-01-28T14:29:08Z</time>
      </trkpt>
      <trkpt lat="47.62932" lon="-2.83427">
        <ele>15</ele>
        <time>2025-01-28T14:29:09Z</time>
      </trkpt>
      <trkpt lat="47.62933" lon="-2.83426">
        <ele>15.1</ele>
        <time>2025-01-28T14:29:10Z</time>
      </trkpt>
      <trkpt lat="47.62934" lon="-2.83425">
        <ele>15.1</ele>
        <time>2025-01-28T14:29:11Z</time>
      </trkpt>
      <trkpt lat="47.62935" lon="-2.83424">
        <ele>15.1</ele>
        <time>2025-01-28T14:29:12Z</time>
      </trkpt>
      <trkpt lat="47.62936" lon="-2.83423">
        <ele>15.1</ele>
        <time>2025-01-28T14:29:13Z</time>
      </trkpt>
      <trkpt lat="47.62936" lon="-2.83422">
        <ele>15.1</ele>
        <time>2025-01-28T14:29:14Z</time>
      </trkpt>
      <trkpt lat="47.62937" lon="-2.83421">
        <ele>15.1</ele>
        <time>2025-01-28T14:29:15Z</time>
      </trkpt>
      <trkpt lat="47.62938" lon="-2.8342">
        <ele>15.1</ele>
        <time>2025-01-28T14:29:16Z</time>
      </trkpt>
      <trkpt lat="47.62938" lon="-2.83418">
        <ele>15</ele>
        <time>2025-01-28T14:29:17Z</time>
      </trkpt>
      <trkpt lat="47.62939" lon="-2.83417">
        <ele>15</ele>
        <time>2025-01-28T14:29:18Z</time>
      </trkpt>
      <trkpt lat="47.6294" lon="-2.83416">
        <ele>15</ele>
        <time>2025-01-28T14:29:19Z</time>
      </trkpt>
      <trkpt lat="47.62941" lon="-2.83415">
        <ele>15.1</ele>
        <time>2025-01-28T14:29:20Z</time>
      </trkpt>
      <trkpt lat="47.62942" lon="-2.83414">
        <ele>15.1</ele>
        <time>2025-01-28T14:29:21Z</time>
      </trkpt>
      <trkpt lat="47.62943" lon="-2.83412">
        <ele>15.2</ele>
        <time>2025-01-28T14:29:22Z</time>
      </trkpt>
      <trkpt lat="47.62945" lon="-2.8341">
        <ele>15.3</ele>
        <time>2025-01-28T14:29:23Z</time>
      </trkpt>
      <trkpt lat="47.62946" lon="-2.83408">
        <ele>15.4</ele>
        <time>2025-01-28T14:29:24Z</time>
      </trkpt>
      <trkpt lat="47.62948" lon="-2.83406">
        <ele>15.6</ele>
        <time>2025-01-28T14:29:25Z</time>
      </trkpt>
      <trkpt lat="47.62949" lon="-2.83403">
        <ele>15.7</ele>
        <time>2025-01-28T14:29:26Z</time>
      </trkpt>
      <trkpt lat="47.6295" lon="-2.83401">
        <ele>15.8</ele>
        <time>2025-01-28T14:29:27Z</time>
      </trkpt>
      <trkpt lat="47.62952" lon="-2.83399">
        <ele>15.8</ele>
        <time>2025-01-28T14:29:28Z</time>
      </trkpt>
      <trkpt lat="47.62953" lon="-2.83397">
        <ele>15.9</ele>
        <time>2025-01-28T14:29:29Z</time>
      </trkpt>
      <trkpt lat="47.62955" lon="-2.83395">
        <ele>15.9</ele>
        <time>2025-01-28T14:29:30Z</time>
      </trkpt>
      <trkpt lat="47.62956" lon="-2.83394">
        <ele>16</ele>
        <time>2025-01-28T14:29:31Z</time>
      </trkpt>
      <trkpt lat="47.62958" lon="-2.83392">
        <ele>16</ele>
        <time>2025-01-28T14:29:32Z</time>
      </trkpt>
      <trkpt lat="47.62959" lon="-2.8339">
        <ele>16</ele>
        <time>2025-01-28T14:29:33Z</time>
      </trkpt>
      <trkpt lat="47.6296" lon="-2.83388">
        <ele>16</ele>
        <time>2025-01-28T14:29:34Z</time>
      </trkpt>
      <trkpt lat="47.62961" lon="-2.83386">
        <ele>16.1</ele>
        <time>2025-01-28T14:29:35Z</time>
      </trkpt>
      <trkpt lat="47.62963" lon="-2.83386">
        <ele>16.1</ele>
        <time>2025-01-28T14:29:36Z</time>
      </trkpt>
      <trkpt lat="47.62964" lon="-2.83385">
        <ele>16.1</ele>
        <time>2025-01-28T14:29:37Z</time>
      </trkpt>
      <trkpt lat="47.62966" lon="-2.83383">
        <ele>16.2</ele>
        <time>2025-01-28T14:29:38Z</time>
      </trkpt>
      <trkpt lat="47.62968" lon="-2.83383">
        <ele>16.2</ele>
        <time>2025-01-28T14:29:39Z</time>
      </trkpt>
      <trkpt lat="47.62969" lon="-2.83382">
        <ele>16.2</ele>
        <time>2025-01-28T14:29:40Z</time>
      </trkpt>
      <trkpt lat="47.62971" lon="-2.83382">
        <ele>16.2</ele>
        <time>2025-01-28T14:29:41Z</time>
      </trkpt>
      <trkpt lat="47.62973" lon="-2.83381">
        <ele>16.4</ele>
        <time>2025-01-28T14:29:42Z</time>
      </trkpt>
      <trkpt lat="47.62975" lon="-2.8338">
        <ele>16.6</ele>
        <time>2025-01-28T14:29:43Z</time>
      </trkpt>
      <trkpt lat="47.62975" lon="-2.8338">
        <ele>16.6</ele>
        <time>2025-01-28T14:29:44Z</time>
      </trkpt>
      <trkpt lat="47.62976" lon="-2.83379">
        <ele>16.7</ele>
        <time>2025-01-28T14:29:45Z</time>
      </trkpt>
      <trkpt lat="47.62978" lon="-2.83379">
        <ele>16.8</ele>
        <time>2025-01-28T14:29:46Z</time>
      </trkpt>
      <trkpt lat="47.62979" lon="-2.83377">
        <ele>17</ele>
        <time>2025-01-28T14:29:47Z</time>
      </trkpt>
      <trkpt lat="47.62981" lon="-2.83376">
        <ele>17.1</ele>
        <time>2025-01-28T14:29:48Z</time>
      </trkpt>
      <trkpt lat="47.62982" lon="-2.83376">
        <ele>17.2</ele>
        <time>2025-01-28T14:29:49Z</time>
      </trkpt>
      <trkpt lat="47.62983" lon="-2.83375">
        <ele>17.3</ele>
        <time>2025-01-28T14:29:50Z</time>
      </trkpt>
      <trkpt lat="47.62984" lon="-2.83375">
        <ele>17.3</ele>
        <time>2025-01-28T14:29:51Z</time>
      </trkpt>
      <trkpt lat="47.62985" lon="-2.83374">
        <ele>17.4</ele>
        <time>2025-01-28T14:29:52Z</time>
      </trkpt>
      <trkpt lat="47.62986" lon="-2.83374">
        <ele>17.5</ele>
        <time>2025-01-28T14:29:53Z</time>
      </trkpt>
      <trkpt lat="47.62988" lon="-2.83374">
        <ele>17.6</ele>
        <time>2025-01-28T14:29:54Z</time>
      </trkpt>
      <trkpt lat="47.62989" lon="-2.83374">
        <ele>17.6</ele>
        <time>2025-01-28T14:29:55Z</time>
      </trkpt>
      <trkpt lat="47.6299" lon="-2.83373">
        <ele>17.7</ele>
        <time>2025-01-28T14:29:56Z</time>
      </trkpt>
      <trkpt lat="47.62992" lon="-2.83372">
        <ele>17.7</ele>
        <time>2025-01-28T14:29:57Z</time>
      </trkpt>
      <trkpt lat="47.62993" lon="-2.83371">
        <ele>17.7</ele>
        <time>2025-01-28T14:29:58Z</time>
      </trkpt>
      <trkpt lat="47.62994" lon="-2.8337">
        <ele>17.7</ele>
        <time>2025-01-28T14:29:59Z</time>
      </trkpt>
      <trkpt lat="47.62995" lon="-2.83369">
        <ele>17.7</ele>
        <time>2025-01-28T14:30:00Z</time>
      </trkpt>
      <trkpt lat="47.62996" lon="-2.83369">
        <ele>17.6</ele>
        <time>2025-01-28T14:30:01Z</time>
      </trkpt>
      <trkpt lat="47.62997" lon="-2.83368">
        <ele>17.6</ele>
        <time>2025-01-28T14:30:02Z</time>
      </trkpt>
      <trkpt lat="47.62998" lon="-2.83367">
        <ele>17.6</ele>
        <time>2025-01-28T14:30:03Z</time>
      </trkpt>
      <trkpt lat="47.62999" lon="-2.83367">
        <ele>17.6</ele>
        <time>2025-01-28T14:30:04Z</time>
      </trkpt>
      <trkpt lat="47.63" lon="-2.83367">
        <ele>17.6</ele>
        <time>2025-01-28T14:30:05Z</time>
      </trkpt>
      <trkpt lat="47.63002" lon="-2.83365">
        <ele>17.6</ele>
        <time>2025-01-28T14:30:06Z</time>
      </trkpt>
      <trkpt lat="47.63002" lon="-2.83363">
        <ele>17.4</ele>
        <time>2025-01-28T14:30:07Z</time>
      </trkpt>
      <trkpt lat="47.63004" lon="-2.83362">
        <ele>17.5</ele>
        <time>2025-01-28T14:30:08Z</time>
      </trkpt>
      <trkpt lat="47.63004" lon="-2.83361">
        <ele>17.5</ele>
        <time>2025-01-28T14:30:09Z</time>
      </trkpt>
      <trkpt lat="47.63006" lon="-2.83361">
        <ele>17.6</ele>
        <time>2025-01-28T14:30:10Z</time>
      </trkpt>
      <trkpt lat="47.63007" lon="-2.8336">
        <ele>17.7</ele>
        <time>2025-01-28T14:30:11Z</time>
      </trkpt>
      <trkpt lat="47.63008" lon="-2.8336">
        <ele>17.9</ele>
        <time>2025-01-28T14:30:12Z</time>
      </trkpt>
      <trkpt lat="47.63009" lon="-2.8336">
        <ele>18</ele>
        <time>2025-01-28T14:30:13Z</time>
      </trkpt>
      <trkpt lat="47.6301" lon="-2.8336">
        <ele>18.1</ele>
        <time>2025-01-28T14:30:14Z</time>
      </trkpt>
      <trkpt lat="47.63011" lon="-2.83359">
        <ele>18.2</ele>
        <time>2025-01-28T14:30:15Z</time>
      </trkpt>
      <trkpt lat="47.63012" lon="-2.83358">
        <ele>18.3</ele>
        <time>2025-01-28T14:30:16Z</time>
      </trkpt>
      <trkpt lat="47.63013" lon="-2.83357">
        <ele>18.4</ele>
        <time>2025-01-28T14:30:17Z</time>
      </trkpt>
      <trkpt lat="47.63014" lon="-2.83357">
        <ele>18.5</ele>
        <time>2025-01-28T14:30:18Z</time>
      </trkpt>
      <trkpt lat="47.63015" lon="-2.83356">
        <ele>18.6</ele>
        <time>2025-01-28T14:30:19Z</time>
      </trkpt>
      <trkpt lat="47.63016" lon="-2.83355">
        <ele>18.7</ele>
        <time>2025-01-28T14:30:20Z</time>
      </trkpt>
      <trkpt lat="47.63017" lon="-2.83355">
        <ele>18.8</ele>
        <time>2025-01-28T14:30:21Z</time>
      </trkpt>
      <trkpt lat="47.63018" lon="-2.83356">
        <ele>18.9</ele>
        <time>2025-01-28T14:30:22Z</time>
      </trkpt>
      <trkpt lat="47.63019" lon="-2.83355">
        <ele>19</ele>
        <time>2025-01-28T14:30:23Z</time>
      </trkpt>
      <trkpt lat="47.6302" lon="-2.83355">
        <ele>19.1</ele>
        <time>2025-01-28T14:30:24Z</time>
      </trkpt>
      <trkpt lat="47.63022" lon="-2.83354">
        <ele>19.2</ele>
        <time>2025-01-28T14:30:25Z</time>
      </trkpt>
      <trkpt lat="47.63023" lon="-2.83353">
        <ele>19.3</ele>
        <time>2025-01-28T14:30:26Z</time>
      </trkpt>
      <trkpt lat="47.63024" lon="-2.83353">
        <ele>19.4</ele>
        <time>2025-01-28T14:30:27Z</time>
      </trkpt>
      <trkpt lat="47.63025" lon="-2.83352">
        <ele>19.4</ele>
        <time>2025-01-28T14:30:28Z</time>
      </trkpt>
      <trkpt lat="47.63026" lon="-2.83351">
        <ele>19.5</ele>
        <time>2025-01-28T14:30:29Z</time>
      </trkpt>
      <trkpt lat="47.63027" lon="-2.8335">
        <ele>19.5</ele>
        <time>2025-01-28T14:30:30Z</time>
      </trkpt>
      <trkpt lat="47.63028" lon="-2.8335">
        <ele>19.6</ele>
        <time>2025-01-28T14:30:31Z</time>
      </trkpt>
      <trkpt lat="47.63029" lon="-2.83349">
        <ele>19.7</ele>
        <time>2025-01-28T14:30:32Z</time>
      </trkpt>
      <trkpt lat="47.63031" lon="-2.83349">
        <ele>19.8</ele>
        <time>2025-01-28T14:30:33Z</time>
      </trkpt>
      <trkpt lat="47.63032" lon="-2.83348">
        <ele>19.9</ele>
        <time>2025-01-28T14:30:34Z</time>
      </trkpt>
      <trkpt lat="47.63033" lon="-2.83347">
        <ele>19.9</ele>
        <time>2025-01-28T14:30:35Z</time>
      </trkpt>
      <trkpt lat="47.63034" lon="-2.83346">
        <ele>20</ele>
        <time>2025-01-28T14:30:36Z</time>
      </trkpt>
      <trkpt lat="47.63035" lon="-2.83345">
        <ele>20</ele>
        <time>2025-01-28T14:30:37Z</time>
      </trkpt>
      <trkpt lat="47.63036" lon="-2.83344">
        <ele>20.1</ele>
        <time>2025-01-28T14:30:38Z</time>
      </trkpt>
      <trkpt lat="47.63037" lon="-2.83343">
        <ele>20.2</ele>
        <time>2025-01-28T14:30:39Z</time>
      </trkpt>
      <trkpt lat="47.63038" lon="-2.83342">
        <ele>20.2</ele>
        <time>2025-01-28T14:30:40Z</time>
      </trkpt>
      <trkpt lat="47.6304" lon="-2.83341">
        <ele>20.2</ele>
        <time>2025-01-28T14:30:41Z</time>
      </trkpt>
      <trkpt lat="47.63041" lon="-2.8334">
        <ele>20.3</ele>
        <time>2025-01-28T14:30:42Z</time>
      </trkpt>
      <trkpt lat="47.63042" lon="-2.83339">
        <ele>20.3</ele>
        <time>2025-01-28T14:30:43Z</time>
      </trkpt>
      <trkpt lat="47.63043" lon="-2.83338">
        <ele>20.4</ele>
        <time>2025-01-28T14:30:44Z</time>
      </trkpt>
      <trkpt lat="47.63044" lon="-2.83338">
        <ele>20.4</ele>
        <time>2025-01-28T14:30:45Z</time>
      </trkpt>
      <trkpt lat="47.63045" lon="-2.83337">
        <ele>20.5</ele>
        <time>2025-01-28T14:30:46Z</time>
      </trkpt>
      <trkpt lat="47.63046" lon="-2.83337">
        <ele>20.5</ele>
        <time>2025-01-28T14:30:47Z</time>
      </trkpt>
      <trkpt lat="47.63047" lon="-2.83336">
        <ele>20.5</ele>
        <time>2025-01-28T14:30:48Z</time>
      </trkpt>
      <trkpt lat="47.63048" lon="-2.83335">
        <ele>20.6</ele>
        <time>2025-01-28T14:30:49Z</time>
      </trkpt>
      <trkpt lat="47.63049" lon="-2.83334">
        <ele>20.6</ele>
        <time>2025-01-28T14:30:50Z</time>
      </trkpt>
      <trkpt lat="47.6305" lon="-2.83334">
        <ele>20.6</ele>
        <time>2025-01-28T14:30:51Z</time>
      </trkpt>
      <trkpt lat="47.63051" lon="-2.83333">
        <ele>20.7</ele>
        <time>2025-01-28T14:30:52Z</time>
      </trkpt>
      <trkpt lat="47.63052" lon="-2.83333">
        <ele>20.8</ele>
        <time>2025-01-28T14:30:53Z</time>
      </trkpt>
      <trkpt lat="47.63054" lon="-2.83332">
        <ele>20.9</ele>
        <time>2025-01-28T14:30:54Z</time>
      </trkpt>
      <trkpt lat="47.63055" lon="-2.83331">
        <ele>21</ele>
        <time>2025-01-28T14:30:55Z</time>
      </trkpt>
      <trkpt lat="47.63056" lon="-2.8333">
        <ele>21.1</ele>
        <time>2025-01-28T14:30:56Z</time>
      </trkpt>
      <trkpt lat="47.63057" lon="-2.83329">
        <ele>21.2</ele>
        <time>2025-01-28T14:30:57Z</time>
      </trkpt>
      <trkpt lat="47.63058" lon="-2.83327">
        <ele>21.3</ele>
        <time>2025-01-28T14:30:58Z</time>
      </trkpt>
      <trkpt lat="47.63059" lon="-2.83326">
        <ele>21.3</ele>
        <time>2025-01-28T14:30:59Z</time>
      </trkpt>
      <trkpt lat="47.63059" lon="-2.83324">
        <ele>21.4</ele>
        <time>2025-01-28T14:31:00Z</time>
      </trkpt>
      <trkpt lat="47.6306" lon="-2.83323">
        <ele>21.4</ele>
        <time>2025-01-28T14:31:01Z</time>
      </trkpt>
      <trkpt lat="47.63061" lon="-2.83322">
        <ele>21.5</ele>
        <time>2025-01-28T14:31:02Z</time>
      </trkpt>
      <trkpt lat="47.63061" lon="-2.8332">
        <ele>21.5</ele>
        <time>2025-01-28T14:31:03Z</time>
      </trkpt>
      <trkpt lat="47.63061" lon="-2.83318">
        <ele>21.5</ele>
        <time>2025-01-28T14:31:04Z</time>
      </trkpt>
      <trkpt lat="47.63061" lon="-2.83317">
        <ele>21.5</ele>
        <time>2025-01-28T14:31:05Z</time>
      </trkpt>
      <trkpt lat="47.63061" lon="-2.83316">
        <ele>21.6</ele>
        <time>2025-01-28T14:31:06Z</time>
      </trkpt>
      <trkpt lat="47.63061" lon="-2.83314">
        <ele>21.6</ele>
        <time>2025-01-28T14:31:07Z</time>
      </trkpt>
      <trkpt lat="47.6306" lon="-2.83313">
        <ele>21.7</ele>
        <time>2025-01-28T14:31:08Z</time>
      </trkpt>
      <trkpt lat="47.6306" lon="-2.83311">
        <ele>21.7</ele>
        <time>2025-01-28T14:31:09Z</time>
      </trkpt>
      <trkpt lat="47.63059" lon="-2.83309">
        <ele>21.8</ele>
        <time>2025-01-28T14:31:10Z</time>
      </trkpt>
      <trkpt lat="47.63059" lon="-2.83308">
        <ele>21.8</ele>
        <time>2025-01-28T14:31:11Z</time>
      </trkpt>
      <trkpt lat="47.63058" lon="-2.83307">
        <ele>21.9</ele>
        <time>2025-01-28T14:31:12Z</time>
      </trkpt>
      <trkpt lat="47.63057" lon="-2.83305">
        <ele>22</ele>
        <time>2025-01-28T14:31:13Z</time>
      </trkpt>
      <trkpt lat="47.63057" lon="-2.83304">
        <ele>22.1</ele>
        <time>2025-01-28T14:31:14Z</time>
      </trkpt>
      <trkpt lat="47.63056" lon="-2.83303">
        <ele>22.2</ele>
        <time>2025-01-28T14:31:15Z</time>
      </trkpt>
      <trkpt lat="47.63055" lon="-2.83301">
        <ele>22.3</ele>
        <time>2025-01-28T14:31:16Z</time>
      </trkpt>
      <trkpt lat="47.63055" lon="-2.833">
        <ele>22.4</ele>
        <time>2025-01-28T14:31:17Z</time>
      </trkpt>
      <trkpt lat="47.63055" lon="-2.83298">
        <ele>22.5</ele>
        <time>2025-01-28T14:31:18Z</time>
      </trkpt>
      <trkpt lat="47.63054" lon="-2.83297">
        <ele>22.6</ele>
        <time>2025-01-28T14:31:19Z</time>
      </trkpt>
      <trkpt lat="47.63054" lon="-2.83296">
        <ele>22.7</ele>
        <time>2025-01-28T14:31:20Z</time>
      </trkpt>
      <trkpt lat="47.63053" lon="-2.83294">
        <ele>22.8</ele>
        <time>2025-01-28T14:31:21Z</time>
      </trkpt>
      <trkpt lat="47.63053" lon="-2.83293">
        <ele>22.9</ele>
        <time>2025-01-28T14:31:22Z</time>
      </trkpt>
      <trkpt lat="47.63052" lon="-2.83292">
        <ele>23</ele>
        <time>2025-01-28T14:31:23Z</time>
      </trkpt>
      <trkpt lat="47.63052" lon="-2.8329">
        <ele>23.1</ele>
        <time>2025-01-28T14:31:24Z</time>
      </trkpt>
      <trkpt lat="47.63051" lon="-2.83289">
        <ele>23.2</ele>
        <time>2025-01-28T14:31:25Z</time>
      </trkpt>
      <trkpt lat="47.6305" lon="-2.83288">
        <ele>23.3</ele>
        <time>2025-01-28T14:31:26Z</time>
      </trkpt>
      <trkpt lat="47.6305" lon="-2.83286">
        <ele>23.4</ele>
        <time>2025-01-28T14:31:27Z</time>
      </trkpt>
      <trkpt lat="47.63049" lon="-2.83285">
        <ele>23.5</ele>
        <time>2025-01-28T14:31:28Z</time>
      </trkpt>
      <trkpt lat="47.63048" lon="-2.83284">
        <ele>23.6</ele>
        <time>2025-01-28T14:31:29Z</time>
      </trkpt>
      <trkpt lat="47.63047" lon="-2.83283">
        <ele>23.7</ele>
        <time>2025-01-28T14:31:30Z</time>
      </trkpt>
      <trkpt lat="47.63047" lon="-2.83281">
        <ele>23.8</ele>
        <time>2025-01-28T14:31:31Z</time>
      </trkpt>
      <trkpt lat="47.63046" lon="-2.8328">
        <ele>23.9</ele>
        <time>2025-01-28T14:31:32Z</time>
      </trkpt>
      <trkpt lat="47.63045" lon="-2.83278">
        <ele>24</ele>
        <time>2025-01-28T14:31:33Z</time>
      </trkpt>
      <trkpt lat="47.63045" lon="-2.83277">
        <ele>24.1</ele>
        <time>2025-01-28T14:31:34Z</time>
      </trkpt>
      <trkpt lat="47.63044" lon="-2.83275">
        <ele>24.2</ele>
        <time>2025-01-28T14:31:35Z</time>
      </trkpt>
      <trkpt lat="47.63043" lon="-2.83274">
        <ele>24.4</ele>
        <time>2025-01-28T14:31:36Z</time>
      </trkpt>
      <trkpt lat="47.63042" lon="-2.83272">
        <ele>24.5</ele>
        <time>2025-01-28T14:31:37Z</time>
      </trkpt>
      <trkpt lat="47.63041" lon="-2.83271">
        <ele>24.6</ele>
        <time>2025-01-28T14:31:38Z</time>
      </trkpt>
      <trkpt lat="47.63041" lon="-2.83269">
        <ele>24.7</ele>
        <time>2025-01-28T14:31:39Z</time>
      </trkpt>
      <trkpt lat="47.6304" lon="-2.83268">
        <ele>24.9</ele>
        <time>2025-01-28T14:31:40Z</time>
      </trkpt>
      <trkpt lat="47.63039" lon="-2.83267">
        <ele>25</ele>
        <time>2025-01-28T14:31:41Z</time>
      </trkpt>
      <trkpt lat="47.63039" lon="-2.83265">
        <ele>25.1</ele>
        <time>2025-01-28T14:31:42Z</time>
      </trkpt>
      <trkpt lat="47.63038" lon="-2.83263">
        <ele>25.2</ele>
        <time>2025-01-28T14:31:43Z</time>
      </trkpt>
      <trkpt lat="47.63037" lon="-2.83262">
        <ele>25.3</ele>
        <time>2025-01-28T14:31:44Z</time>
      </trkpt>
      <trkpt lat="47.63037" lon="-2.8326">
        <ele>25.5</ele>
        <time>2025-01-28T14:31:45Z</time>
      </trkpt>
      <trkpt lat="47.63036" lon="-2.83258">
        <ele>25.6</ele>
        <time>2025-01-28T14:31:46Z</time>
      </trkpt>
      <trkpt lat="47.63036" lon="-2.83257">
        <ele>25.8</ele>
        <time>2025-01-28T14:31:47Z</time>
      </trkpt>
      <trkpt lat="47.63036" lon="-2.83255">
        <ele>25.9</ele>
        <time>2025-01-28T14:31:48Z</time>
      </trkpt>
      <trkpt lat="47.63035" lon="-2.83254">
        <ele>26</ele>
        <time>2025-01-28T14:31:49Z</time>
      </trkpt>
      <trkpt lat="47.63034" lon="-2.83252">
        <ele>26.1</ele>
        <time>2025-01-28T14:31:50Z</time>
      </trkpt>
      <trkpt lat="47.63034" lon="-2.83251">
        <ele>26.2</ele>
        <time>2025-01-28T14:31:51Z</time>
      </trkpt>
      <trkpt lat="47.63033" lon="-2.83249">
        <ele>26.2</ele>
        <time>2025-01-28T14:31:52Z</time>
      </trkpt>
      <trkpt lat="47.63032" lon="-2.83248">
        <ele>26.3</ele>
        <time>2025-01-28T14:31:53Z</time>
      </trkpt>
      <trkpt lat="47.63031" lon="-2.83247">
        <ele>26.4</ele>
        <time>2025-01-28T14:31:54Z</time>
      </trkpt>
      <trkpt lat="47.6303" lon="-2.83245">
        <ele>26.5</ele>
        <time>2025-01-28T14:31:55Z</time>
      </trkpt>
      <trkpt lat="47.6303" lon="-2.83243">
        <ele>26.6</ele>
        <time>2025-01-28T14:31:56Z</time>
      </trkpt>
      <trkpt lat="47.63029" lon="-2.83241">
        <ele>26.7</ele>
        <time>2025-01-28T14:31:57Z</time>
      </trkpt>
      <trkpt lat="47.63029" lon="-2.8324">
        <ele>26.7</ele>
        <time>2025-01-28T14:31:58Z</time>
      </trkpt>
      <trkpt lat="47.63028" lon="-2.83239">
        <ele>26.8</ele>
        <time>2025-01-28T14:31:59Z</time>
      </trkpt>
      <trkpt lat="47.63027" lon="-2.83238">
        <ele>26.9</ele>
        <time>2025-01-28T14:32:00Z</time>
      </trkpt>
      <trkpt lat="47.63026" lon="-2.83237">
        <ele>27</ele>
        <time>2025-01-28T14:32:01Z</time>
      </trkpt>
      <trkpt lat="47.63026" lon="-2.83235">
        <ele>27.1</ele>
        <time>2025-01-28T14:32:02Z</time>
      </trkpt>
      <trkpt lat="47.63026" lon="-2.83234">
        <ele>27.2</ele>
        <time>2025-01-28T14:32:03Z</time>
      </trkpt>
      <trkpt lat="47.63025" lon="-2.83233">
        <ele>27.3</ele>
        <time>2025-01-28T14:32:04Z</time>
      </trkpt>
      <trkpt lat="47.63025" lon="-2.83231">
        <ele>27.3</ele>
        <time>2025-01-28T14:32:05Z</time>
      </trkpt>
      <trkpt lat="47.63024" lon="-2.8323">
        <ele>27.4</ele>
        <time>2025-01-28T14:32:06Z</time>
      </trkpt>
      <trkpt lat="47.63024" lon="-2.83229">
        <ele>27.5</ele>
        <time>2025-01-28T14:32:07Z</time>
      </trkpt>
      <trkpt lat="47.63023" lon="-2.83227">
        <ele>27.6</ele>
        <time>2025-01-28T14:32:08Z</time>
      </trkpt>
      <trkpt lat="47.63022" lon="-2.83226">
        <ele>27.7</ele>
        <time>2025-01-28T14:32:09Z</time>
      </trkpt>
      <trkpt lat="47.63021" lon="-2.83225">
        <ele>27.8</ele>
        <time>2025-01-28T14:32:10Z</time>
      </trkpt>
      <trkpt lat="47.63021" lon="-2.83224">
        <ele>27.9</ele>
        <time>2025-01-28T14:32:11Z</time>
      </trkpt>
      <trkpt lat="47.6302" lon="-2.83222">
        <ele>28</ele>
        <time>2025-01-28T14:32:12Z</time>
      </trkpt>
      <trkpt lat="47.63019" lon="-2.83221">
        <ele>28.1</ele>
        <time>2025-01-28T14:32:13Z</time>
      </trkpt>
      <trkpt lat="47.63019" lon="-2.83219">
        <ele>28.2</ele>
        <time>2025-01-28T14:32:14Z</time>
      </trkpt>
      <trkpt lat="47.63018" lon="-2.83218">
        <ele>28.3</ele>
        <time>2025-01-28T14:32:15Z</time>
      </trkpt>
      <trkpt lat="47.63017" lon="-2.83216">
        <ele>28.4</ele>
        <time>2025-01-28T14:32:16Z</time>
      </trkpt>
      <trkpt lat="47.63017" lon="-2.83215">
        <ele>28.5</ele>
        <time>2025-01-28T14:32:17Z</time>
      </trkpt>
      <trkpt lat="47.63016" lon="-2.83213">
        <ele>28.7</ele>
        <time>2025-01-28T14:32:18Z</time>
      </trkpt>
      <trkpt lat="47.63016" lon="-2.83212">
        <ele>28.8</ele>
        <time>2025-01-28T14:32:19Z</time>
      </trkpt>
      <trkpt lat="47.63015" lon="-2.8321">
        <ele>28.9</ele>
        <time>2025-01-28T14:32:20Z</time>
      </trkpt>
      <trkpt lat="47.63015" lon="-2.83208">
        <ele>29</ele>
        <time>2025-01-28T14:32:21Z</time>
      </trkpt>
      <trkpt lat="47.63014" lon="-2.83207">
        <ele>29.1</ele>
        <time>2025-01-28T14:32:22Z</time>
      </trkpt>
      <trkpt lat="47.63013" lon="-2.83205">
        <ele>29.2</ele>
        <time>2025-01-28T14:32:23Z</time>
      </trkpt>
      <trkpt lat="47.63013" lon="-2.83204">
        <ele>29.3</ele>
        <time>2025-01-28T14:32:24Z</time>
      </trkpt>
      <trkpt lat="47.63012" lon="-2.83203">
        <ele>29.4</ele>
        <time>2025-01-28T14:32:25Z</time>
      </trkpt>
      <trkpt lat="47.63012" lon="-2.83201">
        <ele>29.5</ele>
        <time>2025-01-28T14:32:26Z</time>
      </trkpt>
      <trkpt lat="47.63011" lon="-2.832">
        <ele>29.6</ele>
        <time>2025-01-28T14:32:27Z</time>
      </trkpt>
      <trkpt lat="47.63011" lon="-2.83198">
        <ele>29.7</ele>
        <time>2025-01-28T14:32:28Z</time>
      </trkpt>
      <trkpt lat="47.6301" lon="-2.83197">
        <ele>29.8</ele>
        <time>2025-01-28T14:32:29Z</time>
      </trkpt>
      <trkpt lat="47.6301" lon="-2.83196">
        <ele>29.9</ele>
        <time>2025-01-28T14:32:30Z</time>
      </trkpt>
      <trkpt lat="47.63009" lon="-2.83195">
        <ele>30</ele>
        <time>2025-01-28T14:32:31Z</time>
      </trkpt>
      <trkpt lat="47.63009" lon="-2.83193">
        <ele>30.1</ele>
        <time>2025-01-28T14:32:32Z</time>
      </trkpt>
      <trkpt lat="47.63008" lon="-2.83192">
        <ele>30.1</ele>
        <time>2025-01-28T14:32:33Z</time>
      </trkpt>
      <trkpt lat="47.63008" lon="-2.8319">
        <ele>30.2</ele>
        <time>2025-01-28T14:32:34Z</time>
      </trkpt>
      <trkpt lat="47.63007" lon="-2.83189">
        <ele>30.3</ele>
        <time>2025-01-28T14:32:35Z</time>
      </trkpt>
      <trkpt lat="47.63007" lon="-2.83187">
        <ele>30.3</ele>
        <time>2025-01-28T14:32:36Z</time>
      </trkpt>
      <trkpt lat="47.63007" lon="-2.83185">
        <ele>30.4</ele>
        <time>2025-01-28T14:32:37Z</time>
      </trkpt>
      <trkpt lat="47.63006" lon="-2.83184">
        <ele>30.5</ele>
        <time>2025-01-28T14:32:38Z</time>
      </trkpt>
      <trkpt lat="47.63005" lon="-2.83182">
        <ele>30.5</ele>
        <time>2025-01-28T14:32:39Z</time>
      </trkpt>
      <trkpt lat="47.63005" lon="-2.83181">
        <ele>30.6</ele>
        <time>2025-01-28T14:32:40Z</time>
      </trkpt>
      <trkpt lat="47.63004" lon="-2.83179">
        <ele>30.6</ele>
        <time>2025-01-28T14:32:41Z</time>
      </trkpt>
      <trkpt lat="47.63004" lon="-2.83177">
        <ele>30.7</ele>
        <time>2025-01-28T14:32:42Z</time>
      </trkpt>
      <trkpt lat="47.63003" lon="-2.83176">
        <ele>30.7</ele>
        <time>2025-01-28T14:32:43Z</time>
      </trkpt>
      <trkpt lat="47.63002" lon="-2.83175">
        <ele>30.8</ele>
        <time>2025-01-28T14:32:44Z</time>
      </trkpt>
      <trkpt lat="47.63002" lon="-2.83172">
        <ele>30.9</ele>
        <time>2025-01-28T14:32:45Z</time>
      </trkpt>
      <trkpt lat="47.63002" lon="-2.83171">
        <ele>30.9</ele>
        <time>2025-01-28T14:32:46Z</time>
      </trkpt>
      <trkpt lat="47.63001" lon="-2.83169">
        <ele>31</ele>
        <time>2025-01-28T14:32:47Z</time>
      </trkpt>
      <trkpt lat="47.63001" lon="-2.83167">
        <ele>31</ele>
        <time>2025-01-28T14:32:48Z</time>
      </trkpt>
      <trkpt lat="47.63001" lon="-2.83165">
        <ele>31.2</ele>
        <time>2025-01-28T14:32:49Z</time>
      </trkpt>
      <trkpt lat="47.63" lon="-2.83163">
        <ele>31.3</ele>
        <time>2025-01-28T14:32:50Z</time>
      </trkpt>
      <trkpt lat="47.63" lon="-2.83162">
        <ele>31.4</ele>
        <time>2025-01-28T14:32:51Z</time>
      </trkpt>
      <trkpt lat="47.62999" lon="-2.8316">
        <ele>31.5</ele>
        <time>2025-01-28T14:32:52Z</time>
      </trkpt>
      <trkpt lat="47.62999" lon="-2.83158">
        <ele>31.5</ele>
        <time>2025-01-28T14:32:53Z</time>
      </trkpt>
      <trkpt lat="47.62998" lon="-2.83156">
        <ele>31.7</ele>
        <time>2025-01-28T14:32:54Z</time>
      </trkpt>
      <trkpt lat="47.62998" lon="-2.83155">
        <ele>31.8</ele>
        <time>2025-01-28T14:32:55Z</time>
      </trkpt>
      <trkpt lat="47.62998" lon="-2.83153">
        <ele>31.9</ele>
        <time>2025-01-28T14:32:56Z</time>
      </trkpt>
      <trkpt lat="47.62997" lon="-2.83151">
        <ele>32</ele>
        <time>2025-01-28T14:32:57Z</time>
      </trkpt>
      <trkpt lat="47.62997" lon="-2.8315">
        <ele>32</ele>
        <time>2025-01-28T14:32:58Z</time>
      </trkpt>
      <trkpt lat="47.62996" lon="-2.83148">
        <ele>32.1</ele>
        <time>2025-01-28T14:32:59Z</time>
      </trkpt>
      <trkpt lat="47.62996" lon="-2.83146">
        <ele>32.2</ele>
        <time>2025-01-28T14:33:00Z</time>
      </trkpt>
      <trkpt lat="47.62996" lon="-2.83145">
        <ele>32.3</ele>
        <time>2025-01-28T14:33:01Z</time>
      </trkpt>
      <trkpt lat="47.62995" lon="-2.83143">
        <ele>32.4</ele>
        <time>2025-01-28T14:33:02Z</time>
      </trkpt>
      <trkpt lat="47.62995" lon="-2.83141">
        <ele>32.5</ele>
        <time>2025-01-28T14:33:03Z</time>
      </trkpt>
      <trkpt lat="47.62995" lon="-2.83139">
        <ele>32.6</ele>
        <time>2025-01-28T14:33:04Z</time>
      </trkpt>
      <trkpt lat="47.62994" lon="-2.83138">
        <ele>32.6</ele>
        <time>2025-01-28T14:33:05Z</time>
      </trkpt>
      <trkpt lat="47.62994" lon="-2.83136">
        <ele>32.7</ele>
        <time>2025-01-28T14:33:06Z</time>
      </trkpt>
      <trkpt lat="47.62993" lon="-2.83135">
        <ele>32.7</ele>
        <time>2025-01-28T14:33:07Z</time>
      </trkpt>
      <trkpt lat="47.62993" lon="-2.83133">
        <ele>32.7</ele>
        <time>2025-01-28T14:33:08Z</time>
      </trkpt>
      <trkpt lat="47.62993" lon="-2.83131">
        <ele>32.7</ele>
        <time>2025-01-28T14:33:09Z</time>
      </trkpt>
      <trkpt lat="47.62992" lon="-2.83129">
        <ele>32.8</ele>
        <time>2025-01-28T14:33:10Z</time>
      </trkpt>
      <trkpt lat="47.62991" lon="-2.83128">
        <ele>32.8</ele>
        <time>2025-01-28T14:33:11Z</time>
      </trkpt>
      <trkpt lat="47.62991" lon="-2.83126">
        <ele>32.8</ele>
        <time>2025-01-28T14:33:12Z</time>
      </trkpt>
      <trkpt lat="47.6299" lon="-2.83124">
        <ele>32.8</ele>
        <time>2025-01-28T14:33:13Z</time>
      </trkpt>
      <trkpt lat="47.6299" lon="-2.83122">
        <ele>32.9</ele>
        <time>2025-01-28T14:33:14Z</time>
      </trkpt>
      <trkpt lat="47.62989" lon="-2.83121">
        <ele>32.9</ele>
        <time>2025-01-28T14:33:15Z</time>
      </trkpt>
      <trkpt lat="47.62989" lon="-2.83119">
        <ele>32.9</ele>
        <time>2025-01-28T14:33:16Z</time>
      </trkpt>
      <trkpt lat="47.62988" lon="-2.83118">
        <ele>32.9</ele>
        <time>2025-01-28T14:33:17Z</time>
      </trkpt>
      <trkpt lat="47.62988" lon="-2.83116">
        <ele>33</ele>
        <time>2025-01-28T14:33:18Z</time>
      </trkpt>
      <trkpt lat="47.62987" lon="-2.83114">
        <ele>33</ele>
        <time>2025-01-28T14:33:19Z</time>
      </trkpt>
      <trkpt lat="47.62987" lon="-2.83112">
        <ele>33</ele>
        <time>2025-01-28T14:33:20Z</time>
      </trkpt>
      <trkpt lat="47.62986" lon="-2.8311">
        <ele>33.1</ele>
        <time>2025-01-28T14:33:21Z</time>
      </trkpt>
      <trkpt lat="47.62986" lon="-2.83108">
        <ele>33.1</ele>
        <time>2025-01-28T14:33:22Z</time>
      </trkpt>
      <trkpt lat="47.62986" lon="-2.83107">
        <ele>33.1</ele>
        <time>2025-01-28T14:33:23Z</time>
      </trkpt>
      <trkpt lat="47.62985" lon="-2.83105">
        <ele>33.1</ele>
        <time>2025-01-28T14:33:24Z</time>
      </trkpt>
      <trkpt lat="47.62985" lon="-2.83104">
        <ele>33.2</ele>
        <time>2025-01-28T14:33:25Z</time>
      </trkpt>
      <trkpt lat="47.62984" lon="-2.83102">
        <ele>33.2</ele>
        <time>2025-01-28T14:33:26Z</time>
      </trkpt>
      <trkpt lat="47.62984" lon="-2.83101">
        <ele>33.2</ele>
        <time>2025-01-28T14:33:27Z</time>
      </trkpt>
      <trkpt lat="47.62983" lon="-2.83099">
        <ele>33.2</ele>
        <time>2025-01-28T14:33:28Z</time>
      </trkpt>
      <trkpt lat="47.62982" lon="-2.83097">
        <ele>33.2</ele>
        <time>2025-01-28T14:33:29Z</time>
      </trkpt>
      <trkpt lat="47.62982" lon="-2.83096">
        <ele>33.3</ele>
        <time>2025-01-28T14:33:30Z</time>
      </trkpt>
      <trkpt lat="47.62981" lon="-2.83094">
        <ele>33.3</ele>
        <time>2025-01-28T14:33:31Z</time>
      </trkpt>
      <trkpt lat="47.62981" lon="-2.83092">
        <ele>33.3</ele>
        <time>2025-01-28T14:33:32Z</time>
      </trkpt>
      <trkpt lat="47.62981" lon="-2.8309">
        <ele>33.3</ele>
        <time>2025-01-28T14:33:33Z</time>
      </trkpt>
      <trkpt lat="47.6298" lon="-2.83089">
        <ele>33.4</ele>
        <time>2025-01-28T14:33:34Z</time>
      </trkpt>
      <trkpt lat="47.6298" lon="-2.83087">
        <ele>33.4</ele>
        <time>2025-01-28T14:33:35Z</time>
      </trkpt>
      <trkpt lat="47.62979" lon="-2.83085">
        <ele>33.4</ele>
        <time>2025-01-28T14:33:36Z</time>
      </trkpt>
      <trkpt lat="47.62979" lon="-2.83084">
        <ele>33.5</ele>
        <time>2025-01-28T14:33:37Z</time>
      </trkpt>
      <trkpt lat="47.62978" lon="-2.83082">
        <ele>33.4</ele>
        <time>2025-01-28T14:33:38Z</time>
      </trkpt>
      <trkpt lat="47.62977" lon="-2.83081">
        <ele>33.4</ele>
        <time>2025-01-28T14:33:39Z</time>
      </trkpt>
      <trkpt lat="47.62977" lon="-2.83079">
        <ele>33.4</ele>
        <time>2025-01-28T14:33:40Z</time>
      </trkpt>
      <trkpt lat="47.62976" lon="-2.83077">
        <ele>33.5</ele>
        <time>2025-01-28T14:33:41Z</time>
      </trkpt>
      <trkpt lat="47.62976" lon="-2.83075">
        <ele>33.5</ele>
        <time>2025-01-28T14:33:42Z</time>
      </trkpt>
      <trkpt lat="47.62976" lon="-2.83073">
        <ele>33.6</ele>
        <time>2025-01-28T14:33:43Z</time>
      </trkpt>
      <trkpt lat="47.62975" lon="-2.83071">
        <ele>33.6</ele>
        <time>2025-01-28T14:33:44Z</time>
      </trkpt>
      <trkpt lat="47.62975" lon="-2.83069">
        <ele>33.7</ele>
        <time>2025-01-28T14:33:45Z</time>
      </trkpt>
      <trkpt lat="47.62975" lon="-2.83068">
        <ele>33.7</ele>
        <time>2025-01-28T14:33:46Z</time>
      </trkpt>
      <trkpt lat="47.62974" lon="-2.83066">
        <ele>33.7</ele>
        <time>2025-01-28T14:33:47Z</time>
      </trkpt>
      <trkpt lat="47.62974" lon="-2.83064">
        <ele>33.8</ele>
        <time>2025-01-28T14:33:48Z</time>
      </trkpt>
      <trkpt lat="47.62974" lon="-2.83062">
        <ele>33.9</ele>
        <time>2025-01-28T14:33:49Z</time>
      </trkpt>
      <trkpt lat="47.62974" lon="-2.8306">
        <ele>33.9</ele>
        <time>2025-01-28T14:33:50Z</time>
      </trkpt>
      <trkpt lat="47.62973" lon="-2.83058">
        <ele>34</ele>
        <time>2025-01-28T14:33:51Z</time>
      </trkpt>
      <trkpt lat="47.62973" lon="-2.83056">
        <ele>34</ele>
        <time>2025-01-28T14:33:52Z</time>
      </trkpt>
      <trkpt lat="47.62972" lon="-2.83054">
        <ele>34.1</ele>
        <time>2025-01-28T14:33:53Z</time>
      </trkpt>
      <trkpt lat="47.62972" lon="-2.83052">
        <ele>34.1</ele>
        <time>2025-01-28T14:33:54Z</time>
      </trkpt>
      <trkpt lat="47.62972" lon="-2.8305">
        <ele>34.2</ele>
        <time>2025-01-28T14:33:55Z</time>
      </trkpt>
      <trkpt lat="47.62971" lon="-2.83048">
        <ele>34.2</ele>
        <time>2025-01-28T14:33:56Z</time>
      </trkpt>
      <trkpt lat="47.62971" lon="-2.83046">
        <ele>34.2</ele>
        <time>2025-01-28T14:33:57Z</time>
      </trkpt>
      <trkpt lat="47.6297" lon="-2.83044">
        <ele>34.3</ele>
        <time>2025-01-28T14:33:58Z</time>
      </trkpt>
      <trkpt lat="47.6297" lon="-2.83042">
        <ele>34.3</ele>
        <time>2025-01-28T14:33:59Z</time>
      </trkpt>
      <trkpt lat="47.6297" lon="-2.8304">
        <ele>34.4</ele>
        <time>2025-01-28T14:34:00Z</time>
      </trkpt>
      <trkpt lat="47.62969" lon="-2.83038">
        <ele>34.4</ele>
        <time>2025-01-28T14:34:01Z</time>
      </trkpt>
      <trkpt lat="47.62969" lon="-2.83036">
        <ele>34.4</ele>
        <time>2025-01-28T14:34:02Z</time>
      </trkpt>
      <trkpt lat="47.62968" lon="-2.83034">
        <ele>34.5</ele>
        <time>2025-01-28T14:34:03Z</time>
      </trkpt>
      <trkpt lat="47.62968" lon="-2.83033">
        <ele>34.5</ele>
        <time>2025-01-28T14:34:04Z</time>
      </trkpt>
      <trkpt lat="47.62967" lon="-2.83031">
        <ele>34.5</ele>
        <time>2025-01-28T14:34:05Z</time>
      </trkpt>
      <trkpt lat="47.62966" lon="-2.8303">
        <ele>34.5</ele>
        <time>2025-01-28T14:34:06Z</time>
      </trkpt>
      <trkpt lat="47.62966" lon="-2.83028">
        <ele>34.6</ele>
        <time>2025-01-28T14:34:07Z</time>
      </trkpt>
      <trkpt lat="47.62965" lon="-2.83026">
        <ele>34.5</ele>
        <time>2025-01-28T14:34:08Z</time>
      </trkpt>
      <trkpt lat="47.62965" lon="-2.83024">
        <ele>34.5</ele>
        <time>2025-01-28T14:34:09Z</time>
      </trkpt>
      <trkpt lat="47.62964" lon="-2.83022">
        <ele>34.4</ele>
        <time>2025-01-28T14:34:10Z</time>
      </trkpt>
      <trkpt lat="47.62964" lon="-2.83021">
        <ele>34.4</ele>
        <time>2025-01-28T14:34:11Z</time>
      </trkpt>
      <trkpt lat="47.62963" lon="-2.83019">
        <ele>34.4</ele>
        <time>2025-01-28T14:34:12Z</time>
      </trkpt>
      <trkpt lat="47.62963" lon="-2.83017">
        <ele>34.3</ele>
        <time>2025-01-28T14:34:13Z</time>
      </trkpt>
      <trkpt lat="47.62963" lon="-2.83015">
        <ele>34.3</ele>
        <time>2025-01-28T14:34:14Z</time>
      </trkpt>
      <trkpt lat="47.62962" lon="-2.83013">
        <ele>34.3</ele>
        <time>2025-01-28T14:34:15Z</time>
      </trkpt>
      <trkpt lat="47.62962" lon="-2.83011">
        <ele>34.2</ele>
        <time>2025-01-28T14:34:16Z</time>
      </trkpt>
      <trkpt lat="47.62961" lon="-2.8301">
        <ele>34.2</ele>
        <time>2025-01-28T14:34:17Z</time>
      </trkpt>
      <trkpt lat="47.6296" lon="-2.83008">
        <ele>34.1</ele>
        <time>2025-01-28T14:34:18Z</time>
      </trkpt>
      <trkpt lat="47.6296" lon="-2.83007">
        <ele>34.1</ele>
        <time>2025-01-28T14:34:19Z</time>
      </trkpt>
      <trkpt lat="47.62959" lon="-2.83006">
        <ele>34.1</ele>
        <time>2025-01-28T14:34:20Z</time>
      </trkpt>
      <trkpt lat="47.62959" lon="-2.83004">
        <ele>34</ele>
        <time>2025-01-28T14:34:21Z</time>
      </trkpt>
      <trkpt lat="47.62959" lon="-2.83003">
        <ele>34</ele>
        <time>2025-01-28T14:34:22Z</time>
      </trkpt>
      <trkpt lat="47.62958" lon="-2.83001">
        <ele>34</ele>
        <time>2025-01-28T14:34:23Z</time>
      </trkpt>
      <trkpt lat="47.62958" lon="-2.83">
        <ele>34</ele>
        <time>2025-01-28T14:34:24Z</time>
      </trkpt>
      <trkpt lat="47.62957" lon="-2.82998">
        <ele>34</ele>
        <time>2025-01-28T14:34:25Z</time>
      </trkpt>
      <trkpt lat="47.62957" lon="-2.82997">
        <ele>34</ele>
        <time>2025-01-28T14:34:26Z</time>
      </trkpt>
      <trkpt lat="47.62956" lon="-2.82996">
        <ele>34</ele>
        <time>2025-01-28T14:34:27Z</time>
      </trkpt>
      <trkpt lat="47.62956" lon="-2.82994">
        <ele>34</ele>
        <time>2025-01-28T14:34:28Z</time>
      </trkpt>
      <trkpt lat="47.62955" lon="-2.82993">
        <ele>34</ele>
        <time>2025-01-28T14:34:29Z</time>
      </trkpt>
      <trkpt lat="47.62955" lon="-2.82991">
        <ele>34.1</ele>
        <time>2025-01-28T14:34:30Z</time>
      </trkpt>
      <trkpt lat="47.62955" lon="-2.82989">
        <ele>34.1</ele>
        <time>2025-01-28T14:34:31Z</time>
      </trkpt>
      <trkpt lat="47.62954" lon="-2.82987">
        <ele>34.2</ele>
        <time>2025-01-28T14:34:32Z</time>
      </trkpt>
      <trkpt lat="47.62954" lon="-2.82986">
        <ele>34.2</ele>
        <time>2025-01-28T14:34:33Z</time>
      </trkpt>
      <trkpt lat="47.62953" lon="-2.82984">
        <ele>34.2</ele>
        <time>2025-01-28T14:34:34Z</time>
      </trkpt>
      <trkpt lat="47.62953" lon="-2.82982">
        <ele>34.2</ele>
        <time>2025-01-28T14:34:35Z</time>
      </trkpt>
      <trkpt lat="47.62952" lon="-2.82981">
        <ele>34.3</ele>
        <time>2025-01-28T14:34:36Z</time>
      </trkpt>
      <trkpt lat="47.62952" lon="-2.82979">
        <ele>34.3</ele>
        <time>2025-01-28T14:34:37Z</time>
      </trkpt>
      <trkpt lat="47.62951" lon="-2.82977">
        <ele>34.3</ele>
        <time>2025-01-28T14:34:38Z</time>
      </trkpt>
      <trkpt lat="47.62951" lon="-2.82976">
        <ele>34.3</ele>
        <time>2025-01-28T14:34:39Z</time>
      </trkpt>
      <trkpt lat="47.6295" lon="-2.82974">
        <ele>34.3</ele>
        <time>2025-01-28T14:34:40Z</time>
      </trkpt>
      <trkpt lat="47.62949" lon="-2.82972">
        <ele>34.4</ele>
        <time>2025-01-28T14:34:41Z</time>
      </trkpt>
      <trkpt lat="47.62949" lon="-2.8297">
        <ele>34.3</ele>
        <time>2025-01-28T14:34:42Z</time>
      </trkpt>
      <trkpt lat="47.62948" lon="-2.82968">
        <ele>34.3</ele>
        <time>2025-01-28T14:34:43Z</time>
      </trkpt>
      <trkpt lat="47.62948" lon="-2.82967">
        <ele>34.2</ele>
        <time>2025-01-28T14:34:44Z</time>
      </trkpt>
      <trkpt lat="47.62947" lon="-2.82965">
        <ele>34.2</ele>
        <time>2025-01-28T14:34:45Z</time>
      </trkpt>
      <trkpt lat="47.62947" lon="-2.82963">
        <ele>34.2</ele>
        <time>2025-01-28T14:34:46Z</time>
      </trkpt>
      <trkpt lat="47.62946" lon="-2.82961">
        <ele>34.1</ele>
        <time>2025-01-28T14:34:47Z</time>
      </trkpt>
      <trkpt lat="47.62946" lon="-2.82959">
        <ele>34.1</ele>
        <time>2025-01-28T14:34:48Z</time>
      </trkpt>
      <trkpt lat="47.62946" lon="-2.82957">
        <ele>34.1</ele>
        <time>2025-01-28T14:34:49Z</time>
      </trkpt>
      <trkpt lat="47.62945" lon="-2.82955">
        <ele>34.1</ele>
        <time>2025-01-28T14:34:50Z</time>
      </trkpt>
      <trkpt lat="47.62945" lon="-2.82954">
        <ele>34</ele>
        <time>2025-01-28T14:34:51Z</time>
      </trkpt>
      <trkpt lat="47.62944" lon="-2.82952">
        <ele>34</ele>
        <time>2025-01-28T14:34:52Z</time>
      </trkpt>
      <trkpt lat="47.62943" lon="-2.82951">
        <ele>33.9</ele>
        <time>2025-01-28T14:34:53Z</time>
      </trkpt>
      <trkpt lat="47.62943" lon="-2.82949">
        <ele>33.9</ele>
        <time>2025-01-28T14:34:54Z</time>
      </trkpt>
      <trkpt lat="47.62943" lon="-2.82947">
        <ele>33.9</ele>
        <time>2025-01-28T14:34:55Z</time>
      </trkpt>
      <trkpt lat="47.62942" lon="-2.82946">
        <ele>33.8</ele>
        <time>2025-01-28T14:34:56Z</time>
      </trkpt>
      <trkpt lat="47.62942" lon="-2.82944">
        <ele>33.8</ele>
        <time>2025-01-28T14:34:57Z</time>
      </trkpt>
      <trkpt lat="47.62942" lon="-2.82942">
        <ele>33.8</ele>
        <time>2025-01-28T14:34:58Z</time>
      </trkpt>
      <trkpt lat="47.62941" lon="-2.8294">
        <ele>33.7</ele>
        <time>2025-01-28T14:34:59Z</time>
      </trkpt>
      <trkpt lat="47.62941" lon="-2.82939">
        <ele>33.7</ele>
        <time>2025-01-28T14:35:00Z</time>
      </trkpt>
      <trkpt lat="47.62941" lon="-2.82937">
        <ele>33.7</ele>
        <time>2025-01-28T14:35:01Z</time>
      </trkpt>
      <trkpt lat="47.6294" lon="-2.82935">
        <ele>33.7</ele>
        <time>2025-01-28T14:35:02Z</time>
      </trkpt>
      <trkpt lat="47.6294" lon="-2.82933">
        <ele>33.6</ele>
        <time>2025-01-28T14:35:03Z</time>
      </trkpt>
      <trkpt lat="47.62939" lon="-2.82932">
        <ele>33.5</ele>
        <time>2025-01-28T14:35:04Z</time>
      </trkpt>
      <trkpt lat="47.62939" lon="-2.8293">
        <ele>33.5</ele>
        <time>2025-01-28T14:35:05Z</time>
      </trkpt>
      <trkpt lat="47.62938" lon="-2.82929">
        <ele>33.4</ele>
        <time>2025-01-28T14:35:06Z</time>
      </trkpt>
      <trkpt lat="47.62937" lon="-2.82927">
        <ele>33.3</ele>
        <time>2025-01-28T14:35:07Z</time>
      </trkpt>
      <trkpt lat="47.62937" lon="-2.82925">
        <ele>33.3</ele>
        <time>2025-01-28T14:35:08Z</time>
      </trkpt>
      <trkpt lat="47.62937" lon="-2.82924">
        <ele>33.2</ele>
        <time>2025-01-28T14:35:09Z</time>
      </trkpt>
      <trkpt lat="47.62936" lon="-2.82922">
        <ele>33.2</ele>
        <time>2025-01-28T14:35:10Z</time>
      </trkpt>
      <trkpt lat="47.62936" lon="-2.8292">
        <ele>33.1</ele>
        <time>2025-01-28T14:35:11Z</time>
      </trkpt>
      <trkpt lat="47.62935" lon="-2.82918">
        <ele>33</ele>
        <time>2025-01-28T14:35:12Z</time>
      </trkpt>
      <trkpt lat="47.62934" lon="-2.82917">
        <ele>32.9</ele>
        <time>2025-01-28T14:35:13Z</time>
      </trkpt>
      <trkpt lat="47.62934" lon="-2.82915">
        <ele>32.8</ele>
        <time>2025-01-28T14:35:14Z</time>
      </trkpt>
      <trkpt lat="47.62933" lon="-2.82913">
        <ele>32.8</ele>
        <time>2025-01-28T14:35:15Z</time>
      </trkpt>
      <trkpt lat="47.62932" lon="-2.82911">
        <ele>32.7</ele>
        <time>2025-01-28T14:35:16Z</time>
      </trkpt>
      <trkpt lat="47.62932" lon="-2.8291">
        <ele>32.6</ele>
        <time>2025-01-28T14:35:17Z</time>
      </trkpt>
      <trkpt lat="47.62931" lon="-2.82908">
        <ele>32.5</ele>
        <time>2025-01-28T14:35:18Z</time>
      </trkpt>
      <trkpt lat="47.6293" lon="-2.82907">
        <ele>32.4</ele>
        <time>2025-01-28T14:35:19Z</time>
      </trkpt>
      <trkpt lat="47.62929" lon="-2.82906">
        <ele>32.3</ele>
        <time>2025-01-28T14:35:20Z</time>
      </trkpt>
      <trkpt lat="47.62927" lon="-2.82905">
        <ele>32.2</ele>
        <time>2025-01-28T14:35:21Z</time>
      </trkpt>
      <trkpt lat="47.62925" lon="-2.82906">
        <ele>32.1</ele>
        <time>2025-01-28T14:35:22Z</time>
      </trkpt>
      <trkpt lat="47.62924" lon="-2.82906">
        <ele>32</ele>
        <time>2025-01-28T14:35:23Z</time>
      </trkpt>
      <trkpt lat="47.62922" lon="-2.82907">
        <ele>31.8</ele>
        <time>2025-01-28T14:35:24Z</time>
      </trkpt>
      <trkpt lat="47.62921" lon="-2.82908">
        <ele>31.7</ele>
        <time>2025-01-28T14:35:25Z</time>
      </trkpt>
      <trkpt lat="47.6292" lon="-2.82908">
        <ele>31.5</ele>
        <time>2025-01-28T14:35:26Z</time>
      </trkpt>
      <trkpt lat="47.62918" lon="-2.82909">
        <ele>31.4</ele>
        <time>2025-01-28T14:35:27Z</time>
      </trkpt>
      <trkpt lat="47.62917" lon="-2.8291">
        <ele>31.2</ele>
        <time>2025-01-28T14:35:28Z</time>
      </trkpt>
      <trkpt lat="47.62915" lon="-2.82911">
        <ele>31.1</ele>
        <time>2025-01-28T14:35:29Z</time>
      </trkpt>
      <trkpt lat="47.62914" lon="-2.82911">
        <ele>31</ele>
        <time>2025-01-28T14:35:30Z</time>
      </trkpt>
      <trkpt lat="47.62913" lon="-2.82912">
        <ele>30.9</ele>
        <time>2025-01-28T14:35:31Z</time>
      </trkpt>
      <trkpt lat="47.62911" lon="-2.82913">
        <ele>30.7</ele>
        <time>2025-01-28T14:35:32Z</time>
      </trkpt>
      <trkpt lat="47.6291" lon="-2.82914">
        <ele>30.6</ele>
        <time>2025-01-28T14:35:33Z</time>
      </trkpt>
      <trkpt lat="47.62909" lon="-2.82915">
        <ele>30.5</ele>
        <time>2025-01-28T14:35:34Z</time>
      </trkpt>
      <trkpt lat="47.62907" lon="-2.82916">
        <ele>30.3</ele>
        <time>2025-01-28T14:35:35Z</time>
      </trkpt>
      <trkpt lat="47.62906" lon="-2.82917">
        <ele>30.3</ele>
        <time>2025-01-28T14:35:36Z</time>
      </trkpt>
      <trkpt lat="47.62905" lon="-2.82918">
        <ele>30.2</ele>
        <time>2025-01-28T14:35:37Z</time>
      </trkpt>
      <trkpt lat="47.62904" lon="-2.82919">
        <ele>30.2</ele>
        <time>2025-01-28T14:35:38Z</time>
      </trkpt>
      <trkpt lat="47.62903" lon="-2.8292">
        <ele>30.1</ele>
        <time>2025-01-28T14:35:39Z</time>
      </trkpt>
      <trkpt lat="47.62901" lon="-2.82921">
        <ele>30</ele>
        <time>2025-01-28T14:35:40Z</time>
      </trkpt>
      <trkpt lat="47.629" lon="-2.82922">
        <ele>30</ele>
        <time>2025-01-28T14:35:41Z</time>
      </trkpt>
      <trkpt lat="47.62899" lon="-2.82922">
        <ele>29.9</ele>
        <time>2025-01-28T14:35:42Z</time>
      </trkpt>
      <trkpt lat="47.62898" lon="-2.82923">
        <ele>29.9</ele>
        <time>2025-01-28T14:35:43Z</time>
      </trkpt>
      <trkpt lat="47.62896" lon="-2.82923">
        <ele>29.8</ele>
        <time>2025-01-28T14:35:44Z</time>
      </trkpt>
      <trkpt lat="47.62895" lon="-2.82924">
        <ele>29.7</ele>
        <time>2025-01-28T14:35:45Z</time>
      </trkpt>
      <trkpt lat="47.62894" lon="-2.82924">
        <ele>29.6</ele>
        <time>2025-01-28T14:35:46Z</time>
      </trkpt>
      <trkpt lat="47.62893" lon="-2.82925">
        <ele>29.6</ele>
        <time>2025-01-28T14:35:47Z</time>
      </trkpt>
      <trkpt lat="47.62891" lon="-2.82926">
        <ele>29.5</ele>
        <time>2025-01-28T14:35:48Z</time>
      </trkpt>
      <trkpt lat="47.6289" lon="-2.82927">
        <ele>29.5</ele>
        <time>2025-01-28T14:35:49Z</time>
      </trkpt>
      <trkpt lat="47.62889" lon="-2.82928">
        <ele>29.4</ele>
        <time>2025-01-28T14:35:50Z</time>
      </trkpt>
      <trkpt lat="47.62888" lon="-2.82929">
        <ele>29.4</ele>
        <time>2025-01-28T14:35:51Z</time>
      </trkpt>
      <trkpt lat="47.62886" lon="-2.8293">
        <ele>29.3</ele>
        <time>2025-01-28T14:35:52Z</time>
      </trkpt>
      <trkpt lat="47.62885" lon="-2.8293">
        <ele>29.3</ele>
        <time>2025-01-28T14:35:53Z</time>
      </trkpt>
      <trkpt lat="47.62884" lon="-2.82931">
        <ele>29.2</ele>
        <time>2025-01-28T14:35:54Z</time>
      </trkpt>
      <trkpt lat="47.62882" lon="-2.82932">
        <ele>29.2</ele>
        <time>2025-01-28T14:35:55Z</time>
      </trkpt>
      <trkpt lat="47.62881" lon="-2.82933">
        <ele>29.1</ele>
        <time>2025-01-28T14:35:56Z</time>
      </trkpt>
      <trkpt lat="47.6288" lon="-2.82933">
        <ele>29.1</ele>
        <time>2025-01-28T14:35:57Z</time>
      </trkpt>
      <trkpt lat="47.62879" lon="-2.82934">
        <ele>29</ele>
        <time>2025-01-28T14:35:58Z</time>
      </trkpt>
      <trkpt lat="47.62878" lon="-2.82935">
        <ele>29</ele>
        <time>2025-01-28T14:35:59Z</time>
      </trkpt>
      <trkpt lat="47.62876" lon="-2.82936">
        <ele>28.9</ele>
        <time>2025-01-28T14:36:00Z</time>
      </trkpt>
      <trkpt lat="47.62875" lon="-2.82936">
        <ele>28.9</ele>
        <time>2025-01-28T14:36:01Z</time>
      </trkpt>
      <trkpt lat="47.62874" lon="-2.82937">
        <ele>28.8</ele>
        <time>2025-01-28T14:36:02Z</time>
      </trkpt>
      <trkpt lat="47.62873" lon="-2.82937">
        <ele>28.7</ele>
        <time>2025-01-28T14:36:03Z</time>
      </trkpt>
      <trkpt lat="47.62871" lon="-2.82938">
        <ele>28.6</ele>
        <time>2025-01-28T14:36:04Z</time>
      </trkpt>
      <trkpt lat="47.6287" lon="-2.82938">
        <ele>28.6</ele>
        <time>2025-01-28T14:36:05Z</time>
      </trkpt>
      <trkpt lat="47.62869" lon="-2.82939">
        <ele>28.5</ele>
        <time>2025-01-28T14:36:06Z</time>
      </trkpt>
      <trkpt lat="47.62868" lon="-2.82939">
        <ele>28.4</ele>
        <time>2025-01-28T14:36:07Z</time>
      </trkpt>
      <trkpt lat="47.62866" lon="-2.8294">
        <ele>28.3</ele>
        <time>2025-01-28T14:36:08Z</time>
      </trkpt>
      <trkpt lat="47.62865" lon="-2.8294">
        <ele>28.3</ele>
        <time>2025-01-28T14:36:09Z</time>
      </trkpt>
      <trkpt lat="47.62864" lon="-2.82941">
        <ele>28.2</ele>
        <time>2025-01-28T14:36:10Z</time>
      </trkpt>
      <trkpt lat="47.62863" lon="-2.82942">
        <ele>28.1</ele>
        <time>2025-01-28T14:36:11Z</time>
      </trkpt>
      <trkpt lat="47.62861" lon="-2.82942">
        <ele>28</ele>
        <time>2025-01-28T14:36:12Z</time>
      </trkpt>
      <trkpt lat="47.6286" lon="-2.82943">
        <ele>27.9</ele>
        <time>2025-01-28T14:36:13Z</time>
      </trkpt>
      <trkpt lat="47.62859" lon="-2.82944">
        <ele>27.8</ele>
        <time>2025-01-28T14:36:14Z</time>
      </trkpt>
      <trkpt lat="47.62858" lon="-2.82944">
        <ele>27.6</ele>
        <time>2025-01-28T14:36:15Z</time>
      </trkpt>
      <trkpt lat="47.62857" lon="-2.82945">
        <ele>27.5</ele>
        <time>2025-01-28T14:36:16Z</time>
      </trkpt>
      <trkpt lat="47.62856" lon="-2.82945">
        <ele>27.4</ele>
        <time>2025-01-28T14:36:17Z</time>
      </trkpt>
      <trkpt lat="47.62854" lon="-2.82946">
        <ele>27.3</ele>
        <time>2025-01-28T14:36:18Z</time>
      </trkpt>
      <trkpt lat="47.62853" lon="-2.82946">
        <ele>27.2</ele>
        <time>2025-01-28T14:36:19Z</time>
      </trkpt>
      <trkpt lat="47.62852" lon="-2.82947">
        <ele>27.1</ele>
        <time>2025-01-28T14:36:20Z</time>
      </trkpt>
      <trkpt lat="47.62851" lon="-2.82948">
        <ele>27</ele>
        <time>2025-01-28T14:36:21Z</time>
      </trkpt>
      <trkpt lat="47.62849" lon="-2.82948">
        <ele>26.9</ele>
        <time>2025-01-28T14:36:22Z</time>
      </trkpt>
      <trkpt lat="47.62848" lon="-2.82948">
        <ele>26.8</ele>
        <time>2025-01-28T14:36:23Z</time>
      </trkpt>
      <trkpt lat="47.62847" lon="-2.82948">
        <ele>26.7</ele>
        <time>2025-01-28T14:36:24Z</time>
      </trkpt>
      <trkpt lat="47.62846" lon="-2.82949">
        <ele>26.5</ele>
        <time>2025-01-28T14:36:25Z</time>
      </trkpt>
      <trkpt lat="47.62844" lon="-2.82948">
        <ele>26.4</ele>
        <time>2025-01-28T14:36:26Z</time>
      </trkpt>
      <trkpt lat="47.62843" lon="-2.82949">
        <ele>26.3</ele>
        <time>2025-01-28T14:36:27Z</time>
      </trkpt>
      <trkpt lat="47.62842" lon="-2.82949">
        <ele>26.2</ele>
        <time>2025-01-28T14:36:28Z</time>
      </trkpt>
      <trkpt lat="47.62841" lon="-2.8295">
        <ele>26.2</ele>
        <time>2025-01-28T14:36:29Z</time>
      </trkpt>
      <trkpt lat="47.6284" lon="-2.8295">
        <ele>26</ele>
        <time>2025-01-28T14:36:30Z</time>
      </trkpt>
      <trkpt lat="47.62838" lon="-2.82951">
        <ele>26</ele>
        <time>2025-01-28T14:36:31Z</time>
      </trkpt>
      <trkpt lat="47.62837" lon="-2.82952">
        <ele>25.9</ele>
        <time>2025-01-28T14:36:32Z</time>
      </trkpt>
      <trkpt lat="47.62836" lon="-2.82952">
        <ele>25.8</ele>
        <time>2025-01-28T14:36:33Z</time>
      </trkpt>
      <trkpt lat="47.62835" lon="-2.82952">
        <ele>25.7</ele>
        <time>2025-01-28T14:36:34Z</time>
      </trkpt>
      <trkpt lat="47.62833" lon="-2.82953">
        <ele>25.6</ele>
        <time>2025-01-28T14:36:35Z</time>
      </trkpt>
      <trkpt lat="47.62832" lon="-2.82953">
        <ele>25.5</ele>
        <time>2025-01-28T14:36:36Z</time>
      </trkpt>
      <trkpt lat="47.62831" lon="-2.82953">
        <ele>25.5</ele>
        <time>2025-01-28T14:36:37Z</time>
      </trkpt>
      <trkpt lat="47.6283" lon="-2.82954">
        <ele>25.4</ele>
        <time>2025-01-28T14:36:38Z</time>
      </trkpt>
      <trkpt lat="47.62828" lon="-2.82954">
        <ele>25.3</ele>
        <time>2025-01-28T14:36:39Z</time>
      </trkpt>
      <trkpt lat="47.62827" lon="-2.82954">
        <ele>25.2</ele>
        <time>2025-01-28T14:36:40Z</time>
      </trkpt>
      <trkpt lat="47.62825" lon="-2.82954">
        <ele>25.1</ele>
        <time>2025-01-28T14:36:41Z</time>
      </trkpt>
      <trkpt lat="47.62824" lon="-2.82955">
        <ele>25.1</ele>
        <time>2025-01-28T14:36:42Z</time>
      </trkpt>
      <trkpt lat="47.62823" lon="-2.82955">
        <ele>25</ele>
        <time>2025-01-28T14:36:43Z</time>
      </trkpt>
      <trkpt lat="47.62822" lon="-2.82956">
        <ele>25</ele>
        <time>2025-01-28T14:36:44Z</time>
      </trkpt>
      <trkpt lat="47.62821" lon="-2.82956">
        <ele>24.9</ele>
        <time>2025-01-28T14:36:45Z</time>
      </trkpt>
      <trkpt lat="47.62819" lon="-2.82956">
        <ele>24.8</ele>
        <time>2025-01-28T14:36:46Z</time>
      </trkpt>
      <trkpt lat="47.62818" lon="-2.82956">
        <ele>24.7</ele>
        <time>2025-01-28T14:36:47Z</time>
      </trkpt>
      <trkpt lat="47.62817" lon="-2.82956">
        <ele>24.6</ele>
        <time>2025-01-28T14:36:48Z</time>
      </trkpt>
      <trkpt lat="47.62815" lon="-2.82956">
        <ele>24.5</ele>
        <time>2025-01-28T14:36:49Z</time>
      </trkpt>
      <trkpt lat="47.62814" lon="-2.82956">
        <ele>24.4</ele>
        <time>2025-01-28T14:36:50Z</time>
      </trkpt>
      <trkpt lat="47.62813" lon="-2.82956">
        <ele>24.4</ele>
        <time>2025-01-28T14:36:51Z</time>
      </trkpt>
      <trkpt lat="47.62811" lon="-2.82957">
        <ele>24.3</ele>
        <time>2025-01-28T14:36:52Z</time>
      </trkpt>
      <trkpt lat="47.6281" lon="-2.82957">
        <ele>24.2</ele>
        <time>2025-01-28T14:36:53Z</time>
      </trkpt>
      <trkpt lat="47.62809" lon="-2.82957">
        <ele>24.1</ele>
        <time>2025-01-28T14:36:54Z</time>
      </trkpt>
      <trkpt lat="47.62808" lon="-2.82957">
        <ele>24.1</ele>
        <time>2025-01-28T14:36:55Z</time>
      </trkpt>
      <trkpt lat="47.62806" lon="-2.82958">
        <ele>24</ele>
        <time>2025-01-28T14:36:56Z</time>
      </trkpt>
      <trkpt lat="47.62805" lon="-2.82958">
        <ele>23.9</ele>
        <time>2025-01-28T14:36:57Z</time>
      </trkpt>
      <trkpt lat="47.62804" lon="-2.82959">
        <ele>23.9</ele>
        <time>2025-01-28T14:36:58Z</time>
      </trkpt>
      <trkpt lat="47.62802" lon="-2.82959">
        <ele>23.8</ele>
        <time>2025-01-28T14:36:59Z</time>
      </trkpt>
      <trkpt lat="47.62801" lon="-2.8296">
        <ele>23.8</ele>
        <time>2025-01-28T14:37:00Z</time>
      </trkpt>
      <trkpt lat="47.628" lon="-2.8296">
        <ele>23.7</ele>
        <time>2025-01-28T14:37:01Z</time>
      </trkpt>
      <trkpt lat="47.62798" lon="-2.82961">
        <ele>23.6</ele>
        <time>2025-01-28T14:37:02Z</time>
      </trkpt>
      <trkpt lat="47.62797" lon="-2.82961">
        <ele>23.5</ele>
        <time>2025-01-28T14:37:03Z</time>
      </trkpt>
      <trkpt lat="47.62796" lon="-2.82962">
        <ele>23.5</ele>
        <time>2025-01-28T14:37:04Z</time>
      </trkpt>
      <trkpt lat="47.62795" lon="-2.82962">
        <ele>23.4</ele>
        <time>2025-01-28T14:37:05Z</time>
      </trkpt>
      <trkpt lat="47.62794" lon="-2.82963">
        <ele>23.3</ele>
        <time>2025-01-28T14:37:06Z</time>
      </trkpt>
      <trkpt lat="47.62792" lon="-2.82963">
        <ele>23.2</ele>
        <time>2025-01-28T14:37:07Z</time>
      </trkpt>
      <trkpt lat="47.62791" lon="-2.82963">
        <ele>23.1</ele>
        <time>2025-01-28T14:37:08Z</time>
      </trkpt>
      <trkpt lat="47.62789" lon="-2.82963">
        <ele>23</ele>
        <time>2025-01-28T14:37:09Z</time>
      </trkpt>
      <trkpt lat="47.62788" lon="-2.82963">
        <ele>22.9</ele>
        <time>2025-01-28T14:37:10Z</time>
      </trkpt>
      <trkpt lat="47.62787" lon="-2.82963">
        <ele>22.8</ele>
        <time>2025-01-28T14:37:11Z</time>
      </trkpt>
      <trkpt lat="47.62786" lon="-2.82964">
        <ele>22.7</ele>
        <time>2025-01-28T14:37:12Z</time>
      </trkpt>
      <trkpt lat="47.62784" lon="-2.82964">
        <ele>22.6</ele>
        <time>2025-01-28T14:37:13Z</time>
      </trkpt>
      <trkpt lat="47.62783" lon="-2.82964">
        <ele>22.5</ele>
        <time>2025-01-28T14:37:14Z</time>
      </trkpt>
      <trkpt lat="47.62782" lon="-2.82964">
        <ele>22.3</ele>
        <time>2025-01-28T14:37:15Z</time>
      </trkpt>
      <trkpt lat="47.62781" lon="-2.82964">
        <ele>22.2</ele>
        <time>2025-01-28T14:37:16Z</time>
      </trkpt>
      <trkpt lat="47.62779" lon="-2.82964">
        <ele>22.1</ele>
        <time>2025-01-28T14:37:17Z</time>
      </trkpt>
      <trkpt lat="47.62778" lon="-2.82964">
        <ele>22</ele>
        <time>2025-01-28T14:37:18Z</time>
      </trkpt>
      <trkpt lat="47.62777" lon="-2.82964">
        <ele>21.9</ele>
        <time>2025-01-28T14:37:19Z</time>
      </trkpt>
      <trkpt lat="47.62775" lon="-2.82965">
        <ele>21.8</ele>
        <time>2025-01-28T14:37:20Z</time>
      </trkpt>
      <trkpt lat="47.62774" lon="-2.82965">
        <ele>21.7</ele>
        <time>2025-01-28T14:37:21Z</time>
      </trkpt>
      <trkpt lat="47.62773" lon="-2.82965">
        <ele>21.6</ele>
        <time>2025-01-28T14:37:22Z</time>
      </trkpt>
      <trkpt lat="47.62771" lon="-2.82965">
        <ele>21.5</ele>
        <time>2025-01-28T14:37:23Z</time>
      </trkpt>
      <trkpt lat="47.6277" lon="-2.82967">
        <ele>21.5</ele>
        <time>2025-01-28T14:37:24Z</time>
      </trkpt>
      <trkpt lat="47.62769" lon="-2.82969">
        <ele>21.4</ele>
        <time>2025-01-28T14:37:25Z</time>
      </trkpt>
      <trkpt lat="47.62769" lon="-2.82971">
        <ele>21.3</ele>
        <time>2025-01-28T14:37:26Z</time>
      </trkpt>
      <trkpt lat="47.62768" lon="-2.82972">
        <ele>21.3</ele>
        <time>2025-01-28T14:37:27Z</time>
      </trkpt>
      <trkpt lat="47.62766" lon="-2.82973">
        <ele>21.2</ele>
        <time>2025-01-28T14:37:28Z</time>
      </trkpt>
      <trkpt lat="47.62765" lon="-2.82975">
        <ele>21.1</ele>
        <time>2025-01-28T14:37:29Z</time>
      </trkpt>
      <trkpt lat="47.62764" lon="-2.82975">
        <ele>21.1</ele>
        <time>2025-01-28T14:37:30Z</time>
      </trkpt>
      <trkpt lat="47.62763" lon="-2.82976">
        <ele>21</ele>
        <time>2025-01-28T14:37:31Z</time>
      </trkpt>
      <trkpt lat="47.62762" lon="-2.82976">
        <ele>20.9</ele>
        <time>2025-01-28T14:37:32Z</time>
      </trkpt>
      <trkpt lat="47.6276" lon="-2.82976">
        <ele>20.8</ele>
        <time>2025-01-28T14:37:33Z</time>
      </trkpt>
      <trkpt lat="47.62759" lon="-2.82976">
        <ele>20.7</ele>
        <time>2025-01-28T14:37:34Z</time>
      </trkpt>
      <trkpt lat="47.62758" lon="-2.82976">
        <ele>20.7</ele>
        <time>2025-01-28T14:37:35Z</time>
      </trkpt>
      <trkpt lat="47.62757" lon="-2.82976">
        <ele>20.6</ele>
        <time>2025-01-28T14:37:36Z</time>
      </trkpt>
      <trkpt lat="47.62756" lon="-2.82976">
        <ele>20.5</ele>
        <time>2025-01-28T14:37:37Z</time>
      </trkpt>
      <trkpt lat="47.62754" lon="-2.82976">
        <ele>20.4</ele>
        <time>2025-01-28T14:37:38Z</time>
      </trkpt>
      <trkpt lat="47.62753" lon="-2.82977">
        <ele>20.4</ele>
        <time>2025-01-28T14:37:39Z</time>
      </trkpt>
      <trkpt lat="47.62752" lon="-2.82977">
        <ele>20.3</ele>
        <time>2025-01-28T14:37:40Z</time>
      </trkpt>
      <trkpt lat="47.62752" lon="-2.82977">
        <ele>20.3</ele>
        <time>2025-01-28T14:37:41Z</time>
      </trkpt>
      <trkpt lat="47.62751" lon="-2.82978">
        <ele>20.3</ele>
        <time>2025-01-28T14:37:42Z</time>
      </trkpt>
      <trkpt lat="47.6275" lon="-2.8298">
        <ele>20.3</ele>
        <time>2025-01-28T14:37:43Z</time>
      </trkpt>
      <trkpt lat="47.6275" lon="-2.82981">
        <ele>20.3</ele>
        <time>2025-01-28T14:37:44Z</time>
      </trkpt>
      <trkpt lat="47.6275" lon="-2.82983">
        <ele>20.4</ele>
        <time>2025-01-28T14:37:45Z</time>
      </trkpt>
      <trkpt lat="47.6275" lon="-2.82984">
        <ele>20.4</ele>
        <time>2025-01-28T14:37:46Z</time>
      </trkpt>
      <trkpt lat="47.6275" lon="-2.82986">
        <ele>20.5</ele>
        <time>2025-01-28T14:37:47Z</time>
      </trkpt>
      <trkpt lat="47.6275" lon="-2.82988">
        <ele>20.6</ele>
        <time>2025-01-28T14:37:48Z</time>
      </trkpt>
      <trkpt lat="47.62751" lon="-2.82989">
        <ele>20.6</ele>
        <time>2025-01-28T14:37:49Z</time>
      </trkpt>
      <trkpt lat="47.62751" lon="-2.8299">
        <ele>20.7</ele>
        <time>2025-01-28T14:37:50Z</time>
      </trkpt>
      <trkpt lat="47.62752" lon="-2.82991">
        <ele>20.8</ele>
        <time>2025-01-28T14:37:51Z</time>
      </trkpt>
      <trkpt lat="47.62752" lon="-2.82993">
        <ele>20.8</ele>
        <time>2025-01-28T14:37:52Z</time>
      </trkpt>
      <trkpt lat="47.62752" lon="-2.82994">
        <ele>20.9</ele>
        <time>2025-01-28T14:37:53Z</time>
      </trkpt>
      <trkpt lat="47.62752" lon="-2.82995">
        <ele>20.9</ele>
        <time>2025-01-28T14:37:54Z</time>
      </trkpt>
      <trkpt lat="47.62752" lon="-2.82996">
        <ele>20.9</ele>
        <time>2025-01-28T14:37:55Z</time>
      </trkpt>
      <trkpt lat="47.62752" lon="-2.82997">
        <ele>21</ele>
        <time>2025-01-28T14:37:56Z</time>
      </trkpt>
      <trkpt lat="47.62753" lon="-2.82998">
        <ele>21</ele>
        <time>2025-01-28T14:37:57Z</time>
      </trkpt>
      <trkpt lat="47.62753" lon="-2.82999">
        <ele>21.1</ele>
        <time>2025-01-28T14:37:58Z</time>
      </trkpt>
      <trkpt lat="47.62753" lon="-2.83">
        <ele>21.1</ele>
        <time>2025-01-28T14:37:59Z</time>
      </trkpt>
      <trkpt lat="47.62752" lon="-2.83001">
        <ele>21.1</ele>
        <time>2025-01-28T14:38:00Z</time>
      </trkpt>
      <trkpt lat="47.62753" lon="-2.83">
        <ele>21.1</ele>
        <time>2025-01-28T14:38:01Z</time>
      </trkpt>
      <trkpt lat="47.62753" lon="-2.83">
        <ele>21.1</ele>
        <time>2025-01-28T14:38:02Z</time>
      </trkpt>
    </trkseg>
  </trk>
</gpx>